<?xml version='1.0' encoding='UTF-8'?><gpx version="1.1" creator="JPX - https://github.com/jenetics/jpx" xmlns="http://www.topografix.com/GPX/1/1"><trk><trkseg><trkpt lat="42.7635755" lon="12.1495733"><ele>354.5</ele><time>2026-04-11T07:17:07.518Z</time></trkpt><trkpt lat="42.7634707" lon="12.1495304"><ele>351.0</ele><time>2026-04-11T07:17:08.509Z</time></trkpt><trkpt lat="42.7633601" lon="12.1495058"><ele>347.5</ele><time>2026-04-11T07:17:09.513Z</time></trkpt><trkpt lat="42.7632537" lon="12.1494782"><ele>344.0</ele><time>2026-04-11T07:17:10.52Z</time></trkpt><trkpt lat="42.7630486" lon="12.1494028"><ele>344.0</ele><time>2026-04-11T07:17:12.53Z</time></trkpt><trkpt lat="42.76295" lon="12.1493615"><ele>344.0</ele><time>2026-04-11T07:17:13.535Z</time></trkpt><trkpt lat="42.7628682" lon="12.1492881"><ele>344.0</ele><time>2026-04-11T07:17:14.536Z</time></trkpt><trkpt lat="42.7627763" lon="12.1491722"><ele>344.0</ele><time>2026-04-11T07:17:15.524Z</time></trkpt><trkpt lat="42.762687" lon="12.1490452"><ele>340.0</ele><time>2026-04-11T07:17:16.522Z</time></trkpt><trkpt lat="42.7626133" lon="12.148893"><ele>336.0</ele><time>2026-04-11T07:17:17.528Z</time></trkpt><trkpt lat="42.762539" lon="12.1487354"><ele>332.0</ele><time>2026-04-11T07:17:18.546Z</time></trkpt><trkpt lat="42.7624508" lon="12.1485925"><ele>328.0</ele><time>2026-04-11T07:17:19.548Z</time></trkpt><trkpt lat="42.7623511" lon="12.1484588"><ele>328.0</ele><time>2026-04-11T07:17:20.55Z</time></trkpt><trkpt lat="42.762235" lon="12.1483636"><ele>328.0</ele><time>2026-04-11T07:17:21.541Z</time></trkpt><trkpt lat="42.7621213" lon="12.1482907"><ele>328.0</ele><time>2026-04-11T07:17:22.547Z</time></trkpt><trkpt lat="42.7620222" lon="12.1482258"><ele>328.0</ele><time>2026-04-11T07:17:23.532Z</time></trkpt><trkpt lat="42.7619265" lon="12.1481451"><ele>323.0</ele><time>2026-04-11T07:17:24.696Z</time></trkpt><trkpt lat="42.7617514" lon="12.1479251"><ele>318.0</ele><time>2026-04-11T07:17:26.531Z</time></trkpt><trkpt lat="42.761662" lon="12.1478387"><ele>313.0</ele><time>2026-04-11T07:17:27.551Z</time></trkpt><trkpt lat="42.7615663" lon="12.1477781"><ele>313.0</ele><time>2026-04-11T07:17:28.471Z</time></trkpt><trkpt lat="42.7614585" lon="12.1477329"><ele>313.0</ele><time>2026-04-11T07:17:29.464Z</time></trkpt><trkpt lat="42.7613451" lon="12.1476716"><ele>313.0</ele><time>2026-04-11T07:17:30.466Z</time></trkpt><trkpt lat="42.7612439" lon="12.1476066"><ele>313.0</ele><time>2026-04-11T07:17:31.467Z</time></trkpt><trkpt lat="42.761143" lon="12.147526"><ele>313.0</ele><time>2026-04-11T07:17:32.459Z</time></trkpt><trkpt lat="42.7610508" lon="12.147427"><ele>313.0</ele><time>2026-04-11T07:17:33.459Z</time></trkpt><trkpt lat="42.7609646" lon="12.147297"><ele>313.0</ele><time>2026-04-11T07:17:34.477Z</time></trkpt><trkpt lat="42.7608719" lon="12.1471627"><ele>313.0</ele><time>2026-04-11T07:17:35.474Z</time></trkpt><trkpt lat="42.7607671" lon="12.1470246"><ele>310.3333333333333</ele><time>2026-04-11T07:17:36.482Z</time></trkpt><trkpt lat="42.7606304" lon="12.1468957"><ele>307.6666666666667</ele><time>2026-04-11T07:17:37.481Z</time></trkpt><trkpt lat="42.7605272" lon="12.1467691"><ele>305.0</ele><time>2026-04-11T07:17:38.489Z</time></trkpt><trkpt lat="42.7604064" lon="12.1466595"><ele>305.0</ele><time>2026-04-11T07:17:39.493Z</time></trkpt><trkpt lat="42.7602818" lon="12.1465568"><ele>305.0</ele><time>2026-04-11T07:17:40.486Z</time></trkpt><trkpt lat="42.7601531" lon="12.1464658"><ele>305.0</ele><time>2026-04-11T07:17:41.483Z</time></trkpt><trkpt lat="42.7600306" lon="12.1463897"><ele>305.0</ele><time>2026-04-11T07:17:42.484Z</time></trkpt><trkpt lat="42.7599033" lon="12.146295"><ele>302.33333333333337</ele><time>2026-04-11T07:17:43.57Z</time></trkpt><trkpt lat="42.7596767" lon="12.1460241"><ele>299.6666666666667</ele><time>2026-04-11T07:17:45.473Z</time></trkpt><trkpt lat="42.7595915" lon="12.1458797"><ele>297.0</ele><time>2026-04-11T07:17:46.488Z</time></trkpt><trkpt lat="42.7595039" lon="12.1457255"><ele>295.5</ele><time>2026-04-11T07:17:47.478Z</time></trkpt><trkpt lat="42.7594229" lon="12.1455692"><ele>294.0</ele><time>2026-04-11T07:17:48.484Z</time></trkpt><trkpt lat="42.7593578" lon="12.1454006"><ele>292.5</ele><time>2026-04-11T07:17:49.486Z</time></trkpt><trkpt lat="42.7592857" lon="12.1452345"><ele>291.0</ele><time>2026-04-11T07:17:50.491Z</time></trkpt><trkpt lat="42.759212" lon="12.1450568"><ele>291.0</ele><time>2026-04-11T07:17:51.49Z</time></trkpt><trkpt lat="42.7591102" lon="12.144887"><ele>291.0</ele><time>2026-04-11T07:17:52.488Z</time></trkpt><trkpt lat="42.7590102" lon="12.1447409"><ele>291.0</ele><time>2026-04-11T07:17:53.485Z</time></trkpt><trkpt lat="42.7589046" lon="12.1446082"><ele>291.25</ele><time>2026-04-11T07:17:54.481Z</time></trkpt><trkpt lat="42.7587891" lon="12.1445116"><ele>291.5</ele><time>2026-04-11T07:17:55.472Z</time></trkpt><trkpt lat="42.7586688" lon="12.1444147"><ele>291.75</ele><time>2026-04-11T07:17:56.485Z</time></trkpt><trkpt lat="42.7585523" lon="12.1443245"><ele>292.0</ele><time>2026-04-11T07:17:57.488Z</time></trkpt><trkpt lat="42.7584442" lon="12.1442195"><ele>292.0</ele><time>2026-04-11T07:17:58.492Z</time></trkpt><trkpt lat="42.758343" lon="12.1440987"><ele>292.0</ele><time>2026-04-11T07:17:59.476Z</time></trkpt><trkpt lat="42.7582305" lon="12.1439769"><ele>292.0</ele><time>2026-04-11T07:18:00.48Z</time></trkpt><trkpt lat="42.7580994" lon="12.1438677"><ele>292.0</ele><time>2026-04-11T07:18:01.467Z</time></trkpt><trkpt lat="42.7579519" lon="12.1437702"><ele>290.66666666666663</ele><time>2026-04-11T07:18:02.467Z</time></trkpt><trkpt lat="42.7577952" lon="12.1436736"><ele>289.3333333333333</ele><time>2026-04-11T07:18:03.475Z</time></trkpt><trkpt lat="42.7576491" lon="12.1435894"><ele>288.0</ele><time>2026-04-11T07:18:04.487Z</time></trkpt><trkpt lat="42.757502" lon="12.1435053"><ele>288.0</ele><time>2026-04-11T07:18:05.481Z</time></trkpt><trkpt lat="42.7573698" lon="12.1434075"><ele>288.0</ele><time>2026-04-11T07:18:06.469Z</time></trkpt><trkpt lat="42.7572196" lon="12.1433154"><ele>288.0</ele><time>2026-04-11T07:18:07.462Z</time></trkpt><trkpt lat="42.7570924" lon="12.1432281"><ele>286.6666666666667</ele><time>2026-04-11T07:18:08.467Z</time></trkpt><trkpt lat="42.7569477" lon="12.1431444"><ele>285.33333333333337</ele><time>2026-04-11T07:18:09.464Z</time></trkpt><trkpt lat="42.7568156" lon="12.1430428"><ele>284.0</ele><time>2026-04-11T07:18:10.475Z</time></trkpt><trkpt lat="42.7566879" lon="12.1429434"><ele>284.0</ele><time>2026-04-11T07:18:11.483Z</time></trkpt><trkpt lat="42.7565609" lon="12.1428614"><ele>284.0</ele><time>2026-04-11T07:18:12.474Z</time></trkpt><trkpt lat="42.7564083" lon="12.1428061"><ele>284.0</ele><time>2026-04-11T07:18:13.467Z</time></trkpt><trkpt lat="42.7562578" lon="12.1427499"><ele>284.0</ele><time>2026-04-11T07:18:14.466Z</time></trkpt><trkpt lat="42.7561016" lon="12.1427438"><ele>284.0</ele><time>2026-04-11T07:18:15.453Z</time></trkpt><trkpt lat="42.75596" lon="12.1427825"><ele>284.0</ele><time>2026-04-11T07:18:16.452Z</time></trkpt><trkpt lat="42.7558222" lon="12.1428025"><ele>284.0</ele><time>2026-04-11T07:18:17.453Z</time></trkpt><trkpt lat="42.7556671" lon="12.1428444"><ele>289.0</ele><time>2026-04-11T07:18:18.441Z</time></trkpt><trkpt lat="42.7555175" lon="12.1428793"><ele>294.0</ele><time>2026-04-11T07:18:19.436Z</time></trkpt><trkpt lat="42.7553665" lon="12.1429367"><ele>299.0</ele><time>2026-04-11T07:18:20.439Z</time></trkpt><trkpt lat="42.755208" lon="12.1430084"><ele>302.0</ele><time>2026-04-11T07:18:21.452Z</time></trkpt><trkpt lat="42.7550577" lon="12.143082"><ele>305.0</ele><time>2026-04-11T07:18:22.441Z</time></trkpt><trkpt lat="42.7548899" lon="12.1431468"><ele>308.0</ele><time>2026-04-11T07:18:23.437Z</time></trkpt><trkpt lat="42.7547523" lon="12.1432246"><ele>303.0</ele><time>2026-04-11T07:18:24.445Z</time></trkpt><trkpt lat="42.7546023" lon="12.1432905"><ele>298.0</ele><time>2026-04-11T07:18:25.442Z</time></trkpt><trkpt lat="42.754435" lon="12.143377"><ele>293.0</ele><time>2026-04-11T07:18:26.442Z</time></trkpt><trkpt lat="42.7542777" lon="12.1434208"><ele>293.0</ele><time>2026-04-11T07:18:27.44Z</time></trkpt><trkpt lat="42.7541198" lon="12.143445"><ele>293.0</ele><time>2026-04-11T07:18:28.441Z</time></trkpt><trkpt lat="42.7539658" lon="12.1434767"><ele>293.0</ele><time>2026-04-11T07:18:29.451Z</time></trkpt><trkpt lat="42.7538202" lon="12.1435056"><ele>293.0</ele><time>2026-04-11T07:18:30.436Z</time></trkpt><trkpt lat="42.7536728" lon="12.1435841"><ele>293.0</ele><time>2026-04-11T07:18:31.452Z</time></trkpt><trkpt lat="42.7535317" lon="12.1436484"><ele>293.0</ele><time>2026-04-11T07:18:32.435Z</time></trkpt><trkpt lat="42.7533805" lon="12.1437012"><ele>294.25</ele><time>2026-04-11T07:18:33.449Z</time></trkpt><trkpt lat="42.7532359" lon="12.1437508"><ele>295.5</ele><time>2026-04-11T07:18:34.462Z</time></trkpt><trkpt lat="42.7531177" lon="12.1437615"><ele>296.75</ele><time>2026-04-11T07:18:35.447Z</time></trkpt><trkpt lat="42.752949" lon="12.1437159"><ele>298.0</ele><time>2026-04-11T07:18:36.453Z</time></trkpt><trkpt lat="42.7527743" lon="12.1436672"><ele>297.5</ele><time>2026-04-11T07:18:37.457Z</time></trkpt><trkpt lat="42.7526176" lon="12.1436445"><ele>297.0</ele><time>2026-04-11T07:18:38.462Z</time></trkpt><trkpt lat="42.7524837" lon="12.1436357"><ele>296.5</ele><time>2026-04-11T07:18:39.463Z</time></trkpt><trkpt lat="42.7523356" lon="12.1435933"><ele>296.0</ele><time>2026-04-11T07:18:40.457Z</time></trkpt><trkpt lat="42.7521727" lon="12.1435547"><ele>296.0</ele><time>2026-04-11T07:18:41.464Z</time></trkpt><trkpt lat="42.7520101" lon="12.1435311"><ele>296.0</ele><time>2026-04-11T07:18:42.46Z</time></trkpt><trkpt lat="42.7518462" lon="12.1435131"><ele>296.0</ele><time>2026-04-11T07:18:43.461Z</time></trkpt><trkpt lat="42.7516643" lon="12.1435031"><ele>294.0</ele><time>2026-04-11T07:18:44.456Z</time></trkpt><trkpt lat="42.751483" lon="12.1435074"><ele>292.0</ele><time>2026-04-11T07:18:45.461Z</time></trkpt><trkpt lat="42.7513354" lon="12.1434846"><ele>290.0</ele><time>2026-04-11T07:18:46.454Z</time></trkpt><trkpt lat="42.7511954" lon="12.1434277"><ele>289.0</ele><time>2026-04-11T07:18:47.453Z</time></trkpt><trkpt lat="42.7510357" lon="12.1433814"><ele>288.0</ele><time>2026-04-11T07:18:48.457Z</time></trkpt><trkpt lat="42.7508938" lon="12.1433155"><ele>287.0</ele><time>2026-04-11T07:18:49.459Z</time></trkpt><trkpt lat="42.7507725" lon="12.1432607"><ele>286.0</ele><time>2026-04-11T07:18:50.453Z</time></trkpt><trkpt lat="42.7506444" lon="12.1432291"><ele>286.0</ele><time>2026-04-11T07:18:51.465Z</time></trkpt><trkpt lat="42.7504888" lon="12.1432635"><ele>286.0</ele><time>2026-04-11T07:18:52.453Z</time></trkpt><trkpt lat="42.7503534" lon="12.1432916"><ele>286.0</ele><time>2026-04-11T07:18:53.446Z</time></trkpt><trkpt lat="42.7502229" lon="12.1433048"><ele>286.0</ele><time>2026-04-11T07:18:54.449Z</time></trkpt><trkpt lat="42.7500984" lon="12.1432625"><ele>285.0</ele><time>2026-04-11T07:18:55.453Z</time></trkpt><trkpt lat="42.7499742" lon="12.1432192"><ele>284.0</ele><time>2026-04-11T07:18:56.446Z</time></trkpt><trkpt lat="42.749874" lon="12.1432436"><ele>283.0</ele><time>2026-04-11T07:18:57.448Z</time></trkpt><trkpt lat="42.7497581" lon="12.1433418"><ele>282.0</ele><time>2026-04-11T07:18:58.451Z</time></trkpt><trkpt lat="42.7496694" lon="12.143404"><ele>282.0</ele><time>2026-04-11T07:18:59.449Z</time></trkpt><trkpt lat="42.7495186" lon="12.1434313"><ele>282.0</ele><time>2026-04-11T07:19:00.465Z</time></trkpt><trkpt lat="42.7493633" lon="12.1434049"><ele>282.0</ele><time>2026-04-11T07:19:01.469Z</time></trkpt><trkpt lat="42.7492298" lon="12.1433832"><ele>282.0</ele><time>2026-04-11T07:19:02.459Z</time></trkpt><trkpt lat="42.7490843" lon="12.1433742"><ele>279.75</ele><time>2026-04-11T07:19:03.456Z</time></trkpt><trkpt lat="42.7489361" lon="12.1433871"><ele>277.5</ele><time>2026-04-11T07:19:04.474Z</time></trkpt><trkpt lat="42.748793" lon="12.1433976"><ele>275.25</ele><time>2026-04-11T07:19:05.462Z</time></trkpt><trkpt lat="42.7486472" lon="12.1433845"><ele>273.0</ele><time>2026-04-11T07:19:06.47Z</time></trkpt><trkpt lat="42.7485182" lon="12.1433601"><ele>271.6</ele><time>2026-04-11T07:19:07.461Z</time></trkpt><trkpt lat="42.7484041" lon="12.1433427"><ele>270.20000000000005</ele><time>2026-04-11T07:19:08.47Z</time></trkpt><trkpt lat="42.7482895" lon="12.1433315"><ele>268.8</ele><time>2026-04-11T07:19:09.469Z</time></trkpt><trkpt lat="42.7482076" lon="12.1432607"><ele>267.40000000000003</ele><time>2026-04-11T07:19:10.473Z</time></trkpt><trkpt lat="42.748167" lon="12.143127"><ele>266.0</ele><time>2026-04-11T07:19:11.49Z</time></trkpt><trkpt lat="42.7481303" lon="12.1429981"><ele>266.0</ele><time>2026-04-11T07:19:12.459Z</time></trkpt><trkpt lat="42.7481084" lon="12.1428356"><ele>266.0</ele><time>2026-04-11T07:19:13.468Z</time></trkpt><trkpt lat="42.7480842" lon="12.1427059"><ele>266.0</ele><time>2026-04-11T07:19:14.464Z</time></trkpt><trkpt lat="42.7480216" lon="12.1426193"><ele>266.0</ele><time>2026-04-11T07:19:15.47Z</time></trkpt><trkpt lat="42.7479392" lon="12.1425549"><ele>266.0</ele><time>2026-04-11T07:19:16.464Z</time></trkpt><trkpt lat="42.7478242" lon="12.1425266"><ele>266.0</ele><time>2026-04-11T07:19:17.458Z</time></trkpt><trkpt lat="42.7477106" lon="12.1425347"><ele>266.0</ele><time>2026-04-11T07:19:18.452Z</time></trkpt><trkpt lat="42.7475799" lon="12.1425569"><ele>266.0</ele><time>2026-04-11T07:19:19.45Z</time></trkpt><trkpt lat="42.7474459" lon="12.1425903"><ele>266.0</ele><time>2026-04-11T07:19:20.47Z</time></trkpt><trkpt lat="42.7472973" lon="12.1426395"><ele>263.0</ele><time>2026-04-11T07:19:21.489Z</time></trkpt><trkpt lat="42.7471532" lon="12.142679"><ele>260.0</ele><time>2026-04-11T07:19:22.473Z</time></trkpt><trkpt lat="42.7470152" lon="12.1426807"><ele>257.0</ele><time>2026-04-11T07:19:23.467Z</time></trkpt><trkpt lat="42.7468651" lon="12.142669"><ele>254.0</ele><time>2026-04-11T07:19:24.467Z</time></trkpt><trkpt lat="42.746749" lon="12.1426087"><ele>251.75</ele><time>2026-04-11T07:19:25.472Z</time></trkpt><trkpt lat="42.7466429" lon="12.1425086"><ele>249.5</ele><time>2026-04-11T07:19:26.483Z</time></trkpt><trkpt lat="42.7465494" lon="12.1423997"><ele>247.25</ele><time>2026-04-11T07:19:27.476Z</time></trkpt><trkpt lat="42.7464577" lon="12.1422822"><ele>245.0</ele><time>2026-04-11T07:19:28.482Z</time></trkpt><trkpt lat="42.7463625" lon="12.1421728"><ele>245.0</ele><time>2026-04-11T07:19:29.483Z</time></trkpt><trkpt lat="42.7462619" lon="12.1420901"><ele>245.0</ele><time>2026-04-11T07:19:30.489Z</time></trkpt><trkpt lat="42.746158" lon="12.1420497"><ele>245.0</ele><time>2026-04-11T07:19:31.514Z</time></trkpt><trkpt lat="42.7460531" lon="12.1420425"><ele>245.0</ele><time>2026-04-11T07:19:32.487Z</time></trkpt><trkpt lat="42.7459361" lon="12.1421082"><ele>246.0</ele><time>2026-04-11T07:19:33.482Z</time></trkpt><trkpt lat="42.7458295" lon="12.1421995"><ele>247.0</ele><time>2026-04-11T07:19:34.475Z</time></trkpt><trkpt lat="42.745738" lon="12.1422994"><ele>248.0</ele><time>2026-04-11T07:19:35.463Z</time></trkpt><trkpt lat="42.7456381" lon="12.1423889"><ele>249.0</ele><time>2026-04-11T07:19:36.469Z</time></trkpt><trkpt lat="42.7455319" lon="12.1424314"><ele>249.0</ele><time>2026-04-11T07:19:37.462Z</time></trkpt><trkpt lat="42.7454211" lon="12.1423966"><ele>249.0</ele><time>2026-04-11T07:19:38.461Z</time></trkpt><trkpt lat="42.7453049" lon="12.1423528"><ele>249.0</ele><time>2026-04-11T07:19:39.455Z</time></trkpt><trkpt lat="42.7451807" lon="12.1423438"><ele>249.0</ele><time>2026-04-11T07:19:40.453Z</time></trkpt><trkpt lat="42.7450584" lon="12.1423576"><ele>250.5</ele><time>2026-04-11T07:19:41.471Z</time></trkpt><trkpt lat="42.7449273" lon="12.142364"><ele>252.0</ele><time>2026-04-11T07:19:42.46Z</time></trkpt><trkpt lat="42.744788" lon="12.1423482"><ele>253.5</ele><time>2026-04-11T07:19:43.456Z</time></trkpt><trkpt lat="42.744654" lon="12.1422892"><ele>255.0</ele><time>2026-04-11T07:19:44.468Z</time></trkpt><trkpt lat="42.7445217" lon="12.1422044"><ele>255.0</ele><time>2026-04-11T07:19:45.471Z</time></trkpt><trkpt lat="42.7443925" lon="12.1420449"><ele>255.0</ele><time>2026-04-11T07:19:46.464Z</time></trkpt><trkpt lat="42.7443022" lon="12.1418662"><ele>255.0</ele><time>2026-04-11T07:19:47.467Z</time></trkpt><trkpt lat="42.7442197" lon="12.1416986"><ele>253.0</ele><time>2026-04-11T07:19:48.468Z</time></trkpt><trkpt lat="42.7441366" lon="12.1415208"><ele>251.0</ele><time>2026-04-11T07:19:49.468Z</time></trkpt><trkpt lat="42.7440204" lon="12.1413957"><ele>249.0</ele><time>2026-04-11T07:19:50.468Z</time></trkpt><trkpt lat="42.7439297" lon="12.1412795"><ele>247.0</ele><time>2026-04-11T07:19:51.476Z</time></trkpt><trkpt lat="42.7438386" lon="12.1412114"><ele>247.0</ele><time>2026-04-11T07:19:52.467Z</time></trkpt><trkpt lat="42.7437514" lon="12.1411335"><ele>247.0</ele><time>2026-04-11T07:19:53.469Z</time></trkpt><trkpt lat="42.7436883" lon="12.1410009"><ele>247.0</ele><time>2026-04-11T07:19:54.463Z</time></trkpt><trkpt lat="42.7436279" lon="12.1408545"><ele>247.0</ele><time>2026-04-11T07:19:55.465Z</time></trkpt><trkpt lat="42.7436257" lon="12.140698"><ele>247.39999999999998</ele><time>2026-04-11T07:19:56.466Z</time></trkpt><trkpt lat="42.7436394" lon="12.1405577"><ele>247.79999999999998</ele><time>2026-04-11T07:19:57.46Z</time></trkpt><trkpt lat="42.7436578" lon="12.1404222"><ele>248.2</ele><time>2026-04-11T07:19:58.466Z</time></trkpt><trkpt lat="42.7436817" lon="12.140296"><ele>248.6</ele><time>2026-04-11T07:19:59.467Z</time></trkpt><trkpt lat="42.7436975" lon="12.1401865"><ele>249.0</ele><time>2026-04-11T07:20:00.468Z</time></trkpt><trkpt lat="42.7437147" lon="12.1400809"><ele>249.0</ele><time>2026-04-11T07:20:01.475Z</time></trkpt><trkpt lat="42.7437172" lon="12.1399856"><ele>249.0</ele><time>2026-04-11T07:20:02.493Z</time></trkpt><trkpt lat="42.7437032" lon="12.1398964"><ele>249.0</ele><time>2026-04-11T07:20:03.462Z</time></trkpt><trkpt lat="42.7436673" lon="12.1397876"><ele>249.0</ele><time>2026-04-11T07:20:04.478Z</time></trkpt><trkpt lat="42.743614" lon="12.1396683"><ele>249.0</ele><time>2026-04-11T07:20:05.457Z</time></trkpt><trkpt lat="42.7435476" lon="12.139544"><ele>249.0</ele><time>2026-04-11T07:20:06.462Z</time></trkpt><trkpt lat="42.7434782" lon="12.1394183"><ele>246.25</ele><time>2026-04-11T07:20:07.467Z</time></trkpt><trkpt lat="42.743409" lon="12.1392905"><ele>243.5</ele><time>2026-04-11T07:20:08.464Z</time></trkpt><trkpt lat="42.7433186" lon="12.1391684"><ele>240.75</ele><time>2026-04-11T07:20:09.466Z</time></trkpt><trkpt lat="42.7432145" lon="12.1390505"><ele>238.0</ele><time>2026-04-11T07:20:10.467Z</time></trkpt><trkpt lat="42.7431269" lon="12.1389247"><ele>238.0</ele><time>2026-04-11T07:20:11.488Z</time></trkpt><trkpt lat="42.7430575" lon="12.1387871"><ele>238.0</ele><time>2026-04-11T07:20:12.473Z</time></trkpt><trkpt lat="42.7429978" lon="12.1386795"><ele>238.0</ele><time>2026-04-11T07:20:13.472Z</time></trkpt><trkpt lat="42.7429121" lon="12.1386097"><ele>238.0</ele><time>2026-04-11T07:20:14.458Z</time></trkpt><trkpt lat="42.7428347" lon="12.1386091"><ele>238.0</ele><time>2026-04-11T07:20:15.469Z</time></trkpt><trkpt lat="42.7427658" lon="12.1386648"><ele>237.0</ele><time>2026-04-11T07:20:16.459Z</time></trkpt><trkpt lat="42.7426747" lon="12.1387604"><ele>236.0</ele><time>2026-04-11T07:20:17.466Z</time></trkpt><trkpt lat="42.742568" lon="12.13885"><ele>235.0</ele><time>2026-04-11T07:20:18.458Z</time></trkpt><trkpt lat="42.7424259" lon="12.138934"><ele>234.0</ele><time>2026-04-11T07:20:19.459Z</time></trkpt><trkpt lat="42.7422894" lon="12.1389921"><ele>234.0</ele><time>2026-04-11T07:20:20.461Z</time></trkpt><trkpt lat="42.7421269" lon="12.1390123"><ele>234.0</ele><time>2026-04-11T07:20:21.455Z</time></trkpt><trkpt lat="42.7419404" lon="12.138982"><ele>234.0</ele><time>2026-04-11T07:20:22.448Z</time></trkpt><trkpt lat="42.7417744" lon="12.1389629"><ele>229.25</ele><time>2026-04-11T07:20:23.451Z</time></trkpt><trkpt lat="42.7416293" lon="12.1389307"><ele>224.5</ele><time>2026-04-11T07:20:24.458Z</time></trkpt><trkpt lat="42.741502" lon="12.1389218"><ele>219.75</ele><time>2026-04-11T07:20:25.461Z</time></trkpt><trkpt lat="42.74137" lon="12.1388551"><ele>215.0</ele><time>2026-04-11T07:20:26.458Z</time></trkpt><trkpt lat="42.7412754" lon="12.1387027"><ele>215.0</ele><time>2026-04-11T07:20:27.461Z</time></trkpt><trkpt lat="42.7412261" lon="12.1385114"><ele>215.0</ele><time>2026-04-11T07:20:28.454Z</time></trkpt><trkpt lat="42.7411892" lon="12.1383315"><ele>215.0</ele><time>2026-04-11T07:20:29.471Z</time></trkpt><trkpt lat="42.7411767" lon="12.1381367"><ele>215.0</ele><time>2026-04-11T07:20:30.475Z</time></trkpt><trkpt lat="42.741148" lon="12.1379546"><ele>213.75</ele><time>2026-04-11T07:20:31.471Z</time></trkpt><trkpt lat="42.7411059" lon="12.1377796"><ele>212.5</ele><time>2026-04-11T07:20:32.467Z</time></trkpt><trkpt lat="42.7410809" lon="12.1375978"><ele>211.25</ele><time>2026-04-11T07:20:33.493Z</time></trkpt><trkpt lat="42.7410658" lon="12.1374245"><ele>210.0</ele><time>2026-04-11T07:20:34.479Z</time></trkpt><trkpt lat="42.7410705" lon="12.1372437"><ele>207.8</ele><time>2026-04-11T07:20:35.458Z</time></trkpt><trkpt lat="42.7410927" lon="12.137071"><ele>205.6</ele><time>2026-04-11T07:20:36.453Z</time></trkpt><trkpt lat="42.7411413" lon="12.1369696"><ele>203.39999999999998</ele><time>2026-04-11T07:20:37.465Z</time></trkpt><trkpt lat="42.7410761" lon="12.1368844"><ele>201.2</ele><time>2026-04-11T07:20:39.454Z</time></trkpt><trkpt lat="42.7409788" lon="12.136939"><ele>199.0</ele><time>2026-04-11T07:20:41.462Z</time></trkpt><trkpt lat="42.7409411" lon="12.13702"><ele>196.99999999999997</ele><time>2026-04-11T07:20:42.45Z</time></trkpt><trkpt lat="42.7409027" lon="12.1371075"><ele>195.0</ele><time>2026-04-11T07:20:43.455Z</time></trkpt><trkpt lat="42.740848" lon="12.1371826"><ele>193.0</ele><time>2026-04-11T07:20:44.451Z</time></trkpt><trkpt lat="42.7407866" lon="12.1372678"><ele>191.0</ele><time>2026-04-11T07:20:45.45Z</time></trkpt><trkpt lat="42.7407187" lon="12.1373381"><ele>189.0</ele><time>2026-04-11T07:20:46.454Z</time></trkpt><trkpt lat="42.7406278" lon="12.1374123"><ele>187.0</ele><time>2026-04-11T07:20:47.462Z</time></trkpt><trkpt lat="42.7405493" lon="12.1374911"><ele>187.0</ele><time>2026-04-11T07:20:48.463Z</time></trkpt><trkpt lat="42.7404914" lon="12.1375998"><ele>187.0</ele><time>2026-04-11T07:20:49.469Z</time></trkpt><trkpt lat="42.7404528" lon="12.1377133"><ele>187.0</ele><time>2026-04-11T07:20:50.469Z</time></trkpt><trkpt lat="42.7404211" lon="12.137808"><ele>187.0</ele><time>2026-04-11T07:20:51.471Z</time></trkpt><trkpt lat="42.7403642" lon="12.1378535"><ele>187.0</ele><time>2026-04-11T07:20:52.483Z</time></trkpt><trkpt lat="42.7402498" lon="12.1377528"><ele>182.75</ele><time>2026-04-11T07:20:54.483Z</time></trkpt><trkpt lat="42.7401927" lon="12.1376128"><ele>178.5</ele><time>2026-04-11T07:20:55.469Z</time></trkpt><trkpt lat="42.7401248" lon="12.1374276"><ele>174.25</ele><time>2026-04-11T07:20:56.483Z</time></trkpt><trkpt lat="42.7400549" lon="12.1372719"><ele>170.0</ele><time>2026-04-11T07:20:57.484Z</time></trkpt><trkpt lat="42.7399763" lon="12.1371243"><ele>170.0</ele><time>2026-04-11T07:20:58.47Z</time></trkpt><trkpt lat="42.739877" lon="12.1370225"><ele>170.0</ele><time>2026-04-11T07:20:59.47Z</time></trkpt><trkpt lat="42.7397716" lon="12.1369594"><ele>170.0</ele><time>2026-04-11T07:21:00.463Z</time></trkpt><trkpt lat="42.7396506" lon="12.1369279"><ele>170.0</ele><time>2026-04-11T07:21:01.468Z</time></trkpt><trkpt lat="42.7395261" lon="12.1368915"><ele>170.0</ele><time>2026-04-11T07:21:02.472Z</time></trkpt><trkpt lat="42.7393911" lon="12.1368487"><ele>170.0</ele><time>2026-04-11T07:21:03.463Z</time></trkpt><trkpt lat="42.7392784" lon="12.1367771"><ele>170.0</ele><time>2026-04-11T07:21:04.491Z</time></trkpt><trkpt lat="42.739165" lon="12.136709"><ele>170.0</ele><time>2026-04-11T07:21:05.466Z</time></trkpt><trkpt lat="42.7390526" lon="12.1366233"><ele>169.5</ele><time>2026-04-11T07:21:06.466Z</time></trkpt><trkpt lat="42.7389335" lon="12.1365608"><ele>169.0</ele><time>2026-04-11T07:21:07.461Z</time></trkpt><trkpt lat="42.7388102" lon="12.1365108"><ele>168.5</ele><time>2026-04-11T07:21:08.468Z</time></trkpt><trkpt lat="42.7386856" lon="12.1364793"><ele>168.0</ele><time>2026-04-11T07:21:09.466Z</time></trkpt><trkpt lat="42.7385656" lon="12.1364459"><ele>165.0</ele><time>2026-04-11T07:21:10.473Z</time></trkpt><trkpt lat="42.7384431" lon="12.1364165"><ele>162.0</ele><time>2026-04-11T07:21:11.465Z</time></trkpt><trkpt lat="42.7383129" lon="12.1363787"><ele>159.0</ele><time>2026-04-11T07:21:12.462Z</time></trkpt><trkpt lat="42.7381798" lon="12.1363512"><ele>156.0</ele><time>2026-04-11T07:21:13.457Z</time></trkpt><trkpt lat="42.7380663" lon="12.13629"><ele>156.0</ele><time>2026-04-11T07:21:14.466Z</time></trkpt><trkpt lat="42.7379479" lon="12.1362134"><ele>156.0</ele><time>2026-04-11T07:21:15.461Z</time></trkpt><trkpt lat="42.737822" lon="12.1361177"><ele>156.0</ele><time>2026-04-11T07:21:16.465Z</time></trkpt><trkpt lat="42.7377172" lon="12.1360193"><ele>156.0</ele><time>2026-04-11T07:21:17.468Z</time></trkpt><trkpt lat="42.7375877" lon="12.13594"><ele>155.25</ele><time>2026-04-11T07:21:18.47Z</time></trkpt><trkpt lat="42.7374659" lon="12.1358592"><ele>154.5</ele><time>2026-04-11T07:21:19.469Z</time></trkpt><trkpt lat="42.7373589" lon="12.135773"><ele>153.75</ele><time>2026-04-11T07:21:20.474Z</time></trkpt><trkpt lat="42.737249" lon="12.1357054"><ele>153.0</ele><time>2026-04-11T07:21:21.473Z</time></trkpt><trkpt lat="42.7371409" lon="12.1356346"><ele>153.0</ele><time>2026-04-11T07:21:22.472Z</time></trkpt><trkpt lat="42.7370494" lon="12.1355197"><ele>153.0</ele><time>2026-04-11T07:21:23.465Z</time></trkpt><trkpt lat="42.7369531" lon="12.1353937"><ele>153.0</ele><time>2026-04-11T07:21:24.473Z</time></trkpt><trkpt lat="42.7368711" lon="12.1352696"><ele>153.0</ele><time>2026-04-11T07:21:25.471Z</time></trkpt><trkpt lat="42.7368047" lon="12.1351351"><ele>150.25</ele><time>2026-04-11T07:21:26.472Z</time></trkpt><trkpt lat="42.7367321" lon="12.1350098"><ele>147.5</ele><time>2026-04-11T07:21:27.473Z</time></trkpt><trkpt lat="42.7366668" lon="12.1348684"><ele>144.75</ele><time>2026-04-11T07:21:28.481Z</time></trkpt><trkpt lat="42.7366" lon="12.1347216"><ele>142.0</ele><time>2026-04-11T07:21:29.483Z</time></trkpt><trkpt lat="42.736529" lon="12.1345787"><ele>140.75</ele><time>2026-04-11T07:21:30.477Z</time></trkpt><trkpt lat="42.7364446" lon="12.13445"><ele>139.5</ele><time>2026-04-11T07:21:31.479Z</time></trkpt><trkpt lat="42.7363519" lon="12.1343304"><ele>138.25</ele><time>2026-04-11T07:21:32.476Z</time></trkpt><trkpt lat="42.7362565" lon="12.1342173"><ele>137.0</ele><time>2026-04-11T07:21:33.468Z</time></trkpt><trkpt lat="42.7361496" lon="12.134115"><ele>134.5</ele><time>2026-04-11T07:21:34.477Z</time></trkpt><trkpt lat="42.7360467" lon="12.1340133"><ele>132.0</ele><time>2026-04-11T07:21:35.477Z</time></trkpt><trkpt lat="42.7359493" lon="12.1339163"><ele>129.5</ele><time>2026-04-11T07:21:36.469Z</time></trkpt><trkpt lat="42.735853" lon="12.1338198"><ele>127.0</ele><time>2026-04-11T07:21:37.467Z</time></trkpt><trkpt lat="42.7357568" lon="12.1337338"><ele>127.0</ele><time>2026-04-11T07:21:38.463Z</time></trkpt><trkpt lat="42.7356511" lon="12.1336681"><ele>127.0</ele><time>2026-04-11T07:21:39.469Z</time></trkpt><trkpt lat="42.7355335" lon="12.1336377"><ele>127.0</ele><time>2026-04-11T07:21:40.464Z</time></trkpt><trkpt lat="42.735397" lon="12.1336512"><ele>127.0</ele><time>2026-04-11T07:21:41.477Z</time></trkpt><trkpt lat="42.7352668" lon="12.1337042"><ele>126.25</ele><time>2026-04-11T07:21:42.461Z</time></trkpt><trkpt lat="42.7351379" lon="12.1337639"><ele>125.5</ele><time>2026-04-11T07:21:43.459Z</time></trkpt><trkpt lat="42.7350081" lon="12.1338205"><ele>124.75</ele><time>2026-04-11T07:21:44.463Z</time></trkpt><trkpt lat="42.7348831" lon="12.1338692"><ele>124.0</ele><time>2026-04-11T07:21:45.469Z</time></trkpt><trkpt lat="42.7347514" lon="12.1339168"><ele>124.0</ele><time>2026-04-11T07:21:46.468Z</time></trkpt><trkpt lat="42.7346178" lon="12.1339608"><ele>124.0</ele><time>2026-04-11T07:21:47.473Z</time></trkpt><trkpt lat="42.7344789" lon="12.1340109"><ele>124.0</ele><time>2026-04-11T07:21:48.474Z</time></trkpt><trkpt lat="42.73434" lon="12.1340618"><ele>124.0</ele><time>2026-04-11T07:21:49.474Z</time></trkpt><trkpt lat="42.7342102" lon="12.1341348"><ele>125.0</ele><time>2026-04-11T07:21:50.471Z</time></trkpt><trkpt lat="42.7340827" lon="12.1342008"><ele>126.0</ele><time>2026-04-11T07:21:51.457Z</time></trkpt><trkpt lat="42.7339545" lon="12.1342994"><ele>127.0</ele><time>2026-04-11T07:21:52.479Z</time></trkpt><trkpt lat="42.7338395" lon="12.1343751"><ele>128.0</ele><time>2026-04-11T07:21:53.458Z</time></trkpt><trkpt lat="42.7336982" lon="12.1344436"><ele>128.0</ele><time>2026-04-11T07:21:54.461Z</time></trkpt><trkpt lat="42.733606" lon="12.1345438"><ele>128.0</ele><time>2026-04-11T07:21:55.471Z</time></trkpt><trkpt lat="42.7335286" lon="12.13465"><ele>128.0</ele><time>2026-04-11T07:21:56.465Z</time></trkpt><trkpt lat="42.7334448" lon="12.1347562"><ele>128.0</ele><time>2026-04-11T07:21:57.476Z</time></trkpt><trkpt lat="42.7333725" lon="12.134812"><ele>128.0</ele><time>2026-04-11T07:21:58.473Z</time></trkpt><trkpt lat="42.7332599" lon="12.134839"><ele>127.2</ele><time>2026-04-11T07:21:59.463Z</time></trkpt><trkpt lat="42.7331417" lon="12.1348555"><ele>126.4</ele><time>2026-04-11T07:22:00.466Z</time></trkpt><trkpt lat="42.7330391" lon="12.1348611"><ele>125.60000000000001</ele><time>2026-04-11T07:22:01.463Z</time></trkpt><trkpt lat="42.7329383" lon="12.134854"><ele>124.80000000000001</ele><time>2026-04-11T07:22:02.453Z</time></trkpt><trkpt lat="42.7328482" lon="12.1348285"><ele>124.0</ele><time>2026-04-11T07:22:03.45Z</time></trkpt><trkpt lat="42.732779" lon="12.1347545"><ele>124.0</ele><time>2026-04-11T07:22:04.476Z</time></trkpt><trkpt lat="42.7327192" lon="12.134616"><ele>124.0</ele><time>2026-04-11T07:22:05.458Z</time></trkpt><trkpt lat="42.7326848" lon="12.1344475"><ele>124.0</ele><time>2026-04-11T07:22:06.484Z</time></trkpt><trkpt lat="42.7326568" lon="12.1342779"><ele>124.0</ele><time>2026-04-11T07:22:07.467Z</time></trkpt><trkpt lat="42.7326424" lon="12.1341214"><ele>123.5</ele><time>2026-04-11T07:22:08.468Z</time></trkpt><trkpt lat="42.7326448" lon="12.1339583"><ele>123.0</ele><time>2026-04-11T07:22:09.469Z</time></trkpt><trkpt lat="42.7326437" lon="12.1337799"><ele>122.5</ele><time>2026-04-11T07:22:10.47Z</time></trkpt><trkpt lat="42.7326248" lon="12.1336076"><ele>122.0</ele><time>2026-04-11T07:22:11.467Z</time></trkpt><trkpt lat="42.7325875" lon="12.1334546"><ele>122.0</ele><time>2026-04-11T07:22:12.464Z</time></trkpt><trkpt lat="42.732533" lon="12.1333237"><ele>121.99999999999999</ele><time>2026-04-11T07:22:13.461Z</time></trkpt><trkpt lat="42.7324587" lon="12.1332041"><ele>121.99999999999999</ele><time>2026-04-11T07:22:14.473Z</time></trkpt><trkpt lat="42.7323729" lon="12.1331241"><ele>122.0</ele><time>2026-04-11T07:22:15.469Z</time></trkpt><trkpt lat="42.7322604" lon="12.1330893"><ele>122.0</ele><time>2026-04-11T07:22:16.453Z</time></trkpt><trkpt lat="42.7321603" lon="12.1330319"><ele>121.99999999999999</ele><time>2026-04-11T07:22:17.458Z</time></trkpt><trkpt lat="42.7320705" lon="12.1329772"><ele>122.0</ele><time>2026-04-11T07:22:18.448Z</time></trkpt><trkpt lat="42.7320102" lon="12.1329249"><ele>122.0</ele><time>2026-04-11T07:22:19.462Z</time></trkpt><trkpt lat="42.7319397" lon="12.1328927"><ele>122.0</ele><time>2026-04-11T07:22:23.472Z</time></trkpt><trkpt lat="42.731879" lon="12.132926"><ele>121.99999999999999</ele><time>2026-04-11T07:22:24.469Z</time></trkpt><trkpt lat="42.7317929" lon="12.1329749"><ele>122.0</ele><time>2026-04-11T07:22:25.464Z</time></trkpt><trkpt lat="42.7317118" lon="12.1330328"><ele>121.99999999999999</ele><time>2026-04-11T07:22:26.472Z</time></trkpt><trkpt lat="42.7316433" lon="12.1330765"><ele>122.0</ele><time>2026-04-11T07:22:27.471Z</time></trkpt><trkpt lat="42.731585" lon="12.1331141"><ele>122.0</ele><time>2026-04-11T07:22:28.463Z</time></trkpt><trkpt lat="42.7315172" lon="12.1331836"><ele>122.0</ele><time>2026-04-11T07:22:34.478Z</time></trkpt><trkpt lat="42.7314233" lon="12.1332389"><ele>121.99999999999999</ele><time>2026-04-11T07:22:36.459Z</time></trkpt><trkpt lat="42.731334" lon="12.1333033"><ele>122.0</ele><time>2026-04-11T07:22:37.475Z</time></trkpt><trkpt lat="42.7312243" lon="12.1333747"><ele>122.0</ele><time>2026-04-11T07:22:38.448Z</time></trkpt><trkpt lat="42.7311039" lon="12.1334496"><ele>122.0</ele><time>2026-04-11T07:22:39.442Z</time></trkpt><trkpt lat="42.730959" lon="12.1335406"><ele>122.0</ele><time>2026-04-11T07:22:40.439Z</time></trkpt><trkpt lat="42.730817" lon="12.1336369"><ele>122.33333333333333</ele><time>2026-04-11T07:22:41.446Z</time></trkpt><trkpt lat="42.7306694" lon="12.1337345"><ele>122.66666666666666</ele><time>2026-04-11T07:22:42.46Z</time></trkpt><trkpt lat="42.7305002" lon="12.1338325"><ele>123.0</ele><time>2026-04-11T07:22:43.447Z</time></trkpt><trkpt lat="42.7303577" lon="12.1339281"><ele>123.0</ele><time>2026-04-11T07:22:44.454Z</time></trkpt><trkpt lat="42.7302015" lon="12.1340287"><ele>123.0</ele><time>2026-04-11T07:22:45.463Z</time></trkpt><trkpt lat="42.7300475" lon="12.1341297"><ele>123.0</ele><time>2026-04-11T07:22:46.464Z</time></trkpt><trkpt lat="42.7299035" lon="12.1342171"><ele>123.0</ele><time>2026-04-11T07:22:47.468Z</time></trkpt><trkpt lat="42.7297609" lon="12.1343071"><ele>123.0</ele><time>2026-04-11T07:22:48.466Z</time></trkpt><trkpt lat="42.7296222" lon="12.1343976"><ele>123.0</ele><time>2026-04-11T07:22:49.467Z</time></trkpt><trkpt lat="42.7294923" lon="12.1344807"><ele>122.5</ele><time>2026-04-11T07:22:50.472Z</time></trkpt><trkpt lat="42.7293593" lon="12.134558"><ele>122.0</ele><time>2026-04-11T07:22:51.47Z</time></trkpt><trkpt lat="42.7292317" lon="12.1346396"><ele>121.5</ele><time>2026-04-11T07:22:52.467Z</time></trkpt><trkpt lat="42.7290987" lon="12.1347126"><ele>121.0</ele><time>2026-04-11T07:22:53.468Z</time></trkpt><trkpt lat="42.7289846" lon="12.1347781"><ele>121.0</ele><time>2026-04-11T07:22:54.472Z</time></trkpt><trkpt lat="42.7288602" lon="12.1348595"><ele>121.0</ele><time>2026-04-11T07:22:55.47Z</time></trkpt><trkpt lat="42.7287393" lon="12.1349424"><ele>121.0</ele><time>2026-04-11T07:22:56.477Z</time></trkpt><trkpt lat="42.7286345" lon="12.135037"><ele>121.0</ele><time>2026-04-11T07:22:57.467Z</time></trkpt><trkpt lat="42.7285113" lon="12.1351111"><ele>120.8</ele><time>2026-04-11T07:22:58.466Z</time></trkpt><trkpt lat="42.7283968" lon="12.1351984"><ele>120.6</ele><time>2026-04-11T07:22:59.474Z</time></trkpt><trkpt lat="42.7282879" lon="12.1352556"><ele>120.4</ele><time>2026-04-11T07:23:00.469Z</time></trkpt><trkpt lat="42.7282196" lon="12.1353072"><ele>120.2</ele><time>2026-04-11T07:23:01.483Z</time></trkpt><trkpt lat="42.7281296" lon="12.1353654"><ele>120.0</ele><time>2026-04-11T07:23:02.485Z</time></trkpt><trkpt lat="42.7280366" lon="12.1354268"><ele>120.0</ele><time>2026-04-11T07:23:03.49Z</time></trkpt><trkpt lat="42.7279371" lon="12.1354982"><ele>120.0</ele><time>2026-04-11T07:23:04.493Z</time></trkpt><trkpt lat="42.7278367" lon="12.1355615"><ele>120.0</ele><time>2026-04-11T07:23:05.485Z</time></trkpt><trkpt lat="42.7277387" lon="12.135629"><ele>120.0</ele><time>2026-04-11T07:23:06.479Z</time></trkpt><trkpt lat="42.7276421" lon="12.1356891"><ele>120.0</ele><time>2026-04-11T07:23:07.477Z</time></trkpt><trkpt lat="42.7275459" lon="12.1357504"><ele>119.75</ele><time>2026-04-11T07:23:08.494Z</time></trkpt><trkpt lat="42.7274441" lon="12.1358124"><ele>119.5</ele><time>2026-04-11T07:23:09.473Z</time></trkpt><trkpt lat="42.727343" lon="12.1358815"><ele>119.25</ele><time>2026-04-11T07:23:10.473Z</time></trkpt><trkpt lat="42.7272462" lon="12.1359542"><ele>119.0</ele><time>2026-04-11T07:23:11.47Z</time></trkpt><trkpt lat="42.7271459" lon="12.1360328"><ele>119.0</ele><time>2026-04-11T07:23:12.469Z</time></trkpt><trkpt lat="42.7270566" lon="12.1361026"><ele>119.0</ele><time>2026-04-11T07:23:13.485Z</time></trkpt><trkpt lat="42.7269591" lon="12.1361643"><ele>119.0</ele><time>2026-04-11T07:23:14.472Z</time></trkpt><trkpt lat="42.7268501" lon="12.1362046"><ele>119.0</ele><time>2026-04-11T07:23:15.476Z</time></trkpt><trkpt lat="42.7267243" lon="12.1362222"><ele>118.5</ele><time>2026-04-11T07:23:16.482Z</time></trkpt><trkpt lat="42.7265993" lon="12.1362206"><ele>118.0</ele><time>2026-04-11T07:23:17.486Z</time></trkpt><trkpt lat="42.7264733" lon="12.1362056"><ele>117.5</ele><time>2026-04-11T07:23:18.557Z</time></trkpt><trkpt lat="42.7263483" lon="12.1361856"><ele>117.0</ele><time>2026-04-11T07:23:19.553Z</time></trkpt><trkpt lat="42.7262241" lon="12.1361614"><ele>117.0</ele><time>2026-04-11T07:23:20.563Z</time></trkpt><trkpt lat="42.7260997" lon="12.1361379"><ele>117.0</ele><time>2026-04-11T07:23:21.553Z</time></trkpt><trkpt lat="42.7259766" lon="12.1361202"><ele>117.0</ele><time>2026-04-11T07:23:22.557Z</time></trkpt><trkpt lat="42.7258511" lon="12.1361032"><ele>117.0</ele><time>2026-04-11T07:23:23.559Z</time></trkpt><trkpt lat="42.7257339" lon="12.1360884"><ele>115.75</ele><time>2026-04-11T07:23:24.568Z</time></trkpt><trkpt lat="42.7256191" lon="12.1360715"><ele>114.5</ele><time>2026-04-11T07:23:25.57Z</time></trkpt><trkpt lat="42.7255043" lon="12.1360532"><ele>113.25</ele><time>2026-04-11T07:23:26.579Z</time></trkpt><trkpt lat="42.7253885" lon="12.1360328"><ele>112.0</ele><time>2026-04-11T07:23:27.574Z</time></trkpt><trkpt lat="42.7252713" lon="12.136007"><ele>111.5</ele><time>2026-04-11T07:23:28.571Z</time></trkpt><trkpt lat="42.7251616" lon="12.1359691"><ele>111.0</ele><time>2026-04-11T07:23:29.578Z</time></trkpt><trkpt lat="42.7250471" lon="12.1359556"><ele>110.5</ele><time>2026-04-11T07:23:30.575Z</time></trkpt><trkpt lat="42.7249316" lon="12.1359397"><ele>110.0</ele><time>2026-04-11T07:23:31.574Z</time></trkpt><trkpt lat="42.7248156" lon="12.1359236"><ele>110.0</ele><time>2026-04-11T07:23:32.575Z</time></trkpt><trkpt lat="42.7247007" lon="12.1359099"><ele>110.0</ele><time>2026-04-11T07:23:33.571Z</time></trkpt><trkpt lat="42.7245853" lon="12.1358968"><ele>110.0</ele><time>2026-04-11T07:23:34.577Z</time></trkpt><trkpt lat="42.7244687" lon="12.1358806"><ele>110.0</ele><time>2026-04-11T07:23:35.57Z</time></trkpt><trkpt lat="42.724356" lon="12.1358633"><ele>110.2</ele><time>2026-04-11T07:23:36.574Z</time></trkpt><trkpt lat="42.7242403" lon="12.1358512"><ele>110.4</ele><time>2026-04-11T07:23:37.568Z</time></trkpt><trkpt lat="42.7241261" lon="12.1358362"><ele>110.6</ele><time>2026-04-11T07:23:38.569Z</time></trkpt><trkpt lat="42.7240178" lon="12.1358161"><ele>110.8</ele><time>2026-04-11T07:23:39.589Z</time></trkpt><trkpt lat="42.7239177" lon="12.1358021"><ele>111.0</ele><time>2026-04-11T07:23:40.563Z</time></trkpt><trkpt lat="42.7238173" lon="12.1357801"><ele>111.0</ele><time>2026-04-11T07:23:41.566Z</time></trkpt><trkpt lat="42.7237341" lon="12.1357379"><ele>111.0</ele><time>2026-04-11T07:23:42.568Z</time></trkpt><trkpt lat="42.7236778" lon="12.1356673"><ele>111.0</ele><time>2026-04-11T07:23:43.56Z</time></trkpt><trkpt lat="42.7236197" lon="12.1356138"><ele>111.0</ele><time>2026-04-11T07:23:44.546Z</time></trkpt><trkpt lat="42.723539" lon="12.1355689"><ele>111.0</ele><time>2026-04-11T07:23:45.551Z</time></trkpt><trkpt lat="42.7234751" lon="12.1355284"><ele>111.0</ele><time>2026-04-11T07:23:46.549Z</time></trkpt><trkpt lat="42.7234017" lon="12.1355393"><ele>112.19999999999999</ele><time>2026-04-11T07:23:47.549Z</time></trkpt><trkpt lat="42.7233305" lon="12.1355906"><ele>113.39999999999999</ele><time>2026-04-11T07:23:48.56Z</time></trkpt><trkpt lat="42.7232413" lon="12.1356484"><ele>114.6</ele><time>2026-04-11T07:23:49.473Z</time></trkpt><trkpt lat="42.7231485" lon="12.1356915"><ele>115.8</ele><time>2026-04-11T07:23:50.475Z</time></trkpt><trkpt lat="42.7230514" lon="12.1356875"><ele>117.0</ele><time>2026-04-11T07:23:51.464Z</time></trkpt><trkpt lat="42.7229616" lon="12.1356821"><ele>117.0</ele><time>2026-04-11T07:23:52.45Z</time></trkpt><trkpt lat="42.7228355" lon="12.1356328"><ele>117.0</ele><time>2026-04-11T07:23:53.446Z</time></trkpt><trkpt lat="42.7227238" lon="12.1355452"><ele>117.0</ele><time>2026-04-11T07:23:54.472Z</time></trkpt><trkpt lat="42.7225949" lon="12.1354629"><ele>117.0</ele><time>2026-04-11T07:23:55.467Z</time></trkpt><trkpt lat="42.722492" lon="12.1353741"><ele>117.25</ele><time>2026-04-11T07:23:56.475Z</time></trkpt><trkpt lat="42.7223818" lon="12.1352797"><ele>117.5</ele><time>2026-04-11T07:23:57.473Z</time></trkpt><trkpt lat="42.72227" lon="12.1351994"><ele>117.75</ele><time>2026-04-11T07:23:58.477Z</time></trkpt><trkpt lat="42.7221628" lon="12.1351143"><ele>118.0</ele><time>2026-04-11T07:23:59.475Z</time></trkpt><trkpt lat="42.7220645" lon="12.1350311"><ele>118.0</ele><time>2026-04-11T07:24:00.465Z</time></trkpt><trkpt lat="42.7219792" lon="12.1349463"><ele>118.00000000000001</ele><time>2026-04-11T07:24:01.459Z</time></trkpt><trkpt lat="42.7219121" lon="12.1348568"><ele>118.00000000000001</ele><time>2026-04-11T07:24:02.471Z</time></trkpt><trkpt lat="42.7218627" lon="12.1347676"><ele>118.0</ele><time>2026-04-11T07:24:03.463Z</time></trkpt><trkpt lat="42.7218225" lon="12.1346847"><ele>118.0</ele><time>2026-04-11T07:24:04.47Z</time></trkpt><trkpt lat="42.7217964" lon="12.1345074"><ele>117.83333333333334</ele><time>2026-04-11T07:24:06.467Z</time></trkpt><trkpt lat="42.7218061" lon="12.1343986"><ele>117.66666666666667</ele><time>2026-04-11T07:24:07.475Z</time></trkpt><trkpt lat="42.7218135" lon="12.134279"><ele>117.5</ele><time>2026-04-11T07:24:08.488Z</time></trkpt><trkpt lat="42.7217998" lon="12.1341669"><ele>117.33333333333334</ele><time>2026-04-11T07:24:09.485Z</time></trkpt><trkpt lat="42.7217773" lon="12.1340695"><ele>117.16666666666667</ele><time>2026-04-11T07:24:10.491Z</time></trkpt><trkpt lat="42.7217168" lon="12.1339884"><ele>117.0</ele><time>2026-04-11T07:24:11.464Z</time></trkpt><trkpt lat="42.7216399" lon="12.1339317"><ele>117.0</ele><time>2026-04-11T07:24:12.466Z</time></trkpt><trkpt lat="42.7215519" lon="12.1338978"><ele>116.99999999999999</ele><time>2026-04-11T07:24:13.467Z</time></trkpt><trkpt lat="42.721459" lon="12.1339165"><ele>116.99999999999999</ele><time>2026-04-11T07:24:14.481Z</time></trkpt><trkpt lat="42.7213709" lon="12.1339774"><ele>117.0</ele><time>2026-04-11T07:24:15.475Z</time></trkpt><trkpt lat="42.7213082" lon="12.1340846"><ele>117.0</ele><time>2026-04-11T07:24:16.47Z</time></trkpt><trkpt lat="42.7212638" lon="12.1342335"><ele>116.75</ele><time>2026-04-11T07:24:17.474Z</time></trkpt><trkpt lat="42.7212613" lon="12.1344183"><ele>116.5</ele><time>2026-04-11T07:24:18.46Z</time></trkpt><trkpt lat="42.7212792" lon="12.1346259"><ele>116.25</ele><time>2026-04-11T07:24:19.472Z</time></trkpt><trkpt lat="42.721284" lon="12.1348156"><ele>116.0</ele><time>2026-04-11T07:24:20.467Z</time></trkpt><trkpt lat="42.7212849" lon="12.1349821"><ele>116.0</ele><time>2026-04-11T07:24:21.488Z</time></trkpt><trkpt lat="42.7212805" lon="12.1351421"><ele>116.0</ele><time>2026-04-11T07:24:22.484Z</time></trkpt><trkpt lat="42.7212696" lon="12.1352984"><ele>116.0</ele><time>2026-04-11T07:24:23.474Z</time></trkpt><trkpt lat="42.7212492" lon="12.1354568"><ele>116.0</ele><time>2026-04-11T07:24:24.479Z</time></trkpt><trkpt lat="42.7212143" lon="12.1356099"><ele>116.0</ele><time>2026-04-11T07:24:25.479Z</time></trkpt><trkpt lat="42.7211845" lon="12.1357629"><ele>116.0</ele><time>2026-04-11T07:24:26.48Z</time></trkpt><trkpt lat="42.7211435" lon="12.1359037"><ele>116.0</ele><time>2026-04-11T07:24:27.474Z</time></trkpt><trkpt lat="42.7210739" lon="12.1360366"><ele>116.0</ele><time>2026-04-11T07:24:28.477Z</time></trkpt><trkpt lat="42.720998" lon="12.1361747"><ele>116.0</ele><time>2026-04-11T07:24:29.478Z</time></trkpt><trkpt lat="42.7209104" lon="12.1363013"><ele>116.0</ele><time>2026-04-11T07:24:30.473Z</time></trkpt><trkpt lat="42.7208274" lon="12.1364223"><ele>116.0</ele><time>2026-04-11T07:24:31.475Z</time></trkpt><trkpt lat="42.7207376" lon="12.1365405"><ele>116.0</ele><time>2026-04-11T07:24:32.472Z</time></trkpt><trkpt lat="42.7206486" lon="12.136649"><ele>116.0</ele><time>2026-04-11T07:24:33.476Z</time></trkpt><trkpt lat="42.7205653" lon="12.1367498"><ele>116.0</ele><time>2026-04-11T07:24:34.478Z</time></trkpt><trkpt lat="42.7204891" lon="12.1368565"><ele>116.0</ele><time>2026-04-11T07:24:35.464Z</time></trkpt><trkpt lat="42.7204169" lon="12.1369773"><ele>116.0</ele><time>2026-04-11T07:24:36.476Z</time></trkpt><trkpt lat="42.7203555" lon="12.1371017"><ele>116.0</ele><time>2026-04-11T07:24:37.478Z</time></trkpt><trkpt lat="42.7202907" lon="12.1372245"><ele>115.99999999999999</ele><time>2026-04-11T07:24:38.47Z</time></trkpt><trkpt lat="42.720225" lon="12.1373308"><ele>116.0</ele><time>2026-04-11T07:24:39.481Z</time></trkpt><trkpt lat="42.7201603" lon="12.137431"><ele>116.0</ele><time>2026-04-11T07:24:40.469Z</time></trkpt><trkpt lat="42.7200878" lon="12.1375138"><ele>116.0</ele><time>2026-04-11T07:24:41.489Z</time></trkpt><trkpt lat="42.7200184" lon="12.1375706"><ele>115.99999999999999</ele><time>2026-04-11T07:24:42.473Z</time></trkpt><trkpt lat="42.7199586" lon="12.1376012"><ele>116.0</ele><time>2026-04-11T07:24:43.478Z</time></trkpt><trkpt lat="42.7199005" lon="12.1376361"><ele>115.99999999999999</ele><time>2026-04-11T07:24:44.473Z</time></trkpt><trkpt lat="42.7198287" lon="12.1377085"><ele>116.0</ele><time>2026-04-11T07:24:46.478Z</time></trkpt><trkpt lat="42.7197881" lon="12.1377869"><ele>116.0</ele><time>2026-04-11T07:24:50.489Z</time></trkpt><trkpt lat="42.7197457" lon="12.1378988"><ele>116.0</ele><time>2026-04-11T07:24:57.482Z</time></trkpt><trkpt lat="42.7197138" lon="12.1380434"><ele>115.99999999999999</ele><time>2026-04-11T07:24:59.485Z</time></trkpt><trkpt lat="42.7196943" lon="12.1381344"><ele>116.0</ele><time>2026-04-11T07:32:45.5Z</time></trkpt><trkpt lat="42.7196551" lon="12.1382044"><ele>116.0</ele><time>2026-04-11T07:32:50.508Z</time></trkpt><trkpt lat="42.7195888" lon="12.1382439"><ele>113.0</ele><time>2026-04-11T07:32:54.506Z</time></trkpt></trkseg><trkseg><trkpt lat="42.7194954" lon="12.1381786"><ele>115.99999999999999</ele><time>2026-04-11T07:50:53.433Z</time></trkpt><trkpt lat="42.7195737" lon="12.1382175"><ele>116.0</ele><time>2026-04-11T07:50:56.528Z</time></trkpt><trkpt lat="42.7195829" lon="12.1383137"><ele>116.0</ele><time>2026-04-11T07:53:02.469Z</time></trkpt><trkpt lat="42.7196631" lon="12.1383115"><ele>116.0</ele><time>2026-04-11T07:53:13.471Z</time></trkpt><trkpt lat="42.7197574" lon="12.1382378"><ele>115.99999999999999</ele><time>2026-04-11T07:53:15.467Z</time></trkpt><trkpt lat="42.7198245" lon="12.138154"><ele>116.0</ele><time>2026-04-11T07:53:16.46Z</time></trkpt><trkpt lat="42.7198948" lon="12.138033"><ele>116.0</ele><time>2026-04-11T07:53:17.469Z</time></trkpt><trkpt lat="42.7199754" lon="12.1379086"><ele>116.0</ele><time>2026-04-11T07:53:18.464Z</time></trkpt><trkpt lat="42.720052" lon="12.137793"><ele>116.0</ele><time>2026-04-11T07:53:19.46Z</time></trkpt><trkpt lat="42.7201163" lon="12.1376818"><ele>116.0</ele><time>2026-04-11T07:53:20.458Z</time></trkpt><trkpt lat="42.72018" lon="12.1375825"><ele>116.0</ele><time>2026-04-11T07:53:21.469Z</time></trkpt><trkpt lat="42.7202425" lon="12.1374937"><ele>115.99999999999999</ele><time>2026-04-11T07:53:22.452Z</time></trkpt><trkpt lat="42.7202835" lon="12.1374175"><ele>116.0</ele><time>2026-04-11T07:53:23.462Z</time></trkpt><trkpt lat="42.7203238" lon="12.1373416"><ele>116.0</ele><time>2026-04-11T07:53:24.467Z</time></trkpt><trkpt lat="42.7203678" lon="12.1372645"><ele>116.0</ele><time>2026-04-11T07:53:25.464Z</time></trkpt><trkpt lat="42.7204331" lon="12.1371601"><ele>115.99999999999999</ele><time>2026-04-11T07:53:27.47Z</time></trkpt><trkpt lat="42.7204977" lon="12.1370435"><ele>116.0</ele><time>2026-04-11T07:53:30.479Z</time></trkpt><trkpt lat="42.7205659" lon="12.1369092"><ele>116.00000000000001</ele><time>2026-04-11T07:53:32.461Z</time></trkpt><trkpt lat="42.7206101" lon="12.1368264"><ele>116.0</ele><time>2026-04-11T07:53:33.458Z</time></trkpt><trkpt lat="42.7206565" lon="12.136741"><ele>116.00000000000001</ele><time>2026-04-11T07:53:34.466Z</time></trkpt><trkpt lat="42.7207079" lon="12.1366732"><ele>116.00000000000001</ele><time>2026-04-11T07:53:35.467Z</time></trkpt><trkpt lat="42.7207569" lon="12.1366062"><ele>116.0</ele><time>2026-04-11T07:53:36.461Z</time></trkpt><trkpt lat="42.7208128" lon="12.1365471"><ele>116.00000000000001</ele><time>2026-04-11T07:53:37.459Z</time></trkpt><trkpt lat="42.7208661" lon="12.136482"><ele>116.00000000000001</ele><time>2026-04-11T07:53:38.462Z</time></trkpt><trkpt lat="42.7209173" lon="12.1364091"><ele>115.99999999999999</ele><time>2026-04-11T07:53:39.455Z</time></trkpt><trkpt lat="42.720979" lon="12.1363322"><ele>116.0</ele><time>2026-04-11T07:53:40.455Z</time></trkpt><trkpt lat="42.7210421" lon="12.1362394"><ele>116.0</ele><time>2026-04-11T07:53:41.461Z</time></trkpt><trkpt lat="42.721101" lon="12.136141"><ele>116.0</ele><time>2026-04-11T07:53:42.454Z</time></trkpt><trkpt lat="42.7211492" lon="12.1360489"><ele>115.99999999999999</ele><time>2026-04-11T07:53:43.459Z</time></trkpt><trkpt lat="42.7211839" lon="12.1359638"><ele>116.0</ele><time>2026-04-11T07:53:44.455Z</time></trkpt><trkpt lat="42.7212456" lon="12.1358095"><ele>115.99999999999999</ele><time>2026-04-11T07:53:46.466Z</time></trkpt><trkpt lat="42.7212601" lon="12.135716"><ele>116.0</ele><time>2026-04-11T07:53:47.467Z</time></trkpt><trkpt lat="42.7212844" lon="12.1356234"><ele>116.0</ele><time>2026-04-11T07:53:48.464Z</time></trkpt><trkpt lat="42.7213034" lon="12.1355135"><ele>116.0</ele><time>2026-04-11T07:53:49.468Z</time></trkpt><trkpt lat="42.7213303" lon="12.1353939"><ele>115.99999999999999</ele><time>2026-04-11T07:53:50.468Z</time></trkpt><trkpt lat="42.7213528" lon="12.1352618"><ele>116.0</ele><time>2026-04-11T07:53:51.464Z</time></trkpt><trkpt lat="42.7213699" lon="12.1351426"><ele>116.0</ele><time>2026-04-11T07:53:52.475Z</time></trkpt><trkpt lat="42.7213829" lon="12.1350327"><ele>116.0</ele><time>2026-04-11T07:53:53.462Z</time></trkpt><trkpt lat="42.7214359" lon="12.1348816"><ele>116.0</ele><time>2026-04-11T07:53:55.46Z</time></trkpt><trkpt lat="42.721559" lon="12.1348162"><ele>116.0</ele><time>2026-04-11T07:53:57.46Z</time></trkpt><trkpt lat="42.7216397" lon="12.1348233"><ele>116.0</ele><time>2026-04-11T07:53:58.46Z</time></trkpt><trkpt lat="42.721735" lon="12.1348623"><ele>116.0</ele><time>2026-04-11T07:53:59.46Z</time></trkpt><trkpt lat="42.7218448" lon="12.1349162"><ele>116.0</ele><time>2026-04-11T07:54:00.464Z</time></trkpt><trkpt lat="42.7219506" lon="12.1349912"><ele>116.0</ele><time>2026-04-11T07:54:01.468Z</time></trkpt><trkpt lat="42.7220461" lon="12.1350803"><ele>116.0</ele><time>2026-04-11T07:54:02.468Z</time></trkpt><trkpt lat="42.7222113" lon="12.1352365"><ele>116.4</ele><time>2026-04-11T07:54:04.475Z</time></trkpt><trkpt lat="42.7222974" lon="12.1352973"><ele>116.8</ele><time>2026-04-11T07:54:05.473Z</time></trkpt><trkpt lat="42.7223883" lon="12.1353614"><ele>117.20000000000002</ele><time>2026-04-11T07:54:06.473Z</time></trkpt><trkpt lat="42.7224791" lon="12.1354128"><ele>117.60000000000001</ele><time>2026-04-11T07:54:07.472Z</time></trkpt><trkpt lat="42.7225792" lon="12.1354668"><ele>118.0</ele><time>2026-04-11T07:54:08.478Z</time></trkpt><trkpt lat="42.7226781" lon="12.1355181"><ele>117.80000000000001</ele><time>2026-04-11T07:54:09.467Z</time></trkpt><trkpt lat="42.7227791" lon="12.1355643"><ele>117.60000000000001</ele><time>2026-04-11T07:54:10.467Z</time></trkpt><trkpt lat="42.7228727" lon="12.1356019"><ele>117.39999999999999</ele><time>2026-04-11T07:54:11.459Z</time></trkpt><trkpt lat="42.7229684" lon="12.1356383"><ele>117.19999999999999</ele><time>2026-04-11T07:54:12.447Z</time></trkpt><trkpt lat="42.7230601" lon="12.1356703"><ele>117.0</ele><time>2026-04-11T07:54:13.435Z</time></trkpt><trkpt lat="42.7231409" lon="12.1356982"><ele>116.39999999999999</ele><time>2026-04-11T07:54:14.441Z</time></trkpt><trkpt lat="42.7232154" lon="12.1357549"><ele>115.79999999999998</ele><time>2026-04-11T07:54:15.445Z</time></trkpt><trkpt lat="42.7233278" lon="12.1358136"><ele>115.2</ele><time>2026-04-11T07:54:17.45Z</time></trkpt><trkpt lat="42.7233797" lon="12.1359399"><ele>114.6</ele><time>2026-04-11T07:54:19.477Z</time></trkpt><trkpt lat="42.7234318" lon="12.136072"><ele>114.0</ele><time>2026-04-11T07:54:21.479Z</time></trkpt><trkpt lat="42.7235299" lon="12.136113"><ele>113.57142857142857</ele><time>2026-04-11T07:54:23.489Z</time></trkpt><trkpt lat="42.7235976" lon="12.1360926"><ele>113.14285714285714</ele><time>2026-04-11T07:54:24.471Z</time></trkpt><trkpt lat="42.7236564" lon="12.13602"><ele>112.71428571428571</ele><time>2026-04-11T07:54:25.484Z</time></trkpt><trkpt lat="42.7237099" lon="12.1359355"><ele>112.28571428571428</ele><time>2026-04-11T07:54:26.487Z</time></trkpt><trkpt lat="42.7237675" lon="12.1358769"><ele>111.85714285714286</ele><time>2026-04-11T07:54:27.483Z</time></trkpt><trkpt lat="42.723832" lon="12.1358241"><ele>111.42857142857142</ele><time>2026-04-11T07:54:28.487Z</time></trkpt><trkpt lat="42.7238971" lon="12.1357921"><ele>111.0</ele><time>2026-04-11T07:54:29.477Z</time></trkpt><trkpt lat="42.723968" lon="12.1357995"><ele>111.0</ele><time>2026-04-11T07:54:30.49Z</time></trkpt><trkpt lat="42.7240499" lon="12.1358178"><ele>111.0</ele><time>2026-04-11T07:54:31.487Z</time></trkpt><trkpt lat="42.7241433" lon="12.1358416"><ele>111.0</ele><time>2026-04-11T07:54:32.489Z</time></trkpt><trkpt lat="42.7242397" lon="12.1358631"><ele>111.0</ele><time>2026-04-11T07:54:33.492Z</time></trkpt><trkpt lat="42.7243353" lon="12.1358768"><ele>111.0</ele><time>2026-04-11T07:54:34.495Z</time></trkpt><trkpt lat="42.724441" lon="12.1359"><ele>110.8</ele><time>2026-04-11T07:54:35.489Z</time></trkpt><trkpt lat="42.7245352" lon="12.1359126"><ele>110.6</ele><time>2026-04-11T07:54:36.488Z</time></trkpt><trkpt lat="42.7246387" lon="12.1359248"><ele>110.4</ele><time>2026-04-11T07:54:37.476Z</time></trkpt><trkpt lat="42.724754" lon="12.1359375"><ele>110.2</ele><time>2026-04-11T07:54:38.481Z</time></trkpt><trkpt lat="42.7248616" lon="12.1359475"><ele>110.0</ele><time>2026-04-11T07:54:39.494Z</time></trkpt><trkpt lat="42.7249632" lon="12.1359685"><ele>110.0</ele><time>2026-04-11T07:54:40.49Z</time></trkpt><trkpt lat="42.725066" lon="12.1359917"><ele>110.0</ele><time>2026-04-11T07:54:41.495Z</time></trkpt><trkpt lat="42.7251823" lon="12.1360117"><ele>110.0</ele><time>2026-04-11T07:54:42.569Z</time></trkpt><trkpt lat="42.7253057" lon="12.13603"><ele>110.0</ele><time>2026-04-11T07:54:43.568Z</time></trkpt><trkpt lat="42.7254403" lon="12.1360505"><ele>110.5</ele><time>2026-04-11T07:54:44.56Z</time></trkpt><trkpt lat="42.7255733" lon="12.1360739"><ele>111.0</ele><time>2026-04-11T07:54:45.572Z</time></trkpt><trkpt lat="42.7257105" lon="12.1360965"><ele>111.5</ele><time>2026-04-11T07:54:46.559Z</time></trkpt><trkpt lat="42.7258403" lon="12.1361176"><ele>112.0</ele><time>2026-04-11T07:54:47.566Z</time></trkpt><trkpt lat="42.7259709" lon="12.1361392"><ele>113.25</ele><time>2026-04-11T07:54:48.572Z</time></trkpt><trkpt lat="42.726102" lon="12.136159"><ele>114.5</ele><time>2026-04-11T07:54:49.565Z</time></trkpt><trkpt lat="42.7262309" lon="12.1361835"><ele>115.75</ele><time>2026-04-11T07:54:50.563Z</time></trkpt><trkpt lat="42.7263455" lon="12.1362155"><ele>117.0</ele><time>2026-04-11T07:54:51.556Z</time></trkpt><trkpt lat="42.7264495" lon="12.1362579"><ele>117.0</ele><time>2026-04-11T07:54:52.553Z</time></trkpt><trkpt lat="42.7265495" lon="12.1363107"><ele>116.99999999999999</ele><time>2026-04-11T07:54:53.532Z</time></trkpt><trkpt lat="42.7266352" lon="12.1363766"><ele>116.99999999999999</ele><time>2026-04-11T07:54:54.548Z</time></trkpt><trkpt lat="42.7267137" lon="12.1364558"><ele>117.0</ele><time>2026-04-11T07:54:55.534Z</time></trkpt><trkpt lat="42.7267792" lon="12.1365271"><ele>117.0</ele><time>2026-04-11T07:54:56.54Z</time></trkpt><trkpt lat="42.7268486" lon="12.1365648"><ele>117.5</ele><time>2026-04-11T07:54:57.542Z</time></trkpt><trkpt lat="42.7269135" lon="12.1365507"><ele>118.0</ele><time>2026-04-11T07:54:58.544Z</time></trkpt><trkpt lat="42.7270321" lon="12.1364027"><ele>118.5</ele><time>2026-04-11T07:55:01.523Z</time></trkpt><trkpt lat="42.7271551" lon="12.13622"><ele>119.0</ele><time>2026-04-11T07:55:02.435Z</time></trkpt><trkpt lat="42.7272053" lon="12.1361008"><ele>119.0</ele><time>2026-04-11T07:55:03.451Z</time></trkpt><trkpt lat="42.7272672" lon="12.1359917"><ele>119.0</ele><time>2026-04-11T07:55:04.455Z</time></trkpt><trkpt lat="42.7273419" lon="12.1359008"><ele>119.0</ele><time>2026-04-11T07:55:05.457Z</time></trkpt><trkpt lat="42.7274305" lon="12.1358181"><ele>119.0</ele><time>2026-04-11T07:55:06.463Z</time></trkpt><trkpt lat="42.7275416" lon="12.13576"><ele>119.0</ele><time>2026-04-11T07:55:07.467Z</time></trkpt><trkpt lat="42.7276512" lon="12.1356949"><ele>119.25</ele><time>2026-04-11T07:55:08.461Z</time></trkpt><trkpt lat="42.7277707" lon="12.1356121"><ele>119.5</ele><time>2026-04-11T07:55:09.465Z</time></trkpt><trkpt lat="42.7278767" lon="12.1355386"><ele>119.75</ele><time>2026-04-11T07:55:10.467Z</time></trkpt><trkpt lat="42.7279921" lon="12.1354691"><ele>120.0</ele><time>2026-04-11T07:55:11.471Z</time></trkpt><trkpt lat="42.7281011" lon="12.135393"><ele>120.0</ele><time>2026-04-11T07:55:12.468Z</time></trkpt><trkpt lat="42.7282201" lon="12.1353203"><ele>120.0</ele><time>2026-04-11T07:55:13.466Z</time></trkpt><trkpt lat="42.7283273" lon="12.1352476"><ele>120.0</ele><time>2026-04-11T07:55:14.467Z</time></trkpt><trkpt lat="42.7284409" lon="12.1351607"><ele>120.0</ele><time>2026-04-11T07:55:15.469Z</time></trkpt><trkpt lat="42.728561" lon="12.1350797"><ele>120.25</ele><time>2026-04-11T07:55:16.472Z</time></trkpt><trkpt lat="42.7286863" lon="12.1350101"><ele>120.5</ele><time>2026-04-11T07:55:17.477Z</time></trkpt><trkpt lat="42.7288012" lon="12.1349392"><ele>120.75</ele><time>2026-04-11T07:55:18.472Z</time></trkpt><trkpt lat="42.7289185" lon="12.1348705"><ele>121.0</ele><time>2026-04-11T07:55:19.469Z</time></trkpt><trkpt lat="42.7290323" lon="12.1348042"><ele>121.0</ele><time>2026-04-11T07:55:20.467Z</time></trkpt><trkpt lat="42.7291413" lon="12.1347236"><ele>121.0</ele><time>2026-04-11T07:55:21.466Z</time></trkpt><trkpt lat="42.7292514" lon="12.1346485"><ele>121.0</ele><time>2026-04-11T07:55:22.467Z</time></trkpt><trkpt lat="42.7293581" lon="12.1345783"><ele>121.0</ele><time>2026-04-11T07:55:23.459Z</time></trkpt><trkpt lat="42.7294729" lon="12.1345084"><ele>121.5</ele><time>2026-04-11T07:55:24.463Z</time></trkpt><trkpt lat="42.7295882" lon="12.1344367"><ele>122.0</ele><time>2026-04-11T07:55:25.481Z</time></trkpt><trkpt lat="42.7296975" lon="12.1343672"><ele>122.5</ele><time>2026-04-11T07:55:26.47Z</time></trkpt><trkpt lat="42.7298185" lon="12.134296"><ele>123.0</ele><time>2026-04-11T07:55:27.466Z</time></trkpt><trkpt lat="42.729937" lon="12.1342102"><ele>123.0</ele><time>2026-04-11T07:55:28.465Z</time></trkpt><trkpt lat="42.730057" lon="12.134127"><ele>123.0</ele><time>2026-04-11T07:55:29.465Z</time></trkpt><trkpt lat="42.7301721" lon="12.1340511"><ele>123.0</ele><time>2026-04-11T07:55:30.467Z</time></trkpt><trkpt lat="42.7302943" lon="12.133973"><ele>123.0</ele><time>2026-04-11T07:55:31.463Z</time></trkpt><trkpt lat="42.7304165" lon="12.1338956"><ele>123.0</ele><time>2026-04-11T07:55:32.46Z</time></trkpt><trkpt lat="42.73054" lon="12.1338145"><ele>123.0</ele><time>2026-04-11T07:55:33.458Z</time></trkpt><trkpt lat="42.7306622" lon="12.1337417"><ele>123.0</ele><time>2026-04-11T07:55:34.46Z</time></trkpt><trkpt lat="42.7307769" lon="12.1336594"><ele>123.0</ele><time>2026-04-11T07:55:35.457Z</time></trkpt><trkpt lat="42.7308879" lon="12.1335914"><ele>123.0</ele><time>2026-04-11T07:55:36.458Z</time></trkpt><trkpt lat="42.7310033" lon="12.1335146"><ele>123.0</ele><time>2026-04-11T07:55:37.462Z</time></trkpt><trkpt lat="42.7311217" lon="12.1334329"><ele>123.0</ele><time>2026-04-11T07:55:38.458Z</time></trkpt><trkpt lat="42.7312445" lon="12.1333514"><ele>123.0</ele><time>2026-04-11T07:55:39.46Z</time></trkpt><trkpt lat="42.7313647" lon="12.1332725"><ele>122.75</ele><time>2026-04-11T07:55:40.455Z</time></trkpt><trkpt lat="42.7315006" lon="12.1332141"><ele>122.5</ele><time>2026-04-11T07:55:41.459Z</time></trkpt><trkpt lat="42.7316082" lon="12.1331259"><ele>122.25</ele><time>2026-04-11T07:55:42.451Z</time></trkpt><trkpt lat="42.7317411" lon="12.1330861"><ele>122.0</ele><time>2026-04-11T07:55:43.448Z</time></trkpt><trkpt lat="42.7318531" lon="12.1330223"><ele>123.0</ele><time>2026-04-11T07:55:44.454Z</time></trkpt><trkpt lat="42.7319414" lon="12.1329475"><ele>124.0</ele><time>2026-04-11T07:55:45.458Z</time></trkpt><trkpt lat="42.7320559" lon="12.1328864"><ele>125.0</ele><time>2026-04-11T07:55:46.454Z</time></trkpt><trkpt lat="42.7321677" lon="12.1328168"><ele>126.0</ele><time>2026-04-11T07:55:47.453Z</time></trkpt><trkpt lat="42.7322882" lon="12.1327442"><ele>126.0</ele><time>2026-04-11T07:55:48.457Z</time></trkpt><trkpt lat="42.7324028" lon="12.1326667"><ele>126.0</ele><time>2026-04-11T07:55:49.441Z</time></trkpt><trkpt lat="42.7325006" lon="12.1325854"><ele>126.0</ele><time>2026-04-11T07:55:50.448Z</time></trkpt><trkpt lat="42.7325626" lon="12.132545"><ele>126.0</ele><time>2026-04-11T07:55:51.444Z</time></trkpt><trkpt lat="42.7326553" lon="12.1324326"><ele>126.0</ele><time>2026-04-11T07:55:52.431Z</time></trkpt><trkpt lat="42.7327203" lon="12.1323436"><ele>123.33333333333334</ele><time>2026-04-11T07:55:53.445Z</time></trkpt><trkpt lat="42.7328494" lon="12.1321644"><ele>120.66666666666667</ele><time>2026-04-11T07:55:54.435Z</time></trkpt><trkpt lat="42.7329443" lon="12.1319346"><ele>118.0</ele><time>2026-04-11T07:55:55.44Z</time></trkpt><trkpt lat="42.7330441" lon="12.1316831"><ele>118.0</ele><time>2026-04-11T07:55:56.456Z</time></trkpt><trkpt lat="42.7331194" lon="12.1313785"><ele>118.0</ele><time>2026-04-11T07:55:57.442Z</time></trkpt><trkpt lat="42.7331615" lon="12.1311103"><ele>118.0</ele><time>2026-04-11T07:55:58.451Z</time></trkpt><trkpt lat="42.733176" lon="12.1308552"><ele>117.66666666666667</ele><time>2026-04-11T07:55:59.449Z</time></trkpt><trkpt lat="42.7332015" lon="12.1306242"><ele>117.33333333333334</ele><time>2026-04-11T07:56:00.448Z</time></trkpt><trkpt lat="42.7332415" lon="12.1304056"><ele>117.0</ele><time>2026-04-11T07:56:01.456Z</time></trkpt><trkpt lat="42.7332811" lon="12.1302441"><ele>117.0</ele><time>2026-04-11T07:56:02.453Z</time></trkpt><trkpt lat="42.733369" lon="12.1301245"><ele>117.0</ele><time>2026-04-11T07:56:03.46Z</time></trkpt><trkpt lat="42.7335064" lon="12.1300844"><ele>117.0</ele><time>2026-04-11T07:56:04.465Z</time></trkpt><trkpt lat="42.7335971" lon="12.1300821"><ele>117.0</ele><time>2026-04-11T07:56:05.466Z</time></trkpt><trkpt lat="42.7337131" lon="12.1300796"><ele>117.16666666666667</ele><time>2026-04-11T07:56:06.462Z</time></trkpt><trkpt lat="42.733808" lon="12.1300549"><ele>117.33333333333334</ele><time>2026-04-11T07:56:07.457Z</time></trkpt><trkpt lat="42.7338647" lon="12.1300099"><ele>117.5</ele><time>2026-04-11T07:56:08.47Z</time></trkpt><trkpt lat="42.7338839" lon="12.1299129"><ele>117.66666666666667</ele><time>2026-04-11T07:56:09.459Z</time></trkpt><trkpt lat="42.7338943" lon="12.1297741"><ele>117.83333333333334</ele><time>2026-04-11T07:56:10.458Z</time></trkpt><trkpt lat="42.7339228" lon="12.1296428"><ele>118.0</ele><time>2026-04-11T07:56:11.447Z</time></trkpt><trkpt lat="42.7339661" lon="12.1294826"><ele>117.33333333333334</ele><time>2026-04-11T07:56:12.446Z</time></trkpt><trkpt lat="42.7340465" lon="12.1293383"><ele>116.66666666666666</ele><time>2026-04-11T07:56:13.446Z</time></trkpt><trkpt lat="42.7341614" lon="12.1291984"><ele>116.0</ele><time>2026-04-11T07:56:14.453Z</time></trkpt><trkpt lat="42.7342875" lon="12.1290527"><ele>117.0</ele><time>2026-04-11T07:56:15.458Z</time></trkpt><trkpt lat="42.7344457" lon="12.1289182"><ele>118.0</ele><time>2026-04-11T07:56:16.467Z</time></trkpt><trkpt lat="42.7345536" lon="12.1287622"><ele>119.0</ele><time>2026-04-11T07:56:17.465Z</time></trkpt><trkpt lat="42.7346595" lon="12.1286564"><ele>119.0</ele><time>2026-04-11T07:56:18.466Z</time></trkpt><trkpt lat="42.7347718" lon="12.1285486"><ele>119.0</ele><time>2026-04-11T07:56:19.46Z</time></trkpt><trkpt lat="42.7348853" lon="12.1284232"><ele>119.0</ele><time>2026-04-11T07:56:20.466Z</time></trkpt><trkpt lat="42.7349899" lon="12.1283027"><ele>119.0</ele><time>2026-04-11T07:56:21.471Z</time></trkpt><trkpt lat="42.7351223" lon="12.1281856"><ele>119.0</ele><time>2026-04-11T07:56:22.468Z</time></trkpt><trkpt lat="42.7352258" lon="12.1280427"><ele>119.0</ele><time>2026-04-11T07:56:23.476Z</time></trkpt><trkpt lat="42.7353383" lon="12.1279041"><ele>119.0</ele><time>2026-04-11T07:56:24.472Z</time></trkpt><trkpt lat="42.7354641" lon="12.1277726"><ele>119.0</ele><time>2026-04-11T07:56:25.474Z</time></trkpt><trkpt lat="42.7356107" lon="12.1276362"><ele>119.0</ele><time>2026-04-11T07:56:26.468Z</time></trkpt><trkpt lat="42.7357424" lon="12.1274906"><ele>119.0</ele><time>2026-04-11T07:56:27.485Z</time></trkpt><trkpt lat="42.7358884" lon="12.1273457"><ele>119.66666666666666</ele><time>2026-04-11T07:56:28.462Z</time></trkpt><trkpt lat="42.7360398" lon="12.127204"><ele>120.33333333333334</ele><time>2026-04-11T07:56:29.462Z</time></trkpt><trkpt lat="42.7361938" lon="12.1270524"><ele>121.0</ele><time>2026-04-11T07:56:30.465Z</time></trkpt><trkpt lat="42.736351" lon="12.1269134"><ele>121.0</ele><time>2026-04-11T07:56:31.47Z</time></trkpt><trkpt lat="42.7364799" lon="12.1267549"><ele>121.0</ele><time>2026-04-11T07:56:32.466Z</time></trkpt><trkpt lat="42.7366208" lon="12.1265833"><ele>121.0</ele><time>2026-04-11T07:56:33.474Z</time></trkpt><trkpt lat="42.7367664" lon="12.1264123"><ele>121.66666666666667</ele><time>2026-04-11T07:56:34.475Z</time></trkpt><trkpt lat="42.736948" lon="12.1262647"><ele>122.33333333333334</ele><time>2026-04-11T07:56:35.471Z</time></trkpt><trkpt lat="42.7370967" lon="12.1261016"><ele>123.0</ele><time>2026-04-11T07:56:36.467Z</time></trkpt><trkpt lat="42.7372622" lon="12.1259155"><ele>123.0</ele><time>2026-04-11T07:56:37.473Z</time></trkpt><trkpt lat="42.7374371" lon="12.1257447"><ele>123.0</ele><time>2026-04-11T07:56:38.471Z</time></trkpt><trkpt lat="42.7375867" lon="12.1255717"><ele>123.0</ele><time>2026-04-11T07:56:39.467Z</time></trkpt><trkpt lat="42.7375867" lon="12.1255717"><ele>123.0</ele><time>2026-04-11T07:56:39.467Z</time></trkpt><trkpt lat="42.7399284" lon="12.1246439"><ele>126.0</ele><time>2026-04-11T07:56:56.474Z</time></trkpt><trkpt lat="42.7400803" lon="12.1247499"><ele>129.0</ele><time>2026-04-11T07:56:57.47Z</time></trkpt><trkpt lat="42.7404507" lon="12.1250357"><ele>129.33333333333334</ele><time>2026-04-11T07:56:59.473Z</time></trkpt><trkpt lat="42.7406534" lon="12.1251729"><ele>129.66666666666669</ele><time>2026-04-11T07:57:00.458Z</time></trkpt><trkpt lat="42.7408422" lon="12.125314"><ele>130.0</ele><time>2026-04-11T07:57:01.457Z</time></trkpt><trkpt lat="42.7410494" lon="12.1254644"><ele>129.0</ele><time>2026-04-11T07:57:02.459Z</time></trkpt><trkpt lat="42.7412645" lon="12.1256298"><ele>128.0</ele><time>2026-04-11T07:57:03.46Z</time></trkpt><trkpt lat="42.7414818" lon="12.1257792"><ele>127.5</ele><time>2026-04-11T07:57:04.463Z</time></trkpt><trkpt lat="42.7416866" lon="12.1259388"><ele>127.0</ele><time>2026-04-11T07:57:05.464Z</time></trkpt><trkpt lat="42.7419055" lon="12.1261153"><ele>126.5</ele><time>2026-04-11T07:57:06.466Z</time></trkpt><trkpt lat="42.7421144" lon="12.1262846"><ele>126.0</ele><time>2026-04-11T07:57:07.474Z</time></trkpt><trkpt lat="42.7423297" lon="12.1264447"><ele>126.5</ele><time>2026-04-11T07:57:08.465Z</time></trkpt><trkpt lat="42.7425576" lon="12.1266085"><ele>127.0</ele><time>2026-04-11T07:57:09.476Z</time></trkpt><trkpt lat="42.7427773" lon="12.1267605"><ele>127.0</ele><time>2026-04-11T07:57:10.475Z</time></trkpt><trkpt lat="42.7429914" lon="12.1269118"><ele>127.0</ele><time>2026-04-11T07:57:11.483Z</time></trkpt><trkpt lat="42.7432005" lon="12.1270702"><ele>127.0</ele><time>2026-04-11T07:57:12.478Z</time></trkpt><trkpt lat="42.7434136" lon="12.1272286"><ele>127.0</ele><time>2026-04-11T07:57:13.487Z</time></trkpt><trkpt lat="42.7436237" lon="12.1273887"><ele>127.0</ele><time>2026-04-11T07:57:14.484Z</time></trkpt><trkpt lat="42.7438513" lon="12.1275446"><ele>127.0</ele><time>2026-04-11T07:57:15.486Z</time></trkpt><trkpt lat="42.7440488" lon="12.1276987"><ele>127.0</ele><time>2026-04-11T07:57:16.48Z</time></trkpt><trkpt lat="42.7442464" lon="12.1278368"><ele>127.0</ele><time>2026-04-11T07:57:17.479Z</time></trkpt><trkpt lat="42.7444222" lon="12.1279825"><ele>127.0</ele><time>2026-04-11T07:57:18.481Z</time></trkpt><trkpt lat="42.7445999" lon="12.1281207"><ele>128.33333333333334</ele><time>2026-04-11T07:57:19.473Z</time></trkpt><trkpt lat="42.7447863" lon="12.1282672"><ele>129.66666666666666</ele><time>2026-04-11T07:57:20.472Z</time></trkpt><trkpt lat="42.744957" lon="12.1284031"><ele>131.0</ele><time>2026-04-11T07:57:21.471Z</time></trkpt><trkpt lat="42.7451341" lon="12.1285159"><ele>133.66666666666666</ele><time>2026-04-11T07:57:22.475Z</time></trkpt><trkpt lat="42.7453011" lon="12.1286132"><ele>136.33333333333334</ele><time>2026-04-11T07:57:23.467Z</time></trkpt><trkpt lat="42.7454876" lon="12.1286716"><ele>139.0</ele><time>2026-04-11T07:57:24.472Z</time></trkpt><trkpt lat="42.7456387" lon="12.1286484"><ele>139.0</ele><time>2026-04-11T07:57:25.456Z</time></trkpt><trkpt lat="42.7457936" lon="12.1285745"><ele>139.0</ele><time>2026-04-11T07:57:26.459Z</time></trkpt><trkpt lat="42.7459721" lon="12.1284733"><ele>139.0</ele><time>2026-04-11T07:57:27.446Z</time></trkpt><trkpt lat="42.7461554" lon="12.1283648"><ele>138.33333333333334</ele><time>2026-04-11T07:57:28.463Z</time></trkpt><trkpt lat="42.7463216" lon="12.1283235"><ele>137.66666666666666</ele><time>2026-04-11T07:57:29.448Z</time></trkpt><trkpt lat="42.74647" lon="12.1283297"><ele>137.0</ele><time>2026-04-11T07:57:30.441Z</time></trkpt><trkpt lat="42.7466604" lon="12.1282972"><ele>138.0</ele><time>2026-04-11T07:57:31.433Z</time></trkpt><trkpt lat="42.746815" lon="12.1282121"><ele>139.0</ele><time>2026-04-11T07:57:32.45Z</time></trkpt><trkpt lat="42.7469499" lon="12.1280517"><ele>140.0</ele><time>2026-04-11T07:57:33.433Z</time></trkpt><trkpt lat="42.7470609" lon="12.127857"><ele>143.33333333333331</ele><time>2026-04-11T07:57:34.44Z</time></trkpt><trkpt lat="42.7471172" lon="12.1276307"><ele>146.66666666666666</ele><time>2026-04-11T07:57:35.427Z</time></trkpt><trkpt lat="42.7471075" lon="12.1273548"><ele>150.0</ele><time>2026-04-11T07:57:36.444Z</time></trkpt><trkpt lat="42.7470324" lon="12.127074"><ele>150.0</ele><time>2026-04-11T07:57:37.429Z</time></trkpt><trkpt lat="42.7469734" lon="12.1268228"><ele>150.0</ele><time>2026-04-11T07:57:38.431Z</time></trkpt><trkpt lat="42.7469549" lon="12.1265918"><ele>150.0</ele><time>2026-04-11T07:57:39.436Z</time></trkpt><trkpt lat="42.7469873" lon="12.1263655"><ele>151.66666666666666</ele><time>2026-04-11T07:57:40.43Z</time></trkpt><trkpt lat="42.7470268" lon="12.1261979"><ele>153.33333333333331</ele><time>2026-04-11T07:57:41.427Z</time></trkpt><trkpt lat="42.747163" lon="12.126101"><ele>155.0</ele><time>2026-04-11T07:57:42.429Z</time></trkpt><trkpt lat="42.747389" lon="12.1261854"><ele>155.0</ele><time>2026-04-11T07:57:43.426Z</time></trkpt><trkpt lat="42.7475732" lon="12.126321"><ele>155.0</ele><time>2026-04-11T07:57:44.413Z</time></trkpt><trkpt lat="42.7477336" lon="12.1264516"><ele>155.0</ele><time>2026-04-11T07:57:45.408Z</time></trkpt><trkpt lat="42.7478684" lon="12.1266924"><ele>156.0</ele><time>2026-04-11T07:57:46.428Z</time></trkpt><trkpt lat="42.7479581" lon="12.126906"><ele>157.0</ele><time>2026-04-11T07:57:47.428Z</time></trkpt><trkpt lat="42.7479703" lon="12.1271569"><ele>158.0</ele><time>2026-04-11T07:57:48.449Z</time></trkpt><trkpt lat="42.7479767" lon="12.1273894"><ele>158.25</ele><time>2026-04-11T07:57:49.452Z</time></trkpt><trkpt lat="42.7479975" lon="12.1276081"><ele>158.5</ele><time>2026-04-11T07:57:50.449Z</time></trkpt><trkpt lat="42.7480446" lon="12.1278036"><ele>158.75</ele><time>2026-04-11T07:57:51.452Z</time></trkpt><trkpt lat="42.7481229" lon="12.1279003"><ele>159.0</ele><time>2026-04-11T07:57:52.444Z</time></trkpt><trkpt lat="42.748201" lon="12.1279264"><ele>159.0</ele><time>2026-04-11T07:57:53.447Z</time></trkpt><trkpt lat="42.7482949" lon="12.1278794"><ele>159.0</ele><time>2026-04-11T07:57:54.443Z</time></trkpt><trkpt lat="42.7484468" lon="12.1276484"><ele>159.0</ele><time>2026-04-11T07:57:55.436Z</time></trkpt><trkpt lat="42.7486063" lon="12.1274782"><ele>161.66666666666666</ele><time>2026-04-11T07:57:56.45Z</time></trkpt><trkpt lat="42.7487594" lon="12.1272457"><ele>164.33333333333331</ele><time>2026-04-11T07:57:57.448Z</time></trkpt><trkpt lat="42.74893" lon="12.1271021"><ele>167.0</ele><time>2026-04-11T07:57:58.454Z</time></trkpt><trkpt lat="42.749079" lon="12.1269875"><ele>167.0</ele><time>2026-04-11T07:57:59.475Z</time></trkpt><trkpt lat="42.749246" lon="12.1269521"><ele>167.0</ele><time>2026-04-11T07:58:00.45Z</time></trkpt><trkpt lat="42.7494063" lon="12.1269933"><ele>167.0</ele><time>2026-04-11T07:58:01.451Z</time></trkpt><trkpt lat="42.7495661" lon="12.1270467"><ele>169.5</ele><time>2026-04-11T07:58:02.446Z</time></trkpt><trkpt lat="42.7497203" lon="12.1270939"><ele>172.0</ele><time>2026-04-11T07:58:03.446Z</time></trkpt><trkpt lat="42.7498609" lon="12.1271256"><ele>174.5</ele><time>2026-04-11T07:58:04.444Z</time></trkpt><trkpt lat="42.7499855" lon="12.1270955"><ele>177.0</ele><time>2026-04-11T07:58:05.447Z</time></trkpt><trkpt lat="42.750077" lon="12.1269716"><ele>177.0</ele><time>2026-04-11T07:58:06.446Z</time></trkpt><trkpt lat="42.7501543" lon="12.1267664"><ele>177.0</ele><time>2026-04-11T07:58:07.439Z</time></trkpt><trkpt lat="42.7501796" lon="12.126505"><ele>177.0</ele><time>2026-04-11T07:58:08.436Z</time></trkpt><trkpt lat="42.7501764" lon="12.1262812"><ele>181.33333333333334</ele><time>2026-04-11T07:58:09.441Z</time></trkpt><trkpt lat="42.7502112" lon="12.1260434"><ele>185.66666666666669</ele><time>2026-04-11T07:58:10.454Z</time></trkpt><trkpt lat="42.7502207" lon="12.1257867"><ele>190.0</ele><time>2026-04-11T07:58:11.447Z</time></trkpt><trkpt lat="42.7502301" lon="12.1255187"><ele>190.0</ele><time>2026-04-11T07:58:12.451Z</time></trkpt><trkpt lat="42.7502866" lon="12.125304"><ele>190.0</ele><time>2026-04-11T07:58:13.454Z</time></trkpt><trkpt lat="42.7503505" lon="12.125097"><ele>190.0</ele><time>2026-04-11T07:58:14.459Z</time></trkpt><trkpt lat="42.7504452" lon="12.1248712"><ele>189.66666666666669</ele><time>2026-04-11T07:58:15.455Z</time></trkpt><trkpt lat="42.7505491" lon="12.1246641"><ele>189.33333333333334</ele><time>2026-04-11T07:58:16.462Z</time></trkpt><trkpt lat="42.7506556" lon="12.124465"><ele>189.0</ele><time>2026-04-11T07:58:17.469Z</time></trkpt><trkpt lat="42.7507772" lon="12.1242583"><ele>189.0</ele><time>2026-04-11T07:58:18.466Z</time></trkpt><trkpt lat="42.7508619" lon="12.1240592"><ele>189.0</ele><time>2026-04-11T07:58:19.479Z</time></trkpt><trkpt lat="42.7509743" lon="12.1238752"><ele>189.0</ele><time>2026-04-11T07:58:20.473Z</time></trkpt><trkpt lat="42.7510981" lon="12.1236737"><ele>188.0</ele><time>2026-04-11T07:58:21.482Z</time></trkpt><trkpt lat="42.7512142" lon="12.1235024"><ele>187.0</ele><time>2026-04-11T07:58:22.482Z</time></trkpt><trkpt lat="42.7513534" lon="12.123334"><ele>186.0</ele><time>2026-04-11T07:58:23.475Z</time></trkpt><trkpt lat="42.7515023" lon="12.1232012"><ele>186.0</ele><time>2026-04-11T07:58:24.468Z</time></trkpt><trkpt lat="42.7516763" lon="12.1231073"><ele>186.0</ele><time>2026-04-11T07:58:25.473Z</time></trkpt><trkpt lat="42.7518274" lon="12.1230572"><ele>186.0</ele><time>2026-04-11T07:58:26.475Z</time></trkpt><trkpt lat="42.7520005" lon="12.1230535"><ele>184.66666666666666</ele><time>2026-04-11T07:58:27.448Z</time></trkpt><trkpt lat="42.7521381" lon="12.1230963"><ele>183.33333333333331</ele><time>2026-04-11T07:58:28.467Z</time></trkpt><trkpt lat="42.7523079" lon="12.1232253"><ele>182.0</ele><time>2026-04-11T07:58:29.446Z</time></trkpt><trkpt lat="42.7524335" lon="12.1233474"><ele>181.66666666666666</ele><time>2026-04-11T07:58:30.459Z</time></trkpt><trkpt lat="42.7525611" lon="12.1234233"><ele>181.33333333333334</ele><time>2026-04-11T07:58:31.449Z</time></trkpt><trkpt lat="42.7527342" lon="12.1234615"><ele>181.0</ele><time>2026-04-11T07:58:32.435Z</time></trkpt><trkpt lat="42.7529138" lon="12.1234724"><ele>180.0</ele><time>2026-04-11T07:58:33.445Z</time></trkpt><trkpt lat="42.7530868" lon="12.1233767"><ele>179.0</ele><time>2026-04-11T07:58:34.427Z</time></trkpt><trkpt lat="42.7532409" lon="12.1232983"><ele>178.0</ele><time>2026-04-11T07:58:35.428Z</time></trkpt><trkpt lat="42.7534088" lon="12.1232062"><ele>173.0</ele><time>2026-04-11T07:58:36.432Z</time></trkpt><trkpt lat="42.7535547" lon="12.123094"><ele>168.0</ele><time>2026-04-11T07:58:37.437Z</time></trkpt><trkpt lat="42.753705" lon="12.1229224"><ele>163.0</ele><time>2026-04-11T07:58:38.436Z</time></trkpt><trkpt lat="42.7538364" lon="12.122767"><ele>163.0</ele><time>2026-04-11T07:58:39.444Z</time></trkpt><trkpt lat="42.7539485" lon="12.1225701"><ele>163.0</ele><time>2026-04-11T07:58:40.451Z</time></trkpt><trkpt lat="42.7540123" lon="12.1223602"><ele>163.0</ele><time>2026-04-11T07:58:41.456Z</time></trkpt><trkpt lat="42.7540831" lon="12.122177"><ele>162.25</ele><time>2026-04-11T07:58:42.453Z</time></trkpt><trkpt lat="42.7541435" lon="12.1219981"><ele>161.5</ele><time>2026-04-11T07:58:43.459Z</time></trkpt><trkpt lat="42.754158" lon="12.1217831"><ele>160.75</ele><time>2026-04-11T07:58:44.456Z</time></trkpt><trkpt lat="42.7541396" lon="12.1216021"><ele>160.0</ele><time>2026-04-11T07:58:45.45Z</time></trkpt><trkpt lat="42.75405" lon="12.121417"><ele>160.0</ele><time>2026-04-11T07:58:46.445Z</time></trkpt><trkpt lat="42.7539246" lon="12.1213292"><ele>160.0</ele><time>2026-04-11T07:58:47.437Z</time></trkpt><trkpt lat="42.7537751" lon="12.121289"><ele>160.0</ele><time>2026-04-11T07:58:48.44Z</time></trkpt><trkpt lat="42.7536117" lon="12.1212848"><ele>161.0</ele><time>2026-04-11T07:58:49.447Z</time></trkpt><trkpt lat="42.7534989" lon="12.1212342"><ele>162.0</ele><time>2026-04-11T07:58:50.44Z</time></trkpt><trkpt lat="42.7533897" lon="12.1211593"><ele>163.0</ele><time>2026-04-11T07:58:51.437Z</time></trkpt><trkpt lat="42.7533176" lon="12.1210418"><ele>164.0</ele><time>2026-04-11T07:58:52.439Z</time></trkpt><trkpt lat="42.7532863" lon="12.1209102"><ele>164.0</ele><time>2026-04-11T07:58:53.445Z</time></trkpt><trkpt lat="42.7532951" lon="12.1207885"><ele>164.0</ele><time>2026-04-11T07:58:54.439Z</time></trkpt><trkpt lat="42.7533331" lon="12.120686"><ele>164.0</ele><time>2026-04-11T07:58:55.438Z</time></trkpt><trkpt lat="42.7533825" lon="12.1205752"><ele>164.0</ele><time>2026-04-11T07:58:56.428Z</time></trkpt><trkpt lat="42.7534469" lon="12.1204858"><ele>164.0</ele><time>2026-04-11T07:58:57.434Z</time></trkpt><trkpt lat="42.7535584" lon="12.1204585"><ele>168.33333333333331</ele><time>2026-04-11T07:58:58.416Z</time></trkpt><trkpt lat="42.7536862" lon="12.1204668"><ele>172.66666666666666</ele><time>2026-04-11T07:58:59.42Z</time></trkpt><trkpt lat="42.7538384" lon="12.1205035"><ele>177.0</ele><time>2026-04-11T07:59:00.42Z</time></trkpt><trkpt lat="42.7540102" lon="12.1205647"><ele>177.0</ele><time>2026-04-11T07:59:01.43Z</time></trkpt><trkpt lat="42.7542053" lon="12.1206301"><ele>177.0</ele><time>2026-04-11T07:59:02.42Z</time></trkpt><trkpt lat="42.7544025" lon="12.1206817"><ele>177.0</ele><time>2026-04-11T07:59:03.432Z</time></trkpt><trkpt lat="42.7545919" lon="12.1207018"><ele>173.66666666666666</ele><time>2026-04-11T07:59:04.442Z</time></trkpt><trkpt lat="42.7547867" lon="12.1206965"><ele>170.33333333333331</ele><time>2026-04-11T07:59:05.446Z</time></trkpt><trkpt lat="42.7549658" lon="12.1206196"><ele>167.0</ele><time>2026-04-11T07:59:06.442Z</time></trkpt><trkpt lat="42.7551423" lon="12.1204688"><ele>162.33333333333331</ele><time>2026-04-11T07:59:07.455Z</time></trkpt><trkpt lat="42.7552633" lon="12.1202521"><ele>157.66666666666666</ele><time>2026-04-11T07:59:08.45Z</time></trkpt><trkpt lat="42.7553675" lon="12.1200285"><ele>153.0</ele><time>2026-04-11T07:59:09.451Z</time></trkpt><trkpt lat="42.755503" lon="12.1198294"><ele>153.0</ele><time>2026-04-11T07:59:10.447Z</time></trkpt><trkpt lat="42.7556207" lon="12.1196211"><ele>153.0</ele><time>2026-04-11T07:59:11.447Z</time></trkpt><trkpt lat="42.7557102" lon="12.1194213"><ele>153.0</ele><time>2026-04-11T07:59:12.46Z</time></trkpt><trkpt lat="42.755827" lon="12.1192156"><ele>152.0</ele><time>2026-04-11T07:59:13.458Z</time></trkpt><trkpt lat="42.7559426" lon="12.1190371"><ele>151.0</ele><time>2026-04-11T07:59:14.465Z</time></trkpt><trkpt lat="42.7560497" lon="12.1188415"><ele>150.0</ele><time>2026-04-11T07:59:15.461Z</time></trkpt><trkpt lat="42.7561394" lon="12.1186853"><ele>150.0</ele><time>2026-04-11T07:59:16.472Z</time></trkpt><trkpt lat="42.7562445" lon="12.1185074"><ele>150.0</ele><time>2026-04-11T07:59:17.463Z</time></trkpt><trkpt lat="42.7563334" lon="12.118328"><ele>150.0</ele><time>2026-04-11T07:59:18.473Z</time></trkpt><trkpt lat="42.7564253" lon="12.1181562"><ele>151.66666666666666</ele><time>2026-04-11T07:59:19.468Z</time></trkpt><trkpt lat="42.7565481" lon="12.1179969"><ele>153.33333333333331</ele><time>2026-04-11T07:59:20.473Z</time></trkpt><trkpt lat="42.7566565" lon="12.1178482"><ele>155.0</ele><time>2026-04-11T07:59:21.49Z</time></trkpt><trkpt lat="42.7567836" lon="12.1176866"><ele>154.33333333333331</ele><time>2026-04-11T07:59:22.481Z</time></trkpt><trkpt lat="42.7569013" lon="12.1175472"><ele>153.66666666666666</ele><time>2026-04-11T07:59:23.479Z</time></trkpt><trkpt lat="42.7570261" lon="12.1173958"><ele>153.0</ele><time>2026-04-11T07:59:24.482Z</time></trkpt><trkpt lat="42.7571669" lon="12.1172553"><ele>152.0</ele><time>2026-04-11T07:59:25.488Z</time></trkpt><trkpt lat="42.7573116" lon="12.1171202"><ele>151.0</ele><time>2026-04-11T07:59:26.486Z</time></trkpt><trkpt lat="42.7574582" lon="12.1170035"><ele>150.0</ele><time>2026-04-11T07:59:27.501Z</time></trkpt><trkpt lat="42.7576017" lon="12.1168783"><ele>149.0</ele><time>2026-04-11T07:59:28.572Z</time></trkpt><trkpt lat="42.7577438" lon="12.116743"><ele>148.0</ele><time>2026-04-11T07:59:29.569Z</time></trkpt><trkpt lat="42.7578813" lon="12.1166071"><ele>147.0</ele><time>2026-04-11T07:59:30.571Z</time></trkpt><trkpt lat="42.7580242" lon="12.1164778"><ele>147.0</ele><time>2026-04-11T07:59:31.569Z</time></trkpt><trkpt lat="42.7581637" lon="12.1163498"><ele>147.0</ele><time>2026-04-11T07:59:32.579Z</time></trkpt><trkpt lat="42.7583023" lon="12.1162227"><ele>147.0</ele><time>2026-04-11T07:59:33.568Z</time></trkpt><trkpt lat="42.7584435" lon="12.1160938"><ele>147.0</ele><time>2026-04-11T07:59:34.576Z</time></trkpt><trkpt lat="42.7585849" lon="12.1159626"><ele>147.0</ele><time>2026-04-11T07:59:35.569Z</time></trkpt><trkpt lat="42.7587262" lon="12.1158357"><ele>147.0</ele><time>2026-04-11T07:59:36.568Z</time></trkpt><trkpt lat="42.7588645" lon="12.1157083"><ele>147.0</ele><time>2026-04-11T07:59:37.576Z</time></trkpt><trkpt lat="42.759003" lon="12.115577"><ele>147.0</ele><time>2026-04-11T07:59:38.568Z</time></trkpt><trkpt lat="42.7591462" lon="12.1154304"><ele>147.0</ele><time>2026-04-11T07:59:39.573Z</time></trkpt><trkpt lat="42.7592905" lon="12.1152992"><ele>147.33333333333334</ele><time>2026-04-11T07:59:40.568Z</time></trkpt><trkpt lat="42.7594345" lon="12.115171"><ele>147.66666666666669</ele><time>2026-04-11T07:59:41.573Z</time></trkpt><trkpt lat="42.7595724" lon="12.1150356"><ele>148.0</ele><time>2026-04-11T07:59:42.571Z</time></trkpt><trkpt lat="42.7597155" lon="12.1149014"><ele>148.0</ele><time>2026-04-11T07:59:43.574Z</time></trkpt><trkpt lat="42.7598606" lon="12.1147643"><ele>148.0</ele><time>2026-04-11T07:59:44.576Z</time></trkpt><trkpt lat="42.7600107" lon="12.1146251"><ele>148.0</ele><time>2026-04-11T07:59:45.572Z</time></trkpt><trkpt lat="42.7601649" lon="12.1144859"><ele>147.0</ele><time>2026-04-11T07:59:46.568Z</time></trkpt><trkpt lat="42.7603144" lon="12.1143449"><ele>146.0</ele><time>2026-04-11T07:59:47.578Z</time></trkpt><trkpt lat="42.7604662" lon="12.1142091"><ele>145.0</ele><time>2026-04-11T07:59:48.576Z</time></trkpt><trkpt lat="42.7606171" lon="12.1140718"><ele>145.66666666666669</ele><time>2026-04-11T07:59:49.578Z</time></trkpt><trkpt lat="42.7607671" lon="12.1139373"><ele>146.33333333333334</ele><time>2026-04-11T07:59:50.576Z</time></trkpt><trkpt lat="42.7609209" lon="12.1138063"><ele>147.0</ele><time>2026-04-11T07:59:51.578Z</time></trkpt><trkpt lat="42.7610742" lon="12.1136788"><ele>147.0</ele><time>2026-04-11T07:59:52.576Z</time></trkpt><trkpt lat="42.7612243" lon="12.1135569"><ele>147.0</ele><time>2026-04-11T07:59:53.572Z</time></trkpt><trkpt lat="42.7613756" lon="12.1134451"><ele>147.0</ele><time>2026-04-11T07:59:54.576Z</time></trkpt><trkpt lat="42.7615295" lon="12.1133355"><ele>147.0</ele><time>2026-04-11T07:59:55.574Z</time></trkpt><trkpt lat="42.7616863" lon="12.1132252"><ele>147.0</ele><time>2026-04-11T07:59:56.575Z</time></trkpt><trkpt lat="42.7618432" lon="12.1131168"><ele>147.0</ele><time>2026-04-11T07:59:57.571Z</time></trkpt><trkpt lat="42.762001" lon="12.1130097"><ele>148.0</ele><time>2026-04-11T07:59:58.572Z</time></trkpt><trkpt lat="42.7621584" lon="12.1129009"><ele>149.0</ele><time>2026-04-11T07:59:59.574Z</time></trkpt><trkpt lat="42.7623141" lon="12.112798"><ele>150.0</ele><time>2026-04-11T08:00:00.573Z</time></trkpt><trkpt lat="42.7624728" lon="12.1127062"><ele>150.0</ele><time>2026-04-11T08:00:01.57Z</time></trkpt><trkpt lat="42.7626351" lon="12.1126267"><ele>150.0</ele><time>2026-04-11T08:00:02.584Z</time></trkpt><trkpt lat="42.7627969" lon="12.1125525"><ele>150.0</ele><time>2026-04-11T08:00:03.585Z</time></trkpt><trkpt lat="42.7629532" lon="12.1124776"><ele>149.66666666666666</ele><time>2026-04-11T08:00:04.571Z</time></trkpt><trkpt lat="42.7631103" lon="12.1123984"><ele>149.33333333333331</ele><time>2026-04-11T08:00:05.574Z</time></trkpt><trkpt lat="42.7632689" lon="12.1123203"><ele>149.0</ele><time>2026-04-11T08:00:06.57Z</time></trkpt><trkpt lat="42.7634294" lon="12.1122409"><ele>149.0</ele><time>2026-04-11T08:00:07.569Z</time></trkpt><trkpt lat="42.76359" lon="12.1121648"><ele>149.0</ele><time>2026-04-11T08:00:08.567Z</time></trkpt><trkpt lat="42.7637508" lon="12.1120923"><ele>149.0</ele><time>2026-04-11T08:00:09.566Z</time></trkpt><trkpt lat="42.7639106" lon="12.1120188"><ele>149.0</ele><time>2026-04-11T08:00:10.573Z</time></trkpt><trkpt lat="42.7640728" lon="12.111944"><ele>149.0</ele><time>2026-04-11T08:00:11.573Z</time></trkpt><trkpt lat="42.7642375" lon="12.1118726"><ele>149.0</ele><time>2026-04-11T08:00:12.575Z</time></trkpt><trkpt lat="42.7644065" lon="12.1118068"><ele>148.66666666666666</ele><time>2026-04-11T08:00:13.577Z</time></trkpt><trkpt lat="42.7645785" lon="12.111749"><ele>148.33333333333334</ele><time>2026-04-11T08:00:14.582Z</time></trkpt><trkpt lat="42.7647505" lon="12.1117024"><ele>148.0</ele><time>2026-04-11T08:00:15.572Z</time></trkpt><trkpt lat="42.7649251" lon="12.1116679"><ele>148.0</ele><time>2026-04-11T08:00:16.572Z</time></trkpt><trkpt lat="42.765096" lon="12.1116409"><ele>148.0</ele><time>2026-04-11T08:00:17.576Z</time></trkpt><trkpt lat="42.7652678" lon="12.1116197"><ele>148.0</ele><time>2026-04-11T08:00:18.573Z</time></trkpt><trkpt lat="42.765438" lon="12.1116"><ele>148.33333333333334</ele><time>2026-04-11T08:00:19.573Z</time></trkpt><trkpt lat="42.7656107" lon="12.1115836"><ele>148.66666666666666</ele><time>2026-04-11T08:00:20.576Z</time></trkpt><trkpt lat="42.7657914" lon="12.1115717"><ele>149.0</ele><time>2026-04-11T08:00:21.574Z</time></trkpt><trkpt lat="42.7659754" lon="12.111561"><ele>149.66666666666666</ele><time>2026-04-11T08:00:22.58Z</time></trkpt><trkpt lat="42.7661521" lon="12.1115521"><ele>150.33333333333334</ele><time>2026-04-11T08:00:23.571Z</time></trkpt><trkpt lat="42.7663245" lon="12.1115449"><ele>151.0</ele><time>2026-04-11T08:00:24.571Z</time></trkpt><trkpt lat="42.766491" lon="12.111543"><ele>151.0</ele><time>2026-04-11T08:00:25.57Z</time></trkpt><trkpt lat="42.7666481" lon="12.111543"><ele>151.0</ele><time>2026-04-11T08:00:26.578Z</time></trkpt><trkpt lat="42.7667951" lon="12.1115446"><ele>151.0</ele><time>2026-04-11T08:00:27.571Z</time></trkpt><trkpt lat="42.766924" lon="12.1115463"><ele>151.0</ele><time>2026-04-11T08:00:28.568Z</time></trkpt><trkpt lat="42.7670316" lon="12.1115549"><ele>150.8</ele><time>2026-04-11T08:00:29.568Z</time></trkpt><trkpt lat="42.7671051" lon="12.111557"><ele>150.6</ele><time>2026-04-11T08:00:30.558Z</time></trkpt><trkpt lat="42.7671935" lon="12.111493"><ele>150.4</ele><time>2026-04-11T08:00:32.572Z</time></trkpt><trkpt lat="42.7672158" lon="12.1113598"><ele>150.2</ele><time>2026-04-11T08:00:34.475Z</time></trkpt><trkpt lat="42.7672258" lon="12.1112399"><ele>150.0</ele><time>2026-04-11T08:00:35.452Z</time></trkpt><trkpt lat="42.7672467" lon="12.1111139"><ele>150.0</ele><time>2026-04-11T08:00:36.448Z</time></trkpt><trkpt lat="42.7672536" lon="12.110961"><ele>150.0</ele><time>2026-04-11T08:00:37.466Z</time></trkpt><trkpt lat="42.7672664" lon="12.1107935"><ele>150.0</ele><time>2026-04-11T08:00:38.455Z</time></trkpt><trkpt lat="42.7672599" lon="12.1105878"><ele>150.0</ele><time>2026-04-11T08:00:39.453Z</time></trkpt><trkpt lat="42.7672369" lon="12.1103951"><ele>152.66666666666666</ele><time>2026-04-11T08:00:40.454Z</time></trkpt><trkpt lat="42.7671972" lon="12.1101861"><ele>155.33333333333331</ele><time>2026-04-11T08:00:41.454Z</time></trkpt><trkpt lat="42.7671413" lon="12.1099693"><ele>158.0</ele><time>2026-04-11T08:00:42.468Z</time></trkpt><trkpt lat="42.7671055" lon="12.1097741"><ele>163.0</ele><time>2026-04-11T08:00:43.472Z</time></trkpt><trkpt lat="42.7670574" lon="12.1095569"><ele>168.0</ele><time>2026-04-11T08:00:44.47Z</time></trkpt><trkpt lat="42.7670377" lon="12.1093672"><ele>173.0</ele><time>2026-04-11T08:00:45.464Z</time></trkpt><trkpt lat="42.7670161" lon="12.1091725"><ele>174.60000000000002</ele><time>2026-04-11T08:00:46.46Z</time></trkpt><trkpt lat="42.7670136" lon="12.1090099"><ele>176.20000000000002</ele><time>2026-04-11T08:00:47.453Z</time></trkpt><trkpt lat="42.7670179" lon="12.1088602"><ele>177.8</ele><time>2026-04-11T08:00:48.463Z</time></trkpt><trkpt lat="42.7670153" lon="12.1087382"><ele>179.4</ele><time>2026-04-11T08:00:49.47Z</time></trkpt><trkpt lat="42.7670032" lon="12.1086273"><ele>181.0</ele><time>2026-04-11T08:00:50.46Z</time></trkpt><trkpt lat="42.766996" lon="12.1084878"><ele>181.0</ele><time>2026-04-11T08:00:51.464Z</time></trkpt><trkpt lat="42.7669956" lon="12.1083386"><ele>181.0</ele><time>2026-04-11T08:00:52.469Z</time></trkpt><trkpt lat="42.7670308" lon="12.1081915"><ele>181.0</ele><time>2026-04-11T08:00:53.466Z</time></trkpt><trkpt lat="42.7670429" lon="12.1080311"><ele>181.0</ele><time>2026-04-11T08:00:54.478Z</time></trkpt><trkpt lat="42.7670396" lon="12.1078568"><ele>181.75</ele><time>2026-04-11T08:00:55.467Z</time></trkpt><trkpt lat="42.7670303" lon="12.1076813"><ele>182.5</ele><time>2026-04-11T08:00:56.45Z</time></trkpt><trkpt lat="42.7669955" lon="12.1074952"><ele>183.25</ele><time>2026-04-11T08:00:57.459Z</time></trkpt><trkpt lat="42.7669302" lon="12.1073286"><ele>184.0</ele><time>2026-04-11T08:00:58.469Z</time></trkpt><trkpt lat="42.7668363" lon="12.1071528"><ele>184.0</ele><time>2026-04-11T08:00:59.467Z</time></trkpt><trkpt lat="42.7667336" lon="12.1069824"><ele>184.0</ele><time>2026-04-11T08:01:00.479Z</time></trkpt><trkpt lat="42.7666243" lon="12.1068165"><ele>184.0</ele><time>2026-04-11T08:01:01.475Z</time></trkpt><trkpt lat="42.7665027" lon="12.1066444"><ele>183.5</ele><time>2026-04-11T08:01:02.474Z</time></trkpt><trkpt lat="42.7664174" lon="12.1064821"><ele>183.0</ele><time>2026-04-11T08:01:03.477Z</time></trkpt><trkpt lat="42.7663275" lon="12.1063114"><ele>182.5</ele><time>2026-04-11T08:01:04.462Z</time></trkpt><trkpt lat="42.7662721" lon="12.1061677"><ele>182.0</ele><time>2026-04-11T08:01:05.482Z</time></trkpt><trkpt lat="42.7662362" lon="12.1060208"><ele>182.0</ele><time>2026-04-11T08:01:06.476Z</time></trkpt><trkpt lat="42.7661769" lon="12.1058776"><ele>182.0</ele><time>2026-04-11T08:01:07.477Z</time></trkpt><trkpt lat="42.7661434" lon="12.1057327"><ele>182.0</ele><time>2026-04-11T08:01:08.477Z</time></trkpt><trkpt lat="42.7660799" lon="12.105554"><ele>182.0</ele><time>2026-04-11T08:01:09.47Z</time></trkpt><trkpt lat="42.766019" lon="12.1053863"><ele>186.25</ele><time>2026-04-11T08:01:10.475Z</time></trkpt><trkpt lat="42.7659703" lon="12.1052233"><ele>190.5</ele><time>2026-04-11T08:01:11.473Z</time></trkpt><trkpt lat="42.765931" lon="12.105058"><ele>194.75</ele><time>2026-04-11T08:01:12.484Z</time></trkpt><trkpt lat="42.7658973" lon="12.1049014"><ele>199.0</ele><time>2026-04-11T08:01:13.471Z</time></trkpt><trkpt lat="42.7658778" lon="12.1047417"><ele>196.5</ele><time>2026-04-11T08:01:14.462Z</time></trkpt><trkpt lat="42.7658949" lon="12.1045765"><ele>194.0</ele><time>2026-04-11T08:01:15.468Z</time></trkpt><trkpt lat="42.765942" lon="12.1044165"><ele>191.5</ele><time>2026-04-11T08:01:16.454Z</time></trkpt><trkpt lat="42.7659884" lon="12.1042634"><ele>189.0</ele><time>2026-04-11T08:01:17.45Z</time></trkpt><trkpt lat="42.7660615" lon="12.1041113"><ele>190.0</ele><time>2026-04-11T08:01:18.456Z</time></trkpt><trkpt lat="42.7661319" lon="12.1039545"><ele>191.0</ele><time>2026-04-11T08:01:19.451Z</time></trkpt><trkpt lat="42.766193" lon="12.103797"><ele>192.0</ele><time>2026-04-11T08:01:20.458Z</time></trkpt><trkpt lat="42.7662352" lon="12.1036238"><ele>193.0</ele><time>2026-04-11T08:01:21.457Z</time></trkpt><trkpt lat="42.7662664" lon="12.1034238"><ele>194.0</ele><time>2026-04-11T08:01:22.45Z</time></trkpt><trkpt lat="42.7662792" lon="12.1032292"><ele>195.0</ele><time>2026-04-11T08:01:23.453Z</time></trkpt><trkpt lat="42.7663011" lon="12.1030469"><ele>196.0</ele><time>2026-04-11T08:01:24.461Z</time></trkpt><trkpt lat="42.7662668" lon="12.1028472"><ele>197.0</ele><time>2026-04-11T08:01:25.459Z</time></trkpt><trkpt lat="42.766261" lon="12.1026421"><ele>197.0</ele><time>2026-04-11T08:01:26.456Z</time></trkpt><trkpt lat="42.766241" lon="12.1024505"><ele>197.0</ele><time>2026-04-11T08:01:27.465Z</time></trkpt><trkpt lat="42.7662085" lon="12.1022622"><ele>197.0</ele><time>2026-04-11T08:01:28.455Z</time></trkpt><trkpt lat="42.7661626" lon="12.1021203"><ele>197.0</ele><time>2026-04-11T08:01:29.459Z</time></trkpt><trkpt lat="42.7661408" lon="12.101964"><ele>198.2</ele><time>2026-04-11T08:01:30.458Z</time></trkpt><trkpt lat="42.7661426" lon="12.1018337"><ele>199.39999999999998</ele><time>2026-04-11T08:01:31.447Z</time></trkpt><trkpt lat="42.766105" lon="12.1016991"><ele>200.60000000000002</ele><time>2026-04-11T08:01:32.448Z</time></trkpt><trkpt lat="42.7660908" lon="12.1015235"><ele>201.8</ele><time>2026-04-11T08:01:33.445Z</time></trkpt><trkpt lat="42.7661148" lon="12.1013779"><ele>203.0</ele><time>2026-04-11T08:01:34.444Z</time></trkpt><trkpt lat="42.7661232" lon="12.1012289"><ele>203.2</ele><time>2026-04-11T08:01:35.444Z</time></trkpt><trkpt lat="42.7661417" lon="12.1010982"><ele>203.4</ele><time>2026-04-11T08:01:36.461Z</time></trkpt><trkpt lat="42.7661455" lon="12.1009788"><ele>203.6</ele><time>2026-04-11T08:01:37.442Z</time></trkpt><trkpt lat="42.7661092" lon="12.1008465"><ele>203.79999999999998</ele><time>2026-04-11T08:01:38.441Z</time></trkpt><trkpt lat="42.7660708" lon="12.1006703"><ele>204.0</ele><time>2026-04-11T08:01:39.439Z</time></trkpt><trkpt lat="42.7660321" lon="12.1004969"><ele>208.66666666666669</ele><time>2026-04-11T08:01:40.448Z</time></trkpt><trkpt lat="42.7659924" lon="12.1002972"><ele>213.33333333333334</ele><time>2026-04-11T08:01:41.451Z</time></trkpt><trkpt lat="42.7659586" lon="12.1000782"><ele>218.0</ele><time>2026-04-11T08:01:42.443Z</time></trkpt><trkpt lat="42.7658847" lon="12.0998717"><ele>218.0</ele><time>2026-04-11T08:01:43.442Z</time></trkpt><trkpt lat="42.7657647" lon="12.0996853"><ele>218.0</ele><time>2026-04-11T08:01:44.437Z</time></trkpt><trkpt lat="42.7656695" lon="12.099511"><ele>218.0</ele><time>2026-04-11T08:01:45.452Z</time></trkpt><trkpt lat="42.7655834" lon="12.0993472"><ele>218.0</ele><time>2026-04-11T08:01:46.441Z</time></trkpt><trkpt lat="42.765521" lon="12.0991858"><ele>218.0</ele><time>2026-04-11T08:01:47.438Z</time></trkpt><trkpt lat="42.7654468" lon="12.0989967"><ele>218.0</ele><time>2026-04-11T08:01:48.439Z</time></trkpt><trkpt lat="42.7653882" lon="12.0988008"><ele>218.0</ele><time>2026-04-11T08:01:49.441Z</time></trkpt><trkpt lat="42.7653527" lon="12.0986121"><ele>217.75</ele><time>2026-04-11T08:01:50.444Z</time></trkpt><trkpt lat="42.7653104" lon="12.0984532"><ele>217.5</ele><time>2026-04-11T08:01:51.451Z</time></trkpt><trkpt lat="42.7652427" lon="12.0982798"><ele>217.25</ele><time>2026-04-11T08:01:52.447Z</time></trkpt><trkpt lat="42.765206" lon="12.0981014"><ele>217.0</ele><time>2026-04-11T08:01:53.452Z</time></trkpt><trkpt lat="42.7651317" lon="12.0979186"><ele>220.0</ele><time>2026-04-11T08:01:54.458Z</time></trkpt><trkpt lat="42.7650864" lon="12.0977427"><ele>223.0</ele><time>2026-04-11T08:01:55.455Z</time></trkpt><trkpt lat="42.7650399" lon="12.0975476"><ele>226.0</ele><time>2026-04-11T08:01:56.469Z</time></trkpt><trkpt lat="42.7650087" lon="12.0973716"><ele>229.0</ele><time>2026-04-11T08:01:57.472Z</time></trkpt><trkpt lat="42.7649844" lon="12.0971942"><ele>230.25</ele><time>2026-04-11T08:01:58.485Z</time></trkpt><trkpt lat="42.7649415" lon="12.0970214"><ele>231.5</ele><time>2026-04-11T08:01:59.483Z</time></trkpt><trkpt lat="42.7648937" lon="12.0968283"><ele>232.75</ele><time>2026-04-11T08:02:00.487Z</time></trkpt><trkpt lat="42.7648504" lon="12.0966341"><ele>234.0</ele><time>2026-04-11T08:02:01.481Z</time></trkpt><trkpt lat="42.7647947" lon="12.0964417"><ele>235.75</ele><time>2026-04-11T08:02:02.481Z</time></trkpt><trkpt lat="42.7647348" lon="12.0962637"><ele>237.5</ele><time>2026-04-11T08:02:03.481Z</time></trkpt><trkpt lat="42.7646574" lon="12.0960825"><ele>239.25</ele><time>2026-04-11T08:02:04.484Z</time></trkpt><trkpt lat="42.7645874" lon="12.0959507"><ele>241.0</ele><time>2026-04-11T08:02:05.474Z</time></trkpt><trkpt lat="42.7644966" lon="12.0958106"><ele>240.25</ele><time>2026-04-11T08:02:06.49Z</time></trkpt><trkpt lat="42.764432" lon="12.0956804"><ele>239.5</ele><time>2026-04-11T08:02:07.48Z</time></trkpt><trkpt lat="42.764359" lon="12.0955024"><ele>238.75</ele><time>2026-04-11T08:02:08.479Z</time></trkpt><trkpt lat="42.7642858" lon="12.0953286"><ele>238.0</ele><time>2026-04-11T08:02:09.479Z</time></trkpt><trkpt lat="42.7642075" lon="12.0951616"><ele>236.5</ele><time>2026-04-11T08:02:10.473Z</time></trkpt><trkpt lat="42.7641176" lon="12.0949706"><ele>235.0</ele><time>2026-04-11T08:02:11.465Z</time></trkpt><trkpt lat="42.7640506" lon="12.0947989"><ele>233.5</ele><time>2026-04-11T08:02:12.478Z</time></trkpt><trkpt lat="42.7639686" lon="12.0946543"><ele>232.0</ele><time>2026-04-11T08:02:13.469Z</time></trkpt><trkpt lat="42.763904" lon="12.0944988"><ele>230.25</ele><time>2026-04-11T08:02:14.481Z</time></trkpt><trkpt lat="42.7638304" lon="12.0943127"><ele>228.5</ele><time>2026-04-11T08:02:15.477Z</time></trkpt><trkpt lat="42.7637673" lon="12.0941606"><ele>226.75</ele><time>2026-04-11T08:02:16.487Z</time></trkpt><trkpt lat="42.7637024" lon="12.0939908"><ele>225.0</ele><time>2026-04-11T08:02:17.49Z</time></trkpt><trkpt lat="42.7636584" lon="12.0938172"><ele>221.0</ele><time>2026-04-11T08:02:18.485Z</time></trkpt><trkpt lat="42.7636311" lon="12.0936322"><ele>217.0</ele><time>2026-04-11T08:02:19.491Z</time></trkpt><trkpt lat="42.7636042" lon="12.093441"><ele>213.0</ele><time>2026-04-11T08:02:20.479Z</time></trkpt><trkpt lat="42.7635946" lon="12.0932468"><ele>209.0</ele><time>2026-04-11T08:02:21.473Z</time></trkpt><trkpt lat="42.7635714" lon="12.0930535"><ele>207.5</ele><time>2026-04-11T08:02:22.483Z</time></trkpt><trkpt lat="42.7635477" lon="12.0928733"><ele>206.0</ele><time>2026-04-11T08:02:23.477Z</time></trkpt><trkpt lat="42.7635118" lon="12.0926856"><ele>204.5</ele><time>2026-04-11T08:02:24.468Z</time></trkpt><trkpt lat="42.7634817" lon="12.0925105"><ele>203.0</ele><time>2026-04-11T08:02:25.476Z</time></trkpt><trkpt lat="42.7634462" lon="12.0923366"><ele>200.75</ele><time>2026-04-11T08:02:26.474Z</time></trkpt><trkpt lat="42.7634016" lon="12.0921495"><ele>198.5</ele><time>2026-04-11T08:02:27.469Z</time></trkpt><trkpt lat="42.7633653" lon="12.0919855"><ele>196.25</ele><time>2026-04-11T08:02:28.471Z</time></trkpt><trkpt lat="42.7633334" lon="12.0918183"><ele>194.0</ele><time>2026-04-11T08:02:29.468Z</time></trkpt><trkpt lat="42.7633073" lon="12.0916498"><ele>190.66666666666669</ele><time>2026-04-11T08:02:30.463Z</time></trkpt><trkpt lat="42.7632714" lon="12.0914754"><ele>187.33333333333334</ele><time>2026-04-11T08:02:31.456Z</time></trkpt><trkpt lat="42.7632143" lon="12.0912611"><ele>184.0</ele><time>2026-04-11T08:02:32.454Z</time></trkpt><trkpt lat="42.7631322" lon="12.0910506"><ele>184.0</ele><time>2026-04-11T08:02:33.445Z</time></trkpt><trkpt lat="42.7630539" lon="12.0908307"><ele>184.0</ele><time>2026-04-11T08:02:34.445Z</time></trkpt><trkpt lat="42.7629894" lon="12.0906319"><ele>184.0</ele><time>2026-04-11T08:02:35.438Z</time></trkpt><trkpt lat="42.7629346" lon="12.0904444"><ele>180.5</ele><time>2026-04-11T08:02:36.449Z</time></trkpt><trkpt lat="42.7628812" lon="12.0902475"><ele>177.0</ele><time>2026-04-11T08:02:37.463Z</time></trkpt><trkpt lat="42.7628583" lon="12.0900479"><ele>173.5</ele><time>2026-04-11T08:02:38.438Z</time></trkpt><trkpt lat="42.7628196" lon="12.0899059"><ele>170.0</ele><time>2026-04-11T08:02:39.449Z</time></trkpt><trkpt lat="42.7627633" lon="12.0897215"><ele>169.0</ele><time>2026-04-11T08:02:40.447Z</time></trkpt><trkpt lat="42.7626695" lon="12.0895691"><ele>168.0</ele><time>2026-04-11T08:02:41.445Z</time></trkpt><trkpt lat="42.7625946" lon="12.0894378"><ele>167.0</ele><time>2026-04-11T08:02:42.447Z</time></trkpt><trkpt lat="42.7624441" lon="12.0893411"><ele>166.0</ele><time>2026-04-11T08:02:43.447Z</time></trkpt><trkpt lat="42.7622995" lon="12.0893831"><ele>166.0</ele><time>2026-04-11T08:02:44.432Z</time></trkpt><trkpt lat="42.7621936" lon="12.0893973"><ele>166.0</ele><time>2026-04-11T08:02:45.44Z</time></trkpt><trkpt lat="42.7620515" lon="12.0894206"><ele>166.0</ele><time>2026-04-11T08:02:46.449Z</time></trkpt><trkpt lat="42.7619144" lon="12.089416"><ele>166.0</ele><time>2026-04-11T08:02:47.453Z</time></trkpt><trkpt lat="42.7617895" lon="12.0894059"><ele>164.0</ele><time>2026-04-11T08:02:48.477Z</time></trkpt><trkpt lat="42.76165" lon="12.0893731"><ele>162.0</ele><time>2026-04-11T08:02:49.468Z</time></trkpt><trkpt lat="42.7615689" lon="12.0894303"><ele>160.0</ele><time>2026-04-11T08:02:50.471Z</time></trkpt><trkpt lat="42.7614588" lon="12.0895454"><ele>158.0</ele><time>2026-04-11T08:02:51.47Z</time></trkpt><trkpt lat="42.7613465" lon="12.089641"><ele>158.0</ele><time>2026-04-11T08:02:52.47Z</time></trkpt><trkpt lat="42.761251" lon="12.089766"><ele>158.0</ele><time>2026-04-11T08:02:53.466Z</time></trkpt><trkpt lat="42.7611448" lon="12.0898889"><ele>158.0</ele><time>2026-04-11T08:02:54.471Z</time></trkpt><trkpt lat="42.76103" lon="12.089964"><ele>158.0</ele><time>2026-04-11T08:02:55.467Z</time></trkpt><trkpt lat="42.7609216" lon="12.0900372"><ele>156.75</ele><time>2026-04-11T08:02:56.47Z</time></trkpt><trkpt lat="42.7608119" lon="12.0900636"><ele>155.5</ele><time>2026-04-11T08:02:57.47Z</time></trkpt><trkpt lat="42.7607022" lon="12.0900341"><ele>154.25</ele><time>2026-04-11T08:02:58.465Z</time></trkpt><trkpt lat="42.7606026" lon="12.0899599"><ele>153.0</ele><time>2026-04-11T08:02:59.483Z</time></trkpt><trkpt lat="42.7605254" lon="12.0898233"><ele>151.0</ele><time>2026-04-11T08:03:00.487Z</time></trkpt><trkpt lat="42.7604666" lon="12.0896198"><ele>149.0</ele><time>2026-04-11T08:03:01.471Z</time></trkpt><trkpt lat="42.7604105" lon="12.0894298"><ele>147.0</ele><time>2026-04-11T08:03:02.467Z</time></trkpt><trkpt lat="42.7603566" lon="12.0892121"><ele>145.66666666666666</ele><time>2026-04-11T08:03:03.469Z</time></trkpt><trkpt lat="42.7602888" lon="12.0889979"><ele>144.33333333333331</ele><time>2026-04-11T08:03:04.466Z</time></trkpt><trkpt lat="42.7602279" lon="12.0888341"><ele>143.0</ele><time>2026-04-11T08:03:05.47Z</time></trkpt><trkpt lat="42.7601464" lon="12.088667"><ele>142.5</ele><time>2026-04-11T08:03:06.457Z</time></trkpt><trkpt lat="42.7600929" lon="12.0885235"><ele>142.0</ele><time>2026-04-11T08:03:07.459Z</time></trkpt><trkpt lat="42.7600412" lon="12.0883907"><ele>141.5</ele><time>2026-04-11T08:03:08.471Z</time></trkpt><trkpt lat="42.7600408" lon="12.0882462"><ele>141.0</ele><time>2026-04-11T08:03:09.452Z</time></trkpt><trkpt lat="42.7600363" lon="12.0880665"><ele>140.75</ele><time>2026-04-11T08:03:10.455Z</time></trkpt><trkpt lat="42.7600682" lon="12.0879081"><ele>140.5</ele><time>2026-04-11T08:03:11.463Z</time></trkpt><trkpt lat="42.7600972" lon="12.0877588"><ele>140.25</ele><time>2026-04-11T08:03:12.46Z</time></trkpt><trkpt lat="42.7601257" lon="12.0875836"><ele>140.0</ele><time>2026-04-11T08:03:13.457Z</time></trkpt><trkpt lat="42.7601432" lon="12.0874195"><ele>139.75</ele><time>2026-04-11T08:03:14.467Z</time></trkpt><trkpt lat="42.7601643" lon="12.0872375"><ele>139.5</ele><time>2026-04-11T08:03:15.47Z</time></trkpt><trkpt lat="42.760192" lon="12.0870564"><ele>139.25</ele><time>2026-04-11T08:03:16.488Z</time></trkpt><trkpt lat="42.7602323" lon="12.0868716"><ele>139.0</ele><time>2026-04-11T08:03:17.483Z</time></trkpt><trkpt lat="42.760281" lon="12.086672"><ele>141.0</ele><time>2026-04-11T08:03:18.486Z</time></trkpt><trkpt lat="42.7603375" lon="12.0864904"><ele>143.0</ele><time>2026-04-11T08:03:19.479Z</time></trkpt><trkpt lat="42.7603846" lon="12.0862882"><ele>145.0</ele><time>2026-04-11T08:03:20.487Z</time></trkpt><trkpt lat="42.7604204" lon="12.0860885"><ele>145.0</ele><time>2026-04-11T08:03:21.476Z</time></trkpt><trkpt lat="42.7604478" lon="12.085913"><ele>145.0</ele><time>2026-04-11T08:03:22.475Z</time></trkpt><trkpt lat="42.7604951" lon="12.0857324"><ele>145.0</ele><time>2026-04-11T08:03:23.462Z</time></trkpt><trkpt lat="42.7605673" lon="12.0855677"><ele>145.0</ele><time>2026-04-11T08:03:24.47Z</time></trkpt><trkpt lat="42.7606407" lon="12.0854289"><ele>144.0</ele><time>2026-04-11T08:03:25.469Z</time></trkpt><trkpt lat="42.7607287" lon="12.0852643"><ele>143.0</ele><time>2026-04-11T08:03:26.47Z</time></trkpt><trkpt lat="42.7608194" lon="12.0851118"><ele>142.0</ele><time>2026-04-11T08:03:27.462Z</time></trkpt><trkpt lat="42.7609022" lon="12.0849388"><ele>141.0</ele><time>2026-04-11T08:03:28.465Z</time></trkpt><trkpt lat="42.7609939" lon="12.0847798"><ele>143.33333333333334</ele><time>2026-04-11T08:03:29.469Z</time></trkpt><trkpt lat="42.7610833" lon="12.084605"><ele>145.66666666666669</ele><time>2026-04-11T08:03:30.47Z</time></trkpt><trkpt lat="42.7611697" lon="12.0844143"><ele>148.0</ele><time>2026-04-11T08:03:31.471Z</time></trkpt><trkpt lat="42.7612479" lon="12.084229"><ele>145.66666666666669</ele><time>2026-04-11T08:03:32.471Z</time></trkpt><trkpt lat="42.7613421" lon="12.084026"><ele>143.33333333333334</ele><time>2026-04-11T08:03:33.465Z</time></trkpt><trkpt lat="42.7614261" lon="12.0838614"><ele>141.0</ele><time>2026-04-11T08:03:34.474Z</time></trkpt><trkpt lat="42.7615199" lon="12.0837047"><ele>141.0</ele><time>2026-04-11T08:03:35.469Z</time></trkpt><trkpt lat="42.7615955" lon="12.0835457"><ele>141.0</ele><time>2026-04-11T08:03:36.467Z</time></trkpt><trkpt lat="42.7616664" lon="12.0833903"><ele>141.0</ele><time>2026-04-11T08:03:37.468Z</time></trkpt><trkpt lat="42.7617486" lon="12.0832521"><ele>141.0</ele><time>2026-04-11T08:03:38.467Z</time></trkpt><trkpt lat="42.7618162" lon="12.0830719"><ele>142.5</ele><time>2026-04-11T08:03:39.481Z</time></trkpt><trkpt lat="42.7618782" lon="12.0829358"><ele>144.0</ele><time>2026-04-11T08:03:40.466Z</time></trkpt><trkpt lat="42.7619472" lon="12.0827886"><ele>145.5</ele><time>2026-04-11T08:03:41.472Z</time></trkpt><trkpt lat="42.7620361" lon="12.0826499"><ele>147.0</ele><time>2026-04-11T08:03:42.473Z</time></trkpt><trkpt lat="42.7621189" lon="12.0824942"><ele>145.75</ele><time>2026-04-11T08:03:43.47Z</time></trkpt><trkpt lat="42.7622054" lon="12.0823592"><ele>144.5</ele><time>2026-04-11T08:03:44.478Z</time></trkpt><trkpt lat="42.7623087" lon="12.0822046"><ele>143.25</ele><time>2026-04-11T08:03:45.478Z</time></trkpt><trkpt lat="42.7624025" lon="12.0820609"><ele>142.0</ele><time>2026-04-11T08:03:46.471Z</time></trkpt><trkpt lat="42.7625026" lon="12.0819328"><ele>142.0</ele><time>2026-04-11T08:03:47.478Z</time></trkpt><trkpt lat="42.7626091" lon="12.0818123"><ele>142.0</ele><time>2026-04-11T08:03:48.469Z</time></trkpt><trkpt lat="42.7627228" lon="12.0817228"><ele>142.0</ele><time>2026-04-11T08:03:49.471Z</time></trkpt><trkpt lat="42.7628311" lon="12.0816296"><ele>142.0</ele><time>2026-04-11T08:03:50.477Z</time></trkpt><trkpt lat="42.7629324" lon="12.0815169"><ele>143.0</ele><time>2026-04-11T08:03:51.469Z</time></trkpt><trkpt lat="42.7630208" lon="12.0814572"><ele>144.0</ele><time>2026-04-11T08:03:52.462Z</time></trkpt><trkpt lat="42.7631267" lon="12.0813988"><ele>145.0</ele><time>2026-04-11T08:03:53.471Z</time></trkpt><trkpt lat="42.7632262" lon="12.0813225"><ele>146.0</ele><time>2026-04-11T08:03:54.466Z</time></trkpt><trkpt lat="42.7633051" lon="12.0812131"><ele>147.0</ele><time>2026-04-11T08:03:55.463Z</time></trkpt><trkpt lat="42.7633711" lon="12.081088"><ele>147.0</ele><time>2026-04-11T08:03:56.456Z</time></trkpt><trkpt lat="42.7634248" lon="12.080917"><ele>147.0</ele><time>2026-04-11T08:03:57.459Z</time></trkpt><trkpt lat="42.7634695" lon="12.0807516"><ele>147.0</ele><time>2026-04-11T08:03:58.451Z</time></trkpt><trkpt lat="42.7635164" lon="12.0805931"><ele>147.0</ele><time>2026-04-11T08:03:59.461Z</time></trkpt><trkpt lat="42.7635751" lon="12.080424"><ele>147.75</ele><time>2026-04-11T08:04:00.458Z</time></trkpt><trkpt lat="42.7636312" lon="12.0802521"><ele>148.5</ele><time>2026-04-11T08:04:01.46Z</time></trkpt><trkpt lat="42.763684" lon="12.0800825"><ele>149.25</ele><time>2026-04-11T08:04:02.455Z</time></trkpt><trkpt lat="42.7637313" lon="12.0799174"><ele>150.0</ele><time>2026-04-11T08:04:03.454Z</time></trkpt><trkpt lat="42.7637856" lon="12.0797614"><ele>150.0</ele><time>2026-04-11T08:04:04.455Z</time></trkpt><trkpt lat="42.7638419" lon="12.0796198"><ele>150.0</ele><time>2026-04-11T08:04:05.466Z</time></trkpt><trkpt lat="42.7639006" lon="12.0794978"><ele>150.0</ele><time>2026-04-11T08:04:06.463Z</time></trkpt><trkpt lat="42.7639812" lon="12.0793748"><ele>150.0</ele><time>2026-04-11T08:04:07.466Z</time></trkpt><trkpt lat="42.7640622" lon="12.0792428"><ele>150.0</ele><time>2026-04-11T08:04:08.466Z</time></trkpt><trkpt lat="42.7641616" lon="12.0791328"><ele>150.0</ele><time>2026-04-11T08:04:09.472Z</time></trkpt><trkpt lat="42.7642635" lon="12.0790362"><ele>150.0</ele><time>2026-04-11T08:04:10.482Z</time></trkpt><trkpt lat="42.7643588" lon="12.0789498"><ele>150.0</ele><time>2026-04-11T08:04:11.467Z</time></trkpt><trkpt lat="42.7644725" lon="12.0788735"><ele>150.0</ele><time>2026-04-11T08:04:12.474Z</time></trkpt><trkpt lat="42.7645771" lon="12.0787802"><ele>150.0</ele><time>2026-04-11T08:04:13.479Z</time></trkpt><trkpt lat="42.7646887" lon="12.0787029"><ele>150.0</ele><time>2026-04-11T08:04:14.47Z</time></trkpt><trkpt lat="42.7647853" lon="12.0786315"><ele>150.0</ele><time>2026-04-11T08:04:15.476Z</time></trkpt><trkpt lat="42.7648803" lon="12.0785522"><ele>150.0</ele><time>2026-04-11T08:04:16.479Z</time></trkpt><trkpt lat="42.7649766" lon="12.0784777"><ele>150.0</ele><time>2026-04-11T08:04:17.48Z</time></trkpt><trkpt lat="42.7650791" lon="12.0783914"><ele>150.0</ele><time>2026-04-11T08:04:18.481Z</time></trkpt><trkpt lat="42.765179" lon="12.0782945"><ele>150.0</ele><time>2026-04-11T08:04:19.473Z</time></trkpt><trkpt lat="42.7652817" lon="12.0782011"><ele>150.5</ele><time>2026-04-11T08:04:20.481Z</time></trkpt><trkpt lat="42.7653824" lon="12.0780926"><ele>151.0</ele><time>2026-04-11T08:04:21.472Z</time></trkpt><trkpt lat="42.7654796" lon="12.0779857"><ele>151.5</ele><time>2026-04-11T08:04:22.468Z</time></trkpt><trkpt lat="42.7655759" lon="12.0778699"><ele>152.0</ele><time>2026-04-11T08:04:23.473Z</time></trkpt><trkpt lat="42.7656617" lon="12.0777452"><ele>152.0</ele><time>2026-04-11T08:04:24.46Z</time></trkpt><trkpt lat="42.7657475" lon="12.0776096"><ele>152.0</ele><time>2026-04-11T08:04:25.478Z</time></trkpt><trkpt lat="42.7658263" lon="12.0774842"><ele>152.0</ele><time>2026-04-11T08:04:26.464Z</time></trkpt><trkpt lat="42.765904" lon="12.0773579"><ele>152.0</ele><time>2026-04-11T08:04:27.467Z</time></trkpt><trkpt lat="42.7659913" lon="12.0772332"><ele>153.25</ele><time>2026-04-11T08:04:28.462Z</time></trkpt><trkpt lat="42.7660828" lon="12.077117"><ele>154.5</ele><time>2026-04-11T08:04:29.467Z</time></trkpt><trkpt lat="42.7661717" lon="12.0769931"><ele>155.75</ele><time>2026-04-11T08:04:30.46Z</time></trkpt><trkpt lat="42.7662591" lon="12.0768644"><ele>157.0</ele><time>2026-04-11T08:04:31.459Z</time></trkpt><trkpt lat="42.766339" lon="12.0767409"><ele>157.0</ele><time>2026-04-11T08:04:32.46Z</time></trkpt><trkpt lat="42.7664102" lon="12.076607"><ele>157.0</ele><time>2026-04-11T08:04:33.458Z</time></trkpt><trkpt lat="42.766483" lon="12.0764576"><ele>157.0</ele><time>2026-04-11T08:04:34.461Z</time></trkpt><trkpt lat="42.7665369" lon="12.0762882"><ele>157.0</ele><time>2026-04-11T08:04:35.455Z</time></trkpt><trkpt lat="42.766589" lon="12.0761086"><ele>154.75</ele><time>2026-04-11T08:04:36.454Z</time></trkpt><trkpt lat="42.7666641" lon="12.0759331"><ele>152.5</ele><time>2026-04-11T08:04:37.464Z</time></trkpt><trkpt lat="42.7667311" lon="12.0757437"><ele>150.25</ele><time>2026-04-11T08:04:38.459Z</time></trkpt><trkpt lat="42.7667952" lon="12.0755843"><ele>148.0</ele><time>2026-04-11T08:04:39.459Z</time></trkpt><trkpt lat="42.7668431" lon="12.0754014"><ele>148.25</ele><time>2026-04-11T08:04:40.457Z</time></trkpt><trkpt lat="42.7668974" lon="12.0752214"><ele>148.5</ele><time>2026-04-11T08:04:41.475Z</time></trkpt><trkpt lat="42.766945" lon="12.0750624"><ele>148.75</ele><time>2026-04-11T08:04:42.451Z</time></trkpt><trkpt lat="42.7670143" lon="12.0749068"><ele>149.0</ele><time>2026-04-11T08:04:43.45Z</time></trkpt><trkpt lat="42.7670667" lon="12.0747336"><ele>149.0</ele><time>2026-04-11T08:04:44.45Z</time></trkpt><trkpt lat="42.7671197" lon="12.0745303"><ele>149.0</ele><time>2026-04-11T08:04:45.457Z</time></trkpt><trkpt lat="42.7671892" lon="12.0743648"><ele>149.0</ele><time>2026-04-11T08:04:46.451Z</time></trkpt><trkpt lat="42.767242" lon="12.0742062"><ele>149.0</ele><time>2026-04-11T08:04:47.453Z</time></trkpt><trkpt lat="42.7673148" lon="12.0740835"><ele>147.75</ele><time>2026-04-11T08:04:48.453Z</time></trkpt><trkpt lat="42.767388" lon="12.0739263"><ele>146.5</ele><time>2026-04-11T08:04:49.452Z</time></trkpt><trkpt lat="42.7674501" lon="12.0737747"><ele>145.25</ele><time>2026-04-11T08:04:50.471Z</time></trkpt><trkpt lat="42.7675069" lon="12.0736256"><ele>144.0</ele><time>2026-04-11T08:04:51.463Z</time></trkpt><trkpt lat="42.7675576" lon="12.0734702"><ele>144.0</ele><time>2026-04-11T08:04:52.46Z</time></trkpt><trkpt lat="42.7676227" lon="12.0733123"><ele>144.0</ele><time>2026-04-11T08:04:53.475Z</time></trkpt><trkpt lat="42.7676888" lon="12.073156"><ele>144.0</ele><time>2026-04-11T08:04:54.471Z</time></trkpt><trkpt lat="42.7677574" lon="12.0729872"><ele>144.0</ele><time>2026-04-11T08:04:55.465Z</time></trkpt><trkpt lat="42.7678218" lon="12.0728275"><ele>145.0</ele><time>2026-04-11T08:04:56.468Z</time></trkpt><trkpt lat="42.7678821" lon="12.0726651"><ele>146.0</ele><time>2026-04-11T08:04:57.459Z</time></trkpt><trkpt lat="42.7679494" lon="12.0725127"><ele>147.0</ele><time>2026-04-11T08:04:58.466Z</time></trkpt><trkpt lat="42.7680309" lon="12.0723662"><ele>148.0</ele><time>2026-04-11T08:04:59.464Z</time></trkpt><trkpt lat="42.7681093" lon="12.0722015"><ele>148.0</ele><time>2026-04-11T08:05:00.468Z</time></trkpt><trkpt lat="42.7681798" lon="12.0720656"><ele>148.0</ele><time>2026-04-11T08:05:01.465Z</time></trkpt><trkpt lat="42.7682451" lon="12.0719271"><ele>148.0</ele><time>2026-04-11T08:05:02.472Z</time></trkpt><trkpt lat="42.7683273" lon="12.0718173"><ele>148.0</ele><time>2026-04-11T08:05:03.469Z</time></trkpt><trkpt lat="42.7684053" lon="12.0717046"><ele>147.8</ele><time>2026-04-11T08:05:04.47Z</time></trkpt><trkpt lat="42.7684644" lon="12.0715797"><ele>147.60000000000002</ele><time>2026-04-11T08:05:05.474Z</time></trkpt><trkpt lat="42.7685323" lon="12.0714564"><ele>147.39999999999998</ele><time>2026-04-11T08:05:06.473Z</time></trkpt><trkpt lat="42.7685965" lon="12.0713371"><ele>147.2</ele><time>2026-04-11T08:05:07.48Z</time></trkpt><trkpt lat="42.7686627" lon="12.071256"><ele>147.0</ele><time>2026-04-11T08:05:08.471Z</time></trkpt><trkpt lat="42.768762" lon="12.0711793"><ele>147.0</ele><time>2026-04-11T08:05:09.458Z</time></trkpt><trkpt lat="42.7688825" lon="12.0710992"><ele>147.0</ele><time>2026-04-11T08:05:10.472Z</time></trkpt><trkpt lat="42.7690009" lon="12.0710155"><ele>147.0</ele><time>2026-04-11T08:05:11.466Z</time></trkpt><trkpt lat="42.7691303" lon="12.070933"><ele>147.0</ele><time>2026-04-11T08:05:12.481Z</time></trkpt><trkpt lat="42.7692393" lon="12.0708655"><ele>147.0</ele><time>2026-04-11T08:05:13.465Z</time></trkpt><trkpt lat="42.7693387" lon="12.0707813"><ele>147.0</ele><time>2026-04-11T08:05:14.461Z</time></trkpt><trkpt lat="42.7694228" lon="12.0706988"><ele>147.0</ele><time>2026-04-11T08:05:15.465Z</time></trkpt><trkpt lat="42.7694943" lon="12.0706323"><ele>147.0</ele><time>2026-04-11T08:05:16.462Z</time></trkpt><trkpt lat="42.7695695" lon="12.0705489"><ele>147.0</ele><time>2026-04-11T08:05:17.468Z</time></trkpt><trkpt lat="42.7696514" lon="12.0704563"><ele>147.0</ele><time>2026-04-11T08:05:18.46Z</time></trkpt><trkpt lat="42.7697436" lon="12.0703482"><ele>147.0</ele><time>2026-04-11T08:05:19.47Z</time></trkpt><trkpt lat="42.7698382" lon="12.0702351"><ele>147.0</ele><time>2026-04-11T08:05:20.472Z</time></trkpt><trkpt lat="42.7699321" lon="12.0701235"><ele>147.0</ele><time>2026-04-11T08:05:21.471Z</time></trkpt><trkpt lat="42.7700229" lon="12.0699933"><ele>147.25</ele><time>2026-04-11T08:05:22.472Z</time></trkpt><trkpt lat="42.7701131" lon="12.0698688"><ele>147.5</ele><time>2026-04-11T08:05:23.48Z</time></trkpt><trkpt lat="42.7701956" lon="12.0697402"><ele>147.75</ele><time>2026-04-11T08:05:24.483Z</time></trkpt><trkpt lat="42.7702716" lon="12.069612"><ele>148.0</ele><time>2026-04-11T08:05:25.485Z</time></trkpt><trkpt lat="42.7703507" lon="12.0694901"><ele>148.5</ele><time>2026-04-11T08:05:26.479Z</time></trkpt><trkpt lat="42.7704207" lon="12.0693526"><ele>149.0</ele><time>2026-04-11T08:05:27.487Z</time></trkpt><trkpt lat="42.7704966" lon="12.0692111"><ele>149.5</ele><time>2026-04-11T08:05:28.479Z</time></trkpt><trkpt lat="42.7705569" lon="12.0690713"><ele>150.0</ele><time>2026-04-11T08:05:29.484Z</time></trkpt><trkpt lat="42.7706307" lon="12.0689343"><ele>150.0</ele><time>2026-04-11T08:05:30.472Z</time></trkpt><trkpt lat="42.7707157" lon="12.0688059"><ele>150.0</ele><time>2026-04-11T08:05:31.474Z</time></trkpt><trkpt lat="42.770809" lon="12.0686995"><ele>150.0</ele><time>2026-04-11T08:05:32.463Z</time></trkpt><trkpt lat="42.7709152" lon="12.0686091"><ele>150.0</ele><time>2026-04-11T08:05:33.467Z</time></trkpt><trkpt lat="42.7710243" lon="12.068521"><ele>150.75</ele><time>2026-04-11T08:05:34.47Z</time></trkpt><trkpt lat="42.7711372" lon="12.0684631"><ele>151.5</ele><time>2026-04-11T08:05:35.47Z</time></trkpt><trkpt lat="42.7712626" lon="12.0684228"><ele>152.25</ele><time>2026-04-11T08:05:36.467Z</time></trkpt><trkpt lat="42.7713854" lon="12.0683681"><ele>153.0</ele><time>2026-04-11T08:05:37.472Z</time></trkpt><trkpt lat="42.7715006" lon="12.0683308"><ele>153.0</ele><time>2026-04-11T08:05:38.464Z</time></trkpt><trkpt lat="42.7716167" lon="12.0682945"><ele>153.0</ele><time>2026-04-11T08:05:39.465Z</time></trkpt><trkpt lat="42.7717323" lon="12.0682459"><ele>153.0</ele><time>2026-04-11T08:05:40.469Z</time></trkpt><trkpt lat="42.7718633" lon="12.0682028"><ele>153.0</ele><time>2026-04-11T08:05:41.466Z</time></trkpt><trkpt lat="42.7719854" lon="12.0681713"><ele>152.0</ele><time>2026-04-11T08:05:42.463Z</time></trkpt><trkpt lat="42.7721106" lon="12.0681296"><ele>151.0</ele><time>2026-04-11T08:05:43.477Z</time></trkpt><trkpt lat="42.77223" lon="12.0680967"><ele>150.0</ele><time>2026-04-11T08:05:44.464Z</time></trkpt><trkpt lat="42.7723694" lon="12.0680502"><ele>149.0</ele><time>2026-04-11T08:05:45.468Z</time></trkpt><trkpt lat="42.7724956" lon="12.0679809"><ele>149.0</ele><time>2026-04-11T08:05:46.47Z</time></trkpt><trkpt lat="42.772656" lon="12.0679299"><ele>149.0</ele><time>2026-04-11T08:05:47.473Z</time></trkpt><trkpt lat="42.7727705" lon="12.0678832"><ele>149.0</ele><time>2026-04-11T08:05:48.472Z</time></trkpt><trkpt lat="42.7728682" lon="12.0678125"><ele>149.0</ele><time>2026-04-11T08:05:49.468Z</time></trkpt><trkpt lat="42.772992" lon="12.067741"><ele>150.25</ele><time>2026-04-11T08:05:50.464Z</time></trkpt><trkpt lat="42.7730959" lon="12.0676492"><ele>151.5</ele><time>2026-04-11T08:05:51.46Z</time></trkpt><trkpt lat="42.7732197" lon="12.0675785"><ele>152.75</ele><time>2026-04-11T08:05:52.457Z</time></trkpt><trkpt lat="42.7733281" lon="12.0674769"><ele>154.0</ele><time>2026-04-11T08:05:53.468Z</time></trkpt><trkpt lat="42.7734417" lon="12.0673964"><ele>154.6</ele><time>2026-04-11T08:05:54.462Z</time></trkpt><trkpt lat="42.7735318" lon="12.0673297"><ele>155.2</ele><time>2026-04-11T08:05:55.458Z</time></trkpt><trkpt lat="42.7736334" lon="12.067279"><ele>155.79999999999998</ele><time>2026-04-11T08:05:56.462Z</time></trkpt><trkpt lat="42.7737522" lon="12.0672556"><ele>156.4</ele><time>2026-04-11T08:05:57.461Z</time></trkpt><trkpt lat="42.7738621" lon="12.0672577"><ele>157.0</ele><time>2026-04-11T08:05:58.467Z</time></trkpt><trkpt lat="42.7739815" lon="12.0672219"><ele>157.0</ele><time>2026-04-11T08:05:59.459Z</time></trkpt><trkpt lat="42.7740931" lon="12.0671593"><ele>157.0</ele><time>2026-04-11T08:06:00.455Z</time></trkpt><trkpt lat="42.7741794" lon="12.0670762"><ele>157.0</ele><time>2026-04-11T08:06:01.456Z</time></trkpt><trkpt lat="42.7742671" lon="12.0669899"><ele>157.0</ele><time>2026-04-11T08:06:02.461Z</time></trkpt><trkpt lat="42.7743497" lon="12.0669259"><ele>157.0</ele><time>2026-04-11T08:06:03.459Z</time></trkpt><trkpt lat="42.7744519" lon="12.0668716"><ele>156.75</ele><time>2026-04-11T08:06:04.467Z</time></trkpt><trkpt lat="42.774553" lon="12.0668261"><ele>156.5</ele><time>2026-04-11T08:06:05.472Z</time></trkpt><trkpt lat="42.774658" lon="12.066742"><ele>156.25</ele><time>2026-04-11T08:06:06.462Z</time></trkpt><trkpt lat="42.7747444" lon="12.0666489"><ele>156.0</ele><time>2026-04-11T08:06:07.471Z</time></trkpt><trkpt lat="42.7748335" lon="12.0665428"><ele>157.0</ele><time>2026-04-11T08:06:08.471Z</time></trkpt><trkpt lat="42.7749155" lon="12.0664556"><ele>158.0</ele><time>2026-04-11T08:06:09.476Z</time></trkpt><trkpt lat="42.7749942" lon="12.0663723"><ele>159.0</ele><time>2026-04-11T08:06:10.472Z</time></trkpt><trkpt lat="42.7750788" lon="12.0662831"><ele>160.0</ele><time>2026-04-11T08:06:11.468Z</time></trkpt><trkpt lat="42.7751541" lon="12.0662037"><ele>161.0</ele><time>2026-04-11T08:06:12.46Z</time></trkpt><trkpt lat="42.7752216" lon="12.066138"><ele>161.0</ele><time>2026-04-11T08:06:13.463Z</time></trkpt><trkpt lat="42.7752764" lon="12.066006"><ele>161.0</ele><time>2026-04-11T08:06:15.462Z</time></trkpt><trkpt lat="42.7751913" lon="12.0659236"><ele>161.0</ele><time>2026-04-11T08:06:17.457Z</time></trkpt><trkpt lat="42.7750878" lon="12.0659329"><ele>161.0</ele><time>2026-04-11T08:06:18.456Z</time></trkpt><trkpt lat="42.7749623" lon="12.065962"><ele>161.0</ele><time>2026-04-11T08:06:19.453Z</time></trkpt><trkpt lat="42.7748431" lon="12.0659662"><ele>162.75</ele><time>2026-04-11T08:06:20.453Z</time></trkpt><trkpt lat="42.7747202" lon="12.0659612"><ele>164.5</ele><time>2026-04-11T08:06:21.465Z</time></trkpt><trkpt lat="42.7745894" lon="12.0659257"><ele>166.25</ele><time>2026-04-11T08:06:22.458Z</time></trkpt><trkpt lat="42.7744481" lon="12.0658661"><ele>168.0</ele><time>2026-04-11T08:06:23.46Z</time></trkpt><trkpt lat="42.7743311" lon="12.0657904"><ele>172.5</ele><time>2026-04-11T08:06:24.459Z</time></trkpt><trkpt lat="42.7742165" lon="12.0657096"><ele>177.0</ele><time>2026-04-11T08:06:25.457Z</time></trkpt><trkpt lat="42.7741098" lon="12.0656247"><ele>181.5</ele><time>2026-04-11T08:06:26.451Z</time></trkpt><trkpt lat="42.7739934" lon="12.0655292"><ele>186.0</ele><time>2026-04-11T08:06:27.449Z</time></trkpt><trkpt lat="42.7738601" lon="12.0654293"><ele>186.0</ele><time>2026-04-11T08:06:28.448Z</time></trkpt><trkpt lat="42.7736967" lon="12.0653171"><ele>186.0</ele><time>2026-04-11T08:06:29.454Z</time></trkpt><trkpt lat="42.7735517" lon="12.0652342"><ele>186.0</ele><time>2026-04-11T08:06:30.45Z</time></trkpt><trkpt lat="42.773449" lon="12.0651939"><ele>186.0</ele><time>2026-04-11T08:06:31.461Z</time></trkpt><trkpt lat="42.7733128" lon="12.0651673"><ele>186.0</ele><time>2026-04-11T08:06:32.455Z</time></trkpt><trkpt lat="42.7732127" lon="12.0651233"><ele>186.0</ele><time>2026-04-11T08:06:33.46Z</time></trkpt><trkpt lat="42.7731452" lon="12.0650457"><ele>186.0</ele><time>2026-04-11T08:06:34.45Z</time></trkpt><trkpt lat="42.7730517" lon="12.0649866"><ele>186.0</ele><time>2026-04-11T08:06:35.448Z</time></trkpt><trkpt lat="42.7730126" lon="12.064897"><ele>186.0</ele><time>2026-04-11T08:06:36.456Z</time></trkpt><trkpt lat="42.773007" lon="12.0647851"><ele>187.60000000000002</ele><time>2026-04-11T08:06:37.446Z</time></trkpt><trkpt lat="42.773018" lon="12.0646756"><ele>189.2</ele><time>2026-04-11T08:06:38.441Z</time></trkpt><trkpt lat="42.7730787" lon="12.0645859"><ele>190.8</ele><time>2026-04-11T08:06:39.445Z</time></trkpt><trkpt lat="42.7731655" lon="12.0645049"><ele>192.39999999999998</ele><time>2026-04-11T08:06:40.455Z</time></trkpt><trkpt lat="42.773287" lon="12.0644142"><ele>194.0</ele><time>2026-04-11T08:06:41.461Z</time></trkpt><trkpt lat="42.7734154" lon="12.0643004"><ele>194.75</ele><time>2026-04-11T08:06:42.458Z</time></trkpt><trkpt lat="42.7735437" lon="12.0641806"><ele>195.5</ele><time>2026-04-11T08:06:43.458Z</time></trkpt><trkpt lat="42.7736598" lon="12.0640502"><ele>196.25</ele><time>2026-04-11T08:06:44.467Z</time></trkpt><trkpt lat="42.7737686" lon="12.0639371"><ele>197.0</ele><time>2026-04-11T08:06:45.467Z</time></trkpt><trkpt lat="42.7738527" lon="12.0638165"><ele>197.25</ele><time>2026-04-11T08:06:46.467Z</time></trkpt><trkpt lat="42.7739556" lon="12.0637228"><ele>197.5</ele><time>2026-04-11T08:06:47.47Z</time></trkpt><trkpt lat="42.7740817" lon="12.0636632"><ele>197.75</ele><time>2026-04-11T08:06:48.484Z</time></trkpt><trkpt lat="42.7742115" lon="12.0636166"><ele>198.0</ele><time>2026-04-11T08:06:49.473Z</time></trkpt><trkpt lat="42.7743357" lon="12.063577"><ele>199.0</ele><time>2026-04-11T08:06:50.487Z</time></trkpt><trkpt lat="42.7744625" lon="12.0635146"><ele>200.0</ele><time>2026-04-11T08:06:51.484Z</time></trkpt><trkpt lat="42.7745898" lon="12.0634581"><ele>201.0</ele><time>2026-04-11T08:06:52.48Z</time></trkpt><trkpt lat="42.7747297" lon="12.0633971"><ele>202.0</ele><time>2026-04-11T08:06:53.486Z</time></trkpt><trkpt lat="42.7748713" lon="12.0633513"><ele>202.0</ele><time>2026-04-11T08:06:54.493Z</time></trkpt><trkpt lat="42.7749974" lon="12.0632881"><ele>202.0</ele><time>2026-04-11T08:06:55.492Z</time></trkpt><trkpt lat="42.7751355" lon="12.0632369"><ele>202.0</ele><time>2026-04-11T08:06:56.475Z</time></trkpt><trkpt lat="42.7752978" lon="12.0631767"><ele>202.0</ele><time>2026-04-11T08:06:57.476Z</time></trkpt><trkpt lat="42.7754392" lon="12.0631068"><ele>204.33333333333331</ele><time>2026-04-11T08:06:58.476Z</time></trkpt><trkpt lat="42.775589" lon="12.0630389"><ele>206.66666666666669</ele><time>2026-04-11T08:06:59.476Z</time></trkpt><trkpt lat="42.7757514" lon="12.0629486"><ele>209.0</ele><time>2026-04-11T08:07:00.477Z</time></trkpt><trkpt lat="42.7759085" lon="12.0628609"><ele>210.0</ele><time>2026-04-11T08:07:01.478Z</time></trkpt><trkpt lat="42.7760696" lon="12.0627863"><ele>211.0</ele><time>2026-04-11T08:07:02.481Z</time></trkpt><trkpt lat="42.7762116" lon="12.0627133"><ele>212.0</ele><time>2026-04-11T08:07:03.476Z</time></trkpt><trkpt lat="42.7763699" lon="12.0626547"><ele>212.0</ele><time>2026-04-11T08:07:04.475Z</time></trkpt><trkpt lat="42.7764888" lon="12.0625913"><ele>212.0</ele><time>2026-04-11T08:07:05.474Z</time></trkpt><trkpt lat="42.7766115" lon="12.0625023"><ele>212.0</ele><time>2026-04-11T08:07:06.479Z</time></trkpt><trkpt lat="42.7767267" lon="12.0624111"><ele>212.0</ele><time>2026-04-11T08:07:07.476Z</time></trkpt><trkpt lat="42.77686" lon="12.0623288"><ele>214.0</ele><time>2026-04-11T08:07:08.48Z</time></trkpt><trkpt lat="42.7769691" lon="12.0622498"><ele>216.0</ele><time>2026-04-11T08:07:09.478Z</time></trkpt><trkpt lat="42.7770953" lon="12.0621606"><ele>218.0</ele><time>2026-04-11T08:07:10.475Z</time></trkpt><trkpt lat="42.7772145" lon="12.0620206"><ele>220.0</ele><time>2026-04-11T08:07:11.473Z</time></trkpt><trkpt lat="42.7773545" lon="12.0618939"><ele>220.0</ele><time>2026-04-11T08:07:12.471Z</time></trkpt><trkpt lat="42.7774818" lon="12.0617871"><ele>220.0</ele><time>2026-04-11T08:07:13.465Z</time></trkpt><trkpt lat="42.7776145" lon="12.061715"><ele>220.0</ele><time>2026-04-11T08:07:14.478Z</time></trkpt><trkpt lat="42.777754" lon="12.061686"><ele>220.0</ele><time>2026-04-11T08:07:15.491Z</time></trkpt><trkpt lat="42.7778769" lon="12.0616196"><ele>219.0</ele><time>2026-04-11T08:07:16.476Z</time></trkpt><trkpt lat="42.7780233" lon="12.0615768"><ele>218.0</ele><time>2026-04-11T08:07:17.478Z</time></trkpt><trkpt lat="42.7781871" lon="12.0615649"><ele>217.0</ele><time>2026-04-11T08:07:18.484Z</time></trkpt><trkpt lat="42.7783435" lon="12.0615762"><ele>220.0</ele><time>2026-04-11T08:07:19.476Z</time></trkpt><trkpt lat="42.7784827" lon="12.0616192"><ele>223.0</ele><time>2026-04-11T08:07:20.475Z</time></trkpt><trkpt lat="42.7786016" lon="12.0616789"><ele>226.0</ele><time>2026-04-11T08:07:21.475Z</time></trkpt><trkpt lat="42.7787747" lon="12.0617635"><ele>227.5</ele><time>2026-04-11T08:07:22.481Z</time></trkpt><trkpt lat="42.7788965" lon="12.0618677"><ele>229.0</ele><time>2026-04-11T08:07:23.468Z</time></trkpt><trkpt lat="42.7790128" lon="12.0619742"><ele>230.5</ele><time>2026-04-11T08:07:24.469Z</time></trkpt><trkpt lat="42.7791435" lon="12.0620831"><ele>232.0</ele><time>2026-04-11T08:07:25.468Z</time></trkpt><trkpt lat="42.7792369" lon="12.0621751"><ele>232.0</ele><time>2026-04-11T08:07:26.46Z</time></trkpt><trkpt lat="42.7793393" lon="12.0622529"><ele>232.0</ele><time>2026-04-11T08:07:27.467Z</time></trkpt><trkpt lat="42.7794624" lon="12.0622878"><ele>232.0</ele><time>2026-04-11T08:07:28.463Z</time></trkpt><trkpt lat="42.7796331" lon="12.0623067"><ele>232.0</ele><time>2026-04-11T08:07:29.475Z</time></trkpt><trkpt lat="42.7797899" lon="12.0623112"><ele>233.5</ele><time>2026-04-11T08:07:30.478Z</time></trkpt><trkpt lat="42.7799351" lon="12.0623033"><ele>235.0</ele><time>2026-04-11T08:07:31.479Z</time></trkpt><trkpt lat="42.7800636" lon="12.0622421"><ele>236.5</ele><time>2026-04-11T08:07:32.469Z</time></trkpt><trkpt lat="42.7802197" lon="12.0621956"><ele>238.0</ele><time>2026-04-11T08:07:33.467Z</time></trkpt><trkpt lat="42.780362" lon="12.0621627"><ele>238.5</ele><time>2026-04-11T08:07:34.468Z</time></trkpt><trkpt lat="42.7804765" lon="12.0621016"><ele>239.0</ele><time>2026-04-11T08:07:35.464Z</time></trkpt><trkpt lat="42.780554" lon="12.0620331"><ele>239.5</ele><time>2026-04-11T08:07:36.47Z</time></trkpt><trkpt lat="42.780657" lon="12.0619677"><ele>240.0</ele><time>2026-04-11T08:07:37.459Z</time></trkpt><trkpt lat="42.7807732" lon="12.0618891"><ele>240.0</ele><time>2026-04-11T08:07:38.465Z</time></trkpt><trkpt lat="42.7808849" lon="12.0618075"><ele>240.0</ele><time>2026-04-11T08:07:39.468Z</time></trkpt><trkpt lat="42.7809819" lon="12.0617033"><ele>240.0</ele><time>2026-04-11T08:07:40.473Z</time></trkpt><trkpt lat="42.7810771" lon="12.0616198"><ele>240.0</ele><time>2026-04-11T08:07:41.473Z</time></trkpt><trkpt lat="42.7811696" lon="12.0615291"><ele>240.75</ele><time>2026-04-11T08:07:42.467Z</time></trkpt><trkpt lat="42.7812737" lon="12.0614373"><ele>241.5</ele><time>2026-04-11T08:07:43.464Z</time></trkpt><trkpt lat="42.7813725" lon="12.0613352"><ele>242.25</ele><time>2026-04-11T08:07:44.467Z</time></trkpt><trkpt lat="42.7814933" lon="12.0612529"><ele>243.0</ele><time>2026-04-11T08:07:45.474Z</time></trkpt><trkpt lat="42.7816137" lon="12.0611869"><ele>243.0</ele><time>2026-04-11T08:07:46.478Z</time></trkpt><trkpt lat="42.7817477" lon="12.0611327"><ele>243.0</ele><time>2026-04-11T08:07:47.474Z</time></trkpt><trkpt lat="42.7818819" lon="12.0610736"><ele>243.0</ele><time>2026-04-11T08:07:48.472Z</time></trkpt><trkpt lat="42.7820341" lon="12.0609645"><ele>241.66666666666669</ele><time>2026-04-11T08:07:49.466Z</time></trkpt><trkpt lat="42.7821814" lon="12.0608462"><ele>240.33333333333334</ele><time>2026-04-11T08:07:50.466Z</time></trkpt><trkpt lat="42.7823294" lon="12.0606913"><ele>239.0</ele><time>2026-04-11T08:07:51.469Z</time></trkpt><trkpt lat="42.7824607" lon="12.0605611"><ele>240.0</ele><time>2026-04-11T08:07:52.468Z</time></trkpt><trkpt lat="42.7826057" lon="12.0604719"><ele>241.0</ele><time>2026-04-11T08:07:53.473Z</time></trkpt><trkpt lat="42.7827843" lon="12.060359"><ele>242.0</ele><time>2026-04-11T08:07:54.465Z</time></trkpt><trkpt lat="42.7829004" lon="12.0602917"><ele>242.0</ele><time>2026-04-11T08:07:55.458Z</time></trkpt><trkpt lat="42.7829765" lon="12.0601831"><ele>242.0</ele><time>2026-04-11T08:07:56.458Z</time></trkpt><trkpt lat="42.7830582" lon="12.0600889"><ele>242.0</ele><time>2026-04-11T08:07:57.449Z</time></trkpt><trkpt lat="42.7831022" lon="12.0599944"><ele>242.0</ele><time>2026-04-11T08:07:58.448Z</time></trkpt><trkpt lat="42.7830936" lon="12.0598878"><ele>242.0</ele><time>2026-04-11T08:07:59.452Z</time></trkpt><trkpt lat="42.7830983" lon="12.05979"><ele>244.0</ele><time>2026-04-11T08:08:00.456Z</time></trkpt><trkpt lat="42.7830267" lon="12.0596546"><ele>246.0</ele><time>2026-04-11T08:08:01.465Z</time></trkpt><trkpt lat="42.7829655" lon="12.0595238"><ele>248.0</ele><time>2026-04-11T08:08:02.483Z</time></trkpt><trkpt lat="42.7829226" lon="12.0593915"><ele>250.0</ele><time>2026-04-11T08:08:03.48Z</time></trkpt><trkpt lat="42.7829209" lon="12.0592382"><ele>252.0</ele><time>2026-04-11T08:08:04.482Z</time></trkpt><trkpt lat="42.7829242" lon="12.0590697"><ele>254.0</ele><time>2026-04-11T08:08:05.487Z</time></trkpt><trkpt lat="42.782913" lon="12.0588796"><ele>256.0</ele><time>2026-04-11T08:08:06.487Z</time></trkpt><trkpt lat="42.7828996" lon="12.0586893"><ele>258.0</ele><time>2026-04-11T08:08:07.472Z</time></trkpt><trkpt lat="42.7828949" lon="12.0585295"><ele>258.0</ele><time>2026-04-11T08:08:08.484Z</time></trkpt><trkpt lat="42.7828948" lon="12.0583841"><ele>258.0</ele><time>2026-04-11T08:08:09.472Z</time></trkpt><trkpt lat="42.7829066" lon="12.0582488"><ele>258.0</ele><time>2026-04-11T08:08:10.468Z</time></trkpt><trkpt lat="42.7829426" lon="12.0581429"><ele>258.0</ele><time>2026-04-11T08:08:11.463Z</time></trkpt><trkpt lat="42.7830097" lon="12.0580567"><ele>258.0</ele><time>2026-04-11T08:08:12.469Z</time></trkpt><trkpt lat="42.7831016" lon="12.0579976"><ele>256.5</ele><time>2026-04-11T08:08:13.465Z</time></trkpt><trkpt lat="42.7832168" lon="12.0579775"><ele>255.0</ele><time>2026-04-11T08:08:14.47Z</time></trkpt><trkpt lat="42.7833527" lon="12.0580056"><ele>253.5</ele><time>2026-04-11T08:08:15.473Z</time></trkpt><trkpt lat="42.7835049" lon="12.058079"><ele>252.0</ele><time>2026-04-11T08:08:16.477Z</time></trkpt><trkpt lat="42.7836288" lon="12.058158"><ele>252.0</ele><time>2026-04-11T08:08:17.492Z</time></trkpt><trkpt lat="42.7837366" lon="12.0582429"><ele>252.0</ele><time>2026-04-11T08:08:18.483Z</time></trkpt><trkpt lat="42.783835" lon="12.0583205"><ele>252.0</ele><time>2026-04-11T08:08:19.486Z</time></trkpt><trkpt lat="42.7839227" lon="12.0583804"><ele>252.0</ele><time>2026-04-11T08:08:20.483Z</time></trkpt><trkpt lat="42.784012" lon="12.0584226"><ele>252.0</ele><time>2026-04-11T08:08:21.482Z</time></trkpt><trkpt lat="42.7840988" lon="12.0584584"><ele>251.8</ele><time>2026-04-11T08:08:22.482Z</time></trkpt><trkpt lat="42.7841872" lon="12.0584764"><ele>251.6</ele><time>2026-04-11T08:08:23.475Z</time></trkpt><trkpt lat="42.7842855" lon="12.0584785"><ele>251.40000000000003</ele><time>2026-04-11T08:08:24.484Z</time></trkpt><trkpt lat="42.7843877" lon="12.058438"><ele>251.20000000000002</ele><time>2026-04-11T08:08:25.487Z</time></trkpt><trkpt lat="42.7844951" lon="12.0583638"><ele>251.0</ele><time>2026-04-11T08:08:26.487Z</time></trkpt><trkpt lat="42.7846017" lon="12.0582687"><ele>251.0</ele><time>2026-04-11T08:08:27.483Z</time></trkpt><trkpt lat="42.7847047" lon="12.058172"><ele>251.0</ele><time>2026-04-11T08:08:28.485Z</time></trkpt><trkpt lat="42.784816" lon="12.0580818"><ele>251.0</ele><time>2026-04-11T08:08:29.483Z</time></trkpt><trkpt lat="42.7849262" lon="12.058006"><ele>251.0</ele><time>2026-04-11T08:08:30.481Z</time></trkpt><trkpt lat="42.7850337" lon="12.057941"><ele>251.0</ele><time>2026-04-11T08:08:31.484Z</time></trkpt><trkpt lat="42.7851427" lon="12.0579083"><ele>251.00000000000003</ele><time>2026-04-11T08:08:32.492Z</time></trkpt><trkpt lat="42.7852481" lon="12.0578858"><ele>251.00000000000003</ele><time>2026-04-11T08:08:33.488Z</time></trkpt><trkpt lat="42.7853586" lon="12.0578798"><ele>251.0</ele><time>2026-04-11T08:08:34.472Z</time></trkpt><trkpt lat="42.7854667" lon="12.0578858"><ele>251.0</ele><time>2026-04-11T08:08:35.483Z</time></trkpt><trkpt lat="42.7855729" lon="12.057912"><ele>251.4</ele><time>2026-04-11T08:08:36.492Z</time></trkpt><trkpt lat="42.7856662" lon="12.0579547"><ele>251.8</ele><time>2026-04-11T08:08:37.485Z</time></trkpt><trkpt lat="42.7857603" lon="12.0579781"><ele>252.20000000000002</ele><time>2026-04-11T08:08:38.484Z</time></trkpt><trkpt lat="42.7858567" lon="12.0579751"><ele>252.60000000000002</ele><time>2026-04-11T08:08:39.488Z</time></trkpt><trkpt lat="42.7859597" lon="12.0579502"><ele>253.0</ele><time>2026-04-11T08:08:40.482Z</time></trkpt><trkpt lat="42.7860611" lon="12.0579086"><ele>253.0</ele><time>2026-04-11T08:08:41.484Z</time></trkpt><trkpt lat="42.786165" lon="12.0578515"><ele>253.0</ele><time>2026-04-11T08:08:42.486Z</time></trkpt><trkpt lat="42.7862616" lon="12.0577684"><ele>253.0</ele><time>2026-04-11T08:08:43.491Z</time></trkpt><trkpt lat="42.7863557" lon="12.0576667"><ele>253.0</ele><time>2026-04-11T08:08:44.48Z</time></trkpt><trkpt lat="42.7864491" lon="12.0575477"><ele>253.25</ele><time>2026-04-11T08:08:45.479Z</time></trkpt><trkpt lat="42.7865527" lon="12.0574298"><ele>253.5</ele><time>2026-04-11T08:08:46.482Z</time></trkpt><trkpt lat="42.7866622" lon="12.0573228"><ele>253.75</ele><time>2026-04-11T08:08:47.488Z</time></trkpt><trkpt lat="42.7867773" lon="12.0572326"><ele>254.0</ele><time>2026-04-11T08:08:48.504Z</time></trkpt><trkpt lat="42.7868914" lon="12.0571587"><ele>254.0</ele><time>2026-04-11T08:08:49.49Z</time></trkpt><trkpt lat="42.7870104" lon="12.0570956"><ele>254.0</ele><time>2026-04-11T08:08:50.486Z</time></trkpt><trkpt lat="42.7871304" lon="12.0570319"><ele>254.0</ele><time>2026-04-11T08:08:51.489Z</time></trkpt><trkpt lat="42.7872379" lon="12.0569677"><ele>254.0</ele><time>2026-04-11T08:08:52.486Z</time></trkpt><trkpt lat="42.787337" lon="12.0569043"><ele>254.0</ele><time>2026-04-11T08:08:53.494Z</time></trkpt><trkpt lat="42.7874319" lon="12.0568448"><ele>253.99999999999997</ele><time>2026-04-11T08:08:54.497Z</time></trkpt><trkpt lat="42.7875225" lon="12.056794"><ele>253.99999999999997</ele><time>2026-04-11T08:08:55.489Z</time></trkpt><trkpt lat="42.7876134" lon="12.0567378"><ele>254.0</ele><time>2026-04-11T08:08:56.488Z</time></trkpt><trkpt lat="42.7877098" lon="12.0566741"><ele>254.0</ele><time>2026-04-11T08:08:57.49Z</time></trkpt><trkpt lat="42.7878088" lon="12.0566122"><ele>254.79999999999998</ele><time>2026-04-11T08:08:58.488Z</time></trkpt><trkpt lat="42.7879112" lon="12.0565813"><ele>255.59999999999997</ele><time>2026-04-11T08:08:59.486Z</time></trkpt><trkpt lat="42.7880192" lon="12.0565637"><ele>256.4</ele><time>2026-04-11T08:09:00.492Z</time></trkpt><trkpt lat="42.788132" lon="12.0565804"><ele>257.2</ele><time>2026-04-11T08:09:01.495Z</time></trkpt><trkpt lat="42.7882381" lon="12.0566211"><ele>258.0</ele><time>2026-04-11T08:09:02.499Z</time></trkpt><trkpt lat="42.7883396" lon="12.0566724"><ele>258.0</ele><time>2026-04-11T08:09:03.493Z</time></trkpt><trkpt lat="42.7884497" lon="12.0567499"><ele>258.0</ele><time>2026-04-11T08:09:04.492Z</time></trkpt><trkpt lat="42.7885516" lon="12.0568465"><ele>258.0</ele><time>2026-04-11T08:09:05.482Z</time></trkpt><trkpt lat="42.7886499" lon="12.0569454"><ele>258.0</ele><time>2026-04-11T08:09:06.486Z</time></trkpt><trkpt lat="42.7887466" lon="12.0570339"><ele>258.0</ele><time>2026-04-11T08:09:07.49Z</time></trkpt><trkpt lat="42.7888575" lon="12.057111"><ele>258.0</ele><time>2026-04-11T08:09:08.487Z</time></trkpt><trkpt lat="42.7889612" lon="12.0571694"><ele>258.0</ele><time>2026-04-11T08:09:09.487Z</time></trkpt><trkpt lat="42.7890667" lon="12.0572203"><ele>258.0</ele><time>2026-04-11T08:09:10.492Z</time></trkpt><trkpt lat="42.7891868" lon="12.0572822"><ele>258.0</ele><time>2026-04-11T08:09:11.49Z</time></trkpt><trkpt lat="42.7892968" lon="12.0573364"><ele>258.0</ele><time>2026-04-11T08:09:12.491Z</time></trkpt><trkpt lat="42.7893934" lon="12.0574099"><ele>258.0</ele><time>2026-04-11T08:09:13.494Z</time></trkpt><trkpt lat="42.7894916" lon="12.0574808"><ele>258.0</ele><time>2026-04-11T08:09:14.486Z</time></trkpt><trkpt lat="42.7895963" lon="12.0575464"><ele>260.25</ele><time>2026-04-11T08:09:15.492Z</time></trkpt><trkpt lat="42.7896969" lon="12.0576151"><ele>262.5</ele><time>2026-04-11T08:09:16.492Z</time></trkpt><trkpt lat="42.7898075" lon="12.0576717"><ele>264.75</ele><time>2026-04-11T08:09:17.477Z</time></trkpt><trkpt lat="42.7899282" lon="12.0577051"><ele>267.0</ele><time>2026-04-11T08:09:18.485Z</time></trkpt><trkpt lat="42.7900441" lon="12.0577197"><ele>267.0</ele><time>2026-04-11T08:09:19.5Z</time></trkpt><trkpt lat="42.7901623" lon="12.0577408"><ele>267.0</ele><time>2026-04-11T08:09:20.488Z</time></trkpt><trkpt lat="42.7902893" lon="12.0577563"><ele>267.0</ele><time>2026-04-11T08:09:21.493Z</time></trkpt><trkpt lat="42.7903979" lon="12.0577711"><ele>267.0</ele><time>2026-04-11T08:09:22.494Z</time></trkpt><trkpt lat="42.7905103" lon="12.0577861"><ele>268.25</ele><time>2026-04-11T08:09:23.487Z</time></trkpt><trkpt lat="42.790633" lon="12.0577937"><ele>269.5</ele><time>2026-04-11T08:09:24.488Z</time></trkpt><trkpt lat="42.7907451" lon="12.0577932"><ele>270.75</ele><time>2026-04-11T08:09:25.483Z</time></trkpt><trkpt lat="42.7908545" lon="12.0577894"><ele>272.0</ele><time>2026-04-11T08:09:26.483Z</time></trkpt><trkpt lat="42.7909718" lon="12.0577791"><ele>272.0</ele><time>2026-04-11T08:09:27.473Z</time></trkpt><trkpt lat="42.7910816" lon="12.0577562"><ele>272.0</ele><time>2026-04-11T08:09:28.47Z</time></trkpt><trkpt lat="42.7911905" lon="12.0577364"><ele>272.0</ele><time>2026-04-11T08:09:29.481Z</time></trkpt><trkpt lat="42.791297" lon="12.0577411"><ele>272.0</ele><time>2026-04-11T08:09:30.482Z</time></trkpt><trkpt lat="42.791405" lon="12.05776"><ele>272.0</ele><time>2026-04-11T08:09:31.478Z</time></trkpt><trkpt lat="42.7914976" lon="12.0577933"><ele>272.0</ele><time>2026-04-11T08:09:32.47Z</time></trkpt><trkpt lat="42.7915914" lon="12.057827"><ele>272.0</ele><time>2026-04-11T08:09:33.475Z</time></trkpt><trkpt lat="42.7916904" lon="12.0578589"><ele>272.0</ele><time>2026-04-11T08:09:34.467Z</time></trkpt><trkpt lat="42.7918048" lon="12.0578765"><ele>272.0</ele><time>2026-04-11T08:09:35.475Z</time></trkpt><trkpt lat="42.7919031" lon="12.0578733"><ele>272.0</ele><time>2026-04-11T08:09:36.475Z</time></trkpt><trkpt lat="42.7920181" lon="12.0578539"><ele>270.4</ele><time>2026-04-11T08:09:37.489Z</time></trkpt><trkpt lat="42.7921358" lon="12.0578434"><ele>268.79999999999995</ele><time>2026-04-11T08:09:38.477Z</time></trkpt><trkpt lat="42.7922496" lon="12.057837"><ele>267.2</ele><time>2026-04-11T08:09:39.484Z</time></trkpt><trkpt lat="42.7923563" lon="12.057827"><ele>265.59999999999997</ele><time>2026-04-11T08:09:40.485Z</time></trkpt><trkpt lat="42.7924528" lon="12.0578481"><ele>264.0</ele><time>2026-04-11T08:09:41.485Z</time></trkpt><trkpt lat="42.7925585" lon="12.0578829"><ele>264.0</ele><time>2026-04-11T08:09:42.471Z</time></trkpt><trkpt lat="42.792667" lon="12.0579382"><ele>264.0</ele><time>2026-04-11T08:09:43.474Z</time></trkpt><trkpt lat="42.7927896" lon="12.0580257"><ele>264.0</ele><time>2026-04-11T08:09:44.477Z</time></trkpt><trkpt lat="42.7929128" lon="12.0581199"><ele>264.0</ele><time>2026-04-11T08:09:45.48Z</time></trkpt><trkpt lat="42.7930226" lon="12.0582016"><ele>262.75</ele><time>2026-04-11T08:09:46.481Z</time></trkpt><trkpt lat="42.7931336" lon="12.0582641"><ele>261.5</ele><time>2026-04-11T08:09:47.472Z</time></trkpt><trkpt lat="42.7932508" lon="12.0583214"><ele>260.25</ele><time>2026-04-11T08:09:48.483Z</time></trkpt><trkpt lat="42.7933642" lon="12.0583536"><ele>259.0</ele><time>2026-04-11T08:09:49.483Z</time></trkpt><trkpt lat="42.7934735" lon="12.0583781"><ele>258.75</ele><time>2026-04-11T08:09:50.499Z</time></trkpt><trkpt lat="42.7935781" lon="12.0584087"><ele>258.5</ele><time>2026-04-11T08:09:51.486Z</time></trkpt><trkpt lat="42.7936971" lon="12.0584394"><ele>258.25</ele><time>2026-04-11T08:09:52.492Z</time></trkpt><trkpt lat="42.7938109" lon="12.0584532"><ele>258.0</ele><time>2026-04-11T08:09:53.484Z</time></trkpt><trkpt lat="42.7939186" lon="12.0584671"><ele>258.0</ele><time>2026-04-11T08:09:54.485Z</time></trkpt><trkpt lat="42.7940417" lon="12.0584676"><ele>258.0</ele><time>2026-04-11T08:09:55.491Z</time></trkpt><trkpt lat="42.7941655" lon="12.0584527"><ele>258.0</ele><time>2026-04-11T08:09:56.489Z</time></trkpt><trkpt lat="42.7942872" lon="12.0584403"><ele>258.0</ele><time>2026-04-11T08:09:57.487Z</time></trkpt><trkpt lat="42.794417" lon="12.0584451"><ele>257.5</ele><time>2026-04-11T08:09:58.483Z</time></trkpt><trkpt lat="42.7945452" lon="12.0584482"><ele>257.0</ele><time>2026-04-11T08:09:59.493Z</time></trkpt><trkpt lat="42.7946688" lon="12.058452"><ele>256.5</ele><time>2026-04-11T08:10:00.495Z</time></trkpt><trkpt lat="42.7948004" lon="12.0584602"><ele>256.0</ele><time>2026-04-11T08:10:01.491Z</time></trkpt><trkpt lat="42.7949318" lon="12.0584699"><ele>256.0</ele><time>2026-04-11T08:10:02.494Z</time></trkpt><trkpt lat="42.7950664" lon="12.058473"><ele>256.0</ele><time>2026-04-11T08:10:03.496Z</time></trkpt><trkpt lat="42.7951876" lon="12.0584649"><ele>256.0</ele><time>2026-04-11T08:10:04.496Z</time></trkpt><trkpt lat="42.7953247" lon="12.0584645"><ele>256.0</ele><time>2026-04-11T08:10:05.501Z</time></trkpt><trkpt lat="42.7954461" lon="12.0584579"><ele>256.75</ele><time>2026-04-11T08:10:06.492Z</time></trkpt><trkpt lat="42.7955582" lon="12.0584562"><ele>257.5</ele><time>2026-04-11T08:10:07.496Z</time></trkpt><trkpt lat="42.7956789" lon="12.0584598"><ele>258.25</ele><time>2026-04-11T08:10:08.495Z</time></trkpt><trkpt lat="42.7957887" lon="12.0584577"><ele>259.0</ele><time>2026-04-11T08:10:09.492Z</time></trkpt><trkpt lat="42.7959097" lon="12.0584524"><ele>259.75</ele><time>2026-04-11T08:10:10.497Z</time></trkpt><trkpt lat="42.79602" lon="12.0584519"><ele>260.5</ele><time>2026-04-11T08:10:11.492Z</time></trkpt><trkpt lat="42.7961281" lon="12.0584554"><ele>261.25</ele><time>2026-04-11T08:10:12.489Z</time></trkpt><trkpt lat="42.7962555" lon="12.0584769"><ele>262.0</ele><time>2026-04-11T08:10:13.495Z</time></trkpt><trkpt lat="42.7963706" lon="12.0585268"><ele>262.0</ele><time>2026-04-11T08:10:14.49Z</time></trkpt><trkpt lat="42.7964876" lon="12.0585663"><ele>262.0</ele><time>2026-04-11T08:10:15.482Z</time></trkpt><trkpt lat="42.7966002" lon="12.0585947"><ele>262.0</ele><time>2026-04-11T08:10:16.472Z</time></trkpt><trkpt lat="42.7967093" lon="12.0586249"><ele>262.0</ele><time>2026-04-11T08:10:17.485Z</time></trkpt><trkpt lat="42.796812" lon="12.0586772"><ele>260.8</ele><time>2026-04-11T08:10:18.475Z</time></trkpt><trkpt lat="42.7969087" lon="12.0587335"><ele>259.6</ele><time>2026-04-11T08:10:19.482Z</time></trkpt><trkpt lat="42.7970066" lon="12.0587867"><ele>258.40000000000003</ele><time>2026-04-11T08:10:20.482Z</time></trkpt><trkpt lat="42.7971026" lon="12.0588329"><ele>257.2</ele><time>2026-04-11T08:10:21.493Z</time></trkpt><trkpt lat="42.797185" lon="12.0588627"><ele>256.0</ele><time>2026-04-11T08:10:22.474Z</time></trkpt><trkpt lat="42.7972543" lon="12.0588891"><ele>256.0</ele><time>2026-04-11T08:10:23.474Z</time></trkpt><trkpt lat="42.7973637" lon="12.0588931"><ele>256.0</ele><time>2026-04-11T08:10:25.479Z</time></trkpt><trkpt lat="42.7973949" lon="12.0587899"><ele>256.0</ele><time>2026-04-11T08:10:28.491Z</time></trkpt><trkpt lat="42.7973572" lon="12.058703"><ele>256.0</ele><time>2026-04-11T08:10:30.488Z</time></trkpt><trkpt lat="42.797282" lon="12.0586123"><ele>256.0</ele><time>2026-04-11T08:10:32.491Z</time></trkpt><trkpt lat="42.7972541" lon="12.0584435"><ele>255.99999999999997</ele><time>2026-04-11T08:10:34.475Z</time></trkpt><trkpt lat="42.7972616" lon="12.0583489"><ele>256.0</ele><time>2026-04-11T08:10:35.472Z</time></trkpt><trkpt lat="42.7972847" lon="12.0582409"><ele>256.0</ele><time>2026-04-11T08:10:36.467Z</time></trkpt><trkpt lat="42.7973363" lon="12.0581581"><ele>256.0</ele><time>2026-04-11T08:10:37.462Z</time></trkpt><trkpt lat="42.797399" lon="12.0580978"><ele>255.99999999999997</ele><time>2026-04-11T08:10:38.462Z</time></trkpt><trkpt lat="42.7974816" lon="12.0580518"><ele>256.0</ele><time>2026-04-11T08:10:39.465Z</time></trkpt><trkpt lat="42.7975927" lon="12.0579881"><ele>255.20000000000002</ele><time>2026-04-11T08:10:40.472Z</time></trkpt><trkpt lat="42.797688" lon="12.0578932"><ele>254.40000000000003</ele><time>2026-04-11T08:10:41.47Z</time></trkpt><trkpt lat="42.7977596" lon="12.0577922"><ele>253.6</ele><time>2026-04-11T08:10:42.471Z</time></trkpt><trkpt lat="42.797773" lon="12.0576775"><ele>252.8</ele><time>2026-04-11T08:10:43.465Z</time></trkpt><trkpt lat="42.7977634" lon="12.0575504"><ele>252.0</ele><time>2026-04-11T08:10:44.451Z</time></trkpt><trkpt lat="42.7977149" lon="12.0574463"><ele>247.5</ele><time>2026-04-11T08:10:45.453Z</time></trkpt><trkpt lat="42.7976208" lon="12.0573694"><ele>243.0</ele><time>2026-04-11T08:10:46.471Z</time></trkpt><trkpt lat="42.797496" lon="12.0573113"><ele>238.5</ele><time>2026-04-11T08:10:47.458Z</time></trkpt><trkpt lat="42.7973403" lon="12.057245"><ele>234.0</ele><time>2026-04-11T08:10:48.474Z</time></trkpt><trkpt lat="42.7971942" lon="12.0571374"><ele>234.0</ele><time>2026-04-11T08:10:49.466Z</time></trkpt><trkpt lat="42.7970573" lon="12.0570008"><ele>234.0</ele><time>2026-04-11T08:10:50.469Z</time></trkpt><trkpt lat="42.7969343" lon="12.0568036"><ele>234.0</ele><time>2026-04-11T08:10:51.467Z</time></trkpt><trkpt lat="42.7969011" lon="12.0565893"><ele>234.25</ele><time>2026-04-11T08:10:52.492Z</time></trkpt><trkpt lat="42.7968763" lon="12.0563911"><ele>234.5</ele><time>2026-04-11T08:10:53.474Z</time></trkpt><trkpt lat="42.7968583" lon="12.0561832"><ele>234.75</ele><time>2026-04-11T08:10:54.472Z</time></trkpt><trkpt lat="42.7968392" lon="12.0559856"><ele>235.0</ele><time>2026-04-11T08:10:55.469Z</time></trkpt><trkpt lat="42.7968097" lon="12.0557878"><ele>232.0</ele><time>2026-04-11T08:10:56.477Z</time></trkpt><trkpt lat="42.7967507" lon="12.0556236"><ele>229.0</ele><time>2026-04-11T08:10:57.468Z</time></trkpt><trkpt lat="42.7966931" lon="12.0554549"><ele>226.0</ele><time>2026-04-11T08:10:58.472Z</time></trkpt><trkpt lat="42.7966033" lon="12.0552798"><ele>223.0</ele><time>2026-04-11T08:10:59.484Z</time></trkpt><trkpt lat="42.7965149" lon="12.055092"><ele>221.5</ele><time>2026-04-11T08:11:00.477Z</time></trkpt><trkpt lat="42.7964246" lon="12.0549194"><ele>220.0</ele><time>2026-04-11T08:11:01.481Z</time></trkpt><trkpt lat="42.7963309" lon="12.0547494"><ele>218.5</ele><time>2026-04-11T08:11:02.475Z</time></trkpt><trkpt lat="42.7962513" lon="12.054603"><ele>217.0</ele><time>2026-04-11T08:11:03.483Z</time></trkpt><trkpt lat="42.7961921" lon="12.0544521"><ele>217.0</ele><time>2026-04-11T08:11:04.482Z</time></trkpt><trkpt lat="42.7961527" lon="12.0543041"><ele>217.0</ele><time>2026-04-11T08:11:05.477Z</time></trkpt><trkpt lat="42.796157" lon="12.0541617"><ele>217.0</ele><time>2026-04-11T08:11:06.497Z</time></trkpt><trkpt lat="42.7962271" lon="12.0540297"><ele>217.0</ele><time>2026-04-11T08:11:07.501Z</time></trkpt><trkpt lat="42.7963396" lon="12.0539304"><ele>215.0</ele><time>2026-04-11T08:11:08.489Z</time></trkpt><trkpt lat="42.7964716" lon="12.0539055"><ele>213.0</ele><time>2026-04-11T08:11:09.489Z</time></trkpt><trkpt lat="42.796601" lon="12.0539107"><ele>211.0</ele><time>2026-04-11T08:11:10.471Z</time></trkpt><trkpt lat="42.7967332" lon="12.0539459"><ele>209.0</ele><time>2026-04-11T08:11:11.475Z</time></trkpt><trkpt lat="42.7968633" lon="12.0539465"><ele>207.6</ele><time>2026-04-11T08:11:12.479Z</time></trkpt><trkpt lat="42.7969739" lon="12.0538916"><ele>206.2</ele><time>2026-04-11T08:11:13.476Z</time></trkpt><trkpt lat="42.7970535" lon="12.0537898"><ele>204.79999999999998</ele><time>2026-04-11T08:11:14.472Z</time></trkpt><trkpt lat="42.7970905" lon="12.0536612"><ele>203.39999999999998</ele><time>2026-04-11T08:11:15.455Z</time></trkpt><trkpt lat="42.7970854" lon="12.0535523"><ele>202.0</ele><time>2026-04-11T08:11:16.46Z</time></trkpt><trkpt lat="42.7970284" lon="12.0534237"><ele>202.0</ele><time>2026-04-11T08:11:17.46Z</time></trkpt><trkpt lat="42.7969456" lon="12.053352"><ele>202.0</ele><time>2026-04-11T08:11:18.463Z</time></trkpt><trkpt lat="42.7968028" lon="12.0533311"><ele>202.0</ele><time>2026-04-11T08:11:19.457Z</time></trkpt><trkpt lat="42.7966427" lon="12.0533182"><ele>202.0</ele><time>2026-04-11T08:11:20.451Z</time></trkpt><trkpt lat="42.7964784" lon="12.0532793"><ele>200.5</ele><time>2026-04-11T08:11:21.452Z</time></trkpt><trkpt lat="42.7963219" lon="12.0532211"><ele>199.0</ele><time>2026-04-11T08:11:22.465Z</time></trkpt><trkpt lat="42.7962003" lon="12.0531467"><ele>197.5</ele><time>2026-04-11T08:11:23.469Z</time></trkpt><trkpt lat="42.7960768" lon="12.0531012"><ele>196.0</ele><time>2026-04-11T08:11:24.467Z</time></trkpt><trkpt lat="42.7959586" lon="12.0530895"><ele>197.0</ele><time>2026-04-11T08:11:25.464Z</time></trkpt><trkpt lat="42.795829" lon="12.0531483"><ele>198.0</ele><time>2026-04-11T08:11:26.462Z</time></trkpt><trkpt lat="42.7957038" lon="12.0533105"><ele>199.0</ele><time>2026-04-11T08:11:27.463Z</time></trkpt><trkpt lat="42.7956248" lon="12.0535612"><ele>199.0</ele><time>2026-04-11T08:11:28.471Z</time></trkpt><trkpt lat="42.7955723" lon="12.0537673"><ele>199.0</ele><time>2026-04-11T08:11:29.455Z</time></trkpt><trkpt lat="42.7955201" lon="12.0539594"><ele>199.0</ele><time>2026-04-11T08:11:30.451Z</time></trkpt><trkpt lat="42.7954797" lon="12.0541185"><ele>199.0</ele><time>2026-04-11T08:11:31.456Z</time></trkpt><trkpt lat="42.7954339" lon="12.0542328"><ele>199.0</ele><time>2026-04-11T08:11:32.463Z</time></trkpt><trkpt lat="42.7953719" lon="12.0542972"><ele>199.0</ele><time>2026-04-11T08:11:33.483Z</time></trkpt><trkpt lat="42.7952966" lon="12.0542625"><ele>199.0</ele><time>2026-04-11T08:11:34.459Z</time></trkpt><trkpt lat="42.7952205" lon="12.054156"><ele>199.0</ele><time>2026-04-11T08:11:35.464Z</time></trkpt><trkpt lat="42.7951865" lon="12.0539727"><ele>199.0</ele><time>2026-04-11T08:11:36.458Z</time></trkpt><trkpt lat="42.7951965" lon="12.053729"><ele>199.0</ele><time>2026-04-11T08:11:37.456Z</time></trkpt><trkpt lat="42.7952287" lon="12.0534462"><ele>199.0</ele><time>2026-04-11T08:11:38.447Z</time></trkpt><trkpt lat="42.79523" lon="12.05312"><ele>199.0</ele><time>2026-04-11T08:11:39.46Z</time></trkpt><trkpt lat="42.7952353" lon="12.0527147"><ele>193.0</ele><time>2026-04-11T08:11:40.458Z</time></trkpt><trkpt lat="42.7952511" lon="12.0524202"><ele>187.0</ele><time>2026-04-11T08:11:41.462Z</time></trkpt><trkpt lat="42.7953108" lon="12.052165"><ele>181.0</ele><time>2026-04-11T08:11:42.464Z</time></trkpt><trkpt lat="42.7953855" lon="12.0519105"><ele>181.0</ele><time>2026-04-11T08:11:43.469Z</time></trkpt><trkpt lat="42.7954528" lon="12.0516936"><ele>181.0</ele><time>2026-04-11T08:11:44.463Z</time></trkpt><trkpt lat="42.7955258" lon="12.0514749"><ele>181.0</ele><time>2026-04-11T08:11:45.482Z</time></trkpt><trkpt lat="42.7955825" lon="12.0512435"><ele>178.33333333333334</ele><time>2026-04-11T08:11:46.473Z</time></trkpt><trkpt lat="42.7956235" lon="12.0510417"><ele>175.66666666666666</ele><time>2026-04-11T08:11:47.476Z</time></trkpt><trkpt lat="42.79565" lon="12.0508226"><ele>173.0</ele><time>2026-04-11T08:11:48.478Z</time></trkpt><trkpt lat="42.7956332" lon="12.0506117"><ele>171.66666666666666</ele><time>2026-04-11T08:11:49.479Z</time></trkpt><trkpt lat="42.7955905" lon="12.0504091"><ele>170.33333333333334</ele><time>2026-04-11T08:11:50.478Z</time></trkpt><trkpt lat="42.795519" lon="12.0502117"><ele>169.0</ele><time>2026-04-11T08:11:51.479Z</time></trkpt><trkpt lat="42.795418" lon="12.0500356"><ele>168.33333333333334</ele><time>2026-04-11T08:11:52.477Z</time></trkpt><trkpt lat="42.7953013" lon="12.0498808"><ele>167.66666666666666</ele><time>2026-04-11T08:11:53.51Z</time></trkpt><trkpt lat="42.7951846" lon="12.0497208"><ele>167.0</ele><time>2026-04-11T08:11:54.491Z</time></trkpt><trkpt lat="42.7950468" lon="12.0495526"><ele>167.0</ele><time>2026-04-11T08:11:55.488Z</time></trkpt><trkpt lat="42.7948955" lon="12.0493915"><ele>167.0</ele><time>2026-04-11T08:11:56.487Z</time></trkpt><trkpt lat="42.794735" lon="12.0492503"><ele>167.0</ele><time>2026-04-11T08:11:57.487Z</time></trkpt><trkpt lat="42.7945536" lon="12.0491793"><ele>167.0</ele><time>2026-04-11T08:11:58.483Z</time></trkpt><trkpt lat="42.794352" lon="12.0491762"><ele>167.0</ele><time>2026-04-11T08:11:59.467Z</time></trkpt><trkpt lat="42.7941649" lon="12.0491913"><ele>167.0</ele><time>2026-04-11T08:12:00.46Z</time></trkpt><trkpt lat="42.7939511" lon="12.0492335"><ele>166.0</ele><time>2026-04-11T08:12:01.468Z</time></trkpt><trkpt lat="42.7937081" lon="12.0492857"><ele>165.0</ele><time>2026-04-11T08:12:02.466Z</time></trkpt><trkpt lat="42.7934671" lon="12.0493247"><ele>164.5</ele><time>2026-04-11T08:12:03.47Z</time></trkpt><trkpt lat="42.7932221" lon="12.0493625"><ele>164.0</ele><time>2026-04-11T08:12:04.455Z</time></trkpt><trkpt lat="42.792981" lon="12.0494299"><ele>164.0</ele><time>2026-04-11T08:12:05.456Z</time></trkpt><trkpt lat="42.7927096" lon="12.0494799"><ele>164.0</ele><time>2026-04-11T08:12:06.455Z</time></trkpt><trkpt lat="42.7924138" lon="12.0495094"><ele>162.5</ele><time>2026-04-11T08:12:07.458Z</time></trkpt><trkpt lat="42.7921246" lon="12.0495614"><ele>161.0</ele><time>2026-04-11T08:12:08.451Z</time></trkpt><trkpt lat="42.7918685" lon="12.0496165"><ele>160.33333333333331</ele><time>2026-04-11T08:12:09.457Z</time></trkpt><trkpt lat="42.7916574" lon="12.0496542"><ele>159.66666666666666</ele><time>2026-04-11T08:12:10.462Z</time></trkpt><trkpt lat="42.7914489" lon="12.0497193"><ele>159.0</ele><time>2026-04-11T08:12:11.447Z</time></trkpt><trkpt lat="42.7912624" lon="12.0497282"><ele>159.0</ele><time>2026-04-11T08:12:12.455Z</time></trkpt><trkpt lat="42.7911738" lon="12.0496369"><ele>159.0</ele><time>2026-04-11T08:12:13.475Z</time></trkpt><trkpt lat="42.791107" lon="12.0494559"><ele>159.0</ele><time>2026-04-11T08:12:14.445Z</time></trkpt><trkpt lat="42.7910807" lon="12.0492038"><ele>159.0</ele><time>2026-04-11T08:12:15.455Z</time></trkpt><trkpt lat="42.7910305" lon="12.0490118"><ele>160.0</ele><time>2026-04-11T08:12:16.456Z</time></trkpt><trkpt lat="42.7909751" lon="12.0488375"><ele>161.0</ele><time>2026-04-11T08:12:17.453Z</time></trkpt><trkpt lat="42.7909105" lon="12.0486793"><ele>162.0</ele><time>2026-04-11T08:12:18.458Z</time></trkpt><trkpt lat="42.7908488" lon="12.0485425"><ele>163.0</ele><time>2026-04-11T08:12:19.467Z</time></trkpt><trkpt lat="42.7908138" lon="12.0483882"><ele>163.5</ele><time>2026-04-11T08:12:20.472Z</time></trkpt><trkpt lat="42.7907744" lon="12.0482426"><ele>164.0</ele><time>2026-04-11T08:12:21.482Z</time></trkpt><trkpt lat="42.7907367" lon="12.0480748"><ele>164.5</ele><time>2026-04-11T08:12:22.48Z</time></trkpt><trkpt lat="42.7907318" lon="12.0478952"><ele>165.0</ele><time>2026-04-11T08:12:23.497Z</time></trkpt><trkpt lat="42.7907308" lon="12.0477114"><ele>165.0</ele><time>2026-04-11T08:12:24.506Z</time></trkpt><trkpt lat="42.7907164" lon="12.047533"><ele>165.0</ele><time>2026-04-11T08:12:25.493Z</time></trkpt><trkpt lat="42.7907098" lon="12.0473571"><ele>165.0</ele><time>2026-04-11T08:12:26.496Z</time></trkpt><trkpt lat="42.7907022" lon="12.0471926"><ele>165.0</ele><time>2026-04-11T08:12:27.486Z</time></trkpt><trkpt lat="42.790677" lon="12.0470463"><ele>167.5</ele><time>2026-04-11T08:12:28.483Z</time></trkpt><trkpt lat="42.790627" lon="12.0469098"><ele>170.0</ele><time>2026-04-11T08:12:29.473Z</time></trkpt><trkpt lat="42.7905673" lon="12.0467997"><ele>172.5</ele><time>2026-04-11T08:12:30.468Z</time></trkpt><trkpt lat="42.7904781" lon="12.0467295"><ele>175.0</ele><time>2026-04-11T08:12:31.471Z</time></trkpt><trkpt lat="42.7903373" lon="12.0467382"><ele>175.0</ele><time>2026-04-11T08:12:32.471Z</time></trkpt><trkpt lat="42.7901831" lon="12.0467791"><ele>175.0</ele><time>2026-04-11T08:12:33.456Z</time></trkpt><trkpt lat="42.7900165" lon="12.0468493"><ele>175.0</ele><time>2026-04-11T08:12:34.462Z</time></trkpt><trkpt lat="42.7898575" lon="12.0469201"><ele>175.66666666666669</ele><time>2026-04-11T08:12:35.455Z</time></trkpt><trkpt lat="42.789655" lon="12.0470148"><ele>176.33333333333334</ele><time>2026-04-11T08:12:36.466Z</time></trkpt><trkpt lat="42.7894879" lon="12.0470368"><ele>177.0</ele><time>2026-04-11T08:12:37.471Z</time></trkpt><trkpt lat="42.7893319" lon="12.0470108"><ele>177.2</ele><time>2026-04-11T08:12:38.477Z</time></trkpt><trkpt lat="42.7892108" lon="12.0470003"><ele>177.39999999999998</ele><time>2026-04-11T08:12:39.479Z</time></trkpt><trkpt lat="42.7890639" lon="12.0469721"><ele>177.60000000000002</ele><time>2026-04-11T08:12:40.469Z</time></trkpt><trkpt lat="42.7889899" lon="12.0469063"><ele>177.8</ele><time>2026-04-11T08:12:41.468Z</time></trkpt><trkpt lat="42.788969" lon="12.0467902"><ele>178.0</ele><time>2026-04-11T08:12:42.472Z</time></trkpt><trkpt lat="42.7889898" lon="12.0466775"><ele>180.75</ele><time>2026-04-11T08:12:43.483Z</time></trkpt><trkpt lat="42.7890754" lon="12.0465717"><ele>183.5</ele><time>2026-04-11T08:12:44.463Z</time></trkpt><trkpt lat="42.7892033" lon="12.0464669"><ele>186.25</ele><time>2026-04-11T08:12:45.473Z</time></trkpt><trkpt lat="42.7893262" lon="12.0464367"><ele>189.0</ele><time>2026-04-11T08:12:46.472Z</time></trkpt><trkpt lat="42.7894254" lon="12.0464075"><ele>189.0</ele><time>2026-04-11T08:12:47.471Z</time></trkpt><trkpt lat="42.789528" lon="12.0463659"><ele>189.0</ele><time>2026-04-11T08:12:48.472Z</time></trkpt><trkpt lat="42.789635" lon="12.046306"><ele>189.0</ele><time>2026-04-11T08:12:49.463Z</time></trkpt><trkpt lat="42.789735" lon="12.0462106"><ele>189.0</ele><time>2026-04-11T08:12:50.478Z</time></trkpt><trkpt lat="42.7898296" lon="12.0460878"><ele>189.0</ele><time>2026-04-11T08:12:51.471Z</time></trkpt><trkpt lat="42.7899279" lon="12.0459574"><ele>189.0</ele><time>2026-04-11T08:12:52.467Z</time></trkpt><trkpt lat="42.7900364" lon="12.0458232"><ele>189.0</ele><time>2026-04-11T08:12:53.479Z</time></trkpt><trkpt lat="42.7901384" lon="12.0456783"><ele>189.0</ele><time>2026-04-11T08:12:54.479Z</time></trkpt><trkpt lat="42.7902617" lon="12.0455706"><ele>189.39999999999998</ele><time>2026-04-11T08:12:55.486Z</time></trkpt><trkpt lat="42.790345" lon="12.0454515"><ele>189.8</ele><time>2026-04-11T08:12:56.47Z</time></trkpt><trkpt lat="42.7903966" lon="12.0453374"><ele>190.2</ele><time>2026-04-11T08:12:57.461Z</time></trkpt><trkpt lat="42.7903883" lon="12.045225"><ele>190.60000000000002</ele><time>2026-04-11T08:12:58.462Z</time></trkpt><trkpt lat="42.7903401" lon="12.0451098"><ele>191.0</ele><time>2026-04-11T08:12:59.468Z</time></trkpt><trkpt lat="42.7902576" lon="12.0450474"><ele>193.25</ele><time>2026-04-11T08:13:00.456Z</time></trkpt><trkpt lat="42.7901671" lon="12.0450218"><ele>195.5</ele><time>2026-04-11T08:13:01.464Z</time></trkpt><trkpt lat="42.7900416" lon="12.0450517"><ele>197.75</ele><time>2026-04-11T08:13:02.459Z</time></trkpt><trkpt lat="42.7899186" lon="12.045127"><ele>200.0</ele><time>2026-04-11T08:13:03.465Z</time></trkpt><trkpt lat="42.7897835" lon="12.0452128"><ele>200.0</ele><time>2026-04-11T08:13:04.463Z</time></trkpt><trkpt lat="42.789648" lon="12.0452798"><ele>200.0</ele><time>2026-04-11T08:13:05.461Z</time></trkpt><trkpt lat="42.7895009" lon="12.0453538"><ele>200.0</ele><time>2026-04-11T08:13:06.468Z</time></trkpt><trkpt lat="42.7893505" lon="12.0454169"><ele>201.33333333333334</ele><time>2026-04-11T08:13:07.469Z</time></trkpt><trkpt lat="42.7891642" lon="12.0454494"><ele>202.66666666666669</ele><time>2026-04-11T08:13:08.473Z</time></trkpt><trkpt lat="42.7890073" lon="12.0455014"><ele>204.0</ele><time>2026-04-11T08:13:09.472Z</time></trkpt><trkpt lat="42.7888459" lon="12.0454479"><ele>204.0</ele><time>2026-04-11T08:13:10.468Z</time></trkpt><trkpt lat="42.7887127" lon="12.0453595"><ele>204.0</ele><time>2026-04-11T08:13:11.49Z</time></trkpt><trkpt lat="42.7886005" lon="12.045216"><ele>204.0</ele><time>2026-04-11T08:13:12.478Z</time></trkpt><trkpt lat="42.7884956" lon="12.0450481"><ele>207.33333333333331</ele><time>2026-04-11T08:13:13.478Z</time></trkpt><trkpt lat="42.7883911" lon="12.0448937"><ele>210.66666666666666</ele><time>2026-04-11T08:13:14.473Z</time></trkpt><trkpt lat="42.7882872" lon="12.044736"><ele>214.0</ele><time>2026-04-11T08:13:15.48Z</time></trkpt><trkpt lat="42.788178" lon="12.0445524"><ele>214.0</ele><time>2026-04-11T08:13:16.482Z</time></trkpt><trkpt lat="42.7880593" lon="12.0443884"><ele>214.0</ele><time>2026-04-11T08:13:17.481Z</time></trkpt><trkpt lat="42.7879357" lon="12.044208"><ele>214.0</ele><time>2026-04-11T08:13:18.485Z</time></trkpt><trkpt lat="42.7877982" lon="12.0440426"><ele>215.66666666666666</ele><time>2026-04-11T08:13:19.482Z</time></trkpt><trkpt lat="42.7876573" lon="12.0439033"><ele>217.33333333333331</ele><time>2026-04-11T08:13:20.479Z</time></trkpt><trkpt lat="42.7874963" lon="12.0437973"><ele>219.0</ele><time>2026-04-11T08:13:21.475Z</time></trkpt><trkpt lat="42.7873322" lon="12.0437252"><ele>219.0</ele><time>2026-04-11T08:13:22.477Z</time></trkpt><trkpt lat="42.7871367" lon="12.0436925"><ele>219.0</ele><time>2026-04-11T08:13:23.478Z</time></trkpt><trkpt lat="42.7869417" lon="12.0436833"><ele>219.0</ele><time>2026-04-11T08:13:24.483Z</time></trkpt><trkpt lat="42.7867845" lon="12.0436908"><ele>218.0</ele><time>2026-04-11T08:13:25.471Z</time></trkpt><trkpt lat="42.7866374" lon="12.0436895"><ele>217.0</ele><time>2026-04-11T08:13:26.484Z</time></trkpt><trkpt lat="42.7865029" lon="12.0436862"><ele>216.0</ele><time>2026-04-11T08:13:27.469Z</time></trkpt><trkpt lat="42.7863892" lon="12.0435795"><ele>215.0</ele><time>2026-04-11T08:13:28.478Z</time></trkpt><trkpt lat="42.7862753" lon="12.0434327"><ele>215.0</ele><time>2026-04-11T08:13:29.478Z</time></trkpt><trkpt lat="42.7861735" lon="12.0433045"><ele>215.0</ele><time>2026-04-11T08:13:30.482Z</time></trkpt><trkpt lat="42.7860922" lon="12.0431747"><ele>215.0</ele><time>2026-04-11T08:13:31.492Z</time></trkpt><trkpt lat="42.7859923" lon="12.0430385"><ele>215.0</ele><time>2026-04-11T08:13:32.476Z</time></trkpt><trkpt lat="42.7858808" lon="12.0429002"><ele>213.75</ele><time>2026-04-11T08:13:33.49Z</time></trkpt><trkpt lat="42.7857825" lon="12.0427756"><ele>212.5</ele><time>2026-04-11T08:13:34.483Z</time></trkpt><trkpt lat="42.7856773" lon="12.042654"><ele>211.25</ele><time>2026-04-11T08:13:35.482Z</time></trkpt><trkpt lat="42.7856016" lon="12.0425038"><ele>210.0</ele><time>2026-04-11T08:13:36.472Z</time></trkpt><trkpt lat="42.7855635" lon="12.0423658"><ele>209.0</ele><time>2026-04-11T08:13:37.483Z</time></trkpt><trkpt lat="42.7855555" lon="12.042181"><ele>208.0</ele><time>2026-04-11T08:13:38.475Z</time></trkpt><trkpt lat="42.7855659" lon="12.0420256"><ele>207.0</ele><time>2026-04-11T08:13:39.469Z</time></trkpt><trkpt lat="42.7856135" lon="12.0418548"><ele>206.0</ele><time>2026-04-11T08:13:40.46Z</time></trkpt><trkpt lat="42.7856982" lon="12.0416822"><ele>205.75</ele><time>2026-04-11T08:13:41.465Z</time></trkpt><trkpt lat="42.7857659" lon="12.0415145"><ele>205.5</ele><time>2026-04-11T08:13:42.465Z</time></trkpt><trkpt lat="42.7858043" lon="12.0413508"><ele>205.25</ele><time>2026-04-11T08:13:43.458Z</time></trkpt><trkpt lat="42.7858214" lon="12.0412097"><ele>205.0</ele><time>2026-04-11T08:13:44.449Z</time></trkpt><trkpt lat="42.7858077" lon="12.0410525"><ele>205.0</ele><time>2026-04-11T08:13:45.441Z</time></trkpt><trkpt lat="42.7857581" lon="12.0409033"><ele>205.0</ele><time>2026-04-11T08:13:46.466Z</time></trkpt><trkpt lat="42.785631" lon="12.0407389"><ele>205.0</ele><time>2026-04-11T08:13:47.464Z</time></trkpt><trkpt lat="42.7854639" lon="12.0405955"><ele>204.66666666666666</ele><time>2026-04-11T08:13:48.459Z</time></trkpt><trkpt lat="42.785331" lon="12.0404443"><ele>204.33333333333331</ele><time>2026-04-11T08:13:49.466Z</time></trkpt><trkpt lat="42.7851869" lon="12.0402969"><ele>204.0</ele><time>2026-04-11T08:13:50.463Z</time></trkpt><trkpt lat="42.7851189" lon="12.040119"><ele>202.5</ele><time>2026-04-11T08:13:51.471Z</time></trkpt><trkpt lat="42.7851401" lon="12.0399114"><ele>201.0</ele><time>2026-04-11T08:13:52.465Z</time></trkpt><trkpt lat="42.7851597" lon="12.0397305"><ele>199.5</ele><time>2026-04-11T08:13:53.465Z</time></trkpt><trkpt lat="42.7852276" lon="12.0395614"><ele>198.0</ele><time>2026-04-11T08:13:54.467Z</time></trkpt><trkpt lat="42.7852919" lon="12.0393875"><ele>198.0</ele><time>2026-04-11T08:13:55.478Z</time></trkpt><trkpt lat="42.7853631" lon="12.0391541"><ele>198.0</ele><time>2026-04-11T08:13:56.473Z</time></trkpt><trkpt lat="42.7853944" lon="12.0389121"><ele>198.0</ele><time>2026-04-11T08:13:57.486Z</time></trkpt><trkpt lat="42.7853618" lon="12.0386816"><ele>196.66666666666669</ele><time>2026-04-11T08:13:58.482Z</time></trkpt><trkpt lat="42.7852947" lon="12.0384357"><ele>195.33333333333334</ele><time>2026-04-11T08:13:59.475Z</time></trkpt><trkpt lat="42.78527" lon="12.0382185"><ele>194.0</ele><time>2026-04-11T08:14:00.483Z</time></trkpt><trkpt lat="42.7852596" lon="12.0380046"><ele>192.75</ele><time>2026-04-11T08:14:01.47Z</time></trkpt><trkpt lat="42.785253" lon="12.0378001"><ele>191.5</ele><time>2026-04-11T08:14:02.484Z</time></trkpt><trkpt lat="42.7852514" lon="12.0376073"><ele>190.25</ele><time>2026-04-11T08:14:03.477Z</time></trkpt><trkpt lat="42.7852573" lon="12.0374299"><ele>189.0</ele><time>2026-04-11T08:14:04.474Z</time></trkpt><trkpt lat="42.7852496" lon="12.0372528"><ele>187.5</ele><time>2026-04-11T08:14:05.468Z</time></trkpt><trkpt lat="42.7852644" lon="12.0370898"><ele>186.0</ele><time>2026-04-11T08:14:06.463Z</time></trkpt><trkpt lat="42.7852643" lon="12.0369514"><ele>184.5</ele><time>2026-04-11T08:14:07.462Z</time></trkpt><trkpt lat="42.7852471" lon="12.0368077"><ele>183.0</ele><time>2026-04-11T08:14:08.454Z</time></trkpt><trkpt lat="42.7851678" lon="12.0366818"><ele>181.60000000000002</ele><time>2026-04-11T08:14:09.451Z</time></trkpt><trkpt lat="42.7850952" lon="12.0366441"><ele>180.20000000000002</ele><time>2026-04-11T08:14:10.456Z</time></trkpt><trkpt lat="42.7850198" lon="12.0366997"><ele>178.8</ele><time>2026-04-11T08:14:11.451Z</time></trkpt><trkpt lat="42.7848824" lon="12.0367818"><ele>177.4</ele><time>2026-04-11T08:14:12.457Z</time></trkpt><trkpt lat="42.784798" lon="12.0369189"><ele>176.0</ele><time>2026-04-11T08:14:13.448Z</time></trkpt><trkpt lat="42.7847103" lon="12.0370448"><ele>176.0</ele><time>2026-04-11T08:14:14.453Z</time></trkpt><trkpt lat="42.7845962" lon="12.0371434"><ele>176.0</ele><time>2026-04-11T08:14:15.46Z</time></trkpt><trkpt lat="42.7844823" lon="12.0372682"><ele>176.0</ele><time>2026-04-11T08:14:16.465Z</time></trkpt><trkpt lat="42.784372" lon="12.0373998"><ele>176.0</ele><time>2026-04-11T08:14:17.464Z</time></trkpt><trkpt lat="42.7842891" lon="12.0375722"><ele>174.20000000000002</ele><time>2026-04-11T08:14:18.482Z</time></trkpt><trkpt lat="42.7842325" lon="12.0377055"><ele>172.4</ele><time>2026-04-11T08:14:19.475Z</time></trkpt><trkpt lat="42.7841874" lon="12.037834"><ele>170.6</ele><time>2026-04-11T08:14:20.478Z</time></trkpt><trkpt lat="42.7841528" lon="12.0379364"><ele>168.8</ele><time>2026-04-11T08:14:21.461Z</time></trkpt><trkpt lat="42.7841108" lon="12.0380295"><ele>167.0</ele><time>2026-04-11T08:14:22.465Z</time></trkpt><trkpt lat="42.7840671" lon="12.0381175"><ele>167.0</ele><time>2026-04-11T08:14:23.467Z</time></trkpt><trkpt lat="42.783983" lon="12.0382201"><ele>167.0</ele><time>2026-04-11T08:14:25.462Z</time></trkpt><trkpt lat="42.7838635" lon="12.0381957"><ele>167.0</ele><time>2026-04-11T08:14:27.443Z</time></trkpt><trkpt lat="42.7837962" lon="12.0381704"><ele>167.0</ele><time>2026-04-11T08:14:28.436Z</time></trkpt><trkpt lat="42.7837247" lon="12.0380853"><ele>167.0</ele><time>2026-04-11T08:14:29.419Z</time></trkpt><trkpt lat="42.7836556" lon="12.037933"><ele>167.0</ele><time>2026-04-11T08:14:30.432Z</time></trkpt><trkpt lat="42.7835888" lon="12.0378188"><ele>167.0</ele><time>2026-04-11T08:14:31.442Z</time></trkpt><trkpt lat="42.7835382" lon="12.0377412"><ele>167.0</ele><time>2026-04-11T08:14:32.442Z</time></trkpt><trkpt lat="42.7834868" lon="12.0376713"><ele>167.0</ele><time>2026-04-11T08:14:33.451Z</time></trkpt><trkpt lat="42.7833967" lon="12.0375371"><ele>167.0</ele><time>2026-04-11T08:14:35.459Z</time></trkpt><trkpt lat="42.783304" lon="12.0374479"><ele>166.33333333333331</ele><time>2026-04-11T08:14:37.459Z</time></trkpt><trkpt lat="42.7832203" lon="12.0373684"><ele>165.66666666666666</ele><time>2026-04-11T08:14:39.459Z</time></trkpt><trkpt lat="42.7831816" lon="12.0372956"><ele>165.0</ele><time>2026-04-11T08:14:40.465Z</time></trkpt><trkpt lat="42.7831523" lon="12.0371991"><ele>164.33333333333334</ele><time>2026-04-11T08:14:41.467Z</time></trkpt><trkpt lat="42.7831503" lon="12.0370825"><ele>163.66666666666669</ele><time>2026-04-11T08:14:42.457Z</time></trkpt><trkpt lat="42.7831569" lon="12.0369644"><ele>163.0</ele><time>2026-04-11T08:14:43.454Z</time></trkpt><trkpt lat="42.7831931" lon="12.0368695"><ele>163.0</ele><time>2026-04-11T08:14:44.462Z</time></trkpt><trkpt lat="42.7832417" lon="12.036742"><ele>163.0</ele><time>2026-04-11T08:14:46.46Z</time></trkpt><trkpt lat="42.7831666" lon="12.036654"><ele>163.0</ele><time>2026-04-11T08:14:49.46Z</time></trkpt><trkpt lat="42.7831025" lon="12.0366269"><ele>163.0</ele><time>2026-04-11T08:14:50.456Z</time></trkpt><trkpt lat="42.7830213" lon="12.0365973"><ele>163.0</ele><time>2026-04-11T08:14:51.454Z</time></trkpt><trkpt lat="42.78294" lon="12.0365714"><ele>163.0</ele><time>2026-04-11T08:14:52.459Z</time></trkpt><trkpt lat="42.7828378" lon="12.0365532"><ele>163.0</ele><time>2026-04-11T08:14:53.445Z</time></trkpt><trkpt lat="42.7827316" lon="12.0365244"><ele>163.0</ele><time>2026-04-11T08:14:54.447Z</time></trkpt><trkpt lat="42.7826136" lon="12.0364948"><ele>163.0</ele><time>2026-04-11T08:14:55.461Z</time></trkpt><trkpt lat="42.7824762" lon="12.0364225"><ele>163.0</ele><time>2026-04-11T08:14:56.457Z</time></trkpt><trkpt lat="42.7823264" lon="12.0363461"><ele>161.66666666666669</ele><time>2026-04-11T08:14:57.47Z</time></trkpt><trkpt lat="42.7821679" lon="12.0362533"><ele>160.33333333333334</ele><time>2026-04-11T08:14:58.466Z</time></trkpt><trkpt lat="42.7819917" lon="12.0361624"><ele>159.0</ele><time>2026-04-11T08:14:59.485Z</time></trkpt><trkpt lat="42.7818491" lon="12.0360701"><ele>158.66666666666666</ele><time>2026-04-11T08:15:00.485Z</time></trkpt><trkpt lat="42.7816982" lon="12.0359776"><ele>158.33333333333331</ele><time>2026-04-11T08:15:01.442Z</time></trkpt><trkpt lat="42.7815338" lon="12.0358774"><ele>158.0</ele><time>2026-04-11T08:15:02.452Z</time></trkpt><trkpt lat="42.7813781" lon="12.0357782"><ele>158.0</ele><time>2026-04-11T08:15:03.449Z</time></trkpt><trkpt lat="42.7812331" lon="12.0356956"><ele>158.0</ele><time>2026-04-11T08:15:04.438Z</time></trkpt><trkpt lat="42.781065" lon="12.035607"><ele>158.0</ele><time>2026-04-11T08:15:05.441Z</time></trkpt><trkpt lat="42.7809189" lon="12.0355147"><ele>157.66666666666666</ele><time>2026-04-11T08:15:06.45Z</time></trkpt><trkpt lat="42.78078" lon="12.0354053"><ele>157.33333333333334</ele><time>2026-04-11T08:15:07.446Z</time></trkpt><trkpt lat="42.7806181" lon="12.0353071"><ele>157.0</ele><time>2026-04-11T08:15:08.453Z</time></trkpt><trkpt lat="42.7804628" lon="12.0352125"><ele>157.0</ele><time>2026-04-11T08:15:09.448Z</time></trkpt><trkpt lat="42.780304" lon="12.035119"><ele>157.0</ele><time>2026-04-11T08:15:10.455Z</time></trkpt><trkpt lat="42.780129" lon="12.0350487"><ele>157.0</ele><time>2026-04-11T08:15:11.456Z</time></trkpt><trkpt lat="42.7800009" lon="12.0349547"><ele>157.33333333333334</ele><time>2026-04-11T08:15:12.453Z</time></trkpt><trkpt lat="42.7798571" lon="12.0348598"><ele>157.66666666666666</ele><time>2026-04-11T08:15:13.451Z</time></trkpt><trkpt lat="42.7797028" lon="12.0347747"><ele>158.0</ele><time>2026-04-11T08:15:14.458Z</time></trkpt><trkpt lat="42.7795645" lon="12.0346988"><ele>158.0</ele><time>2026-04-11T08:15:15.463Z</time></trkpt><trkpt lat="42.7794261" lon="12.034603"><ele>158.0</ele><time>2026-04-11T08:15:16.461Z</time></trkpt><trkpt lat="42.7792809" lon="12.0345194"><ele>158.0</ele><time>2026-04-11T08:15:17.455Z</time></trkpt><trkpt lat="42.7791178" lon="12.0344755"><ele>158.0</ele><time>2026-04-11T08:15:18.454Z</time></trkpt><trkpt lat="42.7789621" lon="12.0344691"><ele>158.0</ele><time>2026-04-11T08:15:19.445Z</time></trkpt><trkpt lat="42.7788156" lon="12.0345299"><ele>158.0</ele><time>2026-04-11T08:15:20.434Z</time></trkpt><trkpt lat="42.7786621" lon="12.0346444"><ele>158.0</ele><time>2026-04-11T08:15:21.43Z</time></trkpt><trkpt lat="42.7785476" lon="12.0347597"><ele>158.0</ele><time>2026-04-11T08:15:22.428Z</time></trkpt><trkpt lat="42.7784123" lon="12.0348399"><ele>158.0</ele><time>2026-04-11T08:15:23.415Z</time></trkpt><trkpt lat="42.7782703" lon="12.0348598"><ele>158.0</ele><time>2026-04-11T08:15:24.427Z</time></trkpt><trkpt lat="42.7781304" lon="12.0348184"><ele>157.66666666666666</ele><time>2026-04-11T08:15:25.432Z</time></trkpt><trkpt lat="42.7779852" lon="12.0347626"><ele>157.33333333333334</ele><time>2026-04-11T08:15:26.436Z</time></trkpt><trkpt lat="42.7778033" lon="12.0346411"><ele>157.0</ele><time>2026-04-11T08:15:27.442Z</time></trkpt><trkpt lat="42.7776593" lon="12.0345154"><ele>155.66666666666669</ele><time>2026-04-11T08:15:28.435Z</time></trkpt><trkpt lat="42.7775121" lon="12.0343948"><ele>154.33333333333334</ele><time>2026-04-11T08:15:29.451Z</time></trkpt><trkpt lat="42.7773467" lon="12.0342612"><ele>153.0</ele><time>2026-04-11T08:15:30.479Z</time></trkpt><trkpt lat="42.7771653" lon="12.0341501"><ele>152.66666666666666</ele><time>2026-04-11T08:15:31.451Z</time></trkpt><trkpt lat="42.7770082" lon="12.0340551"><ele>152.33333333333331</ele><time>2026-04-11T08:15:32.454Z</time></trkpt><trkpt lat="42.7768672" lon="12.0339519"><ele>152.0</ele><time>2026-04-11T08:15:33.45Z</time></trkpt><trkpt lat="42.77672" lon="12.0338637"><ele>151.33333333333331</ele><time>2026-04-11T08:15:34.446Z</time></trkpt><trkpt lat="42.7765686" lon="12.0337713"><ele>150.66666666666666</ele><time>2026-04-11T08:15:35.451Z</time></trkpt><trkpt lat="42.7764144" lon="12.0336775"><ele>150.0</ele><time>2026-04-11T08:15:36.454Z</time></trkpt><trkpt lat="42.7762545" lon="12.033594"><ele>150.0</ele><time>2026-04-11T08:15:37.459Z</time></trkpt><trkpt lat="42.7761037" lon="12.0335587"><ele>150.0</ele><time>2026-04-11T08:15:38.451Z</time></trkpt><trkpt lat="42.7759321" lon="12.0335222"><ele>150.0</ele><time>2026-04-11T08:15:39.455Z</time></trkpt><trkpt lat="42.7757549" lon="12.0335133"><ele>150.66666666666666</ele><time>2026-04-11T08:15:40.452Z</time></trkpt><trkpt lat="42.7755899" lon="12.0335607"><ele>151.33333333333331</ele><time>2026-04-11T08:15:41.444Z</time></trkpt><trkpt lat="42.7754116" lon="12.0336411"><ele>152.0</ele><time>2026-04-11T08:15:42.445Z</time></trkpt><trkpt lat="42.7752366" lon="12.0337103"><ele>152.33333333333331</ele><time>2026-04-11T08:15:43.455Z</time></trkpt><trkpt lat="42.775082" lon="12.0337869"><ele>152.66666666666666</ele><time>2026-04-11T08:15:44.454Z</time></trkpt><trkpt lat="42.7749183" lon="12.0338636"><ele>153.0</ele><time>2026-04-11T08:15:45.475Z</time></trkpt><trkpt lat="42.7747265" lon="12.0339205"><ele>153.0</ele><time>2026-04-11T08:15:46.461Z</time></trkpt><trkpt lat="42.7745718" lon="12.0339991"><ele>153.0</ele><time>2026-04-11T08:15:47.454Z</time></trkpt><trkpt lat="42.7744123" lon="12.0340833"><ele>153.0</ele><time>2026-04-11T08:15:48.456Z</time></trkpt><trkpt lat="42.7742421" lon="12.0341502"><ele>152.66666666666666</ele><time>2026-04-11T08:15:49.456Z</time></trkpt><trkpt lat="42.7740704" lon="12.0342163"><ele>152.33333333333331</ele><time>2026-04-11T08:15:50.463Z</time></trkpt><trkpt lat="42.7739116" lon="12.0342846"><ele>152.0</ele><time>2026-04-11T08:15:51.458Z</time></trkpt><trkpt lat="42.7737474" lon="12.0343525"><ele>152.0</ele><time>2026-04-11T08:15:52.473Z</time></trkpt><trkpt lat="42.7735774" lon="12.0344069"><ele>152.0</ele><time>2026-04-11T08:15:53.543Z</time></trkpt><trkpt lat="42.7734125" lon="12.0344222"><ele>152.0</ele><time>2026-04-11T08:15:54.542Z</time></trkpt><trkpt lat="42.773241" lon="12.034428"><ele>152.66666666666666</ele><time>2026-04-11T08:15:55.543Z</time></trkpt><trkpt lat="42.7730572" lon="12.0344222"><ele>153.33333333333334</ele><time>2026-04-11T08:15:56.517Z</time></trkpt><trkpt lat="42.7728785" lon="12.0344266"><ele>154.0</ele><time>2026-04-11T08:15:57.531Z</time></trkpt><trkpt lat="42.7726905" lon="12.0344294"><ele>153.66666666666669</ele><time>2026-04-11T08:15:58.532Z</time></trkpt><trkpt lat="42.7725006" lon="12.0344388"><ele>153.33333333333334</ele><time>2026-04-11T08:15:59.527Z</time></trkpt><trkpt lat="42.7723138" lon="12.034452"><ele>153.0</ele><time>2026-04-11T08:16:00.557Z</time></trkpt><trkpt lat="42.7721271" lon="12.0344739"><ele>153.0</ele><time>2026-04-11T08:16:01.532Z</time></trkpt><trkpt lat="42.7719429" lon="12.0345021"><ele>153.0</ele><time>2026-04-11T08:16:02.551Z</time></trkpt><trkpt lat="42.7717687" lon="12.0345265"><ele>153.0</ele><time>2026-04-11T08:16:03.534Z</time></trkpt><trkpt lat="42.7715154" lon="12.0341354"><ele>155.33333333333334</ele><time>2026-04-11T08:16:04.546Z</time></trkpt><trkpt lat="42.7713194" lon="12.0339974"><ele>157.66666666666669</ele><time>2026-04-11T08:16:05.549Z</time></trkpt><trkpt lat="42.7711315" lon="12.0339497"><ele>160.0</ele><time>2026-04-11T08:16:06.546Z</time></trkpt><trkpt lat="42.7709343" lon="12.0339295"><ele>163.66666666666669</ele><time>2026-04-11T08:16:07.531Z</time></trkpt><trkpt lat="42.7707436" lon="12.0339353"><ele>167.33333333333334</ele><time>2026-04-11T08:16:08.528Z</time></trkpt><trkpt lat="42.7705584" lon="12.0339667"><ele>171.0</ele><time>2026-04-11T08:16:09.528Z</time></trkpt><trkpt lat="42.7703822" lon="12.033988"><ele>171.0</ele><time>2026-04-11T08:16:10.527Z</time></trkpt><trkpt lat="42.7702003" lon="12.0340076"><ele>171.0</ele><time>2026-04-11T08:16:11.527Z</time></trkpt><trkpt lat="42.7700246" lon="12.0340284"><ele>171.0</ele><time>2026-04-11T08:16:12.519Z</time></trkpt><trkpt lat="42.7698544" lon="12.0340735"><ele>172.66666666666666</ele><time>2026-04-11T08:16:13.519Z</time></trkpt><trkpt lat="42.7696825" lon="12.0341381"><ele>174.33333333333331</ele><time>2026-04-11T08:16:14.513Z</time></trkpt><trkpt lat="42.7695109" lon="12.03421"><ele>176.0</ele><time>2026-04-11T08:16:15.509Z</time></trkpt><trkpt lat="42.7693475" lon="12.0343151"><ele>176.0</ele><time>2026-04-11T08:16:16.506Z</time></trkpt><trkpt lat="42.7691765" lon="12.0343882"><ele>176.0</ele><time>2026-04-11T08:16:17.508Z</time></trkpt><trkpt lat="42.7690076" lon="12.0344569"><ele>176.0</ele><time>2026-04-11T08:16:18.511Z</time></trkpt><trkpt lat="42.7688569" lon="12.034587"><ele>176.0</ele><time>2026-04-11T08:16:19.519Z</time></trkpt><trkpt lat="42.7687142" lon="12.0346652"><ele>176.0</ele><time>2026-04-11T08:16:20.523Z</time></trkpt><trkpt lat="42.7685817" lon="12.0347864"><ele>176.0</ele><time>2026-04-11T08:16:21.52Z</time></trkpt><trkpt lat="42.7684859" lon="12.0348587"><ele>176.0</ele><time>2026-04-11T08:16:22.529Z</time></trkpt><trkpt lat="42.7684116" lon="12.0349141"><ele>175.5</ele><time>2026-04-11T08:16:23.527Z</time></trkpt><trkpt lat="42.7683511" lon="12.0349472"><ele>175.0</ele><time>2026-04-11T08:16:24.533Z</time></trkpt><trkpt lat="42.768288" lon="12.034955"><ele>174.5</ele><time>2026-04-11T08:16:25.512Z</time></trkpt><trkpt lat="42.7682272" lon="12.034929"><ele>174.0</ele><time>2026-04-11T08:16:26.525Z</time></trkpt><trkpt lat="42.7683223" lon="12.0351281"><ele>173.5</ele><time>2026-04-11T08:16:27.533Z</time></trkpt><trkpt lat="42.7683345" lon="12.0350341"><ele>173.0</ele><time>2026-04-11T08:16:29.438Z</time></trkpt><trkpt lat="42.7683778" lon="12.0349295"><ele>173.75</ele><time>2026-04-11T08:16:30.439Z</time></trkpt><trkpt lat="42.7684555" lon="12.034844"><ele>174.5</ele><time>2026-04-11T08:16:31.449Z</time></trkpt><trkpt lat="42.7685522" lon="12.0347497"><ele>175.25</ele><time>2026-04-11T08:16:32.445Z</time></trkpt><trkpt lat="42.7686599" lon="12.0346486"><ele>176.0</ele><time>2026-04-11T08:16:33.442Z</time></trkpt><trkpt lat="42.7687819" lon="12.0345269"><ele>176.0</ele><time>2026-04-11T08:16:34.44Z</time></trkpt><trkpt lat="42.7688872" lon="12.034397"><ele>176.0</ele><time>2026-04-11T08:16:35.438Z</time></trkpt><trkpt lat="42.7690281" lon="12.0342513"><ele>176.0</ele><time>2026-04-11T08:16:36.447Z</time></trkpt><trkpt lat="42.7691714" lon="12.0340649"><ele>177.33333333333331</ele><time>2026-04-11T08:16:37.445Z</time></trkpt><trkpt lat="42.7693494" lon="12.0339332"><ele>178.66666666666666</ele><time>2026-04-11T08:16:38.441Z</time></trkpt><trkpt lat="42.7694861" lon="12.0337788"><ele>180.0</ele><time>2026-04-11T08:16:39.438Z</time></trkpt><trkpt lat="42.769629" lon="12.033725"><ele>180.0</ele><time>2026-04-11T08:16:40.445Z</time></trkpt><trkpt lat="42.7697258" lon="12.0336857"><ele>180.0</ele><time>2026-04-11T08:16:41.425Z</time></trkpt><trkpt lat="42.7696947" lon="12.033594"><ele>180.0</ele><time>2026-04-11T08:16:42.416Z</time></trkpt><trkpt lat="42.7696258" lon="12.0335156"><ele>180.0</ele><time>2026-04-11T08:16:43.416Z</time></trkpt><trkpt lat="42.769516" lon="12.0335056"><ele>180.0</ele><time>2026-04-11T08:16:44.427Z</time></trkpt><trkpt lat="42.7694094" lon="12.0335271"><ele>182.33333333333334</ele><time>2026-04-11T08:16:45.423Z</time></trkpt><trkpt lat="42.7692743" lon="12.0335878"><ele>184.66666666666669</ele><time>2026-04-11T08:16:46.434Z</time></trkpt><trkpt lat="42.7691282" lon="12.033675"><ele>187.0</ele><time>2026-04-11T08:16:47.432Z</time></trkpt><trkpt lat="42.768993" lon="12.0337582"><ele>187.0</ele><time>2026-04-11T08:16:48.432Z</time></trkpt><trkpt lat="42.7688454" lon="12.0338091"><ele>187.0</ele><time>2026-04-11T08:16:49.425Z</time></trkpt><trkpt lat="42.7687213" lon="12.0338217"><ele>187.0</ele><time>2026-04-11T08:16:50.439Z</time></trkpt><trkpt lat="42.7686143" lon="12.0337792"><ele>187.0</ele><time>2026-04-11T08:16:51.434Z</time></trkpt><trkpt lat="42.7685177" lon="12.0337127"><ele>188.5</ele><time>2026-04-11T08:16:52.433Z</time></trkpt><trkpt lat="42.7684332" lon="12.0336037"><ele>190.0</ele><time>2026-04-11T08:16:53.439Z</time></trkpt><trkpt lat="42.7683613" lon="12.0334771"><ele>191.5</ele><time>2026-04-11T08:16:54.433Z</time></trkpt><trkpt lat="42.7683007" lon="12.033345"><ele>193.0</ele><time>2026-04-11T08:16:55.431Z</time></trkpt><trkpt lat="42.7682485" lon="12.0331957"><ele>195.60000000000002</ele><time>2026-04-11T08:16:56.438Z</time></trkpt><trkpt lat="42.7681845" lon="12.0330514"><ele>198.20000000000002</ele><time>2026-04-11T08:16:57.439Z</time></trkpt><trkpt lat="42.768098" lon="12.0329396"><ele>200.8</ele><time>2026-04-11T08:16:58.44Z</time></trkpt><trkpt lat="42.7680083" lon="12.0328836"><ele>203.4</ele><time>2026-04-11T08:16:59.43Z</time></trkpt><trkpt lat="42.7679021" lon="12.0328663"><ele>206.0</ele><time>2026-04-11T08:17:00.434Z</time></trkpt><trkpt lat="42.7678134" lon="12.0328453"><ele>206.0</ele><time>2026-04-11T08:17:01.431Z</time></trkpt><trkpt lat="42.7677341" lon="12.0328478"><ele>206.0</ele><time>2026-04-11T08:17:02.455Z</time></trkpt><trkpt lat="42.7676685" lon="12.0327994"><ele>206.0</ele><time>2026-04-11T08:17:03.442Z</time></trkpt><trkpt lat="42.7676431" lon="12.0326247"><ele>206.0</ele><time>2026-04-11T08:17:05.442Z</time></trkpt><trkpt lat="42.7676811" lon="12.0325153"><ele>206.0</ele><time>2026-04-11T08:17:06.445Z</time></trkpt><trkpt lat="42.7677124" lon="12.0324032"><ele>205.16666666666669</ele><time>2026-04-11T08:17:07.441Z</time></trkpt><trkpt lat="42.7677195" lon="12.0322805"><ele>204.33333333333334</ele><time>2026-04-11T08:17:08.447Z</time></trkpt><trkpt lat="42.7677317" lon="12.0321676"><ele>203.5</ele><time>2026-04-11T08:17:09.452Z</time></trkpt><trkpt lat="42.7677305" lon="12.0320599"><ele>202.66666666666669</ele><time>2026-04-11T08:17:10.444Z</time></trkpt><trkpt lat="42.7677194" lon="12.0319373"><ele>201.83333333333334</ele><time>2026-04-11T08:17:11.438Z</time></trkpt><trkpt lat="42.7676668" lon="12.0318524"><ele>201.0</ele><time>2026-04-11T08:17:12.443Z</time></trkpt><trkpt lat="42.7675871" lon="12.0317837"><ele>202.0</ele><time>2026-04-11T08:17:13.437Z</time></trkpt><trkpt lat="42.7674996" lon="12.0317308"><ele>203.0</ele><time>2026-04-11T08:17:14.438Z</time></trkpt><trkpt lat="42.7673956" lon="12.0316797"><ele>204.0</ele><time>2026-04-11T08:17:15.438Z</time></trkpt><trkpt lat="42.7672765" lon="12.0316256"><ele>205.0</ele><time>2026-04-11T08:17:16.451Z</time></trkpt><trkpt lat="42.7671657" lon="12.03156"><ele>205.0</ele><time>2026-04-11T08:17:17.447Z</time></trkpt><trkpt lat="42.7670575" lon="12.0314852"><ele>205.0</ele><time>2026-04-11T08:17:18.454Z</time></trkpt><trkpt lat="42.7669416" lon="12.0314236"><ele>205.0</ele><time>2026-04-11T08:17:19.456Z</time></trkpt><trkpt lat="42.7668179" lon="12.0313672"><ele>205.0</ele><time>2026-04-11T08:17:20.45Z</time></trkpt><trkpt lat="42.7666837" lon="12.0313442"><ele>210.25</ele><time>2026-04-11T08:17:21.445Z</time></trkpt><trkpt lat="42.766551" lon="12.0313338"><ele>215.5</ele><time>2026-04-11T08:17:22.441Z</time></trkpt><trkpt lat="42.766423" lon="12.0313274"><ele>220.75</ele><time>2026-04-11T08:17:23.447Z</time></trkpt><trkpt lat="42.7663008" lon="12.0313027"><ele>226.0</ele><time>2026-04-11T08:17:24.45Z</time></trkpt><trkpt lat="42.7661878" lon="12.0312646"><ele>226.0</ele><time>2026-04-11T08:17:25.449Z</time></trkpt><trkpt lat="42.7660736" lon="12.0312003"><ele>226.0</ele><time>2026-04-11T08:17:26.449Z</time></trkpt><trkpt lat="42.7659741" lon="12.0311506"><ele>226.0</ele><time>2026-04-11T08:17:27.451Z</time></trkpt><trkpt lat="42.7658651" lon="12.0311199"><ele>226.0</ele><time>2026-04-11T08:17:28.441Z</time></trkpt><trkpt lat="42.7657452" lon="12.0311145"><ele>227.75</ele><time>2026-04-11T08:17:29.455Z</time></trkpt><trkpt lat="42.7656229" lon="12.0310927"><ele>229.5</ele><time>2026-04-11T08:17:30.459Z</time></trkpt><trkpt lat="42.765506" lon="12.0310477"><ele>231.25</ele><time>2026-04-11T08:17:31.453Z</time></trkpt><trkpt lat="42.7653979" lon="12.0309696"><ele>233.0</ele><time>2026-04-11T08:17:32.449Z</time></trkpt><trkpt lat="42.7652983" lon="12.030858"><ele>233.0</ele><time>2026-04-11T08:17:33.473Z</time></trkpt><trkpt lat="42.7652072" lon="12.0307036"><ele>233.0</ele><time>2026-04-11T08:17:34.455Z</time></trkpt><trkpt lat="42.7651231" lon="12.0305137"><ele>233.0</ele><time>2026-04-11T08:17:35.442Z</time></trkpt><trkpt lat="42.7650479" lon="12.0303263"><ele>236.0</ele><time>2026-04-11T08:17:36.448Z</time></trkpt><trkpt lat="42.7649683" lon="12.0301465"><ele>239.0</ele><time>2026-04-11T08:17:37.444Z</time></trkpt><trkpt lat="42.7649017" lon="12.0299615"><ele>242.0</ele><time>2026-04-11T08:17:38.447Z</time></trkpt><trkpt lat="42.7648346" lon="12.0297675"><ele>242.66666666666669</ele><time>2026-04-11T08:17:39.447Z</time></trkpt><trkpt lat="42.7647477" lon="12.0295796"><ele>243.33333333333331</ele><time>2026-04-11T08:17:40.449Z</time></trkpt><trkpt lat="42.7646658" lon="12.0293852"><ele>244.0</ele><time>2026-04-11T08:17:41.452Z</time></trkpt><trkpt lat="42.7646007" lon="12.0292137"><ele>243.0</ele><time>2026-04-11T08:17:42.453Z</time></trkpt><trkpt lat="42.7645466" lon="12.0290953"><ele>241.99999999999997</ele><time>2026-04-11T08:17:43.447Z</time></trkpt><trkpt lat="42.7644783" lon="12.028995"><ele>240.99999999999997</ele><time>2026-04-11T08:17:44.443Z</time></trkpt><trkpt lat="42.7643675" lon="12.0289221"><ele>240.0</ele><time>2026-04-11T08:17:45.442Z</time></trkpt><trkpt lat="42.7642596" lon="12.0288852"><ele>239.0</ele><time>2026-04-11T08:17:46.439Z</time></trkpt><trkpt lat="42.7641437" lon="12.0288961"><ele>242.25</ele><time>2026-04-11T08:17:47.428Z</time></trkpt><trkpt lat="42.7640385" lon="12.0289039"><ele>245.5</ele><time>2026-04-11T08:17:48.442Z</time></trkpt><trkpt lat="42.763916" lon="12.0289248"><ele>248.75</ele><time>2026-04-11T08:17:49.447Z</time></trkpt><trkpt lat="42.7637917" lon="12.0289138"><ele>252.0</ele><time>2026-04-11T08:17:50.44Z</time></trkpt><trkpt lat="42.763672" lon="12.028857"><ele>252.0</ele><time>2026-04-11T08:17:51.433Z</time></trkpt><trkpt lat="42.7635731" lon="12.028752"><ele>252.0</ele><time>2026-04-11T08:17:52.438Z</time></trkpt><trkpt lat="42.7634693" lon="12.0286239"><ele>252.0</ele><time>2026-04-11T08:17:53.436Z</time></trkpt><trkpt lat="42.7633613" lon="12.0285028"><ele>252.0</ele><time>2026-04-11T08:17:54.446Z</time></trkpt><trkpt lat="42.7632485" lon="12.0283878"><ele>256.0</ele><time>2026-04-11T08:17:55.449Z</time></trkpt><trkpt lat="42.7631443" lon="12.0282695"><ele>260.0</ele><time>2026-04-11T08:17:56.448Z</time></trkpt><trkpt lat="42.7630305" lon="12.0281644"><ele>264.0</ele><time>2026-04-11T08:17:57.457Z</time></trkpt><trkpt lat="42.7629076" lon="12.0280626"><ele>268.0</ele><time>2026-04-11T08:17:58.446Z</time></trkpt><trkpt lat="42.7627888" lon="12.0279784"><ele>270.0</ele><time>2026-04-11T08:17:59.442Z</time></trkpt><trkpt lat="42.7626766" lon="12.0279245"><ele>272.0</ele><time>2026-04-11T08:18:00.446Z</time></trkpt><trkpt lat="42.7625692" lon="12.0278475"><ele>274.0</ele><time>2026-04-11T08:18:01.445Z</time></trkpt><trkpt lat="42.7625025" lon="12.0277644"><ele>276.0</ele><time>2026-04-11T08:18:02.445Z</time></trkpt><trkpt lat="42.7624286" lon="12.0276738"><ele>278.0</ele><time>2026-04-11T08:18:03.443Z</time></trkpt><trkpt lat="42.7623619" lon="12.0275533"><ele>279.5</ele><time>2026-04-11T08:18:04.455Z</time></trkpt><trkpt lat="42.7622746" lon="12.0274525"><ele>281.0</ele><time>2026-04-11T08:18:05.44Z</time></trkpt><trkpt lat="42.7621818" lon="12.0273654"><ele>282.5</ele><time>2026-04-11T08:18:06.442Z</time></trkpt><trkpt lat="42.7620751" lon="12.0272944"><ele>284.0</ele><time>2026-04-11T08:18:07.451Z</time></trkpt><trkpt lat="42.7619842" lon="12.027212"><ele>284.0</ele><time>2026-04-11T08:18:08.451Z</time></trkpt><trkpt lat="42.761904" lon="12.0271534"><ele>284.0</ele><time>2026-04-11T08:18:09.441Z</time></trkpt><trkpt lat="42.761834" lon="12.0271058"><ele>284.0</ele><time>2026-04-11T08:18:10.432Z</time></trkpt><trkpt lat="42.7617743" lon="12.0270629"><ele>284.0</ele><time>2026-04-11T08:18:11.442Z</time></trkpt><trkpt lat="42.7617488" lon="12.0269491"><ele>284.0</ele><time>2026-04-11T08:18:13.432Z</time></trkpt><trkpt lat="42.7617473" lon="12.0267981"><ele>284.0</ele><time>2026-04-11T08:18:15.424Z</time></trkpt><trkpt lat="42.7617961" lon="12.0266871"><ele>286.0</ele><time>2026-04-11T08:18:16.433Z</time></trkpt><trkpt lat="42.7618617" lon="12.0265223"><ele>288.0</ele><time>2026-04-11T08:18:17.423Z</time></trkpt><trkpt lat="42.7619263" lon="12.026344"><ele>290.0</ele><time>2026-04-11T08:18:18.427Z</time></trkpt><trkpt lat="42.7619939" lon="12.0261688"><ele>292.0</ele><time>2026-04-11T08:18:19.427Z</time></trkpt><trkpt lat="42.7620576" lon="12.0259946"><ele>292.0</ele><time>2026-04-11T08:18:20.425Z</time></trkpt><trkpt lat="42.7621351" lon="12.0258233"><ele>292.0</ele><time>2026-04-11T08:18:21.426Z</time></trkpt><trkpt lat="42.7622288" lon="12.0256763"><ele>292.0</ele><time>2026-04-11T08:18:22.426Z</time></trkpt><trkpt lat="42.7623183" lon="12.0255318"><ele>292.0</ele><time>2026-04-11T08:18:23.415Z</time></trkpt><trkpt lat="42.7623748" lon="12.0254598"><ele>293.8</ele><time>2026-04-11T08:18:24.436Z</time></trkpt><trkpt lat="42.7624412" lon="12.0253863"><ele>295.6</ele><time>2026-04-11T08:18:25.435Z</time></trkpt><trkpt lat="42.7625342" lon="12.0253478"><ele>297.40000000000003</ele><time>2026-04-11T08:18:26.43Z</time></trkpt><trkpt lat="42.7626392" lon="12.0254156"><ele>299.2</ele><time>2026-04-11T08:18:27.435Z</time></trkpt><trkpt lat="42.762765" lon="12.0255007"><ele>301.0</ele><time>2026-04-11T08:18:28.431Z</time></trkpt><trkpt lat="42.7628803" lon="12.0255708"><ele>301.0</ele><time>2026-04-11T08:18:29.44Z</time></trkpt><trkpt lat="42.763008" lon="12.0256148"><ele>301.0</ele><time>2026-04-11T08:18:30.441Z</time></trkpt><trkpt lat="42.7631445" lon="12.0256453"><ele>301.0</ele><time>2026-04-11T08:18:31.444Z</time></trkpt><trkpt lat="42.7633044" lon="12.0256501"><ele>301.0</ele><time>2026-04-11T08:18:32.44Z</time></trkpt><trkpt lat="42.7634125" lon="12.0255953"><ele>301.0</ele><time>2026-04-11T08:18:33.439Z</time></trkpt><trkpt lat="42.7634863" lon="12.025535"><ele>301.0</ele><time>2026-04-11T08:18:34.442Z</time></trkpt><trkpt lat="42.7635432" lon="12.025463"><ele>301.0</ele><time>2026-04-11T08:18:35.452Z</time></trkpt><trkpt lat="42.763598" lon="12.0253867"><ele>301.0</ele><time>2026-04-11T08:18:36.432Z</time></trkpt><trkpt lat="42.7636619" lon="12.0252901"><ele>301.0</ele><time>2026-04-11T08:18:37.435Z</time></trkpt><trkpt lat="42.7637443" lon="12.0251729"><ele>300.25</ele><time>2026-04-11T08:18:38.436Z</time></trkpt><trkpt lat="42.763816" lon="12.025055"><ele>299.5</ele><time>2026-04-11T08:18:39.444Z</time></trkpt><trkpt lat="42.7638999" lon="12.024924"><ele>298.75</ele><time>2026-04-11T08:18:40.442Z</time></trkpt><trkpt lat="42.7639804" lon="12.0247978"><ele>298.0</ele><time>2026-04-11T08:18:41.443Z</time></trkpt><trkpt lat="42.7640622" lon="12.0246726"><ele>298.0</ele><time>2026-04-11T08:18:42.445Z</time></trkpt><trkpt lat="42.7641302" lon="12.0245539"><ele>298.0</ele><time>2026-04-11T08:18:43.444Z</time></trkpt><trkpt lat="42.7641825" lon="12.0244303"><ele>298.0</ele><time>2026-04-11T08:18:44.438Z</time></trkpt><trkpt lat="42.7642273" lon="12.0243192"><ele>298.0</ele><time>2026-04-11T08:18:45.434Z</time></trkpt><trkpt lat="42.7642613" lon="12.0242204"><ele>298.0</ele><time>2026-04-11T08:18:46.423Z</time></trkpt><trkpt lat="42.7643326" lon="12.0241622"><ele>296.0</ele><time>2026-04-11T08:18:48.428Z</time></trkpt><trkpt lat="42.7643683" lon="12.0242489"><ele>294.0</ele><time>2026-04-11T08:18:49.427Z</time></trkpt><trkpt lat="42.7644478" lon="12.0243614"><ele>292.0</ele><time>2026-04-11T08:18:50.428Z</time></trkpt><trkpt lat="42.7645151" lon="12.0244833"><ele>290.0</ele><time>2026-04-11T08:18:51.427Z</time></trkpt><trkpt lat="42.7646101" lon="12.0245827"><ele>288.0</ele><time>2026-04-11T08:18:52.433Z</time></trkpt><trkpt lat="42.7646867" lon="12.0246547"><ele>288.0</ele><time>2026-04-11T08:18:53.437Z</time></trkpt><trkpt lat="42.764779" lon="12.024713"><ele>288.0</ele><time>2026-04-11T08:18:54.441Z</time></trkpt><trkpt lat="42.764859" lon="12.0247535"><ele>288.0</ele><time>2026-04-11T08:18:55.437Z</time></trkpt><trkpt lat="42.7649449" lon="12.0247676"><ele>288.0</ele><time>2026-04-11T08:18:56.436Z</time></trkpt><trkpt lat="42.7650235" lon="12.0247867"><ele>288.0</ele><time>2026-04-11T08:18:57.444Z</time></trkpt><trkpt lat="42.7651046" lon="12.0247846"><ele>288.0</ele><time>2026-04-11T08:18:58.445Z</time></trkpt><trkpt lat="42.7651828" lon="12.0247776"><ele>283.8</ele><time>2026-04-11T08:18:59.445Z</time></trkpt><trkpt lat="42.7652656" lon="12.0247714"><ele>279.6</ele><time>2026-04-11T08:19:00.433Z</time></trkpt><trkpt lat="42.7653503" lon="12.0246525"><ele>275.4</ele><time>2026-04-11T08:19:02.437Z</time></trkpt><trkpt lat="42.7653614" lon="12.024547"><ele>271.2</ele><time>2026-04-11T08:19:03.443Z</time></trkpt><trkpt lat="42.7653757" lon="12.0244407"><ele>267.0</ele><time>2026-04-11T08:19:04.439Z</time></trkpt><trkpt lat="42.7654089" lon="12.0243273"><ele>267.0</ele><time>2026-04-11T08:19:05.435Z</time></trkpt><trkpt lat="42.7654331" lon="12.0242065"><ele>267.0</ele><time>2026-04-11T08:19:06.44Z</time></trkpt><trkpt lat="42.7654667" lon="12.0240797"><ele>267.0</ele><time>2026-04-11T08:19:07.428Z</time></trkpt><trkpt lat="42.7654912" lon="12.0239475"><ele>267.0</ele><time>2026-04-11T08:19:08.428Z</time></trkpt><trkpt lat="42.7654968" lon="12.0238069"><ele>267.0</ele><time>2026-04-11T08:19:09.425Z</time></trkpt><trkpt lat="42.7655033" lon="12.0236562"><ele>268.2</ele><time>2026-04-11T08:19:10.424Z</time></trkpt><trkpt lat="42.7655064" lon="12.0235075"><ele>269.4</ele><time>2026-04-11T08:19:11.423Z</time></trkpt><trkpt lat="42.7654996" lon="12.0233703"><ele>270.6</ele><time>2026-04-11T08:19:12.421Z</time></trkpt><trkpt lat="42.7655129" lon="12.0232417"><ele>271.8</ele><time>2026-04-11T08:19:13.415Z</time></trkpt><trkpt lat="42.7655059" lon="12.023133"><ele>273.0</ele><time>2026-04-11T08:19:14.409Z</time></trkpt><trkpt lat="42.7655474" lon="12.0230165"><ele>273.0</ele><time>2026-04-11T08:19:16.416Z</time></trkpt><trkpt lat="42.765641" lon="12.0231575"><ele>273.0</ele><time>2026-04-11T08:19:19.416Z</time></trkpt><trkpt lat="42.7657007" lon="12.0232757"><ele>273.0</ele><time>2026-04-11T08:19:20.414Z</time></trkpt><trkpt lat="42.7657859" lon="12.0233909"><ele>273.0</ele><time>2026-04-11T08:19:21.419Z</time></trkpt><trkpt lat="42.7658771" lon="12.0234981"><ele>273.0</ele><time>2026-04-11T08:19:22.419Z</time></trkpt><trkpt lat="42.7659694" lon="12.0236075"><ele>273.0</ele><time>2026-04-11T08:19:23.416Z</time></trkpt><trkpt lat="42.7660623" lon="12.0237352"><ele>273.0</ele><time>2026-04-11T08:19:24.417Z</time></trkpt><trkpt lat="42.7661435" lon="12.0238519"><ele>273.0</ele><time>2026-04-11T08:19:25.418Z</time></trkpt><trkpt lat="42.7662271" lon="12.0239747"><ele>273.2</ele><time>2026-04-11T08:19:26.421Z</time></trkpt><trkpt lat="42.7662928" lon="12.0240981"><ele>273.4</ele><time>2026-04-11T08:19:27.423Z</time></trkpt><trkpt lat="42.7663598" lon="12.0242289"><ele>273.59999999999997</ele><time>2026-04-11T08:19:28.419Z</time></trkpt><trkpt lat="42.7664169" lon="12.0243416"><ele>273.8</ele><time>2026-04-11T08:19:29.424Z</time></trkpt><trkpt lat="42.7664371" lon="12.0244508"><ele>274.0</ele><time>2026-04-11T08:19:30.428Z</time></trkpt><trkpt lat="42.7664589" lon="12.0245556"><ele>274.0</ele><time>2026-04-11T08:19:31.425Z</time></trkpt><trkpt lat="42.7664951" lon="12.0246366"><ele>274.0</ele><time>2026-04-11T08:19:32.432Z</time></trkpt><trkpt lat="42.7666032" lon="12.0246944"><ele>274.0</ele><time>2026-04-11T08:19:34.429Z</time></trkpt><trkpt lat="42.7667022" lon="12.0247218"><ele>274.0</ele><time>2026-04-11T08:19:35.44Z</time></trkpt><trkpt lat="42.7668041" lon="12.0247574"><ele>274.0</ele><time>2026-04-11T08:19:36.445Z</time></trkpt><trkpt lat="42.7669131" lon="12.0247814"><ele>274.8</ele><time>2026-04-11T08:19:37.456Z</time></trkpt><trkpt lat="42.7670198" lon="12.0248199"><ele>275.59999999999997</ele><time>2026-04-11T08:19:38.44Z</time></trkpt><trkpt lat="42.7671288" lon="12.0248762"><ele>276.4</ele><time>2026-04-11T08:19:39.442Z</time></trkpt><trkpt lat="42.7672148" lon="12.0249488"><ele>277.2</ele><time>2026-04-11T08:19:40.447Z</time></trkpt><trkpt lat="42.7672868" lon="12.0250254"><ele>278.0</ele><time>2026-04-11T08:19:41.439Z</time></trkpt><trkpt lat="42.7673779" lon="12.0250631"><ele>280.0</ele><time>2026-04-11T08:19:43.44Z</time></trkpt><trkpt lat="42.7674908" lon="12.0249782"><ele>282.0</ele><time>2026-04-11T08:19:45.435Z</time></trkpt><trkpt lat="42.7675624" lon="12.024909"><ele>284.0</ele><time>2026-04-11T08:19:46.437Z</time></trkpt><trkpt lat="42.7676242" lon="12.0248268"><ele>286.0</ele><time>2026-04-11T08:19:47.442Z</time></trkpt><trkpt lat="42.7676621" lon="12.0247187"><ele>288.0</ele><time>2026-04-11T08:19:48.441Z</time></trkpt><trkpt lat="42.7676673" lon="12.0245751"><ele>288.0</ele><time>2026-04-11T08:19:49.443Z</time></trkpt><trkpt lat="42.7676646" lon="12.024425"><ele>288.0</ele><time>2026-04-11T08:19:50.448Z</time></trkpt><trkpt lat="42.7676712" lon="12.0242759"><ele>288.0</ele><time>2026-04-11T08:19:51.447Z</time></trkpt><trkpt lat="42.7676727" lon="12.0241511"><ele>288.0</ele><time>2026-04-11T08:19:52.44Z</time></trkpt><trkpt lat="42.7676818" lon="12.0240371"><ele>288.0</ele><time>2026-04-11T08:19:53.436Z</time></trkpt><trkpt lat="42.7676973" lon="12.0239487"><ele>288.4</ele><time>2026-04-11T08:19:54.438Z</time></trkpt><trkpt lat="42.7677581" lon="12.0239012"><ele>288.8</ele><time>2026-04-11T08:19:55.432Z</time></trkpt><trkpt lat="42.7678336" lon="12.0238718"><ele>289.2</ele><time>2026-04-11T08:19:56.437Z</time></trkpt><trkpt lat="42.7679327" lon="12.0238164"><ele>289.6</ele><time>2026-04-11T08:19:57.439Z</time></trkpt><trkpt lat="42.7680224" lon="12.0237394"><ele>290.0</ele><time>2026-04-11T08:19:58.445Z</time></trkpt><trkpt lat="42.7681254" lon="12.0236484"><ele>290.0</ele><time>2026-04-11T08:19:59.449Z</time></trkpt><trkpt lat="42.7682271" lon="12.023564"><ele>290.0</ele><time>2026-04-11T08:20:00.444Z</time></trkpt><trkpt lat="42.7683139" lon="12.0234881"><ele>290.0</ele><time>2026-04-11T08:20:01.439Z</time></trkpt><trkpt lat="42.7683744" lon="12.0234241"><ele>290.0</ele><time>2026-04-11T08:20:02.438Z</time></trkpt><trkpt lat="42.7684307" lon="12.0233747"><ele>290.0</ele><time>2026-04-11T08:20:03.43Z</time></trkpt><trkpt lat="42.7684976" lon="12.0233021"><ele>291.6666666666667</ele><time>2026-04-11T08:20:05.433Z</time></trkpt><trkpt lat="42.7684533" lon="12.0231654"><ele>293.33333333333337</ele><time>2026-04-11T08:20:08.469Z</time></trkpt><trkpt lat="42.7684188" lon="12.023082"><ele>295.0</ele><time>2026-04-11T08:20:09.449Z</time></trkpt><trkpt lat="42.7683766" lon="12.0229836"><ele>296.6666666666667</ele><time>2026-04-11T08:20:10.453Z</time></trkpt><trkpt lat="42.768342" lon="12.0228826"><ele>298.3333333333333</ele><time>2026-04-11T08:20:11.444Z</time></trkpt><trkpt lat="42.7683148" lon="12.0227742"><ele>300.0</ele><time>2026-04-11T08:20:12.443Z</time></trkpt><trkpt lat="42.7682823" lon="12.0226697"><ele>300.0</ele><time>2026-04-11T08:20:13.433Z</time></trkpt><trkpt lat="42.7682547" lon="12.0225746"><ele>300.0</ele><time>2026-04-11T08:20:14.451Z</time></trkpt><trkpt lat="42.7681634" lon="12.0226013"><ele>300.0</ele><time>2026-04-11T08:20:18.444Z</time></trkpt><trkpt lat="42.7680641" lon="12.0226874"><ele>300.0</ele><time>2026-04-11T08:20:20.44Z</time></trkpt><trkpt lat="42.7679973" lon="12.0227559"><ele>300.0</ele><time>2026-04-11T08:20:21.442Z</time></trkpt><trkpt lat="42.7679342" lon="12.02282"><ele>300.0</ele><time>2026-04-11T08:20:22.446Z</time></trkpt><trkpt lat="42.7678864" lon="12.022888"><ele>300.0</ele><time>2026-04-11T08:20:23.44Z</time></trkpt><trkpt lat="42.7678231" lon="12.0229831"><ele>300.0</ele><time>2026-04-11T08:20:25.455Z</time></trkpt><trkpt lat="42.7678413" lon="12.0230752"><ele>300.0</ele><time>2026-04-11T08:20:28.459Z</time></trkpt><trkpt lat="42.7679318" lon="12.0230977"><ele>300.0</ele><time>2026-04-11T08:20:31.457Z</time></trkpt><trkpt lat="42.7680001" lon="12.0230032"><ele>300.0</ele><time>2026-04-11T08:20:33.461Z</time></trkpt><trkpt lat="42.7680598" lon="12.0228867"><ele>300.0</ele><time>2026-04-11T08:20:35.465Z</time></trkpt><trkpt lat="42.7680909" lon="12.0227883"><ele>300.0</ele><time>2026-04-11T08:20:37.456Z</time></trkpt><trkpt lat="42.7681506" lon="12.0227199"><ele>300.0</ele><time>2026-04-11T08:20:40.46Z</time></trkpt><trkpt lat="42.7682195" lon="12.022632"><ele>300.0</ele><time>2026-04-11T08:20:43.463Z</time></trkpt><trkpt lat="42.7682519" lon="12.0225582"><ele>300.0</ele><time>2026-04-11T08:20:45.464Z</time></trkpt><trkpt lat="42.7682929" lon="12.0224809"><ele>300.0</ele><time>2026-04-11T08:20:47.443Z</time></trkpt><trkpt lat="42.7683434" lon="12.0224196"><ele>300.0</ele><time>2026-04-11T08:20:56.453Z</time></trkpt><trkpt lat="42.768386" lon="12.022344"><ele>300.0</ele><time>2026-04-11T08:20:57.456Z</time></trkpt><trkpt lat="42.7684337" lon="12.0222519"><ele>300.0</ele><time>2026-04-11T08:20:58.456Z</time></trkpt><trkpt lat="42.7684915" lon="12.0221454"><ele>300.0</ele><time>2026-04-11T08:20:59.447Z</time></trkpt><trkpt lat="42.7685679" lon="12.0220199"><ele>300.0</ele><time>2026-04-11T08:21:00.45Z</time></trkpt><trkpt lat="42.768649" lon="12.0219001"><ele>300.0</ele><time>2026-04-11T08:21:01.447Z</time></trkpt><trkpt lat="42.7687314" lon="12.0217698"><ele>300.0</ele><time>2026-04-11T08:21:02.45Z</time></trkpt><trkpt lat="42.7688089" lon="12.0216563"><ele>300.0</ele><time>2026-04-11T08:21:03.453Z</time></trkpt><trkpt lat="42.7688812" lon="12.021542"><ele>300.0</ele><time>2026-04-11T08:21:04.448Z</time></trkpt><trkpt lat="42.7689486" lon="12.0214368"><ele>301.8</ele><time>2026-04-11T08:21:05.45Z</time></trkpt><trkpt lat="42.7690084" lon="12.0213191"><ele>303.6</ele><time>2026-04-11T08:21:06.453Z</time></trkpt><trkpt lat="42.7690487" lon="12.0212031"><ele>305.4</ele><time>2026-04-11T08:21:07.444Z</time></trkpt><trkpt lat="42.7690647" lon="12.0210829"><ele>307.2</ele><time>2026-04-11T08:21:08.447Z</time></trkpt><trkpt lat="42.7690238" lon="12.0209791"><ele>309.0</ele><time>2026-04-11T08:21:09.465Z</time></trkpt><trkpt lat="42.7689703" lon="12.0208748"><ele>309.2</ele><time>2026-04-11T08:21:10.438Z</time></trkpt><trkpt lat="42.7688887" lon="12.0207915"><ele>309.4</ele><time>2026-04-11T08:21:11.444Z</time></trkpt><trkpt lat="42.7688162" lon="12.0207038"><ele>309.6</ele><time>2026-04-11T08:21:12.438Z</time></trkpt><trkpt lat="42.7687522" lon="12.020615"><ele>309.8</ele><time>2026-04-11T08:21:13.436Z</time></trkpt><trkpt lat="42.7687184" lon="12.020512"><ele>310.0</ele><time>2026-04-11T08:21:14.441Z</time></trkpt><trkpt lat="42.7686729" lon="12.0204077"><ele>310.0</ele><time>2026-04-11T08:21:15.444Z</time></trkpt><trkpt lat="42.7686139" lon="12.0202996"><ele>310.0</ele><time>2026-04-11T08:21:16.441Z</time></trkpt><trkpt lat="42.7685448" lon="12.0201882"><ele>310.0</ele><time>2026-04-11T08:21:17.444Z</time></trkpt><trkpt lat="42.7684877" lon="12.0200665"><ele>310.0</ele><time>2026-04-11T08:21:18.434Z</time></trkpt><trkpt lat="42.7684391" lon="12.0199295"><ele>310.0</ele><time>2026-04-11T08:21:19.44Z</time></trkpt><trkpt lat="42.7684059" lon="12.0197904"><ele>314.25</ele><time>2026-04-11T08:21:20.442Z</time></trkpt><trkpt lat="42.7684061" lon="12.019637"><ele>318.5</ele><time>2026-04-11T08:21:21.434Z</time></trkpt><trkpt lat="42.7684186" lon="12.0194723"><ele>322.75</ele><time>2026-04-11T08:21:22.434Z</time></trkpt><trkpt lat="42.7684337" lon="12.0192837"><ele>327.0</ele><time>2026-04-11T08:21:23.436Z</time></trkpt><trkpt lat="42.7684705" lon="12.0190743"><ele>328.0</ele><time>2026-04-11T08:21:24.444Z</time></trkpt><trkpt lat="42.7684826" lon="12.0188638"><ele>329.0</ele><time>2026-04-11T08:21:25.446Z</time></trkpt><trkpt lat="42.7685127" lon="12.0186438"><ele>330.0</ele><time>2026-04-11T08:21:26.448Z</time></trkpt><trkpt lat="42.7685308" lon="12.018446"><ele>329.0</ele><time>2026-04-11T08:21:27.437Z</time></trkpt><trkpt lat="42.7685793" lon="12.0183091"><ele>328.0</ele><time>2026-04-11T08:21:28.435Z</time></trkpt><trkpt lat="42.7686284" lon="12.0181518"><ele>327.0</ele><time>2026-04-11T08:21:29.431Z</time></trkpt><trkpt lat="42.7687499" lon="12.0180531"><ele>326.0</ele><time>2026-04-11T08:21:30.447Z</time></trkpt><trkpt lat="42.7688689" lon="12.0179657"><ele>326.0</ele><time>2026-04-11T08:21:31.45Z</time></trkpt><trkpt lat="42.7689598" lon="12.0178338"><ele>326.0</ele><time>2026-04-11T08:21:32.445Z</time></trkpt><trkpt lat="42.7690595" lon="12.017696"><ele>326.0</ele><time>2026-04-11T08:21:33.442Z</time></trkpt><trkpt lat="42.7691341" lon="12.0175443"><ele>326.0</ele><time>2026-04-11T08:21:34.446Z</time></trkpt><trkpt lat="42.7691624" lon="12.0173598"><ele>327.5</ele><time>2026-04-11T08:21:35.45Z</time></trkpt><trkpt lat="42.7692267" lon="12.0172393"><ele>329.0</ele><time>2026-04-11T08:21:36.438Z</time></trkpt><trkpt lat="42.7693181" lon="12.017108"><ele>330.5</ele><time>2026-04-11T08:21:37.439Z</time></trkpt><trkpt lat="42.7694124" lon="12.0170052"><ele>332.0</ele><time>2026-04-11T08:21:38.427Z</time></trkpt><trkpt lat="42.7695121" lon="12.016931"><ele>332.0</ele><time>2026-04-11T08:21:39.434Z</time></trkpt><trkpt lat="42.7696266" lon="12.0169"><ele>332.0</ele><time>2026-04-11T08:21:40.452Z</time></trkpt><trkpt lat="42.7697728" lon="12.01689"><ele>332.0</ele><time>2026-04-11T08:21:41.433Z</time></trkpt><trkpt lat="42.7698801" lon="12.0168643"><ele>332.0</ele><time>2026-04-11T08:21:42.428Z</time></trkpt><trkpt lat="42.7699934" lon="12.0168586"><ele>332.0</ele><time>2026-04-11T08:21:43.431Z</time></trkpt><trkpt lat="42.770119" lon="12.016852"><ele>332.0</ele><time>2026-04-11T08:21:44.42Z</time></trkpt><trkpt lat="42.770216" lon="12.016862"><ele>332.0</ele><time>2026-04-11T08:21:45.42Z</time></trkpt><trkpt lat="42.7702876" lon="12.0168812"><ele>332.0</ele><time>2026-04-11T08:21:46.419Z</time></trkpt><trkpt lat="42.7702776" lon="12.0167953"><ele>332.0</ele><time>2026-04-11T08:21:49.421Z</time></trkpt><trkpt lat="42.7702154" lon="12.0167666"><ele>332.0</ele><time>2026-04-11T08:21:50.426Z</time></trkpt><trkpt lat="42.7701334" lon="12.0167116"><ele>329.0</ele><time>2026-04-11T08:21:51.425Z</time></trkpt><trkpt lat="42.7700545" lon="12.0166309"><ele>326.0</ele><time>2026-04-11T08:21:52.419Z</time></trkpt><trkpt lat="42.769984" lon="12.0165115"><ele>323.0</ele><time>2026-04-11T08:21:53.425Z</time></trkpt><trkpt lat="42.769899" lon="12.0163869"><ele>320.0</ele><time>2026-04-11T08:21:54.427Z</time></trkpt><trkpt lat="42.7698436" lon="12.0162428"><ele>320.0</ele><time>2026-04-11T08:21:55.435Z</time></trkpt><trkpt lat="42.7697815" lon="12.0161101"><ele>320.0</ele><time>2026-04-11T08:21:56.442Z</time></trkpt><trkpt lat="42.7697094" lon="12.0159971"><ele>320.0</ele><time>2026-04-11T08:21:57.443Z</time></trkpt><trkpt lat="42.7696137" lon="12.0158862"><ele>320.0</ele><time>2026-04-11T08:21:58.444Z</time></trkpt><trkpt lat="42.7695137" lon="12.0158121"><ele>322.6</ele><time>2026-04-11T08:21:59.444Z</time></trkpt><trkpt lat="42.769405" lon="12.0157408"><ele>325.2</ele><time>2026-04-11T08:22:00.443Z</time></trkpt><trkpt lat="42.7692989" lon="12.0156795"><ele>327.79999999999995</ele><time>2026-04-11T08:22:01.434Z</time></trkpt><trkpt lat="42.7691958" lon="12.0156386"><ele>330.4</ele><time>2026-04-11T08:22:02.44Z</time></trkpt><trkpt lat="42.7691158" lon="12.0156916"><ele>333.0</ele><time>2026-04-11T08:22:03.447Z</time></trkpt><trkpt lat="42.7690375" lon="12.0158083"><ele>334.25</ele><time>2026-04-11T08:22:04.447Z</time></trkpt><trkpt lat="42.7689607" lon="12.0159814"><ele>335.5</ele><time>2026-04-11T08:22:05.439Z</time></trkpt><trkpt lat="42.7689081" lon="12.0161587"><ele>336.75</ele><time>2026-04-11T08:22:06.436Z</time></trkpt><trkpt lat="42.7688564" lon="12.0163505"><ele>338.0</ele><time>2026-04-11T08:22:07.437Z</time></trkpt><trkpt lat="42.7688102" lon="12.016543"><ele>337.0</ele><time>2026-04-11T08:22:08.442Z</time></trkpt><trkpt lat="42.7687607" lon="12.0166871"><ele>336.0</ele><time>2026-04-11T08:22:09.443Z</time></trkpt><trkpt lat="42.7687028" lon="12.0168212"><ele>335.0</ele><time>2026-04-11T08:22:10.442Z</time></trkpt><trkpt lat="42.7686106" lon="12.0169251"><ele>334.0</ele><time>2026-04-11T08:22:11.453Z</time></trkpt><trkpt lat="42.7685186" lon="12.0169991"><ele>339.0</ele><time>2026-04-11T08:22:12.448Z</time></trkpt><trkpt lat="42.7684059" lon="12.0170401"><ele>344.0</ele><time>2026-04-11T08:22:13.444Z</time></trkpt><trkpt lat="42.7682797" lon="12.0170766"><ele>349.0</ele><time>2026-04-11T08:22:14.444Z</time></trkpt><trkpt lat="42.7681507" lon="12.0170857"><ele>354.0</ele><time>2026-04-11T08:22:15.442Z</time></trkpt><trkpt lat="42.7680106" lon="12.0170796"><ele>354.0</ele><time>2026-04-11T08:22:16.443Z</time></trkpt><trkpt lat="42.7678821" lon="12.0170622"><ele>354.0</ele><time>2026-04-11T08:22:17.443Z</time></trkpt><trkpt lat="42.7677463" lon="12.0170404"><ele>354.0</ele><time>2026-04-11T08:22:18.45Z</time></trkpt><trkpt lat="42.7676076" lon="12.0170036"><ele>354.0</ele><time>2026-04-11T08:22:19.446Z</time></trkpt><trkpt lat="42.7674815" lon="12.0169432"><ele>355.75</ele><time>2026-04-11T08:22:20.442Z</time></trkpt><trkpt lat="42.7673598" lon="12.0168664"><ele>357.5</ele><time>2026-04-11T08:22:21.447Z</time></trkpt><trkpt lat="42.7672413" lon="12.0167839"><ele>359.25</ele><time>2026-04-11T08:22:22.44Z</time></trkpt><trkpt lat="42.7671429" lon="12.0167174"><ele>361.0</ele><time>2026-04-11T08:22:23.432Z</time></trkpt><trkpt lat="42.7670714" lon="12.0166622"><ele>362.8</ele><time>2026-04-11T08:22:24.434Z</time></trkpt><trkpt lat="42.7670305" lon="12.0165467"><ele>364.6</ele><time>2026-04-11T08:22:26.431Z</time></trkpt><trkpt lat="42.7671167" lon="12.0165003"><ele>366.4</ele><time>2026-04-11T08:22:28.449Z</time></trkpt><trkpt lat="42.7672087" lon="12.0165146"><ele>368.2</ele><time>2026-04-11T08:22:29.447Z</time></trkpt><trkpt lat="42.7673218" lon="12.0165318"><ele>370.0</ele><time>2026-04-11T08:22:30.437Z</time></trkpt><trkpt lat="42.7674406" lon="12.0165478"><ele>370.0</ele><time>2026-04-11T08:22:31.435Z</time></trkpt><trkpt lat="42.7675698" lon="12.0165494"><ele>370.0</ele><time>2026-04-11T08:22:32.44Z</time></trkpt><trkpt lat="42.7677093" lon="12.0165288"><ele>370.0</ele><time>2026-04-11T08:22:33.434Z</time></trkpt><trkpt lat="42.7678464" lon="12.0164979"><ele>370.0</ele><time>2026-04-11T08:22:34.431Z</time></trkpt><trkpt lat="42.7679833" lon="12.0164451"><ele>367.75</ele><time>2026-04-11T08:22:35.432Z</time></trkpt><trkpt lat="42.7681036" lon="12.0163431"><ele>365.5</ele><time>2026-04-11T08:22:36.432Z</time></trkpt><trkpt lat="42.7682055" lon="12.0162148"><ele>363.25</ele><time>2026-04-11T08:22:37.443Z</time></trkpt><trkpt lat="42.7682844" lon="12.0160603"><ele>361.0</ele><time>2026-04-11T08:22:38.444Z</time></trkpt><trkpt lat="42.7683427" lon="12.0158678"><ele>359.66666666666663</ele><time>2026-04-11T08:22:39.429Z</time></trkpt><trkpt lat="42.7683879" lon="12.0155723"><ele>358.3333333333333</ele><time>2026-04-11T08:22:40.425Z</time></trkpt><trkpt lat="42.7683075" lon="12.0153782"><ele>357.0</ele><time>2026-04-11T08:22:41.424Z</time></trkpt><trkpt lat="42.7682603" lon="12.0152153"><ele>357.0</ele><time>2026-04-11T08:22:42.44Z</time></trkpt><trkpt lat="42.7682427" lon="12.0150578"><ele>357.0</ele><time>2026-04-11T08:22:43.423Z</time></trkpt><trkpt lat="42.7681314" lon="12.0149414"><ele>357.0</ele><time>2026-04-11T08:22:44.428Z</time></trkpt><trkpt lat="42.7680084" lon="12.0148499"><ele>357.0</ele><time>2026-04-11T08:22:45.421Z</time></trkpt><trkpt lat="42.7679155" lon="12.014752"><ele>353.25</ele><time>2026-04-11T08:22:46.424Z</time></trkpt><trkpt lat="42.7677588" lon="12.0147116"><ele>349.5</ele><time>2026-04-11T08:22:47.428Z</time></trkpt><trkpt lat="42.7676068" lon="12.014711"><ele>345.75</ele><time>2026-04-11T08:22:48.42Z</time></trkpt><trkpt lat="42.7674742" lon="12.0146682"><ele>342.0</ele><time>2026-04-11T08:22:49.419Z</time></trkpt><trkpt lat="42.7672918" lon="12.0146624"><ele>342.0</ele><time>2026-04-11T08:22:50.424Z</time></trkpt><trkpt lat="42.7671306" lon="12.0146533"><ele>342.0</ele><time>2026-04-11T08:22:51.42Z</time></trkpt><trkpt lat="42.7669592" lon="12.0146235"><ele>342.0</ele><time>2026-04-11T08:22:52.421Z</time></trkpt><trkpt lat="42.7668439" lon="12.0145476"><ele>344.5</ele><time>2026-04-11T08:22:53.422Z</time></trkpt><trkpt lat="42.7667107" lon="12.0144498"><ele>347.0</ele><time>2026-04-11T08:22:54.433Z</time></trkpt><trkpt lat="42.7665486" lon="12.0143527"><ele>349.5</ele><time>2026-04-11T08:22:55.427Z</time></trkpt><trkpt lat="42.7664317" lon="12.0143414"><ele>352.0</ele><time>2026-04-11T08:22:56.423Z</time></trkpt><trkpt lat="42.7662835" lon="12.0143235"><ele>352.0</ele><time>2026-04-11T08:22:57.421Z</time></trkpt><trkpt lat="42.7661879" lon="12.0142587"><ele>352.0</ele><time>2026-04-11T08:22:58.425Z</time></trkpt><trkpt lat="42.7660557" lon="12.0141806"><ele>352.0</ele><time>2026-04-11T08:22:59.421Z</time></trkpt><trkpt lat="42.7659413" lon="12.0140509"><ele>352.0</ele><time>2026-04-11T08:23:00.425Z</time></trkpt><trkpt lat="42.7658841" lon="12.0138391"><ele>353.0</ele><time>2026-04-11T08:23:01.421Z</time></trkpt><trkpt lat="42.7659461" lon="12.01354"><ele>354.0</ele><time>2026-04-11T08:23:02.423Z</time></trkpt><trkpt lat="42.7659401" lon="12.0133281"><ele>355.0</ele><time>2026-04-11T08:23:03.426Z</time></trkpt><trkpt lat="42.7659051" lon="12.0130911"><ele>352.0</ele><time>2026-04-11T08:23:04.421Z</time></trkpt><trkpt lat="42.765883" lon="12.0128636"><ele>349.0</ele><time>2026-04-11T08:23:05.416Z</time></trkpt><trkpt lat="42.7658449" lon="12.012644"><ele>346.0</ele><time>2026-04-11T08:23:06.416Z</time></trkpt><trkpt lat="42.7657997" lon="12.0124411"><ele>345.0</ele><time>2026-04-11T08:23:07.42Z</time></trkpt><trkpt lat="42.7657513" lon="12.0122531"><ele>344.0</ele><time>2026-04-11T08:23:08.422Z</time></trkpt><trkpt lat="42.7657236" lon="12.0120918"><ele>343.0</ele><time>2026-04-11T08:23:09.42Z</time></trkpt><trkpt lat="42.7657048" lon="12.0119504"><ele>342.0</ele><time>2026-04-11T08:23:10.424Z</time></trkpt><trkpt lat="42.7656936" lon="12.011817"><ele>342.0</ele><time>2026-04-11T08:23:11.423Z</time></trkpt><trkpt lat="42.7656954" lon="12.0116919"><ele>342.0</ele><time>2026-04-11T08:23:12.428Z</time></trkpt><trkpt lat="42.7657031" lon="12.0115955"><ele>342.0</ele><time>2026-04-11T08:23:13.442Z</time></trkpt><trkpt lat="42.7656951" lon="12.0114168"><ele>342.0</ele><time>2026-04-11T08:23:15.42Z</time></trkpt><trkpt lat="42.7657018" lon="12.0113047"><ele>342.0</ele><time>2026-04-11T08:23:16.421Z</time></trkpt><trkpt lat="42.7657024" lon="12.0111483"><ele>341.75</ele><time>2026-04-11T08:23:17.425Z</time></trkpt><trkpt lat="42.765692" lon="12.010987"><ele>341.5</ele><time>2026-04-11T08:23:18.428Z</time></trkpt><trkpt lat="42.7656779" lon="12.0108268"><ele>341.25</ele><time>2026-04-11T08:23:19.43Z</time></trkpt><trkpt lat="42.7656589" lon="12.010673"><ele>341.0</ele><time>2026-04-11T08:23:20.423Z</time></trkpt><trkpt lat="42.765633" lon="12.0105"><ele>341.8</ele><time>2026-04-11T08:23:21.424Z</time></trkpt><trkpt lat="42.7655998" lon="12.010338"><ele>342.6</ele><time>2026-04-11T08:23:22.424Z</time></trkpt><trkpt lat="42.7655802" lon="12.0101835"><ele>343.4</ele><time>2026-04-11T08:23:23.42Z</time></trkpt><trkpt lat="42.7655591" lon="12.010041"><ele>344.2</ele><time>2026-04-11T08:23:24.428Z</time></trkpt><trkpt lat="42.7655172" lon="12.0099158"><ele>345.0</ele><time>2026-04-11T08:23:25.431Z</time></trkpt><trkpt lat="42.7654564" lon="12.0098361"><ele>346.5</ele><time>2026-04-11T08:23:26.421Z</time></trkpt><trkpt lat="42.7653879" lon="12.009794"><ele>348.0</ele><time>2026-04-11T08:23:27.42Z</time></trkpt><trkpt lat="42.765311" lon="12.0097426"><ele>349.5</ele><time>2026-04-11T08:23:28.419Z</time></trkpt><trkpt lat="42.765228" lon="12.0096726"><ele>351.0</ele><time>2026-04-11T08:23:30.412Z</time></trkpt><trkpt lat="42.7652051" lon="12.0095825"><ele>352.5</ele><time>2026-04-11T08:23:32.415Z</time></trkpt><trkpt lat="42.7652759" lon="12.0094795"><ele>354.0</ele><time>2026-04-11T08:23:34.417Z</time></trkpt><trkpt lat="42.7653486" lon="12.0094024"><ele>354.0</ele><time>2026-04-11T08:23:35.414Z</time></trkpt><trkpt lat="42.7654341" lon="12.0092958"><ele>354.0</ele><time>2026-04-11T08:23:36.412Z</time></trkpt><trkpt lat="42.7654933" lon="12.0091928"><ele>354.0</ele><time>2026-04-11T08:23:37.409Z</time></trkpt><trkpt lat="42.7655847" lon="12.0090823"><ele>354.0</ele><time>2026-04-11T08:23:38.416Z</time></trkpt><trkpt lat="42.7656939" lon="12.0089685"><ele>355.6666666666667</ele><time>2026-04-11T08:23:39.421Z</time></trkpt><trkpt lat="42.7658212" lon="12.0088076"><ele>357.33333333333337</ele><time>2026-04-11T08:23:40.422Z</time></trkpt><trkpt lat="42.7658971" lon="12.0086336"><ele>359.0</ele><time>2026-04-11T08:23:41.424Z</time></trkpt><trkpt lat="42.7659488" lon="12.0084647"><ele>359.75</ele><time>2026-04-11T08:23:42.427Z</time></trkpt><trkpt lat="42.7659692" lon="12.0082683"><ele>360.5</ele><time>2026-04-11T08:23:43.422Z</time></trkpt><trkpt lat="42.7659753" lon="12.0080734"><ele>361.25</ele><time>2026-04-11T08:23:44.434Z</time></trkpt><trkpt lat="42.7659517" lon="12.0078919"><ele>362.0</ele><time>2026-04-11T08:23:45.421Z</time></trkpt><trkpt lat="42.7659193" lon="12.0077332"><ele>362.0</ele><time>2026-04-11T08:23:46.423Z</time></trkpt><trkpt lat="42.7658903" lon="12.0075788"><ele>362.0</ele><time>2026-04-11T08:23:47.419Z</time></trkpt><trkpt lat="42.7658754" lon="12.0074427"><ele>362.0</ele><time>2026-04-11T08:23:48.423Z</time></trkpt><trkpt lat="42.7658752" lon="12.0073037"><ele>362.0</ele><time>2026-04-11T08:23:49.419Z</time></trkpt><trkpt lat="42.7658901" lon="12.0071701"><ele>362.0</ele><time>2026-04-11T08:23:50.425Z</time></trkpt><trkpt lat="42.7659396" lon="12.0070374"><ele>360.0</ele><time>2026-04-11T08:23:51.414Z</time></trkpt><trkpt lat="42.7660308" lon="12.0069252"><ele>358.0</ele><time>2026-04-11T08:23:52.416Z</time></trkpt><trkpt lat="42.7661254" lon="12.0068556"><ele>356.0</ele><time>2026-04-11T08:23:53.417Z</time></trkpt><trkpt lat="42.7662344" lon="12.0067837"><ele>354.0</ele><time>2026-04-11T08:23:54.422Z</time></trkpt><trkpt lat="42.7663697" lon="12.0067181"><ele>354.0</ele><time>2026-04-11T08:23:55.416Z</time></trkpt><trkpt lat="42.7664923" lon="12.0066831"><ele>354.0</ele><time>2026-04-11T08:23:56.43Z</time></trkpt><trkpt lat="42.7666" lon="12.0066343"><ele>354.0</ele><time>2026-04-11T08:23:57.434Z</time></trkpt><trkpt lat="42.7666918" lon="12.0065557"><ele>354.0</ele><time>2026-04-11T08:23:58.435Z</time></trkpt><trkpt lat="42.7667868" lon="12.0064585"><ele>352.75</ele><time>2026-04-11T08:23:59.438Z</time></trkpt><trkpt lat="42.7668542" lon="12.0063347"><ele>351.5</ele><time>2026-04-11T08:24:00.426Z</time></trkpt><trkpt lat="42.7669028" lon="12.0061876"><ele>350.25</ele><time>2026-04-11T08:24:01.423Z</time></trkpt><trkpt lat="42.7669544" lon="12.0060082"><ele>349.0</ele><time>2026-04-11T08:24:02.424Z</time></trkpt><trkpt lat="42.7669978" lon="12.0058407"><ele>345.79999999999995</ele><time>2026-04-11T08:24:03.425Z</time></trkpt><trkpt lat="42.7670385" lon="12.0057046"><ele>342.59999999999997</ele><time>2026-04-11T08:24:04.421Z</time></trkpt><trkpt lat="42.7670848" lon="12.0055894"><ele>339.4</ele><time>2026-04-11T08:24:05.424Z</time></trkpt><trkpt lat="42.7671214" lon="12.0054984"><ele>336.2</ele><time>2026-04-11T08:24:06.415Z</time></trkpt><trkpt lat="42.7671841" lon="12.0054704"><ele>333.0</ele><time>2026-04-11T08:24:07.427Z</time></trkpt><trkpt lat="42.7672982" lon="12.0055123"><ele>333.0</ele><time>2026-04-11T08:24:09.432Z</time></trkpt><trkpt lat="42.7673519" lon="12.0055909"><ele>333.0</ele><time>2026-04-11T08:24:10.422Z</time></trkpt><trkpt lat="42.7674013" lon="12.0056736"><ele>333.0</ele><time>2026-04-11T08:24:11.427Z</time></trkpt><trkpt lat="42.7674497" lon="12.0057313"><ele>333.0</ele><time>2026-04-11T08:24:12.426Z</time></trkpt><trkpt lat="42.7675002" lon="12.00579"><ele>333.0</ele><time>2026-04-11T08:24:13.424Z</time></trkpt><trkpt lat="42.7675891" lon="12.0058085"><ele>333.0</ele><time>2026-04-11T08:24:15.443Z</time></trkpt><trkpt lat="42.7676722" lon="12.0057768"><ele>331.0</ele><time>2026-04-11T08:24:16.426Z</time></trkpt><trkpt lat="42.767755" lon="12.0056758"><ele>329.0</ele><time>2026-04-11T08:24:17.419Z</time></trkpt><trkpt lat="42.7678037" lon="12.0055764"><ele>327.0</ele><time>2026-04-11T08:24:18.425Z</time></trkpt><trkpt lat="42.7678722" lon="12.0054739"><ele>325.0</ele><time>2026-04-11T08:24:19.427Z</time></trkpt><trkpt lat="42.7679968" lon="12.0054063"><ele>323.0</ele><time>2026-04-11T08:24:21.419Z</time></trkpt><trkpt lat="42.768065" lon="12.0054283"><ele>323.0</ele><time>2026-04-11T08:24:22.429Z</time></trkpt><trkpt lat="42.7681346" lon="12.0055378"><ele>323.0</ele><time>2026-04-11T08:24:23.417Z</time></trkpt><trkpt lat="42.7681971" lon="12.0056641"><ele>323.0</ele><time>2026-04-11T08:24:24.422Z</time></trkpt><trkpt lat="42.7682528" lon="12.0057696"><ele>323.0</ele><time>2026-04-11T08:24:25.427Z</time></trkpt><trkpt lat="42.7683103" lon="12.0058894"><ele>323.0</ele><time>2026-04-11T08:24:26.429Z</time></trkpt><trkpt lat="42.7683626" lon="12.0059985"><ele>323.0</ele><time>2026-04-11T08:24:27.425Z</time></trkpt><trkpt lat="42.7684305" lon="12.0060175"><ele>323.0</ele><time>2026-04-11T08:24:29.435Z</time></trkpt><trkpt lat="42.768458" lon="12.0058425"><ele>323.0</ele><time>2026-04-11T08:24:31.427Z</time></trkpt><trkpt lat="42.7684705" lon="12.0056893"><ele>323.0</ele><time>2026-04-11T08:24:32.428Z</time></trkpt><trkpt lat="42.7684751" lon="12.0055099"><ele>323.0</ele><time>2026-04-11T08:24:33.431Z</time></trkpt><trkpt lat="42.7684939" lon="12.0053575"><ele>323.0</ele><time>2026-04-11T08:24:34.431Z</time></trkpt><trkpt lat="42.7685232" lon="12.005226"><ele>323.0</ele><time>2026-04-11T08:24:35.429Z</time></trkpt><trkpt lat="42.7685537" lon="12.0051283"><ele>323.0</ele><time>2026-04-11T08:24:36.432Z</time></trkpt><trkpt lat="42.7685846" lon="12.0050419"><ele>323.0</ele><time>2026-04-11T08:24:37.432Z</time></trkpt><trkpt lat="42.7686838" lon="12.0049813"><ele>323.0</ele><time>2026-04-11T08:24:39.443Z</time></trkpt><trkpt lat="42.768743" lon="12.0050179"><ele>323.0</ele><time>2026-04-11T08:24:40.426Z</time></trkpt><trkpt lat="42.7688042" lon="12.0051014"><ele>319.5</ele><time>2026-04-11T08:24:41.422Z</time></trkpt><trkpt lat="42.7688777" lon="12.0051923"><ele>316.0</ele><time>2026-04-11T08:24:42.428Z</time></trkpt><trkpt lat="42.7689786" lon="12.0053428"><ele>312.5</ele><time>2026-04-11T08:24:43.424Z</time></trkpt><trkpt lat="42.7690804" lon="12.0054784"><ele>309.0</ele><time>2026-04-11T08:24:44.434Z</time></trkpt><trkpt lat="42.7691609" lon="12.0055967"><ele>309.0</ele><time>2026-04-11T08:24:45.43Z</time></trkpt><trkpt lat="42.7692279" lon="12.0056787"><ele>309.0</ele><time>2026-04-11T08:24:46.455Z</time></trkpt><trkpt lat="42.7692826" lon="12.0057259"><ele>309.0</ele><time>2026-04-11T08:24:47.426Z</time></trkpt><trkpt lat="42.7693638" lon="12.0057504"><ele>309.0</ele><time>2026-04-11T08:24:49.43Z</time></trkpt><trkpt lat="42.7694418" lon="12.0056555"><ele>309.0</ele><time>2026-04-11T08:24:51.434Z</time></trkpt><trkpt lat="42.7694574" lon="12.0055565"><ele>309.0</ele><time>2026-04-11T08:24:52.434Z</time></trkpt><trkpt lat="42.7694634" lon="12.0054228"><ele>306.0</ele><time>2026-04-11T08:24:53.427Z</time></trkpt><trkpt lat="42.7694512" lon="12.0052517"><ele>303.0</ele><time>2026-04-11T08:24:54.433Z</time></trkpt><trkpt lat="42.7694261" lon="12.0050635"><ele>300.0</ele><time>2026-04-11T08:24:55.422Z</time></trkpt><trkpt lat="42.7693892" lon="12.0048683"><ele>297.0</ele><time>2026-04-11T08:24:56.427Z</time></trkpt><trkpt lat="42.7693253" lon="12.0046818"><ele>297.0</ele><time>2026-04-11T08:24:57.428Z</time></trkpt><trkpt lat="42.7692414" lon="12.0045173"><ele>297.0</ele><time>2026-04-11T08:24:58.425Z</time></trkpt><trkpt lat="42.7691343" lon="12.0043663"><ele>297.0</ele><time>2026-04-11T08:24:59.421Z</time></trkpt><trkpt lat="42.7690104" lon="12.0042132"><ele>292.6666666666667</ele><time>2026-04-11T08:25:00.435Z</time></trkpt><trkpt lat="42.7688979" lon="12.0040384"><ele>288.33333333333337</ele><time>2026-04-11T08:25:01.428Z</time></trkpt><trkpt lat="42.7687796" lon="12.003871"><ele>284.0</ele><time>2026-04-11T08:25:02.446Z</time></trkpt><trkpt lat="42.7686696" lon="12.003694"><ele>284.0</ele><time>2026-04-11T08:25:03.437Z</time></trkpt><trkpt lat="42.768594" lon="12.0035327"><ele>284.0</ele><time>2026-04-11T08:25:04.436Z</time></trkpt><trkpt lat="42.7685324" lon="12.0033966"><ele>284.0</ele><time>2026-04-11T08:25:05.437Z</time></trkpt><trkpt lat="42.7684772" lon="12.0032695"><ele>284.0</ele><time>2026-04-11T08:25:06.431Z</time></trkpt><trkpt lat="42.7683843" lon="12.003146"><ele>283.75</ele><time>2026-04-11T08:25:07.431Z</time></trkpt><trkpt lat="42.7683063" lon="12.003028"><ele>283.5</ele><time>2026-04-11T08:25:08.428Z</time></trkpt><trkpt lat="42.7681962" lon="12.0029186"><ele>283.25</ele><time>2026-04-11T08:25:09.423Z</time></trkpt><trkpt lat="42.7680883" lon="12.002802"><ele>283.0</ele><time>2026-04-11T08:25:10.433Z</time></trkpt><trkpt lat="42.7680091" lon="12.0026912"><ele>283.0</ele><time>2026-04-11T08:25:11.425Z</time></trkpt><trkpt lat="42.7679202" lon="12.0025741"><ele>283.0</ele><time>2026-04-11T08:25:12.425Z</time></trkpt><trkpt lat="42.7678429" lon="12.0024526"><ele>283.0</ele><time>2026-04-11T08:25:13.425Z</time></trkpt><trkpt lat="42.7677723" lon="12.0023309"><ele>283.0</ele><time>2026-04-11T08:25:14.422Z</time></trkpt><trkpt lat="42.767709" lon="12.0022224"><ele>280.8</ele><time>2026-04-11T08:25:15.424Z</time></trkpt><trkpt lat="42.7676388" lon="12.002144"><ele>278.6</ele><time>2026-04-11T08:25:16.431Z</time></trkpt><trkpt lat="42.7675732" lon="12.0021025"><ele>276.4</ele><time>2026-04-11T08:25:17.415Z</time></trkpt><trkpt lat="42.7674393" lon="12.0021345"><ele>274.2</ele><time>2026-04-11T08:25:19.414Z</time></trkpt><trkpt lat="42.7673463" lon="12.002205"><ele>272.0</ele><time>2026-04-11T08:25:20.416Z</time></trkpt><trkpt lat="42.7672264" lon="12.0022843"><ele>272.0</ele><time>2026-04-11T08:25:21.413Z</time></trkpt><trkpt lat="42.767098" lon="12.0023565"><ele>272.0</ele><time>2026-04-11T08:25:22.419Z</time></trkpt><trkpt lat="42.7669643" lon="12.0024252"><ele>272.0</ele><time>2026-04-11T08:25:23.42Z</time></trkpt><trkpt lat="42.766825" lon="12.0024726"><ele>272.0</ele><time>2026-04-11T08:25:24.417Z</time></trkpt><trkpt lat="42.7667001" lon="12.0025004"><ele>272.6666666666667</ele><time>2026-04-11T08:25:25.418Z</time></trkpt><trkpt lat="42.7665811" lon="12.0025128"><ele>273.33333333333337</ele><time>2026-04-11T08:25:26.415Z</time></trkpt><trkpt lat="42.7664779" lon="12.0025171"><ele>274.0</ele><time>2026-04-11T08:25:27.42Z</time></trkpt><trkpt lat="42.7663942" lon="12.0025193"><ele>274.6666666666667</ele><time>2026-04-11T08:25:28.419Z</time></trkpt><trkpt lat="42.7663313" lon="12.0025003"><ele>275.3333333333333</ele><time>2026-04-11T08:25:29.419Z</time></trkpt><trkpt lat="42.7662633" lon="12.0024549"><ele>276.0</ele><time>2026-04-11T08:25:30.421Z</time></trkpt><trkpt lat="42.7662103" lon="12.0023748"><ele>276.0</ele><time>2026-04-11T08:25:31.425Z</time></trkpt><trkpt lat="42.7661736" lon="12.0022667"><ele>276.0</ele><time>2026-04-11T08:25:32.429Z</time></trkpt><trkpt lat="42.7661538" lon="12.0021169"><ele>276.0</ele><time>2026-04-11T08:25:33.428Z</time></trkpt><trkpt lat="42.7661342" lon="12.0019152"><ele>276.0</ele><time>2026-04-11T08:25:34.418Z</time></trkpt><trkpt lat="42.7661097" lon="12.0016875"><ele>274.6666666666667</ele><time>2026-04-11T08:25:35.424Z</time></trkpt><trkpt lat="42.766077" lon="12.0014395"><ele>273.33333333333337</ele><time>2026-04-11T08:25:36.424Z</time></trkpt><trkpt lat="42.7660494" lon="12.0011656"><ele>272.0</ele><time>2026-04-11T08:25:37.427Z</time></trkpt><trkpt lat="42.7660217" lon="12.0008768"><ele>271.0</ele><time>2026-04-11T08:25:38.428Z</time></trkpt><trkpt lat="42.7659884" lon="12.0005989"><ele>270.0</ele><time>2026-04-11T08:25:39.432Z</time></trkpt><trkpt lat="42.765961" lon="12.0003858"><ele>269.0</ele><time>2026-04-11T08:25:40.43Z</time></trkpt><trkpt lat="42.7659219" lon="12.0002228"><ele>269.0</ele><time>2026-04-11T08:25:41.427Z</time></trkpt><trkpt lat="42.7658848" lon="12.0000883"><ele>269.0</ele><time>2026-04-11T08:25:42.428Z</time></trkpt><trkpt lat="42.7658573" lon="11.999943"><ele>269.0</ele><time>2026-04-11T08:25:43.431Z</time></trkpt><trkpt lat="42.7658092" lon="11.9998676"><ele>269.0</ele><time>2026-04-11T08:25:44.432Z</time></trkpt><trkpt lat="42.7657275" lon="11.9998095"><ele>269.0</ele><time>2026-04-11T08:25:46.433Z</time></trkpt><trkpt lat="42.765608" lon="11.9998689"><ele>269.0</ele><time>2026-04-11T08:25:48.431Z</time></trkpt><trkpt lat="42.7655482" lon="11.999924"><ele>269.0</ele><time>2026-04-11T08:25:49.427Z</time></trkpt><trkpt lat="42.7654842" lon="11.9999876"><ele>269.0</ele><time>2026-04-11T08:25:50.439Z</time></trkpt><trkpt lat="42.7654082" lon="12.0000616"><ele>269.0</ele><time>2026-04-11T08:25:51.428Z</time></trkpt><trkpt lat="42.7653219" lon="12.0001285"><ele>269.0</ele><time>2026-04-11T08:25:52.435Z</time></trkpt><trkpt lat="42.7652215" lon="12.0001907"><ele>270.25</ele><time>2026-04-11T08:25:53.431Z</time></trkpt><trkpt lat="42.765105" lon="12.0002441"><ele>271.5</ele><time>2026-04-11T08:25:54.431Z</time></trkpt><trkpt lat="42.7649766" lon="12.0003026"><ele>272.75</ele><time>2026-04-11T08:25:55.428Z</time></trkpt><trkpt lat="42.7648325" lon="12.0003706"><ele>274.0</ele><time>2026-04-11T08:25:56.432Z</time></trkpt><trkpt lat="42.7646735" lon="12.0004432"><ele>274.0</ele><time>2026-04-11T08:25:57.437Z</time></trkpt><trkpt lat="42.7645247" lon="12.0005202"><ele>274.0</ele><time>2026-04-11T08:25:58.426Z</time></trkpt><trkpt lat="42.7643644" lon="12.0005724"><ele>274.0</ele><time>2026-04-11T08:25:59.434Z</time></trkpt><trkpt lat="42.7642186" lon="12.0006402"><ele>275.66666666666663</ele><time>2026-04-11T08:26:00.44Z</time></trkpt><trkpt lat="42.7640529" lon="12.0007167"><ele>277.3333333333333</ele><time>2026-04-11T08:26:01.442Z</time></trkpt><trkpt lat="42.7639001" lon="12.000791"><ele>279.0</ele><time>2026-04-11T08:26:02.44Z</time></trkpt><trkpt lat="42.7637431" lon="12.000861"><ele>280.0</ele><time>2026-04-11T08:26:03.439Z</time></trkpt><trkpt lat="42.7635913" lon="12.0009109"><ele>281.0</ele><time>2026-04-11T08:26:04.439Z</time></trkpt><trkpt lat="42.7634624" lon="12.000974"><ele>282.0</ele><time>2026-04-11T08:26:05.43Z</time></trkpt><trkpt lat="42.7633325" lon="12.0010281"><ele>283.0</ele><time>2026-04-11T08:26:06.421Z</time></trkpt><trkpt lat="42.7632264" lon="12.0010751"><ele>284.6</ele><time>2026-04-11T08:26:07.415Z</time></trkpt><trkpt lat="42.7631468" lon="12.0011077"><ele>286.20000000000005</ele><time>2026-04-11T08:26:08.413Z</time></trkpt><trkpt lat="42.7630736" lon="12.0010675"><ele>287.8</ele><time>2026-04-11T08:26:10.414Z</time></trkpt><trkpt lat="42.7630691" lon="12.0009305"><ele>289.40000000000003</ele><time>2026-04-11T08:26:12.416Z</time></trkpt><trkpt lat="42.7631052" lon="12.0008048"><ele>291.0</ele><time>2026-04-11T08:26:13.415Z</time></trkpt><trkpt lat="42.7631199" lon="12.0006354"><ele>291.0</ele><time>2026-04-11T08:26:14.415Z</time></trkpt><trkpt lat="42.7631285" lon="12.0004178"><ele>291.0</ele><time>2026-04-11T08:26:15.419Z</time></trkpt><trkpt lat="42.7631149" lon="12.0002039"><ele>291.0</ele><time>2026-04-11T08:26:16.423Z</time></trkpt><trkpt lat="42.7630659" lon="12.0000084"><ele>291.0</ele><time>2026-04-11T08:26:17.425Z</time></trkpt><trkpt lat="42.7630184" lon="11.9998327"><ele>291.0</ele><time>2026-04-11T08:26:18.444Z</time></trkpt><trkpt lat="42.7629792" lon="11.9996534"><ele>291.0</ele><time>2026-04-11T08:26:19.421Z</time></trkpt><trkpt lat="42.7629628" lon="11.999466"><ele>291.0</ele><time>2026-04-11T08:26:20.416Z</time></trkpt><trkpt lat="42.7629729" lon="11.9992653"><ele>291.25</ele><time>2026-04-11T08:26:21.422Z</time></trkpt><trkpt lat="42.7630102" lon="11.9990531"><ele>291.5</ele><time>2026-04-11T08:26:22.418Z</time></trkpt><trkpt lat="42.7630471" lon="11.9988597"><ele>291.75</ele><time>2026-04-11T08:26:23.419Z</time></trkpt><trkpt lat="42.7630756" lon="11.9986972"><ele>292.0</ele><time>2026-04-11T08:26:24.428Z</time></trkpt><trkpt lat="42.7631004" lon="11.9985172"><ele>292.0</ele><time>2026-04-11T08:26:25.424Z</time></trkpt><trkpt lat="42.7631386" lon="11.9983465"><ele>292.0</ele><time>2026-04-11T08:26:26.42Z</time></trkpt><trkpt lat="42.763207" lon="11.9981787"><ele>292.0</ele><time>2026-04-11T08:26:27.419Z</time></trkpt><trkpt lat="42.7632922" lon="11.998044"><ele>292.0</ele><time>2026-04-11T08:26:28.426Z</time></trkpt><trkpt lat="42.7633685" lon="11.9979243"><ele>292.0</ele><time>2026-04-11T08:26:29.431Z</time></trkpt><trkpt lat="42.7634263" lon="11.9978094"><ele>292.0</ele><time>2026-04-11T08:26:30.425Z</time></trkpt><trkpt lat="42.7634813" lon="11.9976932"><ele>292.0</ele><time>2026-04-11T08:26:31.425Z</time></trkpt><trkpt lat="42.763507" lon="11.997584"><ele>292.0</ele><time>2026-04-11T08:26:32.432Z</time></trkpt><trkpt lat="42.7634936" lon="11.9974829"><ele>292.0</ele><time>2026-04-11T08:26:33.428Z</time></trkpt><trkpt lat="42.7634522" lon="11.9973867"><ele>292.0</ele><time>2026-04-11T08:26:34.437Z</time></trkpt><trkpt lat="42.7633844" lon="11.997291"><ele>291.0</ele><time>2026-04-11T08:26:35.426Z</time></trkpt><trkpt lat="42.7632812" lon="11.9971898"><ele>290.0</ele><time>2026-04-11T08:26:36.426Z</time></trkpt><trkpt lat="42.7631679" lon="11.9970812"><ele>289.0</ele><time>2026-04-11T08:26:37.421Z</time></trkpt><trkpt lat="42.7630475" lon="11.9969722"><ele>288.0</ele><time>2026-04-11T08:26:38.428Z</time></trkpt><trkpt lat="42.7629182" lon="11.996872"><ele>288.0</ele><time>2026-04-11T08:26:39.427Z</time></trkpt><trkpt lat="42.7627884" lon="11.9967742"><ele>288.0</ele><time>2026-04-11T08:26:40.44Z</time></trkpt><trkpt lat="42.7626741" lon="11.9966903"><ele>288.0</ele><time>2026-04-11T08:26:41.434Z</time></trkpt><trkpt lat="42.7625728" lon="11.9966253"><ele>288.0</ele><time>2026-04-11T08:26:42.427Z</time></trkpt><trkpt lat="42.762482" lon="11.9965641"><ele>290.5</ele><time>2026-04-11T08:26:43.432Z</time></trkpt><trkpt lat="42.7624161" lon="11.9965033"><ele>293.0</ele><time>2026-04-11T08:26:44.43Z</time></trkpt><trkpt lat="42.7623812" lon="11.9963631"><ele>295.5</ele><time>2026-04-11T08:26:46.446Z</time></trkpt><trkpt lat="42.7624117" lon="11.9962814"><ele>298.0</ele><time>2026-04-11T08:26:47.431Z</time></trkpt><trkpt lat="42.7624564" lon="11.99619"><ele>300.5</ele><time>2026-04-11T08:26:48.436Z</time></trkpt><trkpt lat="42.7625266" lon="11.9960945"><ele>303.0</ele><time>2026-04-11T08:26:49.457Z</time></trkpt><trkpt lat="42.762612" lon="11.9959975"><ele>303.0</ele><time>2026-04-11T08:26:50.445Z</time></trkpt><trkpt lat="42.7626845" lon="11.9958923"><ele>303.0</ele><time>2026-04-11T08:26:51.439Z</time></trkpt><trkpt lat="42.7627219" lon="11.9957866"><ele>303.0</ele><time>2026-04-11T08:26:52.442Z</time></trkpt><trkpt lat="42.7627092" lon="11.9956934"><ele>303.0</ele><time>2026-04-11T08:26:53.438Z</time></trkpt><trkpt lat="42.7626476" lon="11.9956265"><ele>303.0</ele><time>2026-04-11T08:26:54.439Z</time></trkpt><trkpt lat="42.7625492" lon="11.9955482"><ele>303.25</ele><time>2026-04-11T08:26:55.433Z</time></trkpt><trkpt lat="42.762435" lon="11.9954522"><ele>303.5</ele><time>2026-04-11T08:26:56.432Z</time></trkpt><trkpt lat="42.7623199" lon="11.9953472"><ele>303.75</ele><time>2026-04-11T08:26:57.436Z</time></trkpt><trkpt lat="42.7621972" lon="11.9952219"><ele>304.0</ele><time>2026-04-11T08:26:58.438Z</time></trkpt><trkpt lat="42.7620972" lon="11.9950833"><ele>304.66666666666663</ele><time>2026-04-11T08:26:59.437Z</time></trkpt><trkpt lat="42.762008" lon="11.9949285"><ele>305.3333333333333</ele><time>2026-04-11T08:27:00.436Z</time></trkpt><trkpt lat="42.76192" lon="11.9947412"><ele>306.0</ele><time>2026-04-11T08:27:01.443Z</time></trkpt><trkpt lat="42.7618536" lon="11.9945693"><ele>306.0</ele><time>2026-04-11T08:27:02.442Z</time></trkpt><trkpt lat="42.7617772" lon="11.9943923"><ele>306.0</ele><time>2026-04-11T08:27:03.44Z</time></trkpt><trkpt lat="42.7617042" lon="11.9942209"><ele>306.0</ele><time>2026-04-11T08:27:04.439Z</time></trkpt><trkpt lat="42.7616634" lon="11.9940764"><ele>306.0</ele><time>2026-04-11T08:27:05.441Z</time></trkpt><trkpt lat="42.7616385" lon="11.9939361"><ele>305.0</ele><time>2026-04-11T08:27:06.441Z</time></trkpt><trkpt lat="42.7616064" lon="11.9937997"><ele>304.0</ele><time>2026-04-11T08:27:07.431Z</time></trkpt><trkpt lat="42.7615644" lon="11.9936939"><ele>303.0</ele><time>2026-04-11T08:27:08.435Z</time></trkpt><trkpt lat="42.7614688" lon="11.9936992"><ele>302.0</ele><time>2026-04-11T08:27:11.437Z</time></trkpt><trkpt lat="42.7613881" lon="11.9937832"><ele>301.0</ele><time>2026-04-11T08:27:12.431Z</time></trkpt><trkpt lat="42.761299" lon="11.9938186"><ele>301.0</ele><time>2026-04-11T08:27:13.431Z</time></trkpt><trkpt lat="42.7612058" lon="11.9938437"><ele>301.0</ele><time>2026-04-11T08:27:14.439Z</time></trkpt><trkpt lat="42.7611129" lon="11.9938721"><ele>301.0</ele><time>2026-04-11T08:27:15.446Z</time></trkpt><trkpt lat="42.761017" lon="11.9939103"><ele>301.0</ele><time>2026-04-11T08:27:16.447Z</time></trkpt><trkpt lat="42.7609216" lon="11.9939581"><ele>301.0</ele><time>2026-04-11T08:27:17.44Z</time></trkpt><trkpt lat="42.7608129" lon="11.9940117"><ele>303.40000000000003</ele><time>2026-04-11T08:27:18.439Z</time></trkpt><trkpt lat="42.7607002" lon="11.9940509"><ele>305.8</ele><time>2026-04-11T08:27:19.436Z</time></trkpt><trkpt lat="42.760598" lon="11.9940569"><ele>308.20000000000005</ele><time>2026-04-11T08:27:20.453Z</time></trkpt><trkpt lat="42.7605042" lon="11.9940554"><ele>310.6</ele><time>2026-04-11T08:27:21.43Z</time></trkpt><trkpt lat="42.7604171" lon="11.994066"><ele>313.0</ele><time>2026-04-11T08:27:22.43Z</time></trkpt><trkpt lat="42.760344" lon="11.9940977"><ele>315.5</ele><time>2026-04-11T08:27:23.422Z</time></trkpt><trkpt lat="42.7602794" lon="11.9942115"><ele>318.0</ele><time>2026-04-11T08:27:25.432Z</time></trkpt><trkpt lat="42.7603752" lon="11.9943278"><ele>320.5</ele><time>2026-04-11T08:27:27.435Z</time></trkpt><trkpt lat="42.7604791" lon="11.9943823"><ele>323.0</ele><time>2026-04-11T08:27:28.431Z</time></trkpt><trkpt lat="42.7605843" lon="11.9944494"><ele>323.0</ele><time>2026-04-11T08:27:29.435Z</time></trkpt><trkpt lat="42.7606843" lon="11.9945375"><ele>323.0</ele><time>2026-04-11T08:27:30.434Z</time></trkpt><trkpt lat="42.7607787" lon="11.9946556"><ele>323.0</ele><time>2026-04-11T08:27:31.436Z</time></trkpt><trkpt lat="42.7608591" lon="11.9948023"><ele>323.0</ele><time>2026-04-11T08:27:32.439Z</time></trkpt><trkpt lat="42.7609151" lon="11.9949516"><ele>323.59999999999997</ele><time>2026-04-11T08:27:33.432Z</time></trkpt><trkpt lat="42.7609422" lon="11.9951073"><ele>324.2</ele><time>2026-04-11T08:27:34.428Z</time></trkpt><trkpt lat="42.760946" lon="11.9952571"><ele>324.8</ele><time>2026-04-11T08:27:35.432Z</time></trkpt><trkpt lat="42.7609246" lon="11.9953938"><ele>325.4</ele><time>2026-04-11T08:27:36.431Z</time></trkpt><trkpt lat="42.7608859" lon="11.9955228"><ele>326.0</ele><time>2026-04-11T08:27:37.428Z</time></trkpt><trkpt lat="42.7608271" lon="11.9956422"><ele>326.0</ele><time>2026-04-11T08:27:38.435Z</time></trkpt><trkpt lat="42.7607665" lon="11.9957594"><ele>326.0</ele><time>2026-04-11T08:27:39.44Z</time></trkpt><trkpt lat="42.760699" lon="11.9958757"><ele>326.0</ele><time>2026-04-11T08:27:40.436Z</time></trkpt><trkpt lat="42.7606408" lon="11.9959811"><ele>326.0</ele><time>2026-04-11T08:27:41.437Z</time></trkpt><trkpt lat="42.760583" lon="11.9960652"><ele>326.0</ele><time>2026-04-11T08:27:42.441Z</time></trkpt><trkpt lat="42.7605095" lon="11.9961188"><ele>326.8</ele><time>2026-04-11T08:27:43.44Z</time></trkpt><trkpt lat="42.7604144" lon="11.9961354"><ele>327.6</ele><time>2026-04-11T08:27:44.432Z</time></trkpt><trkpt lat="42.7603218" lon="11.9961094"><ele>328.4</ele><time>2026-04-11T08:27:45.423Z</time></trkpt><trkpt lat="42.7602303" lon="11.9960368"><ele>329.2</ele><time>2026-04-11T08:27:46.426Z</time></trkpt><trkpt lat="42.7601469" lon="11.9959395"><ele>330.0</ele><time>2026-04-11T08:27:47.435Z</time></trkpt><trkpt lat="42.760074" lon="11.9958398"><ele>332.3333333333333</ele><time>2026-04-11T08:27:48.434Z</time></trkpt><trkpt lat="42.7599978" lon="11.9957654"><ele>334.6666666666667</ele><time>2026-04-11T08:27:49.428Z</time></trkpt><trkpt lat="42.7599247" lon="11.9957074"><ele>337.0</ele><time>2026-04-11T08:27:50.433Z</time></trkpt><trkpt lat="42.7598623" lon="11.9956744"><ele>339.33333333333337</ele><time>2026-04-11T08:27:51.444Z</time></trkpt><trkpt lat="42.7598002" lon="11.9957806"><ele>341.6666666666667</ele><time>2026-04-11T08:27:53.421Z</time></trkpt><trkpt lat="42.7597898" lon="11.9959023"><ele>344.0</ele><time>2026-04-11T08:27:54.428Z</time></trkpt><trkpt lat="42.759779" lon="11.9960847"><ele>345.0</ele><time>2026-04-11T08:27:55.435Z</time></trkpt><trkpt lat="42.7597568" lon="11.9962731"><ele>346.0</ele><time>2026-04-11T08:27:56.428Z</time></trkpt><trkpt lat="42.759735" lon="11.9964295"><ele>347.0</ele><time>2026-04-11T08:27:57.426Z</time></trkpt><trkpt lat="42.759706" lon="11.9965681"><ele>348.0</ele><time>2026-04-11T08:27:58.427Z</time></trkpt><trkpt lat="42.7596752" lon="11.9966815"><ele>348.0</ele><time>2026-04-11T08:27:59.426Z</time></trkpt><trkpt lat="42.7596407" lon="11.9967684"><ele>348.0</ele><time>2026-04-11T08:28:00.424Z</time></trkpt><trkpt lat="42.7595898" lon="11.9968212"><ele>348.0</ele><time>2026-04-11T08:28:01.423Z</time></trkpt><trkpt lat="42.7594851" lon="11.9968164"><ele>348.0</ele><time>2026-04-11T08:28:03.427Z</time></trkpt><trkpt lat="42.7594198" lon="11.9967913"><ele>348.0</ele><time>2026-04-11T08:28:04.432Z</time></trkpt><trkpt lat="42.7593466" lon="11.9967722"><ele>348.0</ele><time>2026-04-11T08:28:05.439Z</time></trkpt><trkpt lat="42.7592657" lon="11.996757"><ele>351.59999999999997</ele><time>2026-04-11T08:28:06.438Z</time></trkpt><trkpt lat="42.7591789" lon="11.9967358"><ele>355.2</ele><time>2026-04-11T08:28:07.439Z</time></trkpt><trkpt lat="42.7590875" lon="11.9966821"><ele>358.8</ele><time>2026-04-11T08:28:08.437Z</time></trkpt><trkpt lat="42.7590269" lon="11.9965879"><ele>362.4</ele><time>2026-04-11T08:28:09.44Z</time></trkpt><trkpt lat="42.7589767" lon="11.9964803"><ele>366.0</ele><time>2026-04-11T08:28:10.448Z</time></trkpt><trkpt lat="42.7589136" lon="11.996378"><ele>366.0</ele><time>2026-04-11T08:28:11.437Z</time></trkpt><trkpt lat="42.7588725" lon="11.9962987"><ele>366.0</ele><time>2026-04-11T08:28:12.446Z</time></trkpt><trkpt lat="42.7587948" lon="11.9963146"><ele>366.0</ele><time>2026-04-11T08:28:14.435Z</time></trkpt><trkpt lat="42.7587507" lon="11.9964298"><ele>366.0</ele><time>2026-04-11T08:28:15.43Z</time></trkpt><trkpt lat="42.7586876" lon="11.9965379"><ele>366.0</ele><time>2026-04-11T08:28:16.422Z</time></trkpt><trkpt lat="42.7586317" lon="11.9966992"><ele>366.25</ele><time>2026-04-11T08:28:17.422Z</time></trkpt><trkpt lat="42.7585886" lon="11.9968716"><ele>366.5</ele><time>2026-04-11T08:28:18.431Z</time></trkpt><trkpt lat="42.7585503" lon="11.9970431"><ele>366.75</ele><time>2026-04-11T08:28:19.424Z</time></trkpt><trkpt lat="42.7585138" lon="11.9971917"><ele>367.0</ele><time>2026-04-11T08:28:20.42Z</time></trkpt><trkpt lat="42.7584939" lon="11.9973395"><ele>368.3333333333333</ele><time>2026-04-11T08:28:21.413Z</time></trkpt><trkpt lat="42.7585029" lon="11.9974629"><ele>369.66666666666663</ele><time>2026-04-11T08:28:22.436Z</time></trkpt><trkpt lat="42.758517" lon="11.9975734"><ele>371.0</ele><time>2026-04-11T08:28:23.426Z</time></trkpt><trkpt lat="42.7585593" lon="11.9976674"><ele>372.3333333333333</ele><time>2026-04-11T08:28:24.429Z</time></trkpt><trkpt lat="42.7586063" lon="11.9977515"><ele>373.6666666666667</ele><time>2026-04-11T08:28:25.424Z</time></trkpt><trkpt lat="42.7586433" lon="11.9978682"><ele>375.0</ele><time>2026-04-11T08:28:26.432Z</time></trkpt><trkpt lat="42.7586738" lon="11.9979801"><ele>375.0</ele><time>2026-04-11T08:28:27.423Z</time></trkpt><trkpt lat="42.7587035" lon="11.9981102"><ele>375.0</ele><time>2026-04-11T08:28:28.427Z</time></trkpt><trkpt lat="42.7586737" lon="11.9982373"><ele>375.0</ele><time>2026-04-11T08:28:29.432Z</time></trkpt><trkpt lat="42.7586151" lon="11.9983255"><ele>375.0</ele><time>2026-04-11T08:28:30.43Z</time></trkpt><trkpt lat="42.7585203" lon="11.9983708"><ele>375.0</ele><time>2026-04-11T08:28:31.419Z</time></trkpt><trkpt lat="42.7584341" lon="11.9983759"><ele>379.2</ele><time>2026-04-11T08:28:32.433Z</time></trkpt><trkpt lat="42.7583542" lon="11.9983227"><ele>383.4</ele><time>2026-04-11T08:28:33.422Z</time></trkpt><trkpt lat="42.7582826" lon="11.9982324"><ele>387.6</ele><time>2026-04-11T08:28:34.424Z</time></trkpt><trkpt lat="42.7582156" lon="11.9980978"><ele>391.8</ele><time>2026-04-11T08:28:35.425Z</time></trkpt><trkpt lat="42.7581467" lon="11.9979541"><ele>396.0</ele><time>2026-04-11T08:28:36.43Z</time></trkpt><trkpt lat="42.7580835" lon="11.997823"><ele>396.0</ele><time>2026-04-11T08:28:37.427Z</time></trkpt><trkpt lat="42.7579964" lon="11.9977054"><ele>396.0</ele><time>2026-04-11T08:28:38.428Z</time></trkpt><trkpt lat="42.7579097" lon="11.9976059"><ele>396.0</ele><time>2026-04-11T08:28:39.428Z</time></trkpt><trkpt lat="42.757813" lon="11.9975263"><ele>396.0</ele><time>2026-04-11T08:28:40.421Z</time></trkpt><trkpt lat="42.7577166" lon="11.9974657"><ele>399.0</ele><time>2026-04-11T08:28:41.421Z</time></trkpt><trkpt lat="42.7576086" lon="11.9973522"><ele>402.0</ele><time>2026-04-11T08:28:42.422Z</time></trkpt><trkpt lat="42.7575146" lon="11.9972987"><ele>405.0</ele><time>2026-04-11T08:28:43.419Z</time></trkpt><trkpt lat="42.7574403" lon="11.9972253"><ele>408.0</ele><time>2026-04-11T08:28:44.42Z</time></trkpt><trkpt lat="42.7573433" lon="11.9971403"><ele>411.0</ele><time>2026-04-11T08:28:45.418Z</time></trkpt><trkpt lat="42.7572697" lon="11.997118"><ele>411.0</ele><time>2026-04-11T08:28:46.419Z</time></trkpt><trkpt lat="42.7571763" lon="11.9971422"><ele>411.0</ele><time>2026-04-11T08:28:47.432Z</time></trkpt><trkpt lat="42.757069" lon="11.9971571"><ele>411.0</ele><time>2026-04-11T08:28:48.437Z</time></trkpt><trkpt lat="42.7569642" lon="11.9971563"><ele>411.0</ele><time>2026-04-11T08:28:49.433Z</time></trkpt><trkpt lat="42.7568645" lon="11.9971435"><ele>411.0</ele><time>2026-04-11T08:28:50.43Z</time></trkpt><trkpt lat="42.7567591" lon="11.9970991"><ele>415.8</ele><time>2026-04-11T08:28:51.43Z</time></trkpt><trkpt lat="42.7566891" lon="11.9970205"><ele>420.6</ele><time>2026-04-11T08:28:52.442Z</time></trkpt><trkpt lat="42.7566319" lon="11.9969214"><ele>425.4</ele><time>2026-04-11T08:28:53.446Z</time></trkpt><trkpt lat="42.7565412" lon="11.9968413"><ele>430.2</ele><time>2026-04-11T08:28:54.435Z</time></trkpt><trkpt lat="42.7564528" lon="11.9967776"><ele>435.0</ele><time>2026-04-11T08:28:55.436Z</time></trkpt><trkpt lat="42.7563545" lon="11.9967235"><ele>434.6</ele><time>2026-04-11T08:28:56.436Z</time></trkpt><trkpt lat="42.7562656" lon="11.996669"><ele>434.2</ele><time>2026-04-11T08:28:57.428Z</time></trkpt><trkpt lat="42.7562027" lon="11.9966458"><ele>433.79999999999995</ele><time>2026-04-11T08:28:58.431Z</time></trkpt><trkpt lat="42.7560884" lon="11.9965893"><ele>433.4</ele><time>2026-04-11T08:29:00.441Z</time></trkpt><trkpt lat="42.7560159" lon="11.9965252"><ele>433.0</ele><time>2026-04-11T08:29:01.437Z</time></trkpt><trkpt lat="42.7559396" lon="11.996463"><ele>437.33333333333337</ele><time>2026-04-11T08:29:02.438Z</time></trkpt><trkpt lat="42.7558713" lon="11.9964232"><ele>441.6666666666667</ele><time>2026-04-11T08:29:03.438Z</time></trkpt><trkpt lat="42.7557895" lon="11.9963869"><ele>446.0</ele><time>2026-04-11T08:29:04.43Z</time></trkpt><trkpt lat="42.7557129" lon="11.9963629"><ele>450.33333333333337</ele><time>2026-04-11T08:29:05.429Z</time></trkpt><trkpt lat="42.7556356" lon="11.9963452"><ele>454.6666666666667</ele><time>2026-04-11T08:29:06.43Z</time></trkpt><trkpt lat="42.7555521" lon="11.9963076"><ele>459.0</ele><time>2026-04-11T08:29:07.434Z</time></trkpt><trkpt lat="42.7554621" lon="11.9962765"><ele>459.0</ele><time>2026-04-11T08:29:08.425Z</time></trkpt><trkpt lat="42.7553797" lon="11.996239"><ele>459.0</ele><time>2026-04-11T08:29:09.423Z</time></trkpt><trkpt lat="42.7553093" lon="11.9962252"><ele>459.0</ele><time>2026-04-11T08:29:10.423Z</time></trkpt><trkpt lat="42.7552001" lon="11.9962373"><ele>459.0</ele><time>2026-04-11T08:29:12.424Z</time></trkpt><trkpt lat="42.755188" lon="11.9963384"><ele>459.0</ele><time>2026-04-11T08:29:14.429Z</time></trkpt><trkpt lat="42.7553223" lon="11.9963878"><ele>459.0</ele><time>2026-04-11T08:29:16.42Z</time></trkpt><trkpt lat="42.7554268" lon="11.9964535"><ele>459.0</ele><time>2026-04-11T08:29:17.42Z</time></trkpt><trkpt lat="42.7554224" lon="11.996544"><ele>459.0</ele><time>2026-04-11T08:29:19.421Z</time></trkpt><trkpt lat="42.7553518" lon="11.9965607"><ele>459.0</ele><time>2026-04-11T08:29:20.42Z</time></trkpt><trkpt lat="42.7552753" lon="11.9965677"><ele>459.0</ele><time>2026-04-11T08:29:21.415Z</time></trkpt><trkpt lat="42.755182" lon="11.9965626"><ele>459.0</ele><time>2026-04-11T08:29:22.416Z</time></trkpt><trkpt lat="42.7550944" lon="11.9965392"><ele>462.2</ele><time>2026-04-11T08:29:23.421Z</time></trkpt><trkpt lat="42.7549936" lon="11.996482"><ele>465.4</ele><time>2026-04-11T08:29:24.451Z</time></trkpt><trkpt lat="42.7548877" lon="11.9964285"><ele>468.6</ele><time>2026-04-11T08:29:25.418Z</time></trkpt><trkpt lat="42.7547907" lon="11.996357"><ele>471.8</ele><time>2026-04-11T08:29:26.415Z</time></trkpt><trkpt lat="42.7546962" lon="11.9963366"><ele>475.0</ele><time>2026-04-11T08:29:27.41Z</time></trkpt><trkpt lat="42.7546145" lon="11.996341"><ele>475.0</ele><time>2026-04-11T08:29:28.419Z</time></trkpt><trkpt lat="42.7545381" lon="11.996418"><ele>475.0</ele><time>2026-04-11T08:29:30.408Z</time></trkpt><trkpt lat="42.7546991" lon="11.9965738"><ele>475.0</ele><time>2026-04-11T08:29:33.414Z</time></trkpt><trkpt lat="42.7548538" lon="11.9966379"><ele>480.75</ele><time>2026-04-11T08:29:34.414Z</time></trkpt><trkpt lat="42.7549658" lon="11.9967036"><ele>486.5</ele><time>2026-04-11T08:29:35.411Z</time></trkpt><trkpt lat="42.7551195" lon="11.996768"><ele>492.25</ele><time>2026-04-11T08:29:36.407Z</time></trkpt><trkpt lat="42.7551931" lon="11.9968291"><ele>498.0</ele><time>2026-04-11T08:29:37.41Z</time></trkpt><trkpt lat="42.7551062" lon="11.9968642"><ele>498.0</ele><time>2026-04-11T08:29:40.412Z</time></trkpt><trkpt lat="42.75502" lon="11.9968328"><ele>498.0</ele><time>2026-04-11T08:29:41.405Z</time></trkpt><trkpt lat="42.754898" lon="11.9967912"><ele>498.0</ele><time>2026-04-11T08:29:42.413Z</time></trkpt><trkpt lat="42.7547868" lon="11.9967211"><ele>498.0</ele><time>2026-04-11T08:29:43.414Z</time></trkpt><trkpt lat="42.7546825" lon="11.9966619"><ele>498.0</ele><time>2026-04-11T08:29:44.424Z</time></trkpt><trkpt lat="42.7545786" lon="11.9966034"><ele>497.99999999999994</ele><time>2026-04-11T08:29:45.422Z</time></trkpt><trkpt lat="42.7545041" lon="11.996575"><ele>497.99999999999994</ele><time>2026-04-11T08:29:46.419Z</time></trkpt><trkpt lat="42.7544202" lon="11.996613"><ele>498.0</ele><time>2026-04-11T08:29:47.425Z</time></trkpt><trkpt lat="42.7543358" lon="11.9966989"><ele>498.0</ele><time>2026-04-11T08:29:48.417Z</time></trkpt><trkpt lat="42.754245" lon="11.9968339"><ele>498.0</ele><time>2026-04-11T08:29:49.417Z</time></trkpt><trkpt lat="42.7541526" lon="11.9969741"><ele>498.0</ele><time>2026-04-11T08:29:50.419Z</time></trkpt><trkpt lat="42.7540785" lon="11.997098"><ele>498.0</ele><time>2026-04-11T08:29:51.424Z</time></trkpt><trkpt lat="42.7540048" lon="11.9972071"><ele>498.0</ele><time>2026-04-11T08:29:52.425Z</time></trkpt><trkpt lat="42.7539363" lon="11.9972924"><ele>498.0</ele><time>2026-04-11T08:29:53.424Z</time></trkpt><trkpt lat="42.753868" lon="11.9973569"><ele>498.0</ele><time>2026-04-11T08:29:54.454Z</time></trkpt><trkpt lat="42.7538134" lon="11.9974444"><ele>498.0</ele><time>2026-04-11T08:29:55.429Z</time></trkpt><trkpt lat="42.7537506" lon="11.9975225"><ele>498.0</ele><time>2026-04-11T08:29:56.43Z</time></trkpt><trkpt lat="42.7536895" lon="11.9976029"><ele>498.0</ele><time>2026-04-11T08:29:57.432Z</time></trkpt><trkpt lat="42.7536273" lon="11.9976806"><ele>498.0</ele><time>2026-04-11T08:29:58.431Z</time></trkpt><trkpt lat="42.7535683" lon="11.9977532"><ele>498.0</ele><time>2026-04-11T08:29:59.431Z</time></trkpt><trkpt lat="42.7535145" lon="11.9978335"><ele>498.0</ele><time>2026-04-11T08:30:00.426Z</time></trkpt><trkpt lat="42.7534631" lon="11.9978893"><ele>498.0</ele><time>2026-04-11T08:30:01.424Z</time></trkpt><trkpt lat="42.7533802" lon="11.9979697"><ele>498.0</ele><time>2026-04-11T08:30:03.421Z</time></trkpt><trkpt lat="42.7533039" lon="11.9980517"><ele>498.0</ele><time>2026-04-11T08:30:05.419Z</time></trkpt><trkpt lat="42.7532315" lon="11.9980992"><ele>498.0</ele><time>2026-04-11T08:30:07.427Z</time></trkpt><trkpt lat="42.7531611" lon="11.998172"><ele>498.0</ele><time>2026-04-11T08:30:09.431Z</time></trkpt><trkpt lat="42.753103" lon="11.9982159"><ele>498.0</ele><time>2026-04-11T08:30:10.437Z</time></trkpt><trkpt lat="42.7530139" lon="11.9982698"><ele>498.0</ele><time>2026-04-11T08:30:12.426Z</time></trkpt><trkpt lat="42.7529494" lon="11.9983028"><ele>498.0</ele><time>2026-04-11T08:30:14.429Z</time></trkpt><trkpt lat="42.7528902" lon="11.9982241"><ele>498.0</ele><time>2026-04-11T08:31:07.446Z</time></trkpt><trkpt lat="42.7528264" lon="11.9980789"><ele>498.0</ele><time>2026-04-11T08:31:09.428Z</time></trkpt><trkpt lat="42.7527877" lon="11.9979867"><ele>498.0</ele><time>2026-04-11T08:31:10.435Z</time></trkpt><trkpt lat="42.7527391" lon="11.9979125"><ele>497.99999999999994</ele><time>2026-04-11T08:31:11.437Z</time></trkpt><trkpt lat="42.75268" lon="11.9978244"><ele>497.99999999999994</ele><time>2026-04-11T08:31:12.433Z</time></trkpt><trkpt lat="42.7526315" lon="11.9977274"><ele>498.0</ele><time>2026-04-11T08:31:13.428Z</time></trkpt><trkpt lat="42.7525695" lon="11.9976012"><ele>498.0</ele><time>2026-04-11T08:31:14.431Z</time></trkpt><trkpt lat="42.7525098" lon="11.9974856"><ele>498.25</ele><time>2026-04-11T08:31:15.429Z</time></trkpt><trkpt lat="42.7524323" lon="11.9973551"><ele>498.5</ele><time>2026-04-11T08:31:16.426Z</time></trkpt><trkpt lat="42.7523527" lon="11.9972478"><ele>498.75</ele><time>2026-04-11T08:31:17.434Z</time></trkpt><trkpt lat="42.75226" lon="11.9971431"><ele>499.0</ele><time>2026-04-11T08:31:18.446Z</time></trkpt><trkpt lat="42.7521625" lon="11.9970359"><ele>499.0</ele><time>2026-04-11T08:31:19.441Z</time></trkpt><trkpt lat="42.7520643" lon="11.9969431"><ele>499.0</ele><time>2026-04-11T08:31:20.445Z</time></trkpt><trkpt lat="42.7519498" lon="11.9968462"><ele>499.0</ele><time>2026-04-11T08:31:21.441Z</time></trkpt><trkpt lat="42.751838" lon="11.9967363"><ele>499.0</ele><time>2026-04-11T08:31:22.438Z</time></trkpt><trkpt lat="42.7517183" lon="11.9966237"><ele>501.0</ele><time>2026-04-11T08:31:23.445Z</time></trkpt><trkpt lat="42.7516028" lon="11.9965024"><ele>503.0</ele><time>2026-04-11T08:31:24.446Z</time></trkpt><trkpt lat="42.7514808" lon="11.9963565"><ele>505.0</ele><time>2026-04-11T08:31:25.439Z</time></trkpt><trkpt lat="42.75135" lon="11.9962485"><ele>505.0</ele><time>2026-04-11T08:31:26.445Z</time></trkpt><trkpt lat="42.7512265" lon="11.9961104"><ele>505.0</ele><time>2026-04-11T08:31:27.453Z</time></trkpt><trkpt lat="42.7510851" lon="11.995971"><ele>505.0</ele><time>2026-04-11T08:31:28.449Z</time></trkpt><trkpt lat="42.7509783" lon="11.9958636"><ele>506.6666666666667</ele><time>2026-04-11T08:31:29.444Z</time></trkpt><trkpt lat="42.7508621" lon="11.9957529"><ele>508.33333333333337</ele><time>2026-04-11T08:31:30.444Z</time></trkpt><trkpt lat="42.7506965" lon="11.9956331"><ele>510.0</ele><time>2026-04-11T08:31:31.474Z</time></trkpt><trkpt lat="42.750574" lon="11.9955093"><ele>510.0</ele><time>2026-04-11T08:31:32.451Z</time></trkpt><trkpt lat="42.7504499" lon="11.9953673"><ele>510.0</ele><time>2026-04-11T08:31:33.459Z</time></trkpt><trkpt lat="42.7503034" lon="11.9952328"><ele>510.0</ele><time>2026-04-11T08:31:34.46Z</time></trkpt><trkpt lat="42.750166" lon="11.9951156"><ele>513.0</ele><time>2026-04-11T08:31:35.463Z</time></trkpt><trkpt lat="42.7499847" lon="11.994991"><ele>516.0</ele><time>2026-04-11T08:31:36.455Z</time></trkpt><trkpt lat="42.7498371" lon="11.9948822"><ele>519.0</ele><time>2026-04-11T08:31:37.45Z</time></trkpt><trkpt lat="42.7497073" lon="11.9947908"><ele>519.0</ele><time>2026-04-11T08:31:38.449Z</time></trkpt><trkpt lat="42.7495567" lon="11.9947075"><ele>519.0</ele><time>2026-04-11T08:31:39.451Z</time></trkpt><trkpt lat="42.7494023" lon="11.9946996"><ele>519.0</ele><time>2026-04-11T08:31:40.452Z</time></trkpt><trkpt lat="42.7492278" lon="11.9946506"><ele>518.0</ele><time>2026-04-11T08:31:41.448Z</time></trkpt><trkpt lat="42.749057" lon="11.9946082"><ele>517.0</ele><time>2026-04-11T08:31:42.448Z</time></trkpt><trkpt lat="42.748913" lon="11.9946074"><ele>516.0</ele><time>2026-04-11T08:31:43.445Z</time></trkpt><trkpt lat="42.7487535" lon="11.9945985"><ele>516.0</ele><time>2026-04-11T08:31:44.446Z</time></trkpt><trkpt lat="42.7485943" lon="11.9945692"><ele>516.0</ele><time>2026-04-11T08:31:45.445Z</time></trkpt><trkpt lat="42.7484344" lon="11.994474"><ele>516.0</ele><time>2026-04-11T08:31:46.443Z</time></trkpt><trkpt lat="42.7483141" lon="11.9943484"><ele>522.3333333333334</ele><time>2026-04-11T08:31:47.451Z</time></trkpt><trkpt lat="42.748172" lon="11.9941595"><ele>528.6666666666667</ele><time>2026-04-11T08:31:48.456Z</time></trkpt><trkpt lat="42.7480642" lon="11.9939852"><ele>535.0</ele><time>2026-04-11T08:31:49.453Z</time></trkpt><trkpt lat="42.7479599" lon="11.9937715"><ele>535.0</ele><time>2026-04-11T08:31:50.452Z</time></trkpt><trkpt lat="42.747882" lon="11.9935693"><ele>535.0</ele><time>2026-04-11T08:31:51.451Z</time></trkpt><trkpt lat="42.7477754" lon="11.9933424"><ele>535.0</ele><time>2026-04-11T08:31:52.446Z</time></trkpt><trkpt lat="42.7476841" lon="11.9931366"><ele>534.6666666666667</ele><time>2026-04-11T08:31:53.446Z</time></trkpt><trkpt lat="42.7475483" lon="11.9929334"><ele>534.3333333333334</ele><time>2026-04-11T08:31:54.451Z</time></trkpt><trkpt lat="42.7474061" lon="11.9927855"><ele>534.0</ele><time>2026-04-11T08:31:55.435Z</time></trkpt><trkpt lat="42.7472615" lon="11.9926515"><ele>534.0</ele><time>2026-04-11T08:31:56.44Z</time></trkpt><trkpt lat="42.7470939" lon="11.9925634"><ele>534.0</ele><time>2026-04-11T08:31:57.448Z</time></trkpt><trkpt lat="42.7469358" lon="11.9924976"><ele>534.0</ele><time>2026-04-11T08:31:58.46Z</time></trkpt><trkpt lat="42.7468028" lon="11.9924032"><ele>536.5</ele><time>2026-04-11T08:31:59.443Z</time></trkpt><trkpt lat="42.7466662" lon="11.9922795"><ele>539.0</ele><time>2026-04-11T08:32:00.449Z</time></trkpt><trkpt lat="42.7465882" lon="11.9921159"><ele>541.5</ele><time>2026-04-11T08:32:01.449Z</time></trkpt><trkpt lat="42.7465575" lon="11.9919545"><ele>544.0</ele><time>2026-04-11T08:32:02.449Z</time></trkpt><trkpt lat="42.7465424" lon="11.9917867"><ele>545.75</ele><time>2026-04-11T08:32:03.439Z</time></trkpt><trkpt lat="42.7465131" lon="11.9916467"><ele>547.5</ele><time>2026-04-11T08:32:04.438Z</time></trkpt><trkpt lat="42.7464329" lon="11.9915106"><ele>549.25</ele><time>2026-04-11T08:32:05.439Z</time></trkpt><trkpt lat="42.7463669" lon="11.991376"><ele>551.0</ele><time>2026-04-11T08:32:06.441Z</time></trkpt><trkpt lat="42.746265" lon="11.9912445"><ele>551.0</ele><time>2026-04-11T08:32:07.447Z</time></trkpt><trkpt lat="42.746162" lon="11.9911457"><ele>551.0</ele><time>2026-04-11T08:32:08.451Z</time></trkpt><trkpt lat="42.7460588" lon="11.9910556"><ele>551.0</ele><time>2026-04-11T08:32:09.453Z</time></trkpt><trkpt lat="42.7459364" lon="11.9909664"><ele>551.0</ele><time>2026-04-11T08:32:10.46Z</time></trkpt><trkpt lat="42.7458167" lon="11.9908755"><ele>551.0</ele><time>2026-04-11T08:32:11.531Z</time></trkpt><trkpt lat="42.7456961" lon="11.9907907"><ele>551.0</ele><time>2026-04-11T08:32:12.534Z</time></trkpt><trkpt lat="42.7455774" lon="11.9907056"><ele>551.0</ele><time>2026-04-11T08:32:13.542Z</time></trkpt><trkpt lat="42.7454572" lon="11.9906208"><ele>551.0</ele><time>2026-04-11T08:32:14.54Z</time></trkpt><trkpt lat="42.7453554" lon="11.9905433"><ele>551.0</ele><time>2026-04-11T08:32:15.537Z</time></trkpt><trkpt lat="42.7452566" lon="11.9904591"><ele>551.0</ele><time>2026-04-11T08:32:16.544Z</time></trkpt><trkpt lat="42.745153" lon="11.9903717"><ele>551.0</ele><time>2026-04-11T08:32:17.538Z</time></trkpt><trkpt lat="42.7450438" lon="11.9902809"><ele>551.0</ele><time>2026-04-11T08:32:18.545Z</time></trkpt><trkpt lat="42.7449332" lon="11.9901851"><ele>551.5</ele><time>2026-04-11T08:32:19.54Z</time></trkpt><trkpt lat="42.744821" lon="11.9900895"><ele>552.0</ele><time>2026-04-11T08:32:20.542Z</time></trkpt><trkpt lat="42.7446995" lon="11.9899905"><ele>552.5</ele><time>2026-04-11T08:32:21.542Z</time></trkpt><trkpt lat="42.7445661" lon="11.9899044"><ele>553.0</ele><time>2026-04-11T08:32:22.537Z</time></trkpt><trkpt lat="42.744442" lon="11.9897978"><ele>554.0</ele><time>2026-04-11T08:32:23.531Z</time></trkpt><trkpt lat="42.7443069" lon="11.9897197"><ele>555.0</ele><time>2026-04-11T08:32:24.54Z</time></trkpt><trkpt lat="42.7441636" lon="11.9896651"><ele>556.0</ele><time>2026-04-11T08:32:25.531Z</time></trkpt><trkpt lat="42.7440001" lon="11.9896361"><ele>556.0</ele><time>2026-04-11T08:32:26.518Z</time></trkpt><trkpt lat="42.7438208" lon="11.989627"><ele>556.0</ele><time>2026-04-11T08:32:27.515Z</time></trkpt><trkpt lat="42.7436404" lon="11.9896209"><ele>556.0</ele><time>2026-04-11T08:32:28.521Z</time></trkpt><trkpt lat="42.7434573" lon="11.9896218"><ele>555.3333333333334</ele><time>2026-04-11T08:32:29.534Z</time></trkpt><trkpt lat="42.743275" lon="11.989637"><ele>554.6666666666666</ele><time>2026-04-11T08:32:30.536Z</time></trkpt><trkpt lat="42.7430986" lon="11.989649"><ele>554.0</ele><time>2026-04-11T08:32:31.537Z</time></trkpt><trkpt lat="42.742928" lon="11.9896586"><ele>554.0</ele><time>2026-04-11T08:32:32.54Z</time></trkpt><trkpt lat="42.7427636" lon="11.989674"><ele>554.0</ele><time>2026-04-11T08:32:33.539Z</time></trkpt><trkpt lat="42.7426002" lon="11.9896885"><ele>554.0</ele><time>2026-04-11T08:32:34.545Z</time></trkpt><trkpt lat="42.7424365" lon="11.9896975"><ele>554.0</ele><time>2026-04-11T08:32:35.543Z</time></trkpt><trkpt lat="42.7422708" lon="11.9897063"><ele>554.0</ele><time>2026-04-11T08:32:36.539Z</time></trkpt><trkpt lat="42.7421024" lon="11.9897115"><ele>554.0</ele><time>2026-04-11T08:32:37.544Z</time></trkpt><trkpt lat="42.7419301" lon="11.9897062"><ele>554.3333333333333</ele><time>2026-04-11T08:32:38.534Z</time></trkpt><trkpt lat="42.7417619" lon="11.9896847"><ele>554.6666666666666</ele><time>2026-04-11T08:32:39.538Z</time></trkpt><trkpt lat="42.7415901" lon="11.9896306"><ele>555.0</ele><time>2026-04-11T08:32:40.534Z</time></trkpt><trkpt lat="42.7414239" lon="11.9895354"><ele>555.0</ele><time>2026-04-11T08:32:41.522Z</time></trkpt><trkpt lat="42.7412609" lon="11.9894051"><ele>555.0</ele><time>2026-04-11T08:32:42.522Z</time></trkpt><trkpt lat="42.7410952" lon="11.989257"><ele>555.0</ele><time>2026-04-11T08:32:43.522Z</time></trkpt><trkpt lat="42.740922" lon="11.9891016"><ele>555.3333333333334</ele><time>2026-04-11T08:32:44.519Z</time></trkpt><trkpt lat="42.7407563" lon="11.9889273"><ele>555.6666666666667</ele><time>2026-04-11T08:32:45.545Z</time></trkpt><trkpt lat="42.7405829" lon="11.9887438"><ele>556.0</ele><time>2026-04-11T08:32:46.537Z</time></trkpt><trkpt lat="42.7404061" lon="11.9885627"><ele>556.0</ele><time>2026-04-11T08:32:47.538Z</time></trkpt><trkpt lat="42.7402257" lon="11.9883781"><ele>556.0</ele><time>2026-04-11T08:32:48.545Z</time></trkpt><trkpt lat="42.7400404" lon="11.9881913"><ele>554.0</ele><time>2026-04-11T08:32:49.549Z</time></trkpt><trkpt lat="42.7398522" lon="11.988002"><ele>552.0</ele><time>2026-04-11T08:32:50.548Z</time></trkpt><trkpt lat="42.7396623" lon="11.9878105"><ele>552.0</ele><time>2026-04-11T08:32:51.547Z</time></trkpt><trkpt lat="42.7394729" lon="11.9876183"><ele>552.0</ele><time>2026-04-11T08:32:52.552Z</time></trkpt><trkpt lat="42.7392881" lon="11.9874326"><ele>552.0</ele><time>2026-04-11T08:32:53.548Z</time></trkpt><trkpt lat="42.7391115" lon="11.9872567"><ele>552.0</ele><time>2026-04-11T08:32:54.547Z</time></trkpt><trkpt lat="42.7389456" lon="11.9870924"><ele>552.0</ele><time>2026-04-11T08:32:55.544Z</time></trkpt><trkpt lat="42.7387881" lon="11.9869341"><ele>552.0</ele><time>2026-04-11T08:32:56.548Z</time></trkpt><trkpt lat="42.7386386" lon="11.9867821"><ele>552.0</ele><time>2026-04-11T08:32:57.537Z</time></trkpt><trkpt lat="42.7385036" lon="11.9866474"><ele>552.0</ele><time>2026-04-11T08:32:58.543Z</time></trkpt><trkpt lat="42.7383707" lon="11.9865148"><ele>551.6666666666666</ele><time>2026-04-11T08:32:59.542Z</time></trkpt><trkpt lat="42.7382359" lon="11.9863802"><ele>551.3333333333333</ele><time>2026-04-11T08:33:00.557Z</time></trkpt><trkpt lat="42.7381019" lon="11.9862501"><ele>551.0</ele><time>2026-04-11T08:33:01.547Z</time></trkpt><trkpt lat="42.7379655" lon="11.9861179"><ele>551.0</ele><time>2026-04-11T08:33:02.554Z</time></trkpt><trkpt lat="42.7378239" lon="11.9859812"><ele>551.0</ele><time>2026-04-11T08:33:03.551Z</time></trkpt><trkpt lat="42.7376888" lon="11.9858503"><ele>551.0</ele><time>2026-04-11T08:33:04.549Z</time></trkpt><trkpt lat="42.7375534" lon="11.985717"><ele>552.3333333333333</ele><time>2026-04-11T08:33:05.543Z</time></trkpt><trkpt lat="42.7374225" lon="11.9855851"><ele>553.6666666666666</ele><time>2026-04-11T08:33:06.544Z</time></trkpt><trkpt lat="42.737294" lon="11.9854558"><ele>555.0</ele><time>2026-04-11T08:33:07.552Z</time></trkpt><trkpt lat="42.7371663" lon="11.9853298"><ele>555.0</ele><time>2026-04-11T08:33:08.545Z</time></trkpt><trkpt lat="42.7370425" lon="11.9852103"><ele>555.0</ele><time>2026-04-11T08:33:09.546Z</time></trkpt><trkpt lat="42.7369234" lon="11.985103"><ele>555.0</ele><time>2026-04-11T08:33:10.542Z</time></trkpt><trkpt lat="42.7368096" lon="11.985008"><ele>555.0</ele><time>2026-04-11T08:33:11.544Z</time></trkpt><trkpt lat="42.7366929" lon="11.9849235"><ele>554.5</ele><time>2026-04-11T08:33:12.549Z</time></trkpt><trkpt lat="42.7365792" lon="11.9848391"><ele>554.0</ele><time>2026-04-11T08:33:13.55Z</time></trkpt><trkpt lat="42.7364774" lon="11.9847525"><ele>553.5</ele><time>2026-04-11T08:33:14.549Z</time></trkpt><trkpt lat="42.7363828" lon="11.9846553"><ele>553.0</ele><time>2026-04-11T08:33:15.551Z</time></trkpt><trkpt lat="42.7362871" lon="11.9845539"><ele>553.0</ele><time>2026-04-11T08:33:16.548Z</time></trkpt><trkpt lat="42.7362072" lon="11.984434"><ele>553.0</ele><time>2026-04-11T08:33:17.527Z</time></trkpt><trkpt lat="42.7361398" lon="11.9842887"><ele>553.0</ele><time>2026-04-11T08:33:18.529Z</time></trkpt><trkpt lat="42.7360849" lon="11.9841215"><ele>553.0</ele><time>2026-04-11T08:33:19.53Z</time></trkpt><trkpt lat="42.7360429" lon="11.9839433"><ele>553.0</ele><time>2026-04-11T08:33:20.525Z</time></trkpt><trkpt lat="42.736008" lon="11.9837623"><ele>553.0</ele><time>2026-04-11T08:33:21.542Z</time></trkpt><trkpt lat="42.7359792" lon="11.98357"><ele>553.0</ele><time>2026-04-11T08:33:22.551Z</time></trkpt><trkpt lat="42.7359494" lon="11.9833771"><ele>553.0</ele><time>2026-04-11T08:33:23.553Z</time></trkpt><trkpt lat="42.7359158" lon="11.9831819"><ele>553.0</ele><time>2026-04-11T08:33:24.553Z</time></trkpt><trkpt lat="42.735882" lon="11.9829899"><ele>553.0</ele><time>2026-04-11T08:33:25.553Z</time></trkpt><trkpt lat="42.7358486" lon="11.9827954"><ele>553.0</ele><time>2026-04-11T08:33:26.552Z</time></trkpt><trkpt lat="42.7358136" lon="11.9825988"><ele>553.0</ele><time>2026-04-11T08:33:27.554Z</time></trkpt><trkpt lat="42.7357773" lon="11.9824017"><ele>553.0</ele><time>2026-04-11T08:33:28.555Z</time></trkpt><trkpt lat="42.7357436" lon="11.9821999"><ele>553.0</ele><time>2026-04-11T08:33:29.554Z</time></trkpt><trkpt lat="42.7357092" lon="11.9819958"><ele>553.0</ele><time>2026-04-11T08:33:30.555Z</time></trkpt><trkpt lat="42.735677" lon="11.9817875"><ele>553.0</ele><time>2026-04-11T08:33:31.565Z</time></trkpt><trkpt lat="42.7356416" lon="11.9815772"><ele>553.0</ele><time>2026-04-11T08:33:32.557Z</time></trkpt><trkpt lat="42.7356048" lon="11.9813649"><ele>553.0</ele><time>2026-04-11T08:33:33.552Z</time></trkpt><trkpt lat="42.735566" lon="11.9811488"><ele>553.0</ele><time>2026-04-11T08:33:34.551Z</time></trkpt><trkpt lat="42.7355256" lon="11.9809262"><ele>553.0</ele><time>2026-04-11T08:33:35.556Z</time></trkpt><trkpt lat="42.7354852" lon="11.9806992"><ele>553.0</ele><time>2026-04-11T08:33:36.553Z</time></trkpt><trkpt lat="42.7354471" lon="11.9804655"><ele>552.6666666666667</ele><time>2026-04-11T08:33:37.551Z</time></trkpt><trkpt lat="42.7354069" lon="11.9802199"><ele>552.3333333333334</ele><time>2026-04-11T08:33:38.555Z</time></trkpt><trkpt lat="42.7353636" lon="11.9799662"><ele>552.0</ele><time>2026-04-11T08:33:39.559Z</time></trkpt><trkpt lat="42.7353137" lon="11.9797001"><ele>552.0</ele><time>2026-04-11T08:33:40.551Z</time></trkpt><trkpt lat="42.7352673" lon="11.9794284"><ele>552.0</ele><time>2026-04-11T08:33:41.557Z</time></trkpt><trkpt lat="42.7352217" lon="11.979153"><ele>552.0</ele><time>2026-04-11T08:33:42.554Z</time></trkpt><trkpt lat="42.735171" lon="11.9788698"><ele>552.5</ele><time>2026-04-11T08:33:43.55Z</time></trkpt><trkpt lat="42.7351179" lon="11.978573"><ele>553.0</ele><time>2026-04-11T08:33:44.553Z</time></trkpt><trkpt lat="42.7350612" lon="11.9782659"><ele>553.5</ele><time>2026-04-11T08:33:45.548Z</time></trkpt><trkpt lat="42.7350052" lon="11.9779492"><ele>554.0</ele><time>2026-04-11T08:33:46.55Z</time></trkpt><trkpt lat="42.7349503" lon="11.9776178"><ele>553.5</ele><time>2026-04-11T08:33:47.554Z</time></trkpt><trkpt lat="42.7348955" lon="11.9772844"><ele>553.0</ele><time>2026-04-11T08:33:48.556Z</time></trkpt><trkpt lat="42.734837" lon="11.9769465"><ele>551.5</ele><time>2026-04-11T08:33:49.558Z</time></trkpt><trkpt lat="42.7347814" lon="11.9766092"><ele>550.0</ele><time>2026-04-11T08:33:50.555Z</time></trkpt><trkpt lat="42.7347265" lon="11.9762724"><ele>550.0</ele><time>2026-04-11T08:33:51.558Z</time></trkpt><trkpt lat="42.7346697" lon="11.9759309"><ele>550.0</ele><time>2026-04-11T08:33:52.555Z</time></trkpt><trkpt lat="42.734612" lon="11.9755886"><ele>550.5</ele><time>2026-04-11T08:33:53.55Z</time></trkpt><trkpt lat="42.7345521" lon="11.9752434"><ele>551.0</ele><time>2026-04-11T08:33:54.561Z</time></trkpt><trkpt lat="42.7344947" lon="11.9749045"><ele>551.0</ele><time>2026-04-11T08:33:55.555Z</time></trkpt><trkpt lat="42.7344364" lon="11.9745731"><ele>551.0</ele><time>2026-04-11T08:33:56.555Z</time></trkpt><trkpt lat="42.7343815" lon="11.9742582"><ele>550.5</ele><time>2026-04-11T08:33:57.553Z</time></trkpt><trkpt lat="42.7343266" lon="11.9739455"><ele>550.0</ele><time>2026-04-11T08:33:58.556Z</time></trkpt><trkpt lat="42.7342734" lon="11.9736388"><ele>549.5</ele><time>2026-04-11T08:33:59.562Z</time></trkpt><trkpt lat="42.7342226" lon="11.9733378"><ele>549.0</ele><time>2026-04-11T08:34:00.553Z</time></trkpt><trkpt lat="42.7341734" lon="11.9730414"><ele>549.0</ele><time>2026-04-11T08:34:01.554Z</time></trkpt><trkpt lat="42.7341218" lon="11.9727492"><ele>549.0</ele><time>2026-04-11T08:34:02.588Z</time></trkpt><trkpt lat="42.7340692" lon="11.9724541"><ele>549.0</ele><time>2026-04-11T08:34:03.548Z</time></trkpt><trkpt lat="42.7340158" lon="11.9721564"><ele>548.5</ele><time>2026-04-11T08:34:04.547Z</time></trkpt><trkpt lat="42.7339624" lon="11.9718535"><ele>548.0</ele><time>2026-04-11T08:34:05.558Z</time></trkpt><trkpt lat="42.7339109" lon="11.971554"><ele>548.0</ele><time>2026-04-11T08:34:06.555Z</time></trkpt><trkpt lat="42.7338601" lon="11.9712544"><ele>548.0</ele><time>2026-04-11T08:34:07.557Z</time></trkpt><trkpt lat="42.7338123" lon="11.9709708"><ele>548.0</ele><time>2026-04-11T08:34:08.546Z</time></trkpt><trkpt lat="42.7337673" lon="11.9707099"><ele>547.6666666666666</ele><time>2026-04-11T08:34:09.552Z</time></trkpt><trkpt lat="42.7337217" lon="11.9704641"><ele>547.3333333333334</ele><time>2026-04-11T08:34:10.547Z</time></trkpt><trkpt lat="42.733679" lon="11.9702296"><ele>547.0</ele><time>2026-04-11T08:34:11.551Z</time></trkpt><trkpt lat="42.7336419" lon="11.9700009"><ele>547.0</ele><time>2026-04-11T08:34:12.547Z</time></trkpt><trkpt lat="42.733622" lon="11.9697756"><ele>547.0</ele><time>2026-04-11T08:34:13.543Z</time></trkpt><trkpt lat="42.7336413" lon="11.9695665"><ele>547.0</ele><time>2026-04-11T08:34:14.544Z</time></trkpt><trkpt lat="42.7336987" lon="11.9693694"><ele>547.0</ele><time>2026-04-11T08:34:15.527Z</time></trkpt><trkpt lat="42.7337932" lon="11.9691899"><ele>547.0</ele><time>2026-04-11T08:34:16.523Z</time></trkpt><trkpt lat="42.7339155" lon="11.9689982"><ele>547.0</ele><time>2026-04-11T08:34:17.524Z</time></trkpt><trkpt lat="42.7340449" lon="11.9688061"><ele>547.0</ele><time>2026-04-11T08:34:18.53Z</time></trkpt><trkpt lat="42.7341813" lon="11.9686169"><ele>547.0</ele><time>2026-04-11T08:34:19.549Z</time></trkpt><trkpt lat="42.7343215" lon="11.9684173"><ele>547.0</ele><time>2026-04-11T08:34:20.558Z</time></trkpt><trkpt lat="42.7344659" lon="11.9682078"><ele>547.3333333333334</ele><time>2026-04-11T08:34:21.559Z</time></trkpt><trkpt lat="42.7346146" lon="11.9679876"><ele>547.6666666666666</ele><time>2026-04-11T08:34:22.552Z</time></trkpt><trkpt lat="42.7347601" lon="11.9677643"><ele>548.0</ele><time>2026-04-11T08:34:23.546Z</time></trkpt><trkpt lat="42.7349086" lon="11.9675411"><ele>547.0</ele><time>2026-04-11T08:34:24.548Z</time></trkpt><trkpt lat="42.7350577" lon="11.9673235"><ele>546.0</ele><time>2026-04-11T08:34:25.547Z</time></trkpt><trkpt lat="42.7352111" lon="11.967102"><ele>545.0</ele><time>2026-04-11T08:34:26.545Z</time></trkpt><trkpt lat="42.7353707" lon="11.966882"><ele>544.0</ele><time>2026-04-11T08:34:27.551Z</time></trkpt><trkpt lat="42.7355321" lon="11.9666651"><ele>543.0</ele><time>2026-04-11T08:34:28.551Z</time></trkpt><trkpt lat="42.7356873" lon="11.9664484"><ele>542.0</ele><time>2026-04-11T08:34:29.558Z</time></trkpt><trkpt lat="42.7358451" lon="11.9662326"><ele>542.0</ele><time>2026-04-11T08:34:30.549Z</time></trkpt><trkpt lat="42.7360026" lon="11.9660142"><ele>542.0</ele><time>2026-04-11T08:34:31.552Z</time></trkpt><trkpt lat="42.7361591" lon="11.9657968"><ele>542.0</ele><time>2026-04-11T08:34:32.586Z</time></trkpt><trkpt lat="42.7363148" lon="11.9655721"><ele>541.5</ele><time>2026-04-11T08:34:33.567Z</time></trkpt><trkpt lat="42.7364725" lon="11.9653463"><ele>541.0</ele><time>2026-04-11T08:34:34.557Z</time></trkpt><trkpt lat="42.7366315" lon="11.9651146"><ele>540.5</ele><time>2026-04-11T08:34:35.557Z</time></trkpt><trkpt lat="42.7367896" lon="11.9648843"><ele>540.0</ele><time>2026-04-11T08:34:36.552Z</time></trkpt><trkpt lat="42.7369423" lon="11.9646578"><ele>540.0</ele><time>2026-04-11T08:34:37.559Z</time></trkpt><trkpt lat="42.7370971" lon="11.9644301"><ele>540.0</ele><time>2026-04-11T08:34:38.555Z</time></trkpt><trkpt lat="42.7372485" lon="11.9642182"><ele>540.0</ele><time>2026-04-11T08:34:39.544Z</time></trkpt><trkpt lat="42.7373884" lon="11.9640264"><ele>540.0</ele><time>2026-04-11T08:34:40.543Z</time></trkpt><trkpt lat="42.7375153" lon="11.9638352"><ele>540.0</ele><time>2026-04-11T08:34:41.542Z</time></trkpt><trkpt lat="42.7376385" lon="11.9636513"><ele>540.0</ele><time>2026-04-11T08:34:42.542Z</time></trkpt><trkpt lat="42.7377603" lon="11.9634711"><ele>540.0</ele><time>2026-04-11T08:34:43.541Z</time></trkpt><trkpt lat="42.7378796" lon="11.9633004"><ele>540.0</ele><time>2026-04-11T08:34:44.545Z</time></trkpt><trkpt lat="42.7380047" lon="11.9631607"><ele>540.0</ele><time>2026-04-11T08:34:45.544Z</time></trkpt><trkpt lat="42.7381498" lon="11.9630479"><ele>540.0</ele><time>2026-04-11T08:34:46.537Z</time></trkpt><trkpt lat="42.7382904" lon="11.9629725"><ele>540.0</ele><time>2026-04-11T08:34:47.528Z</time></trkpt><trkpt lat="42.7384406" lon="11.9629101"><ele>540.0</ele><time>2026-04-11T08:34:48.527Z</time></trkpt><trkpt lat="42.73858" lon="11.9628558"><ele>539.8333333333334</ele><time>2026-04-11T08:34:49.523Z</time></trkpt><trkpt lat="42.7386958" lon="11.9628081"><ele>539.6666666666666</ele><time>2026-04-11T08:34:50.524Z</time></trkpt><trkpt lat="42.7387906" lon="11.9627694"><ele>539.5</ele><time>2026-04-11T08:34:51.531Z</time></trkpt><trkpt lat="42.7388658" lon="11.9627155"><ele>539.3333333333333</ele><time>2026-04-11T08:34:52.527Z</time></trkpt><trkpt lat="42.7389058" lon="11.9626401"><ele>539.1666666666666</ele><time>2026-04-11T08:34:53.526Z</time></trkpt><trkpt lat="42.7389169" lon="11.9625537"><ele>539.0</ele><time>2026-04-11T08:34:54.542Z</time></trkpt><trkpt lat="42.7389064" lon="11.9624589"><ele>539.0</ele><time>2026-04-11T08:34:55.515Z</time></trkpt><trkpt lat="42.7388867" lon="11.9623517"><ele>539.0</ele><time>2026-04-11T08:34:56.517Z</time></trkpt><trkpt lat="42.7388457" lon="11.9622289"><ele>539.0</ele><time>2026-04-11T08:34:57.515Z</time></trkpt><trkpt lat="42.7388235" lon="11.9620808"><ele>539.0</ele><time>2026-04-11T08:34:58.51Z</time></trkpt><trkpt lat="42.7387916" lon="11.9618781"><ele>539.0</ele><time>2026-04-11T08:34:59.525Z</time></trkpt><trkpt lat="42.7387153" lon="11.9616944"><ele>538.6666666666666</ele><time>2026-04-11T08:35:00.529Z</time></trkpt><trkpt lat="42.7386511" lon="11.9615083"><ele>538.3333333333334</ele><time>2026-04-11T08:35:01.536Z</time></trkpt><trkpt lat="42.7385938" lon="11.9613186"><ele>538.0</ele><time>2026-04-11T08:35:02.54Z</time></trkpt><trkpt lat="42.7385314" lon="11.9611235"><ele>537.6666666666667</ele><time>2026-04-11T08:35:03.558Z</time></trkpt><trkpt lat="42.7384282" lon="11.9609253"><ele>537.3333333333334</ele><time>2026-04-11T08:35:04.46Z</time></trkpt><trkpt lat="42.7383675" lon="11.9607185"><ele>537.0</ele><time>2026-04-11T08:35:05.461Z</time></trkpt><trkpt lat="42.7383124" lon="11.9605176"><ele>536.75</ele><time>2026-04-11T08:35:06.464Z</time></trkpt><trkpt lat="42.7382706" lon="11.9603302"><ele>536.5</ele><time>2026-04-11T08:35:07.463Z</time></trkpt><trkpt lat="42.7382063" lon="11.9601543"><ele>536.25</ele><time>2026-04-11T08:35:08.464Z</time></trkpt><trkpt lat="42.7381345" lon="11.9599938"><ele>536.0</ele><time>2026-04-11T08:35:09.463Z</time></trkpt><trkpt lat="42.738069" lon="11.9598467"><ele>535.5</ele><time>2026-04-11T08:35:10.456Z</time></trkpt><trkpt lat="42.7379765" lon="11.9597275"><ele>535.0</ele><time>2026-04-11T08:35:11.459Z</time></trkpt><trkpt lat="42.7378666" lon="11.959612"><ele>534.5</ele><time>2026-04-11T08:35:12.464Z</time></trkpt><trkpt lat="42.7377396" lon="11.9594595"><ele>534.0</ele><time>2026-04-11T08:35:13.459Z</time></trkpt><trkpt lat="42.7375936" lon="11.9593199"><ele>533.6666666666666</ele><time>2026-04-11T08:35:14.457Z</time></trkpt><trkpt lat="42.7374439" lon="11.9591819"><ele>533.3333333333333</ele><time>2026-04-11T08:35:15.464Z</time></trkpt><trkpt lat="42.7372876" lon="11.9590354"><ele>533.0</ele><time>2026-04-11T08:35:16.462Z</time></trkpt><trkpt lat="42.7371071" lon="11.9588741"><ele>533.0</ele><time>2026-04-11T08:35:17.463Z</time></trkpt><trkpt lat="42.7369392" lon="11.9587299"><ele>533.0</ele><time>2026-04-11T08:35:18.471Z</time></trkpt><trkpt lat="42.7367642" lon="11.958574"><ele>533.0</ele><time>2026-04-11T08:35:19.467Z</time></trkpt><trkpt lat="42.7365832" lon="11.9584185"><ele>532.0</ele><time>2026-04-11T08:35:20.465Z</time></trkpt><trkpt lat="42.736401" lon="11.9582654"><ele>531.0</ele><time>2026-04-11T08:35:21.464Z</time></trkpt><trkpt lat="42.736215" lon="11.9581223"><ele>530.0</ele><time>2026-04-11T08:35:22.47Z</time></trkpt><trkpt lat="42.7360145" lon="11.9579625"><ele>529.6666666666666</ele><time>2026-04-11T08:35:23.467Z</time></trkpt><trkpt lat="42.7358502" lon="11.9578115"><ele>529.3333333333334</ele><time>2026-04-11T08:35:24.468Z</time></trkpt><trkpt lat="42.735692" lon="11.9576465"><ele>529.0</ele><time>2026-04-11T08:35:25.466Z</time></trkpt><trkpt lat="42.7355412" lon="11.9574777"><ele>528.6666666666667</ele><time>2026-04-11T08:35:26.468Z</time></trkpt><trkpt lat="42.7353895" lon="11.9572825"><ele>528.3333333333334</ele><time>2026-04-11T08:35:27.463Z</time></trkpt><trkpt lat="42.735269" lon="11.9570947"><ele>528.0</ele><time>2026-04-11T08:35:28.459Z</time></trkpt><trkpt lat="42.7351604" lon="11.956879"><ele>527.6666666666666</ele><time>2026-04-11T08:35:29.464Z</time></trkpt><trkpt lat="42.7350571" lon="11.9566767"><ele>527.3333333333333</ele><time>2026-04-11T08:35:30.462Z</time></trkpt><trkpt lat="42.7349417" lon="11.9564498"><ele>527.0</ele><time>2026-04-11T08:35:31.465Z</time></trkpt><trkpt lat="42.7348501" lon="11.9562373"><ele>527.0</ele><time>2026-04-11T08:35:32.469Z</time></trkpt><trkpt lat="42.7347495" lon="11.9560024"><ele>527.0</ele><time>2026-04-11T08:35:33.466Z</time></trkpt><trkpt lat="42.7346638" lon="11.9557947"><ele>527.0</ele><time>2026-04-11T08:35:34.477Z</time></trkpt><trkpt lat="42.7345589" lon="11.9555766"><ele>526.6666666666666</ele><time>2026-04-11T08:35:35.461Z</time></trkpt><trkpt lat="42.7344595" lon="11.9553713"><ele>526.3333333333334</ele><time>2026-04-11T08:35:36.459Z</time></trkpt><trkpt lat="42.7343701" lon="11.9551623"><ele>526.0</ele><time>2026-04-11T08:35:37.454Z</time></trkpt><trkpt lat="42.7342745" lon="11.9549781"><ele>525.5</ele><time>2026-04-11T08:35:38.459Z</time></trkpt><trkpt lat="42.7342058" lon="11.9548006"><ele>525.0</ele><time>2026-04-11T08:35:39.457Z</time></trkpt><trkpt lat="42.7341227" lon="11.9546206"><ele>524.5</ele><time>2026-04-11T08:35:40.46Z</time></trkpt><trkpt lat="42.7340759" lon="11.9544575"><ele>524.0</ele><time>2026-04-11T08:35:41.46Z</time></trkpt><trkpt lat="42.7340594" lon="11.9543122"><ele>522.0</ele><time>2026-04-11T08:35:42.448Z</time></trkpt><trkpt lat="42.7340847" lon="11.9541248"><ele>520.0</ele><time>2026-04-11T08:35:43.453Z</time></trkpt><trkpt lat="42.734114" lon="11.9539161"><ele>518.0</ele><time>2026-04-11T08:35:44.45Z</time></trkpt><trkpt lat="42.7341451" lon="11.9536629"><ele>518.0</ele><time>2026-04-11T08:35:45.439Z</time></trkpt><trkpt lat="42.7341666" lon="11.9534475"><ele>518.0</ele><time>2026-04-11T08:35:46.446Z</time></trkpt><trkpt lat="42.7341981" lon="11.9532408"><ele>518.0</ele><time>2026-04-11T08:35:47.45Z</time></trkpt><trkpt lat="42.734216" lon="11.9530257"><ele>517.75</ele><time>2026-04-11T08:35:48.445Z</time></trkpt><trkpt lat="42.7342115" lon="11.9528433"><ele>517.5</ele><time>2026-04-11T08:35:49.446Z</time></trkpt><trkpt lat="42.7342066" lon="11.9526702"><ele>517.25</ele><time>2026-04-11T08:35:50.441Z</time></trkpt><trkpt lat="42.7342028" lon="11.9525383"><ele>517.0</ele><time>2026-04-11T08:35:51.442Z</time></trkpt><trkpt lat="42.7341405" lon="11.9523672"><ele>517.0</ele><time>2026-04-11T08:35:52.443Z</time></trkpt><trkpt lat="42.7340571" lon="11.9522093"><ele>517.0</ele><time>2026-04-11T08:35:53.441Z</time></trkpt><trkpt lat="42.7338997" lon="11.9520375"><ele>517.0</ele><time>2026-04-11T08:35:54.44Z</time></trkpt><trkpt lat="42.7337532" lon="11.9518427"><ele>516.6666666666667</ele><time>2026-04-11T08:35:55.44Z</time></trkpt><trkpt lat="42.7336094" lon="11.9516401"><ele>516.3333333333334</ele><time>2026-04-11T08:35:56.442Z</time></trkpt><trkpt lat="42.7335045" lon="11.9514751"><ele>516.0</ele><time>2026-04-11T08:35:57.443Z</time></trkpt><trkpt lat="42.7334069" lon="11.9512899"><ele>516.0</ele><time>2026-04-11T08:35:58.445Z</time></trkpt><trkpt lat="42.7333018" lon="11.9511345"><ele>516.0</ele><time>2026-04-11T08:35:59.445Z</time></trkpt><trkpt lat="42.7332034" lon="11.9509844"><ele>516.0</ele><time>2026-04-11T08:36:00.443Z</time></trkpt><trkpt lat="42.7330964" lon="11.9508303"><ele>515.0</ele><time>2026-04-11T08:36:01.445Z</time></trkpt><trkpt lat="42.7329919" lon="11.9506952"><ele>514.0</ele><time>2026-04-11T08:36:02.442Z</time></trkpt><trkpt lat="42.7328665" lon="11.9505698"><ele>513.0</ele><time>2026-04-11T08:36:03.446Z</time></trkpt><trkpt lat="42.7327398" lon="11.9504496"><ele>513.3333333333334</ele><time>2026-04-11T08:36:04.445Z</time></trkpt><trkpt lat="42.7326201" lon="11.9503204"><ele>513.6666666666667</ele><time>2026-04-11T08:36:05.459Z</time></trkpt><trkpt lat="42.7323916" lon="11.9500842"><ele>514.0</ele><time>2026-04-11T08:36:07.45Z</time></trkpt><trkpt lat="42.7322926" lon="11.949969"><ele>513.5</ele><time>2026-04-11T08:36:08.453Z</time></trkpt><trkpt lat="42.7321792" lon="11.9498273"><ele>513.0</ele><time>2026-04-11T08:36:09.452Z</time></trkpt><trkpt lat="42.7320662" lon="11.9496948"><ele>512.5</ele><time>2026-04-11T08:36:10.454Z</time></trkpt><trkpt lat="42.7319547" lon="11.9495729"><ele>512.0</ele><time>2026-04-11T08:36:11.451Z</time></trkpt><trkpt lat="42.7318417" lon="11.949455"><ele>510.3333333333333</ele><time>2026-04-11T08:36:12.45Z</time></trkpt><trkpt lat="42.7317117" lon="11.9493485"><ele>508.66666666666663</ele><time>2026-04-11T08:36:13.45Z</time></trkpt><trkpt lat="42.7315697" lon="11.9492457"><ele>507.0</ele><time>2026-04-11T08:36:14.456Z</time></trkpt><trkpt lat="42.731414" lon="11.9491862"><ele>507.0</ele><time>2026-04-11T08:36:15.453Z</time></trkpt><trkpt lat="42.731262" lon="11.9490755"><ele>507.0</ele><time>2026-04-11T08:36:16.454Z</time></trkpt><trkpt lat="42.7311124" lon="11.9489859"><ele>507.0</ele><time>2026-04-11T08:36:17.453Z</time></trkpt><trkpt lat="42.7309507" lon="11.9489061"><ele>506.66666666666663</ele><time>2026-04-11T08:36:18.457Z</time></trkpt><trkpt lat="42.7308161" lon="11.9488144"><ele>506.3333333333333</ele><time>2026-04-11T08:36:19.454Z</time></trkpt><trkpt lat="42.7306608" lon="11.9487334"><ele>506.0</ele><time>2026-04-11T08:36:20.448Z</time></trkpt><trkpt lat="42.7305245" lon="11.948632"><ele>506.0</ele><time>2026-04-11T08:36:21.447Z</time></trkpt><trkpt lat="42.7304121" lon="11.9485505"><ele>506.0</ele><time>2026-04-11T08:36:22.443Z</time></trkpt><trkpt lat="42.7303035" lon="11.9484647"><ele>506.0</ele><time>2026-04-11T08:36:23.444Z</time></trkpt><trkpt lat="42.7302145" lon="11.9484043"><ele>506.0</ele><time>2026-04-11T08:36:24.433Z</time></trkpt><trkpt lat="42.7301204" lon="11.948346"><ele>504.5</ele><time>2026-04-11T08:36:25.44Z</time></trkpt><trkpt lat="42.7300049" lon="11.9483533"><ele>503.0</ele><time>2026-04-11T08:36:26.433Z</time></trkpt><trkpt lat="42.7298991" lon="11.948363"><ele>501.5</ele><time>2026-04-11T08:36:27.432Z</time></trkpt><trkpt lat="42.7298181" lon="11.9484397"><ele>500.0</ele><time>2026-04-11T08:36:28.428Z</time></trkpt><trkpt lat="42.7297446" lon="11.9486708"><ele>500.0</ele><time>2026-04-11T08:36:30.432Z</time></trkpt><trkpt lat="42.7297081" lon="11.9488036"><ele>500.0</ele><time>2026-04-11T08:36:31.424Z</time></trkpt><trkpt lat="42.7296766" lon="11.9489375"><ele>500.0</ele><time>2026-04-11T08:36:32.432Z</time></trkpt><trkpt lat="42.7296301" lon="11.9490421"><ele>500.0</ele><time>2026-04-11T08:36:33.43Z</time></trkpt><trkpt lat="42.7295884" lon="11.9491376"><ele>500.0</ele><time>2026-04-11T08:36:34.423Z</time></trkpt><trkpt lat="42.7295274" lon="11.9492047"><ele>500.0</ele><time>2026-04-11T08:36:35.423Z</time></trkpt><trkpt lat="42.729469" lon="11.9492367"><ele>500.0</ele><time>2026-04-11T08:36:36.435Z</time></trkpt><trkpt lat="42.7294" lon="11.9492461"><ele>500.0</ele><time>2026-04-11T08:36:37.42Z</time></trkpt><trkpt lat="42.7293111" lon="11.9492403"><ele>500.0</ele><time>2026-04-11T08:36:38.424Z</time></trkpt><trkpt lat="42.7291879" lon="11.9491794"><ele>500.0</ele><time>2026-04-11T08:36:39.427Z</time></trkpt><trkpt lat="42.7290346" lon="11.949059"><ele>497.3333333333333</ele><time>2026-04-11T08:36:40.418Z</time></trkpt><trkpt lat="42.7288625" lon="11.9489113"><ele>494.66666666666663</ele><time>2026-04-11T08:36:41.42Z</time></trkpt><trkpt lat="42.7286957" lon="11.9487595"><ele>492.0</ele><time>2026-04-11T08:36:42.425Z</time></trkpt><trkpt lat="42.7285454" lon="11.9486001"><ele>491.5</ele><time>2026-04-11T08:36:43.422Z</time></trkpt><trkpt lat="42.7284259" lon="11.948454"><ele>491.0</ele><time>2026-04-11T08:36:44.423Z</time></trkpt><trkpt lat="42.7283372" lon="11.9483159"><ele>490.5</ele><time>2026-04-11T08:36:45.432Z</time></trkpt><trkpt lat="42.7282703" lon="11.9481498"><ele>490.0</ele><time>2026-04-11T08:36:46.439Z</time></trkpt><trkpt lat="42.7282535" lon="11.9479942"><ele>489.8</ele><time>2026-04-11T08:36:47.426Z</time></trkpt><trkpt lat="42.7282889" lon="11.9478577"><ele>489.6</ele><time>2026-04-11T08:36:48.429Z</time></trkpt><trkpt lat="42.7283438" lon="11.9477642"><ele>489.4</ele><time>2026-04-11T08:36:49.429Z</time></trkpt><trkpt lat="42.7283987" lon="11.9476675"><ele>489.2</ele><time>2026-04-11T08:36:50.432Z</time></trkpt><trkpt lat="42.728489" lon="11.9475595"><ele>489.0</ele><time>2026-04-11T08:36:51.43Z</time></trkpt><trkpt lat="42.7285361" lon="11.9474397"><ele>488.4</ele><time>2026-04-11T08:36:52.425Z</time></trkpt><trkpt lat="42.7285711" lon="11.9473311"><ele>487.79999999999995</ele><time>2026-04-11T08:36:53.426Z</time></trkpt><trkpt lat="42.7286006" lon="11.9472274"><ele>487.20000000000005</ele><time>2026-04-11T08:36:54.427Z</time></trkpt><trkpt lat="42.7285362" lon="11.9471241"><ele>486.6</ele><time>2026-04-11T08:36:55.425Z</time></trkpt><trkpt lat="42.7284554" lon="11.9470364"><ele>486.0</ele><time>2026-04-11T08:36:56.434Z</time></trkpt><trkpt lat="42.7283364" lon="11.9469246"><ele>486.0</ele><time>2026-04-11T08:36:57.439Z</time></trkpt><trkpt lat="42.7281679" lon="11.9468055"><ele>486.0</ele><time>2026-04-11T08:36:58.431Z</time></trkpt><trkpt lat="42.7279999" lon="11.9466722"><ele>486.0</ele><time>2026-04-11T08:36:59.439Z</time></trkpt><trkpt lat="42.7278069" lon="11.9465277"><ele>487.0</ele><time>2026-04-11T08:37:00.447Z</time></trkpt><trkpt lat="42.7276612" lon="11.9464093"><ele>488.0</ele><time>2026-04-11T08:37:01.456Z</time></trkpt><trkpt lat="42.7275291" lon="11.9462816"><ele>489.0</ele><time>2026-04-11T08:37:02.467Z</time></trkpt><trkpt lat="42.7273861" lon="11.9461437"><ele>489.0</ele><time>2026-04-11T08:37:03.459Z</time></trkpt><trkpt lat="42.7272703" lon="11.9460573"><ele>489.0</ele><time>2026-04-11T08:37:04.454Z</time></trkpt><trkpt lat="42.7271892" lon="11.9459426"><ele>489.0</ele><time>2026-04-11T08:37:05.441Z</time></trkpt><trkpt lat="42.7271102" lon="11.9458787"><ele>489.0</ele><time>2026-04-11T08:37:06.44Z</time></trkpt><trkpt lat="42.7270248" lon="11.9457794"><ele>489.0</ele><time>2026-04-11T08:37:08.432Z</time></trkpt><trkpt lat="42.7270348" lon="11.9456618"><ele>489.0</ele><time>2026-04-11T08:37:10.437Z</time></trkpt><trkpt lat="42.7270894" lon="11.9456053"><ele>489.0</ele><time>2026-04-11T08:37:11.432Z</time></trkpt><trkpt lat="42.7271603" lon="11.9455291"><ele>489.0</ele><time>2026-04-11T08:37:12.429Z</time></trkpt><trkpt lat="42.727252" lon="11.9454381"><ele>489.0</ele><time>2026-04-11T08:37:13.434Z</time></trkpt><trkpt lat="42.7273533" lon="11.9453243"><ele>489.0</ele><time>2026-04-11T08:37:14.438Z</time></trkpt><trkpt lat="42.7274838" lon="11.9452065"><ele>489.0</ele><time>2026-04-11T08:37:15.435Z</time></trkpt><trkpt lat="42.7276086" lon="11.9450645"><ele>489.0</ele><time>2026-04-11T08:37:16.433Z</time></trkpt><trkpt lat="42.727723" lon="11.9449403"><ele>487.5</ele><time>2026-04-11T08:37:17.443Z</time></trkpt><trkpt lat="42.7278579" lon="11.9448153"><ele>486.0</ele><time>2026-04-11T08:37:18.448Z</time></trkpt><trkpt lat="42.7279744" lon="11.9447125"><ele>484.5</ele><time>2026-04-11T08:37:19.445Z</time></trkpt><trkpt lat="42.728054" lon="11.9445927"><ele>483.0</ele><time>2026-04-11T08:37:20.44Z</time></trkpt><trkpt lat="42.7281121" lon="11.9444424"><ele>483.0</ele><time>2026-04-11T08:37:21.442Z</time></trkpt><trkpt lat="42.7281759" lon="11.9442681"><ele>483.0</ele><time>2026-04-11T08:37:22.44Z</time></trkpt><trkpt lat="42.7282405" lon="11.9440866"><ele>483.0</ele><time>2026-04-11T08:37:23.441Z</time></trkpt><trkpt lat="42.728268" lon="11.9439033"><ele>483.0</ele><time>2026-04-11T08:37:24.434Z</time></trkpt><trkpt lat="42.7282747" lon="11.9437451"><ele>482.0</ele><time>2026-04-11T08:37:25.424Z</time></trkpt><trkpt lat="42.7282722" lon="11.9435647"><ele>481.0</ele><time>2026-04-11T08:37:26.433Z</time></trkpt><trkpt lat="42.7282218" lon="11.9433403"><ele>480.0</ele><time>2026-04-11T08:37:27.438Z</time></trkpt><trkpt lat="42.72821" lon="11.943117"><ele>478.66666666666663</ele><time>2026-04-11T08:37:28.437Z</time></trkpt><trkpt lat="42.7281842" lon="11.9428837"><ele>477.3333333333333</ele><time>2026-04-11T08:37:29.437Z</time></trkpt><trkpt lat="42.7281784" lon="11.9426517"><ele>476.0</ele><time>2026-04-11T08:37:30.441Z</time></trkpt><trkpt lat="42.7281534" lon="11.9424193"><ele>475.66666666666663</ele><time>2026-04-11T08:37:31.441Z</time></trkpt><trkpt lat="42.7281333" lon="11.9421877"><ele>475.33333333333337</ele><time>2026-04-11T08:37:32.444Z</time></trkpt><trkpt lat="42.7281385" lon="11.9419694"><ele>475.0</ele><time>2026-04-11T08:37:33.444Z</time></trkpt><trkpt lat="42.728149" lon="11.9417351"><ele>475.33333333333337</ele><time>2026-04-11T08:37:34.448Z</time></trkpt><trkpt lat="42.7281956" lon="11.9415265"><ele>475.66666666666663</ele><time>2026-04-11T08:37:35.448Z</time></trkpt><trkpt lat="42.7282337" lon="11.9413039"><ele>476.0</ele><time>2026-04-11T08:37:36.455Z</time></trkpt><trkpt lat="42.7283158" lon="11.9411036"><ele>476.0</ele><time>2026-04-11T08:37:37.454Z</time></trkpt><trkpt lat="42.7283778" lon="11.9408907"><ele>476.0</ele><time>2026-04-11T08:37:38.46Z</time></trkpt><trkpt lat="42.7283846" lon="11.9406479"><ele>476.0</ele><time>2026-04-11T08:37:39.453Z</time></trkpt><trkpt lat="42.7283906" lon="11.940421"><ele>476.66666666666663</ele><time>2026-04-11T08:37:40.45Z</time></trkpt><trkpt lat="42.7284308" lon="11.940202"><ele>477.33333333333337</ele><time>2026-04-11T08:37:41.444Z</time></trkpt><trkpt lat="42.7284808" lon="11.9399686"><ele>478.0</ele><time>2026-04-11T08:37:42.447Z</time></trkpt><trkpt lat="42.7285244" lon="11.9397894"><ele>477.6666666666667</ele><time>2026-04-11T08:37:43.447Z</time></trkpt><trkpt lat="42.7285936" lon="11.9396069"><ele>477.33333333333337</ele><time>2026-04-11T08:37:44.452Z</time></trkpt><trkpt lat="42.7286555" lon="11.9394231"><ele>477.0</ele><time>2026-04-11T08:37:45.454Z</time></trkpt><trkpt lat="42.7287072" lon="11.9392246"><ele>478.0</ele><time>2026-04-11T08:37:46.453Z</time></trkpt><trkpt lat="42.7287575" lon="11.9390547"><ele>479.0</ele><time>2026-04-11T08:37:47.454Z</time></trkpt><trkpt lat="42.7287816" lon="11.9388675"><ele>480.0</ele><time>2026-04-11T08:37:48.451Z</time></trkpt><trkpt lat="42.7288049" lon="11.9387"><ele>481.0</ele><time>2026-04-11T08:37:49.449Z</time></trkpt><trkpt lat="42.7287979" lon="11.9385138"><ele>480.5</ele><time>2026-04-11T08:37:50.442Z</time></trkpt><trkpt lat="42.7287834" lon="11.938322"><ele>480.0</ele><time>2026-04-11T08:37:51.445Z</time></trkpt><trkpt lat="42.7287718" lon="11.938121"><ele>479.5</ele><time>2026-04-11T08:37:52.45Z</time></trkpt><trkpt lat="42.7287582" lon="11.9379156"><ele>479.0</ele><time>2026-04-11T08:37:53.453Z</time></trkpt><trkpt lat="42.728724" lon="11.9377169"><ele>478.66666666666663</ele><time>2026-04-11T08:37:54.454Z</time></trkpt><trkpt lat="42.7286956" lon="11.9375184"><ele>478.33333333333337</ele><time>2026-04-11T08:37:55.455Z</time></trkpt><trkpt lat="42.7286464" lon="11.9372845"><ele>478.0</ele><time>2026-04-11T08:37:56.454Z</time></trkpt><trkpt lat="42.7285834" lon="11.9370683"><ele>477.6666666666667</ele><time>2026-04-11T08:37:57.455Z</time></trkpt><trkpt lat="42.7285125" lon="11.9368401"><ele>477.33333333333337</ele><time>2026-04-11T08:37:58.449Z</time></trkpt><trkpt lat="42.7284395" lon="11.936625"><ele>477.0</ele><time>2026-04-11T08:37:59.454Z</time></trkpt><trkpt lat="42.7283847" lon="11.9364176"><ele>477.0</ele><time>2026-04-11T08:38:00.449Z</time></trkpt><trkpt lat="42.7282994" lon="11.9362294"><ele>477.0</ele><time>2026-04-11T08:38:01.447Z</time></trkpt><trkpt lat="42.7282436" lon="11.9360245"><ele>477.0</ele><time>2026-04-11T08:38:02.458Z</time></trkpt><trkpt lat="42.7281659" lon="11.935835"><ele>476.0</ele><time>2026-04-11T08:38:03.448Z</time></trkpt><trkpt lat="42.7281154" lon="11.9356527"><ele>475.0</ele><time>2026-04-11T08:38:04.445Z</time></trkpt><trkpt lat="42.7280371" lon="11.9354654"><ele>474.0</ele><time>2026-04-11T08:38:05.452Z</time></trkpt><trkpt lat="42.7279637" lon="11.9352681"><ele>474.0</ele><time>2026-04-11T08:38:06.448Z</time></trkpt><trkpt lat="42.7278996" lon="11.9350922"><ele>474.0</ele><time>2026-04-11T08:38:07.449Z</time></trkpt><trkpt lat="42.7278717" lon="11.9348525"><ele>474.0</ele><time>2026-04-11T08:38:08.453Z</time></trkpt><trkpt lat="42.7278638" lon="11.9346806"><ele>474.0</ele><time>2026-04-11T08:38:09.46Z</time></trkpt><trkpt lat="42.7278942" lon="11.9344549"><ele>473.66666666666663</ele><time>2026-04-11T08:38:10.453Z</time></trkpt><trkpt lat="42.7279096" lon="11.9342254"><ele>473.3333333333333</ele><time>2026-04-11T08:38:11.453Z</time></trkpt><trkpt lat="42.727937" lon="11.9340112"><ele>473.0</ele><time>2026-04-11T08:38:12.441Z</time></trkpt><trkpt lat="42.7279379" lon="11.933783"><ele>472.66666666666663</ele><time>2026-04-11T08:38:13.458Z</time></trkpt><trkpt lat="42.7279394" lon="11.9335464"><ele>472.33333333333337</ele><time>2026-04-11T08:38:14.457Z</time></trkpt><trkpt lat="42.7279525" lon="11.9332954"><ele>472.0</ele><time>2026-04-11T08:38:15.453Z</time></trkpt><trkpt lat="42.7279804" lon="11.9330467"><ele>473.33333333333337</ele><time>2026-04-11T08:38:16.457Z</time></trkpt><trkpt lat="42.7279794" lon="11.9327703"><ele>474.66666666666663</ele><time>2026-04-11T08:38:17.45Z</time></trkpt><trkpt lat="42.7279625" lon="11.932488"><ele>476.0</ele><time>2026-04-11T08:38:18.44Z</time></trkpt><trkpt lat="42.7279823" lon="11.9322329"><ele>476.3333333333333</ele><time>2026-04-11T08:38:19.437Z</time></trkpt><trkpt lat="42.7279765" lon="11.9319972"><ele>476.66666666666663</ele><time>2026-04-11T08:38:20.434Z</time></trkpt><trkpt lat="42.727955" lon="11.9317522"><ele>477.0</ele><time>2026-04-11T08:38:21.434Z</time></trkpt><trkpt lat="42.7279588" lon="11.931538"><ele>477.0</ele><time>2026-04-11T08:38:22.433Z</time></trkpt><trkpt lat="42.7279163" lon="11.9312813"><ele>477.0</ele><time>2026-04-11T08:38:23.447Z</time></trkpt><trkpt lat="42.7278622" lon="11.9310031"><ele>477.0</ele><time>2026-04-11T08:38:24.452Z</time></trkpt><trkpt lat="42.7278129" lon="11.9307668"><ele>477.66666666666663</ele><time>2026-04-11T08:38:25.445Z</time></trkpt><trkpt lat="42.7277483" lon="11.9305408"><ele>478.3333333333333</ele><time>2026-04-11T08:38:26.448Z</time></trkpt><trkpt lat="42.7277156" lon="11.9302995"><ele>479.0</ele><time>2026-04-11T08:38:27.446Z</time></trkpt><trkpt lat="42.7277126" lon="11.9300648"><ele>477.6</ele><time>2026-04-11T08:38:28.449Z</time></trkpt><trkpt lat="42.727762" lon="11.9298743"><ele>476.2</ele><time>2026-04-11T08:38:29.446Z</time></trkpt><trkpt lat="42.7277589" lon="11.9297145"><ele>474.80000000000007</ele><time>2026-04-11T08:38:30.428Z</time></trkpt><trkpt lat="42.7277675" lon="11.9296072"><ele>473.40000000000003</ele><time>2026-04-11T08:38:31.43Z</time></trkpt><trkpt lat="42.7277845" lon="11.9295053"><ele>472.0</ele><time>2026-04-11T08:38:32.428Z</time></trkpt><trkpt lat="42.7277799" lon="11.9293934"><ele>472.00000000000006</ele><time>2026-04-11T08:38:34.432Z</time></trkpt><trkpt lat="42.7277106" lon="11.9293515"><ele>472.0</ele><time>2026-04-11T08:38:36.438Z</time></trkpt><trkpt lat="42.7276224" lon="11.9293086"><ele>472.0</ele><time>2026-04-11T08:38:38.434Z</time></trkpt><trkpt lat="42.7275704" lon="11.9292537"><ele>472.0</ele><time>2026-04-11T08:38:39.436Z</time></trkpt><trkpt lat="42.7275102" lon="11.9291838"><ele>472.00000000000006</ele><time>2026-04-11T08:38:40.468Z</time></trkpt><trkpt lat="42.7274351" lon="11.9290844"><ele>472.0</ele><time>2026-04-11T08:38:41.443Z</time></trkpt><trkpt lat="42.7273491" lon="11.9289714"><ele>472.0</ele><time>2026-04-11T08:38:42.437Z</time></trkpt><trkpt lat="42.7272623" lon="11.9288736"><ele>472.0</ele><time>2026-04-11T08:38:43.441Z</time></trkpt><trkpt lat="42.7271699" lon="11.9287652"><ele>472.0</ele><time>2026-04-11T08:38:44.448Z</time></trkpt><trkpt lat="42.7270687" lon="11.928649"><ele>472.0</ele><time>2026-04-11T08:38:45.446Z</time></trkpt><trkpt lat="42.7269742" lon="11.9285404"><ele>471.75</ele><time>2026-04-11T08:38:46.448Z</time></trkpt><trkpt lat="42.7268784" lon="11.9284412"><ele>471.5</ele><time>2026-04-11T08:38:47.442Z</time></trkpt><trkpt lat="42.7267964" lon="11.9283282"><ele>471.25</ele><time>2026-04-11T08:38:48.448Z</time></trkpt><trkpt lat="42.7267218" lon="11.9282006"><ele>471.0</ele><time>2026-04-11T08:38:49.442Z</time></trkpt><trkpt lat="42.7266699" lon="11.928071"><ele>471.0</ele><time>2026-04-11T08:38:50.439Z</time></trkpt><trkpt lat="42.7266323" lon="11.9279466"><ele>471.0</ele><time>2026-04-11T08:38:51.443Z</time></trkpt><trkpt lat="42.7266298" lon="11.9278149"><ele>471.0</ele><time>2026-04-11T08:38:52.439Z</time></trkpt><trkpt lat="42.7266373" lon="11.9276756"><ele>471.0</ele><time>2026-04-11T08:38:53.44Z</time></trkpt><trkpt lat="42.7266588" lon="11.9275362"><ele>471.0</ele><time>2026-04-11T08:38:54.444Z</time></trkpt><trkpt lat="42.7267005" lon="11.9273993"><ele>470.5</ele><time>2026-04-11T08:38:55.437Z</time></trkpt><trkpt lat="42.7267561" lon="11.927271"><ele>470.0</ele><time>2026-04-11T08:38:56.434Z</time></trkpt><trkpt lat="42.7268303" lon="11.9271458"><ele>469.5</ele><time>2026-04-11T08:38:57.443Z</time></trkpt><trkpt lat="42.7269274" lon="11.9270207"><ele>469.0</ele><time>2026-04-11T08:38:58.436Z</time></trkpt><trkpt lat="42.7270432" lon="11.9269428"><ele>468.25</ele><time>2026-04-11T08:38:59.438Z</time></trkpt><trkpt lat="42.7271678" lon="11.9269143"><ele>467.5</ele><time>2026-04-11T08:39:00.436Z</time></trkpt><trkpt lat="42.7273027" lon="11.9269058"><ele>466.75</ele><time>2026-04-11T08:39:01.442Z</time></trkpt><trkpt lat="42.7274442" lon="11.9269133"><ele>466.0</ele><time>2026-04-11T08:39:02.451Z</time></trkpt><trkpt lat="42.7275757" lon="11.9268961"><ele>466.0</ele><time>2026-04-11T08:39:03.442Z</time></trkpt><trkpt lat="42.7277074" lon="11.9268814"><ele>466.0</ele><time>2026-04-11T08:39:04.446Z</time></trkpt><trkpt lat="42.7278401" lon="11.9269016"><ele>466.0</ele><time>2026-04-11T08:39:05.439Z</time></trkpt><trkpt lat="42.727984" lon="11.926869"><ele>466.0</ele><time>2026-04-11T08:39:06.436Z</time></trkpt><trkpt lat="42.7281176" lon="11.9268283"><ele>465.0</ele><time>2026-04-11T08:39:07.437Z</time></trkpt><trkpt lat="42.7282848" lon="11.9268193"><ele>464.0</ele><time>2026-04-11T08:39:08.437Z</time></trkpt><trkpt lat="42.7284364" lon="11.926787"><ele>463.0</ele><time>2026-04-11T08:39:09.441Z</time></trkpt><trkpt lat="42.7285465" lon="11.9267677"><ele>462.0</ele><time>2026-04-11T08:39:10.454Z</time></trkpt><trkpt lat="42.7287191" lon="11.92672"><ele>461.25</ele><time>2026-04-11T08:39:11.437Z</time></trkpt><trkpt lat="42.7288659" lon="11.9266809"><ele>460.5</ele><time>2026-04-11T08:39:12.43Z</time></trkpt><trkpt lat="42.7289924" lon="11.9266694"><ele>459.75</ele><time>2026-04-11T08:39:13.432Z</time></trkpt><trkpt lat="42.7291451" lon="11.9266352"><ele>459.0</ele><time>2026-04-11T08:39:14.428Z</time></trkpt><trkpt lat="42.729292" lon="11.9265878"><ele>457.75</ele><time>2026-04-11T08:39:15.427Z</time></trkpt><trkpt lat="42.7294242" lon="11.9265745"><ele>456.5</ele><time>2026-04-11T08:39:16.425Z</time></trkpt><trkpt lat="42.72955" lon="11.9265702"><ele>455.25</ele><time>2026-04-11T08:39:17.451Z</time></trkpt><trkpt lat="42.7296897" lon="11.9265274"><ele>454.0</ele><time>2026-04-11T08:39:18.444Z</time></trkpt><trkpt lat="42.7297922" lon="11.9265093"><ele>454.0</ele><time>2026-04-11T08:39:19.443Z</time></trkpt><trkpt lat="42.7299009" lon="11.9264895"><ele>454.0</ele><time>2026-04-11T08:39:20.447Z</time></trkpt><trkpt lat="42.7300079" lon="11.9264501"><ele>454.0</ele><time>2026-04-11T08:39:21.44Z</time></trkpt><trkpt lat="42.7301094" lon="11.9264294"><ele>454.0</ele><time>2026-04-11T08:39:22.452Z</time></trkpt><trkpt lat="42.7302138" lon="11.9263948"><ele>454.0</ele><time>2026-04-11T08:39:23.446Z</time></trkpt><trkpt lat="42.7302971" lon="11.9263304"><ele>454.0</ele><time>2026-04-11T08:39:24.444Z</time></trkpt><trkpt lat="42.7303504" lon="11.9262725"><ele>454.0</ele><time>2026-04-11T08:39:25.438Z</time></trkpt><trkpt lat="42.7304045" lon="11.9261951"><ele>454.0</ele><time>2026-04-11T08:39:26.439Z</time></trkpt><trkpt lat="42.7304371" lon="11.9261041"><ele>454.0</ele><time>2026-04-11T08:39:27.435Z</time></trkpt><trkpt lat="42.730456" lon="11.925986"><ele>454.0</ele><time>2026-04-11T08:39:28.42Z</time></trkpt><trkpt lat="42.730429" lon="11.9256626"><ele>454.0</ele><time>2026-04-11T08:39:30.418Z</time></trkpt><trkpt lat="42.7304109" lon="11.9254612"><ele>454.0</ele><time>2026-04-11T08:39:31.429Z</time></trkpt><trkpt lat="42.7304103" lon="11.9252802"><ele>454.0</ele><time>2026-04-11T08:39:32.427Z</time></trkpt><trkpt lat="42.7304222" lon="11.9251004"><ele>454.0</ele><time>2026-04-11T08:39:33.421Z</time></trkpt><trkpt lat="42.730453" lon="11.9249581"><ele>454.0</ele><time>2026-04-11T08:39:34.421Z</time></trkpt><trkpt lat="42.7305409" lon="11.9247968"><ele>454.0</ele><time>2026-04-11T08:39:35.415Z</time></trkpt><trkpt lat="42.7306703" lon="11.9247828"><ele>454.0</ele><time>2026-04-11T08:39:36.418Z</time></trkpt><trkpt lat="42.7308104" lon="11.9248002"><ele>454.0</ele><time>2026-04-11T08:39:37.426Z</time></trkpt><trkpt lat="42.7309826" lon="11.9248987"><ele>452.33333333333337</ele><time>2026-04-11T08:39:38.427Z</time></trkpt><trkpt lat="42.7310876" lon="11.9249496"><ele>450.66666666666663</ele><time>2026-04-11T08:39:39.424Z</time></trkpt><trkpt lat="42.7313037" lon="11.925148"><ele>449.0</ele><time>2026-04-11T08:39:41.441Z</time></trkpt><trkpt lat="42.7314352" lon="11.9252225"><ele>449.0</ele><time>2026-04-11T08:39:42.426Z</time></trkpt><trkpt lat="42.7315708" lon="11.9253062"><ele>449.0</ele><time>2026-04-11T08:39:43.426Z</time></trkpt><trkpt lat="42.7317286" lon="11.9253846"><ele>449.0</ele><time>2026-04-11T08:39:44.422Z</time></trkpt><trkpt lat="42.7318746" lon="11.9254821"><ele>451.66666666666663</ele><time>2026-04-11T08:39:45.432Z</time></trkpt><trkpt lat="42.7320257" lon="11.9255909"><ele>454.33333333333337</ele><time>2026-04-11T08:39:46.434Z</time></trkpt><trkpt lat="42.7321913" lon="11.9256789"><ele>457.0</ele><time>2026-04-11T08:39:47.432Z</time></trkpt><trkpt lat="42.732356" lon="11.9257495"><ele>457.0</ele><time>2026-04-11T08:39:48.44Z</time></trkpt><trkpt lat="42.7325377" lon="11.9258512"><ele>457.0</ele><time>2026-04-11T08:39:49.436Z</time></trkpt><trkpt lat="42.7327007" lon="11.9259057"><ele>457.0</ele><time>2026-04-11T08:39:50.432Z</time></trkpt><trkpt lat="42.7328674" lon="11.9259462"><ele>456.33333333333337</ele><time>2026-04-11T08:39:51.433Z</time></trkpt><trkpt lat="42.7330251" lon="11.9259732"><ele>455.66666666666663</ele><time>2026-04-11T08:39:52.433Z</time></trkpt><trkpt lat="42.7331734" lon="11.9259258"><ele>455.0</ele><time>2026-04-11T08:39:53.427Z</time></trkpt><trkpt lat="42.7333356" lon="11.9258746"><ele>455.0</ele><time>2026-04-11T08:39:54.427Z</time></trkpt><trkpt lat="42.7334689" lon="11.9257682"><ele>455.0</ele><time>2026-04-11T08:39:55.427Z</time></trkpt><trkpt lat="42.7335928" lon="11.9255819"><ele>455.0</ele><time>2026-04-11T08:39:56.42Z</time></trkpt><trkpt lat="42.7337417" lon="11.9253793"><ele>453.0</ele><time>2026-04-11T08:39:57.418Z</time></trkpt><trkpt lat="42.7338751" lon="11.9251791"><ele>451.0</ele><time>2026-04-11T08:39:58.414Z</time></trkpt><trkpt lat="42.7339999" lon="11.9249391"><ele>449.0</ele><time>2026-04-11T08:39:59.415Z</time></trkpt><trkpt lat="42.7341158" lon="11.924715"><ele>449.0</ele><time>2026-04-11T08:40:00.419Z</time></trkpt><trkpt lat="42.7342313" lon="11.9244982"><ele>449.0</ele><time>2026-04-11T08:40:01.422Z</time></trkpt><trkpt lat="42.7343208" lon="11.9242751"><ele>449.0</ele><time>2026-04-11T08:40:02.43Z</time></trkpt><trkpt lat="42.7343924" lon="11.9240508"><ele>443.0</ele><time>2026-04-11T08:40:03.422Z</time></trkpt><trkpt lat="42.7344519" lon="11.9238457"><ele>437.0</ele><time>2026-04-11T08:40:04.42Z</time></trkpt><trkpt lat="42.7344898" lon="11.9236357"><ele>431.0</ele><time>2026-04-11T08:40:05.419Z</time></trkpt><trkpt lat="42.7345048" lon="11.9234076"><ele>435.0</ele><time>2026-04-11T08:40:06.425Z</time></trkpt><trkpt lat="42.7345036" lon="11.9231614"><ele>439.0</ele><time>2026-04-11T08:40:07.425Z</time></trkpt><trkpt lat="42.7345344" lon="11.9229202"><ele>443.0</ele><time>2026-04-11T08:40:08.422Z</time></trkpt><trkpt lat="42.7345541" lon="11.9226661"><ele>448.66666666666663</ele><time>2026-04-11T08:40:09.417Z</time></trkpt><trkpt lat="42.7345742" lon="11.9224048"><ele>454.33333333333337</ele><time>2026-04-11T08:40:10.414Z</time></trkpt><trkpt lat="42.7346208" lon="11.92212"><ele>460.0</ele><time>2026-04-11T08:40:11.418Z</time></trkpt><trkpt lat="42.734718" lon="11.9218953"><ele>473.5</ele><time>2026-04-11T08:40:12.435Z</time></trkpt><trkpt lat="42.7348896" lon="11.9216968"><ele>487.0</ele><time>2026-04-11T08:40:13.419Z</time></trkpt><trkpt lat="42.7351011" lon="11.9215512"><ele>475.0</ele><time>2026-04-11T08:40:14.418Z</time></trkpt><trkpt lat="42.7352641" lon="11.9213667"><ele>463.0</ele><time>2026-04-11T08:40:15.419Z</time></trkpt><trkpt lat="42.7354253" lon="11.92122"><ele>451.0</ele><time>2026-04-11T08:40:16.417Z</time></trkpt><trkpt lat="42.7355904" lon="11.9210831"><ele>451.0</ele><time>2026-04-11T08:40:17.424Z</time></trkpt><trkpt lat="42.7357248" lon="11.9209068"><ele>451.0</ele><time>2026-04-11T08:40:18.427Z</time></trkpt><trkpt lat="42.7358491" lon="11.9207581"><ele>451.0</ele><time>2026-04-11T08:40:19.42Z</time></trkpt><trkpt lat="42.7359555" lon="11.9206221"><ele>456.75</ele><time>2026-04-11T08:40:20.424Z</time></trkpt><trkpt lat="42.7360393" lon="11.9204561"><ele>462.5</ele><time>2026-04-11T08:40:21.423Z</time></trkpt><trkpt lat="42.7360382" lon="11.9203052"><ele>468.25</ele><time>2026-04-11T08:40:22.419Z</time></trkpt><trkpt lat="42.7359309" lon="11.9201781"><ele>474.0</ele><time>2026-04-11T08:40:23.426Z</time></trkpt><trkpt lat="42.7358227" lon="11.9200391"><ele>474.0</ele><time>2026-04-11T08:40:24.437Z</time></trkpt><trkpt lat="42.7356965" lon="11.9199345"><ele>474.0</ele><time>2026-04-11T08:40:25.429Z</time></trkpt><trkpt lat="42.7355135" lon="11.9198067"><ele>474.0</ele><time>2026-04-11T08:40:26.42Z</time></trkpt><trkpt lat="42.7354101" lon="11.9197003"><ele>474.0</ele><time>2026-04-11T08:40:27.416Z</time></trkpt><trkpt lat="42.7353703" lon="11.9195678"><ele>474.0</ele><time>2026-04-11T08:40:28.413Z</time></trkpt><trkpt lat="42.7353702" lon="11.9194042"><ele>474.0</ele><time>2026-04-11T08:40:29.416Z</time></trkpt><trkpt lat="42.7353901" lon="11.9192623"><ele>474.0</ele><time>2026-04-11T08:40:30.415Z</time></trkpt><trkpt lat="42.7354255" lon="11.9191296"><ele>474.0</ele><time>2026-04-11T08:40:31.416Z</time></trkpt><trkpt lat="42.7355257" lon="11.9190454"><ele>475.5</ele><time>2026-04-11T08:40:32.412Z</time></trkpt><trkpt lat="42.7356442" lon="11.9189961"><ele>477.0</ele><time>2026-04-11T08:40:33.407Z</time></trkpt><trkpt lat="42.7357843" lon="11.9189304"><ele>478.5</ele><time>2026-04-11T08:40:34.401Z</time></trkpt><trkpt lat="42.7359193" lon="11.9188626"><ele>480.0</ele><time>2026-04-11T08:40:35.416Z</time></trkpt><trkpt lat="42.73608" lon="11.9187841"><ele>471.33333333333337</ele><time>2026-04-11T08:40:36.412Z</time></trkpt><trkpt lat="42.7362214" lon="11.9186332"><ele>462.6666666666667</ele><time>2026-04-11T08:40:37.409Z</time></trkpt><trkpt lat="42.7363674" lon="11.9183729"><ele>454.0</ele><time>2026-04-11T08:40:38.414Z</time></trkpt><trkpt lat="42.7364392" lon="11.9181018"><ele>454.0</ele><time>2026-04-11T08:40:39.417Z</time></trkpt><trkpt lat="42.7365741" lon="11.9178762"><ele>454.0</ele><time>2026-04-11T08:40:40.418Z</time></trkpt><trkpt lat="42.736629" lon="11.9176401"><ele>454.0</ele><time>2026-04-11T08:40:41.418Z</time></trkpt><trkpt lat="42.7367079" lon="11.9174282"><ele>458.6666666666667</ele><time>2026-04-11T08:40:42.429Z</time></trkpt><trkpt lat="42.7367959" lon="11.917203"><ele>463.33333333333337</ele><time>2026-04-11T08:40:43.438Z</time></trkpt><trkpt lat="42.7368873" lon="11.9170371"><ele>468.0</ele><time>2026-04-11T08:40:44.427Z</time></trkpt><trkpt lat="42.7369927" lon="11.9168887"><ele>457.66666666666663</ele><time>2026-04-11T08:40:45.435Z</time></trkpt><trkpt lat="42.7370705" lon="11.9166758"><ele>447.3333333333333</ele><time>2026-04-11T08:40:46.433Z</time></trkpt><trkpt lat="42.7371415" lon="11.9164799"><ele>437.0</ele><time>2026-04-11T08:40:47.428Z</time></trkpt><trkpt lat="42.7371064" lon="11.9163039"><ele>437.0</ele><time>2026-04-11T08:40:48.434Z</time></trkpt><trkpt lat="42.7370513" lon="11.9161084"><ele>437.0</ele><time>2026-04-11T08:40:49.428Z</time></trkpt><trkpt lat="42.7368905" lon="11.9159325"><ele>437.0</ele><time>2026-04-11T08:40:50.431Z</time></trkpt><trkpt lat="42.7367617" lon="11.9157362"><ele>443.0</ele><time>2026-04-11T08:40:51.427Z</time></trkpt><trkpt lat="42.7366703" lon="11.9155097"><ele>449.0</ele><time>2026-04-11T08:40:52.417Z</time></trkpt><trkpt lat="42.7366311" lon="11.9152763"><ele>455.0</ele><time>2026-04-11T08:40:53.418Z</time></trkpt><trkpt lat="42.7366397" lon="11.9150124"><ele>455.0</ele><time>2026-04-11T08:40:54.429Z</time></trkpt><trkpt lat="42.7367076" lon="11.9147296"><ele>455.0</ele><time>2026-04-11T08:40:55.424Z</time></trkpt><trkpt lat="42.7368034" lon="11.9144982"><ele>455.0</ele><time>2026-04-11T08:40:56.413Z</time></trkpt><trkpt lat="42.736962" lon="11.9142902"><ele>449.5</ele><time>2026-04-11T08:40:57.423Z</time></trkpt><trkpt lat="42.7370863" lon="11.9140251"><ele>444.0</ele><time>2026-04-11T08:40:58.415Z</time></trkpt><trkpt lat="42.7372706" lon="11.9138079"><ele>444.0</ele><time>2026-04-11T08:40:59.42Z</time></trkpt><trkpt lat="42.7374395" lon="11.9135623"><ele>444.0</ele><time>2026-04-11T08:41:00.423Z</time></trkpt><trkpt lat="42.7375577" lon="11.9133068"><ele>441.5</ele><time>2026-04-11T08:41:01.424Z</time></trkpt><trkpt lat="42.7376819" lon="11.9130322"><ele>439.0</ele><time>2026-04-11T08:41:02.429Z</time></trkpt><trkpt lat="42.7378169" lon="11.9127858"><ele>438.6666666666667</ele><time>2026-04-11T08:41:03.428Z</time></trkpt><trkpt lat="42.7379167" lon="11.912567"><ele>438.33333333333337</ele><time>2026-04-11T08:41:04.423Z</time></trkpt><trkpt lat="42.7380419" lon="11.9123492"><ele>438.0</ele><time>2026-04-11T08:41:05.434Z</time></trkpt><trkpt lat="42.7381598" lon="11.9121073"><ele>438.0</ele><time>2026-04-11T08:41:06.436Z</time></trkpt><trkpt lat="42.7382665" lon="11.911866"><ele>438.0</ele><time>2026-04-11T08:41:07.431Z</time></trkpt><trkpt lat="42.7383685" lon="11.9116062"><ele>438.0</ele><time>2026-04-11T08:41:08.44Z</time></trkpt><trkpt lat="42.7384788" lon="11.9113657"><ele>437.0</ele><time>2026-04-11T08:41:09.437Z</time></trkpt><trkpt lat="42.7386101" lon="11.9111477"><ele>436.0</ele><time>2026-04-11T08:41:10.432Z</time></trkpt><trkpt lat="42.738703" lon="11.9108967"><ele>435.0</ele><time>2026-04-11T08:41:11.43Z</time></trkpt><trkpt lat="42.7388248" lon="11.910678"><ele>434.0</ele><time>2026-04-11T08:41:12.438Z</time></trkpt><trkpt lat="42.7389331" lon="11.910425"><ele>433.0</ele><time>2026-04-11T08:41:13.434Z</time></trkpt><trkpt lat="42.7390533" lon="11.9101805"><ele>432.0</ele><time>2026-04-11T08:41:14.455Z</time></trkpt><trkpt lat="42.7391602" lon="11.9099638"><ele>431.0</ele><time>2026-04-11T08:41:15.439Z</time></trkpt><trkpt lat="42.7392932" lon="11.9097318"><ele>430.0</ele><time>2026-04-11T08:41:16.437Z</time></trkpt><trkpt lat="42.7394049" lon="11.9095235"><ele>429.0</ele><time>2026-04-11T08:41:17.441Z</time></trkpt><trkpt lat="42.7395118" lon="11.9093359"><ele>430.33333333333337</ele><time>2026-04-11T08:41:18.436Z</time></trkpt><trkpt lat="42.7395892" lon="11.9091353"><ele>431.6666666666667</ele><time>2026-04-11T08:41:19.445Z</time></trkpt><trkpt lat="42.7396431" lon="11.9089474"><ele>433.0</ele><time>2026-04-11T08:41:20.431Z</time></trkpt><trkpt lat="42.7396851" lon="11.908765"><ele>433.0</ele><time>2026-04-11T08:41:21.433Z</time></trkpt><trkpt lat="42.7396809" lon="11.9085818"><ele>433.0</ele><time>2026-04-11T08:41:22.424Z</time></trkpt><trkpt lat="42.7396636" lon="11.9083948"><ele>433.0</ele><time>2026-04-11T08:41:23.436Z</time></trkpt><trkpt lat="42.7395875" lon="11.9081697"><ele>431.33333333333337</ele><time>2026-04-11T08:41:24.425Z</time></trkpt><trkpt lat="42.7394" lon="11.9079788"><ele>429.66666666666663</ele><time>2026-04-11T08:41:25.429Z</time></trkpt><trkpt lat="42.7392759" lon="11.9078014"><ele>428.0</ele><time>2026-04-11T08:41:26.419Z</time></trkpt><trkpt lat="42.7391406" lon="11.9076754"><ele>427.0</ele><time>2026-04-11T08:41:27.422Z</time></trkpt><trkpt lat="42.7389472" lon="11.9076249"><ele>426.0</ele><time>2026-04-11T08:41:28.42Z</time></trkpt><trkpt lat="42.7387908" lon="11.9075307"><ele>425.0</ele><time>2026-04-11T08:41:29.421Z</time></trkpt><trkpt lat="42.7386104" lon="11.9074585"><ele>425.66666666666663</ele><time>2026-04-11T08:41:30.431Z</time></trkpt><trkpt lat="42.7384273" lon="11.9074309"><ele>426.33333333333337</ele><time>2026-04-11T08:41:31.441Z</time></trkpt><trkpt lat="42.7382716" lon="11.9073505"><ele>427.0</ele><time>2026-04-11T08:41:32.433Z</time></trkpt><trkpt lat="42.7381526" lon="11.9072384"><ele>427.0</ele><time>2026-04-11T08:41:33.445Z</time></trkpt><trkpt lat="42.7380259" lon="11.9071025"><ele>427.0</ele><time>2026-04-11T08:41:34.438Z</time></trkpt><trkpt lat="42.7379404" lon="11.9069732"><ele>427.0</ele><time>2026-04-11T08:41:35.438Z</time></trkpt><trkpt lat="42.7378757" lon="11.9068335"><ele>427.0</ele><time>2026-04-11T08:41:36.439Z</time></trkpt><trkpt lat="42.7378727" lon="11.9066318"><ele>425.6666666666667</ele><time>2026-04-11T08:41:37.435Z</time></trkpt><trkpt lat="42.7379828" lon="11.9064584"><ele>424.33333333333337</ele><time>2026-04-11T08:41:38.43Z</time></trkpt><trkpt lat="42.7381409" lon="11.9062305"><ele>423.0</ele><time>2026-04-11T08:41:39.444Z</time></trkpt><trkpt lat="42.7383071" lon="11.9059699"><ele>424.0</ele><time>2026-04-11T08:41:40.446Z</time></trkpt><trkpt lat="42.7384759" lon="11.9057116"><ele>425.0</ele><time>2026-04-11T08:41:41.455Z</time></trkpt><trkpt lat="42.7386265" lon="11.9054714"><ele>425.0</ele><time>2026-04-11T08:41:42.441Z</time></trkpt><trkpt lat="42.73878" lon="11.9052769"><ele>425.0</ele><time>2026-04-11T08:41:43.44Z</time></trkpt><trkpt lat="42.7389576" lon="11.9051367"><ele>425.0</ele><time>2026-04-11T08:41:44.447Z</time></trkpt><trkpt lat="42.7391462" lon="11.9050767"><ele>425.0</ele><time>2026-04-11T08:41:45.462Z</time></trkpt><trkpt lat="42.7393763" lon="11.9050529"><ele>425.0</ele><time>2026-04-11T08:41:46.444Z</time></trkpt><trkpt lat="42.7395819" lon="11.9050124"><ele>425.0</ele><time>2026-04-11T08:41:47.445Z</time></trkpt><trkpt lat="42.7397764" lon="11.9049642"><ele>426.0</ele><time>2026-04-11T08:41:48.449Z</time></trkpt><trkpt lat="42.7399757" lon="11.9049034"><ele>427.0</ele><time>2026-04-11T08:41:49.445Z</time></trkpt><trkpt lat="42.7401582" lon="11.90485"><ele>428.0</ele><time>2026-04-11T08:41:50.448Z</time></trkpt><trkpt lat="42.7403316" lon="11.9048037"><ele>428.0</ele><time>2026-04-11T08:41:51.456Z</time></trkpt><trkpt lat="42.7405025" lon="11.9047386"><ele>428.0</ele><time>2026-04-11T08:41:52.449Z</time></trkpt><trkpt lat="42.7406766" lon="11.9046404"><ele>428.0</ele><time>2026-04-11T08:41:53.444Z</time></trkpt><trkpt lat="42.7408523" lon="11.904512"><ele>428.0</ele><time>2026-04-11T08:41:54.444Z</time></trkpt><trkpt lat="42.7410055" lon="11.9043525"><ele>428.0</ele><time>2026-04-11T08:41:55.438Z</time></trkpt><trkpt lat="42.7411226" lon="11.9041599"><ele>428.0</ele><time>2026-04-11T08:41:56.432Z</time></trkpt><trkpt lat="42.7412689" lon="11.9039663"><ele>428.0</ele><time>2026-04-11T08:41:57.429Z</time></trkpt><trkpt lat="42.7413925" lon="11.9037278"><ele>428.0</ele><time>2026-04-11T08:41:58.449Z</time></trkpt><trkpt lat="42.741493" lon="11.903506"><ele>428.0</ele><time>2026-04-11T08:41:59.455Z</time></trkpt><trkpt lat="42.7416094" lon="11.9032501"><ele>428.0</ele><time>2026-04-11T08:42:00.452Z</time></trkpt><trkpt lat="42.7417482" lon="11.9030181"><ele>428.0</ele><time>2026-04-11T08:42:01.464Z</time></trkpt><trkpt lat="42.7418619" lon="11.9027725"><ele>428.0</ele><time>2026-04-11T08:42:02.461Z</time></trkpt><trkpt lat="42.7419877" lon="11.9025528"><ele>426.3333333333333</ele><time>2026-04-11T08:42:03.455Z</time></trkpt><trkpt lat="42.7420883" lon="11.9023299"><ele>424.66666666666663</ele><time>2026-04-11T08:42:04.451Z</time></trkpt><trkpt lat="42.742167" lon="11.9020916"><ele>423.0</ele><time>2026-04-11T08:42:05.452Z</time></trkpt><trkpt lat="42.7422542" lon="11.9018358"><ele>423.66666666666663</ele><time>2026-04-11T08:42:06.441Z</time></trkpt><trkpt lat="42.7422899" lon="11.9016002"><ele>424.3333333333333</ele><time>2026-04-11T08:42:07.447Z</time></trkpt><trkpt lat="42.7423033" lon="11.901376"><ele>425.0</ele><time>2026-04-11T08:42:08.453Z</time></trkpt><trkpt lat="42.742309" lon="11.9011461"><ele>424.66666666666663</ele><time>2026-04-11T08:42:09.436Z</time></trkpt><trkpt lat="42.742291" lon="11.9009113"><ele>424.33333333333337</ele><time>2026-04-11T08:42:10.453Z</time></trkpt><trkpt lat="42.742262" lon="11.9006788"><ele>424.0</ele><time>2026-04-11T08:42:11.463Z</time></trkpt><trkpt lat="42.7421538" lon="11.9004211"><ele>424.0</ele><time>2026-04-11T08:42:12.44Z</time></trkpt><trkpt lat="42.7420314" lon="11.9002199"><ele>424.0</ele><time>2026-04-11T08:42:13.436Z</time></trkpt><trkpt lat="42.7418639" lon="11.9000106"><ele>424.0</ele><time>2026-04-11T08:42:14.457Z</time></trkpt><trkpt lat="42.7417103" lon="11.8997937"><ele>424.33333333333337</ele><time>2026-04-11T08:42:15.444Z</time></trkpt><trkpt lat="42.7415932" lon="11.899598"><ele>424.66666666666663</ele><time>2026-04-11T08:42:16.466Z</time></trkpt><trkpt lat="42.7414899" lon="11.8993759"><ele>425.0</ele><time>2026-04-11T08:42:17.449Z</time></trkpt><trkpt lat="42.7413505" lon="11.8991454"><ele>424.0</ele><time>2026-04-11T08:42:18.451Z</time></trkpt><trkpt lat="42.7412271" lon="11.8989"><ele>423.0</ele><time>2026-04-11T08:42:19.434Z</time></trkpt><trkpt lat="42.7411177" lon="11.8986477"><ele>422.0</ele><time>2026-04-11T08:42:20.444Z</time></trkpt><trkpt lat="42.7410271" lon="11.8983671"><ele>425.0</ele><time>2026-04-11T08:42:21.446Z</time></trkpt><trkpt lat="42.7409132" lon="11.8980297"><ele>428.0</ele><time>2026-04-11T08:42:22.427Z</time></trkpt><trkpt lat="42.7408088" lon="11.8976862"><ele>428.5</ele><time>2026-04-11T08:42:23.429Z</time></trkpt><trkpt lat="42.7407192" lon="11.8973356"><ele>429.0</ele><time>2026-04-11T08:42:24.439Z</time></trkpt><trkpt lat="42.7406324" lon="11.8969862"><ele>429.0</ele><time>2026-04-11T08:42:25.439Z</time></trkpt><trkpt lat="42.7405358" lon="11.8966298"><ele>429.0</ele><time>2026-04-11T08:42:26.446Z</time></trkpt><trkpt lat="42.7404372" lon="11.8962643"><ele>429.0</ele><time>2026-04-11T08:42:27.444Z</time></trkpt><trkpt lat="42.7403407" lon="11.8959203"><ele>429.0</ele><time>2026-04-11T08:42:28.438Z</time></trkpt><trkpt lat="42.7402548" lon="11.8956006"><ele>429.5</ele><time>2026-04-11T08:42:29.442Z</time></trkpt><trkpt lat="42.7401727" lon="11.8952887"><ele>430.0</ele><time>2026-04-11T08:42:30.443Z</time></trkpt><trkpt lat="42.740075" lon="11.8949713"><ele>431.5</ele><time>2026-04-11T08:42:31.436Z</time></trkpt><trkpt lat="42.7399956" lon="11.8946687"><ele>433.0</ele><time>2026-04-11T08:42:32.436Z</time></trkpt><trkpt lat="42.7398934" lon="11.8943842"><ele>434.0</ele><time>2026-04-11T08:42:33.431Z</time></trkpt><trkpt lat="42.7398152" lon="11.8940896"><ele>435.0</ele><time>2026-04-11T08:42:34.434Z</time></trkpt><trkpt lat="42.7397384" lon="11.8937988"><ele>435.0</ele><time>2026-04-11T08:42:35.44Z</time></trkpt><trkpt lat="42.7396388" lon="11.8935162"><ele>435.0</ele><time>2026-04-11T08:42:36.432Z</time></trkpt><trkpt lat="42.7395591" lon="11.8932287"><ele>435.66666666666663</ele><time>2026-04-11T08:42:37.436Z</time></trkpt><trkpt lat="42.7394959" lon="11.8929494"><ele>436.3333333333333</ele><time>2026-04-11T08:42:38.435Z</time></trkpt><trkpt lat="42.7394433" lon="11.8926776"><ele>437.0</ele><time>2026-04-11T08:42:39.441Z</time></trkpt><trkpt lat="42.7393856" lon="11.8923854"><ele>436.3333333333333</ele><time>2026-04-11T08:42:40.435Z</time></trkpt><trkpt lat="42.7393664" lon="11.8920942"><ele>435.66666666666663</ele><time>2026-04-11T08:42:41.44Z</time></trkpt><trkpt lat="42.7393703" lon="11.8917932"><ele>435.0</ele><time>2026-04-11T08:42:42.431Z</time></trkpt><trkpt lat="42.7393998" lon="11.8915011"><ele>436.0</ele><time>2026-04-11T08:42:43.435Z</time></trkpt><trkpt lat="42.7394679" lon="11.8912434"><ele>437.0</ele><time>2026-04-11T08:42:44.438Z</time></trkpt><trkpt lat="42.7395371" lon="11.8909661"><ele>438.0</ele><time>2026-04-11T08:42:45.438Z</time></trkpt><trkpt lat="42.7396123" lon="11.8906856"><ele>438.0</ele><time>2026-04-11T08:42:46.435Z</time></trkpt><trkpt lat="42.7396693" lon="11.8903831"><ele>438.0</ele><time>2026-04-11T08:42:47.447Z</time></trkpt><trkpt lat="42.7397411" lon="11.8900674"><ele>438.5</ele><time>2026-04-11T08:42:48.43Z</time></trkpt><trkpt lat="42.7398042" lon="11.8897681"><ele>439.0</ele><time>2026-04-11T08:42:49.428Z</time></trkpt><trkpt lat="42.7398651" lon="11.8894569"><ele>437.0</ele><time>2026-04-11T08:42:50.429Z</time></trkpt><trkpt lat="42.7399315" lon="11.8891437"><ele>435.0</ele><time>2026-04-11T08:42:51.431Z</time></trkpt><trkpt lat="42.7399933" lon="11.8888189"><ele>435.0</ele><time>2026-04-11T08:42:52.429Z</time></trkpt><trkpt lat="42.7400767" lon="11.8884976"><ele>435.0</ele><time>2026-04-11T08:42:53.429Z</time></trkpt><trkpt lat="42.7401506" lon="11.8881905"><ele>431.0</ele><time>2026-04-11T08:42:54.431Z</time></trkpt><trkpt lat="42.7402195" lon="11.8878946"><ele>427.0</ele><time>2026-04-11T08:42:55.428Z</time></trkpt><trkpt lat="42.7402826" lon="11.8875774"><ele>424.0</ele><time>2026-04-11T08:42:56.426Z</time></trkpt><trkpt lat="42.7403571" lon="11.8872699"><ele>421.0</ele><time>2026-04-11T08:42:57.425Z</time></trkpt><trkpt lat="42.7404185" lon="11.8869584"><ele>419.5</ele><time>2026-04-11T08:42:58.426Z</time></trkpt><trkpt lat="42.740491" lon="11.886655"><ele>418.0</ele><time>2026-04-11T08:42:59.423Z</time></trkpt><trkpt lat="42.740555" lon="11.8863489"><ele>418.0</ele><time>2026-04-11T08:43:00.429Z</time></trkpt><trkpt lat="42.7406169" lon="11.886031"><ele>418.0</ele><time>2026-04-11T08:43:01.429Z</time></trkpt><trkpt lat="42.7406678" lon="11.8857219"><ele>416.5</ele><time>2026-04-11T08:43:02.435Z</time></trkpt><trkpt lat="42.740732" lon="11.8854122"><ele>415.0</ele><time>2026-04-11T08:43:03.427Z</time></trkpt><trkpt lat="42.7407982" lon="11.8850977"><ele>412.5</ele><time>2026-04-11T08:43:04.432Z</time></trkpt><trkpt lat="42.7408695" lon="11.884786"><ele>410.0</ele><time>2026-04-11T08:43:05.427Z</time></trkpt><trkpt lat="42.7409366" lon="11.8844923"><ele>408.0</ele><time>2026-04-11T08:43:06.429Z</time></trkpt><trkpt lat="42.7410038" lon="11.8841857"><ele>406.0</ele><time>2026-04-11T08:43:07.436Z</time></trkpt><trkpt lat="42.7410735" lon="11.8838808"><ele>405.0</ele><time>2026-04-11T08:43:08.435Z</time></trkpt><trkpt lat="42.7411453" lon="11.8835696"><ele>404.0</ele><time>2026-04-11T08:43:09.439Z</time></trkpt><trkpt lat="42.7412272" lon="11.8832716"><ele>404.0</ele><time>2026-04-11T08:43:10.436Z</time></trkpt><trkpt lat="42.7413044" lon="11.8829825"><ele>404.0</ele><time>2026-04-11T08:43:11.444Z</time></trkpt><trkpt lat="42.741407" lon="11.8827065"><ele>404.0</ele><time>2026-04-11T08:43:12.446Z</time></trkpt><trkpt lat="42.7415124" lon="11.8824669"><ele>404.0</ele><time>2026-04-11T08:43:13.453Z</time></trkpt><trkpt lat="42.741623" lon="11.8822009"><ele>404.0</ele><time>2026-04-11T08:43:14.454Z</time></trkpt><trkpt lat="42.7416957" lon="11.8818916"><ele>404.5</ele><time>2026-04-11T08:43:15.449Z</time></trkpt><trkpt lat="42.741739" lon="11.8815776"><ele>405.0</ele><time>2026-04-11T08:43:16.444Z</time></trkpt><trkpt lat="42.7417797" lon="11.8812659"><ele>405.0</ele><time>2026-04-11T08:43:17.448Z</time></trkpt><trkpt lat="42.7418137" lon="11.8809579"><ele>405.0</ele><time>2026-04-11T08:43:18.475Z</time></trkpt><trkpt lat="42.7418665" lon="11.8807144"><ele>405.0</ele><time>2026-04-11T08:43:19.442Z</time></trkpt><trkpt lat="42.7419065" lon="11.8804489"><ele>404.66666666666663</ele><time>2026-04-11T08:43:20.444Z</time></trkpt><trkpt lat="42.7419369" lon="11.8802052"><ele>404.3333333333333</ele><time>2026-04-11T08:43:21.445Z</time></trkpt><trkpt lat="42.7419629" lon="11.8799614"><ele>404.0</ele><time>2026-04-11T08:43:22.444Z</time></trkpt><trkpt lat="42.7419784" lon="11.8797311"><ele>404.0</ele><time>2026-04-11T08:43:23.436Z</time></trkpt><trkpt lat="42.7419294" lon="11.8795213"><ele>404.0</ele><time>2026-04-11T08:43:24.44Z</time></trkpt><trkpt lat="42.7418645" lon="11.879328"><ele>404.0</ele><time>2026-04-11T08:43:25.449Z</time></trkpt><trkpt lat="42.7417659" lon="11.8791469"><ele>405.3333333333333</ele><time>2026-04-11T08:43:26.433Z</time></trkpt><trkpt lat="42.7416164" lon="11.8789981"><ele>406.66666666666663</ele><time>2026-04-11T08:43:27.444Z</time></trkpt><trkpt lat="42.7414925" lon="11.8788533"><ele>408.0</ele><time>2026-04-11T08:43:28.442Z</time></trkpt><trkpt lat="42.7413619" lon="11.8787025"><ele>408.0</ele><time>2026-04-11T08:43:29.434Z</time></trkpt><trkpt lat="42.7412923" lon="11.8785562"><ele>408.0</ele><time>2026-04-11T08:43:30.434Z</time></trkpt><trkpt lat="42.7412351" lon="11.8784611"><ele>408.0</ele><time>2026-04-11T08:43:31.435Z</time></trkpt><trkpt lat="42.741235" lon="11.8783505"><ele>408.0</ele><time>2026-04-11T08:43:32.439Z</time></trkpt><trkpt lat="42.7411895" lon="11.8782467"><ele>408.0</ele><time>2026-04-11T08:43:33.429Z</time></trkpt><trkpt lat="42.7411858" lon="11.8781071"><ele>408.2</ele><time>2026-04-11T08:43:34.431Z</time></trkpt><trkpt lat="42.7411799" lon="11.8779999"><ele>408.4</ele><time>2026-04-11T08:43:35.44Z</time></trkpt><trkpt lat="42.7411743" lon="11.8778783"><ele>408.59999999999997</ele><time>2026-04-11T08:43:36.43Z</time></trkpt><trkpt lat="42.7411545" lon="11.8777251"><ele>408.79999999999995</ele><time>2026-04-11T08:43:37.431Z</time></trkpt><trkpt lat="42.7411619" lon="11.8775917"><ele>409.0</ele><time>2026-04-11T08:43:38.427Z</time></trkpt><trkpt lat="42.7411882" lon="11.8774615"><ele>408.6</ele><time>2026-04-11T08:43:39.444Z</time></trkpt><trkpt lat="42.7412185" lon="11.8773257"><ele>408.2</ele><time>2026-04-11T08:43:40.441Z</time></trkpt><trkpt lat="42.7412504" lon="11.8771836"><ele>407.8</ele><time>2026-04-11T08:43:41.441Z</time></trkpt><trkpt lat="42.7412758" lon="11.8770379"><ele>407.40000000000003</ele><time>2026-04-11T08:43:42.441Z</time></trkpt><trkpt lat="42.7413065" lon="11.8768794"><ele>407.0</ele><time>2026-04-11T08:43:43.444Z</time></trkpt><trkpt lat="42.7413343" lon="11.8767271"><ele>406.25</ele><time>2026-04-11T08:43:44.438Z</time></trkpt><trkpt lat="42.7413668" lon="11.8765538"><ele>405.5</ele><time>2026-04-11T08:43:45.451Z</time></trkpt><trkpt lat="42.7413923" lon="11.8764"><ele>404.75</ele><time>2026-04-11T08:43:46.437Z</time></trkpt><trkpt lat="42.7414267" lon="11.8762379"><ele>404.0</ele><time>2026-04-11T08:43:47.439Z</time></trkpt><trkpt lat="42.7414562" lon="11.876069"><ele>404.0</ele><time>2026-04-11T08:43:48.453Z</time></trkpt><trkpt lat="42.7414878" lon="11.875907"><ele>404.0</ele><time>2026-04-11T08:43:49.433Z</time></trkpt><trkpt lat="42.7415227" lon="11.8757431"><ele>404.0</ele><time>2026-04-11T08:43:50.434Z</time></trkpt><trkpt lat="42.741553" lon="11.8755753"><ele>404.0</ele><time>2026-04-11T08:43:51.435Z</time></trkpt><trkpt lat="42.7415825" lon="11.8754033"><ele>404.0</ele><time>2026-04-11T08:43:52.437Z</time></trkpt><trkpt lat="42.7416126" lon="11.8752297"><ele>404.0</ele><time>2026-04-11T08:43:53.435Z</time></trkpt><trkpt lat="42.7416435" lon="11.8750752"><ele>404.0</ele><time>2026-04-11T08:43:54.438Z</time></trkpt><trkpt lat="42.741668" lon="11.8749231"><ele>404.0</ele><time>2026-04-11T08:43:55.453Z</time></trkpt><trkpt lat="42.7416924" lon="11.8747661"><ele>403.5</ele><time>2026-04-11T08:43:56.439Z</time></trkpt><trkpt lat="42.7417153" lon="11.874611"><ele>403.0</ele><time>2026-04-11T08:43:57.445Z</time></trkpt><trkpt lat="42.7417453" lon="11.8744605"><ele>402.5</ele><time>2026-04-11T08:43:58.438Z</time></trkpt><trkpt lat="42.7417678" lon="11.8743056"><ele>402.0</ele><time>2026-04-11T08:43:59.438Z</time></trkpt><trkpt lat="42.7417891" lon="11.8741591"><ele>400.75</ele><time>2026-04-11T08:44:00.443Z</time></trkpt><trkpt lat="42.7418183" lon="11.8740136"><ele>399.5</ele><time>2026-04-11T08:44:01.435Z</time></trkpt><trkpt lat="42.7418472" lon="11.8738698"><ele>398.25</ele><time>2026-04-11T08:44:02.44Z</time></trkpt><trkpt lat="42.7418777" lon="11.8737278"><ele>397.0</ele><time>2026-04-11T08:44:03.444Z</time></trkpt><trkpt lat="42.7418952" lon="11.8735631"><ele>396.75</ele><time>2026-04-11T08:44:04.439Z</time></trkpt><trkpt lat="42.7419155" lon="11.8734081"><ele>396.5</ele><time>2026-04-11T08:44:05.45Z</time></trkpt><trkpt lat="42.7419448" lon="11.8732563"><ele>396.25</ele><time>2026-04-11T08:44:06.449Z</time></trkpt><trkpt lat="42.741969" lon="11.8730953"><ele>396.0</ele><time>2026-04-11T08:44:07.447Z</time></trkpt><trkpt lat="42.7419909" lon="11.8729246"><ele>396.0</ele><time>2026-04-11T08:44:08.444Z</time></trkpt><trkpt lat="42.7420154" lon="11.872751"><ele>396.0</ele><time>2026-04-11T08:44:09.448Z</time></trkpt><trkpt lat="42.742045" lon="11.8725827"><ele>396.0</ele><time>2026-04-11T08:44:10.445Z</time></trkpt><trkpt lat="42.7420735" lon="11.8724347"><ele>396.0</ele><time>2026-04-11T08:44:11.435Z</time></trkpt><trkpt lat="42.7420953" lon="11.8723035"><ele>395.0</ele><time>2026-04-11T08:44:12.44Z</time></trkpt><trkpt lat="42.7421158" lon="11.8721885"><ele>394.0</ele><time>2026-04-11T08:44:13.439Z</time></trkpt><trkpt lat="42.7421315" lon="11.8720781"><ele>393.0</ele><time>2026-04-11T08:44:14.441Z</time></trkpt><trkpt lat="42.7421459" lon="11.8719748"><ele>392.0</ele><time>2026-04-11T08:44:15.452Z</time></trkpt><trkpt lat="42.7421662" lon="11.8718666"><ele>391.0</ele><time>2026-04-11T08:44:16.438Z</time></trkpt><trkpt lat="42.7421916" lon="11.8717498"><ele>390.0</ele><time>2026-04-11T08:44:17.451Z</time></trkpt><trkpt lat="42.7422259" lon="11.8716221"><ele>389.2</ele><time>2026-04-11T08:44:18.45Z</time></trkpt><trkpt lat="42.7422726" lon="11.8714912"><ele>388.4</ele><time>2026-04-11T08:44:19.45Z</time></trkpt><trkpt lat="42.7423338" lon="11.8713709"><ele>387.6</ele><time>2026-04-11T08:44:20.446Z</time></trkpt><trkpt lat="42.7423968" lon="11.8712601"><ele>386.8</ele><time>2026-04-11T08:44:21.432Z</time></trkpt><trkpt lat="42.7424456" lon="11.8711471"><ele>386.0</ele><time>2026-04-11T08:44:22.451Z</time></trkpt><trkpt lat="42.7425005" lon="11.8710144"><ele>386.6</ele><time>2026-04-11T08:44:23.441Z</time></trkpt><trkpt lat="42.7425487" lon="11.8708773"><ele>387.20000000000005</ele><time>2026-04-11T08:44:24.437Z</time></trkpt><trkpt lat="42.7425925" lon="11.8707523"><ele>387.79999999999995</ele><time>2026-04-11T08:44:25.449Z</time></trkpt><trkpt lat="42.7426257" lon="11.8706368"><ele>388.4</ele><time>2026-04-11T08:44:26.435Z</time></trkpt><trkpt lat="42.7426488" lon="11.8705221"><ele>389.0</ele><time>2026-04-11T08:44:27.429Z</time></trkpt><trkpt lat="42.7426607" lon="11.8703983"><ele>389.0</ele><time>2026-04-11T08:44:28.442Z</time></trkpt><trkpt lat="42.7426591" lon="11.870262"><ele>389.0</ele><time>2026-04-11T08:44:29.444Z</time></trkpt><trkpt lat="42.742639" lon="11.8701236"><ele>389.0</ele><time>2026-04-11T08:44:30.447Z</time></trkpt><trkpt lat="42.7426146" lon="11.8699823"><ele>389.0</ele><time>2026-04-11T08:44:31.446Z</time></trkpt><trkpt lat="42.7425911" lon="11.8698432"><ele>389.0</ele><time>2026-04-11T08:44:32.439Z</time></trkpt><trkpt lat="42.742558" lon="11.869704"><ele>389.4</ele><time>2026-04-11T08:44:33.438Z</time></trkpt><trkpt lat="42.7425279" lon="11.8695779"><ele>389.79999999999995</ele><time>2026-04-11T08:44:34.434Z</time></trkpt><trkpt lat="42.7424863" lon="11.8694623"><ele>390.20000000000005</ele><time>2026-04-11T08:44:35.447Z</time></trkpt><trkpt lat="42.7424331" lon="11.869352"><ele>390.6</ele><time>2026-04-11T08:44:36.441Z</time></trkpt><trkpt lat="42.7423763" lon="11.8692394"><ele>391.0</ele><time>2026-04-11T08:44:37.437Z</time></trkpt><trkpt lat="42.742316" lon="11.8691215"><ele>391.0</ele><time>2026-04-11T08:44:38.432Z</time></trkpt><trkpt lat="42.7422575" lon="11.8690031"><ele>391.0</ele><time>2026-04-11T08:44:39.441Z</time></trkpt><trkpt lat="42.7421946" lon="11.8688725"><ele>391.0</ele><time>2026-04-11T08:44:40.431Z</time></trkpt><trkpt lat="42.7421337" lon="11.868731"><ele>391.0</ele><time>2026-04-11T08:44:41.437Z</time></trkpt><trkpt lat="42.7420698" lon="11.8685885"><ele>390.25</ele><time>2026-04-11T08:44:42.435Z</time></trkpt><trkpt lat="42.742006" lon="11.8684402"><ele>389.5</ele><time>2026-04-11T08:44:43.435Z</time></trkpt><trkpt lat="42.7419568" lon="11.8682882"><ele>388.75</ele><time>2026-04-11T08:44:44.443Z</time></trkpt><trkpt lat="42.7419199" lon="11.8681464"><ele>388.0</ele><time>2026-04-11T08:44:45.445Z</time></trkpt><trkpt lat="42.7418878" lon="11.8680054"><ele>387.4</ele><time>2026-04-11T08:44:46.443Z</time></trkpt><trkpt lat="42.7418612" lon="11.8678684"><ele>386.79999999999995</ele><time>2026-04-11T08:44:47.439Z</time></trkpt><trkpt lat="42.7418404" lon="11.8677353"><ele>386.2</ele><time>2026-04-11T08:44:48.451Z</time></trkpt><trkpt lat="42.7418199" lon="11.8676076"><ele>385.6</ele><time>2026-04-11T08:44:49.439Z</time></trkpt><trkpt lat="42.7418008" lon="11.8674845"><ele>385.0</ele><time>2026-04-11T08:44:50.46Z</time></trkpt><trkpt lat="42.7417837" lon="11.8673631"><ele>384.8</ele><time>2026-04-11T08:44:51.445Z</time></trkpt><trkpt lat="42.7417576" lon="11.8672337"><ele>384.6</ele><time>2026-04-11T08:44:52.443Z</time></trkpt><trkpt lat="42.7417331" lon="11.8670969"><ele>384.4</ele><time>2026-04-11T08:44:53.44Z</time></trkpt><trkpt lat="42.7416995" lon="11.8669432"><ele>384.2</ele><time>2026-04-11T08:44:54.468Z</time></trkpt><trkpt lat="42.7416661" lon="11.8667854"><ele>384.0</ele><time>2026-04-11T08:44:55.464Z</time></trkpt><trkpt lat="42.7416289" lon="11.8666144"><ele>383.6666666666667</ele><time>2026-04-11T08:44:56.444Z</time></trkpt><trkpt lat="42.7415869" lon="11.8664371"><ele>383.33333333333337</ele><time>2026-04-11T08:44:57.461Z</time></trkpt><trkpt lat="42.7415409" lon="11.8662323"><ele>383.0</ele><time>2026-04-11T08:44:58.445Z</time></trkpt><trkpt lat="42.7414707" lon="11.8659856"><ele>383.6666666666667</ele><time>2026-04-11T08:44:59.448Z</time></trkpt><trkpt lat="42.7414303" lon="11.8657587"><ele>384.33333333333337</ele><time>2026-04-11T08:45:00.442Z</time></trkpt><trkpt lat="42.7413723" lon="11.8655226"><ele>385.0</ele><time>2026-04-11T08:45:01.435Z</time></trkpt><trkpt lat="42.7413499" lon="11.8653555"><ele>385.0</ele><time>2026-04-11T08:45:02.439Z</time></trkpt><trkpt lat="42.7413302" lon="11.8651774"><ele>385.0</ele><time>2026-04-11T08:45:03.441Z</time></trkpt><trkpt lat="42.7413208" lon="11.8650152"><ele>385.0</ele><time>2026-04-11T08:45:04.444Z</time></trkpt><trkpt lat="42.7413219" lon="11.8648459"><ele>385.0</ele><time>2026-04-11T08:45:05.455Z</time></trkpt><trkpt lat="42.7413205" lon="11.8646896"><ele>386.0</ele><time>2026-04-11T08:45:06.442Z</time></trkpt><trkpt lat="42.7414007" lon="11.8645397"><ele>387.0</ele><time>2026-04-11T08:45:07.434Z</time></trkpt><trkpt lat="42.74151" lon="11.8644631"><ele>388.0</ele><time>2026-04-11T08:45:08.431Z</time></trkpt><trkpt lat="42.7416099" lon="11.8643953"><ele>389.0</ele><time>2026-04-11T08:45:09.436Z</time></trkpt><trkpt lat="42.7417351" lon="11.8643774"><ele>389.0</ele><time>2026-04-11T08:45:10.446Z</time></trkpt><trkpt lat="42.7418688" lon="11.8644117"><ele>389.0</ele><time>2026-04-11T08:45:11.441Z</time></trkpt><trkpt lat="42.7420146" lon="11.864497"><ele>389.0</ele><time>2026-04-11T08:45:12.439Z</time></trkpt><trkpt lat="42.7421424" lon="11.8645884"><ele>389.0</ele><time>2026-04-11T08:45:13.434Z</time></trkpt><trkpt lat="42.7422801" lon="11.8646653"><ele>389.25</ele><time>2026-04-11T08:45:14.432Z</time></trkpt><trkpt lat="42.7424243" lon="11.8646516"><ele>389.5</ele><time>2026-04-11T08:45:15.442Z</time></trkpt><trkpt lat="42.7425128" lon="11.8646185"><ele>389.75</ele><time>2026-04-11T08:45:16.432Z</time></trkpt><trkpt lat="42.7425728" lon="11.8644689"><ele>390.0</ele><time>2026-04-11T08:45:17.431Z</time></trkpt><trkpt lat="42.7426132" lon="11.864343"><ele>392.75</ele><time>2026-04-11T08:45:18.429Z</time></trkpt><trkpt lat="42.7425637" lon="11.8641626"><ele>395.5</ele><time>2026-04-11T08:45:19.422Z</time></trkpt><trkpt lat="42.7425612" lon="11.8640091"><ele>398.25</ele><time>2026-04-11T08:45:20.427Z</time></trkpt><trkpt lat="42.7426056" lon="11.8638716"><ele>401.0</ele><time>2026-04-11T08:45:21.442Z</time></trkpt><trkpt lat="42.7426404" lon="11.8637434"><ele>399.25</ele><time>2026-04-11T08:45:22.43Z</time></trkpt><trkpt lat="42.7427198" lon="11.8636466"><ele>397.5</ele><time>2026-04-11T08:45:23.436Z</time></trkpt><trkpt lat="42.7428422" lon="11.8635993"><ele>395.75</ele><time>2026-04-11T08:45:24.434Z</time></trkpt><trkpt lat="42.7429901" lon="11.8635434"><ele>394.0</ele><time>2026-04-11T08:45:25.436Z</time></trkpt><trkpt lat="42.7431305" lon="11.8634719"><ele>394.0</ele><time>2026-04-11T08:45:26.423Z</time></trkpt><trkpt lat="42.7432724" lon="11.8634045"><ele>394.0</ele><time>2026-04-11T08:45:27.426Z</time></trkpt><trkpt lat="42.7433871" lon="11.8633191"><ele>394.0</ele><time>2026-04-11T08:45:28.421Z</time></trkpt><trkpt lat="42.7434992" lon="11.8632381"><ele>394.0</ele><time>2026-04-11T08:45:29.428Z</time></trkpt><trkpt lat="42.7435917" lon="11.8631907"><ele>394.00000000000006</ele><time>2026-04-11T08:45:30.434Z</time></trkpt><trkpt lat="42.7436713" lon="11.8631491"><ele>394.0</ele><time>2026-04-11T08:45:31.431Z</time></trkpt><trkpt lat="42.7437682" lon="11.8630863"><ele>394.0</ele><time>2026-04-11T08:45:33.435Z</time></trkpt><trkpt lat="42.7438338" lon="11.8629756"><ele>394.0</ele><time>2026-04-11T08:45:35.437Z</time></trkpt><trkpt lat="42.7437601" lon="11.8629435"><ele>394.00000000000006</ele><time>2026-04-11T08:45:38.445Z</time></trkpt><trkpt lat="42.7436971" lon="11.8629894"><ele>394.0</ele><time>2026-04-11T08:45:42.422Z</time></trkpt><trkpt lat="42.7436137" lon="11.863039"><ele>393.79999999999995</ele><time>2026-04-11T08:45:44.424Z</time></trkpt><trkpt lat="42.7435399" lon="11.8631031"><ele>393.59999999999997</ele><time>2026-04-11T08:45:45.436Z</time></trkpt><trkpt lat="42.7434783" lon="11.8631548"><ele>393.4</ele><time>2026-04-11T08:45:46.425Z</time></trkpt><trkpt lat="42.7433729" lon="11.8632517"><ele>393.2</ele><time>2026-04-11T08:45:48.419Z</time></trkpt><trkpt lat="42.7433133" lon="11.8632895"><ele>393.0</ele><time>2026-04-11T08:45:49.413Z</time></trkpt><trkpt lat="42.7432079" lon="11.8633623"><ele>393.0</ele><time>2026-04-11T08:45:51.422Z</time></trkpt><trkpt lat="42.7431414" lon="11.8634012"><ele>393.0</ele><time>2026-04-11T08:45:52.442Z</time></trkpt><trkpt lat="42.7430661" lon="11.863422"><ele>393.0</ele><time>2026-04-11T08:45:53.425Z</time></trkpt><trkpt lat="42.7429788" lon="11.8634436"><ele>393.0</ele><time>2026-04-11T08:45:54.431Z</time></trkpt><trkpt lat="42.7428808" lon="11.8635105"><ele>393.0</ele><time>2026-04-11T08:45:55.425Z</time></trkpt><trkpt lat="42.7427879" lon="11.8635662"><ele>393.0</ele><time>2026-04-11T08:45:56.43Z</time></trkpt><trkpt lat="42.7426884" lon="11.8636251"><ele>394.59999999999997</ele><time>2026-04-11T08:45:57.433Z</time></trkpt><trkpt lat="42.7425896" lon="11.8636588"><ele>396.2</ele><time>2026-04-11T08:45:58.426Z</time></trkpt><trkpt lat="42.7424876" lon="11.8636952"><ele>397.8</ele><time>2026-04-11T08:45:59.432Z</time></trkpt><trkpt lat="42.7423909" lon="11.8637596"><ele>399.4</ele><time>2026-04-11T08:46:00.436Z</time></trkpt><trkpt lat="42.7423003" lon="11.8638205"><ele>401.0</ele><time>2026-04-11T08:46:01.432Z</time></trkpt><trkpt lat="42.7422067" lon="11.8638752"><ele>401.0</ele><time>2026-04-11T08:46:02.437Z</time></trkpt><trkpt lat="42.7421113" lon="11.8638888"><ele>401.0</ele><time>2026-04-11T08:46:03.423Z</time></trkpt><trkpt lat="42.7420133" lon="11.8638862"><ele>401.0</ele><time>2026-04-11T08:46:04.427Z</time></trkpt><trkpt lat="42.7419295" lon="11.8638012"><ele>401.0</ele><time>2026-04-11T08:46:05.421Z</time></trkpt><trkpt lat="42.7418493" lon="11.8637152"><ele>401.0</ele><time>2026-04-11T08:46:06.418Z</time></trkpt><trkpt lat="42.7417646" lon="11.863612"><ele>400.5</ele><time>2026-04-11T08:46:07.44Z</time></trkpt><trkpt lat="42.7416813" lon="11.8635123"><ele>400.0</ele><time>2026-04-11T08:46:08.429Z</time></trkpt><trkpt lat="42.7415902" lon="11.8634066"><ele>399.5</ele><time>2026-04-11T08:46:09.427Z</time></trkpt><trkpt lat="42.7415038" lon="11.8633117"><ele>399.0</ele><time>2026-04-11T08:46:10.431Z</time></trkpt><trkpt lat="42.7414179" lon="11.863213"><ele>401.4</ele><time>2026-04-11T08:46:11.437Z</time></trkpt><trkpt lat="42.7413264" lon="11.8631355"><ele>403.79999999999995</ele><time>2026-04-11T08:46:12.437Z</time></trkpt><trkpt lat="42.7412269" lon="11.8630722"><ele>406.20000000000005</ele><time>2026-04-11T08:46:13.435Z</time></trkpt><trkpt lat="42.7411239" lon="11.8630192"><ele>408.6</ele><time>2026-04-11T08:46:14.433Z</time></trkpt><trkpt lat="42.7410284" lon="11.8629728"><ele>411.0</ele><time>2026-04-11T08:46:15.435Z</time></trkpt><trkpt lat="42.7409361" lon="11.862934"><ele>411.0</ele><time>2026-04-11T08:46:16.428Z</time></trkpt><trkpt lat="42.7408686" lon="11.8629281"><ele>411.0</ele><time>2026-04-11T08:46:17.426Z</time></trkpt><trkpt lat="42.7407698" lon="11.8629018"><ele>411.0</ele><time>2026-04-11T08:46:19.421Z</time></trkpt><trkpt lat="42.7408469" lon="11.8629117"><ele>411.0</ele><time>2026-04-11T08:46:26.435Z</time></trkpt><trkpt lat="42.7409509" lon="11.862928"><ele>411.0</ele><time>2026-04-11T08:46:28.419Z</time></trkpt><trkpt lat="42.7410683" lon="11.8629675"><ele>411.0</ele><time>2026-04-11T08:46:30.42Z</time></trkpt><trkpt lat="42.7411948" lon="11.8630237"><ele>411.0</ele><time>2026-04-11T08:46:32.431Z</time></trkpt><trkpt lat="42.7412617" lon="11.8630732"><ele>411.0</ele><time>2026-04-11T08:46:33.428Z</time></trkpt><trkpt lat="42.7413276" lon="11.8631043"><ele>411.0</ele><time>2026-04-11T08:46:34.433Z</time></trkpt><trkpt lat="42.7413923" lon="11.8631272"><ele>411.0</ele><time>2026-04-11T08:46:35.429Z</time></trkpt><trkpt lat="42.7414829" lon="11.8631438"><ele>411.0</ele><time>2026-04-11T08:46:37.435Z</time></trkpt><trkpt lat="42.7415754" lon="11.8632057"><ele>411.0</ele><time>2026-04-11T08:46:52.44Z</time></trkpt><trkpt lat="42.7416438" lon="11.8632627"><ele>411.0</ele><time>2026-04-11T08:46:53.436Z</time></trkpt><trkpt lat="42.741754" lon="11.8633542"><ele>411.0</ele><time>2026-04-11T08:46:54.449Z</time></trkpt><trkpt lat="42.7418626" lon="11.8634427"><ele>411.0</ele><time>2026-04-11T08:46:55.43Z</time></trkpt><trkpt lat="42.7419625" lon="11.8635444"><ele>409.0</ele><time>2026-04-11T08:46:56.436Z</time></trkpt><trkpt lat="42.7420521" lon="11.8636421"><ele>407.0</ele><time>2026-04-11T08:46:57.441Z</time></trkpt><trkpt lat="42.7421308" lon="11.863728"><ele>405.0</ele><time>2026-04-11T08:46:58.433Z</time></trkpt><trkpt lat="42.7422078" lon="11.8638082"><ele>403.0</ele><time>2026-04-11T08:46:59.429Z</time></trkpt><trkpt lat="42.7422795" lon="11.8638709"><ele>401.0</ele><time>2026-04-11T08:47:00.428Z</time></trkpt><trkpt lat="42.7423482" lon="11.8639265"><ele>401.0</ele><time>2026-04-11T08:47:01.43Z</time></trkpt><trkpt lat="42.7424548" lon="11.8639081"><ele>401.0</ele><time>2026-04-11T08:47:03.41Z</time></trkpt><trkpt lat="42.7425489" lon="11.8638105"><ele>401.0</ele><time>2026-04-11T08:47:04.423Z</time></trkpt><trkpt lat="42.7426469" lon="11.8636998"><ele>401.0</ele><time>2026-04-11T08:47:05.419Z</time></trkpt><trkpt lat="42.7427438" lon="11.8636244"><ele>399.8333333333333</ele><time>2026-04-11T08:47:06.429Z</time></trkpt><trkpt lat="42.7428465" lon="11.8635615"><ele>398.66666666666663</ele><time>2026-04-11T08:47:07.427Z</time></trkpt><trkpt lat="42.7429257" lon="11.8635004"><ele>397.5</ele><time>2026-04-11T08:47:08.421Z</time></trkpt><trkpt lat="42.7429981" lon="11.8634412"><ele>396.33333333333337</ele><time>2026-04-11T08:47:09.425Z</time></trkpt><trkpt lat="42.7430682" lon="11.8633896"><ele>395.1666666666667</ele><time>2026-04-11T08:47:10.433Z</time></trkpt><trkpt lat="42.7431281" lon="11.8633531"><ele>394.0</ele><time>2026-04-11T08:47:11.427Z</time></trkpt><trkpt lat="42.7432372" lon="11.8633162"><ele>394.00000000000006</ele><time>2026-04-11T08:47:13.433Z</time></trkpt><trkpt lat="42.7433052" lon="11.8633116"><ele>394.0</ele><time>2026-04-11T08:47:14.424Z</time></trkpt><trkpt lat="42.7434089" lon="11.8632427"><ele>394.0</ele><time>2026-04-11T08:47:16.422Z</time></trkpt><trkpt lat="42.7434977" lon="11.8631556"><ele>394.0</ele><time>2026-04-11T08:47:18.431Z</time></trkpt><trkpt lat="42.7435615" lon="11.8631148"><ele>394.00000000000006</ele><time>2026-04-11T08:47:19.427Z</time></trkpt><trkpt lat="42.7436291" lon="11.8630758"><ele>394.0</ele><time>2026-04-11T08:47:20.428Z</time></trkpt><trkpt lat="42.7436995" lon="11.8630406"><ele>394.00000000000006</ele><time>2026-04-11T08:47:21.425Z</time></trkpt><trkpt lat="42.7437622" lon="11.8630053"><ele>394.0</ele><time>2026-04-11T08:47:22.43Z</time></trkpt><trkpt lat="42.7438486" lon="11.8629159"><ele>394.0</ele><time>2026-04-11T08:47:24.428Z</time></trkpt><trkpt lat="42.7438411" lon="11.8628188"><ele>394.0</ele><time>2026-04-11T08:47:26.434Z</time></trkpt><trkpt lat="42.7437514" lon="11.8627624"><ele>394.00000000000006</ele><time>2026-04-11T08:47:28.429Z</time></trkpt><trkpt lat="42.7436712" lon="11.8628162"><ele>394.0</ele><time>2026-04-11T08:47:30.438Z</time></trkpt><trkpt lat="42.7436267" lon="11.8629481"><ele>393.83333333333337</ele><time>2026-04-11T08:47:32.431Z</time></trkpt><trkpt lat="42.7435127" lon="11.8630283"><ele>393.6666666666667</ele><time>2026-04-11T08:47:34.422Z</time></trkpt><trkpt lat="42.7434451" lon="11.8630575"><ele>393.5</ele><time>2026-04-11T08:47:35.421Z</time></trkpt><trkpt lat="42.7433631" lon="11.8630849"><ele>393.33333333333337</ele><time>2026-04-11T08:47:36.419Z</time></trkpt><trkpt lat="42.7432822" lon="11.8631184"><ele>393.1666666666667</ele><time>2026-04-11T08:47:37.417Z</time></trkpt><trkpt lat="42.7432179" lon="11.8631471"><ele>393.0</ele><time>2026-04-11T08:47:38.413Z</time></trkpt><trkpt lat="42.7431208" lon="11.8631746"><ele>393.0</ele><time>2026-04-11T08:47:40.417Z</time></trkpt><trkpt lat="42.7430381" lon="11.863148"><ele>393.0</ele><time>2026-04-11T08:47:42.418Z</time></trkpt><trkpt lat="42.7430116" lon="11.8630637"><ele>393.0</ele><time>2026-04-11T08:47:45.442Z</time></trkpt><trkpt lat="42.7429277" lon="11.8630216"><ele>393.0</ele><time>2026-04-11T08:47:49.437Z</time></trkpt><trkpt lat="42.7428287" lon="11.8630416"><ele>393.0</ele><time>2026-04-11T08:47:51.426Z</time></trkpt><trkpt lat="42.7427591" lon="11.8630512"><ele>393.0</ele><time>2026-04-11T08:47:52.421Z</time></trkpt><trkpt lat="42.7426816" lon="11.8630575"><ele>394.4</ele><time>2026-04-11T08:47:53.422Z</time></trkpt><trkpt lat="42.7425833" lon="11.8630353"><ele>395.79999999999995</ele><time>2026-04-11T08:47:54.429Z</time></trkpt><trkpt lat="42.7424913" lon="11.8629748"><ele>397.2</ele><time>2026-04-11T08:47:55.419Z</time></trkpt><trkpt lat="42.7423995" lon="11.8629113"><ele>398.6</ele><time>2026-04-11T08:47:56.447Z</time></trkpt><trkpt lat="42.7423188" lon="11.8628438"><ele>400.0</ele><time>2026-04-11T08:47:57.425Z</time></trkpt><trkpt lat="42.7422564" lon="11.8627934"><ele>400.0</ele><time>2026-04-11T08:47:58.432Z</time></trkpt><trkpt lat="42.742212" lon="11.862725"><ele>400.0</ele><time>2026-04-11T08:47:59.425Z</time></trkpt><trkpt lat="42.7421773" lon="11.8626185"><ele>400.0</ele><time>2026-04-11T08:48:00.434Z</time></trkpt><trkpt lat="42.7421518" lon="11.8624924"><ele>400.0</ele><time>2026-04-11T08:48:01.43Z</time></trkpt><trkpt lat="42.742143" lon="11.8623367"><ele>400.0</ele><time>2026-04-11T08:48:02.432Z</time></trkpt><trkpt lat="42.7421344" lon="11.8621938"><ele>399.0</ele><time>2026-04-11T08:48:03.428Z</time></trkpt><trkpt lat="42.7421462" lon="11.8620272"><ele>398.0</ele><time>2026-04-11T08:48:04.422Z</time></trkpt><trkpt lat="42.7421818" lon="11.8618534"><ele>397.0</ele><time>2026-04-11T08:48:05.427Z</time></trkpt><trkpt lat="42.7422197" lon="11.8616729"><ele>396.0</ele><time>2026-04-11T08:48:06.417Z</time></trkpt><trkpt lat="42.7422516" lon="11.861456"><ele>396.0</ele><time>2026-04-11T08:48:07.424Z</time></trkpt><trkpt lat="42.7423234" lon="11.8612265"><ele>396.0</ele><time>2026-04-11T08:48:08.418Z</time></trkpt><trkpt lat="42.7423997" lon="11.8610115"><ele>396.0</ele><time>2026-04-11T08:48:09.426Z</time></trkpt><trkpt lat="42.742455" lon="11.8607749"><ele>400.0</ele><time>2026-04-11T08:48:10.431Z</time></trkpt><trkpt lat="42.7424582" lon="11.860516"><ele>404.0</ele><time>2026-04-11T08:48:11.432Z</time></trkpt><trkpt lat="42.7423378" lon="11.8602965"><ele>408.0</ele><time>2026-04-11T08:48:12.426Z</time></trkpt><trkpt lat="42.7422397" lon="11.8600365"><ele>411.0</ele><time>2026-04-11T08:48:13.432Z</time></trkpt><trkpt lat="42.7421652" lon="11.8598343"><ele>414.0</ele><time>2026-04-11T08:48:14.418Z</time></trkpt><trkpt lat="42.7421005" lon="11.8596611"><ele>417.0</ele><time>2026-04-11T08:48:15.417Z</time></trkpt><trkpt lat="42.7420379" lon="11.8595057"><ele>420.0</ele><time>2026-04-11T08:48:16.419Z</time></trkpt><trkpt lat="42.7419681" lon="11.8593689"><ele>419.6</ele><time>2026-04-11T08:48:17.419Z</time></trkpt><trkpt lat="42.7419517" lon="11.8592089"><ele>419.2</ele><time>2026-04-11T08:48:18.419Z</time></trkpt><trkpt lat="42.741957" lon="11.8590579"><ele>418.79999999999995</ele><time>2026-04-11T08:48:19.421Z</time></trkpt><trkpt lat="42.741952" lon="11.8589409"><ele>418.4</ele><time>2026-04-11T08:48:20.426Z</time></trkpt><trkpt lat="42.7419799" lon="11.8588462"><ele>418.0</ele><time>2026-04-11T08:48:21.431Z</time></trkpt><trkpt lat="42.7419558" lon="11.8587452"><ele>418.0</ele><time>2026-04-11T08:48:22.423Z</time></trkpt><trkpt lat="42.7419018" lon="11.8586456"><ele>418.0</ele><time>2026-04-11T08:48:23.429Z</time></trkpt><trkpt lat="42.7418177" lon="11.8585634"><ele>418.0</ele><time>2026-04-11T08:48:24.418Z</time></trkpt><trkpt lat="42.741726" lon="11.8584978"><ele>418.0</ele><time>2026-04-11T08:48:25.417Z</time></trkpt><trkpt lat="42.7416241" lon="11.8584251"><ele>418.0</ele><time>2026-04-11T08:48:26.438Z</time></trkpt><trkpt lat="42.7414885" lon="11.8583972"><ele>415.0</ele><time>2026-04-11T08:48:27.418Z</time></trkpt><trkpt lat="42.7413546" lon="11.858377"><ele>412.0</ele><time>2026-04-11T08:48:28.422Z</time></trkpt><trkpt lat="42.7411954" lon="11.8583761"><ele>409.0</ele><time>2026-04-11T08:48:29.425Z</time></trkpt><trkpt lat="42.7410293" lon="11.8583825"><ele>408.25</ele><time>2026-04-11T08:48:30.431Z</time></trkpt><trkpt lat="42.7408913" lon="11.8583911"><ele>407.5</ele><time>2026-04-11T08:48:31.427Z</time></trkpt><trkpt lat="42.7407686" lon="11.8583767"><ele>406.75</ele><time>2026-04-11T08:48:32.439Z</time></trkpt><trkpt lat="42.7406614" lon="11.8583283"><ele>406.0</ele><time>2026-04-11T08:48:33.427Z</time></trkpt><trkpt lat="42.7405681" lon="11.8582337"><ele>406.0</ele><time>2026-04-11T08:48:34.431Z</time></trkpt><trkpt lat="42.7405078" lon="11.8580849"><ele>406.0</ele><time>2026-04-11T08:48:35.425Z</time></trkpt><trkpt lat="42.7404568" lon="11.857913"><ele>406.0</ele><time>2026-04-11T08:48:36.435Z</time></trkpt><trkpt lat="42.7404204" lon="11.8577058"><ele>406.0</ele><time>2026-04-11T08:48:37.431Z</time></trkpt><trkpt lat="42.740383" lon="11.8574392"><ele>404.33333333333337</ele><time>2026-04-11T08:48:38.44Z</time></trkpt><trkpt lat="42.7403479" lon="11.8572267"><ele>402.66666666666663</ele><time>2026-04-11T08:48:39.433Z</time></trkpt><trkpt lat="42.7402895" lon="11.8570059"><ele>401.0</ele><time>2026-04-11T08:48:40.436Z</time></trkpt><trkpt lat="42.7402495" lon="11.8567799"><ele>404.75</ele><time>2026-04-11T08:48:41.442Z</time></trkpt><trkpt lat="42.7401998" lon="11.856573"><ele>408.5</ele><time>2026-04-11T08:48:42.433Z</time></trkpt><trkpt lat="42.7401741" lon="11.8563756"><ele>412.25</ele><time>2026-04-11T08:48:43.429Z</time></trkpt><trkpt lat="42.7401552" lon="11.8561971"><ele>416.0</ele><time>2026-04-11T08:48:44.425Z</time></trkpt><trkpt lat="42.7401563" lon="11.8560148"><ele>419.0</ele><time>2026-04-11T08:48:45.426Z</time></trkpt><trkpt lat="42.7401569" lon="11.8558727"><ele>422.0</ele><time>2026-04-11T08:48:46.413Z</time></trkpt><trkpt lat="42.740106" lon="11.8557456"><ele>425.0</ele><time>2026-04-11T08:48:47.416Z</time></trkpt><trkpt lat="42.7400669" lon="11.8555931"><ele>428.0</ele><time>2026-04-11T08:48:48.411Z</time></trkpt><trkpt lat="42.7399292" lon="11.8555319"><ele>428.0</ele><time>2026-04-11T08:48:49.401Z</time></trkpt><trkpt lat="42.7397637" lon="11.8555545"><ele>428.0</ele><time>2026-04-11T08:48:50.4Z</time></trkpt><trkpt lat="42.7396112" lon="11.8555976"><ele>428.0</ele><time>2026-04-11T08:48:51.404Z</time></trkpt><trkpt lat="42.7394508" lon="11.8555994"><ele>428.66666666666663</ele><time>2026-04-11T08:48:52.404Z</time></trkpt><trkpt lat="42.7393069" lon="11.8555942"><ele>429.33333333333337</ele><time>2026-04-11T08:48:53.412Z</time></trkpt><trkpt lat="42.7391446" lon="11.8556196"><ele>430.0</ele><time>2026-04-11T08:48:54.415Z</time></trkpt><trkpt lat="42.7389814" lon="11.8556278"><ele>430.0</ele><time>2026-04-11T08:48:55.411Z</time></trkpt><trkpt lat="42.7388838" lon="11.855683"><ele>430.0</ele><time>2026-04-11T08:48:56.416Z</time></trkpt><trkpt lat="42.7387283" lon="11.8557234"><ele>430.0</ele><time>2026-04-11T08:48:58.419Z</time></trkpt><trkpt lat="42.7386632" lon="11.8557111"><ele>430.0</ele><time>2026-04-11T08:48:59.423Z</time></trkpt><trkpt lat="42.7385762" lon="11.8556559"><ele>430.0</ele><time>2026-04-11T08:49:01.429Z</time></trkpt><trkpt lat="42.7385135" lon="11.8556241"><ele>430.1666666666667</ele><time>2026-04-11T08:49:02.428Z</time></trkpt><trkpt lat="42.7384361" lon="11.8556109"><ele>430.33333333333337</ele><time>2026-04-11T08:49:03.434Z</time></trkpt><trkpt lat="42.7383601" lon="11.8555945"><ele>430.5</ele><time>2026-04-11T08:49:04.428Z</time></trkpt><trkpt lat="42.7382947" lon="11.8555916"><ele>430.66666666666663</ele><time>2026-04-11T08:49:05.428Z</time></trkpt><trkpt lat="42.7382219" lon="11.8555726"><ele>430.8333333333333</ele><time>2026-04-11T08:49:07.426Z</time></trkpt><trkpt lat="42.738215" lon="11.8554494"><ele>431.0</ele><time>2026-04-11T08:49:10.428Z</time></trkpt><trkpt lat="42.738251" lon="11.855298"><ele>430.99999999999994</ele><time>2026-04-11T08:49:12.44Z</time></trkpt><trkpt lat="42.7383051" lon="11.8552077"><ele>431.0</ele><time>2026-04-11T08:49:17.454Z</time></trkpt><trkpt lat="42.7382901" lon="11.8553167"><ele>431.0</ele><time>2026-04-11T08:49:24.445Z</time></trkpt><trkpt lat="42.7382721" lon="11.8554258"><ele>431.0</ele><time>2026-04-11T08:49:26.444Z</time></trkpt><trkpt lat="42.7382626" lon="11.8555402"><ele>430.99999999999994</ele><time>2026-04-11T08:49:28.45Z</time></trkpt><trkpt lat="42.7383309" lon="11.8555798"><ele>431.0</ele><time>2026-04-11T08:49:30.434Z</time></trkpt><trkpt lat="42.7383908" lon="11.8556168"><ele>431.0</ele><time>2026-04-11T08:49:31.424Z</time></trkpt><trkpt lat="42.7384627" lon="11.855646"><ele>431.0</ele><time>2026-04-11T08:49:32.427Z</time></trkpt><trkpt lat="42.7385662" lon="11.8556526"><ele>431.0</ele><time>2026-04-11T08:49:33.437Z</time></trkpt><trkpt lat="42.7386781" lon="11.8556704"><ele>431.0</ele><time>2026-04-11T08:49:34.436Z</time></trkpt><trkpt lat="42.7387888" lon="11.8556837"><ele>431.0</ele><time>2026-04-11T08:49:35.433Z</time></trkpt><trkpt lat="42.7388927" lon="11.8556982"><ele>430.8</ele><time>2026-04-11T08:49:36.431Z</time></trkpt><trkpt lat="42.7390001" lon="11.8557058"><ele>430.6</ele><time>2026-04-11T08:49:37.436Z</time></trkpt><trkpt lat="42.7391009" lon="11.8557066"><ele>430.4</ele><time>2026-04-11T08:49:38.43Z</time></trkpt><trkpt lat="42.7392009" lon="11.8557056"><ele>430.2</ele><time>2026-04-11T08:49:39.424Z</time></trkpt><trkpt lat="42.739293" lon="11.8557057"><ele>430.0</ele><time>2026-04-11T08:49:40.431Z</time></trkpt><trkpt lat="42.739377" lon="11.8557097"><ele>429.6</ele><time>2026-04-11T08:49:41.428Z</time></trkpt><trkpt lat="42.7394415" lon="11.8557158"><ele>429.2</ele><time>2026-04-11T08:49:42.432Z</time></trkpt><trkpt lat="42.7395134" lon="11.8557155"><ele>428.79999999999995</ele><time>2026-04-11T08:49:43.425Z</time></trkpt><trkpt lat="42.7396326" lon="11.855735"><ele>428.4</ele><time>2026-04-11T08:49:45.419Z</time></trkpt><trkpt lat="42.7397695" lon="11.8557492"><ele>428.0</ele><time>2026-04-11T08:49:47.418Z</time></trkpt><trkpt lat="42.7398578" lon="11.8557653"><ele>427.99999999999994</ele><time>2026-04-11T08:49:48.432Z</time></trkpt><trkpt lat="42.7399481" lon="11.8557671"><ele>428.0</ele><time>2026-04-11T08:49:49.436Z</time></trkpt><trkpt lat="42.7400365" lon="11.8557577"><ele>428.0</ele><time>2026-04-11T08:49:50.432Z</time></trkpt><trkpt lat="42.740118" lon="11.8557446"><ele>428.0</ele><time>2026-04-11T08:49:51.431Z</time></trkpt><trkpt lat="42.7401869" lon="11.8556937"><ele>427.99999999999994</ele><time>2026-04-11T08:49:52.432Z</time></trkpt><trkpt lat="42.740216" lon="11.8556006"><ele>428.0</ele><time>2026-04-11T08:49:54.43Z</time></trkpt><trkpt lat="42.7401997" lon="11.8554685"><ele>428.0</ele><time>2026-04-11T08:49:56.442Z</time></trkpt><trkpt lat="42.7401847" lon="11.855384"><ele>427.99999999999994</ele><time>2026-04-11T08:49:57.436Z</time></trkpt><trkpt lat="42.7401532" lon="11.8552632"><ele>427.99999999999994</ele><time>2026-04-11T08:49:58.441Z</time></trkpt><trkpt lat="42.74011" lon="11.8550925"><ele>428.0</ele><time>2026-04-11T08:49:59.457Z</time></trkpt><trkpt lat="42.740092" lon="11.8549289"><ele>428.0</ele><time>2026-04-11T08:50:00.443Z</time></trkpt><trkpt lat="42.740068" lon="11.8547588"><ele>428.0</ele><time>2026-04-11T08:50:01.45Z</time></trkpt><trkpt lat="42.7400507" lon="11.8545855"><ele>428.0</ele><time>2026-04-11T08:50:02.443Z</time></trkpt><trkpt lat="42.740024" lon="11.8544394"><ele>428.0</ele><time>2026-04-11T08:50:03.443Z</time></trkpt><trkpt lat="42.7399961" lon="11.8543031"><ele>428.0</ele><time>2026-04-11T08:50:04.449Z</time></trkpt><trkpt lat="42.7399691" lon="11.8541513"><ele>427.8333333333333</ele><time>2026-04-11T08:50:05.441Z</time></trkpt><trkpt lat="42.7399786" lon="11.854039"><ele>427.66666666666663</ele><time>2026-04-11T08:50:06.456Z</time></trkpt><trkpt lat="42.7400026" lon="11.8539422"><ele>427.5</ele><time>2026-04-11T08:50:07.447Z</time></trkpt><trkpt lat="42.740009" lon="11.8538471"><ele>427.33333333333337</ele><time>2026-04-11T08:50:08.444Z</time></trkpt><trkpt lat="42.7399691" lon="11.8537097"><ele>427.1666666666667</ele><time>2026-04-11T08:50:10.444Z</time></trkpt><trkpt lat="42.7398928" lon="11.8536928"><ele>427.0</ele><time>2026-04-11T08:50:11.432Z</time></trkpt><trkpt lat="42.7397816" lon="11.8537016"><ele>427.0</ele><time>2026-04-11T08:50:12.444Z</time></trkpt><trkpt lat="42.7396726" lon="11.8537132"><ele>427.00000000000006</ele><time>2026-04-11T08:50:13.446Z</time></trkpt><trkpt lat="42.7395694" lon="11.8537042"><ele>427.00000000000006</ele><time>2026-04-11T08:50:14.435Z</time></trkpt><trkpt lat="42.739483" lon="11.8536547"><ele>427.0</ele><time>2026-04-11T08:50:15.439Z</time></trkpt><trkpt lat="42.7394217" lon="11.853603"><ele>427.0</ele><time>2026-04-11T08:50:16.454Z</time></trkpt><trkpt lat="42.7393456" lon="11.8534733"><ele>427.00000000000006</ele><time>2026-04-11T08:50:18.456Z</time></trkpt><trkpt lat="42.7392834" lon="11.8534249"><ele>427.0</ele><time>2026-04-11T08:50:19.452Z</time></trkpt><trkpt lat="42.7392033" lon="11.8534008"><ele>427.0</ele><time>2026-04-11T08:50:20.459Z</time></trkpt><trkpt lat="42.7391289" lon="11.8533897"><ele>427.0</ele><time>2026-04-11T08:50:21.442Z</time></trkpt><trkpt lat="42.7390348" lon="11.8533746"><ele>427.00000000000006</ele><time>2026-04-11T08:50:22.445Z</time></trkpt><trkpt lat="42.7389357" lon="11.8533629"><ele>427.0</ele><time>2026-04-11T08:50:23.454Z</time></trkpt><trkpt lat="42.7388362" lon="11.8533288"><ele>427.0</ele><time>2026-04-11T08:50:24.452Z</time></trkpt><trkpt lat="42.7387391" lon="11.8532897"><ele>427.0</ele><time>2026-04-11T08:50:25.443Z</time></trkpt><trkpt lat="42.7386315" lon="11.8532364"><ele>427.0</ele><time>2026-04-11T08:50:26.456Z</time></trkpt><trkpt lat="42.7385185" lon="11.8531769"><ele>427.0</ele><time>2026-04-11T08:50:27.444Z</time></trkpt><trkpt lat="42.7384064" lon="11.8531202"><ele>427.6666666666667</ele><time>2026-04-11T08:50:28.444Z</time></trkpt><trkpt lat="42.7383038" lon="11.8530761"><ele>428.33333333333337</ele><time>2026-04-11T08:50:29.442Z</time></trkpt><trkpt lat="42.7382232" lon="11.8530444"><ele>429.0</ele><time>2026-04-11T08:50:30.451Z</time></trkpt><trkpt lat="42.7381569" lon="11.8529984"><ele>429.66666666666663</ele><time>2026-04-11T08:50:31.436Z</time></trkpt><trkpt lat="42.7380988" lon="11.8529419"><ele>430.3333333333333</ele><time>2026-04-11T08:50:32.448Z</time></trkpt><trkpt lat="42.7380589" lon="11.8528531"><ele>431.0</ele><time>2026-04-11T08:50:33.434Z</time></trkpt><trkpt lat="42.7380268" lon="11.8527696"><ele>431.0</ele><time>2026-04-11T08:50:34.437Z</time></trkpt><trkpt lat="42.7380345" lon="11.8526553"><ele>431.0</ele><time>2026-04-11T08:50:35.444Z</time></trkpt><trkpt lat="42.738056" lon="11.8525274"><ele>431.0</ele><time>2026-04-11T08:50:36.445Z</time></trkpt><trkpt lat="42.7381077" lon="11.8523905"><ele>431.0</ele><time>2026-04-11T08:50:37.448Z</time></trkpt><trkpt lat="42.7381861" lon="11.8522812"><ele>431.0</ele><time>2026-04-11T08:50:38.435Z</time></trkpt><trkpt lat="42.7382841" lon="11.8521864"><ele>430.49999999999994</ele><time>2026-04-11T08:50:39.455Z</time></trkpt><trkpt lat="42.7383668" lon="11.8521488"><ele>430.0</ele><time>2026-04-11T08:50:40.427Z</time></trkpt><trkpt lat="42.7384455" lon="11.8520841"><ele>429.5</ele><time>2026-04-11T08:50:41.436Z</time></trkpt><trkpt lat="42.7385319" lon="11.8520213"><ele>429.0</ele><time>2026-04-11T08:50:42.427Z</time></trkpt><trkpt lat="42.7386157" lon="11.8519746"><ele>428.49999999999994</ele><time>2026-04-11T08:50:43.432Z</time></trkpt><trkpt lat="42.7386929" lon="11.8519382"><ele>428.0</ele><time>2026-04-11T08:50:44.427Z</time></trkpt><trkpt lat="42.7387073" lon="11.8518129"><ele>430.0</ele><time>2026-04-11T08:50:45.426Z</time></trkpt><trkpt lat="42.738708" lon="11.8516549"><ele>432.0</ele><time>2026-04-11T08:50:46.43Z</time></trkpt><trkpt lat="42.7387123" lon="11.8514861"><ele>434.0</ele><time>2026-04-11T08:50:47.426Z</time></trkpt><trkpt lat="42.7387082" lon="11.8512949"><ele>436.0</ele><time>2026-04-11T08:50:48.436Z</time></trkpt><trkpt lat="42.7387076" lon="11.8511332"><ele>436.0</ele><time>2026-04-11T08:50:49.435Z</time></trkpt><trkpt lat="42.7387163" lon="11.8509702"><ele>436.0</ele><time>2026-04-11T08:50:50.43Z</time></trkpt><trkpt lat="42.7387204" lon="11.8508224"><ele>436.0</ele><time>2026-04-11T08:50:51.431Z</time></trkpt><trkpt lat="42.7387069" lon="11.8506933"><ele>436.0</ele><time>2026-04-11T08:50:52.442Z</time></trkpt><trkpt lat="42.7386896" lon="11.8505681"><ele>436.0</ele><time>2026-04-11T08:50:53.452Z</time></trkpt><trkpt lat="42.73867" lon="11.8504381"><ele>436.20000000000005</ele><time>2026-04-11T08:50:54.443Z</time></trkpt><trkpt lat="42.7386713" lon="11.8503011"><ele>436.40000000000003</ele><time>2026-04-11T08:50:55.452Z</time></trkpt><trkpt lat="42.7386724" lon="11.8501686"><ele>436.6</ele><time>2026-04-11T08:50:56.46Z</time></trkpt><trkpt lat="42.7386569" lon="11.850036"><ele>436.8</ele><time>2026-04-11T08:50:57.463Z</time></trkpt><trkpt lat="42.7386376" lon="11.8499123"><ele>437.0</ele><time>2026-04-11T08:50:58.462Z</time></trkpt><trkpt lat="42.738621" lon="11.8497955"><ele>436.99999999999994</ele><time>2026-04-11T08:50:59.453Z</time></trkpt><trkpt lat="42.7386181" lon="11.8496834"><ele>437.0</ele><time>2026-04-11T08:51:00.451Z</time></trkpt><trkpt lat="42.7386344" lon="11.8495858"><ele>437.0</ele><time>2026-04-11T08:51:01.46Z</time></trkpt><trkpt lat="42.7386516" lon="11.849485"><ele>437.0</ele><time>2026-04-11T08:51:02.453Z</time></trkpt><trkpt lat="42.7387035" lon="11.8494268"><ele>436.99999999999994</ele><time>2026-04-11T08:51:03.45Z</time></trkpt><trkpt lat="42.7387772" lon="11.8493761"><ele>437.0</ele><time>2026-04-11T08:51:04.446Z</time></trkpt><trkpt lat="42.7388839" lon="11.8493698"><ele>437.0</ele><time>2026-04-11T08:51:05.438Z</time></trkpt><trkpt lat="42.7390032" lon="11.8493877"><ele>437.0</ele><time>2026-04-11T08:51:06.443Z</time></trkpt><trkpt lat="42.7391338" lon="11.8494207"><ele>437.0</ele><time>2026-04-11T08:51:07.449Z</time></trkpt><trkpt lat="42.7392521" lon="11.8494417"><ele>437.0</ele><time>2026-04-11T08:51:08.451Z</time></trkpt><trkpt lat="42.7393675" lon="11.8494547"><ele>436.8333333333333</ele><time>2026-04-11T08:51:09.446Z</time></trkpt><trkpt lat="42.7394505" lon="11.849442"><ele>436.66666666666663</ele><time>2026-04-11T08:51:10.439Z</time></trkpt><trkpt lat="42.7395247" lon="11.8494348"><ele>436.5</ele><time>2026-04-11T08:51:11.441Z</time></trkpt><trkpt lat="42.7395851" lon="11.8494063"><ele>436.33333333333337</ele><time>2026-04-11T08:51:12.434Z</time></trkpt><trkpt lat="42.7396623" lon="11.8493211"><ele>436.1666666666667</ele><time>2026-04-11T08:51:14.435Z</time></trkpt><trkpt lat="42.7396612" lon="11.8492333"><ele>436.0</ele><time>2026-04-11T08:51:15.435Z</time></trkpt><trkpt lat="42.7396306" lon="11.8491254"><ele>435.6666666666667</ele><time>2026-04-11T08:51:16.445Z</time></trkpt><trkpt lat="42.739627" lon="11.8490233"><ele>435.33333333333337</ele><time>2026-04-11T08:51:17.439Z</time></trkpt><trkpt lat="42.7396003" lon="11.8489021"><ele>435.0</ele><time>2026-04-11T08:51:18.443Z</time></trkpt><trkpt lat="42.7395663" lon="11.8487751"><ele>434.66666666666663</ele><time>2026-04-11T08:51:19.438Z</time></trkpt><trkpt lat="42.7395405" lon="11.8486646"><ele>434.3333333333333</ele><time>2026-04-11T08:51:20.436Z</time></trkpt><trkpt lat="42.7395147" lon="11.8485386"><ele>434.0</ele><time>2026-04-11T08:51:21.44Z</time></trkpt><trkpt lat="42.7395343" lon="11.8484525"><ele>434.0</ele><time>2026-04-11T08:51:22.442Z</time></trkpt><trkpt lat="42.7396624" lon="11.8483986"><ele>434.0</ele><time>2026-04-11T08:51:24.431Z</time></trkpt><trkpt lat="42.7397468" lon="11.8484125"><ele>434.0</ele><time>2026-04-11T08:51:25.43Z</time></trkpt><trkpt lat="42.7398542" lon="11.8484944"><ele>434.0</ele><time>2026-04-11T08:51:26.428Z</time></trkpt><trkpt lat="42.7399875" lon="11.8485841"><ele>433.75</ele><time>2026-04-11T08:51:27.423Z</time></trkpt><trkpt lat="42.7401145" lon="11.8486556"><ele>433.5</ele><time>2026-04-11T08:51:28.428Z</time></trkpt><trkpt lat="42.7402302" lon="11.8487257"><ele>433.25</ele><time>2026-04-11T08:51:29.433Z</time></trkpt><trkpt lat="42.7403578" lon="11.8487638"><ele>433.0</ele><time>2026-04-11T08:51:30.427Z</time></trkpt><trkpt lat="42.7405059" lon="11.8488144"><ele>432.33333333333337</ele><time>2026-04-11T08:51:31.421Z</time></trkpt><trkpt lat="42.7406748" lon="11.8488158"><ele>431.66666666666663</ele><time>2026-04-11T08:51:32.441Z</time></trkpt><trkpt lat="42.7408779" lon="11.8488481"><ele>431.0</ele><time>2026-04-11T08:51:33.427Z</time></trkpt><trkpt lat="42.7410908" lon="11.8488725"><ele>430.3333333333333</ele><time>2026-04-11T08:51:34.425Z</time></trkpt><trkpt lat="42.7412769" lon="11.8488982"><ele>429.66666666666663</ele><time>2026-04-11T08:51:35.422Z</time></trkpt><trkpt lat="42.7414629" lon="11.8488974"><ele>429.0</ele><time>2026-04-11T08:51:36.421Z</time></trkpt><trkpt lat="42.7416473" lon="11.8489297"><ele>429.0</ele><time>2026-04-11T08:51:37.426Z</time></trkpt><trkpt lat="42.7418293" lon="11.8490114"><ele>429.0</ele><time>2026-04-11T08:51:38.422Z</time></trkpt><trkpt lat="42.7419731" lon="11.8490633"><ele>429.0</ele><time>2026-04-11T08:51:39.423Z</time></trkpt><trkpt lat="42.7421323" lon="11.8490934"><ele>428.25</ele><time>2026-04-11T08:51:40.427Z</time></trkpt><trkpt lat="42.7422802" lon="11.8491328"><ele>427.5</ele><time>2026-04-11T08:51:41.422Z</time></trkpt><trkpt lat="42.7424129" lon="11.8491932"><ele>426.75</ele><time>2026-04-11T08:51:42.431Z</time></trkpt><trkpt lat="42.7425366" lon="11.8492211"><ele>426.0</ele><time>2026-04-11T08:51:43.431Z</time></trkpt><trkpt lat="42.7426567" lon="11.8492542"><ele>424.5</ele><time>2026-04-11T08:51:44.429Z</time></trkpt><trkpt lat="42.7427586" lon="11.8493055"><ele>423.0</ele><time>2026-04-11T08:51:45.428Z</time></trkpt><trkpt lat="42.7429077" lon="11.8493457"><ele>421.5</ele><time>2026-04-11T08:51:46.436Z</time></trkpt><trkpt lat="42.7430085" lon="11.8493676"><ele>420.0</ele><time>2026-04-11T08:51:47.429Z</time></trkpt><trkpt lat="42.743101" lon="11.8494278"><ele>420.0</ele><time>2026-04-11T08:51:48.436Z</time></trkpt><trkpt lat="42.7432018" lon="11.8494172"><ele>420.0</ele><time>2026-04-11T08:51:49.428Z</time></trkpt><trkpt lat="42.7432757" lon="11.849437"><ele>420.0</ele><time>2026-04-11T08:51:50.426Z</time></trkpt><trkpt lat="42.7434404" lon="11.8493648"><ele>420.0</ele><time>2026-04-11T08:51:51.428Z</time></trkpt><trkpt lat="42.7436242" lon="11.8492737"><ele>419.75</ele><time>2026-04-11T08:51:52.423Z</time></trkpt><trkpt lat="42.7437716" lon="11.8492285"><ele>419.5</ele><time>2026-04-11T08:51:53.42Z</time></trkpt><trkpt lat="42.7438805" lon="11.8492117"><ele>419.25</ele><time>2026-04-11T08:51:54.422Z</time></trkpt><trkpt lat="42.7439936" lon="11.8491784"><ele>419.0</ele><time>2026-04-11T08:51:55.423Z</time></trkpt><trkpt lat="42.7441531" lon="11.8491235"><ele>419.0</ele><time>2026-04-11T08:51:56.429Z</time></trkpt><trkpt lat="42.7442683" lon="11.8490994"><ele>419.0</ele><time>2026-04-11T08:51:57.423Z</time></trkpt><trkpt lat="42.7443524" lon="11.849041"><ele>419.0</ele><time>2026-04-11T08:51:58.423Z</time></trkpt><trkpt lat="42.7444547" lon="11.8489726"><ele>419.0</ele><time>2026-04-11T08:51:59.431Z</time></trkpt><trkpt lat="42.7445443" lon="11.8488924"><ele>419.0</ele><time>2026-04-11T08:52:00.436Z</time></trkpt><trkpt lat="42.7446148" lon="11.8488143"><ele>417.99999999999994</ele><time>2026-04-11T08:52:01.441Z</time></trkpt><trkpt lat="42.7446851" lon="11.8487259"><ele>417.0</ele><time>2026-04-11T08:52:02.441Z</time></trkpt><trkpt lat="42.7447565" lon="11.8486551"><ele>416.0</ele><time>2026-04-11T08:52:03.457Z</time></trkpt><trkpt lat="42.7448319" lon="11.8486089"><ele>415.0</ele><time>2026-04-11T08:52:04.433Z</time></trkpt><trkpt lat="42.7449173" lon="11.8485848"><ele>413.99999999999994</ele><time>2026-04-11T08:52:05.439Z</time></trkpt><trkpt lat="42.7450045" lon="11.8486279"><ele>413.0</ele><time>2026-04-11T08:52:06.438Z</time></trkpt><trkpt lat="42.7451009" lon="11.848665"><ele>413.0</ele><time>2026-04-11T08:52:07.439Z</time></trkpt><trkpt lat="42.7452095" lon="11.8486904"><ele>413.0</ele><time>2026-04-11T08:52:08.441Z</time></trkpt><trkpt lat="42.7453121" lon="11.848694"><ele>413.0</ele><time>2026-04-11T08:52:09.442Z</time></trkpt><trkpt lat="42.7453856" lon="11.8487074"><ele>413.0</ele><time>2026-04-11T08:52:10.449Z</time></trkpt><trkpt lat="42.7454683" lon="11.8486857"><ele>413.0</ele><time>2026-04-11T08:52:11.44Z</time></trkpt><trkpt lat="42.7455628" lon="11.8486209"><ele>411.75</ele><time>2026-04-11T08:52:12.441Z</time></trkpt><trkpt lat="42.7456816" lon="11.8485865"><ele>410.5</ele><time>2026-04-11T08:52:13.434Z</time></trkpt><trkpt lat="42.7458055" lon="11.8485452"><ele>409.25</ele><time>2026-04-11T08:52:14.447Z</time></trkpt><trkpt lat="42.7459369" lon="11.8485406"><ele>408.0</ele><time>2026-04-11T08:52:15.442Z</time></trkpt><trkpt lat="42.7460634" lon="11.8485499"><ele>407.59999999999997</ele><time>2026-04-11T08:52:16.44Z</time></trkpt><trkpt lat="42.7461819" lon="11.8485748"><ele>407.2</ele><time>2026-04-11T08:52:17.452Z</time></trkpt><trkpt lat="42.7463015" lon="11.8486014"><ele>406.8</ele><time>2026-04-11T08:52:18.449Z</time></trkpt><trkpt lat="42.7464082" lon="11.8486403"><ele>406.4</ele><time>2026-04-11T08:52:19.438Z</time></trkpt><trkpt lat="42.7464973" lon="11.8486889"><ele>406.0</ele><time>2026-04-11T08:52:20.443Z</time></trkpt><trkpt lat="42.746566" lon="11.8487916"><ele>406.0</ele><time>2026-04-11T08:52:21.435Z</time></trkpt><trkpt lat="42.7466082" lon="11.8489386"><ele>406.0</ele><time>2026-04-11T08:52:22.442Z</time></trkpt><trkpt lat="42.7466344" lon="11.8490941"><ele>406.0</ele><time>2026-04-11T08:52:23.431Z</time></trkpt><trkpt lat="42.7466403" lon="11.8492798"><ele>406.0</ele><time>2026-04-11T08:52:24.432Z</time></trkpt><trkpt lat="42.7466255" lon="11.8494816"><ele>406.5</ele><time>2026-04-11T08:52:25.433Z</time></trkpt><trkpt lat="42.7466387" lon="11.8496684"><ele>407.0</ele><time>2026-04-11T08:52:26.433Z</time></trkpt><trkpt lat="42.7466493" lon="11.8498689"><ele>407.5</ele><time>2026-04-11T08:52:27.436Z</time></trkpt><trkpt lat="42.7467057" lon="11.8500266"><ele>408.0</ele><time>2026-04-11T08:52:28.438Z</time></trkpt><trkpt lat="42.7467841" lon="11.8501561"><ele>409.79999999999995</ele><time>2026-04-11T08:52:29.439Z</time></trkpt><trkpt lat="42.7468716" lon="11.8502652"><ele>411.6</ele><time>2026-04-11T08:52:30.431Z</time></trkpt><trkpt lat="42.7469626" lon="11.8503339"><ele>413.4</ele><time>2026-04-11T08:52:31.427Z</time></trkpt><trkpt lat="42.7470567" lon="11.850368"><ele>415.20000000000005</ele><time>2026-04-11T08:52:32.433Z</time></trkpt><trkpt lat="42.7471682" lon="11.850329"><ele>417.0</ele><time>2026-04-11T08:52:33.425Z</time></trkpt><trkpt lat="42.7472891" lon="11.8502708"><ele>417.25</ele><time>2026-04-11T08:52:34.444Z</time></trkpt><trkpt lat="42.7474148" lon="11.8502183"><ele>417.5</ele><time>2026-04-11T08:52:35.423Z</time></trkpt><trkpt lat="42.7475243" lon="11.8501655"><ele>417.75</ele><time>2026-04-11T08:52:36.431Z</time></trkpt><trkpt lat="42.7476399" lon="11.8501587"><ele>418.0</ele><time>2026-04-11T08:52:37.429Z</time></trkpt><trkpt lat="42.7477363" lon="11.8501899"><ele>415.75</ele><time>2026-04-11T08:52:38.423Z</time></trkpt><trkpt lat="42.7478315" lon="11.8502662"><ele>413.5</ele><time>2026-04-11T08:52:39.433Z</time></trkpt><trkpt lat="42.7479251" lon="11.8503556"><ele>411.25</ele><time>2026-04-11T08:52:40.43Z</time></trkpt><trkpt lat="42.748034" lon="11.8504677"><ele>409.0</ele><time>2026-04-11T08:52:41.423Z</time></trkpt><trkpt lat="42.7481303" lon="11.8505445"><ele>409.0</ele><time>2026-04-11T08:52:42.435Z</time></trkpt><trkpt lat="42.7482332" lon="11.8506233"><ele>409.0</ele><time>2026-04-11T08:52:43.435Z</time></trkpt><trkpt lat="42.7483454" lon="11.8506811"><ele>409.0</ele><time>2026-04-11T08:52:44.443Z</time></trkpt><trkpt lat="42.7484649" lon="11.8507552"><ele>409.0</ele><time>2026-04-11T08:52:45.443Z</time></trkpt><trkpt lat="42.7485854" lon="11.8508282"><ele>408.4</ele><time>2026-04-11T08:52:46.442Z</time></trkpt><trkpt lat="42.7487036" lon="11.8509069"><ele>407.79999999999995</ele><time>2026-04-11T08:52:47.438Z</time></trkpt><trkpt lat="42.7488086" lon="11.8509733"><ele>407.20000000000005</ele><time>2026-04-11T08:52:48.442Z</time></trkpt><trkpt lat="42.7488913" lon="11.8510365"><ele>406.6</ele><time>2026-04-11T08:52:49.444Z</time></trkpt><trkpt lat="42.7489897" lon="11.8510896"><ele>406.0</ele><time>2026-04-11T08:52:50.445Z</time></trkpt><trkpt lat="42.7491243" lon="11.8511209"><ele>406.0</ele><time>2026-04-11T08:52:51.453Z</time></trkpt><trkpt lat="42.7492577" lon="11.851149"><ele>406.0</ele><time>2026-04-11T08:52:52.437Z</time></trkpt><trkpt lat="42.7494007" lon="11.8511685"><ele>406.0</ele><time>2026-04-11T08:52:53.44Z</time></trkpt><trkpt lat="42.7495547" lon="11.851202"><ele>406.0</ele><time>2026-04-11T08:52:54.442Z</time></trkpt><trkpt lat="42.7496829" lon="11.8512306"><ele>404.8</ele><time>2026-04-11T08:52:55.441Z</time></trkpt><trkpt lat="42.7497973" lon="11.8512511"><ele>403.6</ele><time>2026-04-11T08:52:56.437Z</time></trkpt><trkpt lat="42.7498988" lon="11.8513049"><ele>402.4</ele><time>2026-04-11T08:52:57.437Z</time></trkpt><trkpt lat="42.7500047" lon="11.8513342"><ele>401.2</ele><time>2026-04-11T08:52:58.445Z</time></trkpt><trkpt lat="42.7500928" lon="11.8513784"><ele>400.0</ele><time>2026-04-11T08:52:59.434Z</time></trkpt><trkpt lat="42.7501738" lon="11.8514195"><ele>399.33333333333337</ele><time>2026-04-11T08:53:00.439Z</time></trkpt><trkpt lat="42.7502378" lon="11.8514534"><ele>398.6666666666667</ele><time>2026-04-11T08:53:01.427Z</time></trkpt><trkpt lat="42.7503135" lon="11.8515023"><ele>398.0</ele><time>2026-04-11T08:53:03.439Z</time></trkpt><trkpt lat="42.7503868" lon="11.851497"><ele>397.33333333333337</ele><time>2026-04-11T08:53:09.45Z</time></trkpt><trkpt lat="42.7504409" lon="11.8514103"><ele>396.6666666666667</ele><time>2026-04-11T08:53:11.462Z</time></trkpt><trkpt lat="42.7505044" lon="11.8512953"><ele>396.0</ele><time>2026-04-11T08:53:13.462Z</time></trkpt><trkpt lat="42.750551" lon="11.8512145"><ele>396.0</ele><time>2026-04-11T08:53:14.455Z</time></trkpt><trkpt lat="42.7506031" lon="11.8511175"><ele>396.0</ele><time>2026-04-11T08:53:15.46Z</time></trkpt><trkpt lat="42.7506612" lon="11.8510179"><ele>396.0</ele><time>2026-04-11T08:53:16.451Z</time></trkpt><trkpt lat="42.750725" lon="11.8509064"><ele>396.0</ele><time>2026-04-11T08:53:17.443Z</time></trkpt><trkpt lat="42.7507926" lon="11.8507764"><ele>396.0</ele><time>2026-04-11T08:53:18.45Z</time></trkpt><trkpt lat="42.750872" lon="11.8506379"><ele>396.0</ele><time>2026-04-11T08:53:19.446Z</time></trkpt><trkpt lat="42.7509557" lon="11.8504845"><ele>396.0</ele><time>2026-04-11T08:53:20.435Z</time></trkpt><trkpt lat="42.7510487" lon="11.8503224"><ele>396.0</ele><time>2026-04-11T08:53:21.436Z</time></trkpt><trkpt lat="42.7511458" lon="11.8501456"><ele>395.66666666666663</ele><time>2026-04-11T08:53:22.434Z</time></trkpt><trkpt lat="42.7512212" lon="11.8499647"><ele>395.3333333333333</ele><time>2026-04-11T08:53:23.445Z</time></trkpt><trkpt lat="42.7513012" lon="11.8497538"><ele>395.0</ele><time>2026-04-11T08:53:24.449Z</time></trkpt><trkpt lat="42.751364" lon="11.8495485"><ele>395.0</ele><time>2026-04-11T08:53:25.445Z</time></trkpt><trkpt lat="42.7514369" lon="11.8493579"><ele>395.0</ele><time>2026-04-11T08:53:26.446Z</time></trkpt><trkpt lat="42.7514874" lon="11.8492076"><ele>395.0</ele><time>2026-04-11T08:53:27.437Z</time></trkpt><trkpt lat="42.7515767" lon="11.8490794"><ele>395.0</ele><time>2026-04-11T08:53:28.44Z</time></trkpt><trkpt lat="42.7516906" lon="11.848978"><ele>395.75</ele><time>2026-04-11T08:53:29.442Z</time></trkpt><trkpt lat="42.7518253" lon="11.8489046"><ele>396.5</ele><time>2026-04-11T08:53:30.434Z</time></trkpt><trkpt lat="42.7519235" lon="11.8488128"><ele>397.25</ele><time>2026-04-11T08:53:31.43Z</time></trkpt><trkpt lat="42.7520344" lon="11.848734"><ele>398.0</ele><time>2026-04-11T08:53:32.438Z</time></trkpt><trkpt lat="42.7521293" lon="11.8486268"><ele>398.0</ele><time>2026-04-11T08:53:33.445Z</time></trkpt><trkpt lat="42.7522064" lon="11.8485198"><ele>398.0</ele><time>2026-04-11T08:53:34.44Z</time></trkpt><trkpt lat="42.7522756" lon="11.8484322"><ele>398.0</ele><time>2026-04-11T08:53:35.442Z</time></trkpt><trkpt lat="42.7523453" lon="11.8483703"><ele>398.0</ele><time>2026-04-11T08:53:36.449Z</time></trkpt><trkpt lat="42.7524358" lon="11.8483236"><ele>398.0</ele><time>2026-04-11T08:53:37.44Z</time></trkpt><trkpt lat="42.7525478" lon="11.8483219"><ele>398.75</ele><time>2026-04-11T08:53:38.443Z</time></trkpt><trkpt lat="42.7526626" lon="11.8483694"><ele>399.5</ele><time>2026-04-11T08:53:39.439Z</time></trkpt><trkpt lat="42.752784" lon="11.8484643"><ele>400.25</ele><time>2026-04-11T08:53:40.434Z</time></trkpt><trkpt lat="42.7528892" lon="11.8486084"><ele>401.0</ele><time>2026-04-11T08:53:41.446Z</time></trkpt><trkpt lat="42.7529803" lon="11.8487615"><ele>401.75</ele><time>2026-04-11T08:53:42.445Z</time></trkpt><trkpt lat="42.7530845" lon="11.848905"><ele>402.5</ele><time>2026-04-11T08:53:43.455Z</time></trkpt><trkpt lat="42.7531899" lon="11.849042"><ele>403.25</ele><time>2026-04-11T08:53:44.451Z</time></trkpt><trkpt lat="42.7532939" lon="11.8491653"><ele>404.0</ele><time>2026-04-11T08:53:45.452Z</time></trkpt><trkpt lat="42.7534044" lon="11.8492761"><ele>404.25</ele><time>2026-04-11T08:53:46.461Z</time></trkpt><trkpt lat="42.7535088" lon="11.8494024"><ele>404.5</ele><time>2026-04-11T08:53:47.46Z</time></trkpt><trkpt lat="42.7535964" lon="11.8495346"><ele>404.75</ele><time>2026-04-11T08:53:48.462Z</time></trkpt><trkpt lat="42.7536959" lon="11.8496829"><ele>405.0</ele><time>2026-04-11T08:53:49.457Z</time></trkpt><trkpt lat="42.7537956" lon="11.8498353"><ele>405.0</ele><time>2026-04-11T08:53:50.466Z</time></trkpt><trkpt lat="42.7539001" lon="11.8500038"><ele>405.0</ele><time>2026-04-11T08:53:51.459Z</time></trkpt><trkpt lat="42.7539999" lon="11.8501623"><ele>405.0</ele><time>2026-04-11T08:53:52.47Z</time></trkpt><trkpt lat="42.7540983" lon="11.8503202"><ele>404.33333333333337</ele><time>2026-04-11T08:53:53.459Z</time></trkpt><trkpt lat="42.754216" lon="11.8504847"><ele>403.6666666666667</ele><time>2026-04-11T08:53:54.467Z</time></trkpt><trkpt lat="42.7543371" lon="11.8506617"><ele>403.0</ele><time>2026-04-11T08:53:55.461Z</time></trkpt><trkpt lat="42.7544421" lon="11.850801"><ele>402.6666666666667</ele><time>2026-04-11T08:53:56.461Z</time></trkpt><trkpt lat="42.7546019" lon="11.8509044"><ele>402.33333333333337</ele><time>2026-04-11T08:53:57.46Z</time></trkpt><trkpt lat="42.7547547" lon="11.851021"><ele>402.0</ele><time>2026-04-11T08:53:58.449Z</time></trkpt><trkpt lat="42.7548914" lon="11.8511341"><ele>402.20000000000005</ele><time>2026-04-11T08:53:59.449Z</time></trkpt><trkpt lat="42.7549714" lon="11.851229"><ele>402.4</ele><time>2026-04-11T08:54:00.456Z</time></trkpt><trkpt lat="42.7550513" lon="11.851322"><ele>402.6</ele><time>2026-04-11T08:54:01.455Z</time></trkpt><trkpt lat="42.7551434" lon="11.8513757"><ele>402.79999999999995</ele><time>2026-04-11T08:54:02.446Z</time></trkpt><trkpt lat="42.7552483" lon="11.8513862"><ele>403.0</ele><time>2026-04-11T08:54:03.424Z</time></trkpt><trkpt lat="42.7553447" lon="11.8513572"><ele>403.0</ele><time>2026-04-11T08:54:04.423Z</time></trkpt><trkpt lat="42.7554308" lon="11.8513162"><ele>403.0</ele><time>2026-04-11T08:54:05.424Z</time></trkpt><trkpt lat="42.7555607" lon="11.8512013"><ele>403.0</ele><time>2026-04-11T08:54:06.425Z</time></trkpt><trkpt lat="42.755661" lon="11.851082"><ele>403.0</ele><time>2026-04-11T08:54:07.432Z</time></trkpt><trkpt lat="42.755732" lon="11.8509386"><ele>402.59999999999997</ele><time>2026-04-11T08:54:08.411Z</time></trkpt><trkpt lat="42.7557799" lon="11.850789"><ele>402.2</ele><time>2026-04-11T08:54:09.407Z</time></trkpt><trkpt lat="42.7558538" lon="11.8506544"><ele>401.8</ele><time>2026-04-11T08:54:10.408Z</time></trkpt><trkpt lat="42.7558927" lon="11.8505439"><ele>401.4</ele><time>2026-04-11T08:54:11.41Z</time></trkpt><trkpt lat="42.7559209" lon="11.8504417"><ele>401.0</ele><time>2026-04-11T08:54:12.405Z</time></trkpt><trkpt lat="42.7558975" lon="11.8503592"><ele>401.0</ele><time>2026-04-11T08:54:13.401Z</time></trkpt><trkpt lat="42.7558367" lon="11.8502176"><ele>401.0</ele><time>2026-04-11T08:54:15.416Z</time></trkpt><trkpt lat="42.755784" lon="11.8501506"><ele>401.0</ele><time>2026-04-11T08:54:16.417Z</time></trkpt><trkpt lat="42.7556868" lon="11.8500694"><ele>401.0</ele><time>2026-04-11T08:54:17.42Z</time></trkpt><trkpt lat="42.7556235" lon="11.8499609"><ele>401.0</ele><time>2026-04-11T08:54:18.425Z</time></trkpt><trkpt lat="42.7556074" lon="11.8498564"><ele>396.6</ele><time>2026-04-11T08:54:19.423Z</time></trkpt><trkpt lat="42.755644" lon="11.849746"><ele>392.20000000000005</ele><time>2026-04-11T08:54:20.428Z</time></trkpt><trkpt lat="42.75567" lon="11.8496324"><ele>387.79999999999995</ele><time>2026-04-11T08:54:21.426Z</time></trkpt><trkpt lat="42.7556693" lon="11.849496"><ele>383.4</ele><time>2026-04-11T08:54:22.429Z</time></trkpt><trkpt lat="42.7556267" lon="11.8493696"><ele>379.0</ele><time>2026-04-11T08:54:23.437Z</time></trkpt><trkpt lat="42.7555501" lon="11.8492421"><ele>376.4</ele><time>2026-04-11T08:54:24.43Z</time></trkpt><trkpt lat="42.7554642" lon="11.8491258"><ele>373.79999999999995</ele><time>2026-04-11T08:54:25.427Z</time></trkpt><trkpt lat="42.7553951" lon="11.8490263"><ele>371.20000000000005</ele><time>2026-04-11T08:54:26.44Z</time></trkpt><trkpt lat="42.7553265" lon="11.8489188"><ele>368.6</ele><time>2026-04-11T08:54:27.433Z</time></trkpt><trkpt lat="42.7552698" lon="11.8488245"><ele>366.0</ele><time>2026-04-11T08:54:28.437Z</time></trkpt><trkpt lat="42.7552874" lon="11.8486489"><ele>366.0</ele><time>2026-04-11T08:54:30.434Z</time></trkpt><trkpt lat="42.7553723" lon="11.8485896"><ele>366.0</ele><time>2026-04-11T08:54:31.433Z</time></trkpt><trkpt lat="42.7554689" lon="11.8485708"><ele>366.0</ele><time>2026-04-11T08:54:32.431Z</time></trkpt><trkpt lat="42.7556009" lon="11.8485902"><ele>366.0</ele><time>2026-04-11T08:54:33.424Z</time></trkpt><trkpt lat="42.7557495" lon="11.8486686"><ele>366.0</ele><time>2026-04-11T08:54:34.432Z</time></trkpt><trkpt lat="42.7558817" lon="11.8487891"><ele>366.0</ele><time>2026-04-11T08:54:35.434Z</time></trkpt><trkpt lat="42.7560403" lon="11.8489144"><ele>366.0</ele><time>2026-04-11T08:54:36.43Z</time></trkpt><trkpt lat="42.756174" lon="11.8490362"><ele>366.0</ele><time>2026-04-11T08:54:37.435Z</time></trkpt><trkpt lat="42.7563041" lon="11.8491374"><ele>366.0</ele><time>2026-04-11T08:54:38.457Z</time></trkpt><trkpt lat="42.7564288" lon="11.8492066"><ele>366.0</ele><time>2026-04-11T08:54:39.438Z</time></trkpt><trkpt lat="42.7565782" lon="11.8492567"><ele>366.0</ele><time>2026-04-11T08:54:40.443Z</time></trkpt><trkpt lat="42.7566994" lon="11.8493005"><ele>366.0</ele><time>2026-04-11T08:54:41.444Z</time></trkpt><trkpt lat="42.7568233" lon="11.8493312"><ele>366.0</ele><time>2026-04-11T08:54:42.444Z</time></trkpt><trkpt lat="42.756932" lon="11.8493667"><ele>366.0</ele><time>2026-04-11T08:54:43.445Z</time></trkpt><trkpt lat="42.7570386" lon="11.8493762"><ele>366.0</ele><time>2026-04-11T08:54:44.437Z</time></trkpt><trkpt lat="42.7571449" lon="11.849349"><ele>360.4</ele><time>2026-04-11T08:54:45.434Z</time></trkpt><trkpt lat="42.7572433" lon="11.8492601"><ele>354.8</ele><time>2026-04-11T08:54:46.429Z</time></trkpt><trkpt lat="42.7573359" lon="11.8491701"><ele>349.2</ele><time>2026-04-11T08:54:47.443Z</time></trkpt><trkpt lat="42.7573993" lon="11.8490637"><ele>343.59999999999997</ele><time>2026-04-11T08:54:48.437Z</time></trkpt><trkpt lat="42.7574528" lon="11.8489588"><ele>338.0</ele><time>2026-04-11T08:54:49.422Z</time></trkpt><trkpt lat="42.7574612" lon="11.8488379"><ele>338.0</ele><time>2026-04-11T08:54:50.419Z</time></trkpt><trkpt lat="42.7574271" lon="11.848721"><ele>338.0</ele><time>2026-04-11T08:54:51.42Z</time></trkpt><trkpt lat="42.7573755" lon="11.848557"><ele>338.0</ele><time>2026-04-11T08:54:52.42Z</time></trkpt><trkpt lat="42.7573047" lon="11.8483695"><ele>338.0</ele><time>2026-04-11T08:54:53.419Z</time></trkpt><trkpt lat="42.7572069" lon="11.84821"><ele>336.33333333333337</ele><time>2026-04-11T08:54:54.417Z</time></trkpt><trkpt lat="42.7570543" lon="11.848053"><ele>334.6666666666667</ele><time>2026-04-11T08:54:55.414Z</time></trkpt><trkpt lat="42.7569007" lon="11.8478923"><ele>333.0</ele><time>2026-04-11T08:54:56.419Z</time></trkpt><trkpt lat="42.7567376" lon="11.8477532"><ele>331.3333333333333</ele><time>2026-04-11T08:54:57.42Z</time></trkpt><trkpt lat="42.756553" lon="11.8476357"><ele>329.66666666666663</ele><time>2026-04-11T08:54:58.426Z</time></trkpt><trkpt lat="42.7564105" lon="11.8475353"><ele>328.0</ele><time>2026-04-11T08:54:59.425Z</time></trkpt><trkpt lat="42.7563019" lon="11.8474913"><ele>328.0</ele><time>2026-04-11T08:55:00.436Z</time></trkpt><trkpt lat="42.7561836" lon="11.8474257"><ele>328.0</ele><time>2026-04-11T08:55:01.433Z</time></trkpt><trkpt lat="42.7560594" lon="11.8473788"><ele>328.0</ele><time>2026-04-11T08:55:02.44Z</time></trkpt><trkpt lat="42.7559613" lon="11.8473198"><ele>328.0</ele><time>2026-04-11T08:55:03.438Z</time></trkpt><trkpt lat="42.7558496" lon="11.8472054"><ele>327.59999999999997</ele><time>2026-04-11T08:55:04.431Z</time></trkpt><trkpt lat="42.7557473" lon="11.8471108"><ele>327.2</ele><time>2026-04-11T08:55:05.437Z</time></trkpt><trkpt lat="42.7556592" lon="11.8470233"><ele>326.8</ele><time>2026-04-11T08:55:06.428Z</time></trkpt><trkpt lat="42.7555904" lon="11.8469363"><ele>326.4</ele><time>2026-04-11T08:55:07.425Z</time></trkpt><trkpt lat="42.7555295" lon="11.8468327"><ele>326.0</ele><time>2026-04-11T08:55:08.426Z</time></trkpt><trkpt lat="42.7554718" lon="11.8467076"><ele>326.0</ele><time>2026-04-11T08:55:09.433Z</time></trkpt><trkpt lat="42.7554398" lon="11.8465305"><ele>326.0</ele><time>2026-04-11T08:55:10.425Z</time></trkpt><trkpt lat="42.7554147" lon="11.8463382"><ele>326.0</ele><time>2026-04-11T08:55:11.426Z</time></trkpt><trkpt lat="42.7553864" lon="11.8461484"><ele>326.0</ele><time>2026-04-11T08:55:12.436Z</time></trkpt><trkpt lat="42.7553464" lon="11.8459849"><ele>325.0</ele><time>2026-04-11T08:55:13.425Z</time></trkpt><trkpt lat="42.7553097" lon="11.8458287"><ele>324.0</ele><time>2026-04-11T08:55:14.42Z</time></trkpt><trkpt lat="42.7552887" lon="11.8457164"><ele>323.0</ele><time>2026-04-11T08:55:15.412Z</time></trkpt><trkpt lat="42.7553181" lon="11.8455823"><ele>322.0</ele><time>2026-04-11T08:55:17.424Z</time></trkpt><trkpt lat="42.7553929" lon="11.845527"><ele>321.0</ele><time>2026-04-11T08:55:18.427Z</time></trkpt><trkpt lat="42.7554854" lon="11.8455368"><ele>321.0</ele><time>2026-04-11T08:55:19.421Z</time></trkpt><trkpt lat="42.7556156" lon="11.8455779"><ele>321.0</ele><time>2026-04-11T08:55:20.426Z</time></trkpt><trkpt lat="42.755744" lon="11.8456145"><ele>321.0</ele><time>2026-04-11T08:55:21.424Z</time></trkpt><trkpt lat="42.7558798" lon="11.845633"><ele>321.0</ele><time>2026-04-11T08:55:22.433Z</time></trkpt><trkpt lat="42.7560011" lon="11.8456516"><ele>317.75</ele><time>2026-04-11T08:55:23.43Z</time></trkpt><trkpt lat="42.7561317" lon="11.8456641"><ele>314.5</ele><time>2026-04-11T08:55:24.432Z</time></trkpt><trkpt lat="42.7562628" lon="11.8456641"><ele>311.25</ele><time>2026-04-11T08:55:25.436Z</time></trkpt><trkpt lat="42.7564035" lon="11.8456631"><ele>308.0</ele><time>2026-04-11T08:55:26.44Z</time></trkpt><trkpt lat="42.7565351" lon="11.8456664"><ele>308.0</ele><time>2026-04-11T08:55:27.442Z</time></trkpt><trkpt lat="42.7566597" lon="11.8456805"><ele>308.0</ele><time>2026-04-11T08:55:28.441Z</time></trkpt><trkpt lat="42.756793" lon="11.8456981"><ele>308.0</ele><time>2026-04-11T08:55:29.444Z</time></trkpt><trkpt lat="42.7569274" lon="11.8457254"><ele>308.0</ele><time>2026-04-11T08:55:30.433Z</time></trkpt><trkpt lat="42.7570585" lon="11.8457546"><ele>305.75</ele><time>2026-04-11T08:55:31.442Z</time></trkpt><trkpt lat="42.7571782" lon="11.8457884"><ele>303.5</ele><time>2026-04-11T08:55:32.444Z</time></trkpt><trkpt lat="42.757301" lon="11.8458197"><ele>301.25</ele><time>2026-04-11T08:55:33.434Z</time></trkpt><trkpt lat="42.7574139" lon="11.8458482"><ele>299.0</ele><time>2026-04-11T08:55:34.426Z</time></trkpt><trkpt lat="42.7575167" lon="11.8458491"><ele>299.0</ele><time>2026-04-11T08:55:35.433Z</time></trkpt><trkpt lat="42.7576187" lon="11.8458379"><ele>299.0</ele><time>2026-04-11T08:55:36.428Z</time></trkpt><trkpt lat="42.7577283" lon="11.8458355"><ele>299.0</ele><time>2026-04-11T08:55:37.426Z</time></trkpt><trkpt lat="42.7578568" lon="11.8458305"><ele>299.0</ele><time>2026-04-11T08:55:38.441Z</time></trkpt><trkpt lat="42.7579819" lon="11.8458365"><ele>298.25</ele><time>2026-04-11T08:55:39.439Z</time></trkpt><trkpt lat="42.7581043" lon="11.8458583"><ele>297.5</ele><time>2026-04-11T08:55:40.456Z</time></trkpt><trkpt lat="42.7582263" lon="11.8458842"><ele>296.75</ele><time>2026-04-11T08:55:41.44Z</time></trkpt><trkpt lat="42.7583389" lon="11.8459083"><ele>296.0</ele><time>2026-04-11T08:55:42.44Z</time></trkpt><trkpt lat="42.7584479" lon="11.8459493"><ele>294.0</ele><time>2026-04-11T08:55:43.442Z</time></trkpt><trkpt lat="42.7585464" lon="11.8460054"><ele>292.0</ele><time>2026-04-11T08:55:44.443Z</time></trkpt><trkpt lat="42.7586414" lon="11.8460662"><ele>290.0</ele><time>2026-04-11T08:55:45.424Z</time></trkpt><trkpt lat="42.7587504" lon="11.8461669"><ele>288.0</ele><time>2026-04-11T08:55:46.437Z</time></trkpt><trkpt lat="42.7588693" lon="11.8462685"><ele>288.0</ele><time>2026-04-11T08:55:47.442Z</time></trkpt><trkpt lat="42.7589953" lon="11.8463755"><ele>288.0</ele><time>2026-04-11T08:55:48.444Z</time></trkpt><trkpt lat="42.7591412" lon="11.8464621"><ele>288.0</ele><time>2026-04-11T08:55:49.437Z</time></trkpt><trkpt lat="42.759257" lon="11.8465606"><ele>288.0</ele><time>2026-04-11T08:55:50.441Z</time></trkpt><trkpt lat="42.7593354" lon="11.8466661"><ele>285.4</ele><time>2026-04-11T08:55:51.435Z</time></trkpt><trkpt lat="42.759436" lon="11.8467384"><ele>282.8</ele><time>2026-04-11T08:55:52.437Z</time></trkpt><trkpt lat="42.759526" lon="11.8468231"><ele>280.2</ele><time>2026-04-11T08:55:53.44Z</time></trkpt><trkpt lat="42.7596209" lon="11.8468906"><ele>277.6</ele><time>2026-04-11T08:55:54.438Z</time></trkpt><trkpt lat="42.7596761" lon="11.8469469"><ele>275.0</ele><time>2026-04-11T08:55:55.43Z</time></trkpt><trkpt lat="42.7597569" lon="11.8470292"><ele>275.0</ele><time>2026-04-11T08:55:57.428Z</time></trkpt><trkpt lat="42.7598027" lon="11.8469417"><ele>275.0</ele><time>2026-04-11T08:56:01.438Z</time></trkpt><trkpt lat="42.7597616" lon="11.846791"><ele>275.0</ele><time>2026-04-11T08:56:03.43Z</time></trkpt><trkpt lat="42.7597258" lon="11.8466924"><ele>275.0</ele><time>2026-04-11T08:56:04.43Z</time></trkpt><trkpt lat="42.759676" lon="11.8465716"><ele>275.0</ele><time>2026-04-11T08:56:05.422Z</time></trkpt><trkpt lat="42.75962" lon="11.8464063"><ele>273.75</ele><time>2026-04-11T08:56:06.423Z</time></trkpt><trkpt lat="42.7595627" lon="11.846266"><ele>272.5</ele><time>2026-04-11T08:56:07.436Z</time></trkpt><trkpt lat="42.7594925" lon="11.8461107"><ele>271.25</ele><time>2026-04-11T08:56:08.437Z</time></trkpt><trkpt lat="42.7594213" lon="11.8459508"><ele>270.0</ele><time>2026-04-11T08:56:09.427Z</time></trkpt><trkpt lat="42.7593231" lon="11.8457889"><ele>274.3333333333333</ele><time>2026-04-11T08:56:10.432Z</time></trkpt><trkpt lat="42.7592163" lon="11.8456269"><ele>278.66666666666663</ele><time>2026-04-11T08:56:11.45Z</time></trkpt><trkpt lat="42.7591147" lon="11.8454294"><ele>283.0</ele><time>2026-04-11T08:56:12.442Z</time></trkpt><trkpt lat="42.7590122" lon="11.8452772"><ele>281.25</ele><time>2026-04-11T08:56:13.451Z</time></trkpt><trkpt lat="42.7589113" lon="11.8451167"><ele>279.5</ele><time>2026-04-11T08:56:14.45Z</time></trkpt><trkpt lat="42.7588173" lon="11.8449677"><ele>277.75</ele><time>2026-04-11T08:56:15.443Z</time></trkpt><trkpt lat="42.7587188" lon="11.8448375"><ele>276.0</ele><time>2026-04-11T08:56:16.446Z</time></trkpt><trkpt lat="42.7586297" lon="11.844743"><ele>276.0</ele><time>2026-04-11T08:56:17.453Z</time></trkpt><trkpt lat="42.7585435" lon="11.8446487"><ele>276.0</ele><time>2026-04-11T08:56:18.456Z</time></trkpt><trkpt lat="42.7584489" lon="11.8445553"><ele>276.0</ele><time>2026-04-11T08:56:19.455Z</time></trkpt><trkpt lat="42.758354" lon="11.8444414"><ele>276.0</ele><time>2026-04-11T08:56:20.446Z</time></trkpt><trkpt lat="42.7582584" lon="11.8443296"><ele>275.5</ele><time>2026-04-11T08:56:21.448Z</time></trkpt><trkpt lat="42.7581568" lon="11.8442036"><ele>275.0</ele><time>2026-04-11T08:56:22.454Z</time></trkpt><trkpt lat="42.7580467" lon="11.844089"><ele>274.5</ele><time>2026-04-11T08:56:23.455Z</time></trkpt><trkpt lat="42.7579455" lon="11.8439697"><ele>274.0</ele><time>2026-04-11T08:56:24.454Z</time></trkpt><trkpt lat="42.7578465" lon="11.8438567"><ele>274.0</ele><time>2026-04-11T08:56:25.453Z</time></trkpt><trkpt lat="42.7577526" lon="11.8437233"><ele>274.0</ele><time>2026-04-11T08:56:26.45Z</time></trkpt><trkpt lat="42.7576542" lon="11.8435807"><ele>274.0</ele><time>2026-04-11T08:56:27.453Z</time></trkpt><trkpt lat="42.7575719" lon="11.8434444"><ele>274.0</ele><time>2026-04-11T08:56:28.453Z</time></trkpt><trkpt lat="42.7575153" lon="11.843294"><ele>273.0</ele><time>2026-04-11T08:56:29.455Z</time></trkpt><trkpt lat="42.7574631" lon="11.8431353"><ele>272.0</ele><time>2026-04-11T08:56:30.444Z</time></trkpt><trkpt lat="42.7574643" lon="11.8429733"><ele>271.0</ele><time>2026-04-11T08:56:31.443Z</time></trkpt><trkpt lat="42.7575051" lon="11.8428089"><ele>270.0</ele><time>2026-04-11T08:56:32.45Z</time></trkpt><trkpt lat="42.757569" lon="11.842644"><ele>267.3333333333333</ele><time>2026-04-11T08:56:33.434Z</time></trkpt><trkpt lat="42.7576711" lon="11.842515"><ele>264.66666666666663</ele><time>2026-04-11T08:56:34.434Z</time></trkpt><trkpt lat="42.7578049" lon="11.8423611"><ele>262.0</ele><time>2026-04-11T08:56:35.432Z</time></trkpt><trkpt lat="42.7579054" lon="11.8422219"><ele>261.0</ele><time>2026-04-11T08:56:36.437Z</time></trkpt><trkpt lat="42.7580223" lon="11.8420745"><ele>260.0</ele><time>2026-04-11T08:56:37.428Z</time></trkpt><trkpt lat="42.7581551" lon="11.8419005"><ele>259.0</ele><time>2026-04-11T08:56:38.441Z</time></trkpt><trkpt lat="42.7582829" lon="11.8417211"><ele>258.66666666666663</ele><time>2026-04-11T08:56:39.433Z</time></trkpt><trkpt lat="42.7584485" lon="11.8415367"><ele>258.3333333333333</ele><time>2026-04-11T08:56:40.43Z</time></trkpt><trkpt lat="42.7585727" lon="11.8413741"><ele>258.0</ele><time>2026-04-11T08:56:41.439Z</time></trkpt><trkpt lat="42.7586898" lon="11.841218"><ele>257.6666666666667</ele><time>2026-04-11T08:56:42.457Z</time></trkpt><trkpt lat="42.7588377" lon="11.8410486"><ele>257.33333333333337</ele><time>2026-04-11T08:56:43.44Z</time></trkpt><trkpt lat="42.7589962" lon="11.8408737"><ele>257.0</ele><time>2026-04-11T08:56:44.431Z</time></trkpt><trkpt lat="42.7591446" lon="11.8406768"><ele>257.0</ele><time>2026-04-11T08:56:45.447Z</time></trkpt><trkpt lat="42.7592733" lon="11.840483"><ele>257.0</ele><time>2026-04-11T08:56:46.452Z</time></trkpt><trkpt lat="42.7593982" lon="11.8402729"><ele>257.0</ele><time>2026-04-11T08:56:47.447Z</time></trkpt><trkpt lat="42.7595122" lon="11.8400466"><ele>258.33333333333337</ele><time>2026-04-11T08:56:48.454Z</time></trkpt><trkpt lat="42.7596317" lon="11.8398149"><ele>259.6666666666667</ele><time>2026-04-11T08:56:49.449Z</time></trkpt><trkpt lat="42.7597267" lon="11.8395783"><ele>261.0</ele><time>2026-04-11T08:56:50.449Z</time></trkpt><trkpt lat="42.7598295" lon="11.8392982"><ele>264.5</ele><time>2026-04-11T08:56:51.449Z</time></trkpt><trkpt lat="42.7599548" lon="11.8390165"><ele>268.0</ele><time>2026-04-11T08:56:52.45Z</time></trkpt><trkpt lat="42.7600844" lon="11.8387399"><ele>268.0</ele><time>2026-04-11T08:56:53.453Z</time></trkpt><trkpt lat="42.7601915" lon="11.8384832"><ele>268.0</ele><time>2026-04-11T08:56:54.441Z</time></trkpt><trkpt lat="42.7602844" lon="11.8382935"><ele>268.0</ele><time>2026-04-11T08:56:55.445Z</time></trkpt><trkpt lat="42.7604232" lon="11.8380695"><ele>271.3333333333333</ele><time>2026-04-11T08:56:56.439Z</time></trkpt><trkpt lat="42.760547" lon="11.8379163"><ele>274.6666666666667</ele><time>2026-04-11T08:56:57.441Z</time></trkpt><trkpt lat="42.760702" lon="11.8378127"><ele>278.0</ele><time>2026-04-11T08:56:58.435Z</time></trkpt><trkpt lat="42.7609001" lon="11.8377751"><ele>280.6666666666667</ele><time>2026-04-11T08:56:59.446Z</time></trkpt><trkpt lat="42.7611008" lon="11.8377573"><ele>283.3333333333333</ele><time>2026-04-11T08:57:00.424Z</time></trkpt><trkpt lat="42.7612709" lon="11.8377469"><ele>286.0</ele><time>2026-04-11T08:57:01.435Z</time></trkpt><trkpt lat="42.7614748" lon="11.8377851"><ele>286.0</ele><time>2026-04-11T08:57:02.436Z</time></trkpt><trkpt lat="42.76168" lon="11.8377988"><ele>286.0</ele><time>2026-04-11T08:57:03.446Z</time></trkpt><trkpt lat="42.7618577" lon="11.8377673"><ele>286.0</ele><time>2026-04-11T08:57:04.435Z</time></trkpt><trkpt lat="42.762053" lon="11.8376494"><ele>288.0</ele><time>2026-04-11T08:57:05.434Z</time></trkpt><trkpt lat="42.762219" lon="11.8375208"><ele>290.0</ele><time>2026-04-11T08:57:06.44Z</time></trkpt><trkpt lat="42.7623601" lon="11.8374019"><ele>292.0</ele><time>2026-04-11T08:57:07.44Z</time></trkpt><trkpt lat="42.7625187" lon="11.837266"><ele>292.0</ele><time>2026-04-11T08:57:08.435Z</time></trkpt><trkpt lat="42.7626925" lon="11.8371575"><ele>292.0</ele><time>2026-04-11T08:57:09.447Z</time></trkpt><trkpt lat="42.7628839" lon="11.8370979"><ele>292.0</ele><time>2026-04-11T08:57:10.437Z</time></trkpt><trkpt lat="42.7630743" lon="11.8370169"><ele>292.0</ele><time>2026-04-11T08:57:11.443Z</time></trkpt><trkpt lat="42.7632784" lon="11.8369493"><ele>292.0</ele><time>2026-04-11T08:57:12.44Z</time></trkpt><trkpt lat="42.7634449" lon="11.8368522"><ele>292.0</ele><time>2026-04-11T08:57:13.468Z</time></trkpt><trkpt lat="42.7636219" lon="11.8367013"><ele>296.0</ele><time>2026-04-11T08:57:14.443Z</time></trkpt><trkpt lat="42.7637805" lon="11.836561"><ele>300.0</ele><time>2026-04-11T08:57:15.443Z</time></trkpt><trkpt lat="42.7639472" lon="11.8364146"><ele>304.0</ele><time>2026-04-11T08:57:16.449Z</time></trkpt><trkpt lat="42.7641283" lon="11.8363292"><ele>304.0</ele><time>2026-04-11T08:57:17.443Z</time></trkpt><trkpt lat="42.7642794" lon="11.8362249"><ele>304.0</ele><time>2026-04-11T08:57:18.438Z</time></trkpt><trkpt lat="42.7644464" lon="11.8361409"><ele>304.0</ele><time>2026-04-11T08:57:19.441Z</time></trkpt><trkpt lat="42.7645579" lon="11.8360835"><ele>303.5</ele><time>2026-04-11T08:57:20.442Z</time></trkpt><trkpt lat="42.7646487" lon="11.8360038"><ele>303.0</ele><time>2026-04-11T08:57:21.432Z</time></trkpt><trkpt lat="42.7646875" lon="11.8358289"><ele>302.5</ele><time>2026-04-11T08:57:22.437Z</time></trkpt><trkpt lat="42.7646829" lon="11.8356187"><ele>302.0</ele><time>2026-04-11T08:57:23.447Z</time></trkpt><trkpt lat="42.7646111" lon="11.8355068"><ele>302.0</ele><time>2026-04-11T08:57:24.432Z</time></trkpt><trkpt lat="42.7645288" lon="11.8354014"><ele>302.0</ele><time>2026-04-11T08:57:25.424Z</time></trkpt><trkpt lat="42.7644166" lon="11.8353054"><ele>302.0</ele><time>2026-04-11T08:57:26.435Z</time></trkpt><trkpt lat="42.7642893" lon="11.8352218"><ele>302.0</ele><time>2026-04-11T08:57:27.426Z</time></trkpt><trkpt lat="42.7641355" lon="11.8351705"><ele>306.33333333333337</ele><time>2026-04-11T08:57:28.438Z</time></trkpt><trkpt lat="42.7639669" lon="11.8351606"><ele>310.6666666666667</ele><time>2026-04-11T08:57:29.431Z</time></trkpt><trkpt lat="42.7638753" lon="11.8350157"><ele>315.0</ele><time>2026-04-11T08:57:30.43Z</time></trkpt><trkpt lat="42.7638034" lon="11.8348459"><ele>315.0</ele><time>2026-04-11T08:57:31.447Z</time></trkpt><trkpt lat="42.7637218" lon="11.8346625"><ele>315.0</ele><time>2026-04-11T08:57:32.452Z</time></trkpt><trkpt lat="42.7636439" lon="11.8344726"><ele>315.0</ele><time>2026-04-11T08:57:33.457Z</time></trkpt><trkpt lat="42.7635768" lon="11.8342907"><ele>320.0</ele><time>2026-04-11T08:57:34.441Z</time></trkpt><trkpt lat="42.7634957" lon="11.8341312"><ele>325.0</ele><time>2026-04-11T08:57:35.448Z</time></trkpt><trkpt lat="42.7634084" lon="11.83398"><ele>330.0</ele><time>2026-04-11T08:57:36.44Z</time></trkpt><trkpt lat="42.7633198" lon="11.8338306"><ele>335.0</ele><time>2026-04-11T08:57:37.444Z</time></trkpt><trkpt lat="42.7632203" lon="11.8336944"><ele>335.0</ele><time>2026-04-11T08:57:38.441Z</time></trkpt><trkpt lat="42.7630886" lon="11.8335693"><ele>335.0</ele><time>2026-04-11T08:57:39.439Z</time></trkpt><trkpt lat="42.7629587" lon="11.8334286"><ele>335.0</ele><time>2026-04-11T08:57:40.44Z</time></trkpt><trkpt lat="42.7628431" lon="11.8333308"><ele>334.0</ele><time>2026-04-11T08:57:41.44Z</time></trkpt><trkpt lat="42.7627114" lon="11.8333034"><ele>333.0</ele><time>2026-04-11T08:57:42.435Z</time></trkpt><trkpt lat="42.7625921" lon="11.8332804"><ele>332.0</ele><time>2026-04-11T08:57:43.449Z</time></trkpt><trkpt lat="42.7624455" lon="11.8333112"><ele>331.0</ele><time>2026-04-11T08:57:44.462Z</time></trkpt><trkpt lat="42.7623131" lon="11.8334072"><ele>333.75</ele><time>2026-04-11T08:57:45.426Z</time></trkpt><trkpt lat="42.7621827" lon="11.8334631"><ele>336.5</ele><time>2026-04-11T08:57:46.421Z</time></trkpt><trkpt lat="42.7620307" lon="11.8335049"><ele>339.25</ele><time>2026-04-11T08:57:47.427Z</time></trkpt><trkpt lat="42.7618824" lon="11.833534"><ele>342.0</ele><time>2026-04-11T08:57:48.432Z</time></trkpt><trkpt lat="42.7617316" lon="11.8335115"><ele>344.6666666666667</ele><time>2026-04-11T08:57:49.432Z</time></trkpt><trkpt lat="42.761575" lon="11.8334518"><ele>347.33333333333337</ele><time>2026-04-11T08:57:50.425Z</time></trkpt><trkpt lat="42.7614306" lon="11.8333672"><ele>350.0</ele><time>2026-04-11T08:57:51.428Z</time></trkpt><trkpt lat="42.7613019" lon="11.8332544"><ele>350.0</ele><time>2026-04-11T08:57:52.428Z</time></trkpt><trkpt lat="42.7612007" lon="11.8330955"><ele>350.0</ele><time>2026-04-11T08:57:53.443Z</time></trkpt><trkpt lat="42.7610783" lon="11.8329671"><ele>350.0</ele><time>2026-04-11T08:57:54.43Z</time></trkpt><trkpt lat="42.7609372" lon="11.8328376"><ele>349.0</ele><time>2026-04-11T08:57:55.432Z</time></trkpt><trkpt lat="42.7608127" lon="11.83272"><ele>348.0</ele><time>2026-04-11T08:57:56.433Z</time></trkpt><trkpt lat="42.7606855" lon="11.8325868"><ele>347.0</ele><time>2026-04-11T08:57:57.433Z</time></trkpt><trkpt lat="42.7605619" lon="11.8324747"><ele>347.0</ele><time>2026-04-11T08:57:58.438Z</time></trkpt><trkpt lat="42.760437" lon="11.8323338"><ele>347.0</ele><time>2026-04-11T08:57:59.44Z</time></trkpt><trkpt lat="42.7603346" lon="11.8321941"><ele>347.0</ele><time>2026-04-11T08:58:00.441Z</time></trkpt><trkpt lat="42.760214" lon="11.8320796"><ele>349.0</ele><time>2026-04-11T08:58:01.447Z</time></trkpt><trkpt lat="42.7601125" lon="11.8319462"><ele>351.0</ele><time>2026-04-11T08:58:02.445Z</time></trkpt><trkpt lat="42.7600031" lon="11.8318017"><ele>353.0</ele><time>2026-04-11T08:58:03.455Z</time></trkpt><trkpt lat="42.7598963" lon="11.8316517"><ele>355.0</ele><time>2026-04-11T08:58:04.444Z</time></trkpt><trkpt lat="42.7598003" lon="11.8315208"><ele>357.0</ele><time>2026-04-11T08:58:05.444Z</time></trkpt><trkpt lat="42.7596854" lon="11.8313453"><ele>359.0</ele><time>2026-04-11T08:58:06.439Z</time></trkpt><trkpt lat="42.7595779" lon="11.8311684"><ele>361.0</ele><time>2026-04-11T08:58:07.436Z</time></trkpt><trkpt lat="42.7594839" lon="11.8310094"><ele>357.66666666666663</ele><time>2026-04-11T08:58:08.438Z</time></trkpt><trkpt lat="42.759403" lon="11.830835"><ele>354.3333333333333</ele><time>2026-04-11T08:58:09.437Z</time></trkpt><trkpt lat="42.7593275" lon="11.8306414"><ele>351.0</ele><time>2026-04-11T08:58:10.434Z</time></trkpt><trkpt lat="42.7592534" lon="11.8304708"><ele>356.3333333333333</ele><time>2026-04-11T08:58:11.432Z</time></trkpt><trkpt lat="42.7592012" lon="11.8302669"><ele>361.66666666666663</ele><time>2026-04-11T08:58:12.434Z</time></trkpt><trkpt lat="42.7591683" lon="11.8300445"><ele>367.0</ele><time>2026-04-11T08:58:13.453Z</time></trkpt><trkpt lat="42.7591236" lon="11.829823"><ele>367.0</ele><time>2026-04-11T08:58:14.446Z</time></trkpt><trkpt lat="42.7590885" lon="11.8295874"><ele>367.0</ele><time>2026-04-11T08:58:15.444Z</time></trkpt><trkpt lat="42.7590104" lon="11.8293788"><ele>367.0</ele><time>2026-04-11T08:58:16.433Z</time></trkpt><trkpt lat="42.75893" lon="11.8291787"><ele>364.0</ele><time>2026-04-11T08:58:17.428Z</time></trkpt><trkpt lat="42.7588412" lon="11.8290192"><ele>361.0</ele><time>2026-04-11T08:58:18.435Z</time></trkpt><trkpt lat="42.7587518" lon="11.8288644"><ele>358.0</ele><time>2026-04-11T08:58:19.433Z</time></trkpt><trkpt lat="42.7587009" lon="11.8286737"><ele>355.0</ele><time>2026-04-11T08:58:20.426Z</time></trkpt><trkpt lat="42.7587211" lon="11.8285005"><ele>356.25</ele><time>2026-04-11T08:58:21.428Z</time></trkpt><trkpt lat="42.7587757" lon="11.8283704"><ele>357.5</ele><time>2026-04-11T08:58:22.425Z</time></trkpt><trkpt lat="42.7588554" lon="11.828261"><ele>358.75</ele><time>2026-04-11T08:58:23.444Z</time></trkpt><trkpt lat="42.7589803" lon="11.828088"><ele>360.0</ele><time>2026-04-11T08:58:24.426Z</time></trkpt><trkpt lat="42.7590961" lon="11.8278807"><ele>360.0</ele><time>2026-04-11T08:58:25.428Z</time></trkpt><trkpt lat="42.7591864" lon="11.8276897"><ele>360.0</ele><time>2026-04-11T08:58:26.431Z</time></trkpt><trkpt lat="42.7592359" lon="11.827504"><ele>360.0</ele><time>2026-04-11T08:58:27.427Z</time></trkpt><trkpt lat="42.7593148" lon="11.8272781"><ele>361.3333333333333</ele><time>2026-04-11T08:58:28.434Z</time></trkpt><trkpt lat="42.7593666" lon="11.8270697"><ele>362.66666666666663</ele><time>2026-04-11T08:58:29.439Z</time></trkpt><trkpt lat="42.7594225" lon="11.8268527"><ele>364.0</ele><time>2026-04-11T08:58:30.436Z</time></trkpt><trkpt lat="42.7594705" lon="11.8266486"><ele>364.0</ele><time>2026-04-11T08:58:31.443Z</time></trkpt><trkpt lat="42.7595157" lon="11.8264459"><ele>364.0</ele><time>2026-04-11T08:58:32.45Z</time></trkpt><trkpt lat="42.759574" lon="11.8262786"><ele>364.0</ele><time>2026-04-11T08:58:33.441Z</time></trkpt><trkpt lat="42.7596733" lon="11.8261015"><ele>366.25</ele><time>2026-04-11T08:58:34.452Z</time></trkpt><trkpt lat="42.7597427" lon="11.8259397"><ele>368.5</ele><time>2026-04-11T08:58:35.449Z</time></trkpt><trkpt lat="42.7598314" lon="11.8257872"><ele>370.75</ele><time>2026-04-11T08:58:36.459Z</time></trkpt><trkpt lat="42.7599259" lon="11.8256215"><ele>373.0</ele><time>2026-04-11T08:58:37.467Z</time></trkpt><trkpt lat="42.7599943" lon="11.8254541"><ele>373.0</ele><time>2026-04-11T08:58:38.458Z</time></trkpt><trkpt lat="42.760071" lon="11.8253144"><ele>373.0</ele><time>2026-04-11T08:58:39.461Z</time></trkpt><trkpt lat="42.7601743" lon="11.825162"><ele>373.0</ele><time>2026-04-11T08:58:40.457Z</time></trkpt><trkpt lat="42.7602944" lon="11.8249879"><ele>369.75</ele><time>2026-04-11T08:58:41.462Z</time></trkpt><trkpt lat="42.7604266" lon="11.8248569"><ele>366.5</ele><time>2026-04-11T08:58:42.458Z</time></trkpt><trkpt lat="42.760534" lon="11.8247289"><ele>363.25</ele><time>2026-04-11T08:58:43.454Z</time></trkpt><trkpt lat="42.7606435" lon="11.8246269"><ele>360.0</ele><time>2026-04-11T08:58:44.454Z</time></trkpt><trkpt lat="42.7607278" lon="11.8245013"><ele>360.0</ele><time>2026-04-11T08:58:45.444Z</time></trkpt><trkpt lat="42.7607732" lon="11.8243438"><ele>360.0</ele><time>2026-04-11T08:58:46.433Z</time></trkpt><trkpt lat="42.7607738" lon="11.8241884"><ele>360.0</ele><time>2026-04-11T08:58:47.436Z</time></trkpt><trkpt lat="42.7607574" lon="11.8240852"><ele>360.0</ele><time>2026-04-11T08:58:48.425Z</time></trkpt><trkpt lat="42.760685" lon="11.824016"><ele>360.0</ele><time>2026-04-11T08:58:49.437Z</time></trkpt><trkpt lat="42.7606522" lon="11.8239367"><ele>362.0</ele><time>2026-04-11T08:58:50.427Z</time></trkpt><trkpt lat="42.7606503" lon="11.8237948"><ele>364.0</ele><time>2026-04-11T08:58:52.433Z</time></trkpt><trkpt lat="42.7606542" lon="11.8236992"><ele>366.0</ele><time>2026-04-11T08:58:53.425Z</time></trkpt><trkpt lat="42.7606752" lon="11.8235864"><ele>368.0</ele><time>2026-04-11T08:58:54.43Z</time></trkpt><trkpt lat="42.7607109" lon="11.8234732"><ele>370.0</ele><time>2026-04-11T08:58:55.418Z</time></trkpt><trkpt lat="42.760772" lon="11.8233573"><ele>370.8</ele><time>2026-04-11T08:58:56.418Z</time></trkpt><trkpt lat="42.7608617" lon="11.8232835"><ele>371.6</ele><time>2026-04-11T08:58:57.422Z</time></trkpt><trkpt lat="42.7609718" lon="11.8232541"><ele>372.4</ele><time>2026-04-11T08:58:58.432Z</time></trkpt><trkpt lat="42.7610713" lon="11.8232149"><ele>373.2</ele><time>2026-04-11T08:58:59.43Z</time></trkpt><trkpt lat="42.7611726" lon="11.8231473"><ele>374.0</ele><time>2026-04-11T08:59:00.427Z</time></trkpt><trkpt lat="42.761258" lon="11.8230745"><ele>374.2</ele><time>2026-04-11T08:59:01.414Z</time></trkpt><trkpt lat="42.7613062" lon="11.8229918"><ele>374.4</ele><time>2026-04-11T08:59:02.417Z</time></trkpt><trkpt lat="42.761311" lon="11.8228918"><ele>374.6</ele><time>2026-04-11T08:59:03.419Z</time></trkpt><trkpt lat="42.7613222" lon="11.8227533"><ele>374.8</ele><time>2026-04-11T08:59:04.412Z</time></trkpt><trkpt lat="42.761296" lon="11.8225869"><ele>375.0</ele><time>2026-04-11T08:59:05.413Z</time></trkpt><trkpt lat="42.76127" lon="11.8223931"><ele>377.75</ele><time>2026-04-11T08:59:06.412Z</time></trkpt><trkpt lat="42.7612612" lon="11.8221954"><ele>380.5</ele><time>2026-04-11T08:59:07.426Z</time></trkpt><trkpt lat="42.7612887" lon="11.8220052"><ele>383.25</ele><time>2026-04-11T08:59:08.423Z</time></trkpt><trkpt lat="42.7613477" lon="11.8218418"><ele>386.0</ele><time>2026-04-11T08:59:09.423Z</time></trkpt><trkpt lat="42.761407" lon="11.8216761"><ele>386.0</ele><time>2026-04-11T08:59:10.414Z</time></trkpt><trkpt lat="42.7614871" lon="11.8215304"><ele>386.0</ele><time>2026-04-11T08:59:11.418Z</time></trkpt><trkpt lat="42.7616061" lon="11.8214493"><ele>386.0</ele><time>2026-04-11T08:59:12.429Z</time></trkpt><trkpt lat="42.7617451" lon="11.8214036"><ele>386.0</ele><time>2026-04-11T08:59:13.432Z</time></trkpt><trkpt lat="42.761896" lon="11.8213307"><ele>387.3333333333333</ele><time>2026-04-11T08:59:14.441Z</time></trkpt><trkpt lat="42.7620373" lon="11.8212943"><ele>388.66666666666663</ele><time>2026-04-11T08:59:15.447Z</time></trkpt><trkpt lat="42.7621823" lon="11.8212497"><ele>390.0</ele><time>2026-04-11T08:59:16.46Z</time></trkpt><trkpt lat="42.7623317" lon="11.8211801"><ele>390.0</ele><time>2026-04-11T08:59:17.446Z</time></trkpt><trkpt lat="42.762472" lon="11.8210902"><ele>390.0</ele><time>2026-04-11T08:59:18.449Z</time></trkpt><trkpt lat="42.7626183" lon="11.8210013"><ele>390.0</ele><time>2026-04-11T08:59:19.447Z</time></trkpt><trkpt lat="42.7627413" lon="11.8209008"><ele>392.5</ele><time>2026-04-11T08:59:20.444Z</time></trkpt><trkpt lat="42.7628451" lon="11.8207944"><ele>395.0</ele><time>2026-04-11T08:59:21.44Z</time></trkpt><trkpt lat="42.7629552" lon="11.8206987"><ele>397.5</ele><time>2026-04-11T08:59:22.44Z</time></trkpt><trkpt lat="42.7630776" lon="11.8205811"><ele>400.0</ele><time>2026-04-11T08:59:23.442Z</time></trkpt><trkpt lat="42.7631862" lon="11.8204869"><ele>400.0</ele><time>2026-04-11T08:59:24.443Z</time></trkpt><trkpt lat="42.7632794" lon="11.8203948"><ele>400.0</ele><time>2026-04-11T08:59:25.444Z</time></trkpt><trkpt lat="42.7633784" lon="11.8203001"><ele>400.0</ele><time>2026-04-11T08:59:26.44Z</time></trkpt><trkpt lat="42.76348" lon="11.8201608"><ele>400.0</ele><time>2026-04-11T08:59:27.441Z</time></trkpt><trkpt lat="42.7635525" lon="11.8200166"><ele>402.0</ele><time>2026-04-11T08:59:28.43Z</time></trkpt><trkpt lat="42.7636113" lon="11.8198637"><ele>404.0</ele><time>2026-04-11T08:59:29.443Z</time></trkpt><trkpt lat="42.7636655" lon="11.8196959"><ele>406.0</ele><time>2026-04-11T08:59:30.426Z</time></trkpt><trkpt lat="42.7637316" lon="11.8195676"><ele>408.0</ele><time>2026-04-11T08:59:31.427Z</time></trkpt><trkpt lat="42.7638306" lon="11.8194692"><ele>408.0</ele><time>2026-04-11T08:59:32.441Z</time></trkpt><trkpt lat="42.7639291" lon="11.819401"><ele>408.0</ele><time>2026-04-11T08:59:33.415Z</time></trkpt><trkpt lat="42.7640331" lon="11.8193714"><ele>408.0</ele><time>2026-04-11T08:59:34.42Z</time></trkpt><trkpt lat="42.764145" lon="11.819355"><ele>408.0</ele><time>2026-04-11T08:59:35.416Z</time></trkpt><trkpt lat="42.7642927" lon="11.8193311"><ele>408.0</ele><time>2026-04-11T08:59:36.43Z</time></trkpt><trkpt lat="42.7644367" lon="11.8192679"><ele>408.0</ele><time>2026-04-11T08:59:37.413Z</time></trkpt><trkpt lat="42.7645699" lon="11.8191647"><ele>408.0</ele><time>2026-04-11T08:59:38.416Z</time></trkpt><trkpt lat="42.7647037" lon="11.8190566"><ele>408.0</ele><time>2026-04-11T08:59:39.411Z</time></trkpt><trkpt lat="42.7648099" lon="11.8189482"><ele>408.0</ele><time>2026-04-11T08:59:40.422Z</time></trkpt><trkpt lat="42.7649406" lon="11.8188633"><ele>408.0</ele><time>2026-04-11T08:59:41.43Z</time></trkpt><trkpt lat="42.7650996" lon="11.8187703"><ele>410.0</ele><time>2026-04-11T08:59:42.433Z</time></trkpt><trkpt lat="42.7652603" lon="11.8187004"><ele>412.0</ele><time>2026-04-11T08:59:43.434Z</time></trkpt><trkpt lat="42.7654155" lon="11.8186102"><ele>414.0</ele><time>2026-04-11T08:59:44.431Z</time></trkpt><trkpt lat="42.7655617" lon="11.8184847"><ele>409.0</ele><time>2026-04-11T08:59:45.432Z</time></trkpt><trkpt lat="42.7657019" lon="11.8183618"><ele>404.0</ele><time>2026-04-11T08:59:46.439Z</time></trkpt><trkpt lat="42.765838" lon="11.8182533"><ele>399.0</ele><time>2026-04-11T08:59:47.449Z</time></trkpt><trkpt lat="42.7659861" lon="11.8181435"><ele>397.33333333333337</ele><time>2026-04-11T08:59:48.442Z</time></trkpt><trkpt lat="42.7661606" lon="11.8180693"><ele>395.6666666666667</ele><time>2026-04-11T08:59:49.44Z</time></trkpt><trkpt lat="42.7663058" lon="11.8179868"><ele>394.0</ele><time>2026-04-11T08:59:50.435Z</time></trkpt><trkpt lat="42.7664472" lon="11.8179077"><ele>394.0</ele><time>2026-04-11T08:59:51.439Z</time></trkpt><trkpt lat="42.7665753" lon="11.817836"><ele>394.0</ele><time>2026-04-11T08:59:52.451Z</time></trkpt><trkpt lat="42.7666919" lon="11.8177336"><ele>394.0</ele><time>2026-04-11T08:59:53.433Z</time></trkpt><trkpt lat="42.766812" lon="11.8176004"><ele>394.0</ele><time>2026-04-11T08:59:54.427Z</time></trkpt><trkpt lat="42.7669054" lon="11.8173892"><ele>391.6666666666667</ele><time>2026-04-11T08:59:55.44Z</time></trkpt><trkpt lat="42.7669487" lon="11.81718"><ele>389.33333333333337</ele><time>2026-04-11T08:59:56.434Z</time></trkpt><trkpt lat="42.7669707" lon="11.8169482"><ele>387.0</ele><time>2026-04-11T08:59:57.407Z</time></trkpt><trkpt lat="42.7669738" lon="11.816724"><ele>387.0</ele><time>2026-04-11T08:59:58.417Z</time></trkpt><trkpt lat="42.7669541" lon="11.8164891"><ele>387.0</ele><time>2026-04-11T08:59:59.435Z</time></trkpt><trkpt lat="42.7669281" lon="11.8162574"><ele>387.0</ele><time>2026-04-11T09:00:00.432Z</time></trkpt><trkpt lat="42.7669295" lon="11.8160158"><ele>390.0</ele><time>2026-04-11T09:00:01.421Z</time></trkpt><trkpt lat="42.7669636" lon="11.8157926"><ele>393.0</ele><time>2026-04-11T09:00:02.439Z</time></trkpt><trkpt lat="42.7670157" lon="11.8155751"><ele>396.0</ele><time>2026-04-11T09:00:03.417Z</time></trkpt><trkpt lat="42.7670509" lon="11.8153199"><ele>398.33333333333337</ele><time>2026-04-11T09:00:04.431Z</time></trkpt><trkpt lat="42.767093" lon="11.8150823"><ele>400.6666666666667</ele><time>2026-04-11T09:00:05.418Z</time></trkpt><trkpt lat="42.7670659" lon="11.8148394"><ele>403.0</ele><time>2026-04-11T09:00:06.424Z</time></trkpt><trkpt lat="42.7670775" lon="11.814572"><ele>403.0</ele><time>2026-04-11T09:00:07.422Z</time></trkpt><trkpt lat="42.767064" lon="11.8143618"><ele>403.0</ele><time>2026-04-11T09:00:08.411Z</time></trkpt><trkpt lat="42.7671056" lon="11.8141498"><ele>403.0</ele><time>2026-04-11T09:00:09.411Z</time></trkpt><trkpt lat="42.7672024" lon="11.8140108"><ele>404.33333333333337</ele><time>2026-04-11T09:00:10.41Z</time></trkpt><trkpt lat="42.7673233" lon="11.8138974"><ele>405.66666666666663</ele><time>2026-04-11T09:00:11.421Z</time></trkpt><trkpt lat="42.7674628" lon="11.8137815"><ele>407.0</ele><time>2026-04-11T09:00:12.428Z</time></trkpt><trkpt lat="42.7676144" lon="11.8136739"><ele>407.3333333333333</ele><time>2026-04-11T09:00:13.418Z</time></trkpt><trkpt lat="42.7677618" lon="11.8135895"><ele>407.66666666666663</ele><time>2026-04-11T09:00:14.416Z</time></trkpt><trkpt lat="42.7679158" lon="11.8134917"><ele>408.0</ele><time>2026-04-11T09:00:15.42Z</time></trkpt><trkpt lat="42.7680311" lon="11.8133448"><ele>408.0</ele><time>2026-04-11T09:00:16.416Z</time></trkpt><trkpt lat="42.7681404" lon="11.8132086"><ele>408.0</ele><time>2026-04-11T09:00:17.416Z</time></trkpt><trkpt lat="42.7682303" lon="11.8130181"><ele>408.0</ele><time>2026-04-11T09:00:18.425Z</time></trkpt><trkpt lat="42.7682988" lon="11.8128088"><ele>403.66666666666663</ele><time>2026-04-11T09:00:19.423Z</time></trkpt><trkpt lat="42.7683597" lon="11.8126057"><ele>399.3333333333333</ele><time>2026-04-11T09:00:20.416Z</time></trkpt><trkpt lat="42.7684187" lon="11.8124078"><ele>395.0</ele><time>2026-04-11T09:00:21.423Z</time></trkpt><trkpt lat="42.768475" lon="11.8122062"><ele>394.0</ele><time>2026-04-11T09:00:22.432Z</time></trkpt><trkpt lat="42.768548" lon="11.8120036"><ele>393.0</ele><time>2026-04-11T09:00:23.422Z</time></trkpt><trkpt lat="42.7686092" lon="11.8117889"><ele>392.0</ele><time>2026-04-11T09:00:24.427Z</time></trkpt><trkpt lat="42.7686318" lon="11.8115634"><ele>390.0</ele><time>2026-04-11T09:00:25.416Z</time></trkpt><trkpt lat="42.7686364" lon="11.8113304"><ele>388.0</ele><time>2026-04-11T09:00:26.416Z</time></trkpt><trkpt lat="42.7686065" lon="11.8110893"><ele>386.0</ele><time>2026-04-11T09:00:27.423Z</time></trkpt><trkpt lat="42.7685579" lon="11.8108559"><ele>386.3333333333333</ele><time>2026-04-11T09:00:28.423Z</time></trkpt><trkpt lat="42.7684915" lon="11.8106135"><ele>386.66666666666663</ele><time>2026-04-11T09:00:29.433Z</time></trkpt><trkpt lat="42.7684101" lon="11.8103849"><ele>387.0</ele><time>2026-04-11T09:00:30.442Z</time></trkpt><trkpt lat="42.7683548" lon="11.8101495"><ele>387.33333333333337</ele><time>2026-04-11T09:00:31.428Z</time></trkpt><trkpt lat="42.7683084" lon="11.8099321"><ele>387.6666666666667</ele><time>2026-04-11T09:00:32.443Z</time></trkpt><trkpt lat="42.7682577" lon="11.8097415"><ele>388.0</ele><time>2026-04-11T09:00:33.433Z</time></trkpt><trkpt lat="42.7681888" lon="11.8095735"><ele>388.0</ele><time>2026-04-11T09:00:34.425Z</time></trkpt><trkpt lat="42.7680871" lon="11.809449"><ele>388.0</ele><time>2026-04-11T09:00:35.42Z</time></trkpt><trkpt lat="42.7679985" lon="11.8093133"><ele>388.0</ele><time>2026-04-11T09:00:36.435Z</time></trkpt><trkpt lat="42.7679348" lon="11.8091686"><ele>388.0</ele><time>2026-04-11T09:00:37.427Z</time></trkpt><trkpt lat="42.7678859" lon="11.8089805"><ele>387.25</ele><time>2026-04-11T09:00:38.44Z</time></trkpt><trkpt lat="42.7679092" lon="11.8087907"><ele>386.5</ele><time>2026-04-11T09:00:39.425Z</time></trkpt><trkpt lat="42.7679471" lon="11.8086555"><ele>385.75</ele><time>2026-04-11T09:00:40.43Z</time></trkpt><trkpt lat="42.7680334" lon="11.8085587"><ele>385.0</ele><time>2026-04-11T09:00:41.43Z</time></trkpt><trkpt lat="42.768178" lon="11.8084612"><ele>385.0</ele><time>2026-04-11T09:00:42.431Z</time></trkpt><trkpt lat="42.7683067" lon="11.808362"><ele>385.0</ele><time>2026-04-11T09:00:43.443Z</time></trkpt><trkpt lat="42.7684157" lon="11.8082454"><ele>385.0</ele><time>2026-04-11T09:00:44.431Z</time></trkpt><trkpt lat="42.7685063" lon="11.8080883"><ele>385.0</ele><time>2026-04-11T09:00:45.427Z</time></trkpt><trkpt lat="42.7685746" lon="11.8079072"><ele>381.33333333333337</ele><time>2026-04-11T09:00:46.43Z</time></trkpt><trkpt lat="42.7686313" lon="11.8077169"><ele>377.6666666666667</ele><time>2026-04-11T09:00:47.432Z</time></trkpt><trkpt lat="42.7686791" lon="11.8074998"><ele>374.0</ele><time>2026-04-11T09:00:48.433Z</time></trkpt><trkpt lat="42.7687112" lon="11.8072596"><ele>374.0</ele><time>2026-04-11T09:00:49.433Z</time></trkpt><trkpt lat="42.7687267" lon="11.8070161"><ele>374.0</ele><time>2026-04-11T09:00:50.435Z</time></trkpt><trkpt lat="42.7687741" lon="11.8067883"><ele>374.0</ele><time>2026-04-11T09:00:51.437Z</time></trkpt><trkpt lat="42.768849" lon="11.8065877"><ele>375.33333333333337</ele><time>2026-04-11T09:00:52.428Z</time></trkpt><trkpt lat="42.7689551" lon="11.8064222"><ele>376.6666666666667</ele><time>2026-04-11T09:00:53.452Z</time></trkpt><trkpt lat="42.7690797" lon="11.8062534"><ele>378.0</ele><time>2026-04-11T09:00:54.443Z</time></trkpt><trkpt lat="42.7691961" lon="11.806112"><ele>378.6666666666667</ele><time>2026-04-11T09:00:55.446Z</time></trkpt><trkpt lat="42.7693314" lon="11.8059662"><ele>379.33333333333337</ele><time>2026-04-11T09:00:56.451Z</time></trkpt><trkpt lat="42.7694717" lon="11.8058293"><ele>380.0</ele><time>2026-04-11T09:00:57.523Z</time></trkpt><trkpt lat="42.7696169" lon="11.8056949"><ele>380.0</ele><time>2026-04-11T09:00:58.528Z</time></trkpt><trkpt lat="42.7697631" lon="11.8055617"><ele>380.0</ele><time>2026-04-11T09:00:59.52Z</time></trkpt><trkpt lat="42.7699104" lon="11.8054277"><ele>380.0</ele><time>2026-04-11T09:01:00.523Z</time></trkpt><trkpt lat="42.7700655" lon="11.8053095"><ele>381.6666666666667</ele><time>2026-04-11T09:01:01.52Z</time></trkpt><trkpt lat="42.7702313" lon="11.8052012"><ele>383.33333333333337</ele><time>2026-04-11T09:01:02.515Z</time></trkpt><trkpt lat="42.7703989" lon="11.8050894"><ele>385.0</ele><time>2026-04-11T09:01:03.517Z</time></trkpt><trkpt lat="42.770545" lon="11.8049799"><ele>385.0</ele><time>2026-04-11T09:01:04.496Z</time></trkpt><trkpt lat="42.7706583" lon="11.8048478"><ele>385.0</ele><time>2026-04-11T09:01:05.492Z</time></trkpt><trkpt lat="42.7707505" lon="11.8046938"><ele>385.0</ele><time>2026-04-11T09:01:06.49Z</time></trkpt><trkpt lat="42.770799" lon="11.8045382"><ele>385.0</ele><time>2026-04-11T09:01:07.51Z</time></trkpt><trkpt lat="42.7707955" lon="11.8043319"><ele>384.0</ele><time>2026-04-11T09:01:08.508Z</time></trkpt><trkpt lat="42.7709853" lon="11.8041475"><ele>383.0</ele><time>2026-04-11T09:01:09.408Z</time></trkpt><trkpt lat="42.7710055" lon="11.8039509"><ele>382.0</ele><time>2026-04-11T09:01:10.417Z</time></trkpt><trkpt lat="42.7710972" lon="11.8038749"><ele>382.0</ele><time>2026-04-11T09:01:11.406Z</time></trkpt><trkpt lat="42.771203" lon="11.8037677"><ele>382.0</ele><time>2026-04-11T09:01:12.406Z</time></trkpt><trkpt lat="42.7713223" lon="11.8036682"><ele>382.0</ele><time>2026-04-11T09:01:13.421Z</time></trkpt><trkpt lat="42.771395" lon="11.8035519"><ele>382.0</ele><time>2026-04-11T09:01:14.414Z</time></trkpt><trkpt lat="42.7714363" lon="11.8034309"><ele>384.25</ele><time>2026-04-11T09:01:15.414Z</time></trkpt><trkpt lat="42.771457" lon="11.8032812"><ele>386.5</ele><time>2026-04-11T09:01:16.416Z</time></trkpt><trkpt lat="42.7714632" lon="11.8031642"><ele>388.75</ele><time>2026-04-11T09:01:17.417Z</time></trkpt><trkpt lat="42.7714668" lon="11.8029837"><ele>391.0</ele><time>2026-04-11T09:01:18.42Z</time></trkpt><trkpt lat="42.7714885" lon="11.8028011"><ele>392.5</ele><time>2026-04-11T09:01:19.432Z</time></trkpt><trkpt lat="42.7715396" lon="11.8026307"><ele>394.0</ele><time>2026-04-11T09:01:20.43Z</time></trkpt><trkpt lat="42.771596" lon="11.802438"><ele>395.5</ele><time>2026-04-11T09:01:21.43Z</time></trkpt><trkpt lat="42.771625" lon="11.8022226"><ele>397.0</ele><time>2026-04-11T09:01:22.432Z</time></trkpt><trkpt lat="42.7716198" lon="11.8020068"><ele>397.0</ele><time>2026-04-11T09:01:23.432Z</time></trkpt><trkpt lat="42.771638" lon="11.8018349"><ele>397.0</ele><time>2026-04-11T09:01:24.428Z</time></trkpt><trkpt lat="42.7716941" lon="11.8016964"><ele>397.0</ele><time>2026-04-11T09:01:25.431Z</time></trkpt><trkpt lat="42.771782" lon="11.8015847"><ele>397.0</ele><time>2026-04-11T09:01:26.428Z</time></trkpt><trkpt lat="42.7719023" lon="11.8015154"><ele>398.75</ele><time>2026-04-11T09:01:27.431Z</time></trkpt><trkpt lat="42.7720344" lon="11.8015165"><ele>400.5</ele><time>2026-04-11T09:01:28.418Z</time></trkpt><trkpt lat="42.7721705" lon="11.8015111"><ele>402.25</ele><time>2026-04-11T09:01:29.424Z</time></trkpt><trkpt lat="42.7723126" lon="11.8015228"><ele>404.0</ele><time>2026-04-11T09:01:30.427Z</time></trkpt><trkpt lat="42.7724589" lon="11.8015313"><ele>404.0</ele><time>2026-04-11T09:01:31.418Z</time></trkpt><trkpt lat="42.7726101" lon="11.8015335"><ele>404.0</ele><time>2026-04-11T09:01:32.427Z</time></trkpt><trkpt lat="42.7727653" lon="11.8015422"><ele>404.0</ele><time>2026-04-11T09:01:33.435Z</time></trkpt><trkpt lat="42.7729164" lon="11.8015113"><ele>402.75</ele><time>2026-04-11T09:01:34.427Z</time></trkpt><trkpt lat="42.7730748" lon="11.8014745"><ele>401.5</ele><time>2026-04-11T09:01:35.434Z</time></trkpt><trkpt lat="42.7731968" lon="11.8014673"><ele>400.25</ele><time>2026-04-11T09:01:36.431Z</time></trkpt><trkpt lat="42.773327" lon="11.8014557"><ele>399.0</ele><time>2026-04-11T09:01:37.428Z</time></trkpt><trkpt lat="42.7734808" lon="11.8014546"><ele>399.0</ele><time>2026-04-11T09:01:38.431Z</time></trkpt><trkpt lat="42.7736275" lon="11.8014426"><ele>399.0</ele><time>2026-04-11T09:01:39.432Z</time></trkpt><trkpt lat="42.7737564" lon="11.8014177"><ele>399.0</ele><time>2026-04-11T09:01:40.425Z</time></trkpt><trkpt lat="42.7739008" lon="11.8014058"><ele>399.0</ele><time>2026-04-11T09:01:41.426Z</time></trkpt><trkpt lat="42.7740614" lon="11.8014119"><ele>399.0</ele><time>2026-04-11T09:01:42.43Z</time></trkpt><trkpt lat="42.7741943" lon="11.8014253"><ele>399.0</ele><time>2026-04-11T09:01:43.427Z</time></trkpt><trkpt lat="42.7743546" lon="11.8014655"><ele>399.0</ele><time>2026-04-11T09:01:44.424Z</time></trkpt><trkpt lat="42.7745019" lon="11.801526"><ele>399.0</ele><time>2026-04-11T09:01:45.427Z</time></trkpt><trkpt lat="42.774646" lon="11.8015944"><ele>399.0</ele><time>2026-04-11T09:01:46.43Z</time></trkpt><trkpt lat="42.7747928" lon="11.8016623"><ele>399.0</ele><time>2026-04-11T09:01:47.428Z</time></trkpt><trkpt lat="42.7749278" lon="11.8017321"><ele>399.0</ele><time>2026-04-11T09:01:48.427Z</time></trkpt><trkpt lat="42.7750169" lon="11.8018025"><ele>399.0</ele><time>2026-04-11T09:01:49.432Z</time></trkpt><trkpt lat="42.7751259" lon="11.8018384"><ele>399.0</ele><time>2026-04-11T09:01:50.434Z</time></trkpt><trkpt lat="42.7752589" lon="11.8018594"><ele>399.0</ele><time>2026-04-11T09:01:51.43Z</time></trkpt><trkpt lat="42.7754012" lon="11.801838"><ele>399.0</ele><time>2026-04-11T09:01:52.426Z</time></trkpt><trkpt lat="42.7755187" lon="11.8017794"><ele>399.0</ele><time>2026-04-11T09:01:53.414Z</time></trkpt><trkpt lat="42.7756383" lon="11.8016647"><ele>399.0</ele><time>2026-04-11T09:01:54.414Z</time></trkpt><trkpt lat="42.77578" lon="11.8015164"><ele>399.0</ele><time>2026-04-11T09:01:55.428Z</time></trkpt><trkpt lat="42.775888" lon="11.8013709"><ele>399.0</ele><time>2026-04-11T09:01:56.421Z</time></trkpt><trkpt lat="42.7760217" lon="11.8012338"><ele>399.0</ele><time>2026-04-11T09:01:57.421Z</time></trkpt><trkpt lat="42.7761845" lon="11.8011271"><ele>400.33333333333337</ele><time>2026-04-11T09:01:58.43Z</time></trkpt><trkpt lat="42.7763065" lon="11.8010293"><ele>401.6666666666667</ele><time>2026-04-11T09:01:59.416Z</time></trkpt><trkpt lat="42.7764719" lon="11.8009207"><ele>403.0</ele><time>2026-04-11T09:02:00.428Z</time></trkpt><trkpt lat="42.7765811" lon="11.8008178"><ele>403.0</ele><time>2026-04-11T09:02:01.428Z</time></trkpt><trkpt lat="42.7766905" lon="11.8007139"><ele>403.0</ele><time>2026-04-11T09:02:02.435Z</time></trkpt><trkpt lat="42.7768158" lon="11.8006019"><ele>403.0</ele><time>2026-04-11T09:02:03.425Z</time></trkpt><trkpt lat="42.7769126" lon="11.8005166"><ele>403.0</ele><time>2026-04-11T09:02:04.428Z</time></trkpt><trkpt lat="42.7770266" lon="11.8004352"><ele>403.5</ele><time>2026-04-11T09:02:05.433Z</time></trkpt><trkpt lat="42.7771386" lon="11.8003356"><ele>404.0</ele><time>2026-04-11T09:02:06.434Z</time></trkpt><trkpt lat="42.7772501" lon="11.8002397"><ele>404.5</ele><time>2026-04-11T09:02:07.432Z</time></trkpt><trkpt lat="42.777363" lon="11.8001461"><ele>405.0</ele><time>2026-04-11T09:02:08.435Z</time></trkpt><trkpt lat="42.7774697" lon="11.800048"><ele>405.0</ele><time>2026-04-11T09:02:09.436Z</time></trkpt><trkpt lat="42.7775738" lon="11.7999614"><ele>405.0</ele><time>2026-04-11T09:02:10.432Z</time></trkpt><trkpt lat="42.777672" lon="11.7998762"><ele>405.0</ele><time>2026-04-11T09:02:11.43Z</time></trkpt><trkpt lat="42.7777652" lon="11.7997883"><ele>405.0</ele><time>2026-04-11T09:02:12.427Z</time></trkpt><trkpt lat="42.777852" lon="11.7997168"><ele>403.4</ele><time>2026-04-11T09:02:13.434Z</time></trkpt><trkpt lat="42.7779468" lon="11.7996286"><ele>401.8</ele><time>2026-04-11T09:02:14.428Z</time></trkpt><trkpt lat="42.7780359" lon="11.7995513"><ele>400.20000000000005</ele><time>2026-04-11T09:02:15.433Z</time></trkpt><trkpt lat="42.7781268" lon="11.7994803"><ele>398.6</ele><time>2026-04-11T09:02:16.433Z</time></trkpt><trkpt lat="42.7782167" lon="11.7994158"><ele>397.0</ele><time>2026-04-11T09:02:17.431Z</time></trkpt><trkpt lat="42.7783032" lon="11.7993603"><ele>396.6</ele><time>2026-04-11T09:02:18.432Z</time></trkpt><trkpt lat="42.7783918" lon="11.7993217"><ele>396.20000000000005</ele><time>2026-04-11T09:02:19.436Z</time></trkpt><trkpt lat="42.7784893" lon="11.799271"><ele>395.8</ele><time>2026-04-11T09:02:20.426Z</time></trkpt><trkpt lat="42.7785907" lon="11.7992098"><ele>395.4</ele><time>2026-04-11T09:02:21.438Z</time></trkpt><trkpt lat="42.7786978" lon="11.7991313"><ele>395.0</ele><time>2026-04-11T09:02:22.433Z</time></trkpt><trkpt lat="42.7787818" lon="11.7990488"><ele>395.0</ele><time>2026-04-11T09:02:23.433Z</time></trkpt><trkpt lat="42.7788511" lon="11.7989636"><ele>395.0</ele><time>2026-04-11T09:02:24.437Z</time></trkpt><trkpt lat="42.7789159" lon="11.7988571"><ele>395.0</ele><time>2026-04-11T09:02:25.422Z</time></trkpt><trkpt lat="42.7789857" lon="11.7987597"><ele>395.0</ele><time>2026-04-11T09:02:26.429Z</time></trkpt><trkpt lat="42.7790529" lon="11.7986571"><ele>395.0</ele><time>2026-04-11T09:02:27.432Z</time></trkpt><trkpt lat="42.7791113" lon="11.79856"><ele>396.6</ele><time>2026-04-11T09:02:28.431Z</time></trkpt><trkpt lat="42.7791756" lon="11.7984595"><ele>398.2</ele><time>2026-04-11T09:02:29.441Z</time></trkpt><trkpt lat="42.7792511" lon="11.7983503"><ele>399.79999999999995</ele><time>2026-04-11T09:02:30.438Z</time></trkpt><trkpt lat="42.7793377" lon="11.7982374"><ele>401.4</ele><time>2026-04-11T09:02:31.436Z</time></trkpt><trkpt lat="42.7794188" lon="11.7981289"><ele>403.0</ele><time>2026-04-11T09:02:32.431Z</time></trkpt><trkpt lat="42.7794989" lon="11.798013"><ele>403.0</ele><time>2026-04-11T09:02:33.425Z</time></trkpt><trkpt lat="42.7795697" lon="11.7978875"><ele>403.0</ele><time>2026-04-11T09:02:34.429Z</time></trkpt><trkpt lat="42.7796165" lon="11.7977624"><ele>403.0</ele><time>2026-04-11T09:02:35.428Z</time></trkpt><trkpt lat="42.7796422" lon="11.7976469"><ele>403.0</ele><time>2026-04-11T09:02:36.42Z</time></trkpt><trkpt lat="42.7796375" lon="11.7975239"><ele>403.0</ele><time>2026-04-11T09:02:37.422Z</time></trkpt><trkpt lat="42.7796073" lon="11.7974065"><ele>405.25</ele><time>2026-04-11T09:02:38.433Z</time></trkpt><trkpt lat="42.7795401" lon="11.7972764"><ele>407.5</ele><time>2026-04-11T09:02:39.434Z</time></trkpt><trkpt lat="42.7794701" lon="11.7971461"><ele>409.75</ele><time>2026-04-11T09:02:40.423Z</time></trkpt><trkpt lat="42.7794028" lon="11.7970043"><ele>412.0</ele><time>2026-04-11T09:02:41.429Z</time></trkpt><trkpt lat="42.7793559" lon="11.7968727"><ele>412.20000000000005</ele><time>2026-04-11T09:02:42.423Z</time></trkpt><trkpt lat="42.7793307" lon="11.7967354"><ele>412.4</ele><time>2026-04-11T09:02:43.426Z</time></trkpt><trkpt lat="42.7793191" lon="11.7965874"><ele>412.6</ele><time>2026-04-11T09:02:44.422Z</time></trkpt><trkpt lat="42.7793229" lon="11.7964402"><ele>412.79999999999995</ele><time>2026-04-11T09:02:45.428Z</time></trkpt><trkpt lat="42.7793484" lon="11.7962807"><ele>413.0</ele><time>2026-04-11T09:02:46.422Z</time></trkpt><trkpt lat="42.7794057" lon="11.7961367"><ele>415.75</ele><time>2026-04-11T09:02:47.426Z</time></trkpt><trkpt lat="42.779476" lon="11.7959914"><ele>418.5</ele><time>2026-04-11T09:02:48.433Z</time></trkpt><trkpt lat="42.7795411" lon="11.7958701"><ele>421.25</ele><time>2026-04-11T09:02:49.424Z</time></trkpt><trkpt lat="42.7796298" lon="11.7957629"><ele>424.0</ele><time>2026-04-11T09:02:50.421Z</time></trkpt><trkpt lat="42.7797276" lon="11.795674"><ele>424.0</ele><time>2026-04-11T09:02:51.421Z</time></trkpt><trkpt lat="42.7798377" lon="11.7956118"><ele>424.0</ele><time>2026-04-11T09:02:52.417Z</time></trkpt><trkpt lat="42.7799568" lon="11.7955693"><ele>424.0</ele><time>2026-04-11T09:02:53.422Z</time></trkpt><trkpt lat="42.7800863" lon="11.7955496"><ele>424.0</ele><time>2026-04-11T09:02:54.419Z</time></trkpt><trkpt lat="42.7802285" lon="11.7955297"><ele>424.0</ele><time>2026-04-11T09:02:55.426Z</time></trkpt><trkpt lat="42.7803652" lon="11.7955063"><ele>424.0</ele><time>2026-04-11T09:02:56.438Z</time></trkpt><trkpt lat="42.7804964" lon="11.7954755"><ele>424.0</ele><time>2026-04-11T09:02:57.434Z</time></trkpt><trkpt lat="42.7806272" lon="11.7954021"><ele>424.0</ele><time>2026-04-11T09:02:58.427Z</time></trkpt><trkpt lat="42.7807516" lon="11.7952939"><ele>423.5</ele><time>2026-04-11T09:02:59.425Z</time></trkpt><trkpt lat="42.7808555" lon="11.7951366"><ele>423.0</ele><time>2026-04-11T09:03:00.434Z</time></trkpt><trkpt lat="42.7809437" lon="11.7949955"><ele>422.5</ele><time>2026-04-11T09:03:01.432Z</time></trkpt><trkpt lat="42.7810424" lon="11.7948554"><ele>422.0</ele><time>2026-04-11T09:03:02.429Z</time></trkpt><trkpt lat="42.7811548" lon="11.7947337"><ele>419.5</ele><time>2026-04-11T09:03:03.442Z</time></trkpt><trkpt lat="42.7812509" lon="11.7946284"><ele>417.0</ele><time>2026-04-11T09:03:04.434Z</time></trkpt><trkpt lat="42.7813553" lon="11.7945182"><ele>414.5</ele><time>2026-04-11T09:03:05.433Z</time></trkpt><trkpt lat="42.7814592" lon="11.7944146"><ele>412.0</ele><time>2026-04-11T09:03:06.429Z</time></trkpt><trkpt lat="42.7815635" lon="11.7943627"><ele>411.25</ele><time>2026-04-11T09:03:07.43Z</time></trkpt><trkpt lat="42.7816626" lon="11.7942868"><ele>410.5</ele><time>2026-04-11T09:03:08.43Z</time></trkpt><trkpt lat="42.7817852" lon="11.7941973"><ele>409.75</ele><time>2026-04-11T09:03:09.431Z</time></trkpt><trkpt lat="42.7819098" lon="11.7941139"><ele>409.0</ele><time>2026-04-11T09:03:10.431Z</time></trkpt><trkpt lat="42.7820436" lon="11.7940348"><ele>409.0</ele><time>2026-04-11T09:03:11.431Z</time></trkpt><trkpt lat="42.782188" lon="11.7939573"><ele>409.0</ele><time>2026-04-11T09:03:12.431Z</time></trkpt><trkpt lat="42.7823124" lon="11.7938953"><ele>409.0</ele><time>2026-04-11T09:03:13.439Z</time></trkpt><trkpt lat="42.7824266" lon="11.793834"><ele>409.0</ele><time>2026-04-11T09:03:14.429Z</time></trkpt><trkpt lat="42.7825233" lon="11.7937691"><ele>409.00000000000006</ele><time>2026-04-11T09:03:15.436Z</time></trkpt><trkpt lat="42.7825984" lon="11.7937392"><ele>409.0</ele><time>2026-04-11T09:03:16.442Z</time></trkpt><trkpt lat="42.7826919" lon="11.793695"><ele>409.0</ele><time>2026-04-11T09:03:17.432Z</time></trkpt><trkpt lat="42.7827561" lon="11.7936539"><ele>409.0</ele><time>2026-04-11T09:03:18.435Z</time></trkpt><trkpt lat="42.7828223" lon="11.7935963"><ele>409.00000000000006</ele><time>2026-04-11T09:03:19.424Z</time></trkpt><trkpt lat="42.782885" lon="11.7935363"><ele>409.0</ele><time>2026-04-11T09:03:20.426Z</time></trkpt><trkpt lat="42.7829368" lon="11.7934704"><ele>408.2</ele><time>2026-04-11T09:03:21.42Z</time></trkpt><trkpt lat="42.7829633" lon="11.7933515"><ele>407.4</ele><time>2026-04-11T09:03:22.421Z</time></trkpt><trkpt lat="42.7829943" lon="11.7932086"><ele>406.6</ele><time>2026-04-11T09:03:23.428Z</time></trkpt><trkpt lat="42.7830308" lon="11.7930714"><ele>405.8</ele><time>2026-04-11T09:03:24.428Z</time></trkpt><trkpt lat="42.7830823" lon="11.7929287"><ele>405.0</ele><time>2026-04-11T09:03:25.423Z</time></trkpt><trkpt lat="42.7831337" lon="11.792805"><ele>404.99999999999994</ele><time>2026-04-11T09:03:26.436Z</time></trkpt><trkpt lat="42.7831936" lon="11.7927132"><ele>405.0</ele><time>2026-04-11T09:03:27.431Z</time></trkpt><trkpt lat="42.7832585" lon="11.7926367"><ele>405.0</ele><time>2026-04-11T09:03:28.431Z</time></trkpt><trkpt lat="42.7833254" lon="11.7925978"><ele>405.0</ele><time>2026-04-11T09:03:29.432Z</time></trkpt><trkpt lat="42.783389" lon="11.7926092"><ele>405.0</ele><time>2026-04-11T09:03:30.424Z</time></trkpt><trkpt lat="42.7834432" lon="11.792658"><ele>404.99999999999994</ele><time>2026-04-11T09:03:31.437Z</time></trkpt><trkpt lat="42.7834722" lon="11.7927411"><ele>405.0</ele><time>2026-04-11T09:03:32.425Z</time></trkpt><trkpt lat="42.7834762" lon="11.7928482"><ele>405.0</ele><time>2026-04-11T09:03:33.423Z</time></trkpt><trkpt lat="42.7834469" lon="11.7929514"><ele>405.0</ele><time>2026-04-11T09:03:34.418Z</time></trkpt><trkpt lat="42.7834114" lon="11.7930416"><ele>405.0</ele><time>2026-04-11T09:03:35.42Z</time></trkpt><trkpt lat="42.7833625" lon="11.7931512"><ele>405.0</ele><time>2026-04-11T09:03:36.423Z</time></trkpt><trkpt lat="42.7832947" lon="11.7932761"><ele>405.0</ele><time>2026-04-11T09:03:37.412Z</time></trkpt><trkpt lat="42.7832374" lon="11.7934037"><ele>403.8</ele><time>2026-04-11T09:03:38.415Z</time></trkpt><trkpt lat="42.783172" lon="11.7935556"><ele>402.6</ele><time>2026-04-11T09:03:39.404Z</time></trkpt><trkpt lat="42.7831156" lon="11.7936823"><ele>401.4</ele><time>2026-04-11T09:03:40.403Z</time></trkpt><trkpt lat="42.7830669" lon="11.7937947"><ele>400.2</ele><time>2026-04-11T09:03:41.402Z</time></trkpt><trkpt lat="42.7830463" lon="11.7938812"><ele>399.0</ele><time>2026-04-11T09:03:42.402Z</time></trkpt><trkpt lat="42.7830401" lon="11.7939828"><ele>399.0</ele><time>2026-04-11T09:03:43.41Z</time></trkpt><trkpt lat="42.7830649" lon="11.7940789"><ele>399.0</ele><time>2026-04-11T09:03:44.403Z</time></trkpt><trkpt lat="42.7831178" lon="11.7941377"><ele>399.0</ele><time>2026-04-11T09:03:45.407Z</time></trkpt><trkpt lat="42.7832017" lon="11.7941583"><ele>399.0</ele><time>2026-04-11T09:03:46.412Z</time></trkpt><trkpt lat="42.7832729" lon="11.7941455"><ele>399.0</ele><time>2026-04-11T09:03:47.397Z</time></trkpt><trkpt lat="42.7833411" lon="11.7941013"><ele>399.0</ele><time>2026-04-11T09:03:48.417Z</time></trkpt><trkpt lat="42.7834341" lon="11.7939918"><ele>399.0</ele><time>2026-04-11T09:03:49.413Z</time></trkpt><trkpt lat="42.7834879" lon="11.7938352"><ele>399.0</ele><time>2026-04-11T09:03:50.391Z</time></trkpt><trkpt lat="42.7835548" lon="11.7936912"><ele>399.0</ele><time>2026-04-11T09:03:51.402Z</time></trkpt><trkpt lat="42.7836074" lon="11.7935782"><ele>399.0</ele><time>2026-04-11T09:03:52.414Z</time></trkpt><trkpt lat="42.7836504" lon="11.7934731"><ele>399.0</ele><time>2026-04-11T09:03:53.41Z</time></trkpt><trkpt lat="42.7836829" lon="11.7933904"><ele>396.79999999999995</ele><time>2026-04-11T09:03:54.42Z</time></trkpt><trkpt lat="42.7837764" lon="11.7933539"><ele>394.59999999999997</ele><time>2026-04-11T09:03:56.418Z</time></trkpt><trkpt lat="42.7838572" lon="11.7934337"><ele>392.4</ele><time>2026-04-11T09:03:58.426Z</time></trkpt><trkpt lat="42.7839034" lon="11.7935147"><ele>390.2</ele><time>2026-04-11T09:04:00.438Z</time></trkpt><trkpt lat="42.78392" lon="11.79365"><ele>388.0</ele><time>2026-04-11T09:04:03.431Z</time></trkpt><trkpt lat="42.7839159" lon="11.7937951"><ele>387.33333333333337</ele><time>2026-04-11T09:04:05.425Z</time></trkpt><trkpt lat="42.7838998" lon="11.7938836"><ele>386.6666666666667</ele><time>2026-04-11T09:04:06.425Z</time></trkpt><trkpt lat="42.7838722" lon="11.7939753"><ele>386.0</ele><time>2026-04-11T09:04:07.423Z</time></trkpt><trkpt lat="42.7838389" lon="11.7940837"><ele>385.33333333333337</ele><time>2026-04-11T09:04:08.42Z</time></trkpt><trkpt lat="42.7838055" lon="11.7942002"><ele>384.6666666666667</ele><time>2026-04-11T09:04:09.418Z</time></trkpt><trkpt lat="42.7837583" lon="11.7943138"><ele>384.0</ele><time>2026-04-11T09:04:10.415Z</time></trkpt><trkpt lat="42.7837107" lon="11.7944113"><ele>383.1666666666667</ele><time>2026-04-11T09:04:11.417Z</time></trkpt><trkpt lat="42.7836673" lon="11.7945037"><ele>382.3333333333333</ele><time>2026-04-11T09:04:12.411Z</time></trkpt><trkpt lat="42.7836361" lon="11.7946019"><ele>381.5</ele><time>2026-04-11T09:04:13.414Z</time></trkpt><trkpt lat="42.7836259" lon="11.7946875"><ele>380.66666666666663</ele><time>2026-04-11T09:04:14.4Z</time></trkpt><trkpt lat="42.7836628" lon="11.7948105"><ele>379.8333333333333</ele><time>2026-04-11T09:04:16.41Z</time></trkpt><trkpt lat="42.783772" lon="11.7948349"><ele>379.0</ele><time>2026-04-11T09:04:18.418Z</time></trkpt><trkpt lat="42.7838449" lon="11.7947871"><ele>379.0</ele><time>2026-04-11T09:04:19.414Z</time></trkpt><trkpt lat="42.7839418" lon="11.794655"><ele>379.0</ele><time>2026-04-11T09:04:20.403Z</time></trkpt><trkpt lat="42.7840272" lon="11.7944885"><ele>379.0</ele><time>2026-04-11T09:04:21.404Z</time></trkpt><trkpt lat="42.7841085" lon="11.7943082"><ele>379.0</ele><time>2026-04-11T09:04:22.412Z</time></trkpt><trkpt lat="42.7841822" lon="11.7941524"><ele>380.0</ele><time>2026-04-11T09:04:23.412Z</time></trkpt><trkpt lat="42.7842543" lon="11.7940089"><ele>381.0</ele><time>2026-04-11T09:04:24.411Z</time></trkpt><trkpt lat="42.7843137" lon="11.7938837"><ele>382.0</ele><time>2026-04-11T09:04:25.42Z</time></trkpt><trkpt lat="42.7843713" lon="11.7937667"><ele>383.0</ele><time>2026-04-11T09:04:26.426Z</time></trkpt><trkpt lat="42.7844313" lon="11.7936606"><ele>384.0</ele><time>2026-04-11T09:04:27.421Z</time></trkpt><trkpt lat="42.7844941" lon="11.7935518"><ele>380.79999999999995</ele><time>2026-04-11T09:04:28.416Z</time></trkpt><trkpt lat="42.7845576" lon="11.7934396"><ele>377.59999999999997</ele><time>2026-04-11T09:04:29.424Z</time></trkpt><trkpt lat="42.7846273" lon="11.793323"><ele>374.4</ele><time>2026-04-11T09:04:30.414Z</time></trkpt><trkpt lat="42.7846922" lon="11.7932035"><ele>371.2</ele><time>2026-04-11T09:04:31.416Z</time></trkpt><trkpt lat="42.7847186" lon="11.793091"><ele>368.0</ele><time>2026-04-11T09:04:32.415Z</time></trkpt><trkpt lat="42.7847324" lon="11.7929651"><ele>368.0</ele><time>2026-04-11T09:04:33.412Z</time></trkpt><trkpt lat="42.7847365" lon="11.7928295"><ele>368.0</ele><time>2026-04-11T09:04:34.42Z</time></trkpt><trkpt lat="42.7847577" lon="11.7926768"><ele>368.0</ele><time>2026-04-11T09:04:35.416Z</time></trkpt><trkpt lat="42.7847825" lon="11.79252"><ele>368.0</ele><time>2026-04-11T09:04:36.417Z</time></trkpt><trkpt lat="42.7848163" lon="11.792355"><ele>369.5</ele><time>2026-04-11T09:04:37.408Z</time></trkpt><trkpt lat="42.784863" lon="11.7922124"><ele>371.0</ele><time>2026-04-11T09:04:38.416Z</time></trkpt><trkpt lat="42.7849128" lon="11.7920654"><ele>372.5</ele><time>2026-04-11T09:04:39.408Z</time></trkpt><trkpt lat="42.7849803" lon="11.791935"><ele>374.0</ele><time>2026-04-11T09:04:40.402Z</time></trkpt><trkpt lat="42.7850719" lon="11.7918535"><ele>374.4</ele><time>2026-04-11T09:04:41.421Z</time></trkpt><trkpt lat="42.7851738" lon="11.7918102"><ele>374.79999999999995</ele><time>2026-04-11T09:04:42.427Z</time></trkpt><trkpt lat="42.7852685" lon="11.7917683"><ele>375.20000000000005</ele><time>2026-04-11T09:04:43.424Z</time></trkpt><trkpt lat="42.7853483" lon="11.7917047"><ele>375.6</ele><time>2026-04-11T09:04:44.416Z</time></trkpt><trkpt lat="42.7854077" lon="11.7916215"><ele>376.0</ele><time>2026-04-11T09:04:45.424Z</time></trkpt><trkpt lat="42.7854412" lon="11.7915246"><ele>373.85714285714283</ele><time>2026-04-11T09:04:46.416Z</time></trkpt><trkpt lat="42.7854509" lon="11.791427"><ele>371.71428571428567</ele><time>2026-04-11T09:04:47.413Z</time></trkpt><trkpt lat="42.7854282" lon="11.7913335"><ele>369.57142857142856</ele><time>2026-04-11T09:04:48.412Z</time></trkpt><trkpt lat="42.7853808" lon="11.7912638"><ele>367.42857142857144</ele><time>2026-04-11T09:04:49.425Z</time></trkpt><trkpt lat="42.7853185" lon="11.7911995"><ele>365.2857142857143</ele><time>2026-04-11T09:04:50.412Z</time></trkpt><trkpt lat="42.7852704" lon="11.7911274"><ele>363.14285714285717</ele><time>2026-04-11T09:04:51.415Z</time></trkpt><trkpt lat="42.7852316" lon="11.7910428"><ele>361.0</ele><time>2026-04-11T09:04:52.417Z</time></trkpt><trkpt lat="42.7852164" lon="11.7909514"><ele>361.0</ele><time>2026-04-11T09:04:53.42Z</time></trkpt><trkpt lat="42.7852605" lon="11.7908063"><ele>361.0</ele><time>2026-04-11T09:04:55.413Z</time></trkpt><trkpt lat="42.7853467" lon="11.790835"><ele>361.0</ele><time>2026-04-11T09:04:58.406Z</time></trkpt><trkpt lat="42.7853944" lon="11.7909714"><ele>361.0</ele><time>2026-04-11T09:04:59.404Z</time></trkpt><trkpt lat="42.7854438" lon="11.7911309"><ele>361.0</ele><time>2026-04-11T09:05:00.406Z</time></trkpt><trkpt lat="42.7854844" lon="11.7912893"><ele>361.0</ele><time>2026-04-11T09:05:01.402Z</time></trkpt><trkpt lat="42.7855275" lon="11.7914369"><ele>361.0</ele><time>2026-04-11T09:05:02.4Z</time></trkpt><trkpt lat="42.7855773" lon="11.7915979"><ele>361.0</ele><time>2026-04-11T09:05:03.408Z</time></trkpt><trkpt lat="42.7856504" lon="11.7917113"><ele>361.0</ele><time>2026-04-11T09:05:04.401Z</time></trkpt><trkpt lat="42.7857201" lon="11.7917381"><ele>361.0</ele><time>2026-04-11T09:05:05.394Z</time></trkpt><trkpt lat="42.7857929" lon="11.791694"><ele>361.0</ele><time>2026-04-11T09:05:06.401Z</time></trkpt><trkpt lat="42.785864" lon="11.7916087"><ele>361.0</ele><time>2026-04-11T09:05:07.4Z</time></trkpt><trkpt lat="42.7859348" lon="11.79148"><ele>361.0</ele><time>2026-04-11T09:05:08.407Z</time></trkpt><trkpt lat="42.7859702" lon="11.7913411"><ele>361.0</ele><time>2026-04-11T09:05:09.406Z</time></trkpt><trkpt lat="42.7859775" lon="11.7911998"><ele>361.0</ele><time>2026-04-11T09:05:10.405Z</time></trkpt><trkpt lat="42.7859835" lon="11.7910587"><ele>360.66666666666663</ele><time>2026-04-11T09:05:11.407Z</time></trkpt><trkpt lat="42.786002" lon="11.7909355"><ele>360.3333333333333</ele><time>2026-04-11T09:05:12.401Z</time></trkpt><trkpt lat="42.7860201" lon="11.7908148"><ele>360.0</ele><time>2026-04-11T09:05:13.406Z</time></trkpt><trkpt lat="42.7860577" lon="11.7907338"><ele>359.6666666666667</ele><time>2026-04-11T09:05:14.411Z</time></trkpt><trkpt lat="42.7861302" lon="11.7907821"><ele>359.33333333333337</ele><time>2026-04-11T09:05:16.415Z</time></trkpt><trkpt lat="42.7861564" lon="11.7909209"><ele>359.0</ele><time>2026-04-11T09:05:17.408Z</time></trkpt><trkpt lat="42.7861713" lon="11.791096"><ele>356.0</ele><time>2026-04-11T09:05:18.412Z</time></trkpt><trkpt lat="42.7861867" lon="11.7912628"><ele>353.0</ele><time>2026-04-11T09:05:19.42Z</time></trkpt><trkpt lat="42.7862126" lon="11.7914087"><ele>350.0</ele><time>2026-04-11T09:05:20.417Z</time></trkpt><trkpt lat="42.7862422" lon="11.7915286"><ele>347.0</ele><time>2026-04-11T09:05:21.41Z</time></trkpt><trkpt lat="42.7862793" lon="11.7916297"><ele>344.0</ele><time>2026-04-11T09:05:22.414Z</time></trkpt><trkpt lat="42.786318" lon="11.7917067"><ele>344.0</ele><time>2026-04-11T09:05:23.412Z</time></trkpt><trkpt lat="42.7864236" lon="11.791776"><ele>344.0</ele><time>2026-04-11T09:05:25.408Z</time></trkpt><trkpt lat="42.7865013" lon="11.7917078"><ele>344.0</ele><time>2026-04-11T09:05:26.421Z</time></trkpt><trkpt lat="42.7865817" lon="11.791597"><ele>344.0</ele><time>2026-04-11T09:05:27.435Z</time></trkpt><trkpt lat="42.7866579" lon="11.7914629"><ele>344.0</ele><time>2026-04-11T09:05:28.412Z</time></trkpt><trkpt lat="42.7867324" lon="11.7913128"><ele>344.0</ele><time>2026-04-11T09:05:29.421Z</time></trkpt><trkpt lat="42.7867859" lon="11.7911497"><ele>344.0</ele><time>2026-04-11T09:05:30.42Z</time></trkpt><trkpt lat="42.7868" lon="11.7909731"><ele>344.0</ele><time>2026-04-11T09:05:31.43Z</time></trkpt><trkpt lat="42.7867721" lon="11.7908114"><ele>344.0</ele><time>2026-04-11T09:05:32.421Z</time></trkpt><trkpt lat="42.7867227" lon="11.7906506"><ele>343.75</ele><time>2026-04-11T09:05:33.429Z</time></trkpt><trkpt lat="42.7866673" lon="11.7904993"><ele>343.5</ele><time>2026-04-11T09:05:34.431Z</time></trkpt><trkpt lat="42.7866263" lon="11.7903433"><ele>343.25</ele><time>2026-04-11T09:05:35.421Z</time></trkpt><trkpt lat="42.7866139" lon="11.7901884"><ele>343.0</ele><time>2026-04-11T09:05:36.414Z</time></trkpt><trkpt lat="42.7866204" lon="11.790031"><ele>342.79999999999995</ele><time>2026-04-11T09:05:37.416Z</time></trkpt><trkpt lat="42.7866485" lon="11.7898934"><ele>342.6</ele><time>2026-04-11T09:05:38.419Z</time></trkpt><trkpt lat="42.7867009" lon="11.7897858"><ele>342.4</ele><time>2026-04-11T09:05:39.419Z</time></trkpt><trkpt lat="42.7867835" lon="11.7897032"><ele>342.20000000000005</ele><time>2026-04-11T09:05:40.424Z</time></trkpt><trkpt lat="42.7868962" lon="11.7896542"><ele>342.0</ele><time>2026-04-11T09:05:41.428Z</time></trkpt><trkpt lat="42.7870184" lon="11.7896058"><ele>340.25</ele><time>2026-04-11T09:05:42.431Z</time></trkpt><trkpt lat="42.7871482" lon="11.7895745"><ele>338.5</ele><time>2026-04-11T09:05:43.429Z</time></trkpt><trkpt lat="42.787282" lon="11.7895565"><ele>336.75</ele><time>2026-04-11T09:05:44.436Z</time></trkpt><trkpt lat="42.7873994" lon="11.7895478"><ele>335.0</ele><time>2026-04-11T09:05:45.427Z</time></trkpt><trkpt lat="42.787503" lon="11.7895309"><ele>335.0</ele><time>2026-04-11T09:05:46.435Z</time></trkpt><trkpt lat="42.7875983" lon="11.7895034"><ele>335.0</ele><time>2026-04-11T09:05:47.423Z</time></trkpt><trkpt lat="42.787694" lon="11.789447"><ele>335.0</ele><time>2026-04-11T09:05:48.419Z</time></trkpt><trkpt lat="42.7877781" lon="11.7893647"><ele>335.0</ele><time>2026-04-11T09:05:49.433Z</time></trkpt><trkpt lat="42.7878542" lon="11.7892701"><ele>335.0</ele><time>2026-04-11T09:05:50.421Z</time></trkpt><trkpt lat="42.787909" lon="11.789165"><ele>334.8</ele><time>2026-04-11T09:05:51.428Z</time></trkpt><trkpt lat="42.7879433" lon="11.789046"><ele>334.6</ele><time>2026-04-11T09:05:52.432Z</time></trkpt><trkpt lat="42.7879474" lon="11.7889189"><ele>334.4</ele><time>2026-04-11T09:05:53.428Z</time></trkpt><trkpt lat="42.7879272" lon="11.7887895"><ele>334.2</ele><time>2026-04-11T09:05:54.436Z</time></trkpt><trkpt lat="42.7878772" lon="11.7886543"><ele>334.0</ele><time>2026-04-11T09:05:55.431Z</time></trkpt><trkpt lat="42.7877953" lon="11.7885028"><ele>335.25</ele><time>2026-04-11T09:05:56.432Z</time></trkpt><trkpt lat="42.7877018" lon="11.7883361"><ele>336.5</ele><time>2026-04-11T09:05:57.434Z</time></trkpt><trkpt lat="42.7876224" lon="11.7881616"><ele>337.75</ele><time>2026-04-11T09:05:58.439Z</time></trkpt><trkpt lat="42.78757" lon="11.7879902"><ele>339.0</ele><time>2026-04-11T09:05:59.427Z</time></trkpt><trkpt lat="42.7875415" lon="11.7878148"><ele>335.75</ele><time>2026-04-11T09:06:00.429Z</time></trkpt><trkpt lat="42.7875309" lon="11.7876374"><ele>332.5</ele><time>2026-04-11T09:06:01.427Z</time></trkpt><trkpt lat="42.7875335" lon="11.787447"><ele>329.25</ele><time>2026-04-11T09:06:02.443Z</time></trkpt><trkpt lat="42.7875461" lon="11.7872377"><ele>326.0</ele><time>2026-04-11T09:06:03.437Z</time></trkpt><trkpt lat="42.7875389" lon="11.7870458"><ele>326.0</ele><time>2026-04-11T09:06:04.436Z</time></trkpt><trkpt lat="42.7875313" lon="11.7868482"><ele>326.0</ele><time>2026-04-11T09:06:05.436Z</time></trkpt><trkpt lat="42.7875237" lon="11.7866257"><ele>326.0</ele><time>2026-04-11T09:06:06.441Z</time></trkpt><trkpt lat="42.7875079" lon="11.7864121"><ele>324.33333333333337</ele><time>2026-04-11T09:06:07.432Z</time></trkpt><trkpt lat="42.7874958" lon="11.7861904"><ele>322.6666666666667</ele><time>2026-04-11T09:06:08.438Z</time></trkpt><trkpt lat="42.7874902" lon="11.7859745"><ele>321.0</ele><time>2026-04-11T09:06:09.435Z</time></trkpt><trkpt lat="42.7874948" lon="11.7857601"><ele>320.0</ele><time>2026-04-11T09:06:10.426Z</time></trkpt><trkpt lat="42.7875012" lon="11.7855477"><ele>319.0</ele><time>2026-04-11T09:06:11.452Z</time></trkpt><trkpt lat="42.7875038" lon="11.7853279"><ele>318.0</ele><time>2026-04-11T09:06:12.438Z</time></trkpt><trkpt lat="42.7875131" lon="11.7851005"><ele>318.0</ele><time>2026-04-11T09:06:13.447Z</time></trkpt><trkpt lat="42.7875089" lon="11.7848652"><ele>318.0</ele><time>2026-04-11T09:06:14.429Z</time></trkpt><trkpt lat="42.7874893" lon="11.7846269"><ele>318.0</ele><time>2026-04-11T09:06:15.431Z</time></trkpt><trkpt lat="42.7874732" lon="11.7843959"><ele>317.6666666666667</ele><time>2026-04-11T09:06:16.432Z</time></trkpt><trkpt lat="42.7874629" lon="11.7841741"><ele>317.33333333333337</ele><time>2026-04-11T09:06:17.422Z</time></trkpt><trkpt lat="42.7874745" lon="11.7839763"><ele>317.0</ele><time>2026-04-11T09:06:18.426Z</time></trkpt><trkpt lat="42.7874949" lon="11.7837838"><ele>317.0</ele><time>2026-04-11T09:06:19.43Z</time></trkpt><trkpt lat="42.7874899" lon="11.7835709"><ele>317.0</ele><time>2026-04-11T09:06:20.434Z</time></trkpt><trkpt lat="42.7874695" lon="11.7833627"><ele>317.0</ele><time>2026-04-11T09:06:21.434Z</time></trkpt><trkpt lat="42.7874542" lon="11.7831542"><ele>315.33333333333337</ele><time>2026-04-11T09:06:22.435Z</time></trkpt><trkpt lat="42.7874716" lon="11.7829533"><ele>313.6666666666667</ele><time>2026-04-11T09:06:23.438Z</time></trkpt><trkpt lat="42.7875111" lon="11.7827454"><ele>312.0</ele><time>2026-04-11T09:06:24.433Z</time></trkpt><trkpt lat="42.7875511" lon="11.7825196"><ele>311.6666666666667</ele><time>2026-04-11T09:06:25.438Z</time></trkpt><trkpt lat="42.7875798" lon="11.7823106"><ele>311.33333333333337</ele><time>2026-04-11T09:06:26.435Z</time></trkpt><trkpt lat="42.787608" lon="11.7820936"><ele>311.0</ele><time>2026-04-11T09:06:27.438Z</time></trkpt><trkpt lat="42.7876328" lon="11.7818805"><ele>310.25</ele><time>2026-04-11T09:06:28.436Z</time></trkpt><trkpt lat="42.7876665" lon="11.7816875"><ele>309.5</ele><time>2026-04-11T09:06:29.457Z</time></trkpt><trkpt lat="42.7876962" lon="11.7815012"><ele>308.75</ele><time>2026-04-11T09:06:30.434Z</time></trkpt><trkpt lat="42.7877276" lon="11.7813061"><ele>308.0</ele><time>2026-04-11T09:06:31.441Z</time></trkpt><trkpt lat="42.7877609" lon="11.7811233"><ele>308.6666666666667</ele><time>2026-04-11T09:06:32.433Z</time></trkpt><trkpt lat="42.7877912" lon="11.7809028"><ele>309.3333333333333</ele><time>2026-04-11T09:06:33.442Z</time></trkpt><trkpt lat="42.7878142" lon="11.7806787"><ele>310.0</ele><time>2026-04-11T09:06:34.442Z</time></trkpt><trkpt lat="42.7878328" lon="11.7804689"><ele>310.0</ele><time>2026-04-11T09:06:35.431Z</time></trkpt><trkpt lat="42.7878666" lon="11.7802549"><ele>310.0</ele><time>2026-04-11T09:06:36.438Z</time></trkpt><trkpt lat="42.7879047" lon="11.780053"><ele>310.0</ele><time>2026-04-11T09:06:37.432Z</time></trkpt><trkpt lat="42.787924" lon="11.7798191"><ele>308.0</ele><time>2026-04-11T09:06:38.438Z</time></trkpt><trkpt lat="42.7879419" lon="11.7795757"><ele>306.0</ele><time>2026-04-11T09:06:39.429Z</time></trkpt><trkpt lat="42.7879496" lon="11.7793271"><ele>304.0</ele><time>2026-04-11T09:06:40.441Z</time></trkpt><trkpt lat="42.787964" lon="11.779063"><ele>302.3333333333333</ele><time>2026-04-11T09:06:41.443Z</time></trkpt><trkpt lat="42.7879896" lon="11.7787957"><ele>300.6666666666667</ele><time>2026-04-11T09:06:42.436Z</time></trkpt><trkpt lat="42.7880176" lon="11.7785322"><ele>299.0</ele><time>2026-04-11T09:06:43.435Z</time></trkpt><trkpt lat="42.7880323" lon="11.7782932"><ele>298.6666666666667</ele><time>2026-04-11T09:06:44.434Z</time></trkpt><trkpt lat="42.7880389" lon="11.778054"><ele>298.3333333333333</ele><time>2026-04-11T09:06:45.435Z</time></trkpt><trkpt lat="42.788052" lon="11.7778304"><ele>298.0</ele><time>2026-04-11T09:06:46.431Z</time></trkpt><trkpt lat="42.7880824" lon="11.7776326"><ele>298.0</ele><time>2026-04-11T09:06:47.435Z</time></trkpt><trkpt lat="42.7881109" lon="11.7774599"><ele>298.0</ele><time>2026-04-11T09:06:48.428Z</time></trkpt><trkpt lat="42.7881226" lon="11.7772934"><ele>298.0</ele><time>2026-04-11T09:06:49.428Z</time></trkpt><trkpt lat="42.7881217" lon="11.7771522"><ele>298.0</ele><time>2026-04-11T09:06:50.432Z</time></trkpt><trkpt lat="42.7880875" lon="11.7770126"><ele>298.0</ele><time>2026-04-11T09:06:51.427Z</time></trkpt><trkpt lat="42.7880181" lon="11.7769169"><ele>298.0</ele><time>2026-04-11T09:06:52.423Z</time></trkpt><trkpt lat="42.7879323" lon="11.7768323"><ele>298.0</ele><time>2026-04-11T09:06:53.44Z</time></trkpt><trkpt lat="42.7878234" lon="11.7767535"><ele>298.0</ele><time>2026-04-11T09:06:54.433Z</time></trkpt><trkpt lat="42.7877036" lon="11.776688"><ele>298.4</ele><time>2026-04-11T09:06:55.43Z</time></trkpt><trkpt lat="42.7875849" lon="11.7766562"><ele>298.8</ele><time>2026-04-11T09:06:56.433Z</time></trkpt><trkpt lat="42.7874811" lon="11.7766412"><ele>299.2</ele><time>2026-04-11T09:06:57.425Z</time></trkpt><trkpt lat="42.7873922" lon="11.7766164"><ele>299.6</ele><time>2026-04-11T09:06:58.426Z</time></trkpt><trkpt lat="42.7873231" lon="11.7765801"><ele>300.0</ele><time>2026-04-11T09:06:59.424Z</time></trkpt><trkpt lat="42.7872643" lon="11.7765228"><ele>300.0</ele><time>2026-04-11T09:07:00.435Z</time></trkpt><trkpt lat="42.7872225" lon="11.7764308"><ele>300.0</ele><time>2026-04-11T09:07:01.424Z</time></trkpt><trkpt lat="42.787195" lon="11.7762869"><ele>300.0</ele><time>2026-04-11T09:07:02.427Z</time></trkpt><trkpt lat="42.7871696" lon="11.7761237"><ele>300.0</ele><time>2026-04-11T09:07:03.431Z</time></trkpt><trkpt lat="42.7871322" lon="11.7759771"><ele>300.0</ele><time>2026-04-11T09:07:04.428Z</time></trkpt><trkpt lat="42.7870938" lon="11.7758326"><ele>299.75</ele><time>2026-04-11T09:07:05.439Z</time></trkpt><trkpt lat="42.7870579" lon="11.7756885"><ele>299.5</ele><time>2026-04-11T09:07:06.432Z</time></trkpt><trkpt lat="42.7870226" lon="11.7755364"><ele>299.25</ele><time>2026-04-11T09:07:07.434Z</time></trkpt><trkpt lat="42.7869938" lon="11.7753738"><ele>299.0</ele><time>2026-04-11T09:07:08.433Z</time></trkpt><trkpt lat="42.7869763" lon="11.775199"><ele>299.0</ele><time>2026-04-11T09:07:09.434Z</time></trkpt><trkpt lat="42.7869784" lon="11.7750122"><ele>299.0</ele><time>2026-04-11T09:07:10.421Z</time></trkpt><trkpt lat="42.7869911" lon="11.7748294"><ele>299.0</ele><time>2026-04-11T09:07:11.421Z</time></trkpt><trkpt lat="42.7870113" lon="11.7746466"><ele>299.0</ele><time>2026-04-11T09:07:12.424Z</time></trkpt><trkpt lat="42.787061" lon="11.7744589"><ele>298.33333333333337</ele><time>2026-04-11T09:07:13.425Z</time></trkpt><trkpt lat="42.7871337" lon="11.7742654"><ele>297.6666666666667</ele><time>2026-04-11T09:07:14.423Z</time></trkpt><trkpt lat="42.7872222" lon="11.7740472"><ele>297.0</ele><time>2026-04-11T09:07:15.428Z</time></trkpt><trkpt lat="42.7873038" lon="11.7738341"><ele>297.0</ele><time>2026-04-11T09:07:16.432Z</time></trkpt><trkpt lat="42.7873545" lon="11.7736006"><ele>297.0</ele><time>2026-04-11T09:07:17.431Z</time></trkpt><trkpt lat="42.7873928" lon="11.7733964"><ele>297.0</ele><time>2026-04-11T09:07:18.429Z</time></trkpt><trkpt lat="42.7874246" lon="11.7732224"><ele>297.75</ele><time>2026-04-11T09:07:19.439Z</time></trkpt><trkpt lat="42.7874451" lon="11.7730478"><ele>298.5</ele><time>2026-04-11T09:07:20.435Z</time></trkpt><trkpt lat="42.7874549" lon="11.7728888"><ele>299.25</ele><time>2026-04-11T09:07:21.427Z</time></trkpt><trkpt lat="42.7874747" lon="11.7727457"><ele>300.0</ele><time>2026-04-11T09:07:22.433Z</time></trkpt><trkpt lat="42.7875123" lon="11.7725873"><ele>300.5</ele><time>2026-04-11T09:07:23.431Z</time></trkpt><trkpt lat="42.7875507" lon="11.7724337"><ele>301.0</ele><time>2026-04-11T09:07:24.427Z</time></trkpt><trkpt lat="42.7875773" lon="11.7722678"><ele>301.5</ele><time>2026-04-11T09:07:25.436Z</time></trkpt><trkpt lat="42.7876027" lon="11.7721005"><ele>302.0</ele><time>2026-04-11T09:07:26.433Z</time></trkpt><trkpt lat="42.7876235" lon="11.771924"><ele>302.0</ele><time>2026-04-11T09:07:27.422Z</time></trkpt><trkpt lat="42.787633" lon="11.7717348"><ele>302.0</ele><time>2026-04-11T09:07:28.426Z</time></trkpt><trkpt lat="42.7876229" lon="11.7715356"><ele>302.0</ele><time>2026-04-11T09:07:29.433Z</time></trkpt><trkpt lat="42.7876007" lon="11.7713116"><ele>302.0</ele><time>2026-04-11T09:07:30.44Z</time></trkpt><trkpt lat="42.7875805" lon="11.7710811"><ele>302.0</ele><time>2026-04-11T09:07:31.434Z</time></trkpt><trkpt lat="42.7875666" lon="11.7708316"><ele>302.0</ele><time>2026-04-11T09:07:32.429Z</time></trkpt><trkpt lat="42.7875533" lon="11.7705841"><ele>302.6666666666667</ele><time>2026-04-11T09:07:33.432Z</time></trkpt><trkpt lat="42.7875326" lon="11.7702984"><ele>303.3333333333333</ele><time>2026-04-11T09:07:34.421Z</time></trkpt><trkpt lat="42.7875343" lon="11.7700374"><ele>304.0</ele><time>2026-04-11T09:07:35.428Z</time></trkpt><trkpt lat="42.7875236" lon="11.7697603"><ele>304.66666666666663</ele><time>2026-04-11T09:07:36.433Z</time></trkpt><trkpt lat="42.7875183" lon="11.7694746"><ele>305.3333333333333</ele><time>2026-04-11T09:07:37.435Z</time></trkpt><trkpt lat="42.7875317" lon="11.7691923"><ele>306.0</ele><time>2026-04-11T09:07:38.431Z</time></trkpt><trkpt lat="42.7875139" lon="11.7688889"><ele>306.0</ele><time>2026-04-11T09:07:39.438Z</time></trkpt><trkpt lat="42.7874714" lon="11.7685775"><ele>306.0</ele><time>2026-04-11T09:07:40.427Z</time></trkpt><trkpt lat="42.7874585" lon="11.7682598"><ele>306.3333333333333</ele><time>2026-04-11T09:07:41.43Z</time></trkpt><trkpt lat="42.7874335" lon="11.7679542"><ele>306.66666666666663</ele><time>2026-04-11T09:07:42.427Z</time></trkpt><trkpt lat="42.7874335" lon="11.767692"><ele>307.0</ele><time>2026-04-11T09:07:43.428Z</time></trkpt><trkpt lat="42.7874285" lon="11.7674681"><ele>307.3333333333333</ele><time>2026-04-11T09:07:44.42Z</time></trkpt><trkpt lat="42.787442" lon="11.7672146"><ele>307.6666666666667</ele><time>2026-04-11T09:07:45.435Z</time></trkpt><trkpt lat="42.7874225" lon="11.7669456"><ele>308.0</ele><time>2026-04-11T09:07:46.437Z</time></trkpt><trkpt lat="42.7874167" lon="11.7666937"><ele>308.33333333333337</ele><time>2026-04-11T09:07:47.442Z</time></trkpt><trkpt lat="42.7873976" lon="11.7664296"><ele>308.6666666666667</ele><time>2026-04-11T09:07:48.446Z</time></trkpt><trkpt lat="42.787388" lon="11.7661546"><ele>309.0</ele><time>2026-04-11T09:07:49.448Z</time></trkpt><trkpt lat="42.7873437" lon="11.7658853"><ele>310.6666666666667</ele><time>2026-04-11T09:07:50.437Z</time></trkpt><trkpt lat="42.7873187" lon="11.7656313"><ele>312.33333333333337</ele><time>2026-04-11T09:07:51.433Z</time></trkpt><trkpt lat="42.7872897" lon="11.7653789"><ele>314.0</ele><time>2026-04-11T09:07:52.446Z</time></trkpt><trkpt lat="42.7872742" lon="11.7651408"><ele>317.0</ele><time>2026-04-11T09:07:53.439Z</time></trkpt><trkpt lat="42.7872477" lon="11.7649077"><ele>320.0</ele><time>2026-04-11T09:07:54.434Z</time></trkpt><trkpt lat="42.7872234" lon="11.7646578"><ele>323.0</ele><time>2026-04-11T09:07:55.434Z</time></trkpt><trkpt lat="42.7872077" lon="11.7644371"><ele>325.0</ele><time>2026-04-11T09:07:56.427Z</time></trkpt><trkpt lat="42.7871898" lon="11.7642044"><ele>327.0</ele><time>2026-04-11T09:07:57.423Z</time></trkpt><trkpt lat="42.78717" lon="11.76396"><ele>329.0</ele><time>2026-04-11T09:07:58.431Z</time></trkpt><trkpt lat="42.7871329" lon="11.7636995"><ele>330.0</ele><time>2026-04-11T09:07:59.427Z</time></trkpt><trkpt lat="42.7871123" lon="11.763448"><ele>331.0</ele><time>2026-04-11T09:08:00.426Z</time></trkpt><trkpt lat="42.7870876" lon="11.7632174"><ele>332.0</ele><time>2026-04-11T09:08:01.438Z</time></trkpt><trkpt lat="42.7870907" lon="11.7629647"><ele>332.0</ele><time>2026-04-11T09:08:02.43Z</time></trkpt><trkpt lat="42.7870664" lon="11.7627524"><ele>332.0</ele><time>2026-04-11T09:08:03.437Z</time></trkpt><trkpt lat="42.7870239" lon="11.7625261"><ele>332.0</ele><time>2026-04-11T09:08:04.428Z</time></trkpt><trkpt lat="42.7869992" lon="11.7623004"><ele>331.6666666666667</ele><time>2026-04-11T09:08:05.428Z</time></trkpt><trkpt lat="42.7869896" lon="11.7620744"><ele>331.3333333333333</ele><time>2026-04-11T09:08:06.44Z</time></trkpt><trkpt lat="42.7869657" lon="11.761831"><ele>331.0</ele><time>2026-04-11T09:08:07.436Z</time></trkpt><trkpt lat="42.7869468" lon="11.7615971"><ele>331.66666666666663</ele><time>2026-04-11T09:08:08.437Z</time></trkpt><trkpt lat="42.7869013" lon="11.7613494"><ele>332.3333333333333</ele><time>2026-04-11T09:08:09.432Z</time></trkpt><trkpt lat="42.7868722" lon="11.7611041"><ele>333.0</ele><time>2026-04-11T09:08:10.446Z</time></trkpt><trkpt lat="42.786855" lon="11.7608318"><ele>330.6666666666667</ele><time>2026-04-11T09:08:11.425Z</time></trkpt><trkpt lat="42.7868338" lon="11.7605406"><ele>328.33333333333337</ele><time>2026-04-11T09:08:12.426Z</time></trkpt><trkpt lat="42.786812" lon="11.7602946"><ele>326.0</ele><time>2026-04-11T09:08:13.426Z</time></trkpt><trkpt lat="42.7867996" lon="11.7600901"><ele>326.0</ele><time>2026-04-11T09:08:14.427Z</time></trkpt><trkpt lat="42.7867907" lon="11.7598627"><ele>326.0</ele><time>2026-04-11T09:08:15.421Z</time></trkpt><trkpt lat="42.7867684" lon="11.7596607"><ele>326.0</ele><time>2026-04-11T09:08:16.428Z</time></trkpt><trkpt lat="42.7867342" lon="11.7594603"><ele>327.6666666666667</ele><time>2026-04-11T09:08:17.419Z</time></trkpt><trkpt lat="42.7867146" lon="11.7592324"><ele>329.3333333333333</ele><time>2026-04-11T09:08:18.423Z</time></trkpt><trkpt lat="42.7866879" lon="11.7589875"><ele>331.0</ele><time>2026-04-11T09:08:19.43Z</time></trkpt><trkpt lat="42.7866689" lon="11.7587493"><ele>333.3333333333333</ele><time>2026-04-11T09:08:20.423Z</time></trkpt><trkpt lat="42.7866564" lon="11.7585143"><ele>335.6666666666667</ele><time>2026-04-11T09:08:21.428Z</time></trkpt><trkpt lat="42.7866436" lon="11.7583078"><ele>338.0</ele><time>2026-04-11T09:08:22.424Z</time></trkpt><trkpt lat="42.7866265" lon="11.7581046"><ele>338.0</ele><time>2026-04-11T09:08:23.432Z</time></trkpt><trkpt lat="42.7865989" lon="11.7579195"><ele>338.0</ele><time>2026-04-11T09:08:24.431Z</time></trkpt><trkpt lat="42.7866061" lon="11.7577641"><ele>338.0</ele><time>2026-04-11T09:08:25.416Z</time></trkpt><trkpt lat="42.7865978" lon="11.7576236"><ele>338.0</ele><time>2026-04-11T09:08:26.415Z</time></trkpt><trkpt lat="42.7865553" lon="11.7575159"><ele>338.0</ele><time>2026-04-11T09:08:27.417Z</time></trkpt><trkpt lat="42.7865998" lon="11.7574522"><ele>338.79999999999995</ele><time>2026-04-11T09:08:29.421Z</time></trkpt><trkpt lat="42.7866413" lon="11.7573864"><ele>339.6</ele><time>2026-04-11T09:09:44.446Z</time></trkpt><trkpt lat="42.786707" lon="11.7572797"><ele>340.4</ele><time>2026-04-11T09:13:57.464Z</time></trkpt><trkpt lat="42.7867499" lon="11.7571937"><ele>341.20000000000005</ele><time>2026-04-11T09:13:58.452Z</time></trkpt><trkpt lat="42.7868182" lon="11.7570644"><ele>342.0</ele><time>2026-04-11T09:13:59.449Z</time></trkpt><trkpt lat="42.7868935" lon="11.7569195"><ele>343.0</ele><time>2026-04-11T09:14:00.458Z</time></trkpt><trkpt lat="42.7869688" lon="11.7567596"><ele>344.0</ele><time>2026-04-11T09:14:01.459Z</time></trkpt><trkpt lat="42.7870529" lon="11.7565651"><ele>345.0</ele><time>2026-04-11T09:14:02.463Z</time></trkpt><trkpt lat="42.7871297" lon="11.756311"><ele>344.5</ele><time>2026-04-11T09:14:03.456Z</time></trkpt><trkpt lat="42.7872216" lon="11.7560024"><ele>344.0</ele><time>2026-04-11T09:14:04.449Z</time></trkpt><trkpt lat="42.7873476" lon="11.7557153"><ele>344.0</ele><time>2026-04-11T09:14:05.468Z</time></trkpt><trkpt lat="42.7874681" lon="11.7554383"><ele>344.0</ele><time>2026-04-11T09:14:06.466Z</time></trkpt><trkpt lat="42.7875707" lon="11.7551836"><ele>344.0</ele><time>2026-04-11T09:14:07.458Z</time></trkpt><trkpt lat="42.7876704" lon="11.7549385"><ele>344.0</ele><time>2026-04-11T09:14:08.465Z</time></trkpt><trkpt lat="42.7877788" lon="11.7546798"><ele>344.0</ele><time>2026-04-11T09:14:09.466Z</time></trkpt><trkpt lat="42.787915" lon="11.7544123"><ele>345.0</ele><time>2026-04-11T09:14:10.461Z</time></trkpt><trkpt lat="42.7880356" lon="11.7541403"><ele>346.0</ele><time>2026-04-11T09:14:11.458Z</time></trkpt><trkpt lat="42.7881327" lon="11.7538655"><ele>346.0</ele><time>2026-04-11T09:14:12.468Z</time></trkpt><trkpt lat="42.7882376" lon="11.7536246"><ele>346.0</ele><time>2026-04-11T09:14:13.456Z</time></trkpt><trkpt lat="42.7883515" lon="11.7533456"><ele>346.0</ele><time>2026-04-11T09:14:14.461Z</time></trkpt><trkpt lat="42.7884716" lon="11.7530724"><ele>346.0</ele><time>2026-04-11T09:14:15.461Z</time></trkpt><trkpt lat="42.7885946" lon="11.7527798"><ele>346.0</ele><time>2026-04-11T09:14:16.457Z</time></trkpt><trkpt lat="42.7887011" lon="11.7525282"><ele>346.5</ele><time>2026-04-11T09:14:17.46Z</time></trkpt><trkpt lat="42.7888331" lon="11.7522594"><ele>347.0</ele><time>2026-04-11T09:14:18.465Z</time></trkpt><trkpt lat="42.7889555" lon="11.7520067"><ele>348.33333333333337</ele><time>2026-04-11T09:14:19.462Z</time></trkpt><trkpt lat="42.7890452" lon="11.7517866"><ele>349.6666666666667</ele><time>2026-04-11T09:14:20.463Z</time></trkpt><trkpt lat="42.7891579" lon="11.7515341"><ele>351.0</ele><time>2026-04-11T09:14:21.463Z</time></trkpt><trkpt lat="42.7892917" lon="11.7513074"><ele>350.6666666666667</ele><time>2026-04-11T09:14:22.463Z</time></trkpt><trkpt lat="42.7893511" lon="11.751102"><ele>350.33333333333337</ele><time>2026-04-11T09:14:23.464Z</time></trkpt><trkpt lat="42.7894062" lon="11.7509014"><ele>350.0</ele><time>2026-04-11T09:14:24.457Z</time></trkpt><trkpt lat="42.7894648" lon="11.750721"><ele>350.5</ele><time>2026-04-11T09:14:25.452Z</time></trkpt><trkpt lat="42.7895148" lon="11.7505377"><ele>351.0</ele><time>2026-04-11T09:14:26.457Z</time></trkpt><trkpt lat="42.789557" lon="11.7503948"><ele>351.5</ele><time>2026-04-11T09:14:27.463Z</time></trkpt><trkpt lat="42.789631" lon="11.7502914"><ele>352.0</ele><time>2026-04-11T09:14:28.459Z</time></trkpt><trkpt lat="42.7896926" lon="11.7501478"><ele>353.16666666666663</ele><time>2026-04-11T09:14:29.464Z</time></trkpt><trkpt lat="42.7897349" lon="11.7500394"><ele>354.3333333333333</ele><time>2026-04-11T09:14:30.465Z</time></trkpt><trkpt lat="42.7897782" lon="11.749975"><ele>355.5</ele><time>2026-04-11T09:14:31.46Z</time></trkpt><trkpt lat="42.7898231" lon="11.749879"><ele>356.6666666666667</ele><time>2026-04-11T09:14:33.454Z</time></trkpt><trkpt lat="42.789747" lon="11.749941"><ele>357.83333333333337</ele><time>2026-04-11T09:14:42.473Z</time></trkpt><trkpt lat="42.789727" lon="11.7500467"><ele>359.0</ele><time>2026-04-11T09:14:43.472Z</time></trkpt><trkpt lat="42.7897019" lon="11.7501927"><ele>356.6666666666667</ele><time>2026-04-11T09:14:44.451Z</time></trkpt><trkpt lat="42.7896549" lon="11.7503549"><ele>354.3333333333333</ele><time>2026-04-11T09:14:45.455Z</time></trkpt><trkpt lat="42.7895919" lon="11.7505356"><ele>352.0</ele><time>2026-04-11T09:14:46.455Z</time></trkpt><trkpt lat="42.7894916" lon="11.7507689"><ele>351.5</ele><time>2026-04-11T09:14:47.45Z</time></trkpt><trkpt lat="42.7893501" lon="11.7510632"><ele>351.0</ele><time>2026-04-11T09:14:48.455Z</time></trkpt><trkpt lat="42.7892052" lon="11.7513865"><ele>351.0</ele><time>2026-04-11T09:14:49.463Z</time></trkpt><trkpt lat="42.7890785" lon="11.751668"><ele>351.0</ele><time>2026-04-11T09:14:50.457Z</time></trkpt><trkpt lat="42.7889379" lon="11.7519899"><ele>349.0</ele><time>2026-04-11T09:14:51.461Z</time></trkpt><trkpt lat="42.7888124" lon="11.7522839"><ele>347.0</ele><time>2026-04-11T09:14:52.459Z</time></trkpt><trkpt lat="42.7886685" lon="11.7526088"><ele>347.0</ele><time>2026-04-11T09:14:53.468Z</time></trkpt><trkpt lat="42.7885381" lon="11.7529226"><ele>347.0</ele><time>2026-04-11T09:14:54.469Z</time></trkpt><trkpt lat="42.7884061" lon="11.7531922"><ele>347.0</ele><time>2026-04-11T09:14:55.466Z</time></trkpt><trkpt lat="42.788271" lon="11.7535069"><ele>347.0</ele><time>2026-04-11T09:14:56.468Z</time></trkpt><trkpt lat="42.7881362" lon="11.7538247"><ele>346.5</ele><time>2026-04-11T09:14:57.465Z</time></trkpt><trkpt lat="42.7880053" lon="11.7541509"><ele>346.0</ele><time>2026-04-11T09:14:58.468Z</time></trkpt><trkpt lat="42.7878873" lon="11.7544652"><ele>346.0</ele><time>2026-04-11T09:14:59.466Z</time></trkpt><trkpt lat="42.7877496" lon="11.75476"><ele>346.0</ele><time>2026-04-11T09:15:00.464Z</time></trkpt><trkpt lat="42.7876313" lon="11.7550449"><ele>345.0</ele><time>2026-04-11T09:15:01.463Z</time></trkpt><trkpt lat="42.7875171" lon="11.7553"><ele>344.0</ele><time>2026-04-11T09:15:02.459Z</time></trkpt><trkpt lat="42.7873924" lon="11.7555806"><ele>344.0</ele><time>2026-04-11T09:15:03.463Z</time></trkpt><trkpt lat="42.7873083" lon="11.7558127"><ele>344.0</ele><time>2026-04-11T09:15:04.453Z</time></trkpt><trkpt lat="42.7872394" lon="11.7559991"><ele>344.0</ele><time>2026-04-11T09:15:05.458Z</time></trkpt><trkpt lat="42.7871736" lon="11.7561852"><ele>344.25</ele><time>2026-04-11T09:15:06.456Z</time></trkpt><trkpt lat="42.7870895" lon="11.7563671"><ele>344.5</ele><time>2026-04-11T09:15:07.462Z</time></trkpt><trkpt lat="42.7870084" lon="11.7565553"><ele>344.75</ele><time>2026-04-11T09:15:08.456Z</time></trkpt><trkpt lat="42.7869639" lon="11.7567092"><ele>345.0</ele><time>2026-04-11T09:15:09.46Z</time></trkpt><trkpt lat="42.7869083" lon="11.7568423"><ele>344.8</ele><time>2026-04-11T09:15:10.457Z</time></trkpt><trkpt lat="42.7868558" lon="11.7569811"><ele>344.6</ele><time>2026-04-11T09:15:11.45Z</time></trkpt><trkpt lat="42.7867847" lon="11.7571083"><ele>344.4</ele><time>2026-04-11T09:15:12.455Z</time></trkpt><trkpt lat="42.7867296" lon="11.7572277"><ele>344.2</ele><time>2026-04-11T09:15:13.449Z</time></trkpt><trkpt lat="42.7866853" lon="11.757327"><ele>344.0</ele><time>2026-04-11T09:15:14.459Z</time></trkpt><trkpt lat="42.7866594" lon="11.7574065"><ele>343.6</ele><time>2026-04-11T09:15:15.445Z</time></trkpt><trkpt lat="42.7866197" lon="11.7575081"><ele>343.2</ele><time>2026-04-11T09:15:17.454Z</time></trkpt><trkpt lat="42.7866496" lon="11.7576038"><ele>342.8</ele><time>2026-04-11T09:15:22.463Z</time></trkpt><trkpt lat="42.7867159" lon="11.7575815"><ele>342.40000000000003</ele><time>2026-04-11T09:15:24.481Z</time></trkpt><trkpt lat="42.7867883" lon="11.757458"><ele>342.0</ele><time>2026-04-11T09:15:26.467Z</time></trkpt><trkpt lat="42.7868246" lon="11.7573072"><ele>342.6666666666667</ele><time>2026-04-11T09:15:27.464Z</time></trkpt><trkpt lat="42.7868779" lon="11.7571335"><ele>343.33333333333337</ele><time>2026-04-11T09:15:28.454Z</time></trkpt><trkpt lat="42.7869538" lon="11.7569202"><ele>344.0</ele><time>2026-04-11T09:15:29.454Z</time></trkpt><trkpt lat="42.7870389" lon="11.7566692"><ele>344.0</ele><time>2026-04-11T09:15:30.46Z</time></trkpt><trkpt lat="42.7871338" lon="11.7563359"><ele>344.0</ele><time>2026-04-11T09:15:31.449Z</time></trkpt><trkpt lat="42.7872294" lon="11.7560028"><ele>344.0</ele><time>2026-04-11T09:15:32.456Z</time></trkpt><trkpt lat="42.7873631" lon="11.7556741"><ele>344.0</ele><time>2026-04-11T09:15:33.455Z</time></trkpt><trkpt lat="42.7874996" lon="11.7553435"><ele>344.0</ele><time>2026-04-11T09:15:34.452Z</time></trkpt><trkpt lat="42.7876478" lon="11.7550171"><ele>344.0</ele><time>2026-04-11T09:15:35.461Z</time></trkpt><trkpt lat="42.7878001" lon="11.7546884"><ele>344.0</ele><time>2026-04-11T09:15:36.458Z</time></trkpt><trkpt lat="42.7879354" lon="11.7543812"><ele>344.0</ele><time>2026-04-11T09:15:37.457Z</time></trkpt><trkpt lat="42.7880614" lon="11.7540681"><ele>345.0</ele><time>2026-04-11T09:15:38.461Z</time></trkpt><trkpt lat="42.7881842" lon="11.7537739"><ele>346.0</ele><time>2026-04-11T09:15:39.465Z</time></trkpt><trkpt lat="42.788289" lon="11.7534969"><ele>346.0</ele><time>2026-04-11T09:15:40.472Z</time></trkpt><trkpt lat="42.78842" lon="11.7531806"><ele>346.0</ele><time>2026-04-11T09:15:41.468Z</time></trkpt><trkpt lat="42.7885609" lon="11.7528614"><ele>346.5</ele><time>2026-04-11T09:15:42.464Z</time></trkpt><trkpt lat="42.7887079" lon="11.7525367"><ele>347.0</ele><time>2026-04-11T09:15:43.467Z</time></trkpt><trkpt lat="42.7888233" lon="11.7522528"><ele>347.0</ele><time>2026-04-11T09:15:44.465Z</time></trkpt><trkpt lat="42.7889573" lon="11.751984"><ele>347.0</ele><time>2026-04-11T09:15:45.48Z</time></trkpt><trkpt lat="42.7890796" lon="11.7517058"><ele>348.33333333333337</ele><time>2026-04-11T09:15:46.468Z</time></trkpt><trkpt lat="42.7891737" lon="11.7514501"><ele>349.6666666666667</ele><time>2026-04-11T09:15:47.463Z</time></trkpt><trkpt lat="42.7892534" lon="11.7512264"><ele>351.0</ele><time>2026-04-11T09:15:48.457Z</time></trkpt><trkpt lat="42.7893406" lon="11.7510339"><ele>351.25</ele><time>2026-04-11T09:15:49.469Z</time></trkpt><trkpt lat="42.7894115" lon="11.7508589"><ele>351.5</ele><time>2026-04-11T09:15:50.458Z</time></trkpt><trkpt lat="42.7894772" lon="11.7507016"><ele>351.75</ele><time>2026-04-11T09:15:51.46Z</time></trkpt><trkpt lat="42.7895618" lon="11.7505503"><ele>352.0</ele><time>2026-04-11T09:15:52.469Z</time></trkpt><trkpt lat="42.7896199" lon="11.7504245"><ele>352.0</ele><time>2026-04-11T09:15:53.468Z</time></trkpt><trkpt lat="42.789662" lon="11.7503046"><ele>352.0</ele><time>2026-04-11T09:15:54.474Z</time></trkpt><trkpt lat="42.7897028" lon="11.7501873"><ele>352.0</ele><time>2026-04-11T09:15:55.464Z</time></trkpt><trkpt lat="42.7897283" lon="11.7500878"><ele>352.0</ele><time>2026-04-11T09:15:56.465Z</time></trkpt><trkpt lat="42.7897984" lon="11.7499715"><ele>352.0</ele><time>2026-04-11T09:15:58.468Z</time></trkpt><trkpt lat="42.7897228" lon="11.750095"><ele>352.0</ele><time>2026-04-11T09:16:06.467Z</time></trkpt><trkpt lat="42.7897038" lon="11.750221"><ele>352.0</ele><time>2026-04-11T09:16:07.463Z</time></trkpt><trkpt lat="42.7896623" lon="11.75036"><ele>352.0</ele><time>2026-04-11T09:16:08.461Z</time></trkpt><trkpt lat="42.7896018" lon="11.7505213"><ele>352.0</ele><time>2026-04-11T09:16:09.456Z</time></trkpt><trkpt lat="42.7895319" lon="11.7507003"><ele>352.0</ele><time>2026-04-11T09:16:10.454Z</time></trkpt><trkpt lat="42.7894206" lon="11.7509754"><ele>352.0</ele><time>2026-04-11T09:16:11.465Z</time></trkpt><trkpt lat="42.7892953" lon="11.7512523"><ele>351.5</ele><time>2026-04-11T09:16:12.459Z</time></trkpt><trkpt lat="42.7891558" lon="11.751556"><ele>351.0</ele><time>2026-04-11T09:16:13.458Z</time></trkpt><trkpt lat="42.7890303" lon="11.7518645"><ele>349.0</ele><time>2026-04-11T09:16:14.458Z</time></trkpt><trkpt lat="42.7888994" lon="11.7521832"><ele>347.0</ele><time>2026-04-11T09:16:15.455Z</time></trkpt><trkpt lat="42.788742" lon="11.7525083"><ele>347.0</ele><time>2026-04-11T09:16:16.466Z</time></trkpt><trkpt lat="42.7885872" lon="11.752855"><ele>347.0</ele><time>2026-04-11T09:16:17.455Z</time></trkpt><trkpt lat="42.7884416" lon="11.7532108"><ele>346.5</ele><time>2026-04-11T09:16:18.457Z</time></trkpt><trkpt lat="42.7882807" lon="11.753547"><ele>346.0</ele><time>2026-04-11T09:16:19.461Z</time></trkpt><trkpt lat="42.7881264" lon="11.7538739"><ele>346.0</ele><time>2026-04-11T09:16:20.46Z</time></trkpt><trkpt lat="42.787981" lon="11.7542038"><ele>346.0</ele><time>2026-04-11T09:16:21.464Z</time></trkpt><trkpt lat="42.7878526" lon="11.7545577"><ele>345.0</ele><time>2026-04-11T09:16:22.457Z</time></trkpt><trkpt lat="42.7877207" lon="11.754898"><ele>344.0</ele><time>2026-04-11T09:16:23.46Z</time></trkpt><trkpt lat="42.787571" lon="11.7552329"><ele>344.0</ele><time>2026-04-11T09:16:24.459Z</time></trkpt><trkpt lat="42.7874213" lon="11.7555411"><ele>344.0</ele><time>2026-04-11T09:16:25.462Z</time></trkpt><trkpt lat="42.7872878" lon="11.755858"><ele>344.5</ele><time>2026-04-11T09:16:26.461Z</time></trkpt><trkpt lat="42.7871651" lon="11.7561611"><ele>345.0</ele><time>2026-04-11T09:16:27.458Z</time></trkpt><trkpt lat="42.7870418" lon="11.7564294"><ele>345.0</ele><time>2026-04-11T09:16:28.452Z</time></trkpt><trkpt lat="42.7869607" lon="11.7566611"><ele>345.0</ele><time>2026-04-11T09:16:29.448Z</time></trkpt><trkpt lat="42.7868733" lon="11.7568768"><ele>345.0</ele><time>2026-04-11T09:16:30.453Z</time></trkpt><trkpt lat="42.786785" lon="11.7570553"><ele>344.4</ele><time>2026-04-11T09:16:31.449Z</time></trkpt><trkpt lat="42.786716" lon="11.7572064"><ele>343.8</ele><time>2026-04-11T09:16:32.454Z</time></trkpt><trkpt lat="42.7866628" lon="11.7573331"><ele>343.20000000000005</ele><time>2026-04-11T09:16:33.452Z</time></trkpt><trkpt lat="42.7865878" lon="11.7574266"><ele>342.6</ele><time>2026-04-11T09:16:34.453Z</time></trkpt><trkpt lat="42.7865526" lon="11.7575234"><ele>342.0</ele><time>2026-04-11T09:16:35.455Z</time></trkpt><trkpt lat="42.7865211" lon="11.7575983"><ele>342.0</ele><time>2026-04-11T09:16:36.455Z</time></trkpt></trkseg><trkseg><trkpt lat="42.7866257" lon="11.7575116"><ele>342.0</ele><time>2026-04-11T09:28:19.483Z</time></trkpt><trkpt lat="42.7866347" lon="11.75741"><ele>342.0</ele><time>2026-04-11T09:28:24.473Z</time></trkpt><trkpt lat="42.7866673" lon="11.7573343"><ele>342.0</ele><time>2026-04-11T09:28:26.462Z</time></trkpt><trkpt lat="42.7867247" lon="11.7571705"><ele>342.0</ele><time>2026-04-11T09:28:28.452Z</time></trkpt><trkpt lat="42.7867593" lon="11.7570495"><ele>342.0</ele><time>2026-04-11T09:28:29.455Z</time></trkpt><trkpt lat="42.7868058" lon="11.7569129"><ele>342.75</ele><time>2026-04-11T09:28:30.451Z</time></trkpt><trkpt lat="42.7868497" lon="11.7567877"><ele>343.5</ele><time>2026-04-11T09:28:31.45Z</time></trkpt><trkpt lat="42.7869212" lon="11.7566574"><ele>344.25</ele><time>2026-04-11T09:28:32.465Z</time></trkpt><trkpt lat="42.7869839" lon="11.7565175"><ele>345.0</ele><time>2026-04-11T09:28:33.449Z</time></trkpt><trkpt lat="42.7870487" lon="11.7563828"><ele>345.0</ele><time>2026-04-11T09:28:34.452Z</time></trkpt><trkpt lat="42.7871273" lon="11.7562304"><ele>345.0</ele><time>2026-04-11T09:28:35.459Z</time></trkpt><trkpt lat="42.7871864" lon="11.7560716"><ele>345.0</ele><time>2026-04-11T09:28:36.457Z</time></trkpt><trkpt lat="42.7872462" lon="11.7559095"><ele>345.0</ele><time>2026-04-11T09:28:37.465Z</time></trkpt><trkpt lat="42.7873099" lon="11.7557751"><ele>344.75</ele><time>2026-04-11T09:28:38.46Z</time></trkpt><trkpt lat="42.7873709" lon="11.7556436"><ele>344.5</ele><time>2026-04-11T09:28:39.459Z</time></trkpt><trkpt lat="42.7874307" lon="11.7555069"><ele>344.25</ele><time>2026-04-11T09:28:40.463Z</time></trkpt><trkpt lat="42.7875003" lon="11.7553458"><ele>344.0</ele><time>2026-04-11T09:28:41.448Z</time></trkpt><trkpt lat="42.7875795" lon="11.7551784"><ele>344.0</ele><time>2026-04-11T09:28:42.461Z</time></trkpt><trkpt lat="42.7876676" lon="11.7550181"><ele>344.0</ele><time>2026-04-11T09:28:43.456Z</time></trkpt><trkpt lat="42.7877564" lon="11.7548174"><ele>344.0</ele><time>2026-04-11T09:28:44.466Z</time></trkpt><trkpt lat="42.7878458" lon="11.7546281"><ele>344.0</ele><time>2026-04-11T09:28:45.457Z</time></trkpt><trkpt lat="42.7879155" lon="11.7544322"><ele>344.0</ele><time>2026-04-11T09:28:46.46Z</time></trkpt><trkpt lat="42.7880037" lon="11.7542341"><ele>344.0</ele><time>2026-04-11T09:28:47.46Z</time></trkpt><trkpt lat="42.7880855" lon="11.7540295"><ele>344.6666666666667</ele><time>2026-04-11T09:28:48.464Z</time></trkpt><trkpt lat="42.7881777" lon="11.7538066"><ele>345.3333333333333</ele><time>2026-04-11T09:28:49.458Z</time></trkpt><trkpt lat="42.7882707" lon="11.7536046"><ele>346.0</ele><time>2026-04-11T09:28:50.461Z</time></trkpt><trkpt lat="42.7883458" lon="11.7534064"><ele>346.0</ele><time>2026-04-11T09:28:51.459Z</time></trkpt><trkpt lat="42.7884244" lon="11.7531792"><ele>346.0</ele><time>2026-04-11T09:28:52.465Z</time></trkpt><trkpt lat="42.7885004" lon="11.7529882"><ele>346.0</ele><time>2026-04-11T09:28:53.466Z</time></trkpt><trkpt lat="42.7885689" lon="11.7528202"><ele>346.3333333333333</ele><time>2026-04-11T09:28:54.464Z</time></trkpt><trkpt lat="42.7886533" lon="11.7526137"><ele>346.6666666666667</ele><time>2026-04-11T09:28:55.47Z</time></trkpt><trkpt lat="42.7887579" lon="11.7524069"><ele>347.0</ele><time>2026-04-11T09:28:56.468Z</time></trkpt><trkpt lat="42.7888297" lon="11.7522197"><ele>347.0</ele><time>2026-04-11T09:28:57.468Z</time></trkpt><trkpt lat="42.7889135" lon="11.7520225"><ele>347.0</ele><time>2026-04-11T09:28:58.464Z</time></trkpt><trkpt lat="42.7890009" lon="11.7518206"><ele>347.0</ele><time>2026-04-11T09:28:59.464Z</time></trkpt><trkpt lat="42.7890754" lon="11.7516246"><ele>348.33333333333337</ele><time>2026-04-11T09:29:00.465Z</time></trkpt><trkpt lat="42.7891542" lon="11.7514301"><ele>349.6666666666667</ele><time>2026-04-11T09:29:01.463Z</time></trkpt><trkpt lat="42.7892401" lon="11.7512453"><ele>351.0</ele><time>2026-04-11T09:29:02.464Z</time></trkpt><trkpt lat="42.7893137" lon="11.7510639"><ele>351.25</ele><time>2026-04-11T09:29:03.469Z</time></trkpt><trkpt lat="42.7893856" lon="11.7508786"><ele>351.5</ele><time>2026-04-11T09:29:04.452Z</time></trkpt><trkpt lat="42.7894597" lon="11.7507037"><ele>351.75</ele><time>2026-04-11T09:29:05.452Z</time></trkpt><trkpt lat="42.7895321" lon="11.7505499"><ele>352.0</ele><time>2026-04-11T09:29:06.464Z</time></trkpt><trkpt lat="42.7895948" lon="11.7504066"><ele>352.0</ele><time>2026-04-11T09:29:07.459Z</time></trkpt><trkpt lat="42.7896632" lon="11.7502912"><ele>352.0</ele><time>2026-04-11T09:29:08.456Z</time></trkpt><trkpt lat="42.7897324" lon="11.7501841"><ele>352.0</ele><time>2026-04-11T09:29:09.445Z</time></trkpt><trkpt lat="42.7897725" lon="11.7500746"><ele>352.0</ele><time>2026-04-11T09:29:10.449Z</time></trkpt><trkpt lat="42.7898042" lon="11.7499867"><ele>352.0</ele><time>2026-04-11T09:29:11.452Z</time></trkpt><trkpt lat="42.789846" lon="11.7499201"><ele>352.0</ele><time>2026-04-11T09:29:12.44Z</time></trkpt><trkpt lat="42.789913" lon="11.7499095"><ele>353.25</ele><time>2026-04-11T09:29:14.449Z</time></trkpt><trkpt lat="42.7900518" lon="11.7499343"><ele>354.5</ele><time>2026-04-11T09:29:16.442Z</time></trkpt><trkpt lat="42.7901645" lon="11.749965"><ele>355.75</ele><time>2026-04-11T09:29:17.451Z</time></trkpt><trkpt lat="42.7902782" lon="11.7500145"><ele>357.0</ele><time>2026-04-11T09:29:18.451Z</time></trkpt><trkpt lat="42.7904018" lon="11.7500491"><ele>357.0</ele><time>2026-04-11T09:29:19.451Z</time></trkpt><trkpt lat="42.7905467" lon="11.7500892"><ele>357.0</ele><time>2026-04-11T09:29:20.457Z</time></trkpt><trkpt lat="42.7907143" lon="11.7501341"><ele>357.0</ele><time>2026-04-11T09:29:21.444Z</time></trkpt><trkpt lat="42.7908978" lon="11.750175"><ele>355.6666666666667</ele><time>2026-04-11T09:29:22.459Z</time></trkpt><trkpt lat="42.7911046" lon="11.750214"><ele>354.33333333333337</ele><time>2026-04-11T09:29:23.455Z</time></trkpt><trkpt lat="42.7913061" lon="11.7502583"><ele>353.0</ele><time>2026-04-11T09:29:24.457Z</time></trkpt><trkpt lat="42.7915183" lon="11.7503116"><ele>353.0</ele><time>2026-04-11T09:29:25.462Z</time></trkpt><trkpt lat="42.7917266" lon="11.7503767"><ele>353.0</ele><time>2026-04-11T09:29:26.465Z</time></trkpt><trkpt lat="42.7919647" lon="11.7504236"><ele>353.5</ele><time>2026-04-11T09:29:27.467Z</time></trkpt><trkpt lat="42.792194" lon="11.7504779"><ele>354.0</ele><time>2026-04-11T09:29:28.469Z</time></trkpt><trkpt lat="42.792434" lon="11.7505071"><ele>354.0</ele><time>2026-04-11T09:29:29.466Z</time></trkpt><trkpt lat="42.7926665" lon="11.750569"><ele>354.0</ele><time>2026-04-11T09:29:30.463Z</time></trkpt><trkpt lat="42.7928878" lon="11.7506205"><ele>353.3333333333333</ele><time>2026-04-11T09:29:31.463Z</time></trkpt><trkpt lat="42.7930963" lon="11.7506629"><ele>352.66666666666663</ele><time>2026-04-11T09:29:32.468Z</time></trkpt><trkpt lat="42.7932977" lon="11.7507043"><ele>352.0</ele><time>2026-04-11T09:29:33.467Z</time></trkpt><trkpt lat="42.7934768" lon="11.7507602"><ele>351.66666666666663</ele><time>2026-04-11T09:29:34.477Z</time></trkpt><trkpt lat="42.7936847" lon="11.7508096"><ele>351.3333333333333</ele><time>2026-04-11T09:29:35.463Z</time></trkpt><trkpt lat="42.7938921" lon="11.7508631"><ele>351.0</ele><time>2026-04-11T09:29:36.464Z</time></trkpt><trkpt lat="42.7940998" lon="11.7509134"><ele>351.0</ele><time>2026-04-11T09:29:37.462Z</time></trkpt><trkpt lat="42.7943185" lon="11.7509601"><ele>351.0</ele><time>2026-04-11T09:29:38.465Z</time></trkpt><trkpt lat="42.7945277" lon="11.7510106"><ele>351.0</ele><time>2026-04-11T09:29:39.472Z</time></trkpt><trkpt lat="42.7947175" lon="11.7510805"><ele>351.0</ele><time>2026-04-11T09:29:40.469Z</time></trkpt><trkpt lat="42.7949277" lon="11.7511258"><ele>351.0</ele><time>2026-04-11T09:29:41.471Z</time></trkpt><trkpt lat="42.7951251" lon="11.7511739"><ele>351.0</ele><time>2026-04-11T09:29:42.464Z</time></trkpt><trkpt lat="42.7953035" lon="11.7512165"><ele>352.3333333333333</ele><time>2026-04-11T09:29:43.461Z</time></trkpt><trkpt lat="42.7954613" lon="11.7512581"><ele>353.66666666666663</ele><time>2026-04-11T09:29:44.462Z</time></trkpt><trkpt lat="42.7956071" lon="11.7512859"><ele>355.0</ele><time>2026-04-11T09:29:45.463Z</time></trkpt><trkpt lat="42.7957577" lon="11.7513209"><ele>355.0</ele><time>2026-04-11T09:29:46.457Z</time></trkpt><trkpt lat="42.7958847" lon="11.7513469"><ele>355.0</ele><time>2026-04-11T09:29:47.449Z</time></trkpt><trkpt lat="42.7959779" lon="11.7513566"><ele>355.0</ele><time>2026-04-11T09:29:48.452Z</time></trkpt><trkpt lat="42.7960595" lon="11.7513599"><ele>355.0</ele><time>2026-04-11T09:29:49.445Z</time></trkpt><trkpt lat="42.796129" lon="11.7513333"><ele>355.0</ele><time>2026-04-11T09:29:50.441Z</time></trkpt><trkpt lat="42.796175" lon="11.7512581"><ele>355.0</ele><time>2026-04-11T09:29:52.447Z</time></trkpt><trkpt lat="42.7961375" lon="11.7511042"><ele>355.6</ele><time>2026-04-11T09:29:54.449Z</time></trkpt><trkpt lat="42.7960823" lon="11.7510275"><ele>356.2</ele><time>2026-04-11T09:29:55.454Z</time></trkpt><trkpt lat="42.7960025" lon="11.7509184"><ele>356.79999999999995</ele><time>2026-04-11T09:29:56.444Z</time></trkpt><trkpt lat="42.7959183" lon="11.7508126"><ele>357.4</ele><time>2026-04-11T09:29:57.446Z</time></trkpt><trkpt lat="42.7958248" lon="11.7506817"><ele>358.0</ele><time>2026-04-11T09:29:58.445Z</time></trkpt><trkpt lat="42.79572" lon="11.7505479"><ele>358.0</ele><time>2026-04-11T09:29:59.446Z</time></trkpt><trkpt lat="42.7956102" lon="11.7504076"><ele>358.0</ele><time>2026-04-11T09:30:00.442Z</time></trkpt><trkpt lat="42.7955161" lon="11.7502567"><ele>358.0</ele><time>2026-04-11T09:30:01.449Z</time></trkpt><trkpt lat="42.7954612" lon="11.7500957"><ele>358.0</ele><time>2026-04-11T09:30:02.441Z</time></trkpt><trkpt lat="42.7954127" lon="11.7499072"><ele>360.66666666666663</ele><time>2026-04-11T09:30:03.447Z</time></trkpt><trkpt lat="42.7954196" lon="11.7496963"><ele>363.3333333333333</ele><time>2026-04-11T09:30:04.441Z</time></trkpt><trkpt lat="42.7954424" lon="11.7494884"><ele>366.0</ele><time>2026-04-11T09:30:05.449Z</time></trkpt><trkpt lat="42.7954742" lon="11.7492633"><ele>367.75</ele><time>2026-04-11T09:30:06.437Z</time></trkpt><trkpt lat="42.7955515" lon="11.7490705"><ele>369.5</ele><time>2026-04-11T09:30:07.439Z</time></trkpt><trkpt lat="42.7956283" lon="11.7489105"><ele>371.25</ele><time>2026-04-11T09:30:08.436Z</time></trkpt><trkpt lat="42.795701" lon="11.7487561"><ele>373.0</ele><time>2026-04-11T09:30:09.44Z</time></trkpt><trkpt lat="42.7958146" lon="11.7486059"><ele>374.0</ele><time>2026-04-11T09:30:10.449Z</time></trkpt><trkpt lat="42.7959389" lon="11.7484613"><ele>375.0</ele><time>2026-04-11T09:30:11.448Z</time></trkpt><trkpt lat="42.7960444" lon="11.7483069"><ele>376.0</ele><time>2026-04-11T09:30:12.45Z</time></trkpt><trkpt lat="42.796137" lon="11.7481507"><ele>376.66666666666663</ele><time>2026-04-11T09:30:13.444Z</time></trkpt><trkpt lat="42.7962675" lon="11.7480053"><ele>377.3333333333333</ele><time>2026-04-11T09:30:14.444Z</time></trkpt><trkpt lat="42.7963756" lon="11.7478163"><ele>378.0</ele><time>2026-04-11T09:30:15.447Z</time></trkpt><trkpt lat="42.7964552" lon="11.7475988"><ele>381.0</ele><time>2026-04-11T09:30:16.442Z</time></trkpt><trkpt lat="42.7965209" lon="11.7473699"><ele>384.0</ele><time>2026-04-11T09:30:17.443Z</time></trkpt><trkpt lat="42.7966047" lon="11.7471437"><ele>387.0</ele><time>2026-04-11T09:30:18.446Z</time></trkpt><trkpt lat="42.7966885" lon="11.7469284"><ele>387.66666666666663</ele><time>2026-04-11T09:30:19.447Z</time></trkpt><trkpt lat="42.7967581" lon="11.74672"><ele>388.3333333333333</ele><time>2026-04-11T09:30:20.449Z</time></trkpt><trkpt lat="42.7968417" lon="11.7465096"><ele>389.0</ele><time>2026-04-11T09:30:21.45Z</time></trkpt><trkpt lat="42.7969049" lon="11.7462819"><ele>389.0</ele><time>2026-04-11T09:30:22.445Z</time></trkpt><trkpt lat="42.7969789" lon="11.746064"><ele>389.0</ele><time>2026-04-11T09:30:23.443Z</time></trkpt><trkpt lat="42.7970373" lon="11.7458216"><ele>389.0</ele><time>2026-04-11T09:30:24.444Z</time></trkpt><trkpt lat="42.7970893" lon="11.7456204"><ele>390.25</ele><time>2026-04-11T09:30:25.452Z</time></trkpt><trkpt lat="42.7971426" lon="11.7454545"><ele>391.5</ele><time>2026-04-11T09:30:26.449Z</time></trkpt><trkpt lat="42.7971953" lon="11.7452948"><ele>392.75</ele><time>2026-04-11T09:30:27.446Z</time></trkpt><trkpt lat="42.7972421" lon="11.7451408"><ele>394.0</ele><time>2026-04-11T09:30:28.446Z</time></trkpt><trkpt lat="42.7973083" lon="11.7450046"><ele>395.33333333333337</ele><time>2026-04-11T09:30:29.447Z</time></trkpt><trkpt lat="42.7973553" lon="11.7448994"><ele>396.6666666666667</ele><time>2026-04-11T09:30:30.439Z</time></trkpt><trkpt lat="42.7973228" lon="11.744757"><ele>398.0</ele><time>2026-04-11T09:30:32.428Z</time></trkpt><trkpt lat="42.7972544" lon="11.7447433"><ele>399.33333333333337</ele><time>2026-04-11T09:30:33.427Z</time></trkpt><trkpt lat="42.7971719" lon="11.7447709"><ele>400.6666666666667</ele><time>2026-04-11T09:30:34.429Z</time></trkpt><trkpt lat="42.7970945" lon="11.7448208"><ele>402.0</ele><time>2026-04-11T09:30:35.432Z</time></trkpt><trkpt lat="42.7970143" lon="11.7448839"><ele>402.0</ele><time>2026-04-11T09:30:36.445Z</time></trkpt><trkpt lat="42.7969222" lon="11.7449669"><ele>402.0</ele><time>2026-04-11T09:30:37.438Z</time></trkpt><trkpt lat="42.7967939" lon="11.7450678"><ele>402.0</ele><time>2026-04-11T09:30:38.446Z</time></trkpt><trkpt lat="42.7966721" lon="11.7451458"><ele>402.0</ele><time>2026-04-11T09:30:39.441Z</time></trkpt><trkpt lat="42.7965429" lon="11.7452282"><ele>402.0</ele><time>2026-04-11T09:30:40.441Z</time></trkpt><trkpt lat="42.7964158" lon="11.7452883"><ele>402.0</ele><time>2026-04-11T09:30:41.451Z</time></trkpt><trkpt lat="42.7962908" lon="11.7453173"><ele>402.0</ele><time>2026-04-11T09:30:42.447Z</time></trkpt><trkpt lat="42.7961622" lon="11.7453103"><ele>402.0</ele><time>2026-04-11T09:30:43.45Z</time></trkpt><trkpt lat="42.7960337" lon="11.7452631"><ele>405.75</ele><time>2026-04-11T09:30:44.443Z</time></trkpt><trkpt lat="42.7959068" lon="11.7451903"><ele>409.5</ele><time>2026-04-11T09:30:45.449Z</time></trkpt><trkpt lat="42.7957827" lon="11.7450985"><ele>413.25</ele><time>2026-04-11T09:30:46.444Z</time></trkpt><trkpt lat="42.795646" lon="11.7450032"><ele>417.0</ele><time>2026-04-11T09:30:47.448Z</time></trkpt><trkpt lat="42.7954976" lon="11.7449002"><ele>417.0</ele><time>2026-04-11T09:30:48.448Z</time></trkpt><trkpt lat="42.7953717" lon="11.7447931"><ele>417.0</ele><time>2026-04-11T09:30:49.452Z</time></trkpt><trkpt lat="42.7952718" lon="11.7447129"><ele>417.0</ele><time>2026-04-11T09:30:50.449Z</time></trkpt><trkpt lat="42.7951834" lon="11.7446025"><ele>417.0</ele><time>2026-04-11T09:30:51.441Z</time></trkpt><trkpt lat="42.7950997" lon="11.7445084"><ele>418.0</ele><time>2026-04-11T09:30:52.452Z</time></trkpt><trkpt lat="42.7950526" lon="11.7443828"><ele>419.0</ele><time>2026-04-11T09:30:53.446Z</time></trkpt><trkpt lat="42.7950047" lon="11.7442301"><ele>420.0</ele><time>2026-04-11T09:30:54.44Z</time></trkpt><trkpt lat="42.7949708" lon="11.7440663"><ele>421.0</ele><time>2026-04-11T09:30:55.444Z</time></trkpt><trkpt lat="42.794936" lon="11.7439035"><ele>421.0</ele><time>2026-04-11T09:30:56.448Z</time></trkpt><trkpt lat="42.7949051" lon="11.743712"><ele>421.0</ele><time>2026-04-11T09:30:57.448Z</time></trkpt><trkpt lat="42.7948689" lon="11.7435382"><ele>421.0</ele><time>2026-04-11T09:30:58.444Z</time></trkpt><trkpt lat="42.7948448" lon="11.7433559"><ele>421.0</ele><time>2026-04-11T09:30:59.443Z</time></trkpt><trkpt lat="42.7948233" lon="11.7431498"><ele>422.75</ele><time>2026-04-11T09:31:00.443Z</time></trkpt><trkpt lat="42.7948093" lon="11.7429785"><ele>424.5</ele><time>2026-04-11T09:31:01.439Z</time></trkpt><trkpt lat="42.7948379" lon="11.7427762"><ele>426.25</ele><time>2026-04-11T09:31:02.441Z</time></trkpt><trkpt lat="42.7948758" lon="11.7425717"><ele>428.0</ele><time>2026-04-11T09:31:03.443Z</time></trkpt><trkpt lat="42.7948854" lon="11.7423615"><ele>428.25</ele><time>2026-04-11T09:31:04.444Z</time></trkpt><trkpt lat="42.7948848" lon="11.7421817"><ele>428.5</ele><time>2026-04-11T09:31:05.442Z</time></trkpt><trkpt lat="42.7948946" lon="11.7419744"><ele>428.75</ele><time>2026-04-11T09:31:06.441Z</time></trkpt><trkpt lat="42.7949129" lon="11.7417739"><ele>429.0</ele><time>2026-04-11T09:31:07.441Z</time></trkpt><trkpt lat="42.7949338" lon="11.7416228"><ele>429.0</ele><time>2026-04-11T09:31:08.425Z</time></trkpt><trkpt lat="42.7949766" lon="11.7414794"><ele>429.0</ele><time>2026-04-11T09:31:09.435Z</time></trkpt><trkpt lat="42.7949852" lon="11.7413241"><ele>429.0</ele><time>2026-04-11T09:31:10.439Z</time></trkpt><trkpt lat="42.7949654" lon="11.741217"><ele>429.0</ele><time>2026-04-11T09:31:11.432Z</time></trkpt><trkpt lat="42.7949159" lon="11.7410993"><ele>429.0</ele><time>2026-04-11T09:31:12.439Z</time></trkpt><trkpt lat="42.794831" lon="11.7409705"><ele>430.0</ele><time>2026-04-11T09:31:13.429Z</time></trkpt><trkpt lat="42.7946971" lon="11.74085"><ele>431.0</ele><time>2026-04-11T09:31:14.434Z</time></trkpt><trkpt lat="42.7945408" lon="11.7407565"><ele>432.0</ele><time>2026-04-11T09:31:15.435Z</time></trkpt><trkpt lat="42.7943973" lon="11.7406584"><ele>430.0</ele><time>2026-04-11T09:31:16.44Z</time></trkpt><trkpt lat="42.7942402" lon="11.740526"><ele>428.0</ele><time>2026-04-11T09:31:17.44Z</time></trkpt><trkpt lat="42.7940725" lon="11.7404171"><ele>426.0</ele><time>2026-04-11T09:31:18.446Z</time></trkpt><trkpt lat="42.7939271" lon="11.7403053"><ele>428.0</ele><time>2026-04-11T09:31:19.44Z</time></trkpt><trkpt lat="42.7937866" lon="11.7401785"><ele>430.0</ele><time>2026-04-11T09:31:20.434Z</time></trkpt><trkpt lat="42.7936613" lon="11.7401094"><ele>432.0</ele><time>2026-04-11T09:31:21.438Z</time></trkpt><trkpt lat="42.7935869" lon="11.7400319"><ele>434.0</ele><time>2026-04-11T09:31:22.43Z</time></trkpt><trkpt lat="42.7935381" lon="11.7399489"><ele>433.8333333333333</ele><time>2026-04-11T09:31:23.442Z</time></trkpt><trkpt lat="42.7934799" lon="11.7398694"><ele>433.66666666666663</ele><time>2026-04-11T09:31:24.438Z</time></trkpt><trkpt lat="42.7934539" lon="11.7397824"><ele>433.5</ele><time>2026-04-11T09:31:25.45Z</time></trkpt><trkpt lat="42.7934425" lon="11.7396645"><ele>433.33333333333337</ele><time>2026-04-11T09:31:26.448Z</time></trkpt><trkpt lat="42.7934433" lon="11.7395576"><ele>433.1666666666667</ele><time>2026-04-11T09:31:27.448Z</time></trkpt><trkpt lat="42.793458" lon="11.7394377"><ele>433.0</ele><time>2026-04-11T09:31:28.444Z</time></trkpt><trkpt lat="42.7934975" lon="11.7393114"><ele>435.5</ele><time>2026-04-11T09:31:29.443Z</time></trkpt><trkpt lat="42.7935719" lon="11.7392065"><ele>438.0</ele><time>2026-04-11T09:31:30.432Z</time></trkpt><trkpt lat="42.7936659" lon="11.7391383"><ele>440.5</ele><time>2026-04-11T09:31:31.439Z</time></trkpt><trkpt lat="42.7937932" lon="11.7391097"><ele>443.0</ele><time>2026-04-11T09:31:32.427Z</time></trkpt><trkpt lat="42.7939288" lon="11.7390787"><ele>443.0</ele><time>2026-04-11T09:31:33.43Z</time></trkpt><trkpt lat="42.7940898" lon="11.7390282"><ele>443.0</ele><time>2026-04-11T09:31:34.441Z</time></trkpt><trkpt lat="42.7942846" lon="11.7390098"><ele>443.0</ele><time>2026-04-11T09:31:35.448Z</time></trkpt><trkpt lat="42.7944477" lon="11.7389516"><ele>443.3333333333333</ele><time>2026-04-11T09:31:36.45Z</time></trkpt><trkpt lat="42.7946303" lon="11.7389064"><ele>443.66666666666663</ele><time>2026-04-11T09:31:37.452Z</time></trkpt><trkpt lat="42.7948068" lon="11.7388027"><ele>444.0</ele><time>2026-04-11T09:31:38.472Z</time></trkpt><trkpt lat="42.7949648" lon="11.7387269"><ele>444.0</ele><time>2026-04-11T09:31:39.453Z</time></trkpt><trkpt lat="42.7950596" lon="11.7386706"><ele>444.0</ele><time>2026-04-11T09:31:40.453Z</time></trkpt><trkpt lat="42.7951611" lon="11.7386019"><ele>444.0</ele><time>2026-04-11T09:31:41.452Z</time></trkpt><trkpt lat="42.7952578" lon="11.7385438"><ele>444.0</ele><time>2026-04-11T09:31:42.434Z</time></trkpt><trkpt lat="42.7953548" lon="11.738457"><ele>444.0</ele><time>2026-04-11T09:31:43.443Z</time></trkpt><trkpt lat="42.7954522" lon="11.7383637"><ele>443.25</ele><time>2026-04-11T09:31:44.433Z</time></trkpt><trkpt lat="42.795544" lon="11.7382127"><ele>442.5</ele><time>2026-04-11T09:31:45.435Z</time></trkpt><trkpt lat="42.7956442" lon="11.7380785"><ele>441.75</ele><time>2026-04-11T09:31:46.435Z</time></trkpt><trkpt lat="42.7957286" lon="11.7379557"><ele>441.0</ele><time>2026-04-11T09:31:47.432Z</time></trkpt><trkpt lat="42.7958055" lon="11.737835"><ele>441.0</ele><time>2026-04-11T09:31:48.437Z</time></trkpt><trkpt lat="42.7958783" lon="11.7377286"><ele>441.0</ele><time>2026-04-11T09:31:49.437Z</time></trkpt><trkpt lat="42.7959345" lon="11.7376202"><ele>441.0</ele><time>2026-04-11T09:31:50.434Z</time></trkpt><trkpt lat="42.7959658" lon="11.7375176"><ele>441.0</ele><time>2026-04-11T09:31:51.434Z</time></trkpt><trkpt lat="42.7959956" lon="11.7374145"><ele>441.0</ele><time>2026-04-11T09:31:52.431Z</time></trkpt><trkpt lat="42.7959989" lon="11.737288"><ele>441.5</ele><time>2026-04-11T09:31:53.432Z</time></trkpt><trkpt lat="42.7959743" lon="11.7371243"><ele>442.0</ele><time>2026-04-11T09:31:54.437Z</time></trkpt><trkpt lat="42.7959421" lon="11.7369722"><ele>442.5</ele><time>2026-04-11T09:31:55.438Z</time></trkpt><trkpt lat="42.7958913" lon="11.7368021"><ele>443.0</ele><time>2026-04-11T09:31:56.452Z</time></trkpt><trkpt lat="42.7958261" lon="11.736661"><ele>442.0</ele><time>2026-04-11T09:31:57.448Z</time></trkpt><trkpt lat="42.7957524" lon="11.7365386"><ele>440.99999999999994</ele><time>2026-04-11T09:31:58.446Z</time></trkpt><trkpt lat="42.7956753" lon="11.7364273"><ele>439.99999999999994</ele><time>2026-04-11T09:31:59.436Z</time></trkpt><trkpt lat="42.7956152" lon="11.7363379"><ele>439.0</ele><time>2026-04-11T09:32:00.444Z</time></trkpt><trkpt lat="42.7955513" lon="11.7362523"><ele>438.0</ele><time>2026-04-11T09:32:02.437Z</time></trkpt><trkpt lat="42.795578" lon="11.7361152"><ele>437.0</ele><time>2026-04-11T09:33:03.448Z</time></trkpt><trkpt lat="42.7955821" lon="11.735994"><ele>436.0</ele><time>2026-04-11T09:33:04.431Z</time></trkpt><trkpt lat="42.7956047" lon="11.735836"><ele>435.0</ele><time>2026-04-11T09:33:05.447Z</time></trkpt><trkpt lat="42.7956372" lon="11.7356513"><ele>434.0</ele><time>2026-04-11T09:33:06.436Z</time></trkpt><trkpt lat="42.7956791" lon="11.7354584"><ele>434.0</ele><time>2026-04-11T09:33:07.433Z</time></trkpt><trkpt lat="42.7957197" lon="11.7352715"><ele>434.0</ele><time>2026-04-11T09:33:08.436Z</time></trkpt><trkpt lat="42.7957626" lon="11.7351062"><ele>434.0</ele><time>2026-04-11T09:33:09.437Z</time></trkpt><trkpt lat="42.7958194" lon="11.7349558"><ele>434.0</ele><time>2026-04-11T09:33:10.445Z</time></trkpt><trkpt lat="42.7958977" lon="11.7348412"><ele>434.5</ele><time>2026-04-11T09:33:11.422Z</time></trkpt><trkpt lat="42.7959978" lon="11.7347686"><ele>435.0</ele><time>2026-04-11T09:33:12.431Z</time></trkpt><trkpt lat="42.796118" lon="11.7347113"><ele>435.5</ele><time>2026-04-11T09:33:13.442Z</time></trkpt><trkpt lat="42.7962373" lon="11.7346515"><ele>436.0</ele><time>2026-04-11T09:33:14.454Z</time></trkpt><trkpt lat="42.7963505" lon="11.7345842"><ele>433.75</ele><time>2026-04-11T09:33:15.452Z</time></trkpt><trkpt lat="42.7964567" lon="11.7345184"><ele>431.5</ele><time>2026-04-11T09:33:16.454Z</time></trkpt><trkpt lat="42.7965624" lon="11.7344396"><ele>429.25</ele><time>2026-04-11T09:33:17.449Z</time></trkpt><trkpt lat="42.7966434" lon="11.734302"><ele>427.0</ele><time>2026-04-11T09:33:18.443Z</time></trkpt><trkpt lat="42.7967008" lon="11.7341479"><ele>427.0</ele><time>2026-04-11T09:33:19.447Z</time></trkpt><trkpt lat="42.7967379" lon="11.733977"><ele>427.0</ele><time>2026-04-11T09:33:20.433Z</time></trkpt><trkpt lat="42.7967497" lon="11.7338049"><ele>427.0</ele><time>2026-04-11T09:33:21.425Z</time></trkpt><trkpt lat="42.7967398" lon="11.7336499"><ele>427.0</ele><time>2026-04-11T09:33:22.432Z</time></trkpt><trkpt lat="42.7967104" lon="11.7334943"><ele>426.40000000000003</ele><time>2026-04-11T09:33:23.419Z</time></trkpt><trkpt lat="42.7966898" lon="11.7333272"><ele>425.80000000000007</ele><time>2026-04-11T09:33:24.409Z</time></trkpt><trkpt lat="42.7966462" lon="11.733208"><ele>425.2</ele><time>2026-04-11T09:33:25.417Z</time></trkpt><trkpt lat="42.7965922" lon="11.7331128"><ele>424.6</ele><time>2026-04-11T09:33:26.406Z</time></trkpt><trkpt lat="42.7965323" lon="11.7330629"><ele>424.0</ele><time>2026-04-11T09:33:27.416Z</time></trkpt><trkpt lat="42.7964468" lon="11.7330434"><ele>424.0</ele><time>2026-04-11T09:33:30.425Z</time></trkpt><trkpt lat="42.7963826" lon="11.733018"><ele>424.0</ele><time>2026-04-11T09:33:31.425Z</time></trkpt><trkpt lat="42.796261" lon="11.7329207"><ele>424.0</ele><time>2026-04-11T09:33:33.423Z</time></trkpt><trkpt lat="42.796186" lon="11.7328156"><ele>424.0</ele><time>2026-04-11T09:33:34.429Z</time></trkpt><trkpt lat="42.796125" lon="11.7326935"><ele>424.0</ele><time>2026-04-11T09:33:35.422Z</time></trkpt><trkpt lat="42.796091" lon="11.7325262"><ele>420.6666666666667</ele><time>2026-04-11T09:33:36.42Z</time></trkpt><trkpt lat="42.7960602" lon="11.7323228"><ele>417.33333333333337</ele><time>2026-04-11T09:33:37.419Z</time></trkpt><trkpt lat="42.7960411" lon="11.7321015"><ele>414.0</ele><time>2026-04-11T09:33:38.422Z</time></trkpt><trkpt lat="42.7960225" lon="11.7318546"><ele>414.0</ele><time>2026-04-11T09:33:39.415Z</time></trkpt><trkpt lat="42.7960564" lon="11.7315619"><ele>414.0</ele><time>2026-04-11T09:33:40.42Z</time></trkpt><trkpt lat="42.7960784" lon="11.7312658"><ele>414.0</ele><time>2026-04-11T09:33:41.443Z</time></trkpt><trkpt lat="42.796115" lon="11.7310343"><ele>414.0</ele><time>2026-04-11T09:33:42.431Z</time></trkpt><trkpt lat="42.7961138" lon="11.7308234"><ele>414.0</ele><time>2026-04-11T09:33:43.44Z</time></trkpt><trkpt lat="42.7961026" lon="11.7306167"><ele>414.0</ele><time>2026-04-11T09:33:44.433Z</time></trkpt><trkpt lat="42.7960927" lon="11.7303554"><ele>414.0</ele><time>2026-04-11T09:33:45.447Z</time></trkpt><trkpt lat="42.7960598" lon="11.7301132"><ele>414.0</ele><time>2026-04-11T09:33:46.45Z</time></trkpt><trkpt lat="42.7960289" lon="11.7298837"><ele>414.0</ele><time>2026-04-11T09:33:47.443Z</time></trkpt><trkpt lat="42.7960235" lon="11.7296966"><ele>414.0</ele><time>2026-04-11T09:33:48.442Z</time></trkpt><trkpt lat="42.7960057" lon="11.7295107"><ele>414.0</ele><time>2026-04-11T09:33:49.449Z</time></trkpt><trkpt lat="42.7959934" lon="11.729328"><ele>414.0</ele><time>2026-04-11T09:33:50.454Z</time></trkpt><trkpt lat="42.7959723" lon="11.7290937"><ele>414.0</ele><time>2026-04-11T09:33:51.452Z</time></trkpt><trkpt lat="42.796036" lon="11.7288939"><ele>416.0</ele><time>2026-04-11T09:33:52.45Z</time></trkpt><trkpt lat="42.7961098" lon="11.728718"><ele>418.0</ele><time>2026-04-11T09:33:53.454Z</time></trkpt><trkpt lat="42.7962508" lon="11.728556"><ele>420.0</ele><time>2026-04-11T09:33:54.453Z</time></trkpt><trkpt lat="42.7963812" lon="11.7284056"><ele>423.0</ele><time>2026-04-11T09:33:55.46Z</time></trkpt><trkpt lat="42.7965086" lon="11.7282459"><ele>426.0</ele><time>2026-04-11T09:33:56.461Z</time></trkpt><trkpt lat="42.7966087" lon="11.7280475"><ele>429.0</ele><time>2026-04-11T09:33:57.454Z</time></trkpt><trkpt lat="42.7967045" lon="11.7278486"><ele>429.33333333333337</ele><time>2026-04-11T09:33:58.447Z</time></trkpt><trkpt lat="42.7968003" lon="11.7276379"><ele>429.6666666666667</ele><time>2026-04-11T09:33:59.456Z</time></trkpt><trkpt lat="42.7968956" lon="11.7274064"><ele>430.0</ele><time>2026-04-11T09:34:00.456Z</time></trkpt><trkpt lat="42.7969898" lon="11.7271552"><ele>430.0</ele><time>2026-04-11T09:34:01.451Z</time></trkpt><trkpt lat="42.7971022" lon="11.7269058"><ele>430.0</ele><time>2026-04-11T09:34:02.449Z</time></trkpt><trkpt lat="42.7971909" lon="11.7266398"><ele>430.0</ele><time>2026-04-11T09:34:03.446Z</time></trkpt><trkpt lat="42.7972586" lon="11.7264322"><ele>434.0</ele><time>2026-04-11T09:34:04.447Z</time></trkpt><trkpt lat="42.797341" lon="11.7262034"><ele>438.0</ele><time>2026-04-11T09:34:05.45Z</time></trkpt><trkpt lat="42.7974017" lon="11.7259838"><ele>442.0</ele><time>2026-04-11T09:34:06.446Z</time></trkpt><trkpt lat="42.7974561" lon="11.7257574"><ele>445.6666666666667</ele><time>2026-04-11T09:34:07.447Z</time></trkpt><trkpt lat="42.7975261" lon="11.7255375"><ele>449.33333333333337</ele><time>2026-04-11T09:34:08.444Z</time></trkpt><trkpt lat="42.7975683" lon="11.7253473"><ele>453.0</ele><time>2026-04-11T09:34:09.447Z</time></trkpt><trkpt lat="42.797616" lon="11.7251395"><ele>453.0</ele><time>2026-04-11T09:34:10.455Z</time></trkpt><trkpt lat="42.7976849" lon="11.7249302"><ele>453.0</ele><time>2026-04-11T09:34:11.451Z</time></trkpt><trkpt lat="42.7977351" lon="11.7247021"><ele>453.0</ele><time>2026-04-11T09:34:12.466Z</time></trkpt><trkpt lat="42.7977942" lon="11.7244988"><ele>456.33333333333337</ele><time>2026-04-11T09:34:13.454Z</time></trkpt><trkpt lat="42.7978793" lon="11.7242703"><ele>459.6666666666667</ele><time>2026-04-11T09:34:14.454Z</time></trkpt><trkpt lat="42.797942" lon="11.7241114"><ele>463.0</ele><time>2026-04-11T09:34:15.445Z</time></trkpt><trkpt lat="42.7979973" lon="11.7239441"><ele>463.0</ele><time>2026-04-11T09:34:16.444Z</time></trkpt><trkpt lat="42.7980638" lon="11.7238009"><ele>462.99999999999994</ele><time>2026-04-11T09:34:17.447Z</time></trkpt><trkpt lat="42.7980924" lon="11.7237037"><ele>462.99999999999994</ele><time>2026-04-11T09:34:18.434Z</time></trkpt><trkpt lat="42.7980277" lon="11.723586"><ele>463.0</ele><time>2026-04-11T09:34:19.438Z</time></trkpt><trkpt lat="42.7979471" lon="11.7234928"><ele>463.0</ele><time>2026-04-11T09:34:20.436Z</time></trkpt><trkpt lat="42.7978457" lon="11.7234977"><ele>464.59999999999997</ele><time>2026-04-11T09:34:21.446Z</time></trkpt><trkpt lat="42.7977462" lon="11.7234651"><ele>466.19999999999993</ele><time>2026-04-11T09:34:22.436Z</time></trkpt><trkpt lat="42.7976587" lon="11.7234938"><ele>467.8</ele><time>2026-04-11T09:34:23.438Z</time></trkpt><trkpt lat="42.7975507" lon="11.723572"><ele>469.4</ele><time>2026-04-11T09:34:24.44Z</time></trkpt><trkpt lat="42.7974434" lon="11.723662"><ele>471.0</ele><time>2026-04-11T09:34:25.442Z</time></trkpt><trkpt lat="42.7973337" lon="11.7237378"><ele>471.0</ele><time>2026-04-11T09:34:26.451Z</time></trkpt><trkpt lat="42.7972373" lon="11.7237632"><ele>471.0</ele><time>2026-04-11T09:34:27.443Z</time></trkpt><trkpt lat="42.7971349" lon="11.7237565"><ele>471.0</ele><time>2026-04-11T09:34:28.436Z</time></trkpt><trkpt lat="42.7970469" lon="11.7237151"><ele>471.0</ele><time>2026-04-11T09:34:29.438Z</time></trkpt><trkpt lat="42.7969952" lon="11.7236396"><ele>471.0</ele><time>2026-04-11T09:34:30.435Z</time></trkpt><trkpt lat="42.7969922" lon="11.7235247"><ele>474.0</ele><time>2026-04-11T09:34:31.432Z</time></trkpt><trkpt lat="42.7970205" lon="11.7234243"><ele>477.0</ele><time>2026-04-11T09:34:32.421Z</time></trkpt><trkpt lat="42.7970722" lon="11.723331"><ele>480.0</ele><time>2026-04-11T09:34:33.431Z</time></trkpt><trkpt lat="42.7971776" lon="11.7231717"><ele>483.0</ele><time>2026-04-11T09:34:34.421Z</time></trkpt><trkpt lat="42.797284" lon="11.7230196"><ele>483.0</ele><time>2026-04-11T09:34:35.428Z</time></trkpt><trkpt lat="42.7974022" lon="11.7228237"><ele>483.0</ele><time>2026-04-11T09:34:36.436Z</time></trkpt><trkpt lat="42.7975475" lon="11.7226086"><ele>483.0</ele><time>2026-04-11T09:34:37.435Z</time></trkpt><trkpt lat="42.797683" lon="11.722402"><ele>482.0</ele><time>2026-04-11T09:34:38.442Z</time></trkpt><trkpt lat="42.7978894" lon="11.7221148"><ele>481.0</ele><time>2026-04-11T09:34:39.441Z</time></trkpt><trkpt lat="42.7980306" lon="11.7218636"><ele>485.0</ele><time>2026-04-11T09:34:40.447Z</time></trkpt><trkpt lat="42.7981171" lon="11.7216876"><ele>489.0</ele><time>2026-04-11T09:34:41.451Z</time></trkpt><trkpt lat="42.7982217" lon="11.7215102"><ele>493.0</ele><time>2026-04-11T09:34:42.453Z</time></trkpt><trkpt lat="42.7983228" lon="11.7213475"><ele>493.0</ele><time>2026-04-11T09:34:43.462Z</time></trkpt><trkpt lat="42.7984086" lon="11.7212073"><ele>493.0</ele><time>2026-04-11T09:34:44.442Z</time></trkpt><trkpt lat="42.7984802" lon="11.7210659"><ele>493.0</ele><time>2026-04-11T09:34:45.449Z</time></trkpt><trkpt lat="42.7985526" lon="11.720918"><ele>493.0</ele><time>2026-04-11T09:34:46.45Z</time></trkpt><trkpt lat="42.7985914" lon="11.7207348"><ele>493.75</ele><time>2026-04-11T09:34:47.451Z</time></trkpt><trkpt lat="42.7986606" lon="11.7206082"><ele>494.5</ele><time>2026-04-11T09:34:48.449Z</time></trkpt><trkpt lat="42.7987064" lon="11.7204104"><ele>495.25</ele><time>2026-04-11T09:34:49.438Z</time></trkpt><trkpt lat="42.798759" lon="11.7202351"><ele>496.0</ele><time>2026-04-11T09:34:50.445Z</time></trkpt><trkpt lat="42.7988084" lon="11.7200486"><ele>496.0</ele><time>2026-04-11T09:34:51.45Z</time></trkpt><trkpt lat="42.7988386" lon="11.7198488"><ele>496.0</ele><time>2026-04-11T09:34:52.452Z</time></trkpt><trkpt lat="42.7988685" lon="11.7196381"><ele>496.0</ele><time>2026-04-11T09:34:53.454Z</time></trkpt><trkpt lat="42.7989008" lon="11.7194318"><ele>498.6666666666667</ele><time>2026-04-11T09:34:54.454Z</time></trkpt><trkpt lat="42.7989532" lon="11.7192284"><ele>501.33333333333337</ele><time>2026-04-11T09:34:55.453Z</time></trkpt><trkpt lat="42.7989872" lon="11.7189983"><ele>504.0</ele><time>2026-04-11T09:34:56.46Z</time></trkpt><trkpt lat="42.7990147" lon="11.7187838"><ele>504.0</ele><time>2026-04-11T09:34:57.464Z</time></trkpt><trkpt lat="42.7990581" lon="11.7185923"><ele>504.0</ele><time>2026-04-11T09:34:58.462Z</time></trkpt><trkpt lat="42.7990646" lon="11.7183701"><ele>504.0</ele><time>2026-04-11T09:34:59.454Z</time></trkpt><trkpt lat="42.7990613" lon="11.7181525"><ele>505.25</ele><time>2026-04-11T09:35:00.454Z</time></trkpt><trkpt lat="42.7990497" lon="11.7179784"><ele>506.5</ele><time>2026-04-11T09:35:01.448Z</time></trkpt><trkpt lat="42.7990627" lon="11.7178074"><ele>507.75</ele><time>2026-04-11T09:35:02.444Z</time></trkpt><trkpt lat="42.7991207" lon="11.717656"><ele>509.0</ele><time>2026-04-11T09:35:03.441Z</time></trkpt><trkpt lat="42.7992135" lon="11.7174841"><ele>511.3333333333333</ele><time>2026-04-11T09:35:04.449Z</time></trkpt><trkpt lat="42.7992955" lon="11.7172922"><ele>513.6666666666666</ele><time>2026-04-11T09:35:05.444Z</time></trkpt><trkpt lat="42.7993691" lon="11.7171254"><ele>516.0</ele><time>2026-04-11T09:35:06.423Z</time></trkpt><trkpt lat="42.7994915" lon="11.7169229"><ele>511.66666666666663</ele><time>2026-04-11T09:35:07.429Z</time></trkpt><trkpt lat="42.7996236" lon="11.7167028"><ele>507.3333333333333</ele><time>2026-04-11T09:35:08.425Z</time></trkpt><trkpt lat="42.7997344" lon="11.7164765"><ele>503.0</ele><time>2026-04-11T09:35:09.426Z</time></trkpt><trkpt lat="42.7998735" lon="11.7162228"><ele>505.66666666666663</ele><time>2026-04-11T09:35:10.434Z</time></trkpt><trkpt lat="42.7999657" lon="11.7160393"><ele>508.33333333333337</ele><time>2026-04-11T09:35:11.431Z</time></trkpt><trkpt lat="42.8000807" lon="11.715817"><ele>511.0</ele><time>2026-04-11T09:35:12.436Z</time></trkpt><trkpt lat="42.8001695" lon="11.7156214"><ele>508.25</ele><time>2026-04-11T09:35:13.452Z</time></trkpt><trkpt lat="42.8002517" lon="11.7154606"><ele>505.5</ele><time>2026-04-11T09:35:14.465Z</time></trkpt><trkpt lat="42.8003279" lon="11.7152959"><ele>502.75</ele><time>2026-04-11T09:35:15.461Z</time></trkpt><trkpt lat="42.8003959" lon="11.7151484"><ele>500.0</ele><time>2026-04-11T09:35:16.458Z</time></trkpt><trkpt lat="42.8004532" lon="11.7150355"><ele>500.0</ele><time>2026-04-11T09:35:17.459Z</time></trkpt><trkpt lat="42.8005048" lon="11.7148987"><ele>500.0</ele><time>2026-04-11T09:35:18.465Z</time></trkpt><trkpt lat="42.800544" lon="11.7147967"><ele>500.0</ele><time>2026-04-11T09:35:19.466Z</time></trkpt><trkpt lat="42.8005283" lon="11.7146739"><ele>500.0</ele><time>2026-04-11T09:35:20.457Z</time></trkpt><trkpt lat="42.8004972" lon="11.7145172"><ele>500.0</ele><time>2026-04-11T09:35:21.444Z</time></trkpt><trkpt lat="42.8004625" lon="11.7143687"><ele>500.5</ele><time>2026-04-11T09:35:22.448Z</time></trkpt><trkpt lat="42.8004045" lon="11.7142209"><ele>501.0</ele><time>2026-04-11T09:35:23.444Z</time></trkpt><trkpt lat="42.8003452" lon="11.7140526"><ele>501.5</ele><time>2026-04-11T09:35:24.45Z</time></trkpt><trkpt lat="42.8002803" lon="11.713859"><ele>502.0</ele><time>2026-04-11T09:35:25.447Z</time></trkpt><trkpt lat="42.8001808" lon="11.7136241"><ele>504.25</ele><time>2026-04-11T09:35:26.45Z</time></trkpt><trkpt lat="42.8001408" lon="11.7134484"><ele>506.5</ele><time>2026-04-11T09:35:27.448Z</time></trkpt><trkpt lat="42.8000739" lon="11.7132668"><ele>508.75</ele><time>2026-04-11T09:35:28.44Z</time></trkpt><trkpt lat="42.8000232" lon="11.7130972"><ele>511.0</ele><time>2026-04-11T09:35:29.442Z</time></trkpt><trkpt lat="42.7999496" lon="11.7129308"><ele>511.0</ele><time>2026-04-11T09:35:30.441Z</time></trkpt><trkpt lat="42.7999676" lon="11.712758"><ele>511.0</ele><time>2026-04-11T09:35:31.436Z</time></trkpt><trkpt lat="42.7999746" lon="11.7125574"><ele>511.0</ele><time>2026-04-11T09:35:32.447Z</time></trkpt><trkpt lat="42.8000601" lon="11.7123405"><ele>510.33333333333337</ele><time>2026-04-11T09:35:33.444Z</time></trkpt><trkpt lat="42.8001058" lon="11.7121376"><ele>509.66666666666663</ele><time>2026-04-11T09:35:34.438Z</time></trkpt><trkpt lat="42.800193" lon="11.7119313"><ele>509.0</ele><time>2026-04-11T09:35:35.438Z</time></trkpt><trkpt lat="42.8003033" lon="11.7117026"><ele>510.3333333333333</ele><time>2026-04-11T09:35:36.432Z</time></trkpt><trkpt lat="42.8004148" lon="11.7114354"><ele>511.66666666666663</ele><time>2026-04-11T09:35:37.439Z</time></trkpt><trkpt lat="42.8005194" lon="11.7111818"><ele>513.0</ele><time>2026-04-11T09:35:38.442Z</time></trkpt><trkpt lat="42.8006144" lon="11.7109634"><ele>516.0</ele><time>2026-04-11T09:35:39.443Z</time></trkpt><trkpt lat="42.8007179" lon="11.7107402"><ele>519.0</ele><time>2026-04-11T09:35:40.443Z</time></trkpt><trkpt lat="42.8007839" lon="11.7105497"><ele>522.0</ele><time>2026-04-11T09:35:41.439Z</time></trkpt><trkpt lat="42.8008722" lon="11.7103758"><ele>523.3333333333334</ele><time>2026-04-11T09:35:42.441Z</time></trkpt><trkpt lat="42.8009648" lon="11.710211"><ele>524.6666666666667</ele><time>2026-04-11T09:35:43.44Z</time></trkpt><trkpt lat="42.8010887" lon="11.7100489"><ele>526.0</ele><time>2026-04-11T09:35:44.44Z</time></trkpt><trkpt lat="42.8012278" lon="11.7099052"><ele>526.0</ele><time>2026-04-11T09:35:45.449Z</time></trkpt><trkpt lat="42.8013467" lon="11.7097933"><ele>526.0</ele><time>2026-04-11T09:35:46.448Z</time></trkpt><trkpt lat="42.8014779" lon="11.7096727"><ele>526.0</ele><time>2026-04-11T09:35:47.446Z</time></trkpt><trkpt lat="42.8015746" lon="11.7095436"><ele>526.0</ele><time>2026-04-11T09:35:48.438Z</time></trkpt><trkpt lat="42.8016717" lon="11.7093824"><ele>527.5</ele><time>2026-04-11T09:35:49.439Z</time></trkpt><trkpt lat="42.8017634" lon="11.7092466"><ele>529.0</ele><time>2026-04-11T09:35:50.441Z</time></trkpt><trkpt lat="42.8017479" lon="11.70903"><ele>530.5</ele><time>2026-04-11T09:35:51.438Z</time></trkpt><trkpt lat="42.8017336" lon="11.7088504"><ele>532.0</ele><time>2026-04-11T09:35:52.431Z</time></trkpt><trkpt lat="42.8016962" lon="11.708655"><ele>532.75</ele><time>2026-04-11T09:35:53.437Z</time></trkpt><trkpt lat="42.801671" lon="11.7084556"><ele>533.5</ele><time>2026-04-11T09:35:54.44Z</time></trkpt><trkpt lat="42.8016424" lon="11.7082574"><ele>534.25</ele><time>2026-04-11T09:35:55.437Z</time></trkpt><trkpt lat="42.8016697" lon="11.7080545"><ele>535.0</ele><time>2026-04-11T09:35:56.438Z</time></trkpt><trkpt lat="42.8017293" lon="11.7078338"><ele>537.3333333333334</ele><time>2026-04-11T09:35:57.444Z</time></trkpt><trkpt lat="42.8018367" lon="11.7076121"><ele>539.6666666666666</ele><time>2026-04-11T09:35:58.443Z</time></trkpt><trkpt lat="42.8019356" lon="11.7073938"><ele>542.0</ele><time>2026-04-11T09:35:59.437Z</time></trkpt><trkpt lat="42.8020077" lon="11.7071969"><ele>542.0</ele><time>2026-04-11T09:36:00.452Z</time></trkpt><trkpt lat="42.8021422" lon="11.7070212"><ele>542.0</ele><time>2026-04-11T09:36:01.445Z</time></trkpt><trkpt lat="42.8022485" lon="11.7068184"><ele>542.0</ele><time>2026-04-11T09:36:02.443Z</time></trkpt><trkpt lat="42.8023719" lon="11.706697"><ele>544.25</ele><time>2026-04-11T09:36:03.449Z</time></trkpt><trkpt lat="42.8024684" lon="11.7065886"><ele>546.5</ele><time>2026-04-11T09:36:04.442Z</time></trkpt><trkpt lat="42.8025756" lon="11.7065359"><ele>548.75</ele><time>2026-04-11T09:36:05.438Z</time></trkpt><trkpt lat="42.8027073" lon="11.7064975"><ele>551.0</ele><time>2026-04-11T09:36:06.44Z</time></trkpt><trkpt lat="42.8028434" lon="11.706525"><ele>551.75</ele><time>2026-04-11T09:36:07.433Z</time></trkpt><trkpt lat="42.8029858" lon="11.706546"><ele>552.5</ele><time>2026-04-11T09:36:08.44Z</time></trkpt><trkpt lat="42.8031217" lon="11.7065492"><ele>553.25</ele><time>2026-04-11T09:36:09.43Z</time></trkpt><trkpt lat="42.8032907" lon="11.7065385"><ele>554.0</ele><time>2026-04-11T09:36:10.434Z</time></trkpt><trkpt lat="42.8034955" lon="11.7064924"><ele>556.3333333333333</ele><time>2026-04-11T09:36:11.433Z</time></trkpt><trkpt lat="42.8036772" lon="11.7064503"><ele>558.6666666666666</ele><time>2026-04-11T09:36:12.439Z</time></trkpt><trkpt lat="42.8038724" lon="11.7063691"><ele>561.0</ele><time>2026-04-11T09:36:13.426Z</time></trkpt><trkpt lat="42.8040183" lon="11.7063218"><ele>561.0</ele><time>2026-04-11T09:36:14.43Z</time></trkpt><trkpt lat="42.8041129" lon="11.7063211"><ele>561.0</ele><time>2026-04-11T09:36:15.427Z</time></trkpt><trkpt lat="42.8042224" lon="11.7063163"><ele>561.0</ele><time>2026-04-11T09:36:17.438Z</time></trkpt><trkpt lat="42.8042891" lon="11.7062722"><ele>561.0</ele><time>2026-04-11T09:36:18.449Z</time></trkpt><trkpt lat="42.8043558" lon="11.7061979"><ele>561.0</ele><time>2026-04-11T09:36:19.443Z</time></trkpt><trkpt lat="42.8044278" lon="11.7061479"><ele>561.0</ele><time>2026-04-11T09:36:20.452Z</time></trkpt><trkpt lat="42.8045023" lon="11.7061058"><ele>562.75</ele><time>2026-04-11T09:36:21.464Z</time></trkpt><trkpt lat="42.8045826" lon="11.7060538"><ele>564.5</ele><time>2026-04-11T09:36:22.456Z</time></trkpt><trkpt lat="42.8046698" lon="11.7059746"><ele>566.25</ele><time>2026-04-11T09:36:23.45Z</time></trkpt><trkpt lat="42.804762" lon="11.705855"><ele>568.0</ele><time>2026-04-11T09:36:24.46Z</time></trkpt><trkpt lat="42.8048451" lon="11.7057189"><ele>568.0</ele><time>2026-04-11T09:36:25.457Z</time></trkpt><trkpt lat="42.8049265" lon="11.7055856"><ele>568.0</ele><time>2026-04-11T09:36:26.469Z</time></trkpt><trkpt lat="42.8049821" lon="11.7054593"><ele>568.0</ele><time>2026-04-11T09:36:27.456Z</time></trkpt><trkpt lat="42.8050128" lon="11.705316"><ele>568.0</ele><time>2026-04-11T09:36:28.462Z</time></trkpt><trkpt lat="42.8050061" lon="11.7051635"><ele>569.25</ele><time>2026-04-11T09:36:29.46Z</time></trkpt><trkpt lat="42.8049677" lon="11.7049897"><ele>570.5</ele><time>2026-04-11T09:36:30.444Z</time></trkpt><trkpt lat="42.8049091" lon="11.7048175"><ele>571.75</ele><time>2026-04-11T09:36:31.444Z</time></trkpt><trkpt lat="42.8048226" lon="11.7046575"><ele>573.0</ele><time>2026-04-11T09:36:32.448Z</time></trkpt><trkpt lat="42.8047124" lon="11.7044878"><ele>571.3333333333334</ele><time>2026-04-11T09:36:33.445Z</time></trkpt><trkpt lat="42.8045646" lon="11.7043027"><ele>569.6666666666667</ele><time>2026-04-11T09:36:34.439Z</time></trkpt><trkpt lat="42.8044378" lon="11.7041281"><ele>568.0</ele><time>2026-04-11T09:36:35.433Z</time></trkpt><trkpt lat="42.8043222" lon="11.7039217"><ele>572.6666666666667</ele><time>2026-04-11T09:36:36.444Z</time></trkpt><trkpt lat="42.8042108" lon="11.703739"><ele>577.3333333333334</ele><time>2026-04-11T09:36:37.441Z</time></trkpt><trkpt lat="42.8041354" lon="11.7035676"><ele>582.0</ele><time>2026-04-11T09:36:38.44Z</time></trkpt><trkpt lat="42.8040624" lon="11.7034009"><ele>582.0</ele><time>2026-04-11T09:36:39.439Z</time></trkpt><trkpt lat="42.8039853" lon="11.7032626"><ele>582.0</ele><time>2026-04-11T09:36:40.436Z</time></trkpt><trkpt lat="42.8039369" lon="11.7031002"><ele>582.0</ele><time>2026-04-11T09:36:41.443Z</time></trkpt><trkpt lat="42.8039018" lon="11.7029203"><ele>582.0</ele><time>2026-04-11T09:36:42.446Z</time></trkpt><trkpt lat="42.8038575" lon="11.702747"><ele>581.5</ele><time>2026-04-11T09:36:43.447Z</time></trkpt><trkpt lat="42.8038023" lon="11.7025659"><ele>581.0</ele><time>2026-04-11T09:36:44.457Z</time></trkpt><trkpt lat="42.8037608" lon="11.7023739"><ele>580.5</ele><time>2026-04-11T09:36:45.455Z</time></trkpt><trkpt lat="42.8037098" lon="11.7021777"><ele>580.0</ele><time>2026-04-11T09:36:46.461Z</time></trkpt><trkpt lat="42.803669" lon="11.7020127"><ele>579.5</ele><time>2026-04-11T09:36:47.455Z</time></trkpt><trkpt lat="42.8036351" lon="11.7018167"><ele>579.0</ele><time>2026-04-11T09:36:48.452Z</time></trkpt><trkpt lat="42.8036047" lon="11.7016359"><ele>578.5</ele><time>2026-04-11T09:36:49.445Z</time></trkpt><trkpt lat="42.8036085" lon="11.7014539"><ele>578.0</ele><time>2026-04-11T09:36:50.457Z</time></trkpt><trkpt lat="42.8036157" lon="11.701252"><ele>577.3333333333333</ele><time>2026-04-11T09:36:51.464Z</time></trkpt><trkpt lat="42.8036128" lon="11.7010433"><ele>576.6666666666666</ele><time>2026-04-11T09:36:52.467Z</time></trkpt><trkpt lat="42.8036215" lon="11.7008258"><ele>576.0</ele><time>2026-04-11T09:36:53.46Z</time></trkpt><trkpt lat="42.8036425" lon="11.7006164"><ele>576.0</ele><time>2026-04-11T09:36:54.46Z</time></trkpt><trkpt lat="42.8036456" lon="11.7003767"><ele>576.0</ele><time>2026-04-11T09:36:55.456Z</time></trkpt><trkpt lat="42.8036489" lon="11.7001556"><ele>576.0</ele><time>2026-04-11T09:36:56.462Z</time></trkpt><trkpt lat="42.8036471" lon="11.6999488"><ele>575.3333333333334</ele><time>2026-04-11T09:36:57.457Z</time></trkpt><trkpt lat="42.8036322" lon="11.69971"><ele>574.6666666666667</ele><time>2026-04-11T09:36:58.447Z</time></trkpt><trkpt lat="42.8036387" lon="11.6995181"><ele>574.0</ele><time>2026-04-11T09:36:59.452Z</time></trkpt><trkpt lat="42.8036422" lon="11.6992704"><ele>576.3333333333334</ele><time>2026-04-11T09:37:00.447Z</time></trkpt><trkpt lat="42.803686" lon="11.6990522"><ele>578.6666666666666</ele><time>2026-04-11T09:37:01.451Z</time></trkpt><trkpt lat="42.8036885" lon="11.6987899"><ele>581.0</ele><time>2026-04-11T09:37:02.45Z</time></trkpt><trkpt lat="42.8037153" lon="11.698561"><ele>583.6666666666666</ele><time>2026-04-11T09:37:03.45Z</time></trkpt><trkpt lat="42.8037533" lon="11.6983197"><ele>586.3333333333334</ele><time>2026-04-11T09:37:04.448Z</time></trkpt><trkpt lat="42.8037566" lon="11.6981016"><ele>589.0</ele><time>2026-04-11T09:37:05.451Z</time></trkpt><trkpt lat="42.8037602" lon="11.6978289"><ele>592.0</ele><time>2026-04-11T09:37:06.441Z</time></trkpt><trkpt lat="42.8037318" lon="11.6975392"><ele>595.0</ele><time>2026-04-11T09:37:07.44Z</time></trkpt><trkpt lat="42.8037506" lon="11.6973099"><ele>598.0</ele><time>2026-04-11T09:37:08.438Z</time></trkpt><trkpt lat="42.8037587" lon="11.697056"><ele>598.0</ele><time>2026-04-11T09:37:09.445Z</time></trkpt><trkpt lat="42.8037576" lon="11.6967744"><ele>598.0</ele><time>2026-04-11T09:37:10.433Z</time></trkpt><trkpt lat="42.8037682" lon="11.6965293"><ele>598.0</ele><time>2026-04-11T09:37:11.432Z</time></trkpt><trkpt lat="42.8037739" lon="11.6962776"><ele>599.25</ele><time>2026-04-11T09:37:12.429Z</time></trkpt><trkpt lat="42.8037726" lon="11.6960677"><ele>600.5</ele><time>2026-04-11T09:37:13.435Z</time></trkpt><trkpt lat="42.8037658" lon="11.6958404"><ele>601.75</ele><time>2026-04-11T09:37:14.434Z</time></trkpt><trkpt lat="42.8037905" lon="11.6957191"><ele>603.0</ele><time>2026-04-11T09:37:15.44Z</time></trkpt><trkpt lat="42.8038417" lon="11.6955516"><ele>603.0</ele><time>2026-04-11T09:37:16.432Z</time></trkpt><trkpt lat="42.8038796" lon="11.6953914"><ele>603.0</ele><time>2026-04-11T09:37:17.441Z</time></trkpt><trkpt lat="42.803977" lon="11.695275"><ele>603.0</ele><time>2026-04-11T09:37:18.441Z</time></trkpt><trkpt lat="42.8040883" lon="11.695167"><ele>603.0</ele><time>2026-04-11T09:37:19.442Z</time></trkpt><trkpt lat="42.8042358" lon="11.6950517"><ele>606.0</ele><time>2026-04-11T09:37:20.436Z</time></trkpt><trkpt lat="42.8043801" lon="11.6949329"><ele>609.0</ele><time>2026-04-11T09:37:21.446Z</time></trkpt><trkpt lat="42.8045305" lon="11.6948469"><ele>612.0</ele><time>2026-04-11T09:37:22.454Z</time></trkpt><trkpt lat="42.8046602" lon="11.6947239"><ele>612.0</ele><time>2026-04-11T09:37:23.466Z</time></trkpt><trkpt lat="42.8047718" lon="11.6946065"><ele>612.0</ele><time>2026-04-11T09:37:24.451Z</time></trkpt><trkpt lat="42.8048833" lon="11.6944893"><ele>612.0</ele><time>2026-04-11T09:37:25.453Z</time></trkpt><trkpt lat="42.804982" lon="11.6943799"><ele>612.0</ele><time>2026-04-11T09:37:26.451Z</time></trkpt><trkpt lat="42.8050524" lon="11.6942765"><ele>612.75</ele><time>2026-04-11T09:37:27.45Z</time></trkpt><trkpt lat="42.8051535" lon="11.6941509"><ele>613.5</ele><time>2026-04-11T09:37:28.437Z</time></trkpt><trkpt lat="42.8052358" lon="11.6939957"><ele>614.25</ele><time>2026-04-11T09:37:29.442Z</time></trkpt><trkpt lat="42.8052936" lon="11.6937892"><ele>615.0</ele><time>2026-04-11T09:37:30.438Z</time></trkpt><trkpt lat="42.8053575" lon="11.6936371"><ele>618.3333333333334</ele><time>2026-04-11T09:37:31.438Z</time></trkpt><trkpt lat="42.8054133" lon="11.693486"><ele>621.6666666666667</ele><time>2026-04-11T09:37:32.446Z</time></trkpt><trkpt lat="42.8054757" lon="11.6932993"><ele>625.0</ele><time>2026-04-11T09:37:33.443Z</time></trkpt><trkpt lat="42.805512" lon="11.6930645"><ele>625.0</ele><time>2026-04-11T09:37:34.453Z</time></trkpt><trkpt lat="42.805531" lon="11.6928242"><ele>625.0</ele><time>2026-04-11T09:37:35.451Z</time></trkpt><trkpt lat="42.8055502" lon="11.6925665"><ele>625.0</ele><time>2026-04-11T09:37:36.447Z</time></trkpt><trkpt lat="42.8055457" lon="11.6923564"><ele>626.75</ele><time>2026-04-11T09:37:37.443Z</time></trkpt><trkpt lat="42.8054742" lon="11.6922045"><ele>628.5</ele><time>2026-04-11T09:37:38.447Z</time></trkpt><trkpt lat="42.8054112" lon="11.6920659"><ele>630.25</ele><time>2026-04-11T09:37:39.439Z</time></trkpt><trkpt lat="42.8052987" lon="11.6919525"><ele>632.0</ele><time>2026-04-11T09:37:40.438Z</time></trkpt><trkpt lat="42.8051728" lon="11.6918373"><ele>639.6666666666666</ele><time>2026-04-11T09:37:41.434Z</time></trkpt><trkpt lat="42.8050492" lon="11.691733"><ele>647.3333333333334</ele><time>2026-04-11T09:37:42.434Z</time></trkpt><trkpt lat="42.8049137" lon="11.6916189"><ele>655.0</ele><time>2026-04-11T09:37:43.442Z</time></trkpt><trkpt lat="42.8047683" lon="11.6914917"><ele>655.0</ele><time>2026-04-11T09:37:44.444Z</time></trkpt><trkpt lat="42.8046522" lon="11.6913112"><ele>655.0</ele><time>2026-04-11T09:37:45.449Z</time></trkpt><trkpt lat="42.8045247" lon="11.6911721"><ele>655.0</ele><time>2026-04-11T09:37:46.44Z</time></trkpt><trkpt lat="42.8044458" lon="11.6910046"><ele>654.6666666666667</ele><time>2026-04-11T09:37:47.435Z</time></trkpt><trkpt lat="42.804375" lon="11.6908126"><ele>654.3333333333334</ele><time>2026-04-11T09:37:48.444Z</time></trkpt><trkpt lat="42.804288" lon="11.6905998"><ele>654.0</ele><time>2026-04-11T09:37:49.437Z</time></trkpt><trkpt lat="42.8041867" lon="11.6903712"><ele>657.6666666666666</ele><time>2026-04-11T09:37:50.435Z</time></trkpt><trkpt lat="42.8041177" lon="11.6901629"><ele>661.3333333333333</ele><time>2026-04-11T09:37:51.441Z</time></trkpt><trkpt lat="42.804023" lon="11.6899422"><ele>665.0</ele><time>2026-04-11T09:37:52.446Z</time></trkpt><trkpt lat="42.8039237" lon="11.6897417"><ele>665.0</ele><time>2026-04-11T09:37:53.451Z</time></trkpt><trkpt lat="42.8038329" lon="11.6895512"><ele>665.0</ele><time>2026-04-11T09:37:54.466Z</time></trkpt><trkpt lat="42.8037533" lon="11.6893577"><ele>665.0</ele><time>2026-04-11T09:37:55.455Z</time></trkpt><trkpt lat="42.803677" lon="11.6891755"><ele>667.6666666666666</ele><time>2026-04-11T09:37:56.454Z</time></trkpt><trkpt lat="42.8035863" lon="11.6889792"><ele>670.3333333333334</ele><time>2026-04-11T09:37:57.453Z</time></trkpt><trkpt lat="42.8035157" lon="11.6888051"><ele>673.0</ele><time>2026-04-11T09:37:58.45Z</time></trkpt><trkpt lat="42.8034167" lon="11.6886311"><ele>675.8</ele><time>2026-04-11T09:37:59.447Z</time></trkpt><trkpt lat="42.8033345" lon="11.6884915"><ele>678.5999999999999</ele><time>2026-04-11T09:38:00.44Z</time></trkpt><trkpt lat="42.8032946" lon="11.688381"><ele>681.4000000000001</ele><time>2026-04-11T09:38:01.44Z</time></trkpt><trkpt lat="42.8032398" lon="11.6882637"><ele>684.2</ele><time>2026-04-11T09:38:02.448Z</time></trkpt><trkpt lat="42.8032331" lon="11.6881416"><ele>687.0</ele><time>2026-04-11T09:38:03.442Z</time></trkpt><trkpt lat="42.8032375" lon="11.6879903"><ele>687.0</ele><time>2026-04-11T09:38:04.452Z</time></trkpt><trkpt lat="42.8032489" lon="11.6878147"><ele>687.0</ele><time>2026-04-11T09:38:05.446Z</time></trkpt><trkpt lat="42.8032568" lon="11.687672"><ele>687.0</ele><time>2026-04-11T09:38:06.449Z</time></trkpt><trkpt lat="42.8032601" lon="11.6874985"><ele>687.0</ele><time>2026-04-11T09:38:07.445Z</time></trkpt><trkpt lat="42.8032476" lon="11.6873135"><ele>687.6666666666666</ele><time>2026-04-11T09:38:08.438Z</time></trkpt><trkpt lat="42.8032177" lon="11.6871066"><ele>688.3333333333333</ele><time>2026-04-11T09:38:09.442Z</time></trkpt><trkpt lat="42.8031697" lon="11.6868458"><ele>689.0</ele><time>2026-04-11T09:38:10.445Z</time></trkpt><trkpt lat="42.8031425" lon="11.686662"><ele>690.0</ele><time>2026-04-11T09:38:11.446Z</time></trkpt><trkpt lat="42.8031059" lon="11.686451"><ele>691.0</ele><time>2026-04-11T09:38:12.45Z</time></trkpt><trkpt lat="42.8030878" lon="11.686269"><ele>692.0</ele><time>2026-04-11T09:38:13.442Z</time></trkpt><trkpt lat="42.8030432" lon="11.6860658"><ele>693.0</ele><time>2026-04-11T09:38:14.444Z</time></trkpt><trkpt lat="42.8029792" lon="11.6858957"><ele>695.25</ele><time>2026-04-11T09:38:15.443Z</time></trkpt><trkpt lat="42.8029354" lon="11.6857208"><ele>697.5</ele><time>2026-04-11T09:38:16.437Z</time></trkpt><trkpt lat="42.802884" lon="11.68554"><ele>699.75</ele><time>2026-04-11T09:38:17.441Z</time></trkpt><trkpt lat="42.8028599" lon="11.68536"><ele>702.0</ele><time>2026-04-11T09:38:18.442Z</time></trkpt><trkpt lat="42.8029047" lon="11.6851586"><ele>704.6666666666666</ele><time>2026-04-11T09:38:19.447Z</time></trkpt><trkpt lat="42.8029726" lon="11.6849403"><ele>707.3333333333333</ele><time>2026-04-11T09:38:20.456Z</time></trkpt><trkpt lat="42.8030492" lon="11.6847595"><ele>710.0</ele><time>2026-04-11T09:38:21.462Z</time></trkpt><trkpt lat="42.8031275" lon="11.6845739"><ele>710.0</ele><time>2026-04-11T09:38:22.454Z</time></trkpt><trkpt lat="42.803228" lon="11.6844362"><ele>710.0</ele><time>2026-04-11T09:38:23.452Z</time></trkpt><trkpt lat="42.8032824" lon="11.6842791"><ele>710.0</ele><time>2026-04-11T09:38:24.457Z</time></trkpt><trkpt lat="42.8033086" lon="11.6841239"><ele>710.0</ele><time>2026-04-11T09:38:25.445Z</time></trkpt><trkpt lat="42.8033304" lon="11.6839496"><ele>711.0</ele><time>2026-04-11T09:38:26.433Z</time></trkpt><trkpt lat="42.8033652" lon="11.6837381"><ele>712.0</ele><time>2026-04-11T09:38:27.442Z</time></trkpt><trkpt lat="42.8034149" lon="11.6835694"><ele>713.0</ele><time>2026-04-11T09:38:28.434Z</time></trkpt><trkpt lat="42.8034939" lon="11.6834224"><ele>714.0</ele><time>2026-04-11T09:38:29.438Z</time></trkpt><trkpt lat="42.8035942" lon="11.6832792"><ele>714.0</ele><time>2026-04-11T09:38:30.434Z</time></trkpt><trkpt lat="42.803705" lon="11.6831139"><ele>714.0</ele><time>2026-04-11T09:38:31.441Z</time></trkpt><trkpt lat="42.8038197" lon="11.6829803"><ele>714.0</ele><time>2026-04-11T09:38:32.436Z</time></trkpt><trkpt lat="42.8039309" lon="11.6828938"><ele>714.0</ele><time>2026-04-11T09:38:33.442Z</time></trkpt><trkpt lat="42.8040206" lon="11.6827929"><ele>718.3333333333334</ele><time>2026-04-11T09:38:34.442Z</time></trkpt><trkpt lat="42.8041217" lon="11.682685"><ele>722.6666666666667</ele><time>2026-04-11T09:38:35.435Z</time></trkpt><trkpt lat="42.8042204" lon="11.6825376"><ele>727.0</ele><time>2026-04-11T09:38:36.434Z</time></trkpt><trkpt lat="42.8043147" lon="11.6823302"><ele>726.75</ele><time>2026-04-11T09:38:37.429Z</time></trkpt><trkpt lat="42.8044043" lon="11.6821526"><ele>726.5</ele><time>2026-04-11T09:38:38.429Z</time></trkpt><trkpt lat="42.804472" lon="11.6819366"><ele>726.25</ele><time>2026-04-11T09:38:39.436Z</time></trkpt><trkpt lat="42.8045228" lon="11.6817924"><ele>726.0</ele><time>2026-04-11T09:38:40.438Z</time></trkpt><trkpt lat="42.8045401" lon="11.6816258"><ele>726.0</ele><time>2026-04-11T09:38:41.44Z</time></trkpt><trkpt lat="42.8045906" lon="11.6814842"><ele>726.0</ele><time>2026-04-11T09:38:42.425Z</time></trkpt><trkpt lat="42.8046563" lon="11.681384"><ele>726.0</ele><time>2026-04-11T09:38:43.43Z</time></trkpt><trkpt lat="42.8047353" lon="11.6813078"><ele>726.0</ele><time>2026-04-11T09:38:44.43Z</time></trkpt><trkpt lat="42.8048096" lon="11.6811526"><ele>726.0</ele><time>2026-04-11T09:38:45.427Z</time></trkpt><trkpt lat="42.8048557" lon="11.6809617"><ele>728.25</ele><time>2026-04-11T09:38:46.418Z</time></trkpt><trkpt lat="42.8048895" lon="11.6807533"><ele>730.5</ele><time>2026-04-11T09:38:47.418Z</time></trkpt><trkpt lat="42.8049731" lon="11.6805879"><ele>732.75</ele><time>2026-04-11T09:38:48.42Z</time></trkpt><trkpt lat="42.8050615" lon="11.6804313"><ele>735.0</ele><time>2026-04-11T09:38:49.419Z</time></trkpt><trkpt lat="42.8051568" lon="11.6802867"><ele>736.25</ele><time>2026-04-11T09:38:50.433Z</time></trkpt><trkpt lat="42.8052717" lon="11.6801511"><ele>737.5</ele><time>2026-04-11T09:38:51.425Z</time></trkpt><trkpt lat="42.8053568" lon="11.6800616"><ele>738.75</ele><time>2026-04-11T09:38:52.423Z</time></trkpt><trkpt lat="42.8054843" lon="11.6799517"><ele>740.0</ele><time>2026-04-11T09:38:53.414Z</time></trkpt><trkpt lat="42.8056121" lon="11.6798146"><ele>740.0</ele><time>2026-04-11T09:38:54.423Z</time></trkpt><trkpt lat="42.8057243" lon="11.6796557"><ele>740.0</ele><time>2026-04-11T09:38:55.434Z</time></trkpt><trkpt lat="42.8058339" lon="11.6794849"><ele>740.0</ele><time>2026-04-11T09:38:56.429Z</time></trkpt><trkpt lat="42.8059355" lon="11.6793318"><ele>740.5</ele><time>2026-04-11T09:38:57.429Z</time></trkpt><trkpt lat="42.8060158" lon="11.6791713"><ele>741.0</ele><time>2026-04-11T09:38:58.425Z</time></trkpt><trkpt lat="42.8060992" lon="11.6789983"><ele>741.5</ele><time>2026-04-11T09:38:59.429Z</time></trkpt><trkpt lat="42.8062108" lon="11.6788682"><ele>742.0</ele><time>2026-04-11T09:39:00.426Z</time></trkpt><trkpt lat="42.8062956" lon="11.6787181"><ele>743.25</ele><time>2026-04-11T09:39:01.429Z</time></trkpt><trkpt lat="42.8063908" lon="11.6785997"><ele>744.5</ele><time>2026-04-11T09:39:02.429Z</time></trkpt><trkpt lat="42.8065543" lon="11.6785725"><ele>745.75</ele><time>2026-04-11T09:39:03.425Z</time></trkpt><trkpt lat="42.806706" lon="11.6785377"><ele>747.0</ele><time>2026-04-11T09:39:04.427Z</time></trkpt><trkpt lat="42.8068534" lon="11.6784679"><ele>747.0</ele><time>2026-04-11T09:39:05.426Z</time></trkpt><trkpt lat="42.8070105" lon="11.6783906"><ele>747.0</ele><time>2026-04-11T09:39:06.422Z</time></trkpt><trkpt lat="42.8071773" lon="11.6783061"><ele>747.0</ele><time>2026-04-11T09:39:07.42Z</time></trkpt><trkpt lat="42.8073407" lon="11.678227"><ele>747.0</ele><time>2026-04-11T09:39:08.429Z</time></trkpt><trkpt lat="42.8074594" lon="11.6781418"><ele>747.0</ele><time>2026-04-11T09:39:09.432Z</time></trkpt><trkpt lat="42.8075764" lon="11.6780675"><ele>747.0</ele><time>2026-04-11T09:39:10.432Z</time></trkpt><trkpt lat="42.8077069" lon="11.6779548"><ele>747.0</ele><time>2026-04-11T09:39:11.436Z</time></trkpt><trkpt lat="42.8078536" lon="11.6778605"><ele>745.8</ele><time>2026-04-11T09:39:12.438Z</time></trkpt><trkpt lat="42.807989" lon="11.6777812"><ele>744.6</ele><time>2026-04-11T09:39:13.434Z</time></trkpt><trkpt lat="42.8080832" lon="11.6776787"><ele>743.4</ele><time>2026-04-11T09:39:14.433Z</time></trkpt><trkpt lat="42.8081671" lon="11.6776228"><ele>742.1999999999999</ele><time>2026-04-11T09:39:15.437Z</time></trkpt><trkpt lat="42.8082168" lon="11.6775553"><ele>741.0</ele><time>2026-04-11T09:39:16.452Z</time></trkpt><trkpt lat="42.8082386" lon="11.6774509"><ele>741.0</ele><time>2026-04-11T09:39:17.451Z</time></trkpt><trkpt lat="42.8082363" lon="11.6773329"><ele>741.0</ele><time>2026-04-11T09:39:18.447Z</time></trkpt><trkpt lat="42.8082131" lon="11.6772237"><ele>741.0</ele><time>2026-04-11T09:39:19.431Z</time></trkpt><trkpt lat="42.8081494" lon="11.6771094"><ele>741.0</ele><time>2026-04-11T09:39:20.427Z</time></trkpt><trkpt lat="42.8080573" lon="11.6770017"><ele>741.0</ele><time>2026-04-11T09:39:21.439Z</time></trkpt><trkpt lat="42.8079768" lon="11.6769112"><ele>739.8333333333334</ele><time>2026-04-11T09:39:22.426Z</time></trkpt><trkpt lat="42.80789" lon="11.6768437"><ele>738.6666666666666</ele><time>2026-04-11T09:39:23.425Z</time></trkpt><trkpt lat="42.8078542" lon="11.6767519"><ele>737.5</ele><time>2026-04-11T09:39:24.421Z</time></trkpt><trkpt lat="42.8078591" lon="11.6766451"><ele>736.3333333333333</ele><time>2026-04-11T09:39:25.428Z</time></trkpt><trkpt lat="42.8079175" lon="11.6765731"><ele>735.1666666666666</ele><time>2026-04-11T09:39:26.434Z</time></trkpt><trkpt lat="42.8080207" lon="11.6765359"><ele>734.0</ele><time>2026-04-11T09:39:27.425Z</time></trkpt><trkpt lat="42.8081513" lon="11.6765278"><ele>734.0</ele><time>2026-04-11T09:39:28.424Z</time></trkpt><trkpt lat="42.8082687" lon="11.6765402"><ele>734.0</ele><time>2026-04-11T09:39:29.426Z</time></trkpt><trkpt lat="42.8083875" lon="11.6765918"><ele>734.0</ele><time>2026-04-11T09:39:30.436Z</time></trkpt><trkpt lat="42.8085118" lon="11.6766717"><ele>734.0</ele><time>2026-04-11T09:39:31.432Z</time></trkpt><trkpt lat="42.8086306" lon="11.6767334"><ele>731.5</ele><time>2026-04-11T09:39:32.438Z</time></trkpt><trkpt lat="42.8087406" lon="11.6768163"><ele>729.0</ele><time>2026-04-11T09:39:33.429Z</time></trkpt><trkpt lat="42.8088545" lon="11.6768789"><ele>726.5</ele><time>2026-04-11T09:39:34.428Z</time></trkpt><trkpt lat="42.8089665" lon="11.6769357"><ele>724.0</ele><time>2026-04-11T09:39:35.427Z</time></trkpt><trkpt lat="42.809059" lon="11.6769902"><ele>724.0</ele><time>2026-04-11T09:39:36.432Z</time></trkpt><trkpt lat="42.8091447" lon="11.6770338"><ele>724.0</ele><time>2026-04-11T09:39:37.427Z</time></trkpt><trkpt lat="42.8092321" lon="11.6770885"><ele>724.0</ele><time>2026-04-11T09:39:38.432Z</time></trkpt><trkpt lat="42.8093156" lon="11.6771381"><ele>724.0</ele><time>2026-04-11T09:39:39.435Z</time></trkpt><trkpt lat="42.8094005" lon="11.6771954"><ele>724.0</ele><time>2026-04-11T09:39:40.442Z</time></trkpt><trkpt lat="42.8094829" lon="11.6772446"><ele>721.5</ele><time>2026-04-11T09:39:41.444Z</time></trkpt><trkpt lat="42.8095674" lon="11.677287"><ele>719.0</ele><time>2026-04-11T09:39:42.444Z</time></trkpt><trkpt lat="42.8096401" lon="11.6773257"><ele>716.5</ele><time>2026-04-11T09:39:43.446Z</time></trkpt><trkpt lat="42.8097061" lon="11.6773554"><ele>714.0</ele><time>2026-04-11T09:39:44.443Z</time></trkpt><trkpt lat="42.8097778" lon="11.6773592"><ele>711.5</ele><time>2026-04-11T09:39:46.448Z</time></trkpt><trkpt lat="42.80985" lon="11.6772699"><ele>709.0</ele><time>2026-04-11T09:39:48.438Z</time></trkpt><trkpt lat="42.8097973" lon="11.6771218"><ele>709.0</ele><time>2026-04-11T09:39:50.448Z</time></trkpt><trkpt lat="42.8097605" lon="11.6770366"><ele>709.0</ele><time>2026-04-11T09:39:51.442Z</time></trkpt><trkpt lat="42.8097217" lon="11.6769637"><ele>709.0</ele><time>2026-04-11T09:39:52.451Z</time></trkpt><trkpt lat="42.8096718" lon="11.6768775"><ele>709.0</ele><time>2026-04-11T09:39:53.441Z</time></trkpt><trkpt lat="42.8095956" lon="11.6767634"><ele>709.0</ele><time>2026-04-11T09:39:55.435Z</time></trkpt><trkpt lat="42.8095417" lon="11.6767022"><ele>709.0</ele><time>2026-04-11T09:39:58.439Z</time></trkpt><trkpt lat="42.8095114" lon="11.6765877"><ele>707.75</ele><time>2026-04-11T09:40:18.427Z</time></trkpt><trkpt lat="42.8094962" lon="11.6765015"><ele>706.5</ele><time>2026-04-11T09:40:19.42Z</time></trkpt><trkpt lat="42.8094694" lon="11.6763445"><ele>705.25</ele><time>2026-04-11T09:40:20.426Z</time></trkpt><trkpt lat="42.8094584" lon="11.6761647"><ele>704.0</ele><time>2026-04-11T09:40:21.427Z</time></trkpt><trkpt lat="42.8094553" lon="11.6759773"><ele>703.25</ele><time>2026-04-11T09:40:22.439Z</time></trkpt><trkpt lat="42.8094666" lon="11.6758151"><ele>702.5</ele><time>2026-04-11T09:40:23.442Z</time></trkpt><trkpt lat="42.8094771" lon="11.6756145"><ele>701.75</ele><time>2026-04-11T09:40:24.436Z</time></trkpt><trkpt lat="42.8094666" lon="11.6754021"><ele>701.0</ele><time>2026-04-11T09:40:25.453Z</time></trkpt><trkpt lat="42.8094314" lon="11.6751729"><ele>701.0</ele><time>2026-04-11T09:40:26.452Z</time></trkpt><trkpt lat="42.8094388" lon="11.674976"><ele>701.0</ele><time>2026-04-11T09:40:27.454Z</time></trkpt><trkpt lat="42.8094455" lon="11.6747956"><ele>701.0</ele><time>2026-04-11T09:40:28.461Z</time></trkpt><trkpt lat="42.8094634" lon="11.6746422"><ele>701.0</ele><time>2026-04-11T09:40:29.448Z</time></trkpt><trkpt lat="42.8094797" lon="11.6744982"><ele>702.0</ele><time>2026-04-11T09:40:30.441Z</time></trkpt><trkpt lat="42.809518" lon="11.6743874"><ele>703.0</ele><time>2026-04-11T09:40:31.444Z</time></trkpt><trkpt lat="42.809579" lon="11.6742877"><ele>704.0</ele><time>2026-04-11T09:40:32.442Z</time></trkpt><trkpt lat="42.8096373" lon="11.6741633"><ele>705.0</ele><time>2026-04-11T09:40:33.435Z</time></trkpt><trkpt lat="42.8096975" lon="11.6740361"><ele>706.0</ele><time>2026-04-11T09:40:34.44Z</time></trkpt><trkpt lat="42.8097849" lon="11.6739107"><ele>706.0</ele><time>2026-04-11T09:40:35.431Z</time></trkpt><trkpt lat="42.8098856" lon="11.6737935"><ele>706.0</ele><time>2026-04-11T09:40:36.428Z</time></trkpt><trkpt lat="42.810005" lon="11.6736925"><ele>706.0</ele><time>2026-04-11T09:40:37.434Z</time></trkpt><trkpt lat="42.8101185" lon="11.673601"><ele>706.0</ele><time>2026-04-11T09:40:38.424Z</time></trkpt><trkpt lat="42.8102385" lon="11.6735095"><ele>705.75</ele><time>2026-04-11T09:40:39.428Z</time></trkpt><trkpt lat="42.8103599" lon="11.673414"><ele>705.5</ele><time>2026-04-11T09:40:40.421Z</time></trkpt><trkpt lat="42.8104945" lon="11.6733175"><ele>705.25</ele><time>2026-04-11T09:40:41.419Z</time></trkpt><trkpt lat="42.8106204" lon="11.673223"><ele>705.0</ele><time>2026-04-11T09:40:42.423Z</time></trkpt><trkpt lat="42.8107273" lon="11.6731493"><ele>705.0</ele><time>2026-04-11T09:40:43.412Z</time></trkpt><trkpt lat="42.8108383" lon="11.6730728"><ele>705.0</ele><time>2026-04-11T09:40:44.401Z</time></trkpt><trkpt lat="42.8109452" lon="11.6730403"><ele>705.0</ele><time>2026-04-11T09:40:45.415Z</time></trkpt><trkpt lat="42.8110409" lon="11.6730859"><ele>705.0</ele><time>2026-04-11T09:40:46.406Z</time></trkpt><trkpt lat="42.8111432" lon="11.673112"><ele>705.0</ele><time>2026-04-11T09:40:47.411Z</time></trkpt><trkpt lat="42.8112389" lon="11.6731368"><ele>704.75</ele><time>2026-04-11T09:40:48.409Z</time></trkpt><trkpt lat="42.8113388" lon="11.6731525"><ele>704.5</ele><time>2026-04-11T09:40:49.398Z</time></trkpt><trkpt lat="42.8114498" lon="11.6731301"><ele>704.25</ele><time>2026-04-11T09:40:50.408Z</time></trkpt><trkpt lat="42.8115572" lon="11.6730583"><ele>704.0</ele><time>2026-04-11T09:40:51.405Z</time></trkpt><trkpt lat="42.8116648" lon="11.6729462"><ele>704.0</ele><time>2026-04-11T09:40:52.413Z</time></trkpt><trkpt lat="42.8117695" lon="11.6728317"><ele>704.0</ele><time>2026-04-11T09:40:53.413Z</time></trkpt><trkpt lat="42.8118708" lon="11.6727236"><ele>704.0</ele><time>2026-04-11T09:40:54.429Z</time></trkpt><trkpt lat="42.8119609" lon="11.6726216"><ele>704.0</ele><time>2026-04-11T09:40:55.41Z</time></trkpt><trkpt lat="42.8120432" lon="11.6725126"><ele>704.5</ele><time>2026-04-11T09:40:56.412Z</time></trkpt><trkpt lat="42.8121024" lon="11.6723934"><ele>705.0</ele><time>2026-04-11T09:40:57.401Z</time></trkpt><trkpt lat="42.8121266" lon="11.6722369"><ele>705.5</ele><time>2026-04-11T09:40:58.406Z</time></trkpt><trkpt lat="42.8121195" lon="11.6720583"><ele>706.0</ele><time>2026-04-11T09:40:59.417Z</time></trkpt><trkpt lat="42.8121333" lon="11.6718813"><ele>708.0</ele><time>2026-04-11T09:41:00.412Z</time></trkpt><trkpt lat="42.8121596" lon="11.6717093"><ele>710.0</ele><time>2026-04-11T09:41:01.416Z</time></trkpt><trkpt lat="42.8121904" lon="11.671552"><ele>712.0</ele><time>2026-04-11T09:41:02.411Z</time></trkpt><trkpt lat="42.8122284" lon="11.6714139"><ele>714.0</ele><time>2026-04-11T09:41:03.398Z</time></trkpt><trkpt lat="42.8122453" lon="11.6712917"><ele>716.0</ele><time>2026-04-11T09:41:04.402Z</time></trkpt><trkpt lat="42.8122292" lon="11.6711885"><ele>718.5999999999999</ele><time>2026-04-11T09:41:05.402Z</time></trkpt><trkpt lat="42.81219" lon="11.6711057"><ele>721.2</ele><time>2026-04-11T09:41:06.399Z</time></trkpt><trkpt lat="42.8121375" lon="11.6710371"><ele>723.8</ele><time>2026-04-11T09:41:07.404Z</time></trkpt><trkpt lat="42.8120622" lon="11.6709895"><ele>726.4000000000001</ele><time>2026-04-11T09:41:08.407Z</time></trkpt><trkpt lat="42.8119611" lon="11.6709715"><ele>729.0</ele><time>2026-04-11T09:41:09.408Z</time></trkpt><trkpt lat="42.8118348" lon="11.6709637"><ele>732.5</ele><time>2026-04-11T09:41:10.418Z</time></trkpt><trkpt lat="42.8116908" lon="11.6709414"><ele>736.0</ele><time>2026-04-11T09:41:11.424Z</time></trkpt><trkpt lat="42.8115631" lon="11.6708976"><ele>739.5</ele><time>2026-04-11T09:41:12.428Z</time></trkpt><trkpt lat="42.8114665" lon="11.6708433"><ele>743.0</ele><time>2026-04-11T09:41:13.429Z</time></trkpt><trkpt lat="42.8113918" lon="11.6707787"><ele>743.0</ele><time>2026-04-11T09:41:14.422Z</time></trkpt><trkpt lat="42.8113495" lon="11.6707116"><ele>743.0</ele><time>2026-04-11T09:41:15.421Z</time></trkpt><trkpt lat="42.8113238" lon="11.6706277"><ele>743.0</ele><time>2026-04-11T09:41:16.423Z</time></trkpt><trkpt lat="42.8113206" lon="11.6705392"><ele>743.0</ele><time>2026-04-11T09:41:17.418Z</time></trkpt><trkpt lat="42.8113295" lon="11.6704473"><ele>743.0</ele><time>2026-04-11T09:41:18.416Z</time></trkpt><trkpt lat="42.8113471" lon="11.6703538"><ele>743.0</ele><time>2026-04-11T09:41:19.418Z</time></trkpt><trkpt lat="42.8113704" lon="11.6702544"><ele>743.0</ele><time>2026-04-11T09:41:20.421Z</time></trkpt><trkpt lat="42.8113839" lon="11.6701511"><ele>744.3333333333333</ele><time>2026-04-11T09:41:21.42Z</time></trkpt><trkpt lat="42.8113777" lon="11.6700455"><ele>745.6666666666666</ele><time>2026-04-11T09:41:22.417Z</time></trkpt><trkpt lat="42.8113451" lon="11.6699467"><ele>747.0</ele><time>2026-04-11T09:41:23.428Z</time></trkpt><trkpt lat="42.8113066" lon="11.669842"><ele>748.3333333333334</ele><time>2026-04-11T09:41:24.424Z</time></trkpt><trkpt lat="42.8112633" lon="11.6697403"><ele>749.6666666666667</ele><time>2026-04-11T09:41:25.425Z</time></trkpt><trkpt lat="42.8112267" lon="11.6696479"><ele>751.0</ele><time>2026-04-11T09:41:26.423Z</time></trkpt><trkpt lat="42.8112007" lon="11.6695521"><ele>751.0</ele><time>2026-04-11T09:41:27.421Z</time></trkpt><trkpt lat="42.8111937" lon="11.66945"><ele>751.0</ele><time>2026-04-11T09:41:28.417Z</time></trkpt><trkpt lat="42.8112189" lon="11.6693682"><ele>751.0</ele><time>2026-04-11T09:41:29.41Z</time></trkpt><trkpt lat="42.8112794" lon="11.6692994"><ele>751.0</ele><time>2026-04-11T09:41:30.422Z</time></trkpt><trkpt lat="42.8113486" lon="11.6692298"><ele>751.0</ele><time>2026-04-11T09:41:31.413Z</time></trkpt><trkpt lat="42.8114199" lon="11.669146"><ele>751.0</ele><time>2026-04-11T09:41:32.412Z</time></trkpt><trkpt lat="42.8114398" lon="11.6690611"><ele>752.6666666666667</ele><time>2026-04-11T09:41:33.401Z</time></trkpt><trkpt lat="42.8114553" lon="11.6689751"><ele>754.3333333333334</ele><time>2026-04-11T09:41:34.407Z</time></trkpt><trkpt lat="42.8114242" lon="11.6688888"><ele>756.0</ele><time>2026-04-11T09:41:35.4Z</time></trkpt><trkpt lat="42.8113932" lon="11.6687691"><ele>757.6666666666666</ele><time>2026-04-11T09:41:36.396Z</time></trkpt><trkpt lat="42.8113162" lon="11.6686537"><ele>759.3333333333333</ele><time>2026-04-11T09:41:37.4Z</time></trkpt><trkpt lat="42.8112637" lon="11.668545"><ele>761.0</ele><time>2026-04-11T09:41:38.398Z</time></trkpt><trkpt lat="42.8112017" lon="11.6684333"><ele>763.0</ele><time>2026-04-11T09:41:39.4Z</time></trkpt><trkpt lat="42.8111702" lon="11.6683009"><ele>765.0</ele><time>2026-04-11T09:41:40.406Z</time></trkpt><trkpt lat="42.8111601" lon="11.6681621"><ele>767.0</ele><time>2026-04-11T09:41:41.408Z</time></trkpt><trkpt lat="42.8111632" lon="11.6680196"><ele>769.0</ele><time>2026-04-11T09:41:42.402Z</time></trkpt><trkpt lat="42.8111802" lon="11.6678757"><ele>771.0</ele><time>2026-04-11T09:41:43.427Z</time></trkpt><trkpt lat="42.8112195" lon="11.6677505"><ele>773.1999999999999</ele><time>2026-04-11T09:41:44.424Z</time></trkpt><trkpt lat="42.8112638" lon="11.6676175"><ele>775.4</ele><time>2026-04-11T09:41:45.425Z</time></trkpt><trkpt lat="42.8112752" lon="11.6674835"><ele>777.6</ele><time>2026-04-11T09:41:46.413Z</time></trkpt><trkpt lat="42.8112557" lon="11.6673548"><ele>779.8</ele><time>2026-04-11T09:41:47.411Z</time></trkpt><trkpt lat="42.8112085" lon="11.6672109"><ele>782.0</ele><time>2026-04-11T09:41:48.423Z</time></trkpt><trkpt lat="42.8111594" lon="11.6670642"><ele>784.0</ele><time>2026-04-11T09:41:49.421Z</time></trkpt><trkpt lat="42.8111423" lon="11.6669079"><ele>786.0</ele><time>2026-04-11T09:41:50.419Z</time></trkpt><trkpt lat="42.8111255" lon="11.6667577"><ele>788.0</ele><time>2026-04-11T09:41:51.415Z</time></trkpt><trkpt lat="42.8111371" lon="11.6665985"><ele>790.0</ele><time>2026-04-11T09:41:52.425Z</time></trkpt><trkpt lat="42.8111593" lon="11.666447"><ele>790.0</ele><time>2026-04-11T09:41:53.423Z</time></trkpt><trkpt lat="42.8111404" lon="11.6662783"><ele>790.0</ele><time>2026-04-11T09:41:54.424Z</time></trkpt><trkpt lat="42.8111103" lon="11.6661028"><ele>790.0</ele><time>2026-04-11T09:41:55.428Z</time></trkpt><trkpt lat="42.8110704" lon="11.6659311"><ele>790.0</ele><time>2026-04-11T09:41:56.422Z</time></trkpt><trkpt lat="42.8110215" lon="11.665761"><ele>793.0</ele><time>2026-04-11T09:41:57.419Z</time></trkpt><trkpt lat="42.8109622" lon="11.6655915"><ele>796.0</ele><time>2026-04-11T09:41:58.416Z</time></trkpt><trkpt lat="42.810891" lon="11.6654273"><ele>799.0</ele><time>2026-04-11T09:41:59.425Z</time></trkpt><trkpt lat="42.8107867" lon="11.6652858"><ele>802.0</ele><time>2026-04-11T09:42:00.418Z</time></trkpt><trkpt lat="42.8106948" lon="11.6651464"><ele>802.4000000000001</ele><time>2026-04-11T09:42:01.43Z</time></trkpt><trkpt lat="42.8106276" lon="11.6650619"><ele>802.8000000000001</ele><time>2026-04-11T09:42:02.42Z</time></trkpt><trkpt lat="42.8105327" lon="11.6649771"><ele>803.2</ele><time>2026-04-11T09:42:03.421Z</time></trkpt><trkpt lat="42.8104822" lon="11.6648733"><ele>803.6</ele><time>2026-04-11T09:42:04.422Z</time></trkpt><trkpt lat="42.8104152" lon="11.6647996"><ele>804.0</ele><time>2026-04-11T09:42:05.423Z</time></trkpt><trkpt lat="42.8104786" lon="11.6648385"><ele>804.0</ele><time>2026-04-11T09:42:08.441Z</time></trkpt><trkpt lat="42.8105224" lon="11.6649471"><ele>804.0</ele><time>2026-04-11T09:42:11.437Z</time></trkpt><trkpt lat="42.8105506" lon="11.6650669"><ele>804.0</ele><time>2026-04-11T09:42:13.438Z</time></trkpt><trkpt lat="42.8105896" lon="11.6651501"><ele>804.0</ele><time>2026-04-11T09:42:14.429Z</time></trkpt><trkpt lat="42.810668" lon="11.6652862"><ele>804.0</ele><time>2026-04-11T09:42:16.43Z</time></trkpt><trkpt lat="42.8107294" lon="11.665368"><ele>803.6666666666666</ele><time>2026-04-11T09:42:17.438Z</time></trkpt><trkpt lat="42.8107821" lon="11.6654496"><ele>803.3333333333333</ele><time>2026-04-11T09:42:18.434Z</time></trkpt><trkpt lat="42.8108349" lon="11.6655243"><ele>803.0</ele><time>2026-04-11T09:42:19.434Z</time></trkpt><trkpt lat="42.810889" lon="11.6656042"><ele>802.6666666666666</ele><time>2026-04-11T09:42:20.429Z</time></trkpt><trkpt lat="42.8109318" lon="11.6656865"><ele>802.3333333333333</ele><time>2026-04-11T09:42:21.426Z</time></trkpt><trkpt lat="42.8109868" lon="11.6658089"><ele>802.0</ele><time>2026-04-11T09:42:23.433Z</time></trkpt><trkpt lat="42.8110444" lon="11.6658957"><ele>800.2</ele><time>2026-04-11T09:42:25.43Z</time></trkpt><trkpt lat="42.8111147" lon="11.665897"><ele>798.4000000000001</ele><time>2026-04-11T09:42:28.452Z</time></trkpt><trkpt lat="42.8111822" lon="11.6658956"><ele>796.5999999999999</ele><time>2026-04-11T09:42:30.431Z</time></trkpt><trkpt lat="42.8112951" lon="11.6658906"><ele>794.8</ele><time>2026-04-11T09:42:32.44Z</time></trkpt><trkpt lat="42.8113965" lon="11.6659275"><ele>793.0</ele><time>2026-04-11T09:42:33.428Z</time></trkpt><trkpt lat="42.8115273" lon="11.6659619"><ele>793.0</ele><time>2026-04-11T09:42:34.415Z</time></trkpt><trkpt lat="42.8116787" lon="11.6659828"><ele>793.0</ele><time>2026-04-11T09:42:35.417Z</time></trkpt><trkpt lat="42.8118225" lon="11.6659688"><ele>793.0</ele><time>2026-04-11T09:42:36.42Z</time></trkpt><trkpt lat="42.8119681" lon="11.665939"><ele>793.0</ele><time>2026-04-11T09:42:37.432Z</time></trkpt><trkpt lat="42.8121392" lon="11.6659018"><ele>792.25</ele><time>2026-04-11T09:42:38.441Z</time></trkpt><trkpt lat="42.8122931" lon="11.6659073"><ele>791.5</ele><time>2026-04-11T09:42:39.436Z</time></trkpt><trkpt lat="42.8124234" lon="11.6659494"><ele>790.75</ele><time>2026-04-11T09:42:40.436Z</time></trkpt><trkpt lat="42.812555" lon="11.6660083"><ele>790.0</ele><time>2026-04-11T09:42:41.437Z</time></trkpt><trkpt lat="42.8126755" lon="11.6660836"><ele>787.5</ele><time>2026-04-11T09:42:42.443Z</time></trkpt><trkpt lat="42.8127816" lon="11.6661681"><ele>785.0</ele><time>2026-04-11T09:42:43.435Z</time></trkpt><trkpt lat="42.8128868" lon="11.6662376"><ele>782.5</ele><time>2026-04-11T09:42:44.429Z</time></trkpt><trkpt lat="42.8130075" lon="11.666281"><ele>780.0</ele><time>2026-04-11T09:42:45.44Z</time></trkpt><trkpt lat="42.8131138" lon="11.6663353"><ele>780.0</ele><time>2026-04-11T09:42:46.436Z</time></trkpt><trkpt lat="42.8132264" lon="11.6663802"><ele>780.0</ele><time>2026-04-11T09:42:47.439Z</time></trkpt><trkpt lat="42.813321" lon="11.6664462"><ele>780.0</ele><time>2026-04-11T09:42:48.438Z</time></trkpt><trkpt lat="42.8134071" lon="11.6665346"><ele>780.0</ele><time>2026-04-11T09:42:49.433Z</time></trkpt><trkpt lat="42.8134909" lon="11.6666251"><ele>780.0</ele><time>2026-04-11T09:42:50.426Z</time></trkpt><trkpt lat="42.8135761" lon="11.6667077"><ele>779.2</ele><time>2026-04-11T09:42:51.43Z</time></trkpt><trkpt lat="42.8136721" lon="11.6667739"><ele>778.4</ele><time>2026-04-11T09:42:52.426Z</time></trkpt><trkpt lat="42.8137752" lon="11.6668289"><ele>777.5999999999999</ele><time>2026-04-11T09:42:53.425Z</time></trkpt><trkpt lat="42.8138809" lon="11.6668901"><ele>776.8</ele><time>2026-04-11T09:42:54.428Z</time></trkpt><trkpt lat="42.8139791" lon="11.6669619"><ele>776.0</ele><time>2026-04-11T09:42:55.441Z</time></trkpt><trkpt lat="42.8140696" lon="11.6670544"><ele>776.0</ele><time>2026-04-11T09:42:56.443Z</time></trkpt><trkpt lat="42.814152" lon="11.6671594"><ele>776.0</ele><time>2026-04-11T09:42:57.466Z</time></trkpt><trkpt lat="42.8142277" lon="11.6672651"><ele>776.0</ele><time>2026-04-11T09:42:58.443Z</time></trkpt><trkpt lat="42.8143068" lon="11.6673642"><ele>776.0</ele><time>2026-04-11T09:42:59.437Z</time></trkpt><trkpt lat="42.8143789" lon="11.6674556"><ele>776.0</ele><time>2026-04-11T09:43:00.438Z</time></trkpt><trkpt lat="42.8144567" lon="11.6675163"><ele>774.5999999999999</ele><time>2026-04-11T09:43:01.437Z</time></trkpt><trkpt lat="42.8145327" lon="11.6675763"><ele>773.2</ele><time>2026-04-11T09:43:02.446Z</time></trkpt><trkpt lat="42.8146052" lon="11.6676451"><ele>771.8</ele><time>2026-04-11T09:43:03.438Z</time></trkpt><trkpt lat="42.8146764" lon="11.6677252"><ele>770.4000000000001</ele><time>2026-04-11T09:43:04.434Z</time></trkpt><trkpt lat="42.8147543" lon="11.6678001"><ele>769.0</ele><time>2026-04-11T09:43:05.431Z</time></trkpt><trkpt lat="42.8148482" lon="11.6678802"><ele>768.5</ele><time>2026-04-11T09:43:06.429Z</time></trkpt><trkpt lat="42.8149552" lon="11.6679587"><ele>768.0</ele><time>2026-04-11T09:43:07.43Z</time></trkpt><trkpt lat="42.8150674" lon="11.6680544"><ele>767.5</ele><time>2026-04-11T09:43:08.436Z</time></trkpt><trkpt lat="42.8151796" lon="11.668162"><ele>767.0</ele><time>2026-04-11T09:43:09.444Z</time></trkpt><trkpt lat="42.8152822" lon="11.6682737"><ele>765.8</ele><time>2026-04-11T09:43:10.435Z</time></trkpt><trkpt lat="42.8153736" lon="11.6683798"><ele>764.6</ele><time>2026-04-11T09:43:11.432Z</time></trkpt><trkpt lat="42.8154531" lon="11.6684841"><ele>763.4</ele><time>2026-04-11T09:43:12.432Z</time></trkpt><trkpt lat="42.8155307" lon="11.6685899"><ele>762.1999999999999</ele><time>2026-04-11T09:43:13.431Z</time></trkpt><trkpt lat="42.8156057" lon="11.6686972"><ele>761.0</ele><time>2026-04-11T09:43:14.438Z</time></trkpt><trkpt lat="42.8156738" lon="11.6688264"><ele>760.0</ele><time>2026-04-11T09:43:15.43Z</time></trkpt><trkpt lat="42.815755" lon="11.6689598"><ele>759.0</ele><time>2026-04-11T09:43:16.433Z</time></trkpt><trkpt lat="42.8158387" lon="11.6691042"><ele>758.0</ele><time>2026-04-11T09:43:17.429Z</time></trkpt><trkpt lat="42.8159205" lon="11.669256"><ele>757.0</ele><time>2026-04-11T09:43:18.439Z</time></trkpt><trkpt lat="42.8160008" lon="11.6694"><ele>755.8</ele><time>2026-04-11T09:43:19.433Z</time></trkpt><trkpt lat="42.8160728" lon="11.6695434"><ele>754.6</ele><time>2026-04-11T09:43:20.425Z</time></trkpt><trkpt lat="42.8161334" lon="11.6696695"><ele>753.4</ele><time>2026-04-11T09:43:21.437Z</time></trkpt><trkpt lat="42.816166" lon="11.6698005"><ele>752.1999999999999</ele><time>2026-04-11T09:43:22.443Z</time></trkpt><trkpt lat="42.8161922" lon="11.6699329"><ele>751.0</ele><time>2026-04-11T09:43:23.439Z</time></trkpt><trkpt lat="42.8162097" lon="11.6700595"><ele>751.0</ele><time>2026-04-11T09:43:24.444Z</time></trkpt><trkpt lat="42.8162265" lon="11.6701835"><ele>751.0</ele><time>2026-04-11T09:43:25.436Z</time></trkpt><trkpt lat="42.816243" lon="11.6703026"><ele>751.0</ele><time>2026-04-11T09:43:26.441Z</time></trkpt><trkpt lat="42.8162695" lon="11.6704026"><ele>751.0</ele><time>2026-04-11T09:43:27.441Z</time></trkpt><trkpt lat="42.8162969" lon="11.6704886"><ele>751.0</ele><time>2026-04-11T09:43:28.447Z</time></trkpt><trkpt lat="42.8163258" lon="11.6705853"><ele>751.0</ele><time>2026-04-11T09:43:29.433Z</time></trkpt><trkpt lat="42.8163474" lon="11.6706891"><ele>749.3333333333334</ele><time>2026-04-11T09:43:30.439Z</time></trkpt><trkpt lat="42.8163533" lon="11.6707971"><ele>747.6666666666667</ele><time>2026-04-11T09:43:31.44Z</time></trkpt><trkpt lat="42.81633" lon="11.6708987"><ele>746.0</ele><time>2026-04-11T09:43:32.432Z</time></trkpt><trkpt lat="42.8162922" lon="11.6710005"><ele>744.3333333333334</ele><time>2026-04-11T09:43:33.442Z</time></trkpt><trkpt lat="42.8162631" lon="11.6710871"><ele>742.6666666666666</ele><time>2026-04-11T09:43:34.424Z</time></trkpt><trkpt lat="42.8162557" lon="11.6711852"><ele>741.0</ele><time>2026-04-11T09:43:35.425Z</time></trkpt><trkpt lat="42.8162852" lon="11.67129"><ele>738.5</ele><time>2026-04-11T09:43:36.421Z</time></trkpt><trkpt lat="42.8163524" lon="11.6714019"><ele>736.0</ele><time>2026-04-11T09:43:37.423Z</time></trkpt><trkpt lat="42.8164187" lon="11.6715064"><ele>733.5</ele><time>2026-04-11T09:43:38.425Z</time></trkpt><trkpt lat="42.8165199" lon="11.6716179"><ele>731.0</ele><time>2026-04-11T09:43:39.417Z</time></trkpt><trkpt lat="42.8166233" lon="11.6717228"><ele>731.0</ele><time>2026-04-11T09:43:40.428Z</time></trkpt><trkpt lat="42.8167197" lon="11.6718184"><ele>731.0</ele><time>2026-04-11T09:43:41.423Z</time></trkpt><trkpt lat="42.8168085" lon="11.6719039"><ele>731.0</ele><time>2026-04-11T09:43:42.428Z</time></trkpt><trkpt lat="42.8169207" lon="11.6719715"><ele>731.0</ele><time>2026-04-11T09:43:43.44Z</time></trkpt><trkpt lat="42.8170183" lon="11.6720619"><ele>728.25</ele><time>2026-04-11T09:43:44.446Z</time></trkpt><trkpt lat="42.8171267" lon="11.6721448"><ele>725.5</ele><time>2026-04-11T09:43:45.452Z</time></trkpt><trkpt lat="42.817218" lon="11.6722357"><ele>722.75</ele><time>2026-04-11T09:43:46.445Z</time></trkpt><trkpt lat="42.8172908" lon="11.6723582"><ele>720.0</ele><time>2026-04-11T09:43:47.448Z</time></trkpt><trkpt lat="42.8173569" lon="11.6724639"><ele>720.0</ele><time>2026-04-11T09:43:48.458Z</time></trkpt><trkpt lat="42.8174053" lon="11.672576"><ele>720.0</ele><time>2026-04-11T09:43:49.449Z</time></trkpt><trkpt lat="42.8174583" lon="11.6726919"><ele>720.0</ele><time>2026-04-11T09:43:50.47Z</time></trkpt><trkpt lat="42.817518" lon="11.6727965"><ele>720.0</ele><time>2026-04-11T09:43:51.459Z</time></trkpt><trkpt lat="42.8175834" lon="11.6728982"><ele>720.0</ele><time>2026-04-11T09:43:52.452Z</time></trkpt><trkpt lat="42.8176503" lon="11.6729875"><ele>714.25</ele><time>2026-04-11T09:43:53.447Z</time></trkpt><trkpt lat="42.8177336" lon="11.6730737"><ele>708.5</ele><time>2026-04-11T09:43:54.448Z</time></trkpt><trkpt lat="42.8178261" lon="11.6731359"><ele>702.75</ele><time>2026-04-11T09:43:55.45Z</time></trkpt><trkpt lat="42.8179395" lon="11.6732074"><ele>697.0</ele><time>2026-04-11T09:43:56.454Z</time></trkpt><trkpt lat="42.818054" lon="11.6732645"><ele>697.0</ele><time>2026-04-11T09:43:57.446Z</time></trkpt><trkpt lat="42.8181613" lon="11.6733018"><ele>697.0</ele><time>2026-04-11T09:43:58.44Z</time></trkpt><trkpt lat="42.818281" lon="11.6733294"><ele>697.0</ele><time>2026-04-11T09:43:59.454Z</time></trkpt><trkpt lat="42.8184087" lon="11.6733696"><ele>697.0</ele><time>2026-04-11T09:44:00.445Z</time></trkpt><trkpt lat="42.8185326" lon="11.6734056"><ele>694.5</ele><time>2026-04-11T09:44:01.444Z</time></trkpt><trkpt lat="42.818662" lon="11.6734339"><ele>692.0</ele><time>2026-04-11T09:44:02.445Z</time></trkpt><trkpt lat="42.8187882" lon="11.673466"><ele>689.5</ele><time>2026-04-11T09:44:03.445Z</time></trkpt><trkpt lat="42.8189114" lon="11.6735"><ele>687.0</ele><time>2026-04-11T09:44:04.451Z</time></trkpt><trkpt lat="42.8190275" lon="11.6735401"><ele>687.0</ele><time>2026-04-11T09:44:05.441Z</time></trkpt><trkpt lat="42.8191672" lon="11.6735699"><ele>687.0</ele><time>2026-04-11T09:44:06.441Z</time></trkpt><trkpt lat="42.8192919" lon="11.6735937"><ele>687.0</ele><time>2026-04-11T09:44:07.441Z</time></trkpt><trkpt lat="42.8194061" lon="11.6736439"><ele>687.0</ele><time>2026-04-11T09:44:08.438Z</time></trkpt><trkpt lat="42.8195187" lon="11.6737186"><ele>682.75</ele><time>2026-04-11T09:44:09.443Z</time></trkpt><trkpt lat="42.8196301" lon="11.6737933"><ele>678.5</ele><time>2026-04-11T09:44:10.434Z</time></trkpt><trkpt lat="42.8197524" lon="11.6738671"><ele>674.25</ele><time>2026-04-11T09:44:11.44Z</time></trkpt><trkpt lat="42.8198797" lon="11.6739504"><ele>670.0</ele><time>2026-04-11T09:44:12.437Z</time></trkpt><trkpt lat="42.8200383" lon="11.6740529"><ele>667.0</ele><time>2026-04-11T09:44:13.44Z</time></trkpt><trkpt lat="42.8201872" lon="11.6741317"><ele>664.0</ele><time>2026-04-11T09:44:14.447Z</time></trkpt><trkpt lat="42.8203221" lon="11.6742254"><ele>661.0</ele><time>2026-04-11T09:44:15.449Z</time></trkpt><trkpt lat="42.8204503" lon="11.6743114"><ele>661.0</ele><time>2026-04-11T09:44:16.45Z</time></trkpt><trkpt lat="42.8205868" lon="11.6743905"><ele>661.0</ele><time>2026-04-11T09:44:17.444Z</time></trkpt><trkpt lat="42.8207108" lon="11.6744757"><ele>661.0</ele><time>2026-04-11T09:44:18.456Z</time></trkpt><trkpt lat="42.8208154" lon="11.6745655"><ele>661.0</ele><time>2026-04-11T09:44:19.447Z</time></trkpt><trkpt lat="42.8209401" lon="11.6746804"><ele>658.75</ele><time>2026-04-11T09:44:20.444Z</time></trkpt><trkpt lat="42.8210463" lon="11.6748075"><ele>656.5</ele><time>2026-04-11T09:44:21.454Z</time></trkpt><trkpt lat="42.8211342" lon="11.6749176"><ele>654.25</ele><time>2026-04-11T09:44:22.452Z</time></trkpt><trkpt lat="42.8212455" lon="11.675001"><ele>652.0</ele><time>2026-04-11T09:44:23.457Z</time></trkpt><trkpt lat="42.8213687" lon="11.6750994"><ele>652.0</ele><time>2026-04-11T09:44:24.444Z</time></trkpt><trkpt lat="42.8214385" lon="11.6752554"><ele>652.0</ele><time>2026-04-11T09:44:25.453Z</time></trkpt><trkpt lat="42.8215214" lon="11.6754067"><ele>652.0</ele><time>2026-04-11T09:44:26.449Z</time></trkpt><trkpt lat="42.8216034" lon="11.6755513"><ele>652.0</ele><time>2026-04-11T09:44:27.451Z</time></trkpt><trkpt lat="42.8216688" lon="11.6756978"><ele>651.75</ele><time>2026-04-11T09:44:28.45Z</time></trkpt><trkpt lat="42.8217176" lon="11.675845"><ele>651.5</ele><time>2026-04-11T09:44:29.461Z</time></trkpt><trkpt lat="42.821768" lon="11.6759944"><ele>651.25</ele><time>2026-04-11T09:44:30.473Z</time></trkpt><trkpt lat="42.8218006" lon="11.6761421"><ele>651.0</ele><time>2026-04-11T09:44:31.462Z</time></trkpt><trkpt lat="42.8218317" lon="11.6762817"><ele>648.8333333333334</ele><time>2026-04-11T09:44:32.457Z</time></trkpt><trkpt lat="42.8218654" lon="11.6764047"><ele>646.6666666666666</ele><time>2026-04-11T09:44:33.447Z</time></trkpt><trkpt lat="42.8219089" lon="11.6765067"><ele>644.5</ele><time>2026-04-11T09:44:34.449Z</time></trkpt><trkpt lat="42.821962" lon="11.676594"><ele>642.3333333333333</ele><time>2026-04-11T09:44:35.456Z</time></trkpt><trkpt lat="42.8220296" lon="11.6766602"><ele>640.1666666666666</ele><time>2026-04-11T09:44:36.442Z</time></trkpt><trkpt lat="42.8221249" lon="11.6766791"><ele>638.0</ele><time>2026-04-11T09:44:37.446Z</time></trkpt><trkpt lat="42.8222298" lon="11.6766948"><ele>638.0</ele><time>2026-04-11T09:44:38.45Z</time></trkpt><trkpt lat="42.8223379" lon="11.6767127"><ele>638.0</ele><time>2026-04-11T09:44:39.453Z</time></trkpt><trkpt lat="42.8224415" lon="11.6767611"><ele>638.0</ele><time>2026-04-11T09:44:40.45Z</time></trkpt><trkpt lat="42.8225328" lon="11.6768431"><ele>638.0</ele><time>2026-04-11T09:44:41.449Z</time></trkpt><trkpt lat="42.8225858" lon="11.676982"><ele>638.0</ele><time>2026-04-11T09:44:42.445Z</time></trkpt><trkpt lat="42.822652" lon="11.6771289"><ele>634.25</ele><time>2026-04-11T09:44:43.448Z</time></trkpt><trkpt lat="42.8227116" lon="11.6772787"><ele>630.5</ele><time>2026-04-11T09:44:44.447Z</time></trkpt><trkpt lat="42.8227937" lon="11.6774123"><ele>626.75</ele><time>2026-04-11T09:44:45.459Z</time></trkpt><trkpt lat="42.8228877" lon="11.677557"><ele>623.0</ele><time>2026-04-11T09:44:46.455Z</time></trkpt><trkpt lat="42.823009" lon="11.6776863"><ele>622.25</ele><time>2026-04-11T09:44:47.458Z</time></trkpt><trkpt lat="42.8231088" lon="11.6778085"><ele>621.5</ele><time>2026-04-11T09:44:48.456Z</time></trkpt><trkpt lat="42.8232128" lon="11.6779046"><ele>620.75</ele><time>2026-04-11T09:44:49.459Z</time></trkpt><trkpt lat="42.8233271" lon="11.6779999"><ele>620.0</ele><time>2026-04-11T09:44:50.461Z</time></trkpt><trkpt lat="42.8234348" lon="11.6780942"><ele>617.25</ele><time>2026-04-11T09:44:51.461Z</time></trkpt><trkpt lat="42.823535" lon="11.6781971"><ele>614.5</ele><time>2026-04-11T09:44:52.452Z</time></trkpt><trkpt lat="42.8236363" lon="11.6782959"><ele>611.75</ele><time>2026-04-11T09:44:53.454Z</time></trkpt><trkpt lat="42.8237244" lon="11.6784187"><ele>609.0</ele><time>2026-04-11T09:44:54.448Z</time></trkpt><trkpt lat="42.8238018" lon="11.6785424"><ele>610.25</ele><time>2026-04-11T09:44:55.455Z</time></trkpt><trkpt lat="42.8238788" lon="11.6786633"><ele>611.5</ele><time>2026-04-11T09:44:56.464Z</time></trkpt><trkpt lat="42.8239564" lon="11.6787679"><ele>612.75</ele><time>2026-04-11T09:44:57.453Z</time></trkpt><trkpt lat="42.8240377" lon="11.6788724"><ele>614.0</ele><time>2026-04-11T09:44:58.457Z</time></trkpt><trkpt lat="42.8241117" lon="11.6789878"><ele>614.0</ele><time>2026-04-11T09:44:59.543Z</time></trkpt><trkpt lat="42.8241857" lon="11.6791198"><ele>614.0</ele><time>2026-04-11T09:45:00.457Z</time></trkpt><trkpt lat="42.82428" lon="11.6792388"><ele>614.0</ele><time>2026-04-11T09:45:01.461Z</time></trkpt><trkpt lat="42.8243744" lon="11.6793643"><ele>614.0</ele><time>2026-04-11T09:45:02.454Z</time></trkpt><trkpt lat="42.8244755" lon="11.6794869"><ele>612.0</ele><time>2026-04-11T09:45:03.448Z</time></trkpt><trkpt lat="42.8245763" lon="11.6796202"><ele>610.0</ele><time>2026-04-11T09:45:04.449Z</time></trkpt><trkpt lat="42.824661" lon="11.6797615"><ele>608.0</ele><time>2026-04-11T09:45:05.443Z</time></trkpt><trkpt lat="42.8247131" lon="11.6798864"><ele>606.0</ele><time>2026-04-11T09:45:06.449Z</time></trkpt><trkpt lat="42.8248054" lon="11.6799797"><ele>606.0</ele><time>2026-04-11T09:45:07.435Z</time></trkpt><trkpt lat="42.8248588" lon="11.6800636"><ele>606.0</ele><time>2026-04-11T09:45:08.431Z</time></trkpt><trkpt lat="42.8249094" lon="11.6801481"><ele>606.0</ele><time>2026-04-11T09:45:09.438Z</time></trkpt><trkpt lat="42.8249633" lon="11.6802348"><ele>606.0</ele><time>2026-04-11T09:45:10.434Z</time></trkpt><trkpt lat="42.8249598" lon="11.6803527"><ele>606.0</ele><time>2026-04-11T09:45:11.437Z</time></trkpt><trkpt lat="42.8249299" lon="11.6804583"><ele>606.0</ele><time>2026-04-11T09:45:12.437Z</time></trkpt><trkpt lat="42.8248982" lon="11.680568"><ele>604.2</ele><time>2026-04-11T09:45:13.431Z</time></trkpt><trkpt lat="42.8248764" lon="11.6806963"><ele>602.4000000000001</ele><time>2026-04-11T09:45:14.431Z</time></trkpt><trkpt lat="42.8248536" lon="11.6808228"><ele>600.6</ele><time>2026-04-11T09:45:15.427Z</time></trkpt><trkpt lat="42.8248303" lon="11.6809692"><ele>598.8000000000001</ele><time>2026-04-11T09:45:16.428Z</time></trkpt><trkpt lat="42.8248146" lon="11.6810919"><ele>597.0</ele><time>2026-04-11T09:45:17.433Z</time></trkpt><trkpt lat="42.8248076" lon="11.6812309"><ele>594.8333333333334</ele><time>2026-04-11T09:45:18.432Z</time></trkpt><trkpt lat="42.8248126" lon="11.681364"><ele>592.6666666666666</ele><time>2026-04-11T09:45:19.439Z</time></trkpt><trkpt lat="42.8248287" lon="11.6814894"><ele>590.5</ele><time>2026-04-11T09:45:20.443Z</time></trkpt><trkpt lat="42.8248462" lon="11.6815951"><ele>588.3333333333333</ele><time>2026-04-11T09:45:21.441Z</time></trkpt><trkpt lat="42.8248624" lon="11.6817139"><ele>586.1666666666666</ele><time>2026-04-11T09:45:22.45Z</time></trkpt><trkpt lat="42.8248865" lon="11.6818282"><ele>584.0</ele><time>2026-04-11T09:45:23.441Z</time></trkpt><trkpt lat="42.824921" lon="11.681947"><ele>581.2</ele><time>2026-04-11T09:45:24.443Z</time></trkpt><trkpt lat="42.8249451" lon="11.6820808"><ele>578.4</ele><time>2026-04-11T09:45:25.45Z</time></trkpt><trkpt lat="42.8249677" lon="11.682205"><ele>575.6</ele><time>2026-04-11T09:45:26.455Z</time></trkpt><trkpt lat="42.8250087" lon="11.6823228"><ele>572.8</ele><time>2026-04-11T09:45:27.455Z</time></trkpt><trkpt lat="42.8250433" lon="11.6824449"><ele>570.0</ele><time>2026-04-11T09:45:28.456Z</time></trkpt><trkpt lat="42.8250773" lon="11.6825732"><ele>570.0</ele><time>2026-04-11T09:45:29.461Z</time></trkpt><trkpt lat="42.8251186" lon="11.6826956"><ele>570.0</ele><time>2026-04-11T09:45:30.467Z</time></trkpt><trkpt lat="42.8251581" lon="11.6828301"><ele>570.0</ele><time>2026-04-11T09:45:31.461Z</time></trkpt><trkpt lat="42.8251941" lon="11.6829685"><ele>570.0</ele><time>2026-04-11T09:45:32.479Z</time></trkpt><trkpt lat="42.8252193" lon="11.6831234"><ele>570.0</ele><time>2026-04-11T09:45:33.457Z</time></trkpt><trkpt lat="42.8252383" lon="11.6832923"><ele>566.25</ele><time>2026-04-11T09:45:34.46Z</time></trkpt><trkpt lat="42.8252385" lon="11.6834386"><ele>562.5</ele><time>2026-04-11T09:45:35.452Z</time></trkpt><trkpt lat="42.8252264" lon="11.6835942"><ele>558.75</ele><time>2026-04-11T09:45:36.452Z</time></trkpt><trkpt lat="42.8251993" lon="11.6837655"><ele>555.0</ele><time>2026-04-11T09:45:37.454Z</time></trkpt><trkpt lat="42.8251602" lon="11.6839576"><ele>554.5</ele><time>2026-04-11T09:45:38.455Z</time></trkpt><trkpt lat="42.8251306" lon="11.6841554"><ele>554.0</ele><time>2026-04-11T09:45:39.456Z</time></trkpt><trkpt lat="42.8251041" lon="11.6843432"><ele>553.5</ele><time>2026-04-11T09:45:40.457Z</time></trkpt><trkpt lat="42.8250885" lon="11.6845193"><ele>553.0</ele><time>2026-04-11T09:45:41.449Z</time></trkpt><trkpt lat="42.8250916" lon="11.6846838"><ele>551.6</ele><time>2026-04-11T09:45:42.454Z</time></trkpt><trkpt lat="42.8250811" lon="11.6848406"><ele>550.1999999999999</ele><time>2026-04-11T09:45:43.446Z</time></trkpt><trkpt lat="42.8250817" lon="11.6850025"><ele>548.8</ele><time>2026-04-11T09:45:44.446Z</time></trkpt><trkpt lat="42.8250859" lon="11.6851457"><ele>547.4</ele><time>2026-04-11T09:45:45.446Z</time></trkpt><trkpt lat="42.8250768" lon="11.6852614"><ele>546.0</ele><time>2026-04-11T09:45:46.439Z</time></trkpt><trkpt lat="42.8250318" lon="11.6853486"><ele>544.2</ele><time>2026-04-11T09:45:47.441Z</time></trkpt><trkpt lat="42.8249599" lon="11.6854408"><ele>542.4000000000001</ele><time>2026-04-11T09:45:48.445Z</time></trkpt><trkpt lat="42.8248862" lon="11.6855233"><ele>540.6</ele><time>2026-04-11T09:45:49.433Z</time></trkpt><trkpt lat="42.8248107" lon="11.6855988"><ele>538.8000000000001</ele><time>2026-04-11T09:45:50.433Z</time></trkpt><trkpt lat="42.8247262" lon="11.6857101"><ele>537.0</ele><time>2026-04-11T09:45:51.434Z</time></trkpt><trkpt lat="42.824645" lon="11.6858385"><ele>537.0</ele><time>2026-04-11T09:45:52.426Z</time></trkpt><trkpt lat="42.8246003" lon="11.6859712"><ele>537.0</ele><time>2026-04-11T09:45:53.424Z</time></trkpt><trkpt lat="42.8245564" lon="11.6861214"><ele>537.0</ele><time>2026-04-11T09:45:54.419Z</time></trkpt><trkpt lat="42.8245349" lon="11.6862549"><ele>537.0</ele><time>2026-04-11T09:45:55.417Z</time></trkpt><trkpt lat="42.8245573" lon="11.6863595"><ele>537.0</ele><time>2026-04-11T09:45:56.424Z</time></trkpt><trkpt lat="42.8246016" lon="11.6864422"><ele>534.6</ele><time>2026-04-11T09:45:57.41Z</time></trkpt><trkpt lat="42.8246367" lon="11.6865303"><ele>532.2</ele><time>2026-04-11T09:45:58.418Z</time></trkpt><trkpt lat="42.8247275" lon="11.6865635"><ele>529.8</ele><time>2026-04-11T09:45:59.418Z</time></trkpt><trkpt lat="42.8248093" lon="11.6865482"><ele>527.4</ele><time>2026-04-11T09:46:00.412Z</time></trkpt><trkpt lat="42.8249318" lon="11.6865415"><ele>525.0</ele><time>2026-04-11T09:46:01.414Z</time></trkpt><trkpt lat="42.8250328" lon="11.6865616"><ele>523.2</ele><time>2026-04-11T09:46:02.429Z</time></trkpt><trkpt lat="42.8251476" lon="11.686619"><ele>521.4</ele><time>2026-04-11T09:46:03.413Z</time></trkpt><trkpt lat="42.8252129" lon="11.6866965"><ele>519.6</ele><time>2026-04-11T09:46:04.419Z</time></trkpt><trkpt lat="42.8252744" lon="11.6867888"><ele>517.8</ele><time>2026-04-11T09:46:05.416Z</time></trkpt><trkpt lat="42.8253237" lon="11.6868836"><ele>516.0</ele><time>2026-04-11T09:46:06.414Z</time></trkpt><trkpt lat="42.8253544" lon="11.6869984"><ele>512.5</ele><time>2026-04-11T09:46:07.411Z</time></trkpt><trkpt lat="42.8253555" lon="11.68714"><ele>509.0</ele><time>2026-04-11T09:46:08.416Z</time></trkpt><trkpt lat="42.8253265" lon="11.6872963"><ele>505.5</ele><time>2026-04-11T09:46:09.413Z</time></trkpt><trkpt lat="42.825274" lon="11.6874826"><ele>502.0</ele><time>2026-04-11T09:46:10.423Z</time></trkpt><trkpt lat="42.8252404" lon="11.6876415"><ele>501.20000000000005</ele><time>2026-04-11T09:46:11.411Z</time></trkpt><trkpt lat="42.8252266" lon="11.6877934"><ele>500.40000000000003</ele><time>2026-04-11T09:46:12.41Z</time></trkpt><trkpt lat="42.8252207" lon="11.687948"><ele>499.59999999999997</ele><time>2026-04-11T09:46:13.414Z</time></trkpt><trkpt lat="42.8252425" lon="11.6880957"><ele>498.79999999999995</ele><time>2026-04-11T09:46:14.421Z</time></trkpt><trkpt lat="42.825288" lon="11.6882357"><ele>498.0</ele><time>2026-04-11T09:46:15.418Z</time></trkpt><trkpt lat="42.825317" lon="11.688401"><ele>498.0</ele><time>2026-04-11T09:46:16.421Z</time></trkpt><trkpt lat="42.8253594" lon="11.6885678"><ele>498.0</ele><time>2026-04-11T09:46:17.426Z</time></trkpt><trkpt lat="42.8253985" lon="11.6887467"><ele>498.0</ele><time>2026-04-11T09:46:18.424Z</time></trkpt><trkpt lat="42.8254267" lon="11.688905"><ele>498.0</ele><time>2026-04-11T09:46:19.418Z</time></trkpt><trkpt lat="42.8254462" lon="11.6890631"><ele>497.0</ele><time>2026-04-11T09:46:20.424Z</time></trkpt><trkpt lat="42.8254742" lon="11.6892035"><ele>496.0</ele><time>2026-04-11T09:46:21.417Z</time></trkpt><trkpt lat="42.8255054" lon="11.6893021"><ele>495.0</ele><time>2026-04-11T09:46:22.425Z</time></trkpt><trkpt lat="42.8255599" lon="11.6893469"><ele>494.0</ele><time>2026-04-11T09:46:23.43Z</time></trkpt><trkpt lat="42.8256356" lon="11.6893879"><ele>493.0</ele><time>2026-04-11T09:46:24.436Z</time></trkpt><trkpt lat="42.8257269" lon="11.6894129"><ele>492.0</ele><time>2026-04-11T09:46:25.437Z</time></trkpt><trkpt lat="42.8258071" lon="11.6894518"><ele>489.6</ele><time>2026-04-11T09:46:26.435Z</time></trkpt><trkpt lat="42.8258737" lon="11.6895127"><ele>487.20000000000005</ele><time>2026-04-11T09:46:27.428Z</time></trkpt><trkpt lat="42.8259304" lon="11.6895902"><ele>484.8</ele><time>2026-04-11T09:46:28.434Z</time></trkpt><trkpt lat="42.8259661" lon="11.6897102"><ele>482.4</ele><time>2026-04-11T09:46:29.43Z</time></trkpt><trkpt lat="42.8259786" lon="11.6898573"><ele>480.0</ele><time>2026-04-11T09:46:30.419Z</time></trkpt><trkpt lat="42.8259856" lon="11.6900156"><ele>478.4</ele><time>2026-04-11T09:46:31.431Z</time></trkpt><trkpt lat="42.8259886" lon="11.6901581"><ele>476.8</ele><time>2026-04-11T09:46:32.428Z</time></trkpt><trkpt lat="42.8259592" lon="11.6902863"><ele>475.20000000000005</ele><time>2026-04-11T09:46:33.425Z</time></trkpt><trkpt lat="42.8258933" lon="11.6903796"><ele>473.6</ele><time>2026-04-11T09:46:34.427Z</time></trkpt><trkpt lat="42.8258292" lon="11.6904708"><ele>472.0</ele><time>2026-04-11T09:46:35.419Z</time></trkpt><trkpt lat="42.8257705" lon="11.6905807"><ele>472.0</ele><time>2026-04-11T09:46:36.416Z</time></trkpt><trkpt lat="42.825718" lon="11.6907004"><ele>472.00000000000006</ele><time>2026-04-11T09:46:37.417Z</time></trkpt><trkpt lat="42.8256943" lon="11.6908168"><ele>472.00000000000006</ele><time>2026-04-11T09:46:38.425Z</time></trkpt><trkpt lat="42.825693" lon="11.6909313"><ele>472.0</ele><time>2026-04-11T09:46:39.432Z</time></trkpt><trkpt lat="42.8257065" lon="11.6910825"><ele>472.0</ele><time>2026-04-11T09:46:40.437Z</time></trkpt><trkpt lat="42.8257331" lon="11.691243"><ele>470.25</ele><time>2026-04-11T09:46:41.435Z</time></trkpt><trkpt lat="42.8257727" lon="11.6914069"><ele>468.5</ele><time>2026-04-11T09:46:42.432Z</time></trkpt><trkpt lat="42.8258257" lon="11.6915466"><ele>466.75</ele><time>2026-04-11T09:46:43.437Z</time></trkpt><trkpt lat="42.8258892" lon="11.6916855"><ele>465.0</ele><time>2026-04-11T09:46:44.434Z</time></trkpt><trkpt lat="42.8259508" lon="11.6918461"><ele>460.33333333333337</ele><time>2026-04-11T09:46:45.44Z</time></trkpt><trkpt lat="42.8260028" lon="11.6920275"><ele>455.6666666666667</ele><time>2026-04-11T09:46:46.44Z</time></trkpt><trkpt lat="42.8260536" lon="11.6922163"><ele>451.0</ele><time>2026-04-11T09:46:47.439Z</time></trkpt><trkpt lat="42.8260733" lon="11.6924472"><ele>451.0</ele><time>2026-04-11T09:46:48.446Z</time></trkpt><trkpt lat="42.8260838" lon="11.6926548"><ele>451.0</ele><time>2026-04-11T09:46:49.441Z</time></trkpt><trkpt lat="42.826104" lon="11.6927989"><ele>451.0</ele><time>2026-04-11T09:46:50.448Z</time></trkpt><trkpt lat="42.8261051" lon="11.692952"><ele>451.0</ele><time>2026-04-11T09:46:51.444Z</time></trkpt><trkpt lat="42.8261054" lon="11.6931065"><ele>451.0</ele><time>2026-04-11T09:46:52.443Z</time></trkpt><trkpt lat="42.8261091" lon="11.6932561"><ele>451.0</ele><time>2026-04-11T09:46:53.441Z</time></trkpt><trkpt lat="42.8261485" lon="11.6933922"><ele>451.0</ele><time>2026-04-11T09:46:54.434Z</time></trkpt><trkpt lat="42.8261944" lon="11.6935249"><ele>451.0</ele><time>2026-04-11T09:46:55.435Z</time></trkpt><trkpt lat="42.8262434" lon="11.693666"><ele>451.0</ele><time>2026-04-11T09:46:56.436Z</time></trkpt><trkpt lat="42.8263004" lon="11.6938294"><ele>450.25</ele><time>2026-04-11T09:46:57.429Z</time></trkpt><trkpt lat="42.8263235" lon="11.6939978"><ele>449.5</ele><time>2026-04-11T09:46:58.423Z</time></trkpt><trkpt lat="42.8263354" lon="11.6941734"><ele>448.75</ele><time>2026-04-11T09:46:59.416Z</time></trkpt><trkpt lat="42.8263459" lon="11.6943399"><ele>448.0</ele><time>2026-04-11T09:47:00.415Z</time></trkpt><trkpt lat="42.8263402" lon="11.6944856"><ele>446.75</ele><time>2026-04-11T09:47:01.421Z</time></trkpt><trkpt lat="42.8263529" lon="11.6946367"><ele>445.5</ele><time>2026-04-11T09:47:02.416Z</time></trkpt><trkpt lat="42.8263837" lon="11.6947976"><ele>444.25</ele><time>2026-04-11T09:47:03.424Z</time></trkpt><trkpt lat="42.8264254" lon="11.6949337"><ele>443.0</ele><time>2026-04-11T09:47:04.439Z</time></trkpt><trkpt lat="42.8264937" lon="11.6950938"><ele>441.75</ele><time>2026-04-11T09:47:05.424Z</time></trkpt><trkpt lat="42.826572" lon="11.6952742"><ele>440.5</ele><time>2026-04-11T09:47:06.424Z</time></trkpt><trkpt lat="42.8266473" lon="11.6954563"><ele>439.25</ele><time>2026-04-11T09:47:07.431Z</time></trkpt><trkpt lat="42.8266857" lon="11.6955967"><ele>438.0</ele><time>2026-04-11T09:47:08.42Z</time></trkpt><trkpt lat="42.8267434" lon="11.6957574"><ele>437.0</ele><time>2026-04-11T09:47:09.431Z</time></trkpt><trkpt lat="42.8268303" lon="11.6959034"><ele>436.0</ele><time>2026-04-11T09:47:10.441Z</time></trkpt><trkpt lat="42.8269153" lon="11.696069"><ele>435.0</ele><time>2026-04-11T09:47:11.429Z</time></trkpt><trkpt lat="42.8270206" lon="11.6961462"><ele>434.0</ele><time>2026-04-11T09:47:12.433Z</time></trkpt><trkpt lat="42.8271089" lon="11.6962487"><ele>434.0</ele><time>2026-04-11T09:47:13.431Z</time></trkpt><trkpt lat="42.8271682" lon="11.6963985"><ele>434.0</ele><time>2026-04-11T09:47:14.431Z</time></trkpt><trkpt lat="42.827211" lon="11.6965407"><ele>434.0</ele><time>2026-04-11T09:47:15.429Z</time></trkpt><trkpt lat="42.8272348" lon="11.6966941"><ele>434.0</ele><time>2026-04-11T09:47:16.434Z</time></trkpt><trkpt lat="42.8272223" lon="11.6968521"><ele>433.4</ele><time>2026-04-11T09:47:17.426Z</time></trkpt><trkpt lat="42.8271862" lon="11.6969973"><ele>432.79999999999995</ele><time>2026-04-11T09:47:18.42Z</time></trkpt><trkpt lat="42.8271456" lon="11.697137"><ele>432.20000000000005</ele><time>2026-04-11T09:47:19.426Z</time></trkpt><trkpt lat="42.8271102" lon="11.6972801"><ele>431.6</ele><time>2026-04-11T09:47:20.42Z</time></trkpt><trkpt lat="42.8270818" lon="11.697416"><ele>431.0</ele><time>2026-04-11T09:47:21.42Z</time></trkpt><trkpt lat="42.827083" lon="11.697572"><ele>431.0</ele><time>2026-04-11T09:47:22.429Z</time></trkpt><trkpt lat="42.8270886" lon="11.6977323"><ele>431.0</ele><time>2026-04-11T09:47:23.422Z</time></trkpt><trkpt lat="42.8271065" lon="11.6978928"><ele>431.0</ele><time>2026-04-11T09:47:24.416Z</time></trkpt><trkpt lat="42.8271452" lon="11.6980336"><ele>431.0</ele><time>2026-04-11T09:47:25.423Z</time></trkpt><trkpt lat="42.8271699" lon="11.6981442"><ele>431.0</ele><time>2026-04-11T09:47:26.434Z</time></trkpt><trkpt lat="42.8272223" lon="11.6983043"><ele>429.20000000000005</ele><time>2026-04-11T09:47:28.433Z</time></trkpt><trkpt lat="42.827203" lon="11.6983953"><ele>427.40000000000003</ele><time>2026-04-11T09:49:28.432Z</time></trkpt><trkpt lat="42.8272148" lon="11.6985279"><ele>425.6</ele><time>2026-04-11T09:49:30.437Z</time></trkpt><trkpt lat="42.8272332" lon="11.6986512"><ele>423.8</ele><time>2026-04-11T09:49:31.436Z</time></trkpt><trkpt lat="42.8272356" lon="11.698805"><ele>422.0</ele><time>2026-04-11T09:49:32.425Z</time></trkpt><trkpt lat="42.8272359" lon="11.6989627"><ele>420.75</ele><time>2026-04-11T09:49:33.44Z</time></trkpt><trkpt lat="42.8272596" lon="11.6991418"><ele>419.5</ele><time>2026-04-11T09:49:34.437Z</time></trkpt><trkpt lat="42.8272891" lon="11.6993203"><ele>418.25</ele><time>2026-04-11T09:49:35.439Z</time></trkpt><trkpt lat="42.8273283" lon="11.6995164"><ele>417.0</ele><time>2026-04-11T09:49:36.438Z</time></trkpt><trkpt lat="42.8273715" lon="11.6997232"><ele>415.0</ele><time>2026-04-11T09:49:37.442Z</time></trkpt><trkpt lat="42.8274013" lon="11.6999159"><ele>413.0</ele><time>2026-04-11T09:49:38.441Z</time></trkpt><trkpt lat="42.827434" lon="11.700102"><ele>411.0</ele><time>2026-04-11T09:49:39.455Z</time></trkpt><trkpt lat="42.8274367" lon="11.700283"><ele>409.0</ele><time>2026-04-11T09:49:40.445Z</time></trkpt><trkpt lat="42.8274407" lon="11.7004651"><ele>406.6666666666667</ele><time>2026-04-11T09:49:41.434Z</time></trkpt><trkpt lat="42.8274488" lon="11.7006417"><ele>404.33333333333337</ele><time>2026-04-11T09:49:42.432Z</time></trkpt><trkpt lat="42.8274137" lon="11.7008258"><ele>402.0</ele><time>2026-04-11T09:49:43.435Z</time></trkpt><trkpt lat="42.827408" lon="11.701086"><ele>400.0</ele><time>2026-04-11T09:49:44.449Z</time></trkpt><trkpt lat="42.8273708" lon="11.7012988"><ele>398.0</ele><time>2026-04-11T09:49:45.446Z</time></trkpt><trkpt lat="42.8273614" lon="11.7015098"><ele>396.0</ele><time>2026-04-11T09:49:46.432Z</time></trkpt><trkpt lat="42.8273304" lon="11.7016979"><ele>396.0</ele><time>2026-04-11T09:49:47.437Z</time></trkpt><trkpt lat="42.8272973" lon="11.7018679"><ele>396.0</ele><time>2026-04-11T09:49:48.432Z</time></trkpt><trkpt lat="42.8272445" lon="11.7020414"><ele>396.0</ele><time>2026-04-11T09:49:49.438Z</time></trkpt><trkpt lat="42.8272141" lon="11.7022083"><ele>396.0</ele><time>2026-04-11T09:49:50.442Z</time></trkpt><trkpt lat="42.8271836" lon="11.7023618"><ele>394.75</ele><time>2026-04-11T09:49:51.442Z</time></trkpt><trkpt lat="42.827145" lon="11.7025478"><ele>393.5</ele><time>2026-04-11T09:49:52.445Z</time></trkpt><trkpt lat="42.8271048" lon="11.7027149"><ele>392.25</ele><time>2026-04-11T09:49:53.448Z</time></trkpt><trkpt lat="42.8270788" lon="11.7028961"><ele>391.0</ele><time>2026-04-11T09:49:54.442Z</time></trkpt><trkpt lat="42.8270701" lon="11.7030887"><ele>391.0</ele><time>2026-04-11T09:49:55.441Z</time></trkpt><trkpt lat="42.827073" lon="11.7033375"><ele>391.0</ele><time>2026-04-11T09:49:56.428Z</time></trkpt><trkpt lat="42.827078" lon="11.7035879"><ele>391.0</ele><time>2026-04-11T09:49:57.435Z</time></trkpt><trkpt lat="42.827099" lon="11.7038409"><ele>394.33333333333337</ele><time>2026-04-11T09:49:58.422Z</time></trkpt><trkpt lat="42.8271427" lon="11.7040941"><ele>397.66666666666663</ele><time>2026-04-11T09:49:59.416Z</time></trkpt><trkpt lat="42.8271616" lon="11.7043749"><ele>401.0</ele><time>2026-04-11T09:50:00.421Z</time></trkpt><trkpt lat="42.8272172" lon="11.7045894"><ele>402.25</ele><time>2026-04-11T09:50:01.416Z</time></trkpt><trkpt lat="42.8272663" lon="11.7047786"><ele>403.5</ele><time>2026-04-11T09:50:02.421Z</time></trkpt><trkpt lat="42.8272704" lon="11.7049849"><ele>404.75</ele><time>2026-04-11T09:50:03.418Z</time></trkpt><trkpt lat="42.8272403" lon="11.7051684"><ele>406.0</ele><time>2026-04-11T09:50:04.41Z</time></trkpt><trkpt lat="42.8272187" lon="11.7053387"><ele>406.0</ele><time>2026-04-11T09:50:05.423Z</time></trkpt><trkpt lat="42.8272177" lon="11.7055163"><ele>406.0</ele><time>2026-04-11T09:50:06.424Z</time></trkpt><trkpt lat="42.827223" lon="11.7056052"><ele>406.0</ele><time>2026-04-11T09:50:07.425Z</time></trkpt><trkpt lat="42.8271964" lon="11.7057596"><ele>406.0</ele><time>2026-04-11T09:50:09.423Z</time></trkpt><trkpt lat="42.8272073" lon="11.7058581"><ele>406.0</ele><time>2026-04-11T09:50:10.442Z</time></trkpt><trkpt lat="42.8271987" lon="11.7059482"><ele>405.4</ele><time>2026-04-11T09:50:11.425Z</time></trkpt><trkpt lat="42.8271891" lon="11.7060949"><ele>404.8</ele><time>2026-04-11T09:50:13.436Z</time></trkpt><trkpt lat="42.8271865" lon="11.7062222"><ele>404.2</ele><time>2026-04-11T09:50:15.442Z</time></trkpt><trkpt lat="42.8271819" lon="11.7063273"><ele>403.59999999999997</ele><time>2026-04-11T09:50:17.438Z</time></trkpt><trkpt lat="42.8271427" lon="11.7065035"><ele>403.0</ele><time>2026-04-11T09:50:48.442Z</time></trkpt><trkpt lat="42.8271209" lon="11.7066593"><ele>403.0</ele><time>2026-04-11T09:50:49.439Z</time></trkpt><trkpt lat="42.8270734" lon="11.7068115"><ele>403.0</ele><time>2026-04-11T09:50:50.437Z</time></trkpt><trkpt lat="42.8270397" lon="11.7069381"><ele>403.0</ele><time>2026-04-11T09:50:51.437Z</time></trkpt><trkpt lat="42.826987" lon="11.7070596"><ele>403.0</ele><time>2026-04-11T09:50:52.438Z</time></trkpt><trkpt lat="42.8269738" lon="11.7071696"><ele>403.0</ele><time>2026-04-11T09:50:53.434Z</time></trkpt><trkpt lat="42.8269428" lon="11.7072699"><ele>402.2</ele><time>2026-04-11T09:50:54.446Z</time></trkpt><trkpt lat="42.8269127" lon="11.7073743"><ele>401.4</ele><time>2026-04-11T09:50:55.438Z</time></trkpt><trkpt lat="42.8268767" lon="11.7074808"><ele>400.59999999999997</ele><time>2026-04-11T09:50:56.437Z</time></trkpt><trkpt lat="42.8268518" lon="11.7075965"><ele>399.79999999999995</ele><time>2026-04-11T09:50:57.433Z</time></trkpt><trkpt lat="42.8268267" lon="11.7077307"><ele>399.0</ele><time>2026-04-11T09:50:58.433Z</time></trkpt><trkpt lat="42.8267964" lon="11.7078698"><ele>393.5</ele><time>2026-04-11T09:50:59.436Z</time></trkpt><trkpt lat="42.8267669" lon="11.7080072"><ele>388.0</ele><time>2026-04-11T09:51:00.43Z</time></trkpt><trkpt lat="42.8267417" lon="11.7081632"><ele>382.5</ele><time>2026-04-11T09:51:01.43Z</time></trkpt><trkpt lat="42.8267195" lon="11.7083153"><ele>377.0</ele><time>2026-04-11T09:51:02.436Z</time></trkpt><trkpt lat="42.8267139" lon="11.7084796"><ele>376.0</ele><time>2026-04-11T09:51:03.435Z</time></trkpt><trkpt lat="42.8267174" lon="11.7086361"><ele>375.0</ele><time>2026-04-11T09:51:04.434Z</time></trkpt><trkpt lat="42.8267282" lon="11.7088097"><ele>374.0</ele><time>2026-04-11T09:51:05.434Z</time></trkpt><trkpt lat="42.82676" lon="11.7089949"><ele>373.0</ele><time>2026-04-11T09:51:06.417Z</time></trkpt><trkpt lat="42.826807" lon="11.7092066"><ele>374.66666666666663</ele><time>2026-04-11T09:51:07.42Z</time></trkpt><trkpt lat="42.8269094" lon="11.7094544"><ele>376.3333333333333</ele><time>2026-04-11T09:51:08.426Z</time></trkpt><trkpt lat="42.8269948" lon="11.709672"><ele>378.0</ele><time>2026-04-11T09:51:09.437Z</time></trkpt><trkpt lat="42.8270455" lon="11.7098664"><ele>378.0</ele><time>2026-04-11T09:51:10.433Z</time></trkpt><trkpt lat="42.8270737" lon="11.7100057"><ele>378.0</ele><time>2026-04-11T09:51:11.449Z</time></trkpt><trkpt lat="42.8271055" lon="11.710137"><ele>378.0</ele><time>2026-04-11T09:51:12.435Z</time></trkpt><trkpt lat="42.8271088" lon="11.7103143"><ele>378.0</ele><time>2026-04-11T09:51:13.43Z</time></trkpt><trkpt lat="42.8271408" lon="11.7105195"><ele>376.8333333333333</ele><time>2026-04-11T09:51:14.431Z</time></trkpt><trkpt lat="42.8271569" lon="11.7106905"><ele>375.6666666666667</ele><time>2026-04-11T09:51:15.428Z</time></trkpt><trkpt lat="42.8271693" lon="11.7107865"><ele>374.5</ele><time>2026-04-11T09:51:16.428Z</time></trkpt><trkpt lat="42.8272084" lon="11.7108819"><ele>373.33333333333337</ele><time>2026-04-11T09:51:17.431Z</time></trkpt><trkpt lat="42.8272305" lon="11.7109936"><ele>372.1666666666667</ele><time>2026-04-11T09:51:18.425Z</time></trkpt><trkpt lat="42.8273013" lon="11.7110518"><ele>371.0</ele><time>2026-04-11T09:51:42.47Z</time></trkpt><trkpt lat="42.827332" lon="11.7111308"><ele>370.6666666666667</ele><time>2026-04-11T09:51:46.451Z</time></trkpt><trkpt lat="42.8273215" lon="11.7112235"><ele>370.33333333333337</ele><time>2026-04-11T09:51:49.456Z</time></trkpt><trkpt lat="42.8273417" lon="11.7113402"><ele>370.0</ele><time>2026-04-11T09:51:52.46Z</time></trkpt><trkpt lat="42.827305" lon="11.7114426"><ele>369.6666666666667</ele><time>2026-04-11T10:16:30.437Z</time></trkpt><trkpt lat="42.8272906" lon="11.7115566"><ele>369.3333333333333</ele><time>2026-04-11T10:16:32.461Z</time></trkpt><trkpt lat="42.8272905" lon="11.7117166"><ele>369.0</ele><time>2026-04-11T10:16:34.45Z</time></trkpt><trkpt lat="42.8272816" lon="11.711865"><ele>369.0</ele><time>2026-04-11T10:16:36.446Z</time></trkpt><trkpt lat="42.827284" lon="11.7120071"><ele>369.0</ele><time>2026-04-11T10:16:38.455Z</time></trkpt><trkpt lat="42.8273027" lon="11.7121315"><ele>369.0</ele><time>2026-04-11T10:16:40.453Z</time></trkpt><trkpt lat="42.8273364" lon="11.7122113"><ele>369.0</ele><time>2026-04-11T10:16:42.472Z</time></trkpt><trkpt lat="42.8274001" lon="11.7122572"><ele>369.0</ele><time>2026-04-11T10:16:46.47Z</time></trkpt><trkpt lat="42.8274794" lon="11.71233"><ele>369.0</ele><time>2026-04-11T10:17:05.451Z</time></trkpt><trkpt lat="42.8275342" lon="11.7124093"><ele>369.0</ele><time>2026-04-11T10:17:06.44Z</time></trkpt><trkpt lat="42.8276359" lon="11.7125137"><ele>369.0</ele><time>2026-04-11T10:17:07.435Z</time></trkpt><trkpt lat="42.8277528" lon="11.7126305"><ele>369.0</ele><time>2026-04-11T10:17:08.444Z</time></trkpt><trkpt lat="42.8278634" lon="11.7127453"><ele>369.0</ele><time>2026-04-11T10:17:09.45Z</time></trkpt><trkpt lat="42.8279731" lon="11.7128557"><ele>370.6</ele><time>2026-04-11T10:17:10.453Z</time></trkpt><trkpt lat="42.8280689" lon="11.7129725"><ele>372.2</ele><time>2026-04-11T10:17:11.454Z</time></trkpt><trkpt lat="42.8281521" lon="11.7130784"><ele>373.8</ele><time>2026-04-11T10:17:12.452Z</time></trkpt><trkpt lat="42.8282034" lon="11.7131693"><ele>375.40000000000003</ele><time>2026-04-11T10:17:13.462Z</time></trkpt><trkpt lat="42.8282246" lon="11.713258"><ele>377.0</ele><time>2026-04-11T10:17:14.449Z</time></trkpt><trkpt lat="42.8281932" lon="11.7133414"><ele>377.0</ele><time>2026-04-11T10:17:15.452Z</time></trkpt><trkpt lat="42.8281382" lon="11.713418"><ele>377.0</ele><time>2026-04-11T10:17:16.449Z</time></trkpt><trkpt lat="42.8280733" lon="11.7135062"><ele>377.0</ele><time>2026-04-11T10:17:17.449Z</time></trkpt><trkpt lat="42.8279991" lon="11.7135961"><ele>377.0</ele><time>2026-04-11T10:17:18.459Z</time></trkpt><trkpt lat="42.8279286" lon="11.7137123"><ele>377.0</ele><time>2026-04-11T10:17:19.459Z</time></trkpt><trkpt lat="42.8278681" lon="11.7138327"><ele>377.40000000000003</ele><time>2026-04-11T10:17:20.457Z</time></trkpt><trkpt lat="42.8278356" lon="11.7139618"><ele>377.8</ele><time>2026-04-11T10:17:21.475Z</time></trkpt><trkpt lat="42.8278576" lon="11.7140913"><ele>378.2</ele><time>2026-04-11T10:17:22.461Z</time></trkpt><trkpt lat="42.8278922" lon="11.7141872"><ele>378.6</ele><time>2026-04-11T10:17:23.46Z</time></trkpt><trkpt lat="42.8279298" lon="11.7142742"><ele>379.0</ele><time>2026-04-11T10:17:24.462Z</time></trkpt><trkpt lat="42.82791" lon="11.7144272"><ele>378.6</ele><time>2026-04-11T10:17:26.462Z</time></trkpt><trkpt lat="42.8278371" lon="11.7145046"><ele>378.2</ele><time>2026-04-11T10:17:27.469Z</time></trkpt><trkpt lat="42.8277432" lon="11.7145657"><ele>377.8</ele><time>2026-04-11T10:17:28.458Z</time></trkpt><trkpt lat="42.827662" lon="11.7146312"><ele>377.40000000000003</ele><time>2026-04-11T10:17:29.455Z</time></trkpt><trkpt lat="42.827592" lon="11.7147261"><ele>377.0</ele><time>2026-04-11T10:17:30.453Z</time></trkpt><trkpt lat="42.8275306" lon="11.7148235"><ele>377.0</ele><time>2026-04-11T10:17:31.455Z</time></trkpt><trkpt lat="42.8274642" lon="11.7149367"><ele>377.0</ele><time>2026-04-11T10:17:32.453Z</time></trkpt><trkpt lat="42.8274305" lon="11.7150593"><ele>377.0</ele><time>2026-04-11T10:17:33.464Z</time></trkpt><trkpt lat="42.8274209" lon="11.7152051"><ele>377.0</ele><time>2026-04-11T10:17:34.462Z</time></trkpt><trkpt lat="42.8274233" lon="11.7153649"><ele>377.0</ele><time>2026-04-11T10:17:35.465Z</time></trkpt><trkpt lat="42.8274267" lon="11.7155374"><ele>376.6666666666667</ele><time>2026-04-11T10:17:36.466Z</time></trkpt><trkpt lat="42.8274287" lon="11.7157433"><ele>376.3333333333333</ele><time>2026-04-11T10:17:37.467Z</time></trkpt><trkpt lat="42.8274229" lon="11.7159561"><ele>376.0</ele><time>2026-04-11T10:17:38.468Z</time></trkpt><trkpt lat="42.8273982" lon="11.7161755"><ele>376.0</ele><time>2026-04-11T10:17:39.473Z</time></trkpt><trkpt lat="42.827363" lon="11.716355"><ele>376.0</ele><time>2026-04-11T10:17:40.476Z</time></trkpt><trkpt lat="42.827325" lon="11.7165275"><ele>376.0</ele><time>2026-04-11T10:17:41.478Z</time></trkpt><trkpt lat="42.8272879" lon="11.716687"><ele>376.0</ele><time>2026-04-11T10:17:42.474Z</time></trkpt><trkpt lat="42.8272602" lon="11.7168578"><ele>375.6</ele><time>2026-04-11T10:17:43.471Z</time></trkpt><trkpt lat="42.8272027" lon="11.717018"><ele>375.20000000000005</ele><time>2026-04-11T10:17:44.473Z</time></trkpt><trkpt lat="42.8271408" lon="11.7171301"><ele>374.79999999999995</ele><time>2026-04-11T10:17:45.476Z</time></trkpt><trkpt lat="42.8271063" lon="11.7172552"><ele>374.4</ele><time>2026-04-11T10:17:46.466Z</time></trkpt><trkpt lat="42.8270749" lon="11.7173772"><ele>374.0</ele><time>2026-04-11T10:17:47.462Z</time></trkpt><trkpt lat="42.8270765" lon="11.7175131"><ele>374.0</ele><time>2026-04-11T10:17:48.455Z</time></trkpt><trkpt lat="42.827116" lon="11.7176245"><ele>374.0</ele><time>2026-04-11T10:17:49.459Z</time></trkpt><trkpt lat="42.8271733" lon="11.7177082"><ele>374.0</ele><time>2026-04-11T10:17:50.464Z</time></trkpt><trkpt lat="42.8272468" lon="11.7177921"><ele>374.0</ele><time>2026-04-11T10:17:51.465Z</time></trkpt><trkpt lat="42.8273399" lon="11.7178706"><ele>374.0</ele><time>2026-04-11T10:17:52.468Z</time></trkpt><trkpt lat="42.8274139" lon="11.717968"><ele>373.79999999999995</ele><time>2026-04-11T10:17:53.466Z</time></trkpt><trkpt lat="42.8274743" lon="11.718063"><ele>373.59999999999997</ele><time>2026-04-11T10:17:54.458Z</time></trkpt><trkpt lat="42.8275018" lon="11.7181722"><ele>373.4</ele><time>2026-04-11T10:17:55.463Z</time></trkpt><trkpt lat="42.8275072" lon="11.7182833"><ele>373.2</ele><time>2026-04-11T10:17:56.455Z</time></trkpt><trkpt lat="42.8274744" lon="11.7184103"><ele>373.0</ele><time>2026-04-11T10:17:57.459Z</time></trkpt><trkpt lat="42.8273886" lon="11.7185345"><ele>373.75</ele><time>2026-04-11T10:17:58.479Z</time></trkpt><trkpt lat="42.8272839" lon="11.7186575"><ele>374.5</ele><time>2026-04-11T10:17:59.455Z</time></trkpt><trkpt lat="42.827166" lon="11.7187859"><ele>375.25</ele><time>2026-04-11T10:18:00.472Z</time></trkpt><trkpt lat="42.8270714" lon="11.7189135"><ele>376.0</ele><time>2026-04-11T10:18:01.465Z</time></trkpt><trkpt lat="42.8268932" lon="11.7191832"><ele>376.0</ele><time>2026-04-11T10:18:03.467Z</time></trkpt><trkpt lat="42.8268151" lon="11.719296"><ele>376.0</ele><time>2026-04-11T10:18:04.468Z</time></trkpt><trkpt lat="42.8267362" lon="11.7193811"><ele>376.0</ele><time>2026-04-11T10:18:05.47Z</time></trkpt><trkpt lat="42.8266442" lon="11.7194656"><ele>376.0</ele><time>2026-04-11T10:18:06.471Z</time></trkpt><trkpt lat="42.8265653" lon="11.7195651"><ele>376.0</ele><time>2026-04-11T10:18:07.463Z</time></trkpt><trkpt lat="42.8264879" lon="11.7196844"><ele>375.4</ele><time>2026-04-11T10:18:08.454Z</time></trkpt><trkpt lat="42.8264325" lon="11.7198105"><ele>374.8</ele><time>2026-04-11T10:18:09.452Z</time></trkpt><trkpt lat="42.8263954" lon="11.7199452"><ele>374.2</ele><time>2026-04-11T10:18:10.451Z</time></trkpt><trkpt lat="42.8263812" lon="11.7200804"><ele>373.59999999999997</ele><time>2026-04-11T10:18:11.452Z</time></trkpt><trkpt lat="42.8263891" lon="11.7202114"><ele>373.0</ele><time>2026-04-11T10:18:12.452Z</time></trkpt><trkpt lat="42.8264177" lon="11.7203631"><ele>373.0</ele><time>2026-04-11T10:18:13.445Z</time></trkpt><trkpt lat="42.8265005" lon="11.720506"><ele>373.0</ele><time>2026-04-11T10:18:14.451Z</time></trkpt><trkpt lat="42.8265812" lon="11.7206531"><ele>373.0</ele><time>2026-04-11T10:18:15.465Z</time></trkpt><trkpt lat="42.826664" lon="11.7208121"><ele>373.0</ele><time>2026-04-11T10:18:16.465Z</time></trkpt><trkpt lat="42.826733" lon="11.7209703"><ele>373.5</ele><time>2026-04-11T10:18:17.469Z</time></trkpt><trkpt lat="42.8268091" lon="11.7211003"><ele>374.0</ele><time>2026-04-11T10:18:18.464Z</time></trkpt><trkpt lat="42.8268994" lon="11.7212154"><ele>374.5</ele><time>2026-04-11T10:18:19.459Z</time></trkpt><trkpt lat="42.8270015" lon="11.7213004"><ele>375.0</ele><time>2026-04-11T10:18:20.47Z</time></trkpt><trkpt lat="42.8270831" lon="11.7213783"><ele>375.6666666666667</ele><time>2026-04-11T10:18:21.456Z</time></trkpt><trkpt lat="42.8271691" lon="11.7214196"><ele>376.3333333333333</ele><time>2026-04-11T10:18:22.449Z</time></trkpt><trkpt lat="42.8272202" lon="11.7214886"><ele>377.0</ele><time>2026-04-11T10:18:24.451Z</time></trkpt><trkpt lat="42.8271679" lon="11.7214387"><ele>377.66666666666663</ele><time>2026-04-11T10:18:31.487Z</time></trkpt><trkpt lat="42.8272522" lon="11.7214243"><ele>378.3333333333333</ele><time>2026-04-11T10:22:23.471Z</time></trkpt><trkpt lat="42.8273438" lon="11.7212928"><ele>379.0</ele><time>2026-04-11T10:22:25.461Z</time></trkpt><trkpt lat="42.8274017" lon="11.7211789"><ele>379.0</ele><time>2026-04-11T10:22:26.46Z</time></trkpt><trkpt lat="42.827471" lon="11.7210728"><ele>379.0</ele><time>2026-04-11T10:22:27.459Z</time></trkpt><trkpt lat="42.8275445" lon="11.7209535"><ele>379.0</ele><time>2026-04-11T10:22:28.466Z</time></trkpt><trkpt lat="42.8276194" lon="11.7208389"><ele>379.0</ele><time>2026-04-11T10:22:29.476Z</time></trkpt><trkpt lat="42.8277056" lon="11.7207417"><ele>379.0</ele><time>2026-04-11T10:22:30.476Z</time></trkpt><trkpt lat="42.8277963" lon="11.7206654"><ele>380.6</ele><time>2026-04-11T10:22:31.473Z</time></trkpt><trkpt lat="42.8278938" lon="11.7205931"><ele>382.2</ele><time>2026-04-11T10:22:32.476Z</time></trkpt><trkpt lat="42.8279864" lon="11.7205286"><ele>383.8</ele><time>2026-04-11T10:22:33.473Z</time></trkpt><trkpt lat="42.8280846" lon="11.7204648"><ele>385.40000000000003</ele><time>2026-04-11T10:22:34.472Z</time></trkpt><trkpt lat="42.8281839" lon="11.7204148"><ele>387.0</ele><time>2026-04-11T10:22:35.47Z</time></trkpt><trkpt lat="42.8282974" lon="11.7203647"><ele>387.0</ele><time>2026-04-11T10:22:36.473Z</time></trkpt><trkpt lat="42.8284079" lon="11.7203099"><ele>387.0</ele><time>2026-04-11T10:22:37.498Z</time></trkpt><trkpt lat="42.828517" lon="11.7202504"><ele>387.0</ele><time>2026-04-11T10:22:38.477Z</time></trkpt><trkpt lat="42.8286269" lon="11.7201905"><ele>387.0</ele><time>2026-04-11T10:22:39.475Z</time></trkpt><trkpt lat="42.8287323" lon="11.7201334"><ele>389.25</ele><time>2026-04-11T10:22:40.475Z</time></trkpt><trkpt lat="42.8288383" lon="11.7200739"><ele>391.5</ele><time>2026-04-11T10:22:41.474Z</time></trkpt><trkpt lat="42.828945" lon="11.7199941"><ele>393.75</ele><time>2026-04-11T10:22:42.478Z</time></trkpt><trkpt lat="42.8290492" lon="11.7199057"><ele>396.0</ele><time>2026-04-11T10:22:43.462Z</time></trkpt><trkpt lat="42.8291496" lon="11.719796"><ele>396.0</ele><time>2026-04-11T10:22:44.469Z</time></trkpt><trkpt lat="42.8292443" lon="11.719637"><ele>396.0</ele><time>2026-04-11T10:22:45.475Z</time></trkpt><trkpt lat="42.8293359" lon="11.7194384"><ele>396.0</ele><time>2026-04-11T10:22:46.473Z</time></trkpt><trkpt lat="42.8294233" lon="11.7192687"><ele>399.0</ele><time>2026-04-11T10:22:47.473Z</time></trkpt><trkpt lat="42.8295084" lon="11.7190899"><ele>402.0</ele><time>2026-04-11T10:22:48.474Z</time></trkpt><trkpt lat="42.8295746" lon="11.7189268"><ele>405.0</ele><time>2026-04-11T10:22:49.47Z</time></trkpt><trkpt lat="42.8296536" lon="11.7187711"><ele>408.0</ele><time>2026-04-11T10:22:50.472Z</time></trkpt><trkpt lat="42.8297653" lon="11.7186329"><ele>408.5</ele><time>2026-04-11T10:22:51.468Z</time></trkpt><trkpt lat="42.8298683" lon="11.718566"><ele>409.0</ele><time>2026-04-11T10:22:52.455Z</time></trkpt><trkpt lat="42.8299926" lon="11.7185456"><ele>409.5</ele><time>2026-04-11T10:22:53.478Z</time></trkpt><trkpt lat="42.8301444" lon="11.7186029"><ele>410.0</ele><time>2026-04-11T10:22:54.471Z</time></trkpt><trkpt lat="42.8302584" lon="11.7187339"><ele>413.66666666666663</ele><time>2026-04-11T10:22:55.448Z</time></trkpt><trkpt lat="42.8303512" lon="11.7189007"><ele>417.33333333333337</ele><time>2026-04-11T10:22:56.442Z</time></trkpt><trkpt lat="42.8304131" lon="11.7191154"><ele>421.0</ele><time>2026-04-11T10:22:57.461Z</time></trkpt><trkpt lat="42.8305083" lon="11.7192924"><ele>419.33333333333337</ele><time>2026-04-11T10:22:58.458Z</time></trkpt><trkpt lat="42.8305934" lon="11.7194747"><ele>417.66666666666663</ele><time>2026-04-11T10:22:59.46Z</time></trkpt><trkpt lat="42.830712" lon="11.7196228"><ele>416.0</ele><time>2026-04-11T10:23:00.462Z</time></trkpt><trkpt lat="42.8308473" lon="11.7197385"><ele>417.3333333333333</ele><time>2026-04-11T10:23:01.458Z</time></trkpt><trkpt lat="42.8309943" lon="11.7198102"><ele>418.66666666666663</ele><time>2026-04-11T10:23:02.458Z</time></trkpt><trkpt lat="42.8311716" lon="11.7198159"><ele>420.0</ele><time>2026-04-11T10:23:03.447Z</time></trkpt><trkpt lat="42.8312986" lon="11.7197716"><ele>420.0</ele><time>2026-04-11T10:23:04.445Z</time></trkpt><trkpt lat="42.8314163" lon="11.7197465"><ele>420.0</ele><time>2026-04-11T10:23:05.451Z</time></trkpt><trkpt lat="42.8315264" lon="11.7196666"><ele>420.0</ele><time>2026-04-11T10:23:06.446Z</time></trkpt><trkpt lat="42.8316606" lon="11.7194668"><ele>420.0</ele><time>2026-04-11T10:23:07.469Z</time></trkpt><trkpt lat="42.8318007" lon="11.719298"><ele>423.66666666666663</ele><time>2026-04-11T10:23:08.457Z</time></trkpt><trkpt lat="42.8319917" lon="11.7191154"><ele>427.3333333333333</ele><time>2026-04-11T10:23:09.457Z</time></trkpt><trkpt lat="42.8321448" lon="11.7189552"><ele>431.0</ele><time>2026-04-11T10:23:10.457Z</time></trkpt><trkpt lat="42.8322987" lon="11.7187939"><ele>431.0</ele><time>2026-04-11T10:23:11.46Z</time></trkpt><trkpt lat="42.8324408" lon="11.7186112"><ele>431.0</ele><time>2026-04-11T10:23:12.459Z</time></trkpt><trkpt lat="42.8325496" lon="11.7183574"><ele>431.0</ele><time>2026-04-11T10:23:13.464Z</time></trkpt><trkpt lat="42.8326675" lon="11.7181144"><ele>431.3333333333333</ele><time>2026-04-11T10:23:14.46Z</time></trkpt><trkpt lat="42.8327753" lon="11.7178803"><ele>431.66666666666663</ele><time>2026-04-11T10:23:15.458Z</time></trkpt><trkpt lat="42.8328833" lon="11.7176313"><ele>432.0</ele><time>2026-04-11T10:23:16.456Z</time></trkpt><trkpt lat="42.8329888" lon="11.7174059"><ele>435.0</ele><time>2026-04-11T10:23:17.459Z</time></trkpt><trkpt lat="42.8331015" lon="11.7171943"><ele>438.0</ele><time>2026-04-11T10:23:18.454Z</time></trkpt><trkpt lat="42.8332205" lon="11.7169754"><ele>441.0</ele><time>2026-04-11T10:23:19.459Z</time></trkpt><trkpt lat="42.8333421" lon="11.716758"><ele>441.0</ele><time>2026-04-11T10:23:20.462Z</time></trkpt><trkpt lat="42.8334561" lon="11.7165421"><ele>441.0</ele><time>2026-04-11T10:23:21.463Z</time></trkpt><trkpt lat="42.8335606" lon="11.7163106"><ele>441.0</ele><time>2026-04-11T10:23:22.463Z</time></trkpt><trkpt lat="42.8336581" lon="11.7160668"><ele>443.66666666666663</ele><time>2026-04-11T10:23:23.468Z</time></trkpt><trkpt lat="42.8337697" lon="11.7158415"><ele>446.3333333333333</ele><time>2026-04-11T10:23:24.464Z</time></trkpt><trkpt lat="42.8338733" lon="11.715602"><ele>449.0</ele><time>2026-04-11T10:23:25.461Z</time></trkpt><trkpt lat="42.8339729" lon="11.7153503"><ele>448.66666666666663</ele><time>2026-04-11T10:23:26.463Z</time></trkpt><trkpt lat="42.834092" lon="11.7151258"><ele>448.33333333333337</ele><time>2026-04-11T10:23:27.464Z</time></trkpt><trkpt lat="42.8342264" lon="11.7149036"><ele>448.0</ele><time>2026-04-11T10:23:28.469Z</time></trkpt><trkpt lat="42.834359" lon="11.7146946"><ele>448.0</ele><time>2026-04-11T10:23:29.464Z</time></trkpt><trkpt lat="42.834486" lon="11.7144671"><ele>448.0</ele><time>2026-04-11T10:23:30.462Z</time></trkpt><trkpt lat="42.8345783" lon="11.7142161"><ele>448.0</ele><time>2026-04-11T10:23:31.452Z</time></trkpt><trkpt lat="42.8346409" lon="11.7139315"><ele>449.6666666666667</ele><time>2026-04-11T10:23:32.454Z</time></trkpt><trkpt lat="42.8346558" lon="11.7136483"><ele>451.33333333333337</ele><time>2026-04-11T10:23:33.448Z</time></trkpt><trkpt lat="42.8346789" lon="11.7133786"><ele>453.0</ele><time>2026-04-11T10:23:34.44Z</time></trkpt><trkpt lat="42.8346936" lon="11.7130783"><ele>456.66666666666663</ele><time>2026-04-11T10:23:35.448Z</time></trkpt><trkpt lat="42.834698" lon="11.7127974"><ele>460.3333333333333</ele><time>2026-04-11T10:23:36.454Z</time></trkpt><trkpt lat="42.8347181" lon="11.71253"><ele>464.0</ele><time>2026-04-11T10:23:37.455Z</time></trkpt><trkpt lat="42.8347451" lon="11.7122478"><ele>465.66666666666663</ele><time>2026-04-11T10:23:38.47Z</time></trkpt><trkpt lat="42.8347955" lon="11.7120126"><ele>467.33333333333337</ele><time>2026-04-11T10:23:39.446Z</time></trkpt><trkpt lat="42.8348589" lon="11.7118076"><ele>469.0</ele><time>2026-04-11T10:23:40.445Z</time></trkpt><trkpt lat="42.8349683" lon="11.7116814"><ele>470.25</ele><time>2026-04-11T10:23:41.451Z</time></trkpt><trkpt lat="42.835121" lon="11.7115929"><ele>471.5</ele><time>2026-04-11T10:23:42.465Z</time></trkpt><trkpt lat="42.8352653" lon="11.7115859"><ele>472.75</ele><time>2026-04-11T10:23:43.449Z</time></trkpt><trkpt lat="42.835391" lon="11.7116036"><ele>474.0</ele><time>2026-04-11T10:23:44.465Z</time></trkpt><trkpt lat="42.8355619" lon="11.7116953"><ele>476.0</ele><time>2026-04-11T10:23:45.459Z</time></trkpt><trkpt lat="42.8357468" lon="11.7117443"><ele>478.0</ele><time>2026-04-11T10:23:46.468Z</time></trkpt><trkpt lat="42.8359156" lon="11.7118312"><ele>480.0</ele><time>2026-04-11T10:23:47.467Z</time></trkpt><trkpt lat="42.8360953" lon="11.7118701"><ele>479.66666666666663</ele><time>2026-04-11T10:23:48.466Z</time></trkpt><trkpt lat="42.8362707" lon="11.711889"><ele>479.3333333333333</ele><time>2026-04-11T10:23:49.46Z</time></trkpt><trkpt lat="42.8364408" lon="11.7118924"><ele>479.0</ele><time>2026-04-11T10:23:50.468Z</time></trkpt><trkpt lat="42.836624" lon="11.7119089"><ele>479.66666666666663</ele><time>2026-04-11T10:23:51.473Z</time></trkpt><trkpt lat="42.8368039" lon="11.7119858"><ele>480.33333333333337</ele><time>2026-04-11T10:23:52.457Z</time></trkpt><trkpt lat="42.8369273" lon="11.7120849"><ele>481.0</ele><time>2026-04-11T10:23:53.457Z</time></trkpt><trkpt lat="42.8370444" lon="11.712116"><ele>481.0</ele><time>2026-04-11T10:23:54.456Z</time></trkpt><trkpt lat="42.8371258" lon="11.7121291"><ele>481.0</ele><time>2026-04-11T10:23:55.451Z</time></trkpt><trkpt lat="42.8372827" lon="11.7120456"><ele>481.0</ele><time>2026-04-11T10:23:56.458Z</time></trkpt><trkpt lat="42.8374809" lon="11.7119641"><ele>486.6666666666667</ele><time>2026-04-11T10:23:57.449Z</time></trkpt><trkpt lat="42.8376429" lon="11.7118895"><ele>492.33333333333337</ele><time>2026-04-11T10:23:58.459Z</time></trkpt><trkpt lat="42.8378186" lon="11.7118423"><ele>498.0</ele><time>2026-04-11T10:23:59.458Z</time></trkpt><trkpt lat="42.8379767" lon="11.7117808"><ele>498.0</ele><time>2026-04-11T10:24:00.454Z</time></trkpt><trkpt lat="42.8381181" lon="11.711688"><ele>498.0</ele><time>2026-04-11T10:24:01.452Z</time></trkpt><trkpt lat="42.8382572" lon="11.7116268"><ele>498.0</ele><time>2026-04-11T10:24:02.453Z</time></trkpt><trkpt lat="42.8383892" lon="11.7116284"><ele>498.0</ele><time>2026-04-11T10:24:03.455Z</time></trkpt><trkpt lat="42.838522" lon="11.7116735"><ele>498.0</ele><time>2026-04-11T10:24:04.447Z</time></trkpt><trkpt lat="42.8386255" lon="11.7118242"><ele>498.0</ele><time>2026-04-11T10:24:05.453Z</time></trkpt><trkpt lat="42.8387183" lon="11.711972"><ele>498.0</ele><time>2026-04-11T10:24:06.454Z</time></trkpt><trkpt lat="42.838815" lon="11.7121321"><ele>498.0</ele><time>2026-04-11T10:24:07.441Z</time></trkpt><trkpt lat="42.8389106" lon="11.7121673"><ele>498.0</ele><time>2026-04-11T10:24:08.439Z</time></trkpt><trkpt lat="42.8389741" lon="11.7121192"><ele>498.0</ele><time>2026-04-11T10:24:09.444Z</time></trkpt><trkpt lat="42.8390257" lon="11.7118991"><ele>498.0</ele><time>2026-04-11T10:24:10.428Z</time></trkpt><trkpt lat="42.8390297" lon="11.7116943"><ele>498.0</ele><time>2026-04-11T10:24:11.423Z</time></trkpt><trkpt lat="42.8389448" lon="11.7115649"><ele>498.0</ele><time>2026-04-11T10:24:12.417Z</time></trkpt><trkpt lat="42.8387724" lon="11.7114174"><ele>498.0</ele><time>2026-04-11T10:24:13.425Z</time></trkpt><trkpt lat="42.8386653" lon="11.7113198"><ele>498.0</ele><time>2026-04-11T10:24:14.44Z</time></trkpt><trkpt lat="42.8385644" lon="11.7111807"><ele>501.66666666666663</ele><time>2026-04-11T10:24:15.467Z</time></trkpt><trkpt lat="42.8384392" lon="11.7110085"><ele>505.3333333333333</ele><time>2026-04-11T10:24:16.448Z</time></trkpt><trkpt lat="42.838341" lon="11.7108367"><ele>509.0</ele><time>2026-04-11T10:24:17.449Z</time></trkpt><trkpt lat="42.8382386" lon="11.710636"><ele>509.0</ele><time>2026-04-11T10:24:18.455Z</time></trkpt><trkpt lat="42.8381348" lon="11.7104476"><ele>509.0</ele><time>2026-04-11T10:24:19.454Z</time></trkpt><trkpt lat="42.8380269" lon="11.7102565"><ele>509.0</ele><time>2026-04-11T10:24:20.456Z</time></trkpt><trkpt lat="42.8379116" lon="11.7100595"><ele>509.66666666666663</ele><time>2026-04-11T10:24:21.459Z</time></trkpt><trkpt lat="42.8378018" lon="11.7098673"><ele>510.33333333333337</ele><time>2026-04-11T10:24:22.454Z</time></trkpt><trkpt lat="42.8376843" lon="11.7096954"><ele>511.0</ele><time>2026-04-11T10:24:23.457Z</time></trkpt><trkpt lat="42.8375327" lon="11.7095631"><ele>511.0</ele><time>2026-04-11T10:24:24.449Z</time></trkpt><trkpt lat="42.8373782" lon="11.7094512"><ele>511.0</ele><time>2026-04-11T10:24:25.453Z</time></trkpt><trkpt lat="42.8372386" lon="11.7093547"><ele>511.0</ele><time>2026-04-11T10:24:26.449Z</time></trkpt><trkpt lat="42.8371052" lon="11.7092711"><ele>513.75</ele><time>2026-04-11T10:24:27.452Z</time></trkpt><trkpt lat="42.8370197" lon="11.7091611"><ele>516.5</ele><time>2026-04-11T10:24:28.452Z</time></trkpt><trkpt lat="42.8370579" lon="11.7090232"><ele>519.25</ele><time>2026-04-11T10:24:29.449Z</time></trkpt><trkpt lat="42.8371648" lon="11.7089288"><ele>522.0</ele><time>2026-04-11T10:24:30.433Z</time></trkpt><trkpt lat="42.8373055" lon="11.7088701"><ele>522.0</ele><time>2026-04-11T10:24:31.434Z</time></trkpt><trkpt lat="42.837454" lon="11.7088806"><ele>522.0</ele><time>2026-04-11T10:24:32.439Z</time></trkpt><trkpt lat="42.8375898" lon="11.7089873"><ele>522.0</ele><time>2026-04-11T10:24:33.446Z</time></trkpt><trkpt lat="42.837744" lon="11.7090733"><ele>524.3333333333334</ele><time>2026-04-11T10:24:34.447Z</time></trkpt><trkpt lat="42.8378966" lon="11.709174"><ele>526.6666666666667</ele><time>2026-04-11T10:24:35.462Z</time></trkpt><trkpt lat="42.8380365" lon="11.7092785"><ele>529.0</ele><time>2026-04-11T10:24:36.46Z</time></trkpt><trkpt lat="42.8381738" lon="11.7093834"><ele>527.25</ele><time>2026-04-11T10:24:37.465Z</time></trkpt><trkpt lat="42.8383113" lon="11.7094621"><ele>525.5</ele><time>2026-04-11T10:24:38.457Z</time></trkpt><trkpt lat="42.8384383" lon="11.7095071"><ele>523.75</ele><time>2026-04-11T10:24:39.451Z</time></trkpt><trkpt lat="42.8385578" lon="11.7095159"><ele>522.0</ele><time>2026-04-11T10:24:40.463Z</time></trkpt><trkpt lat="42.8386504" lon="11.7094404"><ele>525.25</ele><time>2026-04-11T10:24:42.469Z</time></trkpt><trkpt lat="42.838669" lon="11.709263"><ele>528.5</ele><time>2026-04-11T10:24:43.443Z</time></trkpt><trkpt lat="42.8386208" lon="11.7090777"><ele>531.75</ele><time>2026-04-11T10:24:44.439Z</time></trkpt><trkpt lat="42.8385808" lon="11.7089677"><ele>535.0</ele><time>2026-04-11T10:24:45.458Z</time></trkpt><trkpt lat="42.8384709" lon="11.7089069"><ele>535.2</ele><time>2026-04-11T10:24:46.442Z</time></trkpt><trkpt lat="42.8383407" lon="11.7088593"><ele>535.4</ele><time>2026-04-11T10:24:47.442Z</time></trkpt><trkpt lat="42.83826" lon="11.7087928"><ele>535.6</ele><time>2026-04-11T10:24:48.464Z</time></trkpt><trkpt lat="42.8381669" lon="11.708694"><ele>535.8</ele><time>2026-04-11T10:24:49.459Z</time></trkpt><trkpt lat="42.8380985" lon="11.7085931"><ele>536.0</ele><time>2026-04-11T10:24:50.455Z</time></trkpt><trkpt lat="42.8380751" lon="11.7084646"><ele>536.0</ele><time>2026-04-11T10:24:51.46Z</time></trkpt><trkpt lat="42.8381061" lon="11.708304"><ele>536.0</ele><time>2026-04-11T10:24:52.457Z</time></trkpt><trkpt lat="42.8381546" lon="11.7081381"><ele>536.0</ele><time>2026-04-11T10:24:53.448Z</time></trkpt><trkpt lat="42.8382198" lon="11.7079836"><ele>536.0</ele><time>2026-04-11T10:24:54.452Z</time></trkpt><trkpt lat="42.838305" lon="11.7078617"><ele>536.0</ele><time>2026-04-11T10:24:55.447Z</time></trkpt><trkpt lat="42.8384198" lon="11.7077684"><ele>536.0</ele><time>2026-04-11T10:24:56.444Z</time></trkpt><trkpt lat="42.8385442" lon="11.7077351"><ele>536.0</ele><time>2026-04-11T10:24:57.456Z</time></trkpt><trkpt lat="42.8386833" lon="11.7077727"><ele>536.0</ele><time>2026-04-11T10:24:58.455Z</time></trkpt><trkpt lat="42.8388408" lon="11.7078447"><ele>538.0</ele><time>2026-04-11T10:24:59.449Z</time></trkpt><trkpt lat="42.8389995" lon="11.7079312"><ele>540.0</ele><time>2026-04-11T10:25:00.458Z</time></trkpt><trkpt lat="42.8391517" lon="11.7079927"><ele>542.0</ele><time>2026-04-11T10:25:01.46Z</time></trkpt><trkpt lat="42.8393068" lon="11.7080713"><ele>542.5</ele><time>2026-04-11T10:25:02.464Z</time></trkpt><trkpt lat="42.8394237" lon="11.708089"><ele>543.0</ele><time>2026-04-11T10:25:03.446Z</time></trkpt><trkpt lat="42.839578" lon="11.707983"><ele>543.5</ele><time>2026-04-11T10:25:04.458Z</time></trkpt><trkpt lat="42.8396711" lon="11.7078591"><ele>544.0</ele><time>2026-04-11T10:25:05.467Z</time></trkpt><trkpt lat="42.839648" lon="11.7076687"><ele>548.3333333333334</ele><time>2026-04-11T10:25:06.434Z</time></trkpt><trkpt lat="42.8395616" lon="11.7075007"><ele>552.6666666666666</ele><time>2026-04-11T10:25:07.449Z</time></trkpt><trkpt lat="42.8394325" lon="11.7073426"><ele>557.0</ele><time>2026-04-11T10:25:08.451Z</time></trkpt><trkpt lat="42.8393471" lon="11.7071994"><ele>554.75</ele><time>2026-04-11T10:25:09.461Z</time></trkpt><trkpt lat="42.839278" lon="11.7070577"><ele>552.5</ele><time>2026-04-11T10:25:10.459Z</time></trkpt><trkpt lat="42.8392376" lon="11.7069028"><ele>550.25</ele><time>2026-04-11T10:25:11.484Z</time></trkpt><trkpt lat="42.8392346" lon="11.706742"><ele>548.0</ele><time>2026-04-11T10:25:12.458Z</time></trkpt><trkpt lat="42.839282" lon="11.7065917"><ele>552.0</ele><time>2026-04-11T10:25:13.447Z</time></trkpt><trkpt lat="42.8393619" lon="11.70647"><ele>556.0</ele><time>2026-04-11T10:25:14.437Z</time></trkpt><trkpt lat="42.8394887" lon="11.7063591"><ele>560.0</ele><time>2026-04-11T10:25:15.449Z</time></trkpt><trkpt lat="42.8396267" lon="11.7062261"><ele>564.0</ele><time>2026-04-11T10:25:16.45Z</time></trkpt><trkpt lat="42.839791" lon="11.7060959"><ele>563.0</ele><time>2026-04-11T10:25:17.439Z</time></trkpt><trkpt lat="42.839961" lon="11.705947"><ele>562.0</ele><time>2026-04-11T10:25:18.452Z</time></trkpt><trkpt lat="42.8401018" lon="11.7057563"><ele>561.0</ele><time>2026-04-11T10:25:19.447Z</time></trkpt><trkpt lat="42.8402159" lon="11.705565"><ele>566.0</ele><time>2026-04-11T10:25:20.453Z</time></trkpt><trkpt lat="42.8403217" lon="11.7053971"><ele>571.0</ele><time>2026-04-11T10:25:21.455Z</time></trkpt><trkpt lat="42.8403768" lon="11.7052155"><ele>576.0</ele><time>2026-04-11T10:25:22.455Z</time></trkpt><trkpt lat="42.8404371" lon="11.7050246"><ele>576.0</ele><time>2026-04-11T10:25:23.46Z</time></trkpt><trkpt lat="42.8404349" lon="11.7048115"><ele>576.0</ele><time>2026-04-11T10:25:24.454Z</time></trkpt><trkpt lat="42.8403722" lon="11.7045718"><ele>576.0</ele><time>2026-04-11T10:25:25.451Z</time></trkpt><trkpt lat="42.8403329" lon="11.7043458"><ele>578.0</ele><time>2026-04-11T10:25:26.454Z</time></trkpt><trkpt lat="42.8402652" lon="11.7041187"><ele>580.0</ele><time>2026-04-11T10:25:27.462Z</time></trkpt><trkpt lat="42.8401937" lon="11.7038955"><ele>582.0</ele><time>2026-04-11T10:25:28.457Z</time></trkpt><trkpt lat="42.8401292" lon="11.7036764"><ele>578.3333333333334</ele><time>2026-04-11T10:25:29.464Z</time></trkpt><trkpt lat="42.8400516" lon="11.7034463"><ele>574.6666666666667</ele><time>2026-04-11T10:25:30.468Z</time></trkpt><trkpt lat="42.8400099" lon="11.7032184"><ele>571.0</ele><time>2026-04-11T10:25:31.463Z</time></trkpt><trkpt lat="42.8400044" lon="11.7030084"><ele>571.0</ele><time>2026-04-11T10:25:32.465Z</time></trkpt><trkpt lat="42.8400225" lon="11.7028252"><ele>571.0</ele><time>2026-04-11T10:25:33.453Z</time></trkpt><trkpt lat="42.8400905" lon="11.7026471"><ele>571.0</ele><time>2026-04-11T10:25:34.454Z</time></trkpt><trkpt lat="42.8402121" lon="11.702488"><ele>577.3333333333334</ele><time>2026-04-11T10:25:35.45Z</time></trkpt><trkpt lat="42.8403009" lon="11.7023219"><ele>583.6666666666666</ele><time>2026-04-11T10:25:36.455Z</time></trkpt><trkpt lat="42.8403761" lon="11.7021415"><ele>590.0</ele><time>2026-04-11T10:25:37.456Z</time></trkpt><trkpt lat="42.8404911" lon="11.7019724"><ele>588.75</ele><time>2026-04-11T10:25:38.445Z</time></trkpt><trkpt lat="42.8405827" lon="11.7018419"><ele>587.5</ele><time>2026-04-11T10:25:39.446Z</time></trkpt><trkpt lat="42.8406654" lon="11.7017278"><ele>586.25</ele><time>2026-04-11T10:25:40.442Z</time></trkpt><trkpt lat="42.8407413" lon="11.7015992"><ele>585.0</ele><time>2026-04-11T10:25:41.445Z</time></trkpt><trkpt lat="42.8408198" lon="11.7014319"><ele>585.0</ele><time>2026-04-11T10:25:42.455Z</time></trkpt><trkpt lat="42.8408214" lon="11.7012169"><ele>585.0</ele><time>2026-04-11T10:25:43.432Z</time></trkpt><trkpt lat="42.8408118" lon="11.7010125"><ele>585.0</ele><time>2026-04-11T10:25:44.434Z</time></trkpt><trkpt lat="42.8407421" lon="11.7008106"><ele>585.6666666666666</ele><time>2026-04-11T10:25:45.442Z</time></trkpt><trkpt lat="42.8406941" lon="11.7006216"><ele>586.3333333333333</ele><time>2026-04-11T10:25:46.441Z</time></trkpt><trkpt lat="42.8406404" lon="11.7004343"><ele>587.0</ele><time>2026-04-11T10:25:47.45Z</time></trkpt><trkpt lat="42.8405725" lon="11.7002414"><ele>588.2</ele><time>2026-04-11T10:25:48.447Z</time></trkpt><trkpt lat="42.8405673" lon="11.7000729"><ele>589.4000000000001</ele><time>2026-04-11T10:25:49.448Z</time></trkpt><trkpt lat="42.8406155" lon="11.699956"><ele>590.5999999999999</ele><time>2026-04-11T10:25:50.445Z</time></trkpt><trkpt lat="42.8406834" lon="11.699897"><ele>591.8</ele><time>2026-04-11T10:25:51.438Z</time></trkpt><trkpt lat="42.8408012" lon="11.6999002"><ele>593.0</ele><time>2026-04-11T10:25:52.435Z</time></trkpt><trkpt lat="42.8409215" lon="11.69996"><ele>596.6666666666666</ele><time>2026-04-11T10:25:53.429Z</time></trkpt><trkpt lat="42.8410554" lon="11.7001069"><ele>600.3333333333334</ele><time>2026-04-11T10:25:54.442Z</time></trkpt><trkpt lat="42.8410638" lon="11.7003284"><ele>604.0</ele><time>2026-04-11T10:25:55.428Z</time></trkpt><trkpt lat="42.8410599" lon="11.7005292"><ele>604.0</ele><time>2026-04-11T10:25:56.434Z</time></trkpt><trkpt lat="42.8410806" lon="11.7007288"><ele>604.0</ele><time>2026-04-11T10:25:57.437Z</time></trkpt><trkpt lat="42.841115" lon="11.7009272"><ele>604.0</ele><time>2026-04-11T10:25:58.445Z</time></trkpt><trkpt lat="42.8411871" lon="11.7010905"><ele>604.0</ele><time>2026-04-11T10:25:59.447Z</time></trkpt><trkpt lat="42.8412912" lon="11.7011827"><ele>603.0</ele><time>2026-04-11T10:26:00.445Z</time></trkpt><trkpt lat="42.8414359" lon="11.7012029"><ele>602.0</ele><time>2026-04-11T10:26:01.45Z</time></trkpt><trkpt lat="42.8415766" lon="11.7012709"><ele>601.0</ele><time>2026-04-11T10:26:02.45Z</time></trkpt><trkpt lat="42.8416584" lon="11.7013942"><ele>600.0</ele><time>2026-04-11T10:26:03.45Z</time></trkpt><trkpt lat="42.8416893" lon="11.7015734"><ele>600.0</ele><time>2026-04-11T10:26:04.463Z</time></trkpt><trkpt lat="42.8416762" lon="11.7018258"><ele>600.0</ele><time>2026-04-11T10:26:05.448Z</time></trkpt><trkpt lat="42.841622" lon="11.7020678"><ele>600.0</ele><time>2026-04-11T10:26:06.438Z</time></trkpt><trkpt lat="42.8415928" lon="11.7022905"><ele>602.0</ele><time>2026-04-11T10:26:07.45Z</time></trkpt><trkpt lat="42.841572" lon="11.7025148"><ele>604.0</ele><time>2026-04-11T10:26:08.451Z</time></trkpt><trkpt lat="42.841527" lon="11.7027193"><ele>606.0</ele><time>2026-04-11T10:26:09.452Z</time></trkpt><trkpt lat="42.8415052" lon="11.7029257"><ele>606.25</ele><time>2026-04-11T10:26:10.448Z</time></trkpt><trkpt lat="42.8415117" lon="11.7031193"><ele>606.5</ele><time>2026-04-11T10:26:11.452Z</time></trkpt><trkpt lat="42.8415152" lon="11.7033113"><ele>606.75</ele><time>2026-04-11T10:26:12.458Z</time></trkpt><trkpt lat="42.8415629" lon="11.7034917"><ele>607.0</ele><time>2026-04-11T10:26:13.453Z</time></trkpt><trkpt lat="42.8416319" lon="11.7036506"><ele>607.25</ele><time>2026-04-11T10:26:14.44Z</time></trkpt><trkpt lat="42.8417302" lon="11.7037424"><ele>607.5</ele><time>2026-04-11T10:26:15.442Z</time></trkpt><trkpt lat="42.8418534" lon="11.7037495"><ele>607.75</ele><time>2026-04-11T10:26:16.428Z</time></trkpt><trkpt lat="42.8419344" lon="11.7036068"><ele>608.0</ele><time>2026-04-11T10:26:18.43Z</time></trkpt><trkpt lat="42.8419367" lon="11.7034053"><ele>608.0</ele><time>2026-04-11T10:26:19.413Z</time></trkpt><trkpt lat="42.8418909" lon="11.7031805"><ele>608.0</ele><time>2026-04-11T10:26:20.419Z</time></trkpt><trkpt lat="42.8418135" lon="11.7029816"><ele>608.0</ele><time>2026-04-11T10:26:21.429Z</time></trkpt><trkpt lat="42.8418035" lon="11.7028159"><ele>610.5</ele><time>2026-04-11T10:26:22.43Z</time></trkpt><trkpt lat="42.8418417" lon="11.7026567"><ele>613.0</ele><time>2026-04-11T10:26:23.438Z</time></trkpt><trkpt lat="42.8419138" lon="11.7025119"><ele>615.5</ele><time>2026-04-11T10:26:24.431Z</time></trkpt><trkpt lat="42.8420165" lon="11.7023766"><ele>618.0</ele><time>2026-04-11T10:26:25.432Z</time></trkpt><trkpt lat="42.8421341" lon="11.7022381"><ele>618.0</ele><time>2026-04-11T10:26:26.433Z</time></trkpt><trkpt lat="42.8422505" lon="11.7020929"><ele>618.0</ele><time>2026-04-11T10:26:27.435Z</time></trkpt><trkpt lat="42.8424002" lon="11.7019306"><ele>618.0</ele><time>2026-04-11T10:26:28.443Z</time></trkpt><trkpt lat="42.8425093" lon="11.7017243"><ele>618.0</ele><time>2026-04-11T10:26:29.446Z</time></trkpt><trkpt lat="42.842603" lon="11.7015634"><ele>618.0</ele><time>2026-04-11T10:26:30.44Z</time></trkpt><trkpt lat="42.8426691" lon="11.7014175"><ele>618.0</ele><time>2026-04-11T10:26:31.441Z</time></trkpt><trkpt lat="42.84274" lon="11.7012751"><ele>618.0</ele><time>2026-04-11T10:26:32.446Z</time></trkpt><trkpt lat="42.8427844" lon="11.7011315"><ele>618.6666666666666</ele><time>2026-04-11T10:26:33.456Z</time></trkpt><trkpt lat="42.8427692" lon="11.7009342"><ele>619.3333333333333</ele><time>2026-04-11T10:26:34.435Z</time></trkpt><trkpt lat="42.8426725" lon="11.7007217"><ele>620.0</ele><time>2026-04-11T10:26:35.432Z</time></trkpt><trkpt lat="42.8425385" lon="11.7005676"><ele>620.0</ele><time>2026-04-11T10:26:36.436Z</time></trkpt><trkpt lat="42.8424068" lon="11.7004141"><ele>620.0</ele><time>2026-04-11T10:26:37.444Z</time></trkpt><trkpt lat="42.8422692" lon="11.7002772"><ele>620.0</ele><time>2026-04-11T10:26:38.439Z</time></trkpt><trkpt lat="42.8421382" lon="11.7001683"><ele>622.25</ele><time>2026-04-11T10:26:39.439Z</time></trkpt><trkpt lat="42.8420278" lon="11.7000567"><ele>624.5</ele><time>2026-04-11T10:26:40.443Z</time></trkpt><trkpt lat="42.8419519" lon="11.6999343"><ele>626.75</ele><time>2026-04-11T10:26:41.439Z</time></trkpt><trkpt lat="42.8419001" lon="11.6997899"><ele>629.0</ele><time>2026-04-11T10:26:42.439Z</time></trkpt><trkpt lat="42.8418719" lon="11.699636"><ele>629.0</ele><time>2026-04-11T10:26:43.439Z</time></trkpt><trkpt lat="42.8419122" lon="11.6994378"><ele>629.0</ele><time>2026-04-11T10:26:44.449Z</time></trkpt><trkpt lat="42.8419161" lon="11.6992293"><ele>629.0</ele><time>2026-04-11T10:26:45.437Z</time></trkpt><trkpt lat="42.8418958" lon="11.699032"><ele>630.75</ele><time>2026-04-11T10:26:46.436Z</time></trkpt><trkpt lat="42.8418903" lon="11.6988641"><ele>632.5</ele><time>2026-04-11T10:26:47.429Z</time></trkpt><trkpt lat="42.8419483" lon="11.6987313"><ele>634.25</ele><time>2026-04-11T10:26:48.438Z</time></trkpt><trkpt lat="42.8420526" lon="11.6986107"><ele>636.0</ele><time>2026-04-11T10:26:49.445Z</time></trkpt><trkpt lat="42.8421616" lon="11.6985156"><ele>636.0</ele><time>2026-04-11T10:26:50.432Z</time></trkpt><trkpt lat="42.8422798" lon="11.6984436"><ele>636.0</ele><time>2026-04-11T10:26:51.443Z</time></trkpt><trkpt lat="42.8424033" lon="11.6983678"><ele>636.0</ele><time>2026-04-11T10:26:52.451Z</time></trkpt><trkpt lat="42.842509" lon="11.6982684"><ele>636.0</ele><time>2026-04-11T10:26:53.452Z</time></trkpt><trkpt lat="42.8426114" lon="11.6981009"><ele>640.0</ele><time>2026-04-11T10:26:54.453Z</time></trkpt><trkpt lat="42.8426619" lon="11.6978577"><ele>644.0</ele><time>2026-04-11T10:26:55.448Z</time></trkpt><trkpt lat="42.8427696" lon="11.6976875"><ele>648.0</ele><time>2026-04-11T10:26:56.445Z</time></trkpt><trkpt lat="42.8428725" lon="11.697542"><ele>648.0</ele><time>2026-04-11T10:26:57.453Z</time></trkpt><trkpt lat="42.8429933" lon="11.6973947"><ele>648.0</ele><time>2026-04-11T10:26:58.454Z</time></trkpt><trkpt lat="42.843112" lon="11.6972291"><ele>648.0</ele><time>2026-04-11T10:26:59.452Z</time></trkpt><trkpt lat="42.8431979" lon="11.6970947"><ele>648.0</ele><time>2026-04-11T10:27:00.465Z</time></trkpt><trkpt lat="42.8433363" lon="11.6969703"><ele>648.0</ele><time>2026-04-11T10:27:01.457Z</time></trkpt><trkpt lat="42.8434662" lon="11.696903"><ele>648.0</ele><time>2026-04-11T10:27:02.455Z</time></trkpt><trkpt lat="42.8436177" lon="11.696864"><ele>651.3333333333334</ele><time>2026-04-11T10:27:03.45Z</time></trkpt><trkpt lat="42.8437737" lon="11.6968529"><ele>654.6666666666667</ele><time>2026-04-11T10:27:04.444Z</time></trkpt><trkpt lat="42.8439111" lon="11.6967738"><ele>658.0</ele><time>2026-04-11T10:27:05.452Z</time></trkpt><trkpt lat="42.8440508" lon="11.6966725"><ele>658.0</ele><time>2026-04-11T10:27:06.447Z</time></trkpt><trkpt lat="42.8441877" lon="11.6965632"><ele>658.0</ele><time>2026-04-11T10:27:07.441Z</time></trkpt><trkpt lat="42.84436" lon="11.6965243"><ele>658.0</ele><time>2026-04-11T10:27:08.443Z</time></trkpt><trkpt lat="42.8444776" lon="11.6964821"><ele>660.8</ele><time>2026-04-11T10:27:09.442Z</time></trkpt><trkpt lat="42.8445922" lon="11.6964955"><ele>663.5999999999999</ele><time>2026-04-11T10:27:10.44Z</time></trkpt><trkpt lat="42.8447143" lon="11.6965065"><ele>666.4000000000001</ele><time>2026-04-11T10:27:11.434Z</time></trkpt><trkpt lat="42.8447872" lon="11.6964512"><ele>669.2</ele><time>2026-04-11T10:27:12.427Z</time></trkpt><trkpt lat="42.8448351" lon="11.6963058"><ele>672.0</ele><time>2026-04-11T10:27:13.438Z</time></trkpt><trkpt lat="42.8448188" lon="11.6961052"><ele>671.75</ele><time>2026-04-11T10:27:14.421Z</time></trkpt><trkpt lat="42.844753" lon="11.695914"><ele>671.5</ele><time>2026-04-11T10:27:15.455Z</time></trkpt><trkpt lat="42.8446874" lon="11.6957445"><ele>671.25</ele><time>2026-04-11T10:27:16.433Z</time></trkpt><trkpt lat="42.8446073" lon="11.6955698"><ele>671.0</ele><time>2026-04-11T10:27:17.445Z</time></trkpt><trkpt lat="42.8445291" lon="11.6953977"><ele>672.5</ele><time>2026-04-11T10:27:18.446Z</time></trkpt><trkpt lat="42.8445225" lon="11.6952069"><ele>674.0</ele><time>2026-04-11T10:27:19.446Z</time></trkpt><trkpt lat="42.8445151" lon="11.6950085"><ele>675.5</ele><time>2026-04-11T10:27:20.46Z</time></trkpt><trkpt lat="42.8445124" lon="11.6947979"><ele>677.0</ele><time>2026-04-11T10:27:21.452Z</time></trkpt><trkpt lat="42.8445216" lon="11.6945913"><ele>679.6666666666666</ele><time>2026-04-11T10:27:22.451Z</time></trkpt><trkpt lat="42.8445199" lon="11.6943553"><ele>682.3333333333334</ele><time>2026-04-11T10:27:23.453Z</time></trkpt><trkpt lat="42.844515" lon="11.6941185"><ele>685.0</ele><time>2026-04-11T10:27:24.456Z</time></trkpt><trkpt lat="42.8445083" lon="11.693893"><ele>685.0</ele><time>2026-04-11T10:27:25.452Z</time></trkpt><trkpt lat="42.8445201" lon="11.6937016"><ele>685.0</ele><time>2026-04-11T10:27:26.451Z</time></trkpt><trkpt lat="42.8445362" lon="11.6935164"><ele>685.0</ele><time>2026-04-11T10:27:27.448Z</time></trkpt><trkpt lat="42.8445954" lon="11.6933127"><ele>685.0</ele><time>2026-04-11T10:27:28.438Z</time></trkpt><trkpt lat="42.8446877" lon="11.6931035"><ele>685.3333333333334</ele><time>2026-04-11T10:27:29.451Z</time></trkpt><trkpt lat="42.8447962" lon="11.6929044"><ele>685.6666666666666</ele><time>2026-04-11T10:27:30.455Z</time></trkpt><trkpt lat="42.8448756" lon="11.6927091"><ele>686.0</ele><time>2026-04-11T10:27:31.446Z</time></trkpt><trkpt lat="42.8449556" lon="11.6924781"><ele>686.0</ele><time>2026-04-11T10:27:32.45Z</time></trkpt><trkpt lat="42.845056" lon="11.6922846"><ele>686.0</ele><time>2026-04-11T10:27:33.454Z</time></trkpt><trkpt lat="42.8451189" lon="11.6921122"><ele>686.0</ele><time>2026-04-11T10:27:34.444Z</time></trkpt><trkpt lat="42.8451816" lon="11.6919524"><ele>686.0</ele><time>2026-04-11T10:27:35.445Z</time></trkpt><trkpt lat="42.8452447" lon="11.6917807"><ele>689.5</ele><time>2026-04-11T10:27:36.444Z</time></trkpt><trkpt lat="42.8453186" lon="11.6916049"><ele>693.0</ele><time>2026-04-11T10:27:37.444Z</time></trkpt><trkpt lat="42.8453724" lon="11.6914179"><ele>696.5</ele><time>2026-04-11T10:27:38.442Z</time></trkpt><trkpt lat="42.8454399" lon="11.6912901"><ele>700.0</ele><time>2026-04-11T10:27:39.443Z</time></trkpt><trkpt lat="42.8455288" lon="11.6911864"><ele>700.0</ele><time>2026-04-11T10:27:40.432Z</time></trkpt><trkpt lat="42.8456322" lon="11.6911199"><ele>700.0</ele><time>2026-04-11T10:27:41.431Z</time></trkpt><trkpt lat="42.8457534" lon="11.6910958"><ele>700.0</ele><time>2026-04-11T10:27:42.437Z</time></trkpt><trkpt lat="42.8458317" lon="11.6911193"><ele>700.0</ele><time>2026-04-11T10:27:43.431Z</time></trkpt><trkpt lat="42.8459269" lon="11.6911315"><ele>700.0</ele><time>2026-04-11T10:27:44.439Z</time></trkpt><trkpt lat="42.8460467" lon="11.6911789"><ele>704.5</ele><time>2026-04-11T10:27:45.454Z</time></trkpt><trkpt lat="42.8461279" lon="11.6912724"><ele>709.0</ele><time>2026-04-11T10:27:46.437Z</time></trkpt><trkpt lat="42.8462068" lon="11.6913723"><ele>713.5</ele><time>2026-04-11T10:27:47.439Z</time></trkpt><trkpt lat="42.8462725" lon="11.6915039"><ele>718.0</ele><time>2026-04-11T10:27:48.45Z</time></trkpt><trkpt lat="42.846316" lon="11.691666"><ele>718.0</ele><time>2026-04-11T10:27:49.447Z</time></trkpt><trkpt lat="42.8463411" lon="11.6918517"><ele>718.0</ele><time>2026-04-11T10:27:50.436Z</time></trkpt><trkpt lat="42.8463579" lon="11.6920407"><ele>718.0</ele><time>2026-04-11T10:27:51.453Z</time></trkpt><trkpt lat="42.8463397" lon="11.6922434"><ele>718.0</ele><time>2026-04-11T10:27:52.438Z</time></trkpt><trkpt lat="42.8463" lon="11.6924787"><ele>719.6666666666667</ele><time>2026-04-11T10:27:53.441Z</time></trkpt><trkpt lat="42.84625" lon="11.6927204"><ele>721.3333333333334</ele><time>2026-04-11T10:27:54.452Z</time></trkpt><trkpt lat="42.8462321" lon="11.6929292"><ele>723.0</ele><time>2026-04-11T10:27:55.448Z</time></trkpt><trkpt lat="42.8462311" lon="11.6931299"><ele>723.6666666666666</ele><time>2026-04-11T10:27:56.45Z</time></trkpt><trkpt lat="42.8462612" lon="11.6933526"><ele>724.3333333333333</ele><time>2026-04-11T10:27:57.453Z</time></trkpt><trkpt lat="42.8462638" lon="11.6935822"><ele>725.0</ele><time>2026-04-11T10:27:58.448Z</time></trkpt><trkpt lat="42.8462963" lon="11.6938145"><ele>723.75</ele><time>2026-04-11T10:27:59.448Z</time></trkpt><trkpt lat="42.846357" lon="11.6939963"><ele>722.5</ele><time>2026-04-11T10:28:00.447Z</time></trkpt><trkpt lat="42.8464169" lon="11.6941668"><ele>721.25</ele><time>2026-04-11T10:28:01.441Z</time></trkpt><trkpt lat="42.8465123" lon="11.6943288"><ele>720.0</ele><time>2026-04-11T10:28:02.441Z</time></trkpt><trkpt lat="42.8466312" lon="11.6944672"><ele>718.0</ele><time>2026-04-11T10:28:03.448Z</time></trkpt><trkpt lat="42.8467433" lon="11.6946141"><ele>716.0</ele><time>2026-04-11T10:28:04.452Z</time></trkpt><trkpt lat="42.8468485" lon="11.6947815"><ele>714.0</ele><time>2026-04-11T10:28:05.461Z</time></trkpt><trkpt lat="42.8469621" lon="11.6949333"><ele>717.0</ele><time>2026-04-11T10:28:06.463Z</time></trkpt><trkpt lat="42.8470663" lon="11.6950994"><ele>720.0</ele><time>2026-04-11T10:28:07.46Z</time></trkpt><trkpt lat="42.8471444" lon="11.6952497"><ele>723.0</ele><time>2026-04-11T10:28:08.466Z</time></trkpt><trkpt lat="42.8472473" lon="11.6953878"><ele>726.0</ele><time>2026-04-11T10:28:09.469Z</time></trkpt><trkpt lat="42.8473179" lon="11.695517"><ele>726.0</ele><time>2026-04-11T10:28:10.466Z</time></trkpt><trkpt lat="42.8473772" lon="11.6956093"><ele>726.0</ele><time>2026-04-11T10:28:11.466Z</time></trkpt><trkpt lat="42.8474292" lon="11.6956837"><ele>726.0</ele><time>2026-04-11T10:28:12.461Z</time></trkpt><trkpt lat="42.8474836" lon="11.6957369"><ele>726.0</ele><time>2026-04-11T10:28:13.455Z</time></trkpt><trkpt lat="42.8475747" lon="11.6957424"><ele>726.0</ele><time>2026-04-11T10:28:15.461Z</time></trkpt><trkpt lat="42.8476702" lon="11.6956748"><ele>726.0</ele><time>2026-04-11T10:28:17.446Z</time></trkpt><trkpt lat="42.8477362" lon="11.695586"><ele>725.75</ele><time>2026-04-11T10:28:18.457Z</time></trkpt><trkpt lat="42.8478008" lon="11.6954616"><ele>725.5</ele><time>2026-04-11T10:28:19.445Z</time></trkpt><trkpt lat="42.8478602" lon="11.6953249"><ele>725.25</ele><time>2026-04-11T10:28:20.457Z</time></trkpt><trkpt lat="42.8478829" lon="11.6951738"><ele>725.0</ele><time>2026-04-11T10:28:21.449Z</time></trkpt><trkpt lat="42.8478832" lon="11.6950144"><ele>727.8</ele><time>2026-04-11T10:28:22.454Z</time></trkpt><trkpt lat="42.8478645" lon="11.6948675"><ele>730.6</ele><time>2026-04-11T10:28:23.436Z</time></trkpt><trkpt lat="42.8478231" lon="11.6947337"><ele>733.4000000000001</ele><time>2026-04-11T10:28:24.434Z</time></trkpt><trkpt lat="42.8477698" lon="11.6946065"><ele>736.2</ele><time>2026-04-11T10:28:25.433Z</time></trkpt><trkpt lat="42.8477192" lon="11.6944871"><ele>739.0</ele><time>2026-04-11T10:28:26.438Z</time></trkpt><trkpt lat="42.8476672" lon="11.6943756"><ele>739.8333333333334</ele><time>2026-04-11T10:28:27.434Z</time></trkpt><trkpt lat="42.8476142" lon="11.6942761"><ele>740.6666666666667</ele><time>2026-04-11T10:28:28.44Z</time></trkpt><trkpt lat="42.8475728" lon="11.6941827"><ele>741.5</ele><time>2026-04-11T10:28:29.433Z</time></trkpt><trkpt lat="42.8475334" lon="11.6940898"><ele>742.3333333333334</ele><time>2026-04-11T10:28:30.432Z</time></trkpt><trkpt lat="42.8474823" lon="11.6939984"><ele>743.1666666666666</ele><time>2026-04-11T10:28:31.431Z</time></trkpt><trkpt lat="42.8474645" lon="11.6938926"><ele>744.0</ele><time>2026-04-11T10:28:32.432Z</time></trkpt><trkpt lat="42.8474731" lon="11.6937726"><ele>744.0</ele><time>2026-04-11T10:28:33.423Z</time></trkpt><trkpt lat="42.8474906" lon="11.6936683"><ele>744.0</ele><time>2026-04-11T10:28:34.434Z</time></trkpt><trkpt lat="42.8474888" lon="11.6935652"><ele>744.0</ele><time>2026-04-11T10:28:35.441Z</time></trkpt><trkpt lat="42.8474932" lon="11.6934777"><ele>744.0</ele><time>2026-04-11T10:28:36.44Z</time></trkpt><trkpt lat="42.8474887" lon="11.6933854"><ele>744.0</ele><time>2026-04-11T10:28:37.442Z</time></trkpt><trkpt lat="42.8475071" lon="11.6932474"><ele>744.0</ele><time>2026-04-11T10:28:39.429Z</time></trkpt><trkpt lat="42.8475743" lon="11.6932156"><ele>745.5</ele><time>2026-04-11T10:28:41.419Z</time></trkpt><trkpt lat="42.847645" lon="11.6932495"><ele>747.0</ele><time>2026-04-11T10:28:43.411Z</time></trkpt><trkpt lat="42.8477108" lon="11.6932769"><ele>748.5</ele><time>2026-04-11T10:28:44.401Z</time></trkpt><trkpt lat="42.8477642" lon="11.6933354"><ele>750.0</ele><time>2026-04-11T10:28:45.423Z</time></trkpt><trkpt lat="42.8478202" lon="11.6934456"><ele>751.5</ele><time>2026-04-11T10:28:47.432Z</time></trkpt><trkpt lat="42.847795" lon="11.6935491"><ele>753.0</ele><time>2026-04-11T10:28:49.41Z</time></trkpt><trkpt lat="42.8477747" lon="11.6936594"><ele>753.0</ele><time>2026-04-11T10:28:51.414Z</time></trkpt><trkpt lat="42.8477893" lon="11.6937566"><ele>753.0</ele><time>2026-04-11T10:28:53.421Z</time></trkpt><trkpt lat="42.8478573" lon="11.6938352"><ele>753.0</ele><time>2026-04-11T10:28:55.389Z</time></trkpt><trkpt lat="42.8479475" lon="11.6938287"><ele>753.0</ele><time>2026-04-11T10:28:58.4Z</time></trkpt><trkpt lat="42.8480103" lon="11.6938619"><ele>753.0</ele><time>2026-04-11T10:29:01.395Z</time></trkpt><trkpt lat="42.848081" lon="11.6938243"><ele>753.0</ele><time>2026-04-11T10:29:02.404Z</time></trkpt><trkpt lat="42.8481523" lon="11.6937882"><ele>753.0</ele><time>2026-04-11T10:29:03.406Z</time></trkpt><trkpt lat="42.8482729" lon="11.6936917"><ele>753.0</ele><time>2026-04-11T10:29:05.426Z</time></trkpt><trkpt lat="42.8483382" lon="11.6936178"><ele>753.0</ele><time>2026-04-11T10:29:06.416Z</time></trkpt><trkpt lat="42.8484013" lon="11.6935573"><ele>753.0</ele><time>2026-04-11T10:29:07.42Z</time></trkpt><trkpt lat="42.8484543" lon="11.6935103"><ele>753.0</ele><time>2026-04-11T10:29:08.416Z</time></trkpt><trkpt lat="42.8485024" lon="11.693437"><ele>753.0</ele><time>2026-04-11T10:29:09.425Z</time></trkpt><trkpt lat="42.8485418" lon="11.6933527"><ele>755.6666666666666</ele><time>2026-04-11T10:29:10.423Z</time></trkpt><trkpt lat="42.8485662" lon="11.693259"><ele>758.3333333333333</ele><time>2026-04-11T10:29:11.42Z</time></trkpt><trkpt lat="42.8485943" lon="11.693161"><ele>761.0</ele><time>2026-04-11T10:29:12.418Z</time></trkpt><trkpt lat="42.8486241" lon="11.6930811"><ele>763.6666666666666</ele><time>2026-04-11T10:29:13.411Z</time></trkpt><trkpt lat="42.8486597" lon="11.6929526"><ele>766.3333333333333</ele><time>2026-04-11T10:29:15.407Z</time></trkpt><trkpt lat="42.8487164" lon="11.6928563"><ele>769.0</ele><time>2026-04-11T10:29:18.427Z</time></trkpt><trkpt lat="42.8487604" lon="11.6927206"><ele>769.6666666666666</ele><time>2026-04-11T10:29:20.412Z</time></trkpt><trkpt lat="42.8487831" lon="11.6926335"><ele>770.3333333333333</ele><time>2026-04-11T10:29:21.41Z</time></trkpt><trkpt lat="42.8488044" lon="11.692539"><ele>771.0</ele><time>2026-04-11T10:29:22.407Z</time></trkpt><trkpt lat="42.848816" lon="11.6924375"><ele>771.6666666666667</ele><time>2026-04-11T10:29:23.411Z</time></trkpt><trkpt lat="42.8488528" lon="11.6923655"><ele>772.3333333333334</ele><time>2026-04-11T10:29:24.403Z</time></trkpt><trkpt lat="42.8489172" lon="11.6922795"><ele>773.0</ele><time>2026-04-11T10:29:26.399Z</time></trkpt><trkpt lat="42.8489907" lon="11.6923242"><ele>773.0000000000001</ele><time>2026-04-11T10:29:28.408Z</time></trkpt><trkpt lat="42.8490364" lon="11.6923911"><ele>773.0</ele><time>2026-04-11T10:29:29.406Z</time></trkpt><trkpt lat="42.849113" lon="11.6924567"><ele>773.0</ele><time>2026-04-11T10:29:30.413Z</time></trkpt><trkpt lat="42.849165" lon="11.6925603"><ele>773.0</ele><time>2026-04-11T10:29:31.417Z</time></trkpt><trkpt lat="42.8492068" lon="11.6926467"><ele>773.0000000000001</ele><time>2026-04-11T10:29:32.431Z</time></trkpt><trkpt lat="42.8492442" lon="11.6927277"><ele>773.0</ele><time>2026-04-11T10:29:33.431Z</time></trkpt><trkpt lat="42.8492741" lon="11.6928207"><ele>773.0000000000001</ele><time>2026-04-11T10:29:34.424Z</time></trkpt><trkpt lat="42.849331" lon="11.6928658"><ele>773.0</ele><time>2026-04-11T10:29:35.419Z</time></trkpt><trkpt lat="42.849405" lon="11.6929315"><ele>773.0</ele><time>2026-04-11T10:29:37.424Z</time></trkpt><trkpt lat="42.8494675" lon="11.692917"><ele>773.0</ele><time>2026-04-11T10:29:39.42Z</time></trkpt><trkpt lat="42.849533" lon="11.6928691"><ele>773.0000000000001</ele><time>2026-04-11T10:29:41.423Z</time></trkpt><trkpt lat="42.8496279" lon="11.6927453"><ele>773.0</ele><time>2026-04-11T10:29:43.427Z</time></trkpt><trkpt lat="42.8496704" lon="11.6926701"><ele>773.0</ele><time>2026-04-11T10:29:44.433Z</time></trkpt><trkpt lat="42.8497066" lon="11.692582"><ele>773.0</ele><time>2026-04-11T10:29:45.437Z</time></trkpt><trkpt lat="42.8497322" lon="11.6924295"><ele>773.0</ele><time>2026-04-11T10:29:47.43Z</time></trkpt><trkpt lat="42.849744" lon="11.6922787"><ele>773.0</ele><time>2026-04-11T10:29:49.443Z</time></trkpt><trkpt lat="42.8497657" lon="11.6921661"><ele>773.0</ele><time>2026-04-11T10:29:51.431Z</time></trkpt><trkpt lat="42.8497084" lon="11.6921279"><ele>773.0</ele><time>2026-04-11T10:30:04.45Z</time></trkpt></trkseg><trkseg><trkpt lat="42.8497631" lon="11.6921837"><ele>773.0</ele><time>2026-04-11T11:21:59.444Z</time></trkpt><trkpt lat="42.8497559" lon="11.6920747"><ele>773.0</ele><time>2026-04-11T11:22:14.425Z</time></trkpt><trkpt lat="42.8496792" lon="11.6920533"><ele>773.0</ele><time>2026-04-11T11:22:16.455Z</time></trkpt><trkpt lat="42.8496348" lon="11.6921178"><ele>773.0</ele><time>2026-04-11T11:23:28.453Z</time></trkpt><trkpt lat="42.8495809" lon="11.6920441"><ele>773.0</ele><time>2026-04-11T11:23:31.421Z</time></trkpt><trkpt lat="42.8494927" lon="11.6918609"><ele>773.3333333333334</ele><time>2026-04-11T11:23:33.417Z</time></trkpt><trkpt lat="42.8494404" lon="11.6917509"><ele>773.6666666666667</ele><time>2026-04-11T11:23:34.419Z</time></trkpt><trkpt lat="42.8493932" lon="11.6916475"><ele>774.0</ele><time>2026-04-11T11:23:35.425Z</time></trkpt><trkpt lat="42.8493629" lon="11.6915427"><ele>774.3333333333333</ele><time>2026-04-11T11:23:36.418Z</time></trkpt><trkpt lat="42.8493441" lon="11.6914182"><ele>774.6666666666666</ele><time>2026-04-11T11:23:37.421Z</time></trkpt><trkpt lat="42.8493303" lon="11.6913116"><ele>775.0</ele><time>2026-04-11T11:23:38.412Z</time></trkpt><trkpt lat="42.8493249" lon="11.6912099"><ele>775.0</ele><time>2026-04-11T11:23:39.423Z</time></trkpt><trkpt lat="42.8493153" lon="11.691111"><ele>775.0</ele><time>2026-04-11T11:23:40.424Z</time></trkpt><trkpt lat="42.8493008" lon="11.6909794"><ele>775.0</ele><time>2026-04-11T11:23:42.434Z</time></trkpt><trkpt lat="42.8492827" lon="11.6908375"><ele>775.0</ele><time>2026-04-11T11:23:44.437Z</time></trkpt><trkpt lat="42.8492589" lon="11.6906952"><ele>775.0</ele><time>2026-04-11T11:23:46.427Z</time></trkpt><trkpt lat="42.8492347" lon="11.6905469"><ele>774.8</ele><time>2026-04-11T11:23:48.429Z</time></trkpt><trkpt lat="42.8492355" lon="11.6903938"><ele>774.6</ele><time>2026-04-11T11:23:50.427Z</time></trkpt><trkpt lat="42.8492395" lon="11.6902537"><ele>774.4000000000001</ele><time>2026-04-11T11:23:52.426Z</time></trkpt><trkpt lat="42.8492403" lon="11.6901299"><ele>774.2</ele><time>2026-04-11T11:23:54.422Z</time></trkpt><trkpt lat="42.849174" lon="11.6901356"><ele>774.0</ele><time>2026-04-11T11:23:59.421Z</time></trkpt><trkpt lat="42.8491918" lon="11.6902521"><ele>774.0</ele><time>2026-04-11T11:24:01.416Z</time></trkpt><trkpt lat="42.8492271" lon="11.6904034"><ele>774.0</ele><time>2026-04-11T11:24:03.415Z</time></trkpt><trkpt lat="42.8492296" lon="11.690529"><ele>774.0</ele><time>2026-04-11T11:24:05.413Z</time></trkpt><trkpt lat="42.8492358" lon="11.6906612"><ele>774.0</ele><time>2026-04-11T11:24:07.413Z</time></trkpt><trkpt lat="42.8492539" lon="11.690815"><ele>774.0</ele><time>2026-04-11T11:24:09.418Z</time></trkpt><trkpt lat="42.8492348" lon="11.6909928"><ele>774.1428571428571</ele><time>2026-04-11T11:24:11.422Z</time></trkpt><trkpt lat="42.8492364" lon="11.6910998"><ele>774.2857142857143</ele><time>2026-04-11T11:24:12.428Z</time></trkpt><trkpt lat="42.8492452" lon="11.6911995"><ele>774.4285714285713</ele><time>2026-04-11T11:24:13.422Z</time></trkpt><trkpt lat="42.8492617" lon="11.6912945"><ele>774.5714285714286</ele><time>2026-04-11T11:24:14.425Z</time></trkpt><trkpt lat="42.8492766" lon="11.6913793"><ele>774.7142857142857</ele><time>2026-04-11T11:24:15.424Z</time></trkpt><trkpt lat="42.8492872" lon="11.6914662"><ele>774.8571428571428</ele><time>2026-04-11T11:24:16.419Z</time></trkpt><trkpt lat="42.8493054" lon="11.6915509"><ele>775.0</ele><time>2026-04-11T11:24:17.424Z</time></trkpt><trkpt lat="42.8493308" lon="11.6917006"><ele>774.9999999999999</ele><time>2026-04-11T11:24:19.417Z</time></trkpt><trkpt lat="42.8493462" lon="11.6917922"><ele>775.0</ele><time>2026-04-11T11:24:20.43Z</time></trkpt><trkpt lat="42.8493703" lon="11.6918774"><ele>775.0</ele><time>2026-04-11T11:24:21.42Z</time></trkpt><trkpt lat="42.8494427" lon="11.6919853"><ele>775.0</ele><time>2026-04-11T11:24:23.419Z</time></trkpt><trkpt lat="42.84949" lon="11.6920422"><ele>774.9999999999999</ele><time>2026-04-11T11:24:24.425Z</time></trkpt><trkpt lat="42.8495698" lon="11.6921133"><ele>775.0</ele><time>2026-04-11T11:24:26.434Z</time></trkpt><trkpt lat="42.8496448" lon="11.6921754"><ele>774.6666666666666</ele><time>2026-04-11T11:24:28.447Z</time></trkpt><trkpt lat="42.8496813" lon="11.6922557"><ele>774.3333333333333</ele><time>2026-04-11T11:24:31.452Z</time></trkpt><trkpt lat="42.8496571" lon="11.6923763"><ele>774.0</ele><time>2026-04-11T11:24:34.458Z</time></trkpt><trkpt lat="42.8497058" lon="11.6924903"><ele>773.6666666666667</ele><time>2026-04-11T11:24:36.463Z</time></trkpt><trkpt lat="42.8497397" lon="11.6925884"><ele>773.3333333333334</ele><time>2026-04-11T11:24:38.462Z</time></trkpt><trkpt lat="42.8496992" lon="11.6926695"><ele>773.0</ele><time>2026-04-11T11:24:40.442Z</time></trkpt><trkpt lat="42.849635" lon="11.6927292"><ele>773.0000000000001</ele><time>2026-04-11T11:24:42.435Z</time></trkpt><trkpt lat="42.8495642" lon="11.6927517"><ele>773.0</ele><time>2026-04-11T11:24:44.425Z</time></trkpt><trkpt lat="42.8494941" lon="11.6928121"><ele>773.0</ele><time>2026-04-11T11:24:47.425Z</time></trkpt><trkpt lat="42.8494399" lon="11.6928628"><ele>773.0</ele><time>2026-04-11T11:24:50.421Z</time></trkpt><trkpt lat="42.8493576" lon="11.6929206"><ele>773.0000000000001</ele><time>2026-04-11T11:24:55.419Z</time></trkpt><trkpt lat="42.8492941" lon="11.6930209"><ele>773.0</ele><time>2026-04-11T11:24:57.414Z</time></trkpt><trkpt lat="42.8492264" lon="11.6931024"><ele>772.2</ele><time>2026-04-11T11:24:59.397Z</time></trkpt><trkpt lat="42.8491523" lon="11.6932142"><ele>771.4</ele><time>2026-04-11T11:25:01.39Z</time></trkpt><trkpt lat="42.8490703" lon="11.6933044"><ele>770.6</ele><time>2026-04-11T11:25:03.377Z</time></trkpt><trkpt lat="42.8489904" lon="11.6933959"><ele>769.8000000000001</ele><time>2026-04-11T11:25:05.373Z</time></trkpt><trkpt lat="42.8489121" lon="11.693433"><ele>769.0</ele><time>2026-04-11T11:25:07.372Z</time></trkpt><trkpt lat="42.848798" lon="11.6933611"><ele>769.0</ele><time>2026-04-11T11:25:09.378Z</time></trkpt><trkpt lat="42.8486939" lon="11.6933752"><ele>769.0</ele><time>2026-04-11T11:25:12.368Z</time></trkpt><trkpt lat="42.8485894" lon="11.693361"><ele>769.0</ele><time>2026-04-11T11:25:14.355Z</time></trkpt><trkpt lat="42.848511" lon="11.693315"><ele>769.0</ele><time>2026-04-11T11:25:16.358Z</time></trkpt><trkpt lat="42.8485856" lon="11.6931523"><ele>769.0</ele><time>2026-04-11T11:25:18.379Z</time></trkpt><trkpt lat="42.8486446" lon="11.6930742"><ele>768.9999999999999</ele><time>2026-04-11T11:25:19.382Z</time></trkpt><trkpt lat="42.8486915" lon="11.6929996"><ele>769.0</ele><time>2026-04-11T11:25:21.387Z</time></trkpt><trkpt lat="42.8486271" lon="11.6929904"><ele>769.0</ele><time>2026-04-11T11:25:25.385Z</time></trkpt><trkpt lat="42.8486442" lon="11.6930937"><ele>769.0</ele><time>2026-04-11T11:25:27.376Z</time></trkpt><trkpt lat="42.8486428" lon="11.6932614"><ele>768.9999999999999</ele><time>2026-04-11T11:25:29.375Z</time></trkpt><trkpt lat="42.8485963" lon="11.6933788"><ele>769.0</ele><time>2026-04-11T11:25:31.38Z</time></trkpt><trkpt lat="42.8484451" lon="11.6934706"><ele>768.2</ele><time>2026-04-11T11:25:33.379Z</time></trkpt><trkpt lat="42.8483526" lon="11.6935635"><ele>767.4000000000001</ele><time>2026-04-11T11:25:35.388Z</time></trkpt><trkpt lat="42.8482847" lon="11.6936491"><ele>766.6</ele><time>2026-04-11T11:25:37.385Z</time></trkpt><trkpt lat="42.8482086" lon="11.6937464"><ele>765.8</ele><time>2026-04-11T11:25:39.395Z</time></trkpt><trkpt lat="42.8481296" lon="11.6938078"><ele>765.0</ele><time>2026-04-11T11:25:41.388Z</time></trkpt><trkpt lat="42.8480453" lon="11.6938365"><ele>762.6</ele><time>2026-04-11T11:25:43.38Z</time></trkpt><trkpt lat="42.8479379" lon="11.6938603"><ele>760.2</ele><time>2026-04-11T11:25:45.379Z</time></trkpt><trkpt lat="42.8478275" lon="11.6938948"><ele>757.8</ele><time>2026-04-11T11:25:47.378Z</time></trkpt><trkpt lat="42.8477534" lon="11.6939569"><ele>755.4</ele><time>2026-04-11T11:25:48.373Z</time></trkpt><trkpt lat="42.8476875" lon="11.6939723"><ele>753.0</ele><time>2026-04-11T11:25:49.369Z</time></trkpt><trkpt lat="42.8475643" lon="11.6939383"><ele>752.1666666666666</ele><time>2026-04-11T11:25:51.377Z</time></trkpt><trkpt lat="42.8475291" lon="11.6938182"><ele>751.3333333333334</ele><time>2026-04-11T11:25:53.376Z</time></trkpt><trkpt lat="42.8475156" lon="11.6937148"><ele>750.5</ele><time>2026-04-11T11:25:54.377Z</time></trkpt><trkpt lat="42.8474847" lon="11.6936309"><ele>749.6666666666667</ele><time>2026-04-11T11:25:55.382Z</time></trkpt><trkpt lat="42.8474647" lon="11.6935343"><ele>748.8333333333334</ele><time>2026-04-11T11:25:57.374Z</time></trkpt><trkpt lat="42.8473947" lon="11.6935878"><ele>748.0</ele><time>2026-04-11T11:26:01.386Z</time></trkpt><trkpt lat="42.8474106" lon="11.6937585"><ele>747.0</ele><time>2026-04-11T11:26:03.384Z</time></trkpt><trkpt lat="42.8474237" lon="11.6939217"><ele>746.0</ele><time>2026-04-11T11:26:04.391Z</time></trkpt><trkpt lat="42.847439" lon="11.6940946"><ele>745.0</ele><time>2026-04-11T11:26:05.389Z</time></trkpt><trkpt lat="42.8474769" lon="11.6942433"><ele>744.0</ele><time>2026-04-11T11:26:06.395Z</time></trkpt><trkpt lat="42.8475113" lon="11.6943542"><ele>743.0</ele><time>2026-04-11T11:26:07.395Z</time></trkpt><trkpt lat="42.8475491" lon="11.6944488"><ele>742.0</ele><time>2026-04-11T11:26:08.397Z</time></trkpt><trkpt lat="42.8476134" lon="11.6945587"><ele>741.0</ele><time>2026-04-11T11:26:09.405Z</time></trkpt><trkpt lat="42.8476738" lon="11.6946893"><ele>740.0</ele><time>2026-04-11T11:26:10.408Z</time></trkpt><trkpt lat="42.8477125" lon="11.6948453"><ele>739.0</ele><time>2026-04-11T11:26:11.42Z</time></trkpt><trkpt lat="42.8477523" lon="11.6949909"><ele>739.0</ele><time>2026-04-11T11:26:12.418Z</time></trkpt><trkpt lat="42.847786" lon="11.6951305"><ele>739.0</ele><time>2026-04-11T11:26:13.409Z</time></trkpt><trkpt lat="42.8478113" lon="11.6952636"><ele>739.0</ele><time>2026-04-11T11:26:14.411Z</time></trkpt><trkpt lat="42.8478163" lon="11.695389"><ele>739.0</ele><time>2026-04-11T11:26:15.414Z</time></trkpt><trkpt lat="42.8478001" lon="11.6955147"><ele>739.0</ele><time>2026-04-11T11:26:16.418Z</time></trkpt><trkpt lat="42.8477648" lon="11.6956291"><ele>736.8333333333334</ele><time>2026-04-11T11:26:17.428Z</time></trkpt><trkpt lat="42.8477153" lon="11.6957269"><ele>734.6666666666667</ele><time>2026-04-11T11:26:18.425Z</time></trkpt><trkpt lat="42.8476441" lon="11.6957925"><ele>732.5</ele><time>2026-04-11T11:26:19.427Z</time></trkpt><trkpt lat="42.8475699" lon="11.6957797"><ele>730.3333333333334</ele><time>2026-04-11T11:26:20.433Z</time></trkpt><trkpt lat="42.8474545" lon="11.6957311"><ele>728.1666666666666</ele><time>2026-04-11T11:26:22.443Z</time></trkpt><trkpt lat="42.8473925" lon="11.6957091"><ele>726.0</ele><time>2026-04-11T11:26:23.45Z</time></trkpt><trkpt lat="42.8473296" lon="11.6956547"><ele>726.0</ele><time>2026-04-11T11:26:24.446Z</time></trkpt><trkpt lat="42.8472656" lon="11.695556"><ele>726.0</ele><time>2026-04-11T11:26:25.438Z</time></trkpt><trkpt lat="42.8472064" lon="11.6954318"><ele>726.0</ele><time>2026-04-11T11:26:26.45Z</time></trkpt><trkpt lat="42.8471435" lon="11.6953034"><ele>726.0</ele><time>2026-04-11T11:26:27.442Z</time></trkpt><trkpt lat="42.8470849" lon="11.695184"><ele>726.0</ele><time>2026-04-11T11:26:28.446Z</time></trkpt><trkpt lat="42.8470215" lon="11.6950823"><ele>727.4</ele><time>2026-04-11T11:26:29.447Z</time></trkpt><trkpt lat="42.8469626" lon="11.6949758"><ele>728.8</ele><time>2026-04-11T11:26:30.458Z</time></trkpt><trkpt lat="42.846908" lon="11.6948796"><ele>730.1999999999999</ele><time>2026-04-11T11:26:31.457Z</time></trkpt><trkpt lat="42.8468509" lon="11.6947734"><ele>731.5999999999999</ele><time>2026-04-11T11:26:32.465Z</time></trkpt><trkpt lat="42.8467891" lon="11.6946559"><ele>733.0</ele><time>2026-04-11T11:26:33.455Z</time></trkpt><trkpt lat="42.8467221" lon="11.6945417"><ele>730.4</ele><time>2026-04-11T11:26:34.458Z</time></trkpt><trkpt lat="42.8466615" lon="11.6944279"><ele>727.8</ele><time>2026-04-11T11:26:35.457Z</time></trkpt><trkpt lat="42.8466019" lon="11.6943097"><ele>725.2</ele><time>2026-04-11T11:26:36.454Z</time></trkpt><trkpt lat="42.846541" lon="11.6941797"><ele>722.6</ele><time>2026-04-11T11:26:37.454Z</time></trkpt><trkpt lat="42.8464813" lon="11.6940427"><ele>720.0</ele><time>2026-04-11T11:26:38.452Z</time></trkpt><trkpt lat="42.8464269" lon="11.6939087"><ele>720.0</ele><time>2026-04-11T11:26:39.443Z</time></trkpt><trkpt lat="42.8463793" lon="11.6937725"><ele>720.0</ele><time>2026-04-11T11:26:40.444Z</time></trkpt><trkpt lat="42.8463335" lon="11.6936244"><ele>720.0</ele><time>2026-04-11T11:26:41.447Z</time></trkpt><trkpt lat="42.846298" lon="11.6934731"><ele>720.0</ele><time>2026-04-11T11:26:42.441Z</time></trkpt><trkpt lat="42.846275" lon="11.6933119"><ele>720.75</ele><time>2026-04-11T11:26:43.45Z</time></trkpt><trkpt lat="42.8462559" lon="11.6931381"><ele>721.5</ele><time>2026-04-11T11:26:44.449Z</time></trkpt><trkpt lat="42.846257" lon="11.6929465"><ele>722.25</ele><time>2026-04-11T11:26:45.452Z</time></trkpt><trkpt lat="42.8462697" lon="11.6927591"><ele>723.0</ele><time>2026-04-11T11:26:46.452Z</time></trkpt><trkpt lat="42.8462855" lon="11.6925788"><ele>723.0</ele><time>2026-04-11T11:26:47.457Z</time></trkpt><trkpt lat="42.846301" lon="11.6923927"><ele>723.0</ele><time>2026-04-11T11:26:48.448Z</time></trkpt><trkpt lat="42.8463125" lon="11.6921866"><ele>723.0</ele><time>2026-04-11T11:26:49.454Z</time></trkpt><trkpt lat="42.8463335" lon="11.6920066"><ele>723.0</ele><time>2026-04-11T11:26:50.454Z</time></trkpt><trkpt lat="42.8463548" lon="11.6918574"><ele>722.0</ele><time>2026-04-11T11:26:51.447Z</time></trkpt><trkpt lat="42.8463636" lon="11.6916984"><ele>721.0</ele><time>2026-04-11T11:26:52.446Z</time></trkpt><trkpt lat="42.8463363" lon="11.6915427"><ele>720.0</ele><time>2026-04-11T11:26:53.443Z</time></trkpt><trkpt lat="42.8462897" lon="11.6914087"><ele>719.0</ele><time>2026-04-11T11:26:54.449Z</time></trkpt><trkpt lat="42.8462197" lon="11.6913003"><ele>718.0</ele><time>2026-04-11T11:26:55.447Z</time></trkpt><trkpt lat="42.8461467" lon="11.6911918"><ele>717.0</ele><time>2026-04-11T11:26:56.449Z</time></trkpt><trkpt lat="42.8460912" lon="11.6910905"><ele>716.0</ele><time>2026-04-11T11:26:57.439Z</time></trkpt><trkpt lat="42.8460488" lon="11.6909924"><ele>715.0</ele><time>2026-04-11T11:26:58.437Z</time></trkpt><trkpt lat="42.8460478" lon="11.6908624"><ele>714.0</ele><time>2026-04-11T11:27:00.428Z</time></trkpt><trkpt lat="42.8461123" lon="11.6908212"><ele>713.0</ele><time>2026-04-11T11:27:02.462Z</time></trkpt><trkpt lat="42.8461565" lon="11.6907484"><ele>712.0</ele><time>2026-04-11T11:27:08.444Z</time></trkpt><trkpt lat="42.8462391" lon="11.6907408"><ele>712.0</ele><time>2026-04-11T11:27:12.443Z</time></trkpt><trkpt lat="42.8462262" lon="11.6906471"><ele>712.0</ele><time>2026-04-11T11:30:39.444Z</time></trkpt><trkpt lat="42.8461462" lon="11.6905937"><ele>712.0</ele><time>2026-04-11T11:30:41.444Z</time></trkpt><trkpt lat="42.8461179" lon="11.6904072"><ele>712.0</ele><time>2026-04-11T11:30:43.428Z</time></trkpt><trkpt lat="42.8461029" lon="11.6902754"><ele>712.0</ele><time>2026-04-11T11:30:44.441Z</time></trkpt><trkpt lat="42.8461109" lon="11.6901175"><ele>710.5</ele><time>2026-04-11T11:30:45.437Z</time></trkpt><trkpt lat="42.8461371" lon="11.6899399"><ele>709.0</ele><time>2026-04-11T11:30:46.432Z</time></trkpt><trkpt lat="42.8461635" lon="11.6897654"><ele>707.5</ele><time>2026-04-11T11:30:47.438Z</time></trkpt><trkpt lat="42.8461846" lon="11.6895755"><ele>706.0</ele><time>2026-04-11T11:30:48.438Z</time></trkpt><trkpt lat="42.8462005" lon="11.6893686"><ele>705.6666666666667</ele><time>2026-04-11T11:30:49.444Z</time></trkpt><trkpt lat="42.8462207" lon="11.6891583"><ele>705.3333333333334</ele><time>2026-04-11T11:30:50.45Z</time></trkpt><trkpt lat="42.846243" lon="11.6889193"><ele>705.0</ele><time>2026-04-11T11:30:51.446Z</time></trkpt><trkpt lat="42.8462402" lon="11.6886706"><ele>705.5</ele><time>2026-04-11T11:30:52.453Z</time></trkpt><trkpt lat="42.8462609" lon="11.6884565"><ele>706.0</ele><time>2026-04-11T11:30:53.451Z</time></trkpt><trkpt lat="42.8462919" lon="11.6882738"><ele>706.5</ele><time>2026-04-11T11:30:54.455Z</time></trkpt><trkpt lat="42.8463284" lon="11.6880809"><ele>707.0</ele><time>2026-04-11T11:30:55.453Z</time></trkpt><trkpt lat="42.8463619" lon="11.6879068"><ele>707.75</ele><time>2026-04-11T11:30:56.458Z</time></trkpt><trkpt lat="42.8463882" lon="11.6877421"><ele>708.5</ele><time>2026-04-11T11:30:57.46Z</time></trkpt><trkpt lat="42.8464152" lon="11.6875646"><ele>709.25</ele><time>2026-04-11T11:30:58.464Z</time></trkpt><trkpt lat="42.8464347" lon="11.6873842"><ele>710.0</ele><time>2026-04-11T11:30:59.464Z</time></trkpt><trkpt lat="42.8464662" lon="11.6870442"><ele>711.25</ele><time>2026-04-11T11:31:01.463Z</time></trkpt><trkpt lat="42.8464912" lon="11.6868644"><ele>712.5</ele><time>2026-04-11T11:31:02.458Z</time></trkpt><trkpt lat="42.8465168" lon="11.6866558"><ele>713.75</ele><time>2026-04-11T11:31:03.444Z</time></trkpt><trkpt lat="42.8465974" lon="11.6864885"><ele>715.0</ele><time>2026-04-11T11:31:04.445Z</time></trkpt><trkpt lat="42.8467146" lon="11.6864019"><ele>718.5</ele><time>2026-04-11T11:31:05.441Z</time></trkpt><trkpt lat="42.8468635" lon="11.6863989"><ele>722.0</ele><time>2026-04-11T11:31:06.44Z</time></trkpt><trkpt lat="42.8469984" lon="11.6863989"><ele>725.5</ele><time>2026-04-11T11:31:07.431Z</time></trkpt><trkpt lat="42.8471391" lon="11.6864147"><ele>729.0</ele><time>2026-04-11T11:31:08.442Z</time></trkpt><trkpt lat="42.8472732" lon="11.6864726"><ele>729.0</ele><time>2026-04-11T11:31:09.427Z</time></trkpt><trkpt lat="42.8473852" lon="11.6866599"><ele>729.0</ele><time>2026-04-11T11:31:10.425Z</time></trkpt><trkpt lat="42.8474834" lon="11.6868415"><ele>729.0</ele><time>2026-04-11T11:31:11.433Z</time></trkpt><trkpt lat="42.8475417" lon="11.6870287"><ele>726.6666666666666</ele><time>2026-04-11T11:31:12.421Z</time></trkpt><trkpt lat="42.8475595" lon="11.6872257"><ele>724.3333333333333</ele><time>2026-04-11T11:31:13.423Z</time></trkpt><trkpt lat="42.8475834" lon="11.6874221"><ele>722.0</ele><time>2026-04-11T11:31:14.432Z</time></trkpt><trkpt lat="42.8475855" lon="11.6876391"><ele>723.25</ele><time>2026-04-11T11:31:15.435Z</time></trkpt><trkpt lat="42.8476118" lon="11.6877793"><ele>724.5</ele><time>2026-04-11T11:31:16.429Z</time></trkpt><trkpt lat="42.8476534" lon="11.6879341"><ele>725.75</ele><time>2026-04-11T11:31:17.443Z</time></trkpt><trkpt lat="42.8477112" lon="11.6880841"><ele>727.0</ele><time>2026-04-11T11:31:18.445Z</time></trkpt><trkpt lat="42.8477876" lon="11.6882192"><ele>731.4000000000001</ele><time>2026-04-11T11:31:19.425Z</time></trkpt><trkpt lat="42.8478782" lon="11.6883216"><ele>735.8000000000001</ele><time>2026-04-11T11:31:20.426Z</time></trkpt><trkpt lat="42.8479564" lon="11.6884091"><ele>740.2</ele><time>2026-04-11T11:31:21.421Z</time></trkpt><trkpt lat="42.8480398" lon="11.6884112"><ele>744.6</ele><time>2026-04-11T11:31:22.42Z</time></trkpt><trkpt lat="42.8481332" lon="11.688333"><ele>749.0</ele><time>2026-04-11T11:31:23.424Z</time></trkpt><trkpt lat="42.8482051" lon="11.688215"><ele>749.0</ele><time>2026-04-11T11:31:24.42Z</time></trkpt><trkpt lat="42.8482495" lon="11.6880434"><ele>749.0</ele><time>2026-04-11T11:31:25.423Z</time></trkpt><trkpt lat="42.8482948" lon="11.6878255"><ele>749.0</ele><time>2026-04-11T11:31:26.421Z</time></trkpt><trkpt lat="42.8483506" lon="11.6876241"><ele>749.3333333333333</ele><time>2026-04-11T11:31:27.423Z</time></trkpt><trkpt lat="42.8483987" lon="11.6874103"><ele>749.6666666666666</ele><time>2026-04-11T11:31:28.423Z</time></trkpt><trkpt lat="42.8484056" lon="11.6871788"><ele>750.0</ele><time>2026-04-11T11:31:29.427Z</time></trkpt><trkpt lat="42.8483828" lon="11.6869247"><ele>750.0</ele><time>2026-04-11T11:31:30.424Z</time></trkpt><trkpt lat="42.8483433" lon="11.6866787"><ele>750.0</ele><time>2026-04-11T11:31:31.426Z</time></trkpt><trkpt lat="42.8482821" lon="11.6864361"><ele>750.0</ele><time>2026-04-11T11:31:32.442Z</time></trkpt><trkpt lat="42.8482067" lon="11.6861993"><ele>753.6666666666666</ele><time>2026-04-11T11:31:33.429Z</time></trkpt><trkpt lat="42.8481065" lon="11.6859723"><ele>757.3333333333333</ele><time>2026-04-11T11:31:34.431Z</time></trkpt><trkpt lat="42.8480144" lon="11.6857543"><ele>761.0</ele><time>2026-04-11T11:31:35.43Z</time></trkpt><trkpt lat="42.8479381" lon="11.6855671"><ele>761.0</ele><time>2026-04-11T11:31:36.427Z</time></trkpt><trkpt lat="42.847882" lon="11.6854392"><ele>761.0</ele><time>2026-04-11T11:31:37.42Z</time></trkpt><trkpt lat="42.8479321" lon="11.6852912"><ele>761.0</ele><time>2026-04-11T11:31:38.425Z</time></trkpt><trkpt lat="42.8480044" lon="11.6851007"><ele>761.0</ele><time>2026-04-11T11:31:39.433Z</time></trkpt><trkpt lat="42.8480603" lon="11.6849285"><ele>761.0</ele><time>2026-04-11T11:31:40.417Z</time></trkpt><trkpt lat="42.8480854" lon="11.6847264"><ele>761.0</ele><time>2026-04-11T11:31:41.422Z</time></trkpt><trkpt lat="42.848116" lon="11.6845087"><ele>761.0</ele><time>2026-04-11T11:31:42.417Z</time></trkpt><trkpt lat="42.8481676" lon="11.6842513"><ele>759.6666666666666</ele><time>2026-04-11T11:31:43.424Z</time></trkpt><trkpt lat="42.8482142" lon="11.6840139"><ele>758.3333333333334</ele><time>2026-04-11T11:31:44.431Z</time></trkpt><trkpt lat="42.8482542" lon="11.6838152"><ele>757.0</ele><time>2026-04-11T11:31:45.435Z</time></trkpt><trkpt lat="42.8482903" lon="11.6836035"><ele>757.0</ele><time>2026-04-11T11:31:46.431Z</time></trkpt><trkpt lat="42.8483332" lon="11.6833668"><ele>757.0</ele><time>2026-04-11T11:31:47.431Z</time></trkpt><trkpt lat="42.8483929" lon="11.6830804"><ele>757.0</ele><time>2026-04-11T11:31:48.423Z</time></trkpt><trkpt lat="42.8484402" lon="11.6828616"><ele>757.0</ele><time>2026-04-11T11:31:49.435Z</time></trkpt><trkpt lat="42.8483982" lon="11.6826724"><ele>757.0</ele><time>2026-04-11T11:31:50.427Z</time></trkpt><trkpt lat="42.8483227" lon="11.6825757"><ele>757.0</ele><time>2026-04-11T11:31:51.431Z</time></trkpt><trkpt lat="42.8482216" lon="11.6824393"><ele>757.0</ele><time>2026-04-11T11:31:52.426Z</time></trkpt><trkpt lat="42.8480829" lon="11.68228"><ele>757.0</ele><time>2026-04-11T11:31:53.423Z</time></trkpt><trkpt lat="42.8479891" lon="11.682085"><ele>757.0</ele><time>2026-04-11T11:31:54.43Z</time></trkpt><trkpt lat="42.8478893" lon="11.6818961"><ele>757.0</ele><time>2026-04-11T11:31:55.435Z</time></trkpt><trkpt lat="42.8478172" lon="11.6817178"><ele>758.75</ele><time>2026-04-11T11:31:56.445Z</time></trkpt><trkpt lat="42.8477659" lon="11.6815488"><ele>760.5</ele><time>2026-04-11T11:31:57.436Z</time></trkpt><trkpt lat="42.8477259" lon="11.6813506"><ele>762.25</ele><time>2026-04-11T11:31:58.44Z</time></trkpt><trkpt lat="42.8476807" lon="11.6811407"><ele>764.0</ele><time>2026-04-11T11:31:59.438Z</time></trkpt><trkpt lat="42.8476112" lon="11.680938"><ele>761.0</ele><time>2026-04-11T11:32:00.444Z</time></trkpt><trkpt lat="42.8475747" lon="11.6807471"><ele>758.0</ele><time>2026-04-11T11:32:01.441Z</time></trkpt><trkpt lat="42.8475592" lon="11.680566"><ele>755.0</ele><time>2026-04-11T11:32:02.439Z</time></trkpt><trkpt lat="42.8475613" lon="11.6803457"><ele>752.0</ele><time>2026-04-11T11:32:03.448Z</time></trkpt><trkpt lat="42.8475596" lon="11.6801193"><ele>752.0</ele><time>2026-04-11T11:32:04.434Z</time></trkpt><trkpt lat="42.8476075" lon="11.6799134"><ele>752.0</ele><time>2026-04-11T11:32:05.44Z</time></trkpt><trkpt lat="42.8476333" lon="11.6797222"><ele>752.0</ele><time>2026-04-11T11:32:06.435Z</time></trkpt><trkpt lat="42.8476411" lon="11.6795768"><ele>752.0</ele><time>2026-04-11T11:32:07.434Z</time></trkpt><trkpt lat="42.8476737" lon="11.6794406"><ele>756.0</ele><time>2026-04-11T11:32:08.454Z</time></trkpt><trkpt lat="42.8476943" lon="11.6792888"><ele>760.0</ele><time>2026-04-11T11:32:09.453Z</time></trkpt><trkpt lat="42.8477088" lon="11.6791295"><ele>764.0</ele><time>2026-04-11T11:32:10.454Z</time></trkpt><trkpt lat="42.8477337" lon="11.6789578"><ele>768.0</ele><time>2026-04-11T11:32:11.44Z</time></trkpt><trkpt lat="42.8477529" lon="11.6787528"><ele>768.0</ele><time>2026-04-11T11:32:12.447Z</time></trkpt><trkpt lat="42.8477764" lon="11.6785385"><ele>768.0</ele><time>2026-04-11T11:32:13.44Z</time></trkpt><trkpt lat="42.8478003" lon="11.6783284"><ele>768.0</ele><time>2026-04-11T11:32:14.439Z</time></trkpt><trkpt lat="42.8478307" lon="11.6781181"><ele>768.0</ele><time>2026-04-11T11:32:15.437Z</time></trkpt><trkpt lat="42.8478578" lon="11.6779168"><ele>768.0</ele><time>2026-04-11T11:32:16.442Z</time></trkpt><trkpt lat="42.8478777" lon="11.6777432"><ele>768.0</ele><time>2026-04-11T11:32:17.444Z</time></trkpt><trkpt lat="42.8479129" lon="11.6775812"><ele>768.0</ele><time>2026-04-11T11:32:18.438Z</time></trkpt><trkpt lat="42.8479329" lon="11.6774174"><ele>767.5</ele><time>2026-04-11T11:32:19.444Z</time></trkpt><trkpt lat="42.8479348" lon="11.6772162"><ele>767.0</ele><time>2026-04-11T11:32:20.449Z</time></trkpt><trkpt lat="42.8479375" lon="11.6770145"><ele>766.5</ele><time>2026-04-11T11:32:21.428Z</time></trkpt><trkpt lat="42.8479502" lon="11.6768401"><ele>766.0</ele><time>2026-04-11T11:32:22.441Z</time></trkpt><trkpt lat="42.8479692" lon="11.676627"><ele>766.0</ele><time>2026-04-11T11:32:23.445Z</time></trkpt><trkpt lat="42.8479663" lon="11.6764171"><ele>766.0</ele><time>2026-04-11T11:32:24.451Z</time></trkpt><trkpt lat="42.847979" lon="11.6762093"><ele>766.0</ele><time>2026-04-11T11:32:25.447Z</time></trkpt><trkpt lat="42.848004" lon="11.6760039"><ele>766.0</ele><time>2026-04-11T11:32:26.44Z</time></trkpt><trkpt lat="42.8480037" lon="11.6758135"><ele>766.0</ele><time>2026-04-11T11:32:27.439Z</time></trkpt><trkpt lat="42.8480087" lon="11.6756345"><ele>766.0</ele><time>2026-04-11T11:32:28.437Z</time></trkpt><trkpt lat="42.8480287" lon="11.6754823"><ele>766.0</ele><time>2026-04-11T11:32:29.436Z</time></trkpt><trkpt lat="42.8480225" lon="11.6752656"><ele>767.5999999999999</ele><time>2026-04-11T11:32:30.428Z</time></trkpt><trkpt lat="42.8479963" lon="11.6750903"><ele>769.2</ele><time>2026-04-11T11:32:31.425Z</time></trkpt><trkpt lat="42.8480068" lon="11.6749756"><ele>770.8</ele><time>2026-04-11T11:32:32.43Z</time></trkpt><trkpt lat="42.8480429" lon="11.6748442"><ele>772.4000000000001</ele><time>2026-04-11T11:32:33.43Z</time></trkpt><trkpt lat="42.8480758" lon="11.6747136"><ele>774.0</ele><time>2026-04-11T11:32:34.441Z</time></trkpt><trkpt lat="42.8480873" lon="11.6746025"><ele>774.0</ele><time>2026-04-11T11:32:35.437Z</time></trkpt><trkpt lat="42.8480961" lon="11.6744855"><ele>774.0</ele><time>2026-04-11T11:32:36.435Z</time></trkpt><trkpt lat="42.8480983" lon="11.6743679"><ele>774.0</ele><time>2026-04-11T11:32:37.431Z</time></trkpt><trkpt lat="42.8480844" lon="11.6742412"><ele>774.0</ele><time>2026-04-11T11:32:38.444Z</time></trkpt><trkpt lat="42.8480616" lon="11.6741218"><ele>774.0</ele><time>2026-04-11T11:32:39.438Z</time></trkpt><trkpt lat="42.8480325" lon="11.6740081"><ele>774.0</ele><time>2026-04-11T11:32:40.443Z</time></trkpt><trkpt lat="42.8480111" lon="11.6738976"><ele>775.3333333333334</ele><time>2026-04-11T11:32:41.459Z</time></trkpt><trkpt lat="42.8479983" lon="11.6737878"><ele>776.6666666666667</ele><time>2026-04-11T11:32:42.449Z</time></trkpt><trkpt lat="42.8479972" lon="11.6736812"><ele>778.0</ele><time>2026-04-11T11:32:43.452Z</time></trkpt><trkpt lat="42.8480235" lon="11.6735748"><ele>779.3333333333334</ele><time>2026-04-11T11:32:44.448Z</time></trkpt><trkpt lat="42.8480706" lon="11.6734785"><ele>780.6666666666667</ele><time>2026-04-11T11:32:45.448Z</time></trkpt><trkpt lat="42.8481559" lon="11.6734157"><ele>782.0</ele><time>2026-04-11T11:32:46.457Z</time></trkpt><trkpt lat="42.8482414" lon="11.673364"><ele>782.4000000000001</ele><time>2026-04-11T11:32:47.446Z</time></trkpt><trkpt lat="42.8483405" lon="11.6733234"><ele>782.8000000000001</ele><time>2026-04-11T11:32:48.446Z</time></trkpt><trkpt lat="42.8484467" lon="11.6732766"><ele>783.2</ele><time>2026-04-11T11:32:49.438Z</time></trkpt><trkpt lat="42.848546" lon="11.6732068"><ele>783.6</ele><time>2026-04-11T11:32:50.445Z</time></trkpt><trkpt lat="42.8486414" lon="11.6731319"><ele>784.0</ele><time>2026-04-11T11:32:51.432Z</time></trkpt><trkpt lat="42.8487291" lon="11.6730521"><ele>787.0</ele><time>2026-04-11T11:32:52.44Z</time></trkpt><trkpt lat="42.8488172" lon="11.6729781"><ele>790.0</ele><time>2026-04-11T11:32:53.436Z</time></trkpt><trkpt lat="42.8488953" lon="11.6728974"><ele>793.0</ele><time>2026-04-11T11:32:54.44Z</time></trkpt><trkpt lat="42.8489686" lon="11.6728103"><ele>796.0</ele><time>2026-04-11T11:32:55.434Z</time></trkpt><trkpt lat="42.8490473" lon="11.6727218"><ele>799.0</ele><time>2026-04-11T11:32:56.442Z</time></trkpt><trkpt lat="42.8491251" lon="11.672627"><ele>799.0</ele><time>2026-04-11T11:32:57.433Z</time></trkpt><trkpt lat="42.8491907" lon="11.6725417"><ele>799.0</ele><time>2026-04-11T11:32:58.441Z</time></trkpt><trkpt lat="42.8492593" lon="11.6724541"><ele>799.0</ele><time>2026-04-11T11:32:59.435Z</time></trkpt><trkpt lat="42.8493238" lon="11.6723715"><ele>799.0</ele><time>2026-04-11T11:33:00.441Z</time></trkpt><trkpt lat="42.8493893" lon="11.6722812"><ele>799.0</ele><time>2026-04-11T11:33:01.44Z</time></trkpt><trkpt lat="42.8494428" lon="11.6721681"><ele>802.8000000000001</ele><time>2026-04-11T11:33:02.44Z</time></trkpt><trkpt lat="42.849473" lon="11.67204"><ele>806.6</ele><time>2026-04-11T11:33:03.432Z</time></trkpt><trkpt lat="42.8494791" lon="11.6718954"><ele>810.4</ele><time>2026-04-11T11:33:04.432Z</time></trkpt><trkpt lat="42.8494707" lon="11.6717569"><ele>814.2</ele><time>2026-04-11T11:33:05.442Z</time></trkpt><trkpt lat="42.849455" lon="11.6716314"><ele>818.0</ele><time>2026-04-11T11:33:06.428Z</time></trkpt><trkpt lat="42.8494529" lon="11.6715295"><ele>818.0</ele><time>2026-04-11T11:33:07.429Z</time></trkpt><trkpt lat="42.8494748" lon="11.6714461"><ele>818.0</ele><time>2026-04-11T11:33:08.425Z</time></trkpt><trkpt lat="42.8495547" lon="11.6714361"><ele>818.0</ele><time>2026-04-11T11:33:10.419Z</time></trkpt><trkpt lat="42.8496218" lon="11.6714894"><ele>818.0</ele><time>2026-04-11T11:33:12.444Z</time></trkpt><trkpt lat="42.8496774" lon="11.6714452"><ele>818.0</ele><time>2026-04-11T11:33:16.444Z</time></trkpt><trkpt lat="42.8497129" lon="11.6713703"><ele>818.0</ele><time>2026-04-11T11:33:19.452Z</time></trkpt><trkpt lat="42.8497726" lon="11.6713242"><ele>818.0</ele><time>2026-04-11T11:33:22.456Z</time></trkpt><trkpt lat="42.849837" lon="11.671308"><ele>818.0</ele><time>2026-04-11T11:33:27.425Z</time></trkpt><trkpt lat="42.8499619" lon="11.6712596"><ele>818.0</ele><time>2026-04-11T11:33:30.404Z</time></trkpt><trkpt lat="42.850069" lon="11.6711279"><ele>818.0</ele><time>2026-04-11T11:33:31.408Z</time></trkpt><trkpt lat="42.850133" lon="11.6709665"><ele>818.0</ele><time>2026-04-11T11:33:32.413Z</time></trkpt><trkpt lat="42.8501516" lon="11.670796"><ele>818.3333333333334</ele><time>2026-04-11T11:33:33.408Z</time></trkpt><trkpt lat="42.8501419" lon="11.6706029"><ele>818.6666666666667</ele><time>2026-04-11T11:33:34.404Z</time></trkpt><trkpt lat="42.8500867" lon="11.6704759"><ele>819.0</ele><time>2026-04-11T11:33:35.402Z</time></trkpt><trkpt lat="42.8499303" lon="11.6702857"><ele>821.0</ele><time>2026-04-11T11:33:36.416Z</time></trkpt><trkpt lat="42.8497239" lon="11.6701524"><ele>823.0</ele><time>2026-04-11T11:33:37.411Z</time></trkpt><trkpt lat="42.8495684" lon="11.6700166"><ele>825.0</ele><time>2026-04-11T11:33:38.414Z</time></trkpt><trkpt lat="42.8494864" lon="11.6698696"><ele>825.0</ele><time>2026-04-11T11:33:39.41Z</time></trkpt><trkpt lat="42.8494748" lon="11.6696897"><ele>825.0</ele><time>2026-04-11T11:33:40.409Z</time></trkpt><trkpt lat="42.8495084" lon="11.6694946"><ele>825.0</ele><time>2026-04-11T11:33:41.408Z</time></trkpt><trkpt lat="42.8495917" lon="11.669262"><ele>825.6666666666667</ele><time>2026-04-11T11:33:42.41Z</time></trkpt><trkpt lat="42.8496564" lon="11.6690224"><ele>826.3333333333334</ele><time>2026-04-11T11:33:43.416Z</time></trkpt><trkpt lat="42.8497378" lon="11.6687943"><ele>827.0</ele><time>2026-04-11T11:33:44.417Z</time></trkpt><trkpt lat="42.849802" lon="11.6685575"><ele>827.0</ele><time>2026-04-11T11:33:45.415Z</time></trkpt><trkpt lat="42.8497876" lon="11.668356"><ele>827.0</ele><time>2026-04-11T11:33:46.418Z</time></trkpt><trkpt lat="42.849756" lon="11.6680949"><ele>827.0</ele><time>2026-04-11T11:33:47.423Z</time></trkpt><trkpt lat="42.8496681" lon="11.6679051"><ele>827.3333333333334</ele><time>2026-04-11T11:33:48.414Z</time></trkpt><trkpt lat="42.8495422" lon="11.6677146"><ele>827.6666666666667</ele><time>2026-04-11T11:33:49.425Z</time></trkpt><trkpt lat="42.8494683" lon="11.6674744"><ele>828.0</ele><time>2026-04-11T11:33:50.44Z</time></trkpt><trkpt lat="42.8494072" lon="11.6672095"><ele>828.0</ele><time>2026-04-11T11:33:51.437Z</time></trkpt><trkpt lat="42.8493452" lon="11.6669848"><ele>828.0</ele><time>2026-04-11T11:33:52.429Z</time></trkpt><trkpt lat="42.8492676" lon="11.6668006"><ele>828.0</ele><time>2026-04-11T11:33:53.432Z</time></trkpt><trkpt lat="42.8492289" lon="11.6666085"><ele>825.0</ele><time>2026-04-11T11:33:54.429Z</time></trkpt><trkpt lat="42.8492355" lon="11.6664289"><ele>822.0</ele><time>2026-04-11T11:33:55.428Z</time></trkpt><trkpt lat="42.8492715" lon="11.6662085"><ele>819.0</ele><time>2026-04-11T11:33:56.441Z</time></trkpt><trkpt lat="42.8493647" lon="11.6660242"><ele>819.0</ele><time>2026-04-11T11:33:57.43Z</time></trkpt><trkpt lat="42.8493997" lon="11.6658331"><ele>819.0</ele><time>2026-04-11T11:33:58.424Z</time></trkpt><trkpt lat="42.8493428" lon="11.6656223"><ele>819.0</ele><time>2026-04-11T11:33:59.423Z</time></trkpt><trkpt lat="42.8492272" lon="11.6654379"><ele>819.3333333333333</ele><time>2026-04-11T11:34:00.421Z</time></trkpt><trkpt lat="42.8490899" lon="11.6652653"><ele>819.6666666666666</ele><time>2026-04-11T11:34:01.407Z</time></trkpt><trkpt lat="42.8489772" lon="11.6651194"><ele>820.0</ele><time>2026-04-11T11:34:02.425Z</time></trkpt><trkpt lat="42.8488545" lon="11.6649672"><ele>820.0</ele><time>2026-04-11T11:34:03.41Z</time></trkpt><trkpt lat="42.8487413" lon="11.664817"><ele>820.0</ele><time>2026-04-11T11:34:04.413Z</time></trkpt><trkpt lat="42.848591" lon="11.6646695"><ele>820.0</ele><time>2026-04-11T11:34:05.415Z</time></trkpt><trkpt lat="42.8484554" lon="11.6644817"><ele>820.6666666666666</ele><time>2026-04-11T11:34:06.426Z</time></trkpt><trkpt lat="42.8483145" lon="11.6643311"><ele>821.3333333333333</ele><time>2026-04-11T11:34:07.431Z</time></trkpt><trkpt lat="42.8482165" lon="11.6641918"><ele>822.0</ele><time>2026-04-11T11:34:08.427Z</time></trkpt><trkpt lat="42.8480186" lon="11.6640939"><ele>822.0</ele><time>2026-04-11T11:34:09.419Z</time></trkpt><trkpt lat="42.8478514" lon="11.6640748"><ele>822.0</ele><time>2026-04-11T11:34:10.424Z</time></trkpt><trkpt lat="42.8476757" lon="11.6640308"><ele>822.0</ele><time>2026-04-11T11:34:11.416Z</time></trkpt><trkpt lat="42.8475019" lon="11.6640074"><ele>818.0</ele><time>2026-04-11T11:34:12.42Z</time></trkpt><trkpt lat="42.8473875" lon="11.6639423"><ele>814.0</ele><time>2026-04-11T11:34:13.409Z</time></trkpt><trkpt lat="42.847248" lon="11.6638434"><ele>810.0</ele><time>2026-04-11T11:34:14.423Z</time></trkpt><trkpt lat="42.8471193" lon="11.6637115"><ele>806.0</ele><time>2026-04-11T11:34:15.427Z</time></trkpt><trkpt lat="42.8469689" lon="11.6636066"><ele>806.6666666666667</ele><time>2026-04-11T11:34:16.423Z</time></trkpt><trkpt lat="42.8468416" lon="11.6635315"><ele>807.3333333333333</ele><time>2026-04-11T11:34:17.412Z</time></trkpt><trkpt lat="42.8466687" lon="11.6636428"><ele>808.0</ele><time>2026-04-11T11:34:18.408Z</time></trkpt><trkpt lat="42.8465388" lon="11.6637015"><ele>808.0</ele><time>2026-04-11T11:34:19.404Z</time></trkpt><trkpt lat="42.8463873" lon="11.6638314"><ele>808.0</ele><time>2026-04-11T11:34:20.411Z</time></trkpt><trkpt lat="42.8462566" lon="11.6639607"><ele>808.0</ele><time>2026-04-11T11:34:21.41Z</time></trkpt><trkpt lat="42.8461653" lon="11.6640679"><ele>808.0</ele><time>2026-04-11T11:34:22.42Z</time></trkpt><trkpt lat="42.8460429" lon="11.6640162"><ele>808.0</ele><time>2026-04-11T11:34:23.415Z</time></trkpt><trkpt lat="42.8459419" lon="11.6638379"><ele>808.0</ele><time>2026-04-11T11:34:24.413Z</time></trkpt><trkpt lat="42.8458259" lon="11.6637074"><ele>808.0</ele><time>2026-04-11T11:34:25.413Z</time></trkpt><trkpt lat="42.8456702" lon="11.663578"><ele>812.0</ele><time>2026-04-11T11:34:26.416Z</time></trkpt><trkpt lat="42.8455438" lon="11.6635692"><ele>816.0</ele><time>2026-04-11T11:34:27.414Z</time></trkpt><trkpt lat="42.8454052" lon="11.6635304"><ele>820.0</ele><time>2026-04-11T11:34:28.424Z</time></trkpt><trkpt lat="42.8452253" lon="11.6634774"><ele>817.25</ele><time>2026-04-11T11:34:29.413Z</time></trkpt><trkpt lat="42.8450778" lon="11.6634089"><ele>814.5</ele><time>2026-04-11T11:34:30.414Z</time></trkpt><trkpt lat="42.844978" lon="11.6632751"><ele>811.75</ele><time>2026-04-11T11:34:31.402Z</time></trkpt><trkpt lat="42.8449467" lon="11.6631006"><ele>809.0</ele><time>2026-04-11T11:34:32.412Z</time></trkpt><trkpt lat="42.8448993" lon="11.662914"><ele>811.0</ele><time>2026-04-11T11:34:33.403Z</time></trkpt><trkpt lat="42.8449049" lon="11.6627194"><ele>813.0</ele><time>2026-04-11T11:34:34.404Z</time></trkpt><trkpt lat="42.8449297" lon="11.6625198"><ele>815.0</ele><time>2026-04-11T11:34:35.407Z</time></trkpt><trkpt lat="42.8449327" lon="11.6622886"><ele>815.0</ele><time>2026-04-11T11:34:36.423Z</time></trkpt><trkpt lat="42.8449235" lon="11.6620096"><ele>815.0</ele><time>2026-04-11T11:34:37.415Z</time></trkpt><trkpt lat="42.844912" lon="11.6617428"><ele>815.0</ele><time>2026-04-11T11:34:38.434Z</time></trkpt><trkpt lat="42.844891" lon="11.6614704"><ele>816.5</ele><time>2026-04-11T11:34:39.423Z</time></trkpt><trkpt lat="42.8448562" lon="11.6612699"><ele>818.0</ele><time>2026-04-11T11:34:40.427Z</time></trkpt><trkpt lat="42.8448137" lon="11.661104"><ele>819.5</ele><time>2026-04-11T11:34:41.422Z</time></trkpt><trkpt lat="42.8447968" lon="11.6608862"><ele>821.0</ele><time>2026-04-11T11:34:42.416Z</time></trkpt><trkpt lat="42.8448219" lon="11.6606555"><ele>822.6666666666667</ele><time>2026-04-11T11:34:43.416Z</time></trkpt><trkpt lat="42.8448345" lon="11.6604382"><ele>824.3333333333333</ele><time>2026-04-11T11:34:44.417Z</time></trkpt><trkpt lat="42.8449039" lon="11.6601968"><ele>826.0</ele><time>2026-04-11T11:34:45.422Z</time></trkpt><trkpt lat="42.844957" lon="11.6599884"><ele>829.0</ele><time>2026-04-11T11:34:46.411Z</time></trkpt><trkpt lat="42.8449548" lon="11.6597378"><ele>832.0</ele><time>2026-04-11T11:34:47.401Z</time></trkpt><trkpt lat="42.8450258" lon="11.659546"><ele>835.0</ele><time>2026-04-11T11:34:48.392Z</time></trkpt><trkpt lat="42.8450296" lon="11.659367"><ele>840.75</ele><time>2026-04-11T11:34:49.393Z</time></trkpt><trkpt lat="42.8449664" lon="11.6592544"><ele>846.5</ele><time>2026-04-11T11:34:50.387Z</time></trkpt><trkpt lat="42.8448415" lon="11.6591709"><ele>852.25</ele><time>2026-04-11T11:34:51.381Z</time></trkpt><trkpt lat="42.8447561" lon="11.6590823"><ele>858.0</ele><time>2026-04-11T11:34:52.382Z</time></trkpt><trkpt lat="42.8445819" lon="11.6589186"><ele>858.0</ele><time>2026-04-11T11:34:53.379Z</time></trkpt><trkpt lat="42.8443808" lon="11.6587701"><ele>858.0</ele><time>2026-04-11T11:34:54.397Z</time></trkpt><trkpt lat="42.8442366" lon="11.6585804"><ele>858.0</ele><time>2026-04-11T11:34:55.396Z</time></trkpt><trkpt lat="42.8440901" lon="11.6583847"><ele>854.0</ele><time>2026-04-11T11:34:56.406Z</time></trkpt><trkpt lat="42.8439096" lon="11.6582071"><ele>850.0</ele><time>2026-04-11T11:34:57.409Z</time></trkpt><trkpt lat="42.8437574" lon="11.6580384"><ele>846.0</ele><time>2026-04-11T11:34:58.4Z</time></trkpt><trkpt lat="42.8436711" lon="11.6578758"><ele>837.3333333333333</ele><time>2026-04-11T11:34:59.401Z</time></trkpt><trkpt lat="42.843546" lon="11.657725"><ele>828.6666666666666</ele><time>2026-04-11T11:35:00.403Z</time></trkpt><trkpt lat="42.8434675" lon="11.6575574"><ele>820.0</ele><time>2026-04-11T11:35:01.417Z</time></trkpt><trkpt lat="42.8434212" lon="11.6573518"><ele>820.0</ele><time>2026-04-11T11:35:02.421Z</time></trkpt><trkpt lat="42.8433116" lon="11.6571811"><ele>820.0</ele><time>2026-04-11T11:35:03.415Z</time></trkpt><trkpt lat="42.8431705" lon="11.6570299"><ele>820.0</ele><time>2026-04-11T11:35:04.424Z</time></trkpt><trkpt lat="42.8430361" lon="11.656852"><ele>828.6666666666666</ele><time>2026-04-11T11:35:05.424Z</time></trkpt><trkpt lat="42.8429239" lon="11.6566791"><ele>837.3333333333333</ele><time>2026-04-11T11:35:06.441Z</time></trkpt><trkpt lat="42.8427901" lon="11.6565377"><ele>846.0</ele><time>2026-04-11T11:35:07.416Z</time></trkpt><trkpt lat="42.8426478" lon="11.656487"><ele>837.25</ele><time>2026-04-11T11:35:08.435Z</time></trkpt><trkpt lat="42.8425026" lon="11.6564607"><ele>828.5</ele><time>2026-04-11T11:35:09.428Z</time></trkpt><trkpt lat="42.8423456" lon="11.6564794"><ele>819.75</ele><time>2026-04-11T11:35:10.43Z</time></trkpt><trkpt lat="42.8422367" lon="11.6563979"><ele>811.0</ele><time>2026-04-11T11:35:11.433Z</time></trkpt><trkpt lat="42.8421215" lon="11.6563265"><ele>811.0</ele><time>2026-04-11T11:35:12.443Z</time></trkpt><trkpt lat="42.8420365" lon="11.6562308"><ele>811.0</ele><time>2026-04-11T11:35:13.432Z</time></trkpt><trkpt lat="42.8418946" lon="11.6561655"><ele>811.0</ele><time>2026-04-11T11:35:14.43Z</time></trkpt><trkpt lat="42.8417472" lon="11.6561431"><ele>811.0</ele><time>2026-04-11T11:35:15.431Z</time></trkpt><trkpt lat="42.841616" lon="11.6561927"><ele>810.0</ele><time>2026-04-11T11:35:16.45Z</time></trkpt><trkpt lat="42.8414911" lon="11.6562562"><ele>809.0</ele><time>2026-04-11T11:35:17.438Z</time></trkpt><trkpt lat="42.8413677" lon="11.6563303"><ele>808.0</ele><time>2026-04-11T11:35:18.434Z</time></trkpt><trkpt lat="42.8412527" lon="11.6564114"><ele>807.0</ele><time>2026-04-11T11:35:19.425Z</time></trkpt><trkpt lat="42.8411346" lon="11.6565052"><ele>807.0</ele><time>2026-04-11T11:35:20.435Z</time></trkpt><trkpt lat="42.841029" lon="11.6565872"><ele>807.0</ele><time>2026-04-11T11:35:21.429Z</time></trkpt><trkpt lat="42.8409355" lon="11.6566401"><ele>807.0</ele><time>2026-04-11T11:35:22.43Z</time></trkpt><trkpt lat="42.8408386" lon="11.6565921"><ele>807.0</ele><time>2026-04-11T11:35:23.427Z</time></trkpt><trkpt lat="42.8407424" lon="11.6565473"><ele>807.0</ele><time>2026-04-11T11:35:24.429Z</time></trkpt><trkpt lat="42.8406608" lon="11.6564322"><ele>808.25</ele><time>2026-04-11T11:35:25.423Z</time></trkpt><trkpt lat="42.8405729" lon="11.6562958"><ele>809.5</ele><time>2026-04-11T11:35:26.426Z</time></trkpt><trkpt lat="42.8404899" lon="11.6561426"><ele>810.75</ele><time>2026-04-11T11:35:27.409Z</time></trkpt><trkpt lat="42.8403724" lon="11.6560064"><ele>812.0</ele><time>2026-04-11T11:35:28.428Z</time></trkpt><trkpt lat="42.8402359" lon="11.6559585"><ele>816.3333333333334</ele><time>2026-04-11T11:35:29.431Z</time></trkpt><trkpt lat="42.8400841" lon="11.6559604"><ele>820.6666666666667</ele><time>2026-04-11T11:35:30.434Z</time></trkpt><trkpt lat="42.8399372" lon="11.6560022"><ele>825.0</ele><time>2026-04-11T11:35:31.436Z</time></trkpt><trkpt lat="42.8397874" lon="11.656048"><ele>825.0</ele><time>2026-04-11T11:35:32.433Z</time></trkpt><trkpt lat="42.8396434" lon="11.6560297"><ele>825.0</ele><time>2026-04-11T11:35:33.441Z</time></trkpt><trkpt lat="42.8394974" lon="11.6559561"><ele>825.0</ele><time>2026-04-11T11:35:34.434Z</time></trkpt><trkpt lat="42.8393778" lon="11.6559127"><ele>825.0</ele><time>2026-04-11T11:35:35.444Z</time></trkpt><trkpt lat="42.8392265" lon="11.6558562"><ele>823.5</ele><time>2026-04-11T11:35:36.438Z</time></trkpt><trkpt lat="42.8390853" lon="11.6557819"><ele>822.0</ele><time>2026-04-11T11:35:37.43Z</time></trkpt><trkpt lat="42.8389572" lon="11.6556772"><ele>820.5</ele><time>2026-04-11T11:35:38.43Z</time></trkpt><trkpt lat="42.8388478" lon="11.655594"><ele>819.0</ele><time>2026-04-11T11:35:39.443Z</time></trkpt><trkpt lat="42.8387301" lon="11.6555037"><ele>819.0</ele><time>2026-04-11T11:35:40.441Z</time></trkpt><trkpt lat="42.8386055" lon="11.6554282"><ele>819.0</ele><time>2026-04-11T11:35:41.43Z</time></trkpt><trkpt lat="42.8384834" lon="11.655384"><ele>819.0</ele><time>2026-04-11T11:35:42.436Z</time></trkpt><trkpt lat="42.8383687" lon="11.6554191"><ele>819.0</ele><time>2026-04-11T11:35:43.43Z</time></trkpt><trkpt lat="42.8382626" lon="11.6554848"><ele>820.4000000000001</ele><time>2026-04-11T11:35:44.432Z</time></trkpt><trkpt lat="42.838187" lon="11.655552"><ele>821.8</ele><time>2026-04-11T11:35:45.434Z</time></trkpt><trkpt lat="42.8381183" lon="11.6556872"><ele>823.2</ele><time>2026-04-11T11:35:46.424Z</time></trkpt><trkpt lat="42.838056" lon="11.6558276"><ele>824.5999999999999</ele><time>2026-04-11T11:35:47.425Z</time></trkpt><trkpt lat="42.8379785" lon="11.6559306"><ele>826.0</ele><time>2026-04-11T11:35:48.428Z</time></trkpt><trkpt lat="42.8378879" lon="11.6560022"><ele>826.0</ele><time>2026-04-11T11:35:49.436Z</time></trkpt><trkpt lat="42.8378043" lon="11.6560261"><ele>826.0</ele><time>2026-04-11T11:35:50.427Z</time></trkpt><trkpt lat="42.8377033" lon="11.6559612"><ele>826.0</ele><time>2026-04-11T11:35:51.436Z</time></trkpt><trkpt lat="42.8375833" lon="11.6559083"><ele>826.0</ele><time>2026-04-11T11:35:52.425Z</time></trkpt><trkpt lat="42.8374445" lon="11.6558796"><ele>829.0</ele><time>2026-04-11T11:35:53.424Z</time></trkpt><trkpt lat="42.8372863" lon="11.6558949"><ele>832.0</ele><time>2026-04-11T11:35:54.423Z</time></trkpt><trkpt lat="42.8371358" lon="11.6559359"><ele>835.0</ele><time>2026-04-11T11:35:55.421Z</time></trkpt><trkpt lat="42.8369529" lon="11.6559825"><ele>834.0</ele><time>2026-04-11T11:35:56.422Z</time></trkpt><trkpt lat="42.8368006" lon="11.6559679"><ele>833.0</ele><time>2026-04-11T11:35:57.426Z</time></trkpt><trkpt lat="42.8366572" lon="11.6559295"><ele>832.0</ele><time>2026-04-11T11:35:58.422Z</time></trkpt><trkpt lat="42.8365614" lon="11.6558174"><ele>831.0</ele><time>2026-04-11T11:35:59.425Z</time></trkpt><trkpt lat="42.8364676" lon="11.6556955"><ele>831.0</ele><time>2026-04-11T11:36:00.428Z</time></trkpt><trkpt lat="42.836302" lon="11.655572"><ele>831.0</ele><time>2026-04-11T11:36:01.433Z</time></trkpt><trkpt lat="42.8361705" lon="11.6554938"><ele>831.0</ele><time>2026-04-11T11:36:02.441Z</time></trkpt><trkpt lat="42.836057" lon="11.655426"><ele>829.0</ele><time>2026-04-11T11:36:03.433Z</time></trkpt><trkpt lat="42.8359574" lon="11.6553612"><ele>827.0</ele><time>2026-04-11T11:36:04.437Z</time></trkpt><trkpt lat="42.8358496" lon="11.6553131"><ele>825.0</ele><time>2026-04-11T11:36:05.437Z</time></trkpt><trkpt lat="42.8357277" lon="11.6552624"><ele>823.0</ele><time>2026-04-11T11:36:06.433Z</time></trkpt><trkpt lat="42.8356187" lon="11.6552019"><ele>826.4</ele><time>2026-04-11T11:36:07.433Z</time></trkpt><trkpt lat="42.8355091" lon="11.6551547"><ele>829.8</ele><time>2026-04-11T11:36:08.429Z</time></trkpt><trkpt lat="42.835402" lon="11.6551081"><ele>833.2</ele><time>2026-04-11T11:36:09.436Z</time></trkpt><trkpt lat="42.8353109" lon="11.6550713"><ele>836.6</ele><time>2026-04-11T11:36:10.443Z</time></trkpt><trkpt lat="42.8352217" lon="11.6550336"><ele>840.0</ele><time>2026-04-11T11:36:11.433Z</time></trkpt><trkpt lat="42.8351376" lon="11.6549988"><ele>838.1666666666666</ele><time>2026-04-11T11:36:12.447Z</time></trkpt><trkpt lat="42.8350645" lon="11.654969"><ele>836.3333333333333</ele><time>2026-04-11T11:36:13.443Z</time></trkpt><trkpt lat="42.8349929" lon="11.6549338"><ele>834.5</ele><time>2026-04-11T11:36:14.447Z</time></trkpt><trkpt lat="42.8349293" lon="11.6548897"><ele>832.6666666666666</ele><time>2026-04-11T11:36:15.437Z</time></trkpt><trkpt lat="42.8348737" lon="11.6548302"><ele>830.8333333333333</ele><time>2026-04-11T11:36:16.445Z</time></trkpt><trkpt lat="42.8348336" lon="11.6547132"><ele>829.0</ele><time>2026-04-11T11:36:17.467Z</time></trkpt><trkpt lat="42.8348077" lon="11.6545849"><ele>830.8000000000001</ele><time>2026-04-11T11:36:18.459Z</time></trkpt><trkpt lat="42.8348011" lon="11.6544449"><ele>832.6</ele><time>2026-04-11T11:36:19.461Z</time></trkpt><trkpt lat="42.8347993" lon="11.6543077"><ele>834.4</ele><time>2026-04-11T11:36:20.46Z</time></trkpt><trkpt lat="42.8348042" lon="11.6541679"><ele>836.2</ele><time>2026-04-11T11:36:21.459Z</time></trkpt><trkpt lat="42.8348015" lon="11.6540443"><ele>838.0</ele><time>2026-04-11T11:36:22.458Z</time></trkpt><trkpt lat="42.834789" lon="11.6539175"><ele>838.0</ele><time>2026-04-11T11:36:23.459Z</time></trkpt><trkpt lat="42.8347629" lon="11.6537884"><ele>838.0</ele><time>2026-04-11T11:36:24.457Z</time></trkpt><trkpt lat="42.8347303" lon="11.6536667"><ele>838.0</ele><time>2026-04-11T11:36:25.465Z</time></trkpt><trkpt lat="42.8347082" lon="11.6535359"><ele>838.0</ele><time>2026-04-11T11:36:26.454Z</time></trkpt><trkpt lat="42.8347095" lon="11.6533958"><ele>838.0</ele><time>2026-04-11T11:36:27.444Z</time></trkpt><trkpt lat="42.8347496" lon="11.6532599"><ele>838.2</ele><time>2026-04-11T11:36:28.445Z</time></trkpt><trkpt lat="42.8348033" lon="11.6531222"><ele>838.4</ele><time>2026-04-11T11:36:29.444Z</time></trkpt><trkpt lat="42.8348662" lon="11.6529883"><ele>838.6</ele><time>2026-04-11T11:36:30.458Z</time></trkpt><trkpt lat="42.8349472" lon="11.652888"><ele>838.8000000000001</ele><time>2026-04-11T11:36:31.441Z</time></trkpt><trkpt lat="42.8350336" lon="11.6528048"><ele>839.0</ele><time>2026-04-11T11:36:32.446Z</time></trkpt><trkpt lat="42.8351225" lon="11.6527119"><ele>845.25</ele><time>2026-04-11T11:36:33.442Z</time></trkpt><trkpt lat="42.8352117" lon="11.6526059"><ele>851.5</ele><time>2026-04-11T11:36:34.444Z</time></trkpt><trkpt lat="42.8352975" lon="11.6524922"><ele>857.75</ele><time>2026-04-11T11:36:35.432Z</time></trkpt><trkpt lat="42.835363" lon="11.6523689"><ele>864.0</ele><time>2026-04-11T11:36:36.425Z</time></trkpt><trkpt lat="42.8353932" lon="11.652205"><ele>864.0</ele><time>2026-04-11T11:36:37.444Z</time></trkpt><trkpt lat="42.8354087" lon="11.6520358"><ele>864.0</ele><time>2026-04-11T11:36:38.44Z</time></trkpt><trkpt lat="42.8354033" lon="11.6518423"><ele>864.0</ele><time>2026-04-11T11:36:39.45Z</time></trkpt><trkpt lat="42.8354042" lon="11.6516626"><ele>864.0</ele><time>2026-04-11T11:36:40.456Z</time></trkpt><trkpt lat="42.8354026" lon="11.6514781"><ele>865.6666666666667</ele><time>2026-04-11T11:36:41.45Z</time></trkpt><trkpt lat="42.8353846" lon="11.6512843"><ele>867.3333333333334</ele><time>2026-04-11T11:36:42.429Z</time></trkpt><trkpt lat="42.8353409" lon="11.6511008"><ele>869.0</ele><time>2026-04-11T11:36:43.426Z</time></trkpt><trkpt lat="42.8352608" lon="11.6508956"><ele>872.25</ele><time>2026-04-11T11:36:44.428Z</time></trkpt><trkpt lat="42.8351758" lon="11.6507688"><ele>875.5</ele><time>2026-04-11T11:36:45.429Z</time></trkpt><trkpt lat="42.8351395" lon="11.6506148"><ele>878.75</ele><time>2026-04-11T11:36:46.427Z</time></trkpt><trkpt lat="42.8351191" lon="11.6504607"><ele>882.0</ele><time>2026-04-11T11:36:47.445Z</time></trkpt><trkpt lat="42.8351433" lon="11.6503263"><ele>877.0</ele><time>2026-04-11T11:36:48.436Z</time></trkpt><trkpt lat="42.8350977" lon="11.6501943"><ele>872.0</ele><time>2026-04-11T11:36:49.439Z</time></trkpt><trkpt lat="42.835057" lon="11.6500584"><ele>867.0</ele><time>2026-04-11T11:36:50.448Z</time></trkpt><trkpt lat="42.8349391" lon="11.6499466"><ele>862.0</ele><time>2026-04-11T11:36:51.415Z</time></trkpt><trkpt lat="42.8348448" lon="11.649855"><ele>862.0</ele><time>2026-04-11T11:36:52.431Z</time></trkpt><trkpt lat="42.8346995" lon="11.6497961"><ele>862.0</ele><time>2026-04-11T11:36:53.436Z</time></trkpt><trkpt lat="42.8345684" lon="11.6497369"><ele>862.0</ele><time>2026-04-11T11:36:54.438Z</time></trkpt><trkpt lat="42.8344482" lon="11.6496649"><ele>862.0</ele><time>2026-04-11T11:36:55.446Z</time></trkpt><trkpt lat="42.8343342" lon="11.6495738"><ele>862.5</ele><time>2026-04-11T11:36:56.455Z</time></trkpt><trkpt lat="42.8342188" lon="11.6494816"><ele>863.0</ele><time>2026-04-11T11:36:57.446Z</time></trkpt><trkpt lat="42.8341081" lon="11.6493888"><ele>863.5</ele><time>2026-04-11T11:36:58.45Z</time></trkpt><trkpt lat="42.8339863" lon="11.6492906"><ele>864.0</ele><time>2026-04-11T11:36:59.444Z</time></trkpt><trkpt lat="42.8338719" lon="11.6491921"><ele>864.0</ele><time>2026-04-11T11:37:00.462Z</time></trkpt><trkpt lat="42.8337544" lon="11.6490916"><ele>864.0</ele><time>2026-04-11T11:37:01.446Z</time></trkpt><trkpt lat="42.8336458" lon="11.6489857"><ele>864.0</ele><time>2026-04-11T11:37:02.45Z</time></trkpt><trkpt lat="42.8335428" lon="11.6488867"><ele>864.0</ele><time>2026-04-11T11:37:03.441Z</time></trkpt><trkpt lat="42.8334469" lon="11.6488075"><ele>864.75</ele><time>2026-04-11T11:37:04.451Z</time></trkpt><trkpt lat="42.8333525" lon="11.6487031"><ele>865.5</ele><time>2026-04-11T11:37:05.441Z</time></trkpt><trkpt lat="42.8332685" lon="11.6485828"><ele>866.25</ele><time>2026-04-11T11:37:06.447Z</time></trkpt><trkpt lat="42.8331973" lon="11.6484548"><ele>867.0</ele><time>2026-04-11T11:37:07.452Z</time></trkpt><trkpt lat="42.8331387" lon="11.6483104"><ele>867.0</ele><time>2026-04-11T11:37:08.441Z</time></trkpt><trkpt lat="42.8331047" lon="11.6481601"><ele>867.0</ele><time>2026-04-11T11:37:09.438Z</time></trkpt><trkpt lat="42.8330968" lon="11.6479925"><ele>867.0</ele><time>2026-04-11T11:37:10.452Z</time></trkpt><trkpt lat="42.8331219" lon="11.6478197"><ele>867.0</ele><time>2026-04-11T11:37:11.449Z</time></trkpt><trkpt lat="42.8331492" lon="11.6476428"><ele>869.5</ele><time>2026-04-11T11:37:12.457Z</time></trkpt><trkpt lat="42.8331608" lon="11.6474664"><ele>872.0</ele><time>2026-04-11T11:37:13.45Z</time></trkpt><trkpt lat="42.8331622" lon="11.6472928"><ele>874.5</ele><time>2026-04-11T11:37:14.446Z</time></trkpt><trkpt lat="42.8331433" lon="11.6471285"><ele>877.0</ele><time>2026-04-11T11:37:15.441Z</time></trkpt><trkpt lat="42.8331152" lon="11.6469602"><ele>878.75</ele><time>2026-04-11T11:37:16.437Z</time></trkpt><trkpt lat="42.8330672" lon="11.6467919"><ele>880.5</ele><time>2026-04-11T11:37:17.442Z</time></trkpt><trkpt lat="42.8330064" lon="11.6466344"><ele>882.25</ele><time>2026-04-11T11:37:18.447Z</time></trkpt><trkpt lat="42.8329346" lon="11.6464646"><ele>884.0</ele><time>2026-04-11T11:37:19.458Z</time></trkpt><trkpt lat="42.8328588" lon="11.6462864"><ele>886.5</ele><time>2026-04-11T11:37:20.453Z</time></trkpt><trkpt lat="42.8327982" lon="11.6461112"><ele>889.0</ele><time>2026-04-11T11:37:21.451Z</time></trkpt><trkpt lat="42.8327885" lon="11.6459149"><ele>891.5</ele><time>2026-04-11T11:37:22.442Z</time></trkpt><trkpt lat="42.8328278" lon="11.6457173"><ele>894.0</ele><time>2026-04-11T11:37:23.442Z</time></trkpt><trkpt lat="42.832871" lon="11.6455075"><ele>894.0</ele><time>2026-04-11T11:37:24.454Z</time></trkpt><trkpt lat="42.8329081" lon="11.645305"><ele>894.0</ele><time>2026-04-11T11:37:25.455Z</time></trkpt><trkpt lat="42.8329478" lon="11.6451076"><ele>894.0</ele><time>2026-04-11T11:37:26.452Z</time></trkpt><trkpt lat="42.8329522" lon="11.6449052"><ele>893.25</ele><time>2026-04-11T11:37:27.458Z</time></trkpt><trkpt lat="42.8329523" lon="11.6447352"><ele>892.5</ele><time>2026-04-11T11:37:28.454Z</time></trkpt><trkpt lat="42.8329339" lon="11.6445283"><ele>891.75</ele><time>2026-04-11T11:37:29.442Z</time></trkpt><trkpt lat="42.8329803" lon="11.644369"><ele>891.0</ele><time>2026-04-11T11:37:30.436Z</time></trkpt><trkpt lat="42.8331287" lon="11.6443647"><ele>889.25</ele><time>2026-04-11T11:37:31.443Z</time></trkpt><trkpt lat="42.8332958" lon="11.6443398"><ele>887.5</ele><time>2026-04-11T11:37:32.436Z</time></trkpt><trkpt lat="42.8334458" lon="11.6443388"><ele>885.75</ele><time>2026-04-11T11:37:33.43Z</time></trkpt><trkpt lat="42.8335716" lon="11.6443421"><ele>884.0</ele><time>2026-04-11T11:37:34.417Z</time></trkpt><trkpt lat="42.8337097" lon="11.6444646"><ele>888.75</ele><time>2026-04-11T11:37:35.414Z</time></trkpt><trkpt lat="42.8338245" lon="11.6445942"><ele>893.5</ele><time>2026-04-11T11:37:36.422Z</time></trkpt><trkpt lat="42.8339416" lon="11.6447132"><ele>898.25</ele><time>2026-04-11T11:37:37.419Z</time></trkpt><trkpt lat="42.8340539" lon="11.644827"><ele>903.0</ele><time>2026-04-11T11:37:38.418Z</time></trkpt><trkpt lat="42.834175" lon="11.6449199"><ele>903.0</ele><time>2026-04-11T11:37:39.42Z</time></trkpt><trkpt lat="42.8342932" lon="11.6450124"><ele>903.0</ele><time>2026-04-11T11:37:40.416Z</time></trkpt><trkpt lat="42.834401" lon="11.6450983"><ele>903.0</ele><time>2026-04-11T11:37:41.407Z</time></trkpt><trkpt lat="42.8345274" lon="11.6451906"><ele>903.0</ele><time>2026-04-11T11:37:42.405Z</time></trkpt><trkpt lat="42.8346408" lon="11.645247"><ele>904.8</ele><time>2026-04-11T11:37:43.409Z</time></trkpt><trkpt lat="42.8347376" lon="11.6452507"><ele>906.5999999999999</ele><time>2026-04-11T11:37:44.406Z</time></trkpt><trkpt lat="42.8347397" lon="11.6451425"><ele>908.4000000000001</ele><time>2026-04-11T11:37:45.41Z</time></trkpt><trkpt lat="42.8347439" lon="11.6450521"><ele>910.2</ele><time>2026-04-11T11:37:46.411Z</time></trkpt><trkpt lat="42.8347482" lon="11.6449128"><ele>912.0</ele><time>2026-04-11T11:37:47.417Z</time></trkpt><trkpt lat="42.8347495" lon="11.6447231"><ele>912.0</ele><time>2026-04-11T11:37:48.412Z</time></trkpt><trkpt lat="42.8347855" lon="11.6445949"><ele>912.0</ele><time>2026-04-11T11:37:49.418Z</time></trkpt><trkpt lat="42.8348574" lon="11.6445061"><ele>912.0</ele><time>2026-04-11T11:37:50.426Z</time></trkpt><trkpt lat="42.8349341" lon="11.6444477"><ele>912.0</ele><time>2026-04-11T11:37:51.417Z</time></trkpt><trkpt lat="42.8350091" lon="11.6443811"><ele>912.0</ele><time>2026-04-11T11:37:52.41Z</time></trkpt><trkpt lat="42.8350719" lon="11.6442976"><ele>912.0</ele><time>2026-04-11T11:37:53.419Z</time></trkpt><trkpt lat="42.8350927" lon="11.6441983"><ele>912.0</ele><time>2026-04-11T11:37:54.423Z</time></trkpt><trkpt lat="42.8350777" lon="11.6440962"><ele>912.0</ele><time>2026-04-11T11:37:55.417Z</time></trkpt><trkpt lat="42.8350292" lon="11.644"><ele>912.0</ele><time>2026-04-11T11:37:56.42Z</time></trkpt><trkpt lat="42.8349627" lon="11.6438706"><ele>912.0</ele><time>2026-04-11T11:37:57.427Z</time></trkpt><trkpt lat="42.8349008" lon="11.643756"><ele>912.0</ele><time>2026-04-11T11:37:58.426Z</time></trkpt><trkpt lat="42.8348713" lon="11.643648"><ele>912.0</ele><time>2026-04-11T11:37:59.426Z</time></trkpt><trkpt lat="42.8348618" lon="11.6435098"><ele>912.0</ele><time>2026-04-11T11:38:00.424Z</time></trkpt><trkpt lat="42.8349137" lon="11.6433487"><ele>912.0</ele><time>2026-04-11T11:38:01.421Z</time></trkpt><trkpt lat="42.8349773" lon="11.6431765"><ele>913.6666666666667</ele><time>2026-04-11T11:38:02.418Z</time></trkpt><trkpt lat="42.8350496" lon="11.6430013"><ele>915.3333333333334</ele><time>2026-04-11T11:38:03.417Z</time></trkpt><trkpt lat="42.8351174" lon="11.6428106"><ele>917.0</ele><time>2026-04-11T11:38:04.423Z</time></trkpt><trkpt lat="42.8351869" lon="11.6425695"><ele>918.6666666666667</ele><time>2026-04-11T11:38:05.416Z</time></trkpt><trkpt lat="42.8352083" lon="11.6423293"><ele>920.3333333333333</ele><time>2026-04-11T11:38:06.422Z</time></trkpt><trkpt lat="42.8351642" lon="11.6421096"><ele>922.0</ele><time>2026-04-11T11:38:07.423Z</time></trkpt><trkpt lat="42.8351356" lon="11.6419338"><ele>926.25</ele><time>2026-04-11T11:38:08.417Z</time></trkpt><trkpt lat="42.8351699" lon="11.641764"><ele>930.5</ele><time>2026-04-11T11:38:09.424Z</time></trkpt><trkpt lat="42.8352733" lon="11.641648"><ele>934.75</ele><time>2026-04-11T11:38:10.419Z</time></trkpt><trkpt lat="42.835393" lon="11.6415332"><ele>939.0</ele><time>2026-04-11T11:38:11.412Z</time></trkpt><trkpt lat="42.8354916" lon="11.6414217"><ele>939.0</ele><time>2026-04-11T11:38:12.413Z</time></trkpt><trkpt lat="42.8355928" lon="11.6412916"><ele>939.0</ele><time>2026-04-11T11:38:13.418Z</time></trkpt><trkpt lat="42.8356114" lon="11.6410894"><ele>939.0</ele><time>2026-04-11T11:38:14.443Z</time></trkpt><trkpt lat="42.835644" lon="11.6409129"><ele>939.0</ele><time>2026-04-11T11:38:15.426Z</time></trkpt><trkpt lat="42.8356345" lon="11.640729"><ele>938.4000000000001</ele><time>2026-04-11T11:38:16.428Z</time></trkpt><trkpt lat="42.8356511" lon="11.6405679"><ele>937.8000000000001</ele><time>2026-04-11T11:38:17.434Z</time></trkpt><trkpt lat="42.8356798" lon="11.6404184"><ele>937.1999999999999</ele><time>2026-04-11T11:38:18.432Z</time></trkpt><trkpt lat="42.8357232" lon="11.6402786"><ele>936.5999999999999</ele><time>2026-04-11T11:38:19.438Z</time></trkpt><trkpt lat="42.8357867" lon="11.6401658"><ele>936.0</ele><time>2026-04-11T11:38:20.449Z</time></trkpt><trkpt lat="42.8358651" lon="11.6400796"><ele>934.5</ele><time>2026-04-11T11:38:21.448Z</time></trkpt><trkpt lat="42.8359812" lon="11.640033"><ele>933.0</ele><time>2026-04-11T11:38:22.431Z</time></trkpt><trkpt lat="42.8361246" lon="11.6400401"><ele>931.5</ele><time>2026-04-11T11:38:23.429Z</time></trkpt><trkpt lat="42.8362763" lon="11.6400615"><ele>930.0</ele><time>2026-04-11T11:38:24.44Z</time></trkpt><trkpt lat="42.8364399" lon="11.6400933"><ele>930.0</ele><time>2026-04-11T11:38:25.429Z</time></trkpt><trkpt lat="42.8366294" lon="11.6401275"><ele>930.0</ele><time>2026-04-11T11:38:26.437Z</time></trkpt><trkpt lat="42.8368113" lon="11.6401187"><ele>930.0</ele><time>2026-04-11T11:38:27.438Z</time></trkpt><trkpt lat="42.836941" lon="11.6400709"><ele>930.6666666666667</ele><time>2026-04-11T11:38:28.447Z</time></trkpt><trkpt lat="42.8370946" lon="11.64003"><ele>931.3333333333334</ele><time>2026-04-11T11:38:29.451Z</time></trkpt><trkpt lat="42.8372391" lon="11.6399997"><ele>932.0</ele><time>2026-04-11T11:38:30.44Z</time></trkpt><trkpt lat="42.8373977" lon="11.639974"><ele>932.0</ele><time>2026-04-11T11:38:31.436Z</time></trkpt><trkpt lat="42.8375553" lon="11.6398994"><ele>932.0</ele><time>2026-04-11T11:38:32.439Z</time></trkpt><trkpt lat="42.8376438" lon="11.6397169"><ele>932.0</ele><time>2026-04-11T11:38:33.441Z</time></trkpt><trkpt lat="42.8377224" lon="11.6395395"><ele>932.5</ele><time>2026-04-11T11:38:34.453Z</time></trkpt><trkpt lat="42.8378278" lon="11.6394368"><ele>933.0</ele><time>2026-04-11T11:38:35.437Z</time></trkpt><trkpt lat="42.8379481" lon="11.6394694"><ele>933.5</ele><time>2026-04-11T11:38:36.442Z</time></trkpt><trkpt lat="42.8381236" lon="11.6395167"><ele>934.0</ele><time>2026-04-11T11:38:37.45Z</time></trkpt><trkpt lat="42.8382781" lon="11.6395994"><ele>934.0</ele><time>2026-04-11T11:38:38.449Z</time></trkpt><trkpt lat="42.8384246" lon="11.639667"><ele>934.0</ele><time>2026-04-11T11:38:39.442Z</time></trkpt><trkpt lat="42.8385803" lon="11.6396648"><ele>934.0</ele><time>2026-04-11T11:38:40.439Z</time></trkpt><trkpt lat="42.8387579" lon="11.6395801"><ele>931.3333333333333</ele><time>2026-04-11T11:38:41.437Z</time></trkpt><trkpt lat="42.8389261" lon="11.6394524"><ele>928.6666666666667</ele><time>2026-04-11T11:38:42.438Z</time></trkpt><trkpt lat="42.83906" lon="11.6393391"><ele>926.0</ele><time>2026-04-11T11:38:43.433Z</time></trkpt><trkpt lat="42.8391825" lon="11.6392314"><ele>926.0</ele><time>2026-04-11T11:38:44.42Z</time></trkpt><trkpt lat="42.8392927" lon="11.6390785"><ele>926.0</ele><time>2026-04-11T11:38:45.439Z</time></trkpt><trkpt lat="42.8393578" lon="11.6388402"><ele>926.0</ele><time>2026-04-11T11:38:46.44Z</time></trkpt><trkpt lat="42.8393826" lon="11.6386125"><ele>926.0</ele><time>2026-04-11T11:38:47.435Z</time></trkpt><trkpt lat="42.8394297" lon="11.6384099"><ele>926.0</ele><time>2026-04-11T11:38:48.443Z</time></trkpt><trkpt lat="42.839468" lon="11.6382493"><ele>926.0</ele><time>2026-04-11T11:38:49.434Z</time></trkpt><trkpt lat="42.8395281" lon="11.6381322"><ele>926.0</ele><time>2026-04-11T11:38:50.434Z</time></trkpt><trkpt lat="42.8396106" lon="11.6380518"><ele>926.0</ele><time>2026-04-11T11:38:51.437Z</time></trkpt><trkpt lat="42.8398052" lon="11.6380327"><ele>926.0</ele><time>2026-04-11T11:38:52.453Z</time></trkpt><trkpt lat="42.8399493" lon="11.6380592"><ele>926.0</ele><time>2026-04-11T11:38:53.443Z</time></trkpt><trkpt lat="42.8400979" lon="11.6379406"><ele>926.25</ele><time>2026-04-11T11:38:54.437Z</time></trkpt><trkpt lat="42.8402193" lon="11.6378665"><ele>926.5</ele><time>2026-04-11T11:38:55.438Z</time></trkpt><trkpt lat="42.8402843" lon="11.6377337"><ele>926.75</ele><time>2026-04-11T11:38:56.425Z</time></trkpt><trkpt lat="42.8403223" lon="11.6375417"><ele>927.0</ele><time>2026-04-11T11:38:57.428Z</time></trkpt><trkpt lat="42.840341" lon="11.6373161"><ele>925.0</ele><time>2026-04-11T11:38:58.43Z</time></trkpt><trkpt lat="42.840326" lon="11.6370441"><ele>923.0</ele><time>2026-04-11T11:38:59.434Z</time></trkpt><trkpt lat="42.8403239" lon="11.6367832"><ele>921.0</ele><time>2026-04-11T11:39:00.433Z</time></trkpt><trkpt lat="42.8403395" lon="11.6365394"><ele>918.6666666666667</ele><time>2026-04-11T11:39:01.433Z</time></trkpt><trkpt lat="42.8403718" lon="11.6363018"><ele>916.3333333333334</ele><time>2026-04-11T11:39:02.448Z</time></trkpt><trkpt lat="42.8404094" lon="11.6360939"><ele>914.0</ele><time>2026-04-11T11:39:03.449Z</time></trkpt><trkpt lat="42.8404721" lon="11.6359375"><ele>914.0</ele><time>2026-04-11T11:39:04.449Z</time></trkpt><trkpt lat="42.8405106" lon="11.6357521"><ele>914.0</ele><time>2026-04-11T11:39:05.445Z</time></trkpt><trkpt lat="42.8405642" lon="11.6355433"><ele>914.0</ele><time>2026-04-11T11:39:06.447Z</time></trkpt><trkpt lat="42.8406273" lon="11.6353285"><ele>914.0</ele><time>2026-04-11T11:39:07.443Z</time></trkpt><trkpt lat="42.8406728" lon="11.6351292"><ele>914.0</ele><time>2026-04-11T11:39:08.441Z</time></trkpt><trkpt lat="42.8407243" lon="11.6349474"><ele>914.0</ele><time>2026-04-11T11:39:09.443Z</time></trkpt><trkpt lat="42.8407889" lon="11.634789"><ele>914.0</ele><time>2026-04-11T11:39:10.441Z</time></trkpt><trkpt lat="42.8408472" lon="11.6346826"><ele>914.0</ele><time>2026-04-11T11:39:11.431Z</time></trkpt><trkpt lat="42.840875" lon="11.6345122"><ele>914.0</ele><time>2026-04-11T11:39:12.431Z</time></trkpt><trkpt lat="42.840965" lon="11.6344046"><ele>914.0</ele><time>2026-04-11T11:39:13.439Z</time></trkpt><trkpt lat="42.84111" lon="11.6343949"><ele>914.0</ele><time>2026-04-11T11:39:14.432Z</time></trkpt><trkpt lat="42.8412396" lon="11.6343228"><ele>913.75</ele><time>2026-04-11T11:39:15.429Z</time></trkpt><trkpt lat="42.8413613" lon="11.6342895"><ele>913.5</ele><time>2026-04-11T11:39:16.443Z</time></trkpt><trkpt lat="42.8414534" lon="11.6341528"><ele>913.25</ele><time>2026-04-11T11:39:17.441Z</time></trkpt><trkpt lat="42.8415053" lon="11.6339607"><ele>913.0</ele><time>2026-04-11T11:39:18.428Z</time></trkpt><trkpt lat="42.8415795" lon="11.6337925"><ele>914.0</ele><time>2026-04-11T11:39:19.428Z</time></trkpt><trkpt lat="42.8416719" lon="11.6336385"><ele>915.0</ele><time>2026-04-11T11:39:20.427Z</time></trkpt><trkpt lat="42.8417636" lon="11.6335752"><ele>916.0</ele><time>2026-04-11T11:39:21.421Z</time></trkpt><trkpt lat="42.8418829" lon="11.6335091"><ele>917.0</ele><time>2026-04-11T11:39:22.416Z</time></trkpt><trkpt lat="42.8420032" lon="11.6333926"><ele>917.0</ele><time>2026-04-11T11:39:23.421Z</time></trkpt><trkpt lat="42.8421146" lon="11.6333333"><ele>917.0</ele><time>2026-04-11T11:39:24.418Z</time></trkpt><trkpt lat="42.8421302" lon="11.6332128"><ele>917.0</ele><time>2026-04-11T11:39:25.402Z</time></trkpt><trkpt lat="42.8421001" lon="11.6329984"><ele>917.0</ele><time>2026-04-11T11:39:26.413Z</time></trkpt><trkpt lat="42.8420891" lon="11.6327698"><ele>918.0</ele><time>2026-04-11T11:39:27.419Z</time></trkpt><trkpt lat="42.8420685" lon="11.6325368"><ele>919.0</ele><time>2026-04-11T11:39:28.424Z</time></trkpt><trkpt lat="42.8420784" lon="11.632315"><ele>920.0</ele><time>2026-04-11T11:39:29.431Z</time></trkpt><trkpt lat="42.8421502" lon="11.6321192"><ele>918.3333333333334</ele><time>2026-04-11T11:39:30.435Z</time></trkpt><trkpt lat="42.8422602" lon="11.6319424"><ele>916.6666666666667</ele><time>2026-04-11T11:39:31.439Z</time></trkpt><trkpt lat="42.8423594" lon="11.6317425"><ele>915.0</ele><time>2026-04-11T11:39:32.448Z</time></trkpt><trkpt lat="42.8424613" lon="11.6315174"><ele>915.0</ele><time>2026-04-11T11:39:33.44Z</time></trkpt><trkpt lat="42.8425766" lon="11.6312904"><ele>915.0</ele><time>2026-04-11T11:39:34.439Z</time></trkpt><trkpt lat="42.8426361" lon="11.6310347"><ele>915.0</ele><time>2026-04-11T11:39:35.432Z</time></trkpt><trkpt lat="42.8426643" lon="11.6307906"><ele>913.6666666666667</ele><time>2026-04-11T11:39:36.433Z</time></trkpt><trkpt lat="42.8426711" lon="11.6305211"><ele>912.3333333333334</ele><time>2026-04-11T11:39:37.439Z</time></trkpt><trkpt lat="42.8426544" lon="11.6302516"><ele>911.0</ele><time>2026-04-11T11:39:38.439Z</time></trkpt><trkpt lat="42.8426076" lon="11.6299999"><ele>911.0</ele><time>2026-04-11T11:39:39.432Z</time></trkpt><trkpt lat="42.8425776" lon="11.6297867"><ele>911.0</ele><time>2026-04-11T11:39:40.442Z</time></trkpt><trkpt lat="42.8425415" lon="11.6295721"><ele>911.0</ele><time>2026-04-11T11:39:41.438Z</time></trkpt><trkpt lat="42.842553" lon="11.6293486"><ele>911.3333333333334</ele><time>2026-04-11T11:39:42.441Z</time></trkpt><trkpt lat="42.8425506" lon="11.6291184"><ele>911.6666666666667</ele><time>2026-04-11T11:39:43.432Z</time></trkpt><trkpt lat="42.8424602" lon="11.6288897"><ele>912.0</ele><time>2026-04-11T11:39:44.438Z</time></trkpt><trkpt lat="42.8423597" lon="11.6286787"><ele>912.6666666666667</ele><time>2026-04-11T11:39:45.433Z</time></trkpt><trkpt lat="42.8422842" lon="11.6284882"><ele>913.3333333333334</ele><time>2026-04-11T11:39:46.447Z</time></trkpt><trkpt lat="42.8422112" lon="11.6283148"><ele>914.0</ele><time>2026-04-11T11:39:47.44Z</time></trkpt><trkpt lat="42.8421279" lon="11.6281311"><ele>914.0</ele><time>2026-04-11T11:39:48.435Z</time></trkpt><trkpt lat="42.8420537" lon="11.6279735"><ele>914.0</ele><time>2026-04-11T11:39:49.437Z</time></trkpt><trkpt lat="42.8420025" lon="11.6278016"><ele>914.0</ele><time>2026-04-11T11:39:50.442Z</time></trkpt><trkpt lat="42.8420143" lon="11.6276143"><ele>914.0</ele><time>2026-04-11T11:39:51.436Z</time></trkpt><trkpt lat="42.842047" lon="11.627464"><ele>912.5</ele><time>2026-04-11T11:39:52.438Z</time></trkpt><trkpt lat="42.8421221" lon="11.6273183"><ele>911.0</ele><time>2026-04-11T11:39:53.439Z</time></trkpt><trkpt lat="42.8422025" lon="11.6271895"><ele>909.5</ele><time>2026-04-11T11:39:54.437Z</time></trkpt><trkpt lat="42.8423192" lon="11.6270601"><ele>908.0</ele><time>2026-04-11T11:39:55.436Z</time></trkpt><trkpt lat="42.8424673" lon="11.6269528"><ele>907.25</ele><time>2026-04-11T11:39:56.426Z</time></trkpt><trkpt lat="42.8425847" lon="11.626858"><ele>906.5</ele><time>2026-04-11T11:39:57.432Z</time></trkpt><trkpt lat="42.842692" lon="11.626769"><ele>905.75</ele><time>2026-04-11T11:39:58.439Z</time></trkpt><trkpt lat="42.8427941" lon="11.626682"><ele>905.0</ele><time>2026-04-11T11:39:59.436Z</time></trkpt><trkpt lat="42.8428931" lon="11.6265961"><ele>906.4</ele><time>2026-04-11T11:40:00.438Z</time></trkpt><trkpt lat="42.8429905" lon="11.6265196"><ele>907.8</ele><time>2026-04-11T11:40:01.43Z</time></trkpt><trkpt lat="42.8430754" lon="11.6264495"><ele>909.2</ele><time>2026-04-11T11:40:02.438Z</time></trkpt><trkpt lat="42.843147" lon="11.6263699"><ele>910.6</ele><time>2026-04-11T11:40:03.428Z</time></trkpt><trkpt lat="42.8431856" lon="11.6262579"><ele>912.0</ele><time>2026-04-11T11:40:04.426Z</time></trkpt><trkpt lat="42.8431807" lon="11.6261304"><ele>912.0</ele><time>2026-04-11T11:40:05.414Z</time></trkpt><trkpt lat="42.8431561" lon="11.6259917"><ele>912.0</ele><time>2026-04-11T11:40:06.421Z</time></trkpt><trkpt lat="42.8430665" lon="11.625867"><ele>912.0</ele><time>2026-04-11T11:40:07.429Z</time></trkpt><trkpt lat="42.8429616" lon="11.6257956"><ele>912.0</ele><time>2026-04-11T11:40:08.417Z</time></trkpt><trkpt lat="42.8428124" lon="11.6257349"><ele>912.0</ele><time>2026-04-11T11:40:09.424Z</time></trkpt><trkpt lat="42.8426498" lon="11.6256627"><ele>912.0</ele><time>2026-04-11T11:40:10.423Z</time></trkpt><trkpt lat="42.8424843" lon="11.6255554"><ele>912.0</ele><time>2026-04-11T11:40:11.419Z</time></trkpt><trkpt lat="42.8423204" lon="11.62542"><ele>910.0</ele><time>2026-04-11T11:40:12.435Z</time></trkpt><trkpt lat="42.8421225" lon="11.6252208"><ele>908.0</ele><time>2026-04-11T11:40:13.431Z</time></trkpt><trkpt lat="42.8420119" lon="11.6250862"><ele>906.0</ele><time>2026-04-11T11:40:14.431Z</time></trkpt><trkpt lat="42.8419177" lon="11.6249972"><ele>906.0</ele><time>2026-04-11T11:40:15.429Z</time></trkpt><trkpt lat="42.8418274" lon="11.6248582"><ele>906.0</ele><time>2026-04-11T11:40:16.436Z</time></trkpt><trkpt lat="42.8417401" lon="11.6247486"><ele>906.0</ele><time>2026-04-11T11:40:17.456Z</time></trkpt><trkpt lat="42.8416591" lon="11.6246542"><ele>906.0</ele><time>2026-04-11T11:40:18.438Z</time></trkpt><trkpt lat="42.8415811" lon="11.6245441"><ele>904.75</ele><time>2026-04-11T11:40:19.437Z</time></trkpt><trkpt lat="42.8415179" lon="11.6244168"><ele>903.5</ele><time>2026-04-11T11:40:20.444Z</time></trkpt><trkpt lat="42.8414701" lon="11.6242607"><ele>902.25</ele><time>2026-04-11T11:40:21.437Z</time></trkpt><trkpt lat="42.8414322" lon="11.6240915"><ele>901.0</ele><time>2026-04-11T11:40:22.439Z</time></trkpt><trkpt lat="42.8414059" lon="11.6239124"><ele>901.0</ele><time>2026-04-11T11:40:23.439Z</time></trkpt><trkpt lat="42.841393" lon="11.6237201"><ele>901.0</ele><time>2026-04-11T11:40:24.444Z</time></trkpt><trkpt lat="42.8413893" lon="11.6235269"><ele>901.0</ele><time>2026-04-11T11:40:25.448Z</time></trkpt><trkpt lat="42.8413893" lon="11.6233277"><ele>901.0</ele><time>2026-04-11T11:40:26.445Z</time></trkpt><trkpt lat="42.8413835" lon="11.6231438"><ele>901.0</ele><time>2026-04-11T11:40:27.444Z</time></trkpt><trkpt lat="42.8413536" lon="11.6229329"><ele>901.0</ele><time>2026-04-11T11:40:28.446Z</time></trkpt><trkpt lat="42.8412961" lon="11.6227334"><ele>901.0</ele><time>2026-04-11T11:40:29.431Z</time></trkpt><trkpt lat="42.841245" lon="11.6225446"><ele>901.3333333333333</ele><time>2026-04-11T11:40:30.425Z</time></trkpt><trkpt lat="42.8411533" lon="11.6223831"><ele>901.6666666666667</ele><time>2026-04-11T11:40:31.446Z</time></trkpt><trkpt lat="42.84103" lon="11.6222453"><ele>902.0</ele><time>2026-04-11T11:40:32.441Z</time></trkpt><trkpt lat="42.8409098" lon="11.6221098"><ele>897.0</ele><time>2026-04-11T11:40:33.437Z</time></trkpt><trkpt lat="42.8407721" lon="11.6219876"><ele>892.0</ele><time>2026-04-11T11:40:34.442Z</time></trkpt><trkpt lat="42.8406398" lon="11.6218484"><ele>887.0</ele><time>2026-04-11T11:40:35.438Z</time></trkpt><trkpt lat="42.8405256" lon="11.6217872"><ele>885.75</ele><time>2026-04-11T11:40:36.44Z</time></trkpt><trkpt lat="42.8404081" lon="11.6217007"><ele>884.5</ele><time>2026-04-11T11:40:37.44Z</time></trkpt><trkpt lat="42.8403045" lon="11.6216476"><ele>883.25</ele><time>2026-04-11T11:40:38.445Z</time></trkpt><trkpt lat="42.8401963" lon="11.6215721"><ele>882.0</ele><time>2026-04-11T11:40:39.438Z</time></trkpt><trkpt lat="42.8401202" lon="11.6214862"><ele>878.8</ele><time>2026-04-11T11:40:40.449Z</time></trkpt><trkpt lat="42.8400569" lon="11.6213752"><ele>875.6</ele><time>2026-04-11T11:40:41.447Z</time></trkpt><trkpt lat="42.8400109" lon="11.6212298"><ele>872.3999999999999</ele><time>2026-04-11T11:40:42.44Z</time></trkpt><trkpt lat="42.8399776" lon="11.621085"><ele>869.1999999999999</ele><time>2026-04-11T11:40:43.453Z</time></trkpt><trkpt lat="42.839969" lon="11.6209402"><ele>866.0</ele><time>2026-04-11T11:40:44.445Z</time></trkpt><trkpt lat="42.8400381" lon="11.6207967"><ele>868.25</ele><time>2026-04-11T11:40:45.455Z</time></trkpt><trkpt lat="42.840135" lon="11.6206669"><ele>870.5</ele><time>2026-04-11T11:40:46.432Z</time></trkpt><trkpt lat="42.8402503" lon="11.6205594"><ele>872.75</ele><time>2026-04-11T11:40:47.44Z</time></trkpt><trkpt lat="42.8403519" lon="11.6204527"><ele>875.0</ele><time>2026-04-11T11:40:48.44Z</time></trkpt><trkpt lat="42.8404825" lon="11.620343"><ele>875.1666666666667</ele><time>2026-04-11T11:40:49.424Z</time></trkpt><trkpt lat="42.8405367" lon="11.6202277"><ele>875.3333333333334</ele><time>2026-04-11T11:40:50.421Z</time></trkpt><trkpt lat="42.8405604" lon="11.6201002"><ele>875.5</ele><time>2026-04-11T11:40:51.415Z</time></trkpt><trkpt lat="42.8405746" lon="11.6199927"><ele>875.6666666666667</ele><time>2026-04-11T11:40:52.422Z</time></trkpt><trkpt lat="42.8405481" lon="11.6198938"><ele>875.8333333333334</ele><time>2026-04-11T11:40:53.425Z</time></trkpt><trkpt lat="42.8404816" lon="11.619822"><ele>876.0</ele><time>2026-04-11T11:40:54.418Z</time></trkpt><trkpt lat="42.8403998" lon="11.6197705"><ele>876.0</ele><time>2026-04-11T11:40:55.427Z</time></trkpt><trkpt lat="42.8402955" lon="11.6197254"><ele>875.9999999999999</ele><time>2026-04-11T11:40:56.444Z</time></trkpt><trkpt lat="42.8401762" lon="11.6196822"><ele>875.9999999999999</ele><time>2026-04-11T11:40:57.453Z</time></trkpt><trkpt lat="42.8400692" lon="11.6196318"><ele>876.0</ele><time>2026-04-11T11:40:58.45Z</time></trkpt><trkpt lat="42.8399779" lon="11.6195758"><ele>876.0</ele><time>2026-04-11T11:40:59.441Z</time></trkpt><trkpt lat="42.839898" lon="11.6194976"><ele>870.4</ele><time>2026-04-11T11:41:00.451Z</time></trkpt><trkpt lat="42.8398562" lon="11.6194018"><ele>864.8</ele><time>2026-04-11T11:41:01.436Z</time></trkpt><trkpt lat="42.8398666" lon="11.6192894"><ele>859.1999999999999</ele><time>2026-04-11T11:41:02.463Z</time></trkpt><trkpt lat="42.8399207" lon="11.6191587"><ele>853.5999999999999</ele><time>2026-04-11T11:41:03.46Z</time></trkpt><trkpt lat="42.840016" lon="11.6190341"><ele>848.0</ele><time>2026-04-11T11:41:04.445Z</time></trkpt><trkpt lat="42.840115" lon="11.6188994"><ele>851.0</ele><time>2026-04-11T11:41:05.437Z</time></trkpt><trkpt lat="42.84022" lon="11.6187651"><ele>854.0</ele><time>2026-04-11T11:41:06.445Z</time></trkpt><trkpt lat="42.8403129" lon="11.618618"><ele>857.0</ele><time>2026-04-11T11:41:07.437Z</time></trkpt><trkpt lat="42.8403962" lon="11.6184854"><ele>860.0</ele><time>2026-04-11T11:41:08.439Z</time></trkpt><trkpt lat="42.8404047" lon="11.6183606"><ele>860.0</ele><time>2026-04-11T11:41:09.437Z</time></trkpt><trkpt lat="42.8403929" lon="11.6182336"><ele>860.0</ele><time>2026-04-11T11:41:10.435Z</time></trkpt><trkpt lat="42.8403706" lon="11.6181054"><ele>860.0</ele><time>2026-04-11T11:41:11.436Z</time></trkpt><trkpt lat="42.8403463" lon="11.617967"><ele>860.0</ele><time>2026-04-11T11:41:12.435Z</time></trkpt><trkpt lat="42.8403192" lon="11.6178124"><ele>860.0</ele><time>2026-04-11T11:41:13.436Z</time></trkpt><trkpt lat="42.8402989" lon="11.6176314"><ele>858.5</ele><time>2026-04-11T11:41:14.441Z</time></trkpt><trkpt lat="42.840288" lon="11.6174519"><ele>857.0</ele><time>2026-04-11T11:41:15.448Z</time></trkpt><trkpt lat="42.8402767" lon="11.617272"><ele>855.5</ele><time>2026-04-11T11:41:16.436Z</time></trkpt><trkpt lat="42.8402686" lon="11.6170916"><ele>854.0</ele><time>2026-04-11T11:41:17.437Z</time></trkpt><trkpt lat="42.8402779" lon="11.6169097"><ele>852.0</ele><time>2026-04-11T11:41:18.437Z</time></trkpt><trkpt lat="42.8402876" lon="11.6167421"><ele>850.0</ele><time>2026-04-11T11:41:19.448Z</time></trkpt><trkpt lat="42.8403248" lon="11.6165504"><ele>848.0</ele><time>2026-04-11T11:41:20.428Z</time></trkpt><trkpt lat="42.8403796" lon="11.6163708"><ele>846.0</ele><time>2026-04-11T11:41:21.426Z</time></trkpt><trkpt lat="42.8404375" lon="11.6161962"><ele>844.25</ele><time>2026-04-11T11:41:22.429Z</time></trkpt><trkpt lat="42.8405005" lon="11.6159984"><ele>842.5</ele><time>2026-04-11T11:41:23.42Z</time></trkpt><trkpt lat="42.8405919" lon="11.6158457"><ele>840.75</ele><time>2026-04-11T11:41:24.428Z</time></trkpt><trkpt lat="42.8406647" lon="11.61568"><ele>839.0</ele><time>2026-04-11T11:41:25.437Z</time></trkpt><trkpt lat="42.8407514" lon="11.6155397"><ele>839.0</ele><time>2026-04-11T11:41:26.439Z</time></trkpt><trkpt lat="42.8408497" lon="11.6154162"><ele>839.0</ele><time>2026-04-11T11:41:27.452Z</time></trkpt><trkpt lat="42.8409642" lon="11.6153238"><ele>839.0</ele><time>2026-04-11T11:41:28.442Z</time></trkpt><trkpt lat="42.8410574" lon="11.6151607"><ele>839.0</ele><time>2026-04-11T11:41:29.437Z</time></trkpt><trkpt lat="42.8411399" lon="11.6150068"><ele>839.6666666666667</ele><time>2026-04-11T11:41:30.438Z</time></trkpt><trkpt lat="42.8412344" lon="11.6148269"><ele>840.3333333333333</ele><time>2026-04-11T11:41:31.434Z</time></trkpt><trkpt lat="42.8413335" lon="11.614668"><ele>841.0</ele><time>2026-04-11T11:41:32.443Z</time></trkpt><trkpt lat="42.8414228" lon="11.6144949"><ele>840.3333333333333</ele><time>2026-04-11T11:41:33.447Z</time></trkpt><trkpt lat="42.8415471" lon="11.6143527"><ele>839.6666666666667</ele><time>2026-04-11T11:41:34.45Z</time></trkpt><trkpt lat="42.8416822" lon="11.6142318"><ele>839.0</ele><time>2026-04-11T11:41:35.453Z</time></trkpt><trkpt lat="42.8418289" lon="11.6140969"><ele>839.0</ele><time>2026-04-11T11:41:36.446Z</time></trkpt><trkpt lat="42.8419563" lon="11.6139571"><ele>839.0</ele><time>2026-04-11T11:41:37.459Z</time></trkpt><trkpt lat="42.8420955" lon="11.6138483"><ele>839.0</ele><time>2026-04-11T11:41:38.462Z</time></trkpt><trkpt lat="42.8421904" lon="11.6137111"><ele>836.75</ele><time>2026-04-11T11:41:39.452Z</time></trkpt><trkpt lat="42.8422915" lon="11.6135916"><ele>834.5</ele><time>2026-04-11T11:41:40.444Z</time></trkpt><trkpt lat="42.8423805" lon="11.6134451"><ele>832.25</ele><time>2026-04-11T11:41:41.448Z</time></trkpt><trkpt lat="42.8424653" lon="11.613298"><ele>830.0</ele><time>2026-04-11T11:41:42.443Z</time></trkpt><trkpt lat="42.8425594" lon="11.6131441"><ele>830.0</ele><time>2026-04-11T11:41:43.447Z</time></trkpt><trkpt lat="42.8426177" lon="11.6129594"><ele>830.0</ele><time>2026-04-11T11:41:44.446Z</time></trkpt><trkpt lat="42.8426659" lon="11.612744"><ele>830.0</ele><time>2026-04-11T11:41:45.446Z</time></trkpt><trkpt lat="42.842708" lon="11.6125815"><ele>830.0</ele><time>2026-04-11T11:41:46.448Z</time></trkpt><trkpt lat="42.8427421" lon="11.6123621"><ele>829.0</ele><time>2026-04-11T11:41:47.445Z</time></trkpt><trkpt lat="42.8427785" lon="11.6121612"><ele>828.0</ele><time>2026-04-11T11:41:48.445Z</time></trkpt><trkpt lat="42.8428464" lon="11.6119644"><ele>827.0</ele><time>2026-04-11T11:41:49.442Z</time></trkpt><trkpt lat="42.8429498" lon="11.611819"><ele>825.75</ele><time>2026-04-11T11:41:50.463Z</time></trkpt><trkpt lat="42.843024" lon="11.611654"><ele>824.5</ele><time>2026-04-11T11:41:51.451Z</time></trkpt><trkpt lat="42.843109" lon="11.611514"><ele>823.25</ele><time>2026-04-11T11:41:52.437Z</time></trkpt><trkpt lat="42.8431433" lon="11.611313"><ele>822.0</ele><time>2026-04-11T11:41:53.441Z</time></trkpt><trkpt lat="42.8431003" lon="11.6110815"><ele>819.3333333333333</ele><time>2026-04-11T11:41:54.447Z</time></trkpt><trkpt lat="42.8430588" lon="11.6108149"><ele>816.6666666666666</ele><time>2026-04-11T11:41:55.436Z</time></trkpt><trkpt lat="42.8429951" lon="11.610635"><ele>814.0</ele><time>2026-04-11T11:41:56.441Z</time></trkpt><trkpt lat="42.8429194" lon="11.6104411"><ele>812.5</ele><time>2026-04-11T11:41:57.456Z</time></trkpt><trkpt lat="42.8428488" lon="11.6102409"><ele>811.0</ele><time>2026-04-11T11:41:58.451Z</time></trkpt><trkpt lat="42.8428226" lon="11.6100687"><ele>809.5</ele><time>2026-04-11T11:41:59.452Z</time></trkpt><trkpt lat="42.8428287" lon="11.6098899"><ele>808.0</ele><time>2026-04-11T11:42:00.448Z</time></trkpt><trkpt lat="42.8428249" lon="11.6097094"><ele>808.0</ele><time>2026-04-11T11:42:01.456Z</time></trkpt><trkpt lat="42.8428025" lon="11.6094935"><ele>808.0</ele><time>2026-04-11T11:42:02.462Z</time></trkpt><trkpt lat="42.8427911" lon="11.6093234"><ele>808.0</ele><time>2026-04-11T11:42:03.458Z</time></trkpt><trkpt lat="42.8427874" lon="11.6091637"><ele>808.0</ele><time>2026-04-11T11:42:04.455Z</time></trkpt><trkpt lat="42.842792" lon="11.6089782"><ele>807.75</ele><time>2026-04-11T11:42:05.461Z</time></trkpt><trkpt lat="42.8428007" lon="11.6087971"><ele>807.5</ele><time>2026-04-11T11:42:06.462Z</time></trkpt><trkpt lat="42.842814" lon="11.6085996"><ele>807.25</ele><time>2026-04-11T11:42:07.464Z</time></trkpt><trkpt lat="42.8428133" lon="11.6084108"><ele>807.0</ele><time>2026-04-11T11:42:08.462Z</time></trkpt><trkpt lat="42.842817" lon="11.6082272"><ele>807.0</ele><time>2026-04-11T11:42:09.457Z</time></trkpt><trkpt lat="42.8428271" lon="11.6080528"><ele>807.0</ele><time>2026-04-11T11:42:10.449Z</time></trkpt><trkpt lat="42.8428257" lon="11.6078743"><ele>807.0</ele><time>2026-04-11T11:42:11.449Z</time></trkpt><trkpt lat="42.842807" lon="11.6076813"><ele>807.0</ele><time>2026-04-11T11:42:12.438Z</time></trkpt><trkpt lat="42.8428027" lon="11.6075051"><ele>806.75</ele><time>2026-04-11T11:42:13.44Z</time></trkpt><trkpt lat="42.8428249" lon="11.6073582"><ele>806.5</ele><time>2026-04-11T11:42:14.438Z</time></trkpt><trkpt lat="42.842841" lon="11.6072306"><ele>806.25</ele><time>2026-04-11T11:42:15.43Z</time></trkpt><trkpt lat="42.8428113" lon="11.6070004"><ele>806.0</ele><time>2026-04-11T11:42:17.436Z</time></trkpt><trkpt lat="42.8427239" lon="11.6068872"><ele>807.75</ele><time>2026-04-11T11:42:18.431Z</time></trkpt><trkpt lat="42.8426132" lon="11.6067953"><ele>809.5</ele><time>2026-04-11T11:42:19.426Z</time></trkpt><trkpt lat="42.842488" lon="11.6067596"><ele>811.25</ele><time>2026-04-11T11:42:20.431Z</time></trkpt><trkpt lat="42.8423553" lon="11.6067297"><ele>813.0</ele><time>2026-04-11T11:42:21.434Z</time></trkpt><trkpt lat="42.8422008" lon="11.6067093"><ele>813.0</ele><time>2026-04-11T11:42:22.434Z</time></trkpt><trkpt lat="42.84206" lon="11.6066648"><ele>813.0</ele><time>2026-04-11T11:42:23.431Z</time></trkpt><trkpt lat="42.8419211" lon="11.606614"><ele>813.0</ele><time>2026-04-11T11:42:24.425Z</time></trkpt><trkpt lat="42.8418045" lon="11.606517"><ele>813.0</ele><time>2026-04-11T11:42:25.43Z</time></trkpt><trkpt lat="42.8416967" lon="11.6064149"><ele>811.25</ele><time>2026-04-11T11:42:26.42Z</time></trkpt><trkpt lat="42.8416205" lon="11.6062819"><ele>809.5</ele><time>2026-04-11T11:42:27.417Z</time></trkpt><trkpt lat="42.8415486" lon="11.6061175"><ele>807.75</ele><time>2026-04-11T11:42:28.437Z</time></trkpt><trkpt lat="42.8414801" lon="11.6059543"><ele>806.0</ele><time>2026-04-11T11:42:29.423Z</time></trkpt><trkpt lat="42.8414154" lon="11.6057621"><ele>806.0</ele><time>2026-04-11T11:42:30.42Z</time></trkpt><trkpt lat="42.8413312" lon="11.6055764"><ele>806.0</ele><time>2026-04-11T11:42:31.435Z</time></trkpt><trkpt lat="42.8412312" lon="11.6054045"><ele>806.0</ele><time>2026-04-11T11:42:32.439Z</time></trkpt><trkpt lat="42.8411275" lon="11.605264"><ele>808.5</ele><time>2026-04-11T11:42:33.431Z</time></trkpt><trkpt lat="42.8410348" lon="11.605105"><ele>811.0</ele><time>2026-04-11T11:42:34.432Z</time></trkpt><trkpt lat="42.8409145" lon="11.6049644"><ele>813.5</ele><time>2026-04-11T11:42:35.439Z</time></trkpt><trkpt lat="42.8407974" lon="11.6048609"><ele>816.0</ele><time>2026-04-11T11:42:36.439Z</time></trkpt><trkpt lat="42.8406759" lon="11.6048189"><ele>810.75</ele><time>2026-04-11T11:42:37.426Z</time></trkpt><trkpt lat="42.8405258" lon="11.6047836"><ele>805.5</ele><time>2026-04-11T11:42:38.434Z</time></trkpt><trkpt lat="42.8403858" lon="11.6047677"><ele>800.25</ele><time>2026-04-11T11:42:39.435Z</time></trkpt><trkpt lat="42.8402527" lon="11.6048182"><ele>795.0</ele><time>2026-04-11T11:42:40.44Z</time></trkpt><trkpt lat="42.8401455" lon="11.6048197"><ele>795.0</ele><time>2026-04-11T11:42:41.421Z</time></trkpt><trkpt lat="42.8400358" lon="11.6047769"><ele>795.0</ele><time>2026-04-11T11:42:42.424Z</time></trkpt><trkpt lat="42.8399611" lon="11.6047154"><ele>795.0</ele><time>2026-04-11T11:42:43.419Z</time></trkpt><trkpt lat="42.8398971" lon="11.6045539"><ele>795.0</ele><time>2026-04-11T11:42:44.418Z</time></trkpt><trkpt lat="42.8398364" lon="11.6043604"><ele>795.0</ele><time>2026-04-11T11:42:45.424Z</time></trkpt><trkpt lat="42.8398222" lon="11.6042055"><ele>795.0</ele><time>2026-04-11T11:42:46.424Z</time></trkpt><trkpt lat="42.8397655" lon="11.604021"><ele>795.0</ele><time>2026-04-11T11:42:47.432Z</time></trkpt><trkpt lat="42.8397095" lon="11.6038746"><ele>795.0</ele><time>2026-04-11T11:42:48.428Z</time></trkpt><trkpt lat="42.8396642" lon="11.603726"><ele>796.8</ele><time>2026-04-11T11:42:49.436Z</time></trkpt><trkpt lat="42.8396141" lon="11.6035994"><ele>798.6</ele><time>2026-04-11T11:42:50.454Z</time></trkpt><trkpt lat="42.8395663" lon="11.6034905"><ele>800.4000000000001</ele><time>2026-04-11T11:42:51.459Z</time></trkpt><trkpt lat="42.8395249" lon="11.6033829"><ele>802.2</ele><time>2026-04-11T11:42:52.47Z</time></trkpt><trkpt lat="42.8394776" lon="11.6032763"><ele>804.0</ele><time>2026-04-11T11:42:53.452Z</time></trkpt><trkpt lat="42.839436" lon="11.6031731"><ele>804.0</ele><time>2026-04-11T11:42:54.459Z</time></trkpt><trkpt lat="42.8393866" lon="11.6030675"><ele>804.0</ele><time>2026-04-11T11:42:55.458Z</time></trkpt><trkpt lat="42.8393354" lon="11.6029666"><ele>804.0</ele><time>2026-04-11T11:42:56.458Z</time></trkpt><trkpt lat="42.8392732" lon="11.6028533"><ele>804.0</ele><time>2026-04-11T11:42:57.459Z</time></trkpt><trkpt lat="42.8392209" lon="11.6027388"><ele>804.0</ele><time>2026-04-11T11:42:58.458Z</time></trkpt><trkpt lat="42.8391645" lon="11.6026289"><ele>800.75</ele><time>2026-04-11T11:42:59.458Z</time></trkpt><trkpt lat="42.8390938" lon="11.602499"><ele>797.5</ele><time>2026-04-11T11:43:00.441Z</time></trkpt><trkpt lat="42.8390103" lon="11.602345"><ele>794.25</ele><time>2026-04-11T11:43:01.45Z</time></trkpt><trkpt lat="42.8389175" lon="11.6021726"><ele>791.0</ele><time>2026-04-11T11:43:02.45Z</time></trkpt><trkpt lat="42.8387993" lon="11.6019543"><ele>791.0</ele><time>2026-04-11T11:43:03.437Z</time></trkpt><trkpt lat="42.8387181" lon="11.60176"><ele>791.0</ele><time>2026-04-11T11:43:04.444Z</time></trkpt><trkpt lat="42.8386331" lon="11.6015925"><ele>791.0</ele><time>2026-04-11T11:43:05.449Z</time></trkpt><trkpt lat="42.8385515" lon="11.6014026"><ele>791.0</ele><time>2026-04-11T11:43:06.454Z</time></trkpt><trkpt lat="42.838479" lon="11.6012197"><ele>791.0</ele><time>2026-04-11T11:43:07.459Z</time></trkpt><trkpt lat="42.8383993" lon="11.6010744"><ele>791.0</ele><time>2026-04-11T11:43:08.458Z</time></trkpt><trkpt lat="42.8383218" lon="11.60092"><ele>791.0</ele><time>2026-04-11T11:43:09.455Z</time></trkpt><trkpt lat="42.8382202" lon="11.6007453"><ele>787.25</ele><time>2026-04-11T11:43:10.454Z</time></trkpt><trkpt lat="42.8381376" lon="11.6005851"><ele>783.5</ele><time>2026-04-11T11:43:11.469Z</time></trkpt><trkpt lat="42.8380643" lon="11.6004698"><ele>779.75</ele><time>2026-04-11T11:43:12.461Z</time></trkpt><trkpt lat="42.8379894" lon="11.6003223"><ele>776.0</ele><time>2026-04-11T11:43:13.466Z</time></trkpt><trkpt lat="42.8379233" lon="11.6001678"><ele>776.0</ele><time>2026-04-11T11:43:14.463Z</time></trkpt><trkpt lat="42.8378737" lon="11.6000335"><ele>776.0</ele><time>2026-04-11T11:43:15.465Z</time></trkpt><trkpt lat="42.8378533" lon="11.599874"><ele>776.0</ele><time>2026-04-11T11:43:16.448Z</time></trkpt><trkpt lat="42.8378722" lon="11.5997162"><ele>776.0</ele><time>2026-04-11T11:43:17.445Z</time></trkpt><trkpt lat="42.8379282" lon="11.5995886"><ele>774.0</ele><time>2026-04-11T11:43:18.456Z</time></trkpt><trkpt lat="42.8379914" lon="11.5993942"><ele>772.0</ele><time>2026-04-11T11:43:19.451Z</time></trkpt><trkpt lat="42.8380524" lon="11.5992152"><ele>770.0</ele><time>2026-04-11T11:43:20.44Z</time></trkpt><trkpt lat="42.8380968" lon="11.5990166"><ele>770.0</ele><time>2026-04-11T11:43:21.442Z</time></trkpt><trkpt lat="42.838111" lon="11.5988109"><ele>770.0</ele><time>2026-04-11T11:43:22.442Z</time></trkpt><trkpt lat="42.83811" lon="11.5986202"><ele>770.0</ele><time>2026-04-11T11:43:23.463Z</time></trkpt><trkpt lat="42.8380953" lon="11.598406"><ele>770.0</ele><time>2026-04-11T11:43:24.452Z</time></trkpt><trkpt lat="42.838105" lon="11.5981998"><ele>769.3333333333334</ele><time>2026-04-11T11:43:25.453Z</time></trkpt><trkpt lat="42.8380739" lon="11.5979943"><ele>768.6666666666667</ele><time>2026-04-11T11:43:26.447Z</time></trkpt><trkpt lat="42.8380192" lon="11.5977778"><ele>768.0</ele><time>2026-04-11T11:43:27.438Z</time></trkpt><trkpt lat="42.8379654" lon="11.5975819"><ele>768.0</ele><time>2026-04-11T11:43:28.45Z</time></trkpt><trkpt lat="42.8378841" lon="11.5973997"><ele>768.0</ele><time>2026-04-11T11:43:29.441Z</time></trkpt><trkpt lat="42.8378006" lon="11.5972381"><ele>768.0</ele><time>2026-04-11T11:43:30.462Z</time></trkpt><trkpt lat="42.8377178" lon="11.5970993"><ele>768.0</ele><time>2026-04-11T11:43:31.453Z</time></trkpt><trkpt lat="42.8376371" lon="11.5969695"><ele>764.5</ele><time>2026-04-11T11:43:32.459Z</time></trkpt><trkpt lat="42.8375658" lon="11.5968371"><ele>761.0</ele><time>2026-04-11T11:43:33.454Z</time></trkpt><trkpt lat="42.8374878" lon="11.5966908"><ele>757.5</ele><time>2026-04-11T11:43:34.456Z</time></trkpt><trkpt lat="42.8374066" lon="11.596526"><ele>754.0</ele><time>2026-04-11T11:43:35.454Z</time></trkpt><trkpt lat="42.8373292" lon="11.5963639"><ele>754.0</ele><time>2026-04-11T11:43:36.459Z</time></trkpt><trkpt lat="42.837269" lon="11.5962319"><ele>754.0</ele><time>2026-04-11T11:43:37.452Z</time></trkpt><trkpt lat="42.8371896" lon="11.5960841"><ele>754.0</ele><time>2026-04-11T11:43:38.45Z</time></trkpt><trkpt lat="42.8370956" lon="11.5959861"><ele>754.0</ele><time>2026-04-11T11:43:39.447Z</time></trkpt><trkpt lat="42.8369479" lon="11.595956"><ele>755.25</ele><time>2026-04-11T11:43:40.447Z</time></trkpt><trkpt lat="42.836823" lon="11.5959328"><ele>756.5</ele><time>2026-04-11T11:43:41.456Z</time></trkpt><trkpt lat="42.836682" lon="11.5959382"><ele>757.75</ele><time>2026-04-11T11:43:42.451Z</time></trkpt><trkpt lat="42.8365531" lon="11.595942"><ele>759.0</ele><time>2026-04-11T11:43:43.459Z</time></trkpt><trkpt lat="42.836407" lon="11.5959111"><ele>756.0</ele><time>2026-04-11T11:43:44.459Z</time></trkpt><trkpt lat="42.8362664" lon="11.5958472"><ele>753.0</ele><time>2026-04-11T11:43:45.453Z</time></trkpt><trkpt lat="42.8361438" lon="11.59574"><ele>750.0</ele><time>2026-04-11T11:43:46.438Z</time></trkpt><trkpt lat="42.8360522" lon="11.5956093"><ele>747.0</ele><time>2026-04-11T11:43:47.456Z</time></trkpt><trkpt lat="42.8360087" lon="11.5954502"><ele>748.3333333333334</ele><time>2026-04-11T11:43:48.448Z</time></trkpt><trkpt lat="42.8359883" lon="11.5952203"><ele>749.6666666666667</ele><time>2026-04-11T11:43:49.439Z</time></trkpt><trkpt lat="42.8359916" lon="11.5949304"><ele>751.0</ele><time>2026-04-11T11:43:50.453Z</time></trkpt><trkpt lat="42.8360113" lon="11.5946258"><ele>751.3333333333334</ele><time>2026-04-11T11:43:51.457Z</time></trkpt><trkpt lat="42.8360197" lon="11.5943819"><ele>751.6666666666666</ele><time>2026-04-11T11:43:52.457Z</time></trkpt><trkpt lat="42.8359876" lon="11.5941817"><ele>752.0</ele><time>2026-04-11T11:43:53.452Z</time></trkpt><trkpt lat="42.8359273" lon="11.5940062"><ele>746.3333333333333</ele><time>2026-04-11T11:43:54.468Z</time></trkpt><trkpt lat="42.835844" lon="11.5938295"><ele>740.6666666666666</ele><time>2026-04-11T11:43:55.443Z</time></trkpt><trkpt lat="42.8357672" lon="11.5936522"><ele>735.0</ele><time>2026-04-11T11:43:56.448Z</time></trkpt><trkpt lat="42.835705" lon="11.5934499"><ele>735.0</ele><time>2026-04-11T11:43:57.449Z</time></trkpt><trkpt lat="42.8356353" lon="11.5932603"><ele>735.0</ele><time>2026-04-11T11:43:58.448Z</time></trkpt><trkpt lat="42.835565" lon="11.5930814"><ele>735.0</ele><time>2026-04-11T11:43:59.459Z</time></trkpt><trkpt lat="42.8355232" lon="11.5929047"><ele>735.0</ele><time>2026-04-11T11:44:00.445Z</time></trkpt><trkpt lat="42.8354884" lon="11.5927123"><ele>734.5</ele><time>2026-04-11T11:44:01.461Z</time></trkpt><trkpt lat="42.8354378" lon="11.5925222"><ele>734.0</ele><time>2026-04-11T11:44:02.474Z</time></trkpt><trkpt lat="42.835408" lon="11.5923461"><ele>733.5</ele><time>2026-04-11T11:44:03.461Z</time></trkpt><trkpt lat="42.8354143" lon="11.5921569"><ele>733.0</ele><time>2026-04-11T11:44:04.455Z</time></trkpt><trkpt lat="42.8354089" lon="11.5919606"><ele>732.0</ele><time>2026-04-11T11:44:05.464Z</time></trkpt><trkpt lat="42.8353773" lon="11.5917498"><ele>731.0</ele><time>2026-04-11T11:44:06.459Z</time></trkpt><trkpt lat="42.8353394" lon="11.5915522"><ele>730.0</ele><time>2026-04-11T11:44:07.451Z</time></trkpt><trkpt lat="42.8353024" lon="11.5913544"><ele>730.0</ele><time>2026-04-11T11:44:08.453Z</time></trkpt><trkpt lat="42.835251" lon="11.5911842"><ele>730.0</ele><time>2026-04-11T11:44:09.463Z</time></trkpt><trkpt lat="42.8351818" lon="11.5910234"><ele>730.0</ele><time>2026-04-11T11:44:10.463Z</time></trkpt><trkpt lat="42.8351544" lon="11.5908154"><ele>730.0</ele><time>2026-04-11T11:44:11.466Z</time></trkpt><trkpt lat="42.8351775" lon="11.5906427"><ele>729.0</ele><time>2026-04-11T11:44:12.459Z</time></trkpt><trkpt lat="42.8352316" lon="11.5904679"><ele>728.0</ele><time>2026-04-11T11:44:13.458Z</time></trkpt><trkpt lat="42.8353183" lon="11.5902909"><ele>727.0</ele><time>2026-04-11T11:44:14.461Z</time></trkpt><trkpt lat="42.8353883" lon="11.5901154"><ele>726.0</ele><time>2026-04-11T11:44:15.465Z</time></trkpt><trkpt lat="42.8354907" lon="11.589936"><ele>724.25</ele><time>2026-04-11T11:44:16.454Z</time></trkpt><trkpt lat="42.8355996" lon="11.5898065"><ele>722.5</ele><time>2026-04-11T11:44:17.462Z</time></trkpt><trkpt lat="42.8357013" lon="11.5896991"><ele>720.75</ele><time>2026-04-11T11:44:18.455Z</time></trkpt><trkpt lat="42.835826" lon="11.5896042"><ele>719.0</ele><time>2026-04-11T11:44:19.461Z</time></trkpt><trkpt lat="42.8359443" lon="11.5895177"><ele>721.2</ele><time>2026-04-11T11:44:20.458Z</time></trkpt><trkpt lat="42.836032" lon="11.5894316"><ele>723.4000000000001</ele><time>2026-04-11T11:44:21.456Z</time></trkpt><trkpt lat="42.8360809" lon="11.5893238"><ele>725.6</ele><time>2026-04-11T11:44:22.453Z</time></trkpt><trkpt lat="42.8361257" lon="11.5891856"><ele>727.8</ele><time>2026-04-11T11:44:24.467Z</time></trkpt><trkpt lat="42.8361538" lon="11.5890475"><ele>730.0</ele><time>2026-04-11T11:44:26.464Z</time></trkpt><trkpt lat="42.8361609" lon="11.5889433"><ele>730.0</ele><time>2026-04-11T11:44:28.457Z</time></trkpt><trkpt lat="42.8361185" lon="11.5888711"><ele>730.0</ele><time>2026-04-11T11:44:30.46Z</time></trkpt><trkpt lat="42.8360328" lon="11.5888464"><ele>730.0</ele><time>2026-04-11T11:44:32.463Z</time></trkpt><trkpt lat="42.8359667" lon="11.5888635"><ele>730.0</ele><time>2026-04-11T11:44:33.441Z</time></trkpt><trkpt lat="42.8358867" lon="11.5888921"><ele>730.0</ele><time>2026-04-11T11:44:34.442Z</time></trkpt><trkpt lat="42.835791" lon="11.588916"><ele>730.0</ele><time>2026-04-11T11:44:35.44Z</time></trkpt><trkpt lat="42.8356818" lon="11.5889303"><ele>726.75</ele><time>2026-04-11T11:44:36.441Z</time></trkpt><trkpt lat="42.8355664" lon="11.5889409"><ele>723.5</ele><time>2026-04-11T11:44:37.433Z</time></trkpt><trkpt lat="42.8354413" lon="11.588894"><ele>720.25</ele><time>2026-04-11T11:44:38.445Z</time></trkpt><trkpt lat="42.8352902" lon="11.5888262"><ele>717.0</ele><time>2026-04-11T11:44:39.44Z</time></trkpt><trkpt lat="42.8351621" lon="11.5887433"><ele>715.3333333333334</ele><time>2026-04-11T11:44:40.443Z</time></trkpt><trkpt lat="42.8350369" lon="11.5886591"><ele>713.6666666666667</ele><time>2026-04-11T11:44:41.448Z</time></trkpt><trkpt lat="42.834901" lon="11.5885573"><ele>712.0</ele><time>2026-04-11T11:44:42.451Z</time></trkpt><trkpt lat="42.8347479" lon="11.588457"><ele>712.0</ele><time>2026-04-11T11:44:43.451Z</time></trkpt><trkpt lat="42.8346187" lon="11.5883901"><ele>712.0</ele><time>2026-04-11T11:44:44.443Z</time></trkpt><trkpt lat="42.8344913" lon="11.5883324"><ele>712.0</ele><time>2026-04-11T11:44:45.443Z</time></trkpt><trkpt lat="42.8343461" lon="11.5882479"><ele>712.0</ele><time>2026-04-11T11:44:46.451Z</time></trkpt><trkpt lat="42.8342191" lon="11.5881826"><ele>710.0</ele><time>2026-04-11T11:44:47.454Z</time></trkpt><trkpt lat="42.8340937" lon="11.5881309"><ele>708.0</ele><time>2026-04-11T11:44:48.445Z</time></trkpt><trkpt lat="42.8339989" lon="11.5880546"><ele>706.0</ele><time>2026-04-11T11:44:49.453Z</time></trkpt><trkpt lat="42.8338949" lon="11.5879817"><ele>704.0</ele><time>2026-04-11T11:44:50.459Z</time></trkpt><trkpt lat="42.8337817" lon="11.5879021"><ele>704.0</ele><time>2026-04-11T11:44:51.452Z</time></trkpt><trkpt lat="42.8336758" lon="11.5878533"><ele>704.0</ele><time>2026-04-11T11:44:52.456Z</time></trkpt><trkpt lat="42.8335737" lon="11.5878005"><ele>704.0</ele><time>2026-04-11T11:44:53.461Z</time></trkpt><trkpt lat="42.8334934" lon="11.5877449"><ele>704.0</ele><time>2026-04-11T11:44:54.451Z</time></trkpt><trkpt lat="42.833399" lon="11.5876992"><ele>704.0</ele><time>2026-04-11T11:44:55.451Z</time></trkpt><trkpt lat="42.8333061" lon="11.5876635"><ele>701.75</ele><time>2026-04-11T11:44:56.657Z</time></trkpt><trkpt lat="42.8331303" lon="11.5878366"><ele>699.5</ele><time>2026-04-11T11:44:58.419Z</time></trkpt><trkpt lat="42.8330535" lon="11.5879383"><ele>697.25</ele><time>2026-04-11T11:44:59.418Z</time></trkpt><trkpt lat="42.8329865" lon="11.5880611"><ele>695.0</ele><time>2026-04-11T11:45:00.43Z</time></trkpt><trkpt lat="42.832947" lon="11.5882073"><ele>695.0</ele><time>2026-04-11T11:45:01.509Z</time></trkpt><trkpt lat="42.8329376" lon="11.5883628"><ele>695.0</ele><time>2026-04-11T11:45:02.434Z</time></trkpt><trkpt lat="42.8329342" lon="11.5885091"><ele>695.0</ele><time>2026-04-11T11:45:03.437Z</time></trkpt><trkpt lat="42.8329311" lon="11.5886424"><ele>695.0</ele><time>2026-04-11T11:45:04.426Z</time></trkpt><trkpt lat="42.8329022" lon="11.588766"><ele>695.0</ele><time>2026-04-11T11:45:05.43Z</time></trkpt><trkpt lat="42.8328574" lon="11.588892"><ele>695.0</ele><time>2026-04-11T11:45:06.42Z</time></trkpt><trkpt lat="42.8328082" lon="11.5890008"><ele>695.0</ele><time>2026-04-11T11:45:07.426Z</time></trkpt><trkpt lat="42.8327683" lon="11.5890717"><ele>695.0</ele><time>2026-04-11T11:45:08.418Z</time></trkpt><trkpt lat="42.8327039" lon="11.5891618"><ele>695.0</ele><time>2026-04-11T11:45:10.421Z</time></trkpt><trkpt lat="42.8326499" lon="11.5892062"><ele>695.0</ele><time>2026-04-11T11:45:11.411Z</time></trkpt><trkpt lat="42.8325745" lon="11.58927"><ele>695.0</ele><time>2026-04-11T11:45:12.418Z</time></trkpt><trkpt lat="42.8324874" lon="11.5893258"><ele>692.5</ele><time>2026-04-11T11:45:13.42Z</time></trkpt><trkpt lat="42.8323832" lon="11.5893906"><ele>690.0</ele><time>2026-04-11T11:45:14.415Z</time></trkpt><trkpt lat="42.8322611" lon="11.5894547"><ele>687.5</ele><time>2026-04-11T11:45:15.42Z</time></trkpt><trkpt lat="42.8321387" lon="11.5895379"><ele>685.0</ele><time>2026-04-11T11:45:16.422Z</time></trkpt><trkpt lat="42.83202" lon="11.589631"><ele>684.0</ele><time>2026-04-11T11:45:17.411Z</time></trkpt><trkpt lat="42.8319219" lon="11.5897369"><ele>683.0</ele><time>2026-04-11T11:45:18.417Z</time></trkpt><trkpt lat="42.8318634" lon="11.5898722"><ele>682.0</ele><time>2026-04-11T11:45:19.423Z</time></trkpt><trkpt lat="42.8318278" lon="11.5900227"><ele>681.0</ele><time>2026-04-11T11:45:20.427Z</time></trkpt><trkpt lat="42.8318221" lon="11.5901922"><ele>677.6666666666666</ele><time>2026-04-11T11:45:21.431Z</time></trkpt><trkpt lat="42.8318715" lon="11.5903416"><ele>674.3333333333333</ele><time>2026-04-11T11:45:22.433Z</time></trkpt><trkpt lat="42.8319879" lon="11.5904835"><ele>671.0</ele><time>2026-04-11T11:45:23.417Z</time></trkpt><trkpt lat="42.8321315" lon="11.5906236"><ele>671.0</ele><time>2026-04-11T11:45:24.426Z</time></trkpt><trkpt lat="42.8322656" lon="11.5907769"><ele>671.0</ele><time>2026-04-11T11:45:25.424Z</time></trkpt><trkpt lat="42.8324354" lon="11.5909268"><ele>671.0</ele><time>2026-04-11T11:45:26.429Z</time></trkpt><trkpt lat="42.8325627" lon="11.5911256"><ele>669.5</ele><time>2026-04-11T11:45:27.416Z</time></trkpt><trkpt lat="42.8325749" lon="11.5913701"><ele>668.0</ele><time>2026-04-11T11:45:28.426Z</time></trkpt><trkpt lat="42.8325766" lon="11.5915589"><ele>666.5</ele><time>2026-04-11T11:45:29.431Z</time></trkpt><trkpt lat="42.8325592" lon="11.5917328"><ele>665.0</ele><time>2026-04-11T11:45:30.429Z</time></trkpt><trkpt lat="42.832508" lon="11.5918965"><ele>666.0</ele><time>2026-04-11T11:45:31.43Z</time></trkpt><trkpt lat="42.8324315" lon="11.592051"><ele>667.0</ele><time>2026-04-11T11:45:32.445Z</time></trkpt><trkpt lat="42.8322997" lon="11.592198"><ele>668.0</ele><time>2026-04-11T11:45:33.431Z</time></trkpt><trkpt lat="42.8321599" lon="11.5923211"><ele>668.0</ele><time>2026-04-11T11:45:34.44Z</time></trkpt><trkpt lat="42.8320259" lon="11.5924274"><ele>668.0</ele><time>2026-04-11T11:45:35.429Z</time></trkpt><trkpt lat="42.8319201" lon="11.5925559"><ele>668.0</ele><time>2026-04-11T11:45:36.42Z</time></trkpt><trkpt lat="42.831832" lon="11.5927291"><ele>666.5</ele><time>2026-04-11T11:45:37.428Z</time></trkpt><trkpt lat="42.8317718" lon="11.5929162"><ele>665.0</ele><time>2026-04-11T11:45:38.422Z</time></trkpt><trkpt lat="42.8317588" lon="11.5930565"><ele>663.5</ele><time>2026-04-11T11:45:39.41Z</time></trkpt><trkpt lat="42.8318133" lon="11.5932176"><ele>662.0</ele><time>2026-04-11T11:45:40.425Z</time></trkpt><trkpt lat="42.8319047" lon="11.5934739"><ele>660.3333333333333</ele><time>2026-04-11T11:45:41.412Z</time></trkpt><trkpt lat="42.8319886" lon="11.5937386"><ele>658.6666666666666</ele><time>2026-04-11T11:45:42.427Z</time></trkpt><trkpt lat="42.8320522" lon="11.5939951"><ele>657.0</ele><time>2026-04-11T11:45:43.432Z</time></trkpt><trkpt lat="42.8320316" lon="11.5942431"><ele>657.3333333333334</ele><time>2026-04-11T11:45:44.434Z</time></trkpt><trkpt lat="42.8320051" lon="11.5945077"><ele>657.6666666666667</ele><time>2026-04-11T11:45:45.427Z</time></trkpt><trkpt lat="42.8319478" lon="11.5947205"><ele>658.0</ele><time>2026-04-11T11:45:46.43Z</time></trkpt><trkpt lat="42.8318536" lon="11.594951"><ele>651.3333333333334</ele><time>2026-04-11T11:45:47.433Z</time></trkpt><trkpt lat="42.83174" lon="11.5951476"><ele>644.6666666666666</ele><time>2026-04-11T11:45:48.427Z</time></trkpt><trkpt lat="42.8316301" lon="11.595314"><ele>638.0</ele><time>2026-04-11T11:45:49.425Z</time></trkpt><trkpt lat="42.8314869" lon="11.5954936"><ele>638.0</ele><time>2026-04-11T11:45:50.444Z</time></trkpt><trkpt lat="42.8314004" lon="11.5956614"><ele>638.0</ele><time>2026-04-11T11:45:51.438Z</time></trkpt><trkpt lat="42.8313424" lon="11.5958281"><ele>638.0</ele><time>2026-04-11T11:45:52.43Z</time></trkpt><trkpt lat="42.8313321" lon="11.5960288"><ele>638.0</ele><time>2026-04-11T11:45:53.433Z</time></trkpt><trkpt lat="42.8313502" lon="11.5962895"><ele>637.0</ele><time>2026-04-11T11:45:54.429Z</time></trkpt><trkpt lat="42.8313567" lon="11.5964728"><ele>636.0</ele><time>2026-04-11T11:45:55.422Z</time></trkpt><trkpt lat="42.831372" lon="11.5966654"><ele>635.0</ele><time>2026-04-11T11:45:56.418Z</time></trkpt><trkpt lat="42.8313771" lon="11.5968378"><ele>634.0</ele><time>2026-04-11T11:45:57.451Z</time></trkpt><trkpt lat="42.8313564" lon="11.5969312"><ele>634.0</ele><time>2026-04-11T11:45:58.432Z</time></trkpt><trkpt lat="42.8312552" lon="11.5969845"><ele>634.0</ele><time>2026-04-11T11:45:59.433Z</time></trkpt><trkpt lat="42.8311563" lon="11.5969765"><ele>634.0</ele><time>2026-04-11T11:46:00.43Z</time></trkpt><trkpt lat="42.8310517" lon="11.5969129"><ele>634.0</ele><time>2026-04-11T11:46:01.416Z</time></trkpt><trkpt lat="42.8309962" lon="11.596823"><ele>634.0</ele><time>2026-04-11T11:46:02.412Z</time></trkpt><trkpt lat="42.8309768" lon="11.5966767"><ele>634.0</ele><time>2026-04-11T11:46:03.399Z</time></trkpt><trkpt lat="42.8309856" lon="11.5964935"><ele>634.0</ele><time>2026-04-11T11:46:04.404Z</time></trkpt><trkpt lat="42.8309784" lon="11.596261"><ele>634.0</ele><time>2026-04-11T11:46:05.429Z</time></trkpt><trkpt lat="42.8309668" lon="11.5959848"><ele>635.5</ele><time>2026-04-11T11:46:06.423Z</time></trkpt><trkpt lat="42.8309691" lon="11.5955154"><ele>637.0</ele><time>2026-04-11T11:46:07.43Z</time></trkpt><trkpt lat="42.8309973" lon="11.5952301"><ele>637.0</ele><time>2026-04-11T11:46:08.429Z</time></trkpt><trkpt lat="42.8309927" lon="11.5949528"><ele>637.0</ele><time>2026-04-11T11:46:09.436Z</time></trkpt><trkpt lat="42.8309779" lon="11.5947476"><ele>637.0</ele><time>2026-04-11T11:46:10.435Z</time></trkpt><trkpt lat="42.8309841" lon="11.5945935"><ele>633.8000000000001</ele><time>2026-04-11T11:46:11.427Z</time></trkpt><trkpt lat="42.830963" lon="11.5944834"><ele>630.6</ele><time>2026-04-11T11:46:12.426Z</time></trkpt><trkpt lat="42.830905" lon="11.5944158"><ele>627.4000000000001</ele><time>2026-04-11T11:46:13.431Z</time></trkpt><trkpt lat="42.8308339" lon="11.5943319"><ele>624.2</ele><time>2026-04-11T11:46:14.43Z</time></trkpt><trkpt lat="42.8307245" lon="11.5943852"><ele>621.0</ele><time>2026-04-11T11:46:15.406Z</time></trkpt><trkpt lat="42.8305806" lon="11.5944376"><ele>620.3333333333334</ele><time>2026-04-11T11:46:16.412Z</time></trkpt><trkpt lat="42.8304441" lon="11.5945374"><ele>619.6666666666667</ele><time>2026-04-11T11:46:17.415Z</time></trkpt><trkpt lat="42.8303893" lon="11.5947409"><ele>619.0</ele><time>2026-04-11T11:46:18.412Z</time></trkpt><trkpt lat="42.8303679" lon="11.5949838"><ele>619.0</ele><time>2026-04-11T11:46:19.423Z</time></trkpt><trkpt lat="42.83037" lon="11.5953036"><ele>619.0</ele><time>2026-04-11T11:46:20.432Z</time></trkpt><trkpt lat="42.8303256" lon="11.5955502"><ele>619.0</ele><time>2026-04-11T11:46:21.437Z</time></trkpt><trkpt lat="42.8302788" lon="11.5957814"><ele>619.0</ele><time>2026-04-11T11:46:22.431Z</time></trkpt><trkpt lat="42.8302005" lon="11.5960181"><ele>619.0</ele><time>2026-04-11T11:46:23.433Z</time></trkpt><trkpt lat="42.8301172" lon="11.5962329"><ele>619.0</ele><time>2026-04-11T11:46:24.435Z</time></trkpt><trkpt lat="42.8300211" lon="11.5964248"><ele>614.0</ele><time>2026-04-11T11:46:25.432Z</time></trkpt><trkpt lat="42.8299427" lon="11.5966119"><ele>609.0</ele><time>2026-04-11T11:46:26.435Z</time></trkpt><trkpt lat="42.8298579" lon="11.5968034"><ele>604.0</ele><time>2026-04-11T11:46:27.428Z</time></trkpt><trkpt lat="42.8297978" lon="11.5969942"><ele>603.0</ele><time>2026-04-11T11:46:28.426Z</time></trkpt><trkpt lat="42.8297331" lon="11.5971371"><ele>602.0</ele><time>2026-04-11T11:46:29.419Z</time></trkpt><trkpt lat="42.8296769" lon="11.5972505"><ele>601.0</ele><time>2026-04-11T11:46:30.415Z</time></trkpt><trkpt lat="42.8295684" lon="11.5973322"><ele>600.0</ele><time>2026-04-11T11:46:31.43Z</time></trkpt><trkpt lat="42.8294329" lon="11.5973615"><ele>598.0</ele><time>2026-04-11T11:46:32.431Z</time></trkpt><trkpt lat="42.8292908" lon="11.597307"><ele>596.0</ele><time>2026-04-11T11:46:33.423Z</time></trkpt><trkpt lat="42.8291962" lon="11.5972262"><ele>594.0</ele><time>2026-04-11T11:46:34.415Z</time></trkpt><trkpt lat="42.8290751" lon="11.5970897"><ele>592.0</ele><time>2026-04-11T11:46:35.422Z</time></trkpt><trkpt lat="42.8289958" lon="11.5969013"><ele>592.0</ele><time>2026-04-11T11:46:36.431Z</time></trkpt><trkpt lat="42.8289359" lon="11.5966486"><ele>592.0</ele><time>2026-04-11T11:46:37.447Z</time></trkpt><trkpt lat="42.82884" lon="11.5964204"><ele>592.0</ele><time>2026-04-11T11:46:38.434Z</time></trkpt><trkpt lat="42.8287538" lon="11.5962051"><ele>592.0</ele><time>2026-04-11T11:46:39.443Z</time></trkpt><trkpt lat="42.8286833" lon="11.5959866"><ele>592.0</ele><time>2026-04-11T11:46:40.44Z</time></trkpt><trkpt lat="42.8286189" lon="11.5957695"><ele>592.0</ele><time>2026-04-11T11:46:41.445Z</time></trkpt><trkpt lat="42.8285735" lon="11.5955536"><ele>591.6666666666667</ele><time>2026-04-11T11:46:42.445Z</time></trkpt><trkpt lat="42.8285146" lon="11.5953186"><ele>591.3333333333334</ele><time>2026-04-11T11:46:43.445Z</time></trkpt><trkpt lat="42.8284824" lon="11.5951019"><ele>591.0</ele><time>2026-04-11T11:46:44.449Z</time></trkpt><trkpt lat="42.8284158" lon="11.5948783"><ele>586.0</ele><time>2026-04-11T11:46:45.451Z</time></trkpt><trkpt lat="42.8283351" lon="11.5946417"><ele>581.0</ele><time>2026-04-11T11:46:46.442Z</time></trkpt><trkpt lat="42.8282593" lon="11.5944361"><ele>576.0</ele><time>2026-04-11T11:46:47.441Z</time></trkpt><trkpt lat="42.8281599" lon="11.5942193"><ele>576.0</ele><time>2026-04-11T11:46:48.431Z</time></trkpt><trkpt lat="42.828013" lon="11.5940959"><ele>576.0</ele><time>2026-04-11T11:46:49.425Z</time></trkpt><trkpt lat="42.8278795" lon="11.5939729"><ele>576.0</ele><time>2026-04-11T11:46:50.449Z</time></trkpt><trkpt lat="42.827735" lon="11.5938362"><ele>573.6666666666666</ele><time>2026-04-11T11:46:51.437Z</time></trkpt><trkpt lat="42.8275583" lon="11.5937006"><ele>571.3333333333333</ele><time>2026-04-11T11:46:52.436Z</time></trkpt><trkpt lat="42.8274034" lon="11.5935528"><ele>569.0</ele><time>2026-04-11T11:46:53.444Z</time></trkpt><trkpt lat="42.8272364" lon="11.593406"><ele>569.0</ele><time>2026-04-11T11:46:54.436Z</time></trkpt><trkpt lat="42.8270537" lon="11.5932537"><ele>569.0</ele><time>2026-04-11T11:46:55.431Z</time></trkpt><trkpt lat="42.8268863" lon="11.5931371"><ele>569.0</ele><time>2026-04-11T11:46:56.435Z</time></trkpt><trkpt lat="42.8266954" lon="11.5931651"><ele>565.6666666666666</ele><time>2026-04-11T11:46:57.437Z</time></trkpt><trkpt lat="42.8265362" lon="11.5930952"><ele>562.3333333333334</ele><time>2026-04-11T11:46:58.423Z</time></trkpt><trkpt lat="42.8264123" lon="11.5930035"><ele>559.0</ele><time>2026-04-11T11:46:59.447Z</time></trkpt><trkpt lat="42.8263017" lon="11.5928666"><ele>560.0</ele><time>2026-04-11T11:47:00.43Z</time></trkpt><trkpt lat="42.8262195" lon="11.5927344"><ele>561.0</ele><time>2026-04-11T11:47:01.431Z</time></trkpt><trkpt lat="42.826129" lon="11.5925646"><ele>562.0</ele><time>2026-04-11T11:47:02.435Z</time></trkpt><trkpt lat="42.826021" lon="11.5923992"><ele>563.0</ele><time>2026-04-11T11:47:03.424Z</time></trkpt><trkpt lat="42.8258834" lon="11.5922985"><ele>559.3333333333333</ele><time>2026-04-11T11:47:04.437Z</time></trkpt><trkpt lat="42.8257634" lon="11.5922103"><ele>555.6666666666666</ele><time>2026-04-11T11:47:05.423Z</time></trkpt><trkpt lat="42.8255903" lon="11.5921286"><ele>552.0</ele><time>2026-04-11T11:47:06.436Z</time></trkpt><trkpt lat="42.8254022" lon="11.5920884"><ele>552.0</ele><time>2026-04-11T11:47:07.429Z</time></trkpt><trkpt lat="42.8252376" lon="11.592056"><ele>552.0</ele><time>2026-04-11T11:47:08.437Z</time></trkpt><trkpt lat="42.8250553" lon="11.591999"><ele>552.0</ele><time>2026-04-11T11:47:09.441Z</time></trkpt><trkpt lat="42.8248801" lon="11.5919292"><ele>551.0</ele><time>2026-04-11T11:47:10.437Z</time></trkpt><trkpt lat="42.8247413" lon="11.5918131"><ele>550.0</ele><time>2026-04-11T11:47:11.443Z</time></trkpt><trkpt lat="42.8246343" lon="11.5916848"><ele>549.0</ele><time>2026-04-11T11:47:12.44Z</time></trkpt><trkpt lat="42.8245445" lon="11.5915816"><ele>548.0</ele><time>2026-04-11T11:47:13.437Z</time></trkpt><trkpt lat="42.8244561" lon="11.5915303"><ele>548.0</ele><time>2026-04-11T11:47:14.434Z</time></trkpt><trkpt lat="42.8243278" lon="11.591572"><ele>548.0</ele><time>2026-04-11T11:47:15.432Z</time></trkpt><trkpt lat="42.8242418" lon="11.5917019"><ele>548.0</ele><time>2026-04-11T11:47:16.417Z</time></trkpt><trkpt lat="42.8241864" lon="11.5918439"><ele>548.0</ele><time>2026-04-11T11:47:17.447Z</time></trkpt><trkpt lat="42.8241346" lon="11.5920254"><ele>545.75</ele><time>2026-04-11T11:47:18.432Z</time></trkpt><trkpt lat="42.824085" lon="11.5922221"><ele>543.5</ele><time>2026-04-11T11:47:19.438Z</time></trkpt><trkpt lat="42.8240126" lon="11.5923793"><ele>541.25</ele><time>2026-04-11T11:47:20.442Z</time></trkpt><trkpt lat="42.8239365" lon="11.5925523"><ele>539.0</ele><time>2026-04-11T11:47:21.439Z</time></trkpt><trkpt lat="42.8238551" lon="11.5927149"><ele>539.0</ele><time>2026-04-11T11:47:22.429Z</time></trkpt><trkpt lat="42.8237949" lon="11.5928265"><ele>539.0</ele><time>2026-04-11T11:47:23.433Z</time></trkpt><trkpt lat="42.8237091" lon="11.5929348"><ele>539.0</ele><time>2026-04-11T11:47:24.432Z</time></trkpt><trkpt lat="42.8235949" lon="11.5930191"><ele>539.0</ele><time>2026-04-11T11:47:25.436Z</time></trkpt><trkpt lat="42.8234761" lon="11.5930754"><ele>540.25</ele><time>2026-04-11T11:47:26.433Z</time></trkpt><trkpt lat="42.8233447" lon="11.593081"><ele>541.5</ele><time>2026-04-11T11:47:27.431Z</time></trkpt><trkpt lat="42.8232054" lon="11.5930472"><ele>542.75</ele><time>2026-04-11T11:47:28.444Z</time></trkpt><trkpt lat="42.8230695" lon="11.5930013"><ele>544.0</ele><time>2026-04-11T11:47:29.437Z</time></trkpt><trkpt lat="42.8229302" lon="11.5929107"><ele>544.0</ele><time>2026-04-11T11:47:30.448Z</time></trkpt><trkpt lat="42.8227789" lon="11.5928537"><ele>544.0</ele><time>2026-04-11T11:47:31.427Z</time></trkpt><trkpt lat="42.8226752" lon="11.5928301"><ele>544.0</ele><time>2026-04-11T11:47:32.437Z</time></trkpt><trkpt lat="42.8225321" lon="11.5928193"><ele>544.0</ele><time>2026-04-11T11:47:33.432Z</time></trkpt><trkpt lat="42.8224059" lon="11.592812"><ele>541.75</ele><time>2026-04-11T11:47:34.437Z</time></trkpt><trkpt lat="42.8222723" lon="11.5927993"><ele>539.5</ele><time>2026-04-11T11:47:35.431Z</time></trkpt><trkpt lat="42.8221292" lon="11.5927793"><ele>537.25</ele><time>2026-04-11T11:47:36.423Z</time></trkpt><trkpt lat="42.8220204" lon="11.5927881"><ele>535.0</ele><time>2026-04-11T11:47:37.42Z</time></trkpt><trkpt lat="42.8219196" lon="11.5927966"><ele>535.0</ele><time>2026-04-11T11:47:38.418Z</time></trkpt><trkpt lat="42.8218202" lon="11.5928042"><ele>535.0</ele><time>2026-04-11T11:47:39.426Z</time></trkpt><trkpt lat="42.8217266" lon="11.5928065"><ele>535.0</ele><time>2026-04-11T11:47:40.425Z</time></trkpt><trkpt lat="42.8216402" lon="11.5928018"><ele>535.0</ele><time>2026-04-11T11:47:41.428Z</time></trkpt><trkpt lat="42.8215534" lon="11.5927983"><ele>535.0</ele><time>2026-04-11T11:47:42.428Z</time></trkpt><trkpt lat="42.8214677" lon="11.5927914"><ele>534.0</ele><time>2026-04-11T11:47:43.428Z</time></trkpt><trkpt lat="42.8213714" lon="11.5927831"><ele>533.0</ele><time>2026-04-11T11:47:44.438Z</time></trkpt><trkpt lat="42.8212752" lon="11.5927803"><ele>532.0</ele><time>2026-04-11T11:47:45.433Z</time></trkpt><trkpt lat="42.8211906" lon="11.5927812"><ele>531.0</ele><time>2026-04-11T11:47:46.433Z</time></trkpt><trkpt lat="42.8211056" lon="11.5927844"><ele>530.0</ele><time>2026-04-11T11:47:47.44Z</time></trkpt><trkpt lat="42.8210205" lon="11.5927847"><ele>529.0</ele><time>2026-04-11T11:47:48.435Z</time></trkpt><trkpt lat="42.8209414" lon="11.5927935"><ele>528.5</ele><time>2026-04-11T11:47:49.44Z</time></trkpt><trkpt lat="42.8208621" lon="11.5928003"><ele>528.0</ele><time>2026-04-11T11:47:50.435Z</time></trkpt><trkpt lat="42.8207793" lon="11.5928074"><ele>527.5</ele><time>2026-04-11T11:47:51.437Z</time></trkpt><trkpt lat="42.8206962" lon="11.5928078"><ele>527.0</ele><time>2026-04-11T11:47:52.434Z</time></trkpt><trkpt lat="42.820622" lon="11.5928119"><ele>526.5</ele><time>2026-04-11T11:47:53.437Z</time></trkpt><trkpt lat="42.8205463" lon="11.5928087"><ele>526.0</ele><time>2026-04-11T11:47:54.434Z</time></trkpt><trkpt lat="42.8204696" lon="11.5928143"><ele>526.0</ele><time>2026-04-11T11:47:55.432Z</time></trkpt><trkpt lat="42.8203809" lon="11.5928196"><ele>526.0</ele><time>2026-04-11T11:47:56.428Z</time></trkpt><trkpt lat="42.8202862" lon="11.5928284"><ele>526.0</ele><time>2026-04-11T11:47:57.429Z</time></trkpt><trkpt lat="42.8201902" lon="11.59283"><ele>526.0</ele><time>2026-04-11T11:47:58.429Z</time></trkpt><trkpt lat="42.8201063" lon="11.5928372"><ele>526.0</ele><time>2026-04-11T11:47:59.425Z</time></trkpt><trkpt lat="42.8200229" lon="11.5928425"><ele>526.0</ele><time>2026-04-11T11:48:00.425Z</time></trkpt><trkpt lat="42.8199391" lon="11.5928526"><ele>527.6</ele><time>2026-04-11T11:48:01.434Z</time></trkpt><trkpt lat="42.8198595" lon="11.5928721"><ele>529.2</ele><time>2026-04-11T11:48:02.438Z</time></trkpt><trkpt lat="42.819721" lon="11.5928564"><ele>530.8</ele><time>2026-04-11T11:48:06.447Z</time></trkpt><trkpt lat="42.8197551" lon="11.5929435"><ele>532.4</ele><time>2026-04-11T11:48:29.448Z</time></trkpt><trkpt lat="42.8197799" lon="11.5930517"><ele>534.0</ele><time>2026-04-11T11:48:31.439Z</time></trkpt><trkpt lat="42.8197458" lon="11.593165"><ele>534.0</ele><time>2026-04-11T11:48:35.444Z</time></trkpt><trkpt lat="42.8197207" lon="11.593251"><ele>534.0</ele><time>2026-04-11T11:48:37.45Z</time></trkpt><trkpt lat="42.8196798" lon="11.5933846"><ele>534.0</ele><time>2026-04-11T11:48:39.433Z</time></trkpt><trkpt lat="42.8196557" lon="11.5934876"><ele>534.0</ele><time>2026-04-11T11:48:40.426Z</time></trkpt><trkpt lat="42.8196417" lon="11.5936388"><ele>534.0</ele><time>2026-04-11T11:48:41.422Z</time></trkpt><trkpt lat="42.819625" lon="11.5937878"><ele>534.0</ele><time>2026-04-11T11:48:42.417Z</time></trkpt><trkpt lat="42.8196027" lon="11.593942"><ele>534.0</ele><time>2026-04-11T11:48:43.422Z</time></trkpt><trkpt lat="42.8195743" lon="11.5941068"><ele>534.0</ele><time>2026-04-11T11:48:44.403Z</time></trkpt><trkpt lat="42.819548" lon="11.5942793"><ele>534.0</ele><time>2026-04-11T11:48:45.403Z</time></trkpt><trkpt lat="42.8195232" lon="11.5944713"><ele>533.75</ele><time>2026-04-11T11:48:46.413Z</time></trkpt><trkpt lat="42.8195114" lon="11.5946423"><ele>533.5</ele><time>2026-04-11T11:48:47.416Z</time></trkpt><trkpt lat="42.8195158" lon="11.5948164"><ele>533.25</ele><time>2026-04-11T11:48:48.411Z</time></trkpt><trkpt lat="42.819566" lon="11.5949584"><ele>533.0</ele><time>2026-04-11T11:48:49.414Z</time></trkpt><trkpt lat="42.8196152" lon="11.5950999"><ele>533.0</ele><time>2026-04-11T11:48:50.413Z</time></trkpt><trkpt lat="42.8196807" lon="11.5952378"><ele>533.0</ele><time>2026-04-11T11:48:51.414Z</time></trkpt><trkpt lat="42.8197616" lon="11.5953752"><ele>533.0</ele><time>2026-04-11T11:48:52.409Z</time></trkpt><trkpt lat="42.8198374" lon="11.5955086"><ele>533.0</ele><time>2026-04-11T11:48:53.417Z</time></trkpt><trkpt lat="42.8199059" lon="11.595666"><ele>532.75</ele><time>2026-04-11T11:48:54.414Z</time></trkpt><trkpt lat="42.8199639" lon="11.5958305"><ele>532.5</ele><time>2026-04-11T11:48:55.423Z</time></trkpt><trkpt lat="42.8200249" lon="11.5959853"><ele>532.25</ele><time>2026-04-11T11:48:56.418Z</time></trkpt><trkpt lat="42.8200728" lon="11.5961367"><ele>532.0</ele><time>2026-04-11T11:48:57.41Z</time></trkpt><trkpt lat="42.8201147" lon="11.5962877"><ele>531.4</ele><time>2026-04-11T11:48:58.413Z</time></trkpt><trkpt lat="42.8201535" lon="11.5964261"><ele>530.8000000000001</ele><time>2026-04-11T11:48:59.41Z</time></trkpt><trkpt lat="42.8201525" lon="11.5965681"><ele>530.2</ele><time>2026-04-11T11:49:00.416Z</time></trkpt><trkpt lat="42.8201444" lon="11.5966907"><ele>529.6</ele><time>2026-04-11T11:49:01.42Z</time></trkpt><trkpt lat="42.8201293" lon="11.5968462"><ele>529.0</ele><time>2026-04-11T11:49:02.431Z</time></trkpt><trkpt lat="42.8201579" lon="11.5969766"><ele>530.4</ele><time>2026-04-11T11:49:03.412Z</time></trkpt><trkpt lat="42.8201958" lon="11.5971212"><ele>531.8</ele><time>2026-04-11T11:49:04.416Z</time></trkpt><trkpt lat="42.8202313" lon="11.5972412"><ele>533.2</ele><time>2026-04-11T11:49:05.421Z</time></trkpt><trkpt lat="42.8202651" lon="11.5973932"><ele>534.6</ele><time>2026-04-11T11:49:06.416Z</time></trkpt><trkpt lat="42.8202891" lon="11.597527"><ele>536.0</ele><time>2026-04-11T11:49:07.429Z</time></trkpt><trkpt lat="42.8202666" lon="11.5976473"><ele>536.0</ele><time>2026-04-11T11:49:08.432Z</time></trkpt><trkpt lat="42.820198" lon="11.5977614"><ele>536.0</ele><time>2026-04-11T11:49:09.431Z</time></trkpt><trkpt lat="42.8201227" lon="11.5978725"><ele>536.0</ele><time>2026-04-11T11:49:10.437Z</time></trkpt><trkpt lat="42.8200017" lon="11.597996"><ele>536.0</ele><time>2026-04-11T11:49:11.422Z</time></trkpt><trkpt lat="42.8198803" lon="11.5980827"><ele>536.75</ele><time>2026-04-11T11:49:12.419Z</time></trkpt><trkpt lat="42.8197524" lon="11.5981562"><ele>537.5</ele><time>2026-04-11T11:49:13.429Z</time></trkpt><trkpt lat="42.8196401" lon="11.5982397"><ele>538.25</ele><time>2026-04-11T11:49:14.426Z</time></trkpt><trkpt lat="42.8195188" lon="11.5983399"><ele>539.0</ele><time>2026-04-11T11:49:15.426Z</time></trkpt><trkpt lat="42.8194235" lon="11.5984293"><ele>539.0</ele><time>2026-04-11T11:49:16.415Z</time></trkpt><trkpt lat="42.8193406" lon="11.5985093"><ele>539.0</ele><time>2026-04-11T11:49:17.42Z</time></trkpt><trkpt lat="42.8192953" lon="11.5986304"><ele>539.0</ele><time>2026-04-11T11:49:18.411Z</time></trkpt><trkpt lat="42.819265" lon="11.5987853"><ele>539.0</ele><time>2026-04-11T11:49:19.413Z</time></trkpt><trkpt lat="42.8192556" lon="11.5989612"><ele>539.0</ele><time>2026-04-11T11:49:20.414Z</time></trkpt><trkpt lat="42.819254" lon="11.5991415"><ele>539.25</ele><time>2026-04-11T11:49:21.417Z</time></trkpt><trkpt lat="42.8192476" lon="11.5993233"><ele>539.5</ele><time>2026-04-11T11:49:22.417Z</time></trkpt><trkpt lat="42.8192451" lon="11.599502"><ele>539.75</ele><time>2026-04-11T11:49:23.412Z</time></trkpt><trkpt lat="42.8192262" lon="11.5996804"><ele>540.0</ele><time>2026-04-11T11:49:24.406Z</time></trkpt><trkpt lat="42.8192076" lon="11.5998352"><ele>540.0</ele><time>2026-04-11T11:49:25.404Z</time></trkpt><trkpt lat="42.8191782" lon="11.6000022"><ele>540.0</ele><time>2026-04-11T11:49:26.406Z</time></trkpt><trkpt lat="42.8191206" lon="11.6001593"><ele>540.0</ele><time>2026-04-11T11:49:27.41Z</time></trkpt><trkpt lat="42.8190593" lon="11.600305"><ele>540.0</ele><time>2026-04-11T11:49:28.417Z</time></trkpt><trkpt lat="42.8189993" lon="11.6004451"><ele>541.0</ele><time>2026-04-11T11:49:29.421Z</time></trkpt><trkpt lat="42.8189449" lon="11.6005987"><ele>542.0</ele><time>2026-04-11T11:49:30.419Z</time></trkpt><trkpt lat="42.8189143" lon="11.600749"><ele>543.0</ele><time>2026-04-11T11:49:31.42Z</time></trkpt><trkpt lat="42.8189076" lon="11.6008749"><ele>544.0</ele><time>2026-04-11T11:49:32.423Z</time></trkpt><trkpt lat="42.8189236" lon="11.6009706"><ele>545.0</ele><time>2026-04-11T11:49:33.439Z</time></trkpt><trkpt lat="42.8189392" lon="11.6010844"><ele>545.6</ele><time>2026-04-11T11:49:34.423Z</time></trkpt><trkpt lat="42.8189349" lon="11.6012184"><ele>546.2</ele><time>2026-04-11T11:49:35.428Z</time></trkpt><trkpt lat="42.8189077" lon="11.6013285"><ele>546.8</ele><time>2026-04-11T11:49:36.437Z</time></trkpt><trkpt lat="42.8188784" lon="11.601426"><ele>547.4</ele><time>2026-04-11T11:49:37.417Z</time></trkpt><trkpt lat="42.8188362" lon="11.6015591"><ele>548.0</ele><time>2026-04-11T11:49:38.424Z</time></trkpt><trkpt lat="42.8188188" lon="11.6017048"><ele>548.0</ele><time>2026-04-11T11:49:39.428Z</time></trkpt><trkpt lat="42.818811" lon="11.6018556"><ele>548.0</ele><time>2026-04-11T11:49:40.424Z</time></trkpt><trkpt lat="42.8188025" lon="11.6020018"><ele>548.0</ele><time>2026-04-11T11:49:41.437Z</time></trkpt><trkpt lat="42.8187873" lon="11.6021384"><ele>548.0</ele><time>2026-04-11T11:49:42.422Z</time></trkpt><trkpt lat="42.8187852" lon="11.6022714"><ele>548.0</ele><time>2026-04-11T11:49:43.424Z</time></trkpt><trkpt lat="42.8187991" lon="11.6024005"><ele>548.8</ele><time>2026-04-11T11:49:44.421Z</time></trkpt><trkpt lat="42.8188362" lon="11.602538"><ele>549.5999999999999</ele><time>2026-04-11T11:49:45.419Z</time></trkpt><trkpt lat="42.8188949" lon="11.6026764"><ele>550.4000000000001</ele><time>2026-04-11T11:49:46.422Z</time></trkpt><trkpt lat="42.818961" lon="11.6028105"><ele>551.2</ele><time>2026-04-11T11:49:47.426Z</time></trkpt><trkpt lat="42.8190074" lon="11.6029375"><ele>552.0</ele><time>2026-04-11T11:49:48.416Z</time></trkpt><trkpt lat="42.8190223" lon="11.6030614"><ele>552.5</ele><time>2026-04-11T11:49:49.416Z</time></trkpt><trkpt lat="42.8190096" lon="11.603194"><ele>553.0</ele><time>2026-04-11T11:49:50.424Z</time></trkpt><trkpt lat="42.818971" lon="11.6033433"><ele>553.5</ele><time>2026-04-11T11:49:51.415Z</time></trkpt><trkpt lat="42.8189055" lon="11.6034972"><ele>554.0</ele><time>2026-04-11T11:49:52.414Z</time></trkpt><trkpt lat="42.8188232" lon="11.6036571"><ele>555.25</ele><time>2026-04-11T11:49:53.418Z</time></trkpt><trkpt lat="42.8187499" lon="11.6038253"><ele>556.5</ele><time>2026-04-11T11:49:54.422Z</time></trkpt><trkpt lat="42.81869" lon="11.6039923"><ele>557.75</ele><time>2026-04-11T11:49:55.425Z</time></trkpt><trkpt lat="42.8186358" lon="11.6041549"><ele>559.0</ele><time>2026-04-11T11:49:56.421Z</time></trkpt><trkpt lat="42.8186036" lon="11.6043333"><ele>559.3333333333334</ele><time>2026-04-11T11:49:57.43Z</time></trkpt><trkpt lat="42.8185928" lon="11.6045426"><ele>559.6666666666666</ele><time>2026-04-11T11:49:58.427Z</time></trkpt><trkpt lat="42.8186001" lon="11.6047579"><ele>560.0</ele><time>2026-04-11T11:49:59.423Z</time></trkpt><trkpt lat="42.8186085" lon="11.6049519"><ele>560.0</ele><time>2026-04-11T11:50:00.427Z</time></trkpt><trkpt lat="42.8186283" lon="11.6051334"><ele>560.0</ele><time>2026-04-11T11:50:01.415Z</time></trkpt><trkpt lat="42.8186746" lon="11.6052925"><ele>560.0</ele><time>2026-04-11T11:50:02.411Z</time></trkpt><trkpt lat="42.8187407" lon="11.6054441"><ele>560.0</ele><time>2026-04-11T11:50:03.417Z</time></trkpt><trkpt lat="42.8187785" lon="11.6055451"><ele>559.0</ele><time>2026-04-11T11:50:04.427Z</time></trkpt><trkpt lat="42.8188274" lon="11.6056181"><ele>558.0</ele><time>2026-04-11T11:50:08.428Z</time></trkpt><trkpt lat="42.8188507" lon="11.6057036"><ele>557.0</ele><time>2026-04-11T11:50:11.431Z</time></trkpt><trkpt lat="42.8188152" lon="11.6058367"><ele>556.0</ele><time>2026-04-11T11:50:13.437Z</time></trkpt><trkpt lat="42.8187628" lon="11.6059533"><ele>555.0</ele><time>2026-04-11T11:50:15.433Z</time></trkpt><trkpt lat="42.8187139" lon="11.606069"><ele>554.0</ele><time>2026-04-11T11:50:17.425Z</time></trkpt><trkpt lat="42.8186659" lon="11.6061302"><ele>553.6666666666666</ele><time>2026-04-11T11:50:18.422Z</time></trkpt><trkpt lat="42.8186081" lon="11.6061847"><ele>553.3333333333333</ele><time>2026-04-11T11:50:19.419Z</time></trkpt><trkpt lat="42.8185516" lon="11.6062396"><ele>553.0</ele><time>2026-04-11T11:50:20.412Z</time></trkpt><trkpt lat="42.8184631" lon="11.6063414"><ele>552.6666666666666</ele><time>2026-04-11T11:50:22.416Z</time></trkpt><trkpt lat="42.8184196" lon="11.6064046"><ele>552.3333333333334</ele><time>2026-04-11T11:50:23.417Z</time></trkpt><trkpt lat="42.818377" lon="11.6064898"><ele>552.0</ele><time>2026-04-11T11:50:24.413Z</time></trkpt><trkpt lat="42.8183181" lon="11.6065636"><ele>551.7142857142858</ele><time>2026-04-11T11:50:25.423Z</time></trkpt><trkpt lat="42.8182508" lon="11.6066264"><ele>551.4285714285714</ele><time>2026-04-11T11:50:26.425Z</time></trkpt><trkpt lat="42.8181808" lon="11.6066608"><ele>551.1428571428571</ele><time>2026-04-11T11:50:27.429Z</time></trkpt><trkpt lat="42.8181099" lon="11.6066814"><ele>550.8571428571429</ele><time>2026-04-11T11:50:28.435Z</time></trkpt><trkpt lat="42.8180396" lon="11.6066897"><ele>550.5714285714286</ele><time>2026-04-11T11:50:29.428Z</time></trkpt><trkpt lat="42.8179671" lon="11.6067014"><ele>550.2857142857143</ele><time>2026-04-11T11:50:30.428Z</time></trkpt><trkpt lat="42.8179069" lon="11.6067295"><ele>550.0</ele><time>2026-04-11T11:50:31.425Z</time></trkpt><trkpt lat="42.8178429" lon="11.6067437"><ele>550.0</ele><time>2026-04-11T11:50:32.429Z</time></trkpt><trkpt lat="42.8177719" lon="11.6067777"><ele>550.0</ele><time>2026-04-11T11:50:33.409Z</time></trkpt><trkpt lat="42.8176994" lon="11.6068016"><ele>550.0</ele><time>2026-04-11T11:50:34.412Z</time></trkpt><trkpt lat="42.8176047" lon="11.6068347"><ele>550.0</ele><time>2026-04-11T11:50:35.424Z</time></trkpt><trkpt lat="42.8175092" lon="11.6068576"><ele>550.0</ele><time>2026-04-11T11:50:36.417Z</time></trkpt><trkpt lat="42.8174228" lon="11.606873"><ele>550.0</ele><time>2026-04-11T11:50:37.415Z</time></trkpt><trkpt lat="42.8173398" lon="11.6068905"><ele>550.0</ele><time>2026-04-11T11:50:38.428Z</time></trkpt><trkpt lat="42.8172505" lon="11.6068777"><ele>550.0</ele><time>2026-04-11T11:50:39.421Z</time></trkpt><trkpt lat="42.8171543" lon="11.6068752"><ele>550.0</ele><time>2026-04-11T11:50:40.428Z</time></trkpt><trkpt lat="42.8170503" lon="11.606904"><ele>550.0</ele><time>2026-04-11T11:50:41.422Z</time></trkpt><trkpt lat="42.8169372" lon="11.60695"><ele>550.0</ele><time>2026-04-11T11:50:42.425Z</time></trkpt><trkpt lat="42.8168398" lon="11.6070088"><ele>552.75</ele><time>2026-04-11T11:50:43.441Z</time></trkpt><trkpt lat="42.8167309" lon="11.6070717"><ele>555.5</ele><time>2026-04-11T11:50:44.415Z</time></trkpt><trkpt lat="42.8166227" lon="11.6071379"><ele>558.25</ele><time>2026-04-11T11:50:45.415Z</time></trkpt><trkpt lat="42.816521" lon="11.6072181"><ele>561.0</ele><time>2026-04-11T11:50:46.411Z</time></trkpt><trkpt lat="42.8164193" lon="11.6072849"><ele>561.0</ele><time>2026-04-11T11:50:47.416Z</time></trkpt><trkpt lat="42.8163204" lon="11.6073304"><ele>561.0</ele><time>2026-04-11T11:50:48.411Z</time></trkpt><trkpt lat="42.8162125" lon="11.6073411"><ele>561.0</ele><time>2026-04-11T11:50:49.403Z</time></trkpt><trkpt lat="42.8160948" lon="11.6073379"><ele>561.0</ele><time>2026-04-11T11:50:50.399Z</time></trkpt><trkpt lat="42.8160036" lon="11.6072843"><ele>561.0</ele><time>2026-04-11T11:50:51.396Z</time></trkpt><trkpt lat="42.8159215" lon="11.6071927"><ele>562.0</ele><time>2026-04-11T11:50:52.393Z</time></trkpt><trkpt lat="42.8158348" lon="11.607095"><ele>563.0</ele><time>2026-04-11T11:50:53.399Z</time></trkpt><trkpt lat="42.8157234" lon="11.6069891"><ele>564.0</ele><time>2026-04-11T11:50:54.4Z</time></trkpt><trkpt lat="42.815612" lon="11.6069272"><ele>565.0</ele><time>2026-04-11T11:50:55.404Z</time></trkpt><trkpt lat="42.8155019" lon="11.6069116"><ele>564.0</ele><time>2026-04-11T11:50:56.414Z</time></trkpt><trkpt lat="42.8154133" lon="11.6069436"><ele>563.0</ele><time>2026-04-11T11:50:57.427Z</time></trkpt><trkpt lat="42.8153191" lon="11.6069654"><ele>562.0</ele><time>2026-04-11T11:50:58.427Z</time></trkpt><trkpt lat="42.81522" lon="11.6069871"><ele>561.0</ele><time>2026-04-11T11:50:59.415Z</time></trkpt><trkpt lat="42.815128" lon="11.6070433"><ele>560.0</ele><time>2026-04-11T11:51:00.425Z</time></trkpt><trkpt lat="42.8150503" lon="11.6071045"><ele>560.0</ele><time>2026-04-11T11:51:01.409Z</time></trkpt><trkpt lat="42.8150151" lon="11.6072452"><ele>560.0</ele><time>2026-04-11T11:51:02.435Z</time></trkpt><trkpt lat="42.8150179" lon="11.60741"><ele>560.0</ele><time>2026-04-11T11:51:03.428Z</time></trkpt><trkpt lat="42.815019" lon="11.6075283"><ele>560.0</ele><time>2026-04-11T11:51:04.425Z</time></trkpt><trkpt lat="42.8149981" lon="11.607644"><ele>560.0</ele><time>2026-04-11T11:51:05.421Z</time></trkpt><trkpt lat="42.8149693" lon="11.6077485"><ele>562.2</ele><time>2026-04-11T11:51:06.43Z</time></trkpt><trkpt lat="42.8149327" lon="11.6078429"><ele>564.4</ele><time>2026-04-11T11:51:07.421Z</time></trkpt><trkpt lat="42.8148375" lon="11.6079087"><ele>566.6</ele><time>2026-04-11T11:51:09.416Z</time></trkpt><trkpt lat="42.8147308" lon="11.6079931"><ele>568.8</ele><time>2026-04-11T11:51:11.41Z</time></trkpt><trkpt lat="42.8146723" lon="11.6080506"><ele>571.0</ele><time>2026-04-11T11:51:12.408Z</time></trkpt><trkpt lat="42.8146082" lon="11.6081047"><ele>571.0</ele><time>2026-04-11T11:51:13.407Z</time></trkpt><trkpt lat="42.8145358" lon="11.6081716"><ele>571.0</ele><time>2026-04-11T11:51:14.411Z</time></trkpt><trkpt lat="42.8144778" lon="11.6082439"><ele>571.0</ele><time>2026-04-11T11:51:15.415Z</time></trkpt><trkpt lat="42.8144295" lon="11.6083693"><ele>571.0</ele><time>2026-04-11T11:51:16.407Z</time></trkpt><trkpt lat="42.814382" lon="11.6084804"><ele>571.0</ele><time>2026-04-11T11:51:17.41Z</time></trkpt><trkpt lat="42.8143234" lon="11.6085842"><ele>571.4</ele><time>2026-04-11T11:51:18.405Z</time></trkpt><trkpt lat="42.8142625" lon="11.6086939"><ele>571.8</ele><time>2026-04-11T11:51:19.404Z</time></trkpt><trkpt lat="42.8141999" lon="11.6088028"><ele>572.1999999999999</ele><time>2026-04-11T11:51:20.401Z</time></trkpt><trkpt lat="42.8141185" lon="11.6089074"><ele>572.6</ele><time>2026-04-11T11:51:21.4Z</time></trkpt><trkpt lat="42.8140384" lon="11.6090151"><ele>573.0</ele><time>2026-04-11T11:51:22.403Z</time></trkpt><trkpt lat="42.8139586" lon="11.6091196"><ele>573.0</ele><time>2026-04-11T11:51:23.41Z</time></trkpt><trkpt lat="42.8138759" lon="11.6091974"><ele>573.0</ele><time>2026-04-11T11:51:24.401Z</time></trkpt><trkpt lat="42.8137677" lon="11.6092391"><ele>573.0</ele><time>2026-04-11T11:51:25.404Z</time></trkpt><trkpt lat="42.8136678" lon="11.6092814"><ele>573.0</ele><time>2026-04-11T11:51:26.417Z</time></trkpt><trkpt lat="42.8135715" lon="11.6093337"><ele>573.0</ele><time>2026-04-11T11:51:27.418Z</time></trkpt><trkpt lat="42.8134866" lon="11.6093978"><ele>571.8333333333334</ele><time>2026-04-11T11:51:28.415Z</time></trkpt><trkpt lat="42.8134281" lon="11.6094777"><ele>570.6666666666666</ele><time>2026-04-11T11:51:29.417Z</time></trkpt><trkpt lat="42.81339" lon="11.6095707"><ele>569.5</ele><time>2026-04-11T11:51:30.409Z</time></trkpt><trkpt lat="42.8133682" lon="11.6096677"><ele>568.3333333333333</ele><time>2026-04-11T11:51:31.405Z</time></trkpt><trkpt lat="42.8133517" lon="11.6097664"><ele>567.1666666666666</ele><time>2026-04-11T11:51:32.418Z</time></trkpt><trkpt lat="42.8133333" lon="11.6098602"><ele>566.0</ele><time>2026-04-11T11:51:33.415Z</time></trkpt><trkpt lat="42.8133135" lon="11.6099895"><ele>566.0</ele><time>2026-04-11T11:51:35.425Z</time></trkpt><trkpt lat="42.8132616" lon="11.6100408"><ele>566.0</ele><time>2026-04-11T11:51:38.43Z</time></trkpt><trkpt lat="42.8131895" lon="11.6099534"><ele>566.0</ele><time>2026-04-11T11:51:41.445Z</time></trkpt><trkpt lat="42.813156" lon="11.6098779"><ele>566.0</ele><time>2026-04-11T11:51:43.441Z</time></trkpt><trkpt lat="42.8131217" lon="11.6097916"><ele>566.0</ele><time>2026-04-11T11:51:47.445Z</time></trkpt><trkpt lat="42.8130664" lon="11.6097247"><ele>566.0</ele><time>2026-04-11T11:51:56.439Z</time></trkpt><trkpt lat="42.8130056" lon="11.6097732"><ele>566.0</ele><time>2026-04-11T11:51:59.424Z</time></trkpt><trkpt lat="42.8129459" lon="11.6098293"><ele>566.0</ele><time>2026-04-11T11:52:02.43Z</time></trkpt><trkpt lat="42.8128585" lon="11.6098929"><ele>566.0</ele><time>2026-04-11T11:52:05.429Z</time></trkpt><trkpt lat="42.8127806" lon="11.6098976"><ele>566.0</ele><time>2026-04-11T11:52:07.442Z</time></trkpt><trkpt lat="42.8127112" lon="11.6098161"><ele>566.0</ele><time>2026-04-11T11:54:31.431Z</time></trkpt><trkpt lat="42.8126318" lon="11.6097185"><ele>566.0</ele><time>2026-04-11T11:54:33.427Z</time></trkpt><trkpt lat="42.812588" lon="11.6096486"><ele>566.0</ele><time>2026-04-11T11:54:34.414Z</time></trkpt><trkpt lat="42.8125452" lon="11.6095553"><ele>566.0</ele><time>2026-04-11T11:54:35.42Z</time></trkpt><trkpt lat="42.8124999" lon="11.609469"><ele>566.0</ele><time>2026-04-11T11:54:36.413Z</time></trkpt><trkpt lat="42.8124332" lon="11.6093747"><ele>566.0</ele><time>2026-04-11T11:54:37.41Z</time></trkpt><trkpt lat="42.8123335" lon="11.6093188"><ele>566.0</ele><time>2026-04-11T11:54:39.411Z</time></trkpt><trkpt lat="42.8122446" lon="11.6093781"><ele>566.0</ele><time>2026-04-11T11:54:41.403Z</time></trkpt><trkpt lat="42.8121657" lon="11.609455"><ele>565.5</ele><time>2026-04-11T11:54:43.396Z</time></trkpt><trkpt lat="42.8121193" lon="11.6095203"><ele>565.0</ele><time>2026-04-11T11:54:44.39Z</time></trkpt><trkpt lat="42.8120888" lon="11.6095999"><ele>564.5</ele><time>2026-04-11T11:54:45.395Z</time></trkpt><trkpt lat="42.8120614" lon="11.6097305"><ele>564.0</ele><time>2026-04-11T11:54:46.39Z</time></trkpt><trkpt lat="42.812021" lon="11.6098502"><ele>563.5</ele><time>2026-04-11T11:54:47.398Z</time></trkpt><trkpt lat="42.8120068" lon="11.6099862"><ele>563.0</ele><time>2026-04-11T11:54:48.395Z</time></trkpt><trkpt lat="42.8120038" lon="11.6101024"><ele>563.0</ele><time>2026-04-11T11:54:49.397Z</time></trkpt><trkpt lat="42.8119882" lon="11.610203"><ele>563.0</ele><time>2026-04-11T11:54:50.404Z</time></trkpt><trkpt lat="42.811976" lon="11.6102958"><ele>563.0</ele><time>2026-04-11T11:54:51.396Z</time></trkpt><trkpt lat="42.8119552" lon="11.6103866"><ele>563.0</ele><time>2026-04-11T11:54:52.401Z</time></trkpt><trkpt lat="42.8118629" lon="11.6105232"><ele>563.0</ele><time>2026-04-11T11:54:54.406Z</time></trkpt><trkpt lat="42.8117838" lon="11.6105889"><ele>563.0</ele><time>2026-04-11T11:54:55.402Z</time></trkpt><trkpt lat="42.8116984" lon="11.6106522"><ele>565.4</ele><time>2026-04-11T11:54:56.404Z</time></trkpt><trkpt lat="42.8116098" lon="11.6107263"><ele>567.8</ele><time>2026-04-11T11:54:57.403Z</time></trkpt><trkpt lat="42.8115239" lon="11.6108029"><ele>570.2</ele><time>2026-04-11T11:54:58.405Z</time></trkpt><trkpt lat="42.8114437" lon="11.6108824"><ele>572.6</ele><time>2026-04-11T11:54:59.407Z</time></trkpt><trkpt lat="42.8113755" lon="11.6109574"><ele>575.0</ele><time>2026-04-11T11:55:00.402Z</time></trkpt><trkpt lat="42.811309" lon="11.611018"><ele>575.0</ele><time>2026-04-11T11:55:01.397Z</time></trkpt><trkpt lat="42.8112292" lon="11.6110757"><ele>575.0</ele><time>2026-04-11T11:55:02.41Z</time></trkpt><trkpt lat="42.8111376" lon="11.611142"><ele>575.0</ele><time>2026-04-11T11:55:03.404Z</time></trkpt><trkpt lat="42.8110504" lon="11.6112122"><ele>575.0</ele><time>2026-04-11T11:55:04.402Z</time></trkpt><trkpt lat="42.8109628" lon="11.6112998"><ele>575.0</ele><time>2026-04-11T11:55:05.398Z</time></trkpt><trkpt lat="42.8108849" lon="11.6113981"><ele>576.25</ele><time>2026-04-11T11:55:06.393Z</time></trkpt><trkpt lat="42.8107969" lon="11.6115074"><ele>577.5</ele><time>2026-04-11T11:55:07.395Z</time></trkpt><trkpt lat="42.8107081" lon="11.6116097"><ele>578.75</ele><time>2026-04-11T11:55:08.396Z</time></trkpt><trkpt lat="42.8106179" lon="11.6117029"><ele>580.0</ele><time>2026-04-11T11:55:09.395Z</time></trkpt><trkpt lat="42.8105223" lon="11.6118115"><ele>580.0</ele><time>2026-04-11T11:55:10.4Z</time></trkpt><trkpt lat="42.810428" lon="11.6119378"><ele>580.0</ele><time>2026-04-11T11:55:11.394Z</time></trkpt><trkpt lat="42.8103409" lon="11.6120811"><ele>580.0</ele><time>2026-04-11T11:55:12.391Z</time></trkpt><trkpt lat="42.8102631" lon="11.6122178"><ele>580.0</ele><time>2026-04-11T11:55:13.406Z</time></trkpt><trkpt lat="42.8101951" lon="11.6123516"><ele>582.6</ele><time>2026-04-11T11:55:14.392Z</time></trkpt><trkpt lat="42.8101337" lon="11.612494"><ele>585.2</ele><time>2026-04-11T11:55:15.393Z</time></trkpt><trkpt lat="42.8100875" lon="11.6126343"><ele>587.8</ele><time>2026-04-11T11:55:16.389Z</time></trkpt><trkpt lat="42.8100428" lon="11.6127568"><ele>590.4</ele><time>2026-04-11T11:55:17.396Z</time></trkpt><trkpt lat="42.8100094" lon="11.6128955"><ele>593.0</ele><time>2026-04-11T11:55:18.408Z</time></trkpt><trkpt lat="42.8099886" lon="11.6130373"><ele>593.0</ele><time>2026-04-11T11:55:19.398Z</time></trkpt><trkpt lat="42.8099743" lon="11.6131826"><ele>593.0</ele><time>2026-04-11T11:55:20.404Z</time></trkpt><trkpt lat="42.8099499" lon="11.6133294"><ele>593.0</ele><time>2026-04-11T11:55:21.415Z</time></trkpt><trkpt lat="42.8099127" lon="11.6134553"><ele>593.0</ele><time>2026-04-11T11:55:22.406Z</time></trkpt><trkpt lat="42.8098608" lon="11.6135779"><ele>593.0</ele><time>2026-04-11T11:55:23.409Z</time></trkpt><trkpt lat="42.8098113" lon="11.6137029"><ele>592.0</ele><time>2026-04-11T11:55:24.411Z</time></trkpt><trkpt lat="42.8097762" lon="11.6138363"><ele>591.0</ele><time>2026-04-11T11:55:25.413Z</time></trkpt><trkpt lat="42.8097421" lon="11.6139759"><ele>590.0</ele><time>2026-04-11T11:55:26.41Z</time></trkpt><trkpt lat="42.8096922" lon="11.6141037"><ele>589.0</ele><time>2026-04-11T11:55:27.405Z</time></trkpt><trkpt lat="42.8096296" lon="11.6142321"><ele>588.0</ele><time>2026-04-11T11:55:28.409Z</time></trkpt><trkpt lat="42.8095628" lon="11.6143388"><ele>588.0</ele><time>2026-04-11T11:55:29.403Z</time></trkpt><trkpt lat="42.8094868" lon="11.6144319"><ele>588.0</ele><time>2026-04-11T11:55:30.406Z</time></trkpt><trkpt lat="42.8094003" lon="11.6145231"><ele>588.0</ele><time>2026-04-11T11:55:31.405Z</time></trkpt><trkpt lat="42.8093018" lon="11.6146009"><ele>588.0</ele><time>2026-04-11T11:55:32.408Z</time></trkpt><trkpt lat="42.8091889" lon="11.6146826"><ele>591.0</ele><time>2026-04-11T11:55:33.404Z</time></trkpt><trkpt lat="42.8090795" lon="11.6147727"><ele>594.0</ele><time>2026-04-11T11:55:34.406Z</time></trkpt><trkpt lat="42.8089775" lon="11.6148875"><ele>597.0</ele><time>2026-04-11T11:55:35.403Z</time></trkpt><trkpt lat="42.8088855" lon="11.6150036"><ele>600.0</ele><time>2026-04-11T11:55:36.396Z</time></trkpt><trkpt lat="42.8088122" lon="11.6151257"><ele>600.0</ele><time>2026-04-11T11:55:37.401Z</time></trkpt><trkpt lat="42.8087651" lon="11.6152504"><ele>600.0</ele><time>2026-04-11T11:55:38.39Z</time></trkpt><trkpt lat="42.8087725" lon="11.6153806"><ele>600.0</ele><time>2026-04-11T11:55:39.401Z</time></trkpt><trkpt lat="42.8087939" lon="11.6155228"><ele>600.0</ele><time>2026-04-11T11:55:40.406Z</time></trkpt><trkpt lat="42.8088331" lon="11.6156766"><ele>600.0</ele><time>2026-04-11T11:55:41.41Z</time></trkpt><trkpt lat="42.8088523" lon="11.6158404"><ele>599.0</ele><time>2026-04-11T11:55:42.412Z</time></trkpt><trkpt lat="42.8088313" lon="11.6160142"><ele>598.0</ele><time>2026-04-11T11:55:43.413Z</time></trkpt><trkpt lat="42.8087913" lon="11.6161857"><ele>597.0</ele><time>2026-04-11T11:55:44.425Z</time></trkpt><trkpt lat="42.808727" lon="11.616345"><ele>596.0</ele><time>2026-04-11T11:55:45.398Z</time></trkpt><trkpt lat="42.8086177" lon="11.6164768"><ele>600.3333333333333</ele><time>2026-04-11T11:55:46.408Z</time></trkpt><trkpt lat="42.8084663" lon="11.6165737"><ele>604.6666666666666</ele><time>2026-04-11T11:55:47.398Z</time></trkpt><trkpt lat="42.8082736" lon="11.6166708"><ele>609.0</ele><time>2026-04-11T11:55:48.396Z</time></trkpt><trkpt lat="42.8080826" lon="11.616783"><ele>609.0</ele><time>2026-04-11T11:55:49.394Z</time></trkpt><trkpt lat="42.8079265" lon="11.6169382"><ele>609.0</ele><time>2026-04-11T11:55:50.395Z</time></trkpt><trkpt lat="42.8077922" lon="11.6170844"><ele>609.0</ele><time>2026-04-11T11:55:51.399Z</time></trkpt><trkpt lat="42.8076746" lon="11.6171895"><ele>610.75</ele><time>2026-04-11T11:55:52.391Z</time></trkpt><trkpt lat="42.807559" lon="11.617264"><ele>612.5</ele><time>2026-04-11T11:55:53.383Z</time></trkpt><trkpt lat="42.8074293" lon="11.6173454"><ele>614.25</ele><time>2026-04-11T11:55:54.383Z</time></trkpt><trkpt lat="42.8072804" lon="11.6174322"><ele>616.0</ele><time>2026-04-11T11:55:55.378Z</time></trkpt><trkpt lat="42.8071273" lon="11.6175083"><ele>616.0</ele><time>2026-04-11T11:55:56.379Z</time></trkpt><trkpt lat="42.8069678" lon="11.6175975"><ele>616.0</ele><time>2026-04-11T11:55:57.378Z</time></trkpt><trkpt lat="42.8068099" lon="11.6176669"><ele>616.0</ele><time>2026-04-11T11:55:58.374Z</time></trkpt><trkpt lat="42.806679" lon="11.6176916"><ele>618.75</ele><time>2026-04-11T11:55:59.375Z</time></trkpt><trkpt lat="42.8065565" lon="11.617695"><ele>621.5</ele><time>2026-04-11T11:56:00.365Z</time></trkpt><trkpt lat="42.8064325" lon="11.6176933"><ele>624.25</ele><time>2026-04-11T11:56:01.372Z</time></trkpt><trkpt lat="42.8062979" lon="11.61769"><ele>627.0</ele><time>2026-04-11T11:56:02.375Z</time></trkpt><trkpt lat="42.8061855" lon="11.6176743"><ele>627.0</ele><time>2026-04-11T11:56:03.367Z</time></trkpt><trkpt lat="42.8060769" lon="11.617612"><ele>627.0</ele><time>2026-04-11T11:56:04.372Z</time></trkpt><trkpt lat="42.805966" lon="11.6175373"><ele>627.0</ele><time>2026-04-11T11:56:05.37Z</time></trkpt><trkpt lat="42.8058551" lon="11.6175061"><ele>627.0</ele><time>2026-04-11T11:56:06.374Z</time></trkpt><trkpt lat="42.8057516" lon="11.6175059"><ele>627.0</ele><time>2026-04-11T11:56:07.371Z</time></trkpt><trkpt lat="42.8056544" lon="11.6175324"><ele>627.0</ele><time>2026-04-11T11:56:08.371Z</time></trkpt><trkpt lat="42.8055643" lon="11.6175971"><ele>627.0</ele><time>2026-04-11T11:56:09.376Z</time></trkpt><trkpt lat="42.8054803" lon="11.6177038"><ele>627.0</ele><time>2026-04-11T11:56:10.377Z</time></trkpt><trkpt lat="42.8054005" lon="11.6178312"><ele>627.0</ele><time>2026-04-11T11:56:11.38Z</time></trkpt><trkpt lat="42.8053212" lon="11.6179707"><ele>627.0</ele><time>2026-04-11T11:56:12.38Z</time></trkpt><trkpt lat="42.8052478" lon="11.6181339"><ele>627.0</ele><time>2026-04-11T11:56:13.378Z</time></trkpt><trkpt lat="42.8051761" lon="11.6183047"><ele>627.0</ele><time>2026-04-11T11:56:14.384Z</time></trkpt><trkpt lat="42.8051229" lon="11.6184839"><ele>627.0</ele><time>2026-04-11T11:56:15.4Z</time></trkpt><trkpt lat="42.8050716" lon="11.6186405"><ele>629.75</ele><time>2026-04-11T11:56:16.391Z</time></trkpt><trkpt lat="42.80502" lon="11.6187773"><ele>632.5</ele><time>2026-04-11T11:56:17.394Z</time></trkpt><trkpt lat="42.8049641" lon="11.6189077"><ele>635.25</ele><time>2026-04-11T11:56:18.386Z</time></trkpt><trkpt lat="42.8049002" lon="11.6190429"><ele>638.0</ele><time>2026-04-11T11:56:19.386Z</time></trkpt><trkpt lat="42.8048235" lon="11.6191607"><ele>638.0</ele><time>2026-04-11T11:56:20.394Z</time></trkpt><trkpt lat="42.8047368" lon="11.6192598"><ele>638.0</ele><time>2026-04-11T11:56:21.387Z</time></trkpt><trkpt lat="42.8046456" lon="11.6193654"><ele>638.0</ele><time>2026-04-11T11:56:22.397Z</time></trkpt><trkpt lat="42.8045517" lon="11.6194738"><ele>638.0</ele><time>2026-04-11T11:56:23.401Z</time></trkpt><trkpt lat="42.8044451" lon="11.6195934"><ele>638.0</ele><time>2026-04-11T11:56:24.406Z</time></trkpt><trkpt lat="42.8043356" lon="11.6197058"><ele>638.0</ele><time>2026-04-11T11:56:25.402Z</time></trkpt><trkpt lat="42.8042183" lon="11.6198327"><ele>638.0</ele><time>2026-04-11T11:56:26.396Z</time></trkpt><trkpt lat="42.8041026" lon="11.6199693"><ele>638.0</ele><time>2026-04-11T11:56:27.398Z</time></trkpt><trkpt lat="42.8039938" lon="11.6202102"><ele>636.0</ele><time>2026-04-11T11:56:28.399Z</time></trkpt><trkpt lat="42.803882" lon="11.6204351"><ele>634.0</ele><time>2026-04-11T11:56:29.391Z</time></trkpt><trkpt lat="42.8037453" lon="11.6205313"><ele>632.0</ele><time>2026-04-11T11:56:30.392Z</time></trkpt><trkpt lat="42.8036578" lon="11.620579"><ele>630.0</ele><time>2026-04-11T11:56:31.393Z</time></trkpt><trkpt lat="42.803575" lon="11.620605"><ele>630.0</ele><time>2026-04-11T11:56:32.391Z</time></trkpt><trkpt lat="42.803542" lon="11.6207085"><ele>630.0</ele><time>2026-04-11T11:56:33.395Z</time></trkpt><trkpt lat="42.8034097" lon="11.6207155"><ele>630.0</ele><time>2026-04-11T11:56:34.394Z</time></trkpt><trkpt lat="42.8032986" lon="11.6207431"><ele>630.0</ele><time>2026-04-11T11:56:35.401Z</time></trkpt><trkpt lat="42.8031738" lon="11.6207873"><ele>632.2</ele><time>2026-04-11T11:56:36.4Z</time></trkpt><trkpt lat="42.8030973" lon="11.6208687"><ele>634.4</ele><time>2026-04-11T11:56:37.407Z</time></trkpt><trkpt lat="42.8030458" lon="11.6209658"><ele>636.5999999999999</ele><time>2026-04-11T11:56:38.402Z</time></trkpt><trkpt lat="42.8030057" lon="11.6210499"><ele>638.8</ele><time>2026-04-11T11:56:39.407Z</time></trkpt><trkpt lat="42.8029349" lon="11.6211505"><ele>641.0</ele><time>2026-04-11T11:56:41.413Z</time></trkpt><trkpt lat="42.8028743" lon="11.6212599"><ele>641.0</ele><time>2026-04-11T11:56:43.408Z</time></trkpt><trkpt lat="42.8027825" lon="11.6213508"><ele>641.0</ele><time>2026-04-11T11:56:45.403Z</time></trkpt><trkpt lat="42.802678" lon="11.6213887"><ele>641.0</ele><time>2026-04-11T11:56:47.401Z</time></trkpt><trkpt lat="42.802578" lon="11.6213201"><ele>641.0</ele><time>2026-04-11T11:56:48.389Z</time></trkpt><trkpt lat="42.8024774" lon="11.6212774"><ele>641.0</ele><time>2026-04-11T11:56:49.394Z</time></trkpt><trkpt lat="42.8023794" lon="11.6212248"><ele>641.5</ele><time>2026-04-11T11:56:50.396Z</time></trkpt><trkpt lat="42.8022712" lon="11.6211911"><ele>642.0</ele><time>2026-04-11T11:56:51.4Z</time></trkpt><trkpt lat="42.8021759" lon="11.621204"><ele>642.5</ele><time>2026-04-11T11:56:52.397Z</time></trkpt><trkpt lat="42.8020462" lon="11.6212476"><ele>643.0</ele><time>2026-04-11T11:56:53.392Z</time></trkpt><trkpt lat="42.8019368" lon="11.6213021"><ele>645.0</ele><time>2026-04-11T11:56:54.386Z</time></trkpt><trkpt lat="42.8018088" lon="11.6213938"><ele>647.0</ele><time>2026-04-11T11:56:55.387Z</time></trkpt><trkpt lat="42.8016956" lon="11.6214899"><ele>649.0</ele><time>2026-04-11T11:56:56.376Z</time></trkpt><trkpt lat="42.8015776" lon="11.6215853"><ele>651.0</ele><time>2026-04-11T11:56:57.38Z</time></trkpt><trkpt lat="42.8014621" lon="11.6216213"><ele>651.0</ele><time>2026-04-11T11:56:58.382Z</time></trkpt><trkpt lat="42.8013627" lon="11.6216592"><ele>651.0</ele><time>2026-04-11T11:56:59.375Z</time></trkpt><trkpt lat="42.8012615" lon="11.621622"><ele>651.0</ele><time>2026-04-11T11:57:00.373Z</time></trkpt><trkpt lat="42.801179" lon="11.6216209"><ele>651.0</ele><time>2026-04-11T11:57:01.367Z</time></trkpt><trkpt lat="42.801105" lon="11.6216212"><ele>651.0</ele><time>2026-04-11T11:57:02.37Z</time></trkpt><trkpt lat="42.8010406" lon="11.6216505"><ele>651.0</ele><time>2026-04-11T11:57:03.367Z</time></trkpt><trkpt lat="42.8009589" lon="11.6216277"><ele>650.8</ele><time>2026-04-11T11:57:04.373Z</time></trkpt><trkpt lat="42.8009048" lon="11.6217334"><ele>650.5999999999999</ele><time>2026-04-11T11:57:07.376Z</time></trkpt><trkpt lat="42.8008801" lon="11.6218361"><ele>650.4</ele><time>2026-04-11T11:57:08.381Z</time></trkpt><trkpt lat="42.8008333" lon="11.6219308"><ele>650.2</ele><time>2026-04-11T11:57:09.379Z</time></trkpt><trkpt lat="42.8007642" lon="11.6220798"><ele>650.0</ele><time>2026-04-11T11:57:10.381Z</time></trkpt><trkpt lat="42.8007007" lon="11.622178"><ele>650.0</ele><time>2026-04-11T11:57:11.379Z</time></trkpt><trkpt lat="42.8006341" lon="11.6222364"><ele>650.0</ele><time>2026-04-11T11:57:12.386Z</time></trkpt><trkpt lat="42.8005626" lon="11.6222163"><ele>650.0</ele><time>2026-04-11T11:57:13.379Z</time></trkpt><trkpt lat="42.8004854" lon="11.6222079"><ele>650.0</ele><time>2026-04-11T11:57:14.369Z</time></trkpt><trkpt lat="42.800401" lon="11.6222076"><ele>650.0</ele><time>2026-04-11T11:57:15.382Z</time></trkpt><trkpt lat="42.8002834" lon="11.6222325"><ele>650.0</ele><time>2026-04-11T11:57:16.377Z</time></trkpt><trkpt lat="42.8001436" lon="11.6222613"><ele>651.5</ele><time>2026-04-11T11:57:17.394Z</time></trkpt><trkpt lat="42.8000295" lon="11.6223419"><ele>653.0</ele><time>2026-04-11T11:57:18.388Z</time></trkpt><trkpt lat="42.7999554" lon="11.6224646"><ele>654.5</ele><time>2026-04-11T11:57:19.4Z</time></trkpt><trkpt lat="42.7998836" lon="11.6225696"><ele>656.0</ele><time>2026-04-11T11:57:20.395Z</time></trkpt><trkpt lat="42.7997946" lon="11.6226354"><ele>656.0</ele><time>2026-04-11T11:57:21.395Z</time></trkpt><trkpt lat="42.7997026" lon="11.6227228"><ele>656.0</ele><time>2026-04-11T11:57:22.389Z</time></trkpt><trkpt lat="42.7996188" lon="11.6227746"><ele>656.0</ele><time>2026-04-11T11:57:23.376Z</time></trkpt><trkpt lat="42.7995454" lon="11.6227884"><ele>656.0</ele><time>2026-04-11T11:57:24.39Z</time></trkpt><trkpt lat="42.7994236" lon="11.6227559"><ele>656.0</ele><time>2026-04-11T11:57:25.385Z</time></trkpt><trkpt lat="42.7993094" lon="11.6227169"><ele>656.5999999999999</ele><time>2026-04-11T11:57:26.384Z</time></trkpt><trkpt lat="42.7992087" lon="11.6226863"><ele>657.2</ele><time>2026-04-11T11:57:27.387Z</time></trkpt><trkpt lat="42.7991143" lon="11.6226833"><ele>657.8</ele><time>2026-04-11T11:57:28.383Z</time></trkpt><trkpt lat="42.7990185" lon="11.6226932"><ele>658.4000000000001</ele><time>2026-04-11T11:57:29.388Z</time></trkpt><trkpt lat="42.7989447" lon="11.6227393"><ele>659.0</ele><time>2026-04-11T11:57:30.388Z</time></trkpt><trkpt lat="42.7988835" lon="11.6228145"><ele>654.75</ele><time>2026-04-11T11:57:31.382Z</time></trkpt><trkpt lat="42.7988027" lon="11.6229326"><ele>650.5</ele><time>2026-04-11T11:57:32.397Z</time></trkpt><trkpt lat="42.7987383" lon="11.6230222"><ele>646.25</ele><time>2026-04-11T11:57:33.402Z</time></trkpt><trkpt lat="42.7986484" lon="11.623126"><ele>642.0</ele><time>2026-04-11T11:57:34.397Z</time></trkpt><trkpt lat="42.7985453" lon="11.6232377"><ele>643.75</ele><time>2026-04-11T11:57:35.399Z</time></trkpt><trkpt lat="42.7984611" lon="11.6233316"><ele>645.5</ele><time>2026-04-11T11:57:36.394Z</time></trkpt><trkpt lat="42.7983236" lon="11.6233704"><ele>647.25</ele><time>2026-04-11T11:57:37.401Z</time></trkpt><trkpt lat="42.7982128" lon="11.6233625"><ele>649.0</ele><time>2026-04-11T11:57:38.386Z</time></trkpt><trkpt lat="42.7980833" lon="11.6233152"><ele>649.0</ele><time>2026-04-11T11:57:39.392Z</time></trkpt><trkpt lat="42.7979658" lon="11.6232607"><ele>649.0</ele><time>2026-04-11T11:57:40.391Z</time></trkpt><trkpt lat="42.7978536" lon="11.6232432"><ele>649.0</ele><time>2026-04-11T11:57:41.388Z</time></trkpt><trkpt lat="42.7977619" lon="11.6232429"><ele>649.0</ele><time>2026-04-11T11:57:42.391Z</time></trkpt><trkpt lat="42.7976708" lon="11.6232958"><ele>649.0</ele><time>2026-04-11T11:57:43.379Z</time></trkpt><trkpt lat="42.7975695" lon="11.6233109"><ele>648.2</ele><time>2026-04-11T11:57:44.388Z</time></trkpt><trkpt lat="42.7975062" lon="11.623389"><ele>647.4000000000001</ele><time>2026-04-11T11:57:45.393Z</time></trkpt><trkpt lat="42.797443" lon="11.6234856"><ele>646.6</ele><time>2026-04-11T11:57:46.41Z</time></trkpt><trkpt lat="42.7973817" lon="11.6235884"><ele>645.8</ele><time>2026-04-11T11:57:47.412Z</time></trkpt><trkpt lat="42.7973101" lon="11.6236795"><ele>645.0</ele><time>2026-04-11T11:57:48.425Z</time></trkpt><trkpt lat="42.7972072" lon="11.623724"><ele>645.0</ele><time>2026-04-11T11:57:49.397Z</time></trkpt><trkpt lat="42.7971064" lon="11.6237292"><ele>645.0</ele><time>2026-04-11T11:57:50.398Z</time></trkpt><trkpt lat="42.7970131" lon="11.6237114"><ele>645.0</ele><time>2026-04-11T11:57:51.393Z</time></trkpt><trkpt lat="42.7969327" lon="11.6236588"><ele>645.0</ele><time>2026-04-11T11:57:52.383Z</time></trkpt><trkpt lat="42.7968294" lon="11.623605"><ele>645.0</ele><time>2026-04-11T11:57:53.391Z</time></trkpt><trkpt lat="42.7967477" lon="11.6235286"><ele>649.6666666666666</ele><time>2026-04-11T11:57:54.381Z</time></trkpt><trkpt lat="42.7966166" lon="11.6234462"><ele>654.3333333333333</ele><time>2026-04-11T11:57:55.382Z</time></trkpt><trkpt lat="42.7964433" lon="11.6232554"><ele>659.0</ele><time>2026-04-11T11:57:56.386Z</time></trkpt><trkpt lat="42.7962475" lon="11.623184"><ele>659.0</ele><time>2026-04-11T11:57:57.39Z</time></trkpt><trkpt lat="42.796072" lon="11.6230771"><ele>659.0</ele><time>2026-04-11T11:57:58.396Z</time></trkpt><trkpt lat="42.7959109" lon="11.6230599"><ele>659.0</ele><time>2026-04-11T11:57:59.394Z</time></trkpt><trkpt lat="42.7957011" lon="11.6230355"><ele>656.6666666666666</ele><time>2026-04-11T11:58:00.398Z</time></trkpt><trkpt lat="42.7955468" lon="11.6229862"><ele>654.3333333333334</ele><time>2026-04-11T11:58:01.391Z</time></trkpt><trkpt lat="42.7953856" lon="11.6229218"><ele>652.0</ele><time>2026-04-11T11:58:02.393Z</time></trkpt><trkpt lat="42.7952688" lon="11.6228459"><ele>653.3333333333334</ele><time>2026-04-11T11:58:03.391Z</time></trkpt><trkpt lat="42.7951453" lon="11.6227356"><ele>654.6666666666666</ele><time>2026-04-11T11:58:04.396Z</time></trkpt><trkpt lat="42.7949826" lon="11.6226342"><ele>656.0</ele><time>2026-04-11T11:58:05.38Z</time></trkpt><trkpt lat="42.7948768" lon="11.6224942"><ele>656.0</ele><time>2026-04-11T11:58:06.382Z</time></trkpt><trkpt lat="42.7947406" lon="11.6223684"><ele>656.0</ele><time>2026-04-11T11:58:07.388Z</time></trkpt><trkpt lat="42.7946266" lon="11.6222636"><ele>656.0</ele><time>2026-04-11T11:58:08.381Z</time></trkpt><trkpt lat="42.7945855" lon="11.62217"><ele>656.0</ele><time>2026-04-11T11:58:09.386Z</time></trkpt><trkpt lat="42.794533" lon="11.622109"><ele>656.0</ele><time>2026-04-11T11:58:10.388Z</time></trkpt><trkpt lat="42.7944882" lon="11.6219831"><ele>656.0</ele><time>2026-04-11T11:58:11.384Z</time></trkpt><trkpt lat="42.7943767" lon="11.6219272"><ele>656.0</ele><time>2026-04-11T11:58:12.379Z</time></trkpt><trkpt lat="42.7942823" lon="11.621961"><ele>656.0</ele><time>2026-04-11T11:58:13.381Z</time></trkpt><trkpt lat="42.7941666" lon="11.6219614"><ele>656.0</ele><time>2026-04-11T11:58:14.391Z</time></trkpt><trkpt lat="42.7940229" lon="11.6219652"><ele>659.0</ele><time>2026-04-11T11:58:15.398Z</time></trkpt><trkpt lat="42.7939039" lon="11.6219407"><ele>662.0</ele><time>2026-04-11T11:58:16.398Z</time></trkpt><trkpt lat="42.7937832" lon="11.6219121"><ele>665.0</ele><time>2026-04-11T11:58:17.392Z</time></trkpt><trkpt lat="42.7936635" lon="11.62189"><ele>668.0</ele><time>2026-04-11T11:58:18.414Z</time></trkpt><trkpt lat="42.7935292" lon="11.6219124"><ele>667.5999999999999</ele><time>2026-04-11T11:58:19.399Z</time></trkpt><trkpt lat="42.79343" lon="11.6218898"><ele>667.1999999999999</ele><time>2026-04-11T11:58:20.4Z</time></trkpt><trkpt lat="42.7933263" lon="11.6218572"><ele>666.8</ele><time>2026-04-11T11:58:21.4Z</time></trkpt><trkpt lat="42.7932158" lon="11.6218406"><ele>666.4</ele><time>2026-04-11T11:58:22.401Z</time></trkpt><trkpt lat="42.7930931" lon="11.6218602"><ele>666.0</ele><time>2026-04-11T11:58:23.403Z</time></trkpt><trkpt lat="42.7929818" lon="11.6219145"><ele>663.75</ele><time>2026-04-11T11:58:24.391Z</time></trkpt><trkpt lat="42.7929191" lon="11.6220266"><ele>661.5</ele><time>2026-04-11T11:58:25.406Z</time></trkpt><trkpt lat="42.7928663" lon="11.6221766"><ele>659.25</ele><time>2026-04-11T11:58:26.406Z</time></trkpt><trkpt lat="42.792842" lon="11.622393"><ele>657.0</ele><time>2026-04-11T11:58:27.399Z</time></trkpt><trkpt lat="42.7928386" lon="11.6225778"><ele>657.0</ele><time>2026-04-11T11:58:28.394Z</time></trkpt><trkpt lat="42.7928669" lon="11.6227407"><ele>657.0</ele><time>2026-04-11T11:58:29.394Z</time></trkpt><trkpt lat="42.7929014" lon="11.6228632"><ele>657.0</ele><time>2026-04-11T11:58:30.391Z</time></trkpt><trkpt lat="42.7929732" lon="11.6229619"><ele>657.0</ele><time>2026-04-11T11:58:31.397Z</time></trkpt><trkpt lat="42.7930644" lon="11.6230888"><ele>658.0</ele><time>2026-04-11T11:58:32.399Z</time></trkpt><trkpt lat="42.7931585" lon="11.6232837"><ele>659.0</ele><time>2026-04-11T11:58:33.397Z</time></trkpt><trkpt lat="42.7932709" lon="11.6234665"><ele>660.0</ele><time>2026-04-11T11:58:34.399Z</time></trkpt><trkpt lat="42.7933746" lon="11.6237291"><ele>659.6666666666666</ele><time>2026-04-11T11:58:35.403Z</time></trkpt><trkpt lat="42.7934807" lon="11.6239691"><ele>659.3333333333333</ele><time>2026-04-11T11:58:36.396Z</time></trkpt><trkpt lat="42.7935678" lon="11.6241529"><ele>659.0</ele><time>2026-04-11T11:58:37.394Z</time></trkpt><trkpt lat="42.7936079" lon="11.6243183"><ele>659.0</ele><time>2026-04-11T11:58:38.395Z</time></trkpt><trkpt lat="42.7936584" lon="11.6244412"><ele>659.0</ele><time>2026-04-11T11:58:39.392Z</time></trkpt><trkpt lat="42.7937337" lon="11.6245449"><ele>659.0</ele><time>2026-04-11T11:58:40.392Z</time></trkpt><trkpt lat="42.7938025" lon="11.6247165"><ele>659.0</ele><time>2026-04-11T11:58:41.395Z</time></trkpt><trkpt lat="42.7938464" lon="11.6249"><ele>660.4000000000001</ele><time>2026-04-11T11:58:42.389Z</time></trkpt><trkpt lat="42.7939022" lon="11.6250357"><ele>661.8</ele><time>2026-04-11T11:58:43.387Z</time></trkpt><trkpt lat="42.7939318" lon="11.6251935"><ele>663.2</ele><time>2026-04-11T11:58:44.383Z</time></trkpt><trkpt lat="42.7940011" lon="11.6252919"><ele>664.5999999999999</ele><time>2026-04-11T11:58:45.388Z</time></trkpt><trkpt lat="42.7940472" lon="11.6254251"><ele>666.0</ele><time>2026-04-11T11:58:46.381Z</time></trkpt><trkpt lat="42.7941184" lon="11.6255351"><ele>668.0</ele><time>2026-04-11T11:58:47.384Z</time></trkpt><trkpt lat="42.794241" lon="11.6256241"><ele>670.0</ele><time>2026-04-11T11:58:48.387Z</time></trkpt><trkpt lat="42.7943422" lon="11.6256942"><ele>672.0</ele><time>2026-04-11T11:58:49.403Z</time></trkpt><trkpt lat="42.794422" lon="11.6257962"><ele>674.0</ele><time>2026-04-11T11:58:50.4Z</time></trkpt><trkpt lat="42.7945094" lon="11.6259022"><ele>674.0</ele><time>2026-04-11T11:58:51.39Z</time></trkpt><trkpt lat="42.794571" lon="11.625955"><ele>674.0</ele><time>2026-04-11T11:58:53.396Z</time></trkpt><trkpt lat="42.7945321" lon="11.6258642"><ele>674.0</ele><time>2026-04-11T12:00:06.45Z</time></trkpt><trkpt lat="42.7946055" lon="11.6259314"><ele>674.0</ele><time>2026-04-11T12:00:15.404Z</time></trkpt><trkpt lat="42.7946952" lon="11.6260233"><ele>674.0</ele><time>2026-04-11T12:00:17.413Z</time></trkpt><trkpt lat="42.7947808" lon="11.6260589"><ele>674.0</ele><time>2026-04-11T12:00:18.4Z</time></trkpt><trkpt lat="42.7948737" lon="11.626104"><ele>673.2</ele><time>2026-04-11T12:00:19.398Z</time></trkpt><trkpt lat="42.7949518" lon="11.626202"><ele>672.4000000000001</ele><time>2026-04-11T12:00:20.395Z</time></trkpt><trkpt lat="42.7950405" lon="11.6262927"><ele>671.6</ele><time>2026-04-11T12:00:21.402Z</time></trkpt><trkpt lat="42.7951042" lon="11.6264115"><ele>670.8</ele><time>2026-04-11T12:00:22.424Z</time></trkpt><trkpt lat="42.7951827" lon="11.6265184"><ele>670.0</ele><time>2026-04-11T12:00:23.411Z</time></trkpt><trkpt lat="42.79524" lon="11.6266127"><ele>670.0</ele><time>2026-04-11T12:00:24.401Z</time></trkpt><trkpt lat="42.795283" lon="11.6267228"><ele>670.0</ele><time>2026-04-11T12:00:25.406Z</time></trkpt><trkpt lat="42.795302" lon="11.6268506"><ele>670.0</ele><time>2026-04-11T12:00:26.402Z</time></trkpt><trkpt lat="42.7953001" lon="11.6269691"><ele>670.0</ele><time>2026-04-11T12:00:27.405Z</time></trkpt><trkpt lat="42.7952896" lon="11.6270824"><ele>670.0</ele><time>2026-04-11T12:00:28.402Z</time></trkpt><trkpt lat="42.7952586" lon="11.6272008"><ele>670.4</ele><time>2026-04-11T12:00:29.4Z</time></trkpt><trkpt lat="42.7952163" lon="11.6273194"><ele>670.8</ele><time>2026-04-11T12:00:30.392Z</time></trkpt><trkpt lat="42.7951738" lon="11.6274251"><ele>671.2</ele><time>2026-04-11T12:00:31.396Z</time></trkpt><trkpt lat="42.7951158" lon="11.627526"><ele>671.6</ele><time>2026-04-11T12:00:32.425Z</time></trkpt><trkpt lat="42.7950403" lon="11.6276119"><ele>672.0</ele><time>2026-04-11T12:00:33.405Z</time></trkpt><trkpt lat="42.7949433" lon="11.6276883"><ele>676.25</ele><time>2026-04-11T12:00:34.397Z</time></trkpt><trkpt lat="42.7948195" lon="11.6277494"><ele>680.5</ele><time>2026-04-11T12:00:35.41Z</time></trkpt><trkpt lat="42.7946777" lon="11.6277816"><ele>684.75</ele><time>2026-04-11T12:00:36.402Z</time></trkpt><trkpt lat="42.7945554" lon="11.6277925"><ele>689.0</ele><time>2026-04-11T12:00:37.395Z</time></trkpt><trkpt lat="42.7944325" lon="11.6277384"><ele>693.0</ele><time>2026-04-11T12:00:38.395Z</time></trkpt><trkpt lat="42.7943105" lon="11.6276539"><ele>697.0</ele><time>2026-04-11T12:00:39.404Z</time></trkpt><trkpt lat="42.7941716" lon="11.6275059"><ele>701.0</ele><time>2026-04-11T12:00:40.404Z</time></trkpt><trkpt lat="42.7940321" lon="11.6273349"><ele>701.0</ele><time>2026-04-11T12:00:41.402Z</time></trkpt><trkpt lat="42.7939031" lon="11.6271821"><ele>701.0</ele><time>2026-04-11T12:00:42.398Z</time></trkpt><trkpt lat="42.7937788" lon="11.6270445"><ele>701.0</ele><time>2026-04-11T12:00:43.399Z</time></trkpt><trkpt lat="42.7936508" lon="11.6269182"><ele>700.75</ele><time>2026-04-11T12:00:44.408Z</time></trkpt><trkpt lat="42.7935251" lon="11.6268496"><ele>700.5</ele><time>2026-04-11T12:00:45.407Z</time></trkpt><trkpt lat="42.7934052" lon="11.6268265"><ele>700.25</ele><time>2026-04-11T12:00:46.401Z</time></trkpt><trkpt lat="42.793286" lon="11.626859"><ele>700.0</ele><time>2026-04-11T12:00:47.408Z</time></trkpt><trkpt lat="42.793181" lon="11.6269273"><ele>701.4</ele><time>2026-04-11T12:00:48.397Z</time></trkpt><trkpt lat="42.7930926" lon="11.6270185"><ele>702.8</ele><time>2026-04-11T12:00:49.384Z</time></trkpt><trkpt lat="42.7930335" lon="11.6271235"><ele>704.2</ele><time>2026-04-11T12:00:50.391Z</time></trkpt><trkpt lat="42.7929951" lon="11.6272371"><ele>705.6</ele><time>2026-04-11T12:00:51.389Z</time></trkpt><trkpt lat="42.7929837" lon="11.6273694"><ele>707.0</ele><time>2026-04-11T12:00:52.388Z</time></trkpt><trkpt lat="42.7929866" lon="11.6275264"><ele>707.0</ele><time>2026-04-11T12:00:53.398Z</time></trkpt><trkpt lat="42.7930069" lon="11.6277115"><ele>707.0</ele><time>2026-04-11T12:00:54.386Z</time></trkpt><trkpt lat="42.7930457" lon="11.6279342"><ele>707.0</ele><time>2026-04-11T12:00:55.389Z</time></trkpt><trkpt lat="42.7931125" lon="11.6281991"><ele>708.5</ele><time>2026-04-11T12:00:56.399Z</time></trkpt><trkpt lat="42.7931974" lon="11.6284889"><ele>710.0</ele><time>2026-04-11T12:00:57.396Z</time></trkpt><trkpt lat="42.7932897" lon="11.6287728"><ele>711.6666666666666</ele><time>2026-04-11T12:00:58.402Z</time></trkpt><trkpt lat="42.7933709" lon="11.6290626"><ele>713.3333333333334</ele><time>2026-04-11T12:00:59.4Z</time></trkpt><trkpt lat="42.7934024" lon="11.6293112"><ele>715.0</ele><time>2026-04-11T12:01:00.41Z</time></trkpt><trkpt lat="42.7933665" lon="11.6294715"><ele>713.75</ele><time>2026-04-11T12:01:01.406Z</time></trkpt><trkpt lat="42.7932631" lon="11.6295636"><ele>712.5</ele><time>2026-04-11T12:01:02.419Z</time></trkpt><trkpt lat="42.7931109" lon="11.6295741"><ele>711.25</ele><time>2026-04-11T12:01:03.411Z</time></trkpt><trkpt lat="42.792977" lon="11.6295679"><ele>710.0</ele><time>2026-04-11T12:01:04.41Z</time></trkpt><trkpt lat="42.7928502" lon="11.6295679"><ele>710.0</ele><time>2026-04-11T12:01:05.414Z</time></trkpt><trkpt lat="42.7927283" lon="11.6295716"><ele>710.0</ele><time>2026-04-11T12:01:06.408Z</time></trkpt><trkpt lat="42.7926128" lon="11.6295663"><ele>710.0</ele><time>2026-04-11T12:01:07.399Z</time></trkpt><trkpt lat="42.7925126" lon="11.6295303"><ele>710.0</ele><time>2026-04-11T12:01:08.399Z</time></trkpt><trkpt lat="42.7924192" lon="11.629487"><ele>710.0</ele><time>2026-04-11T12:01:09.386Z</time></trkpt><trkpt lat="42.7923435" lon="11.6294016"><ele>714.25</ele><time>2026-04-11T12:01:10.391Z</time></trkpt><trkpt lat="42.7922726" lon="11.6292976"><ele>718.5</ele><time>2026-04-11T12:01:11.385Z</time></trkpt><trkpt lat="42.7921982" lon="11.6291845"><ele>722.75</ele><time>2026-04-11T12:01:12.379Z</time></trkpt><trkpt lat="42.7921198" lon="11.6290162"><ele>727.0</ele><time>2026-04-11T12:01:13.38Z</time></trkpt><trkpt lat="42.7920321" lon="11.6288169"><ele>725.3333333333334</ele><time>2026-04-11T12:01:14.387Z</time></trkpt><trkpt lat="42.7919286" lon="11.6286402"><ele>723.6666666666666</ele><time>2026-04-11T12:01:15.383Z</time></trkpt><trkpt lat="42.7918215" lon="11.6284999"><ele>722.0</ele><time>2026-04-11T12:01:16.39Z</time></trkpt><trkpt lat="42.7917119" lon="11.6283539"><ele>724.0</ele><time>2026-04-11T12:01:17.399Z</time></trkpt><trkpt lat="42.7916346" lon="11.628222"><ele>726.0</ele><time>2026-04-11T12:01:18.397Z</time></trkpt><trkpt lat="42.7915906" lon="11.6280834"><ele>728.0</ele><time>2026-04-11T12:01:19.397Z</time></trkpt><trkpt lat="42.7915575" lon="11.6279347"><ele>730.0</ele><time>2026-04-11T12:01:20.4Z</time></trkpt><trkpt lat="42.791522" lon="11.6277958"><ele>730.0</ele><time>2026-04-11T12:01:21.398Z</time></trkpt><trkpt lat="42.791473" lon="11.6276642"><ele>730.0</ele><time>2026-04-11T12:01:22.404Z</time></trkpt><trkpt lat="42.7914087" lon="11.6275664"><ele>730.0</ele><time>2026-04-11T12:01:23.405Z</time></trkpt><trkpt lat="42.7913087" lon="11.6274949"><ele>730.0</ele><time>2026-04-11T12:01:24.414Z</time></trkpt><trkpt lat="42.7911974" lon="11.6274296"><ele>730.0</ele><time>2026-04-11T12:01:25.39Z</time></trkpt><trkpt lat="42.7910925" lon="11.6273396"><ele>733.6</ele><time>2026-04-11T12:01:26.397Z</time></trkpt><trkpt lat="42.7910042" lon="11.6272387"><ele>737.2</ele><time>2026-04-11T12:01:27.406Z</time></trkpt><trkpt lat="42.7909195" lon="11.6271475"><ele>740.8</ele><time>2026-04-11T12:01:28.403Z</time></trkpt><trkpt lat="42.790822" lon="11.6270862"><ele>744.4</ele><time>2026-04-11T12:01:29.4Z</time></trkpt><trkpt lat="42.7907134" lon="11.627062"><ele>748.0</ele><time>2026-04-11T12:01:30.4Z</time></trkpt><trkpt lat="42.7905955" lon="11.6270927"><ele>748.0</ele><time>2026-04-11T12:01:31.404Z</time></trkpt><trkpt lat="42.7904792" lon="11.6271272"><ele>748.0</ele><time>2026-04-11T12:01:32.4Z</time></trkpt><trkpt lat="42.7903793" lon="11.6271507"><ele>748.0</ele><time>2026-04-11T12:01:33.397Z</time></trkpt><trkpt lat="42.7902784" lon="11.6271494"><ele>748.0</ele><time>2026-04-11T12:01:34.397Z</time></trkpt><trkpt lat="42.790184" lon="11.6271205"><ele>748.0</ele><time>2026-04-11T12:01:35.406Z</time></trkpt><trkpt lat="42.7901162" lon="11.6270667"><ele>749.2</ele><time>2026-04-11T12:01:36.397Z</time></trkpt><trkpt lat="42.7900607" lon="11.626986"><ele>750.4</ele><time>2026-04-11T12:01:37.389Z</time></trkpt><trkpt lat="42.7900203" lon="11.6268663"><ele>751.6</ele><time>2026-04-11T12:01:38.384Z</time></trkpt><trkpt lat="42.789981" lon="11.6267175"><ele>752.8000000000001</ele><time>2026-04-11T12:01:39.385Z</time></trkpt><trkpt lat="42.7899403" lon="11.6265572"><ele>754.0</ele><time>2026-04-11T12:01:40.382Z</time></trkpt><trkpt lat="42.789922" lon="11.6263802"><ele>754.0</ele><time>2026-04-11T12:01:41.392Z</time></trkpt><trkpt lat="42.7899101" lon="11.6262076"><ele>754.0</ele><time>2026-04-11T12:01:42.39Z</time></trkpt><trkpt lat="42.7898885" lon="11.6260478"><ele>754.0</ele><time>2026-04-11T12:01:43.395Z</time></trkpt><trkpt lat="42.7898766" lon="11.6258562"><ele>754.0</ele><time>2026-04-11T12:01:44.389Z</time></trkpt><trkpt lat="42.7898447" lon="11.6256985"><ele>752.25</ele><time>2026-04-11T12:01:45.383Z</time></trkpt><trkpt lat="42.7897906" lon="11.6255962"><ele>750.5</ele><time>2026-04-11T12:01:46.382Z</time></trkpt><trkpt lat="42.7896614" lon="11.6255741"><ele>748.75</ele><time>2026-04-11T12:01:48.371Z</time></trkpt><trkpt lat="42.7895745" lon="11.625618"><ele>747.0</ele><time>2026-04-11T12:01:49.376Z</time></trkpt><trkpt lat="42.7894591" lon="11.6257195"><ele>749.0</ele><time>2026-04-11T12:01:50.391Z</time></trkpt><trkpt lat="42.7893102" lon="11.6258643"><ele>751.0</ele><time>2026-04-11T12:01:51.397Z</time></trkpt><trkpt lat="42.7891563" lon="11.6260176"><ele>753.0</ele><time>2026-04-11T12:01:52.386Z</time></trkpt><trkpt lat="42.7889946" lon="11.6261729"><ele>757.3333333333334</ele><time>2026-04-11T12:01:53.396Z</time></trkpt><trkpt lat="42.7888269" lon="11.6263338"><ele>761.6666666666667</ele><time>2026-04-11T12:01:54.389Z</time></trkpt><trkpt lat="42.7886453" lon="11.6264747"><ele>766.0</ele><time>2026-04-11T12:01:55.401Z</time></trkpt><trkpt lat="42.7884936" lon="11.6265309"><ele>767.8</ele><time>2026-04-11T12:01:56.39Z</time></trkpt><trkpt lat="42.7883673" lon="11.6265715"><ele>769.5999999999999</ele><time>2026-04-11T12:01:57.392Z</time></trkpt><trkpt lat="42.7882523" lon="11.6265815"><ele>771.4</ele><time>2026-04-11T12:01:58.386Z</time></trkpt><trkpt lat="42.7881624" lon="11.6265673"><ele>773.2</ele><time>2026-04-11T12:01:59.398Z</time></trkpt><trkpt lat="42.7880818" lon="11.6265164"><ele>775.0</ele><time>2026-04-11T12:02:00.402Z</time></trkpt><trkpt lat="42.7880282" lon="11.6264126"><ele>775.0</ele><time>2026-04-11T12:02:01.393Z</time></trkpt><trkpt lat="42.7879809" lon="11.62629"><ele>775.0</ele><time>2026-04-11T12:02:02.406Z</time></trkpt><trkpt lat="42.7879415" lon="11.6261495"><ele>775.0</ele><time>2026-04-11T12:02:03.399Z</time></trkpt><trkpt lat="42.7879191" lon="11.6259694"><ele>775.0</ele><time>2026-04-11T12:02:04.395Z</time></trkpt><trkpt lat="42.7878796" lon="11.6257975"><ele>777.0</ele><time>2026-04-11T12:02:05.4Z</time></trkpt><trkpt lat="42.7878353" lon="11.6256019"><ele>779.0</ele><time>2026-04-11T12:02:06.398Z</time></trkpt><trkpt lat="42.7877731" lon="11.6254128"><ele>781.0</ele><time>2026-04-11T12:02:07.406Z</time></trkpt><trkpt lat="42.787691" lon="11.6252465"><ele>783.0</ele><time>2026-04-11T12:02:08.412Z</time></trkpt><trkpt lat="42.7876203" lon="11.6250953"><ele>783.0</ele><time>2026-04-11T12:02:09.409Z</time></trkpt><trkpt lat="42.7875633" lon="11.6249464"><ele>783.0</ele><time>2026-04-11T12:02:10.409Z</time></trkpt><trkpt lat="42.7875273" lon="11.6247855"><ele>783.0</ele><time>2026-04-11T12:02:11.403Z</time></trkpt><trkpt lat="42.7875172" lon="11.6245876"><ele>783.0</ele><time>2026-04-11T12:02:12.407Z</time></trkpt><trkpt lat="42.7875127" lon="11.6243779"><ele>781.5</ele><time>2026-04-11T12:02:13.409Z</time></trkpt><trkpt lat="42.7875236" lon="11.6241711"><ele>780.0</ele><time>2026-04-11T12:02:14.397Z</time></trkpt><trkpt lat="42.7875216" lon="11.62398"><ele>778.5</ele><time>2026-04-11T12:02:15.396Z</time></trkpt><trkpt lat="42.7874755" lon="11.6238181"><ele>777.0</ele><time>2026-04-11T12:02:16.403Z</time></trkpt><trkpt lat="42.7874095" lon="11.6236919"><ele>773.6666666666666</ele><time>2026-04-11T12:02:17.399Z</time></trkpt><trkpt lat="42.7873052" lon="11.6236088"><ele>770.3333333333333</ele><time>2026-04-11T12:02:18.403Z</time></trkpt><trkpt lat="42.7871612" lon="11.6235313"><ele>767.0</ele><time>2026-04-11T12:02:19.413Z</time></trkpt><trkpt lat="42.7869989" lon="11.6234118"><ele>767.0</ele><time>2026-04-11T12:02:20.411Z</time></trkpt><trkpt lat="42.7868512" lon="11.6232645"><ele>767.0</ele><time>2026-04-11T12:02:21.405Z</time></trkpt><trkpt lat="42.7867158" lon="11.6231055"><ele>767.0</ele><time>2026-04-11T12:02:22.414Z</time></trkpt><trkpt lat="42.7865743" lon="11.6229783"><ele>768.3333333333333</ele><time>2026-04-11T12:02:23.407Z</time></trkpt><trkpt lat="42.7863948" lon="11.6228439"><ele>769.6666666666666</ele><time>2026-04-11T12:02:24.406Z</time></trkpt><trkpt lat="42.7862072" lon="11.6227307"><ele>771.0</ele><time>2026-04-11T12:02:25.411Z</time></trkpt><trkpt lat="42.7860333" lon="11.6226587"><ele>771.5999999999999</ele><time>2026-04-11T12:02:26.425Z</time></trkpt><trkpt lat="42.7858888" lon="11.6226011"><ele>772.2</ele><time>2026-04-11T12:02:27.398Z</time></trkpt><trkpt lat="42.7857555" lon="11.6225543"><ele>772.8</ele><time>2026-04-11T12:02:28.399Z</time></trkpt><trkpt lat="42.7856891" lon="11.6226149"><ele>773.4000000000001</ele><time>2026-04-11T12:02:30.411Z</time></trkpt><trkpt lat="42.7857078" lon="11.6227059"><ele>774.0</ele><time>2026-04-11T12:03:19.444Z</time></trkpt><trkpt lat="42.7857369" lon="11.622809"><ele>776.25</ele><time>2026-04-11T12:03:21.427Z</time></trkpt><trkpt lat="42.7857618" lon="11.6229111"><ele>778.5</ele><time>2026-04-11T12:03:22.401Z</time></trkpt><trkpt lat="42.7857917" lon="11.6230389"><ele>780.75</ele><time>2026-04-11T12:03:23.401Z</time></trkpt><trkpt lat="42.7858215" lon="11.6232264"><ele>783.0</ele><time>2026-04-11T12:03:24.396Z</time></trkpt><trkpt lat="42.7858518" lon="11.6234271"><ele>783.0</ele><time>2026-04-11T12:03:25.393Z</time></trkpt><trkpt lat="42.7858637" lon="11.6236404"><ele>783.0</ele><time>2026-04-11T12:03:26.391Z</time></trkpt><trkpt lat="42.7858515" lon="11.6238594"><ele>783.0</ele><time>2026-04-11T12:03:27.414Z</time></trkpt><trkpt lat="42.7858218" lon="11.6240449"><ele>783.75</ele><time>2026-04-11T12:03:28.42Z</time></trkpt><trkpt lat="42.7857978" lon="11.6242229"><ele>784.5</ele><time>2026-04-11T12:03:29.428Z</time></trkpt><trkpt lat="42.7857943" lon="11.6243949"><ele>785.25</ele><time>2026-04-11T12:03:30.42Z</time></trkpt><trkpt lat="42.785815" lon="11.6245735"><ele>786.0</ele><time>2026-04-11T12:03:31.437Z</time></trkpt><trkpt lat="42.7858582" lon="11.6247741"><ele>786.0</ele><time>2026-04-11T12:03:32.441Z</time></trkpt><trkpt lat="42.7859214" lon="11.6249804"><ele>786.0</ele><time>2026-04-11T12:03:33.43Z</time></trkpt><trkpt lat="42.7859801" lon="11.6251581"><ele>786.0</ele><time>2026-04-11T12:03:34.435Z</time></trkpt><trkpt lat="42.7860234" lon="11.6253543"><ele>790.0</ele><time>2026-04-11T12:03:35.447Z</time></trkpt><trkpt lat="42.7860599" lon="11.6255312"><ele>794.0</ele><time>2026-04-11T12:03:36.433Z</time></trkpt><trkpt lat="42.7860836" lon="11.6257127"><ele>798.0</ele><time>2026-04-11T12:03:37.432Z</time></trkpt><trkpt lat="42.7860797" lon="11.6258858"><ele>802.0</ele><time>2026-04-11T12:03:38.431Z</time></trkpt><trkpt lat="42.7860569" lon="11.6260498"><ele>802.5</ele><time>2026-04-11T12:03:39.432Z</time></trkpt><trkpt lat="42.786053" lon="11.6262295"><ele>803.0</ele><time>2026-04-11T12:03:40.425Z</time></trkpt><trkpt lat="42.7860533" lon="11.6263996"><ele>803.5</ele><time>2026-04-11T12:03:41.432Z</time></trkpt><trkpt lat="42.7860486" lon="11.6265625"><ele>804.0</ele><time>2026-04-11T12:03:42.433Z</time></trkpt><trkpt lat="42.786032" lon="11.6267399"><ele>802.3333333333333</ele><time>2026-04-11T12:03:43.42Z</time></trkpt><trkpt lat="42.78599" lon="11.6269364"><ele>800.6666666666666</ele><time>2026-04-11T12:03:44.437Z</time></trkpt><trkpt lat="42.7859224" lon="11.6271311"><ele>799.0</ele><time>2026-04-11T12:03:45.436Z</time></trkpt><trkpt lat="42.7857968" lon="11.627304"><ele>799.0</ele><time>2026-04-11T12:03:46.443Z</time></trkpt><trkpt lat="42.7857057" lon="11.6274888"><ele>799.0</ele><time>2026-04-11T12:03:47.426Z</time></trkpt><trkpt lat="42.7856287" lon="11.6276727"><ele>799.0</ele><time>2026-04-11T12:03:48.43Z</time></trkpt><trkpt lat="42.78558" lon="11.6278622"><ele>803.0</ele><time>2026-04-11T12:03:49.437Z</time></trkpt><trkpt lat="42.7855608" lon="11.6280612"><ele>807.0</ele><time>2026-04-11T12:03:50.441Z</time></trkpt><trkpt lat="42.7855096" lon="11.6282556"><ele>811.0</ele><time>2026-04-11T12:03:51.435Z</time></trkpt><trkpt lat="42.785448" lon="11.6284635"><ele>814.6666666666666</ele><time>2026-04-11T12:03:52.436Z</time></trkpt><trkpt lat="42.7853662" lon="11.6286633"><ele>818.3333333333333</ele><time>2026-04-11T12:03:53.425Z</time></trkpt><trkpt lat="42.7852725" lon="11.6288523"><ele>822.0</ele><time>2026-04-11T12:03:54.423Z</time></trkpt><trkpt lat="42.7851375" lon="11.6290192"><ele>814.0</ele><time>2026-04-11T12:03:55.427Z</time></trkpt><trkpt lat="42.7850209" lon="11.6291407"><ele>806.0</ele><time>2026-04-11T12:03:56.43Z</time></trkpt><trkpt lat="42.7848794" lon="11.6292662"><ele>798.0</ele><time>2026-04-11T12:03:57.426Z</time></trkpt><trkpt lat="42.7847687" lon="11.6294139"><ele>801.6666666666667</ele><time>2026-04-11T12:03:58.424Z</time></trkpt><trkpt lat="42.7846541" lon="11.6295045"><ele>805.3333333333334</ele><time>2026-04-11T12:03:59.413Z</time></trkpt><trkpt lat="42.7846128" lon="11.629716"><ele>809.0</ele><time>2026-04-11T12:04:00.415Z</time></trkpt><trkpt lat="42.7846092" lon="11.6299685"><ele>809.0</ele><time>2026-04-11T12:04:01.415Z</time></trkpt><trkpt lat="42.7846169" lon="11.6302567"><ele>809.0</ele><time>2026-04-11T12:04:02.423Z</time></trkpt><trkpt lat="42.7845855" lon="11.6304928"><ele>809.0</ele><time>2026-04-11T12:04:03.413Z</time></trkpt><trkpt lat="42.784518" lon="11.6306722"><ele>809.25</ele><time>2026-04-11T12:04:04.402Z</time></trkpt><trkpt lat="42.7844686" lon="11.6308271"><ele>809.5</ele><time>2026-04-11T12:04:05.407Z</time></trkpt><trkpt lat="42.7844228" lon="11.6309881"><ele>809.75</ele><time>2026-04-11T12:04:06.43Z</time></trkpt><trkpt lat="42.7843652" lon="11.6311332"><ele>810.0</ele><time>2026-04-11T12:04:07.401Z</time></trkpt><trkpt lat="42.7843658" lon="11.631301"><ele>810.0</ele><time>2026-04-11T12:04:08.404Z</time></trkpt><trkpt lat="42.7844281" lon="11.6314868"><ele>810.0</ele><time>2026-04-11T12:04:09.41Z</time></trkpt><trkpt lat="42.7844834" lon="11.6316831"><ele>810.0</ele><time>2026-04-11T12:04:10.414Z</time></trkpt><trkpt lat="42.784527" lon="11.6318669"><ele>810.0</ele><time>2026-04-11T12:04:11.428Z</time></trkpt><trkpt lat="42.7845875" lon="11.6320515"><ele>809.25</ele><time>2026-04-11T12:04:12.416Z</time></trkpt><trkpt lat="42.7846053" lon="11.6322553"><ele>808.5</ele><time>2026-04-11T12:04:13.426Z</time></trkpt><trkpt lat="42.7845166" lon="11.6324263"><ele>807.75</ele><time>2026-04-11T12:04:14.416Z</time></trkpt><trkpt lat="42.7844501" lon="11.6325976"><ele>807.0</ele><time>2026-04-11T12:04:15.414Z</time></trkpt><trkpt lat="42.7844193" lon="11.6328228"><ele>811.0</ele><time>2026-04-11T12:04:16.415Z</time></trkpt><trkpt lat="42.7843886" lon="11.6330753"><ele>815.0</ele><time>2026-04-11T12:04:17.426Z</time></trkpt><trkpt lat="42.7843597" lon="11.6332988"><ele>819.0</ele><time>2026-04-11T12:04:18.421Z</time></trkpt><trkpt lat="42.7843209" lon="11.6335367"><ele>819.25</ele><time>2026-04-11T12:04:19.424Z</time></trkpt><trkpt lat="42.7843509" lon="11.6337286"><ele>819.5</ele><time>2026-04-11T12:04:20.425Z</time></trkpt><trkpt lat="42.7844001" lon="11.633923"><ele>819.75</ele><time>2026-04-11T12:04:21.421Z</time></trkpt><trkpt lat="42.7844469" lon="11.634122"><ele>820.0</ele><time>2026-04-11T12:04:22.423Z</time></trkpt><trkpt lat="42.7844283" lon="11.6343223"><ele>822.3333333333333</ele><time>2026-04-11T12:04:23.432Z</time></trkpt><trkpt lat="42.784395" lon="11.6345624"><ele>824.6666666666667</ele><time>2026-04-11T12:04:24.413Z</time></trkpt><trkpt lat="42.7843538" lon="11.6347593"><ele>827.0</ele><time>2026-04-11T12:04:25.427Z</time></trkpt><trkpt lat="42.7842997" lon="11.6349139"><ele>821.3333333333334</ele><time>2026-04-11T12:04:26.425Z</time></trkpt><trkpt lat="42.7841948" lon="11.6350437"><ele>815.6666666666667</ele><time>2026-04-11T12:04:27.416Z</time></trkpt><trkpt lat="42.7840243" lon="11.6351278"><ele>810.0</ele><time>2026-04-11T12:04:28.408Z</time></trkpt><trkpt lat="42.7838522" lon="11.6351692"><ele>810.0</ele><time>2026-04-11T12:04:29.423Z</time></trkpt><trkpt lat="42.7836653" lon="11.6352743"><ele>810.0</ele><time>2026-04-11T12:04:30.42Z</time></trkpt><trkpt lat="42.7834613" lon="11.6353513"><ele>810.0</ele><time>2026-04-11T12:04:31.424Z</time></trkpt><trkpt lat="42.7832755" lon="11.6354187"><ele>812.0</ele><time>2026-04-11T12:04:32.433Z</time></trkpt><trkpt lat="42.7831259" lon="11.6354515"><ele>814.0</ele><time>2026-04-11T12:04:33.424Z</time></trkpt><trkpt lat="42.7829697" lon="11.6354766"><ele>816.0</ele><time>2026-04-11T12:04:34.418Z</time></trkpt><trkpt lat="42.7828036" lon="11.6354836"><ele>812.3333333333333</ele><time>2026-04-11T12:04:35.413Z</time></trkpt><trkpt lat="42.7826441" lon="11.6355722"><ele>808.6666666666666</ele><time>2026-04-11T12:04:36.427Z</time></trkpt><trkpt lat="42.7825013" lon="11.6356965"><ele>805.0</ele><time>2026-04-11T12:04:37.432Z</time></trkpt><trkpt lat="42.7823905" lon="11.6357885"><ele>805.0</ele><time>2026-04-11T12:04:38.41Z</time></trkpt><trkpt lat="42.7823573" lon="11.6358987"><ele>805.0</ele><time>2026-04-11T12:04:39.423Z</time></trkpt><trkpt lat="42.7824413" lon="11.6361265"><ele>805.0</ele><time>2026-04-11T12:04:40.413Z</time></trkpt><trkpt lat="42.7825329" lon="11.6364241"><ele>805.0</ele><time>2026-04-11T12:04:41.421Z</time></trkpt><trkpt lat="42.7825637" lon="11.6367121"><ele>805.0</ele><time>2026-04-11T12:04:42.412Z</time></trkpt><trkpt lat="42.7825313" lon="11.6369052"><ele>805.0</ele><time>2026-04-11T12:04:43.426Z</time></trkpt><trkpt lat="42.7825405" lon="11.6371152"><ele>805.0</ele><time>2026-04-11T12:04:44.404Z</time></trkpt><trkpt lat="42.7825292" lon="11.6373228"><ele>805.0</ele><time>2026-04-11T12:04:45.415Z</time></trkpt><trkpt lat="42.782643" lon="11.637458"><ele>805.0</ele><time>2026-04-11T12:04:46.417Z</time></trkpt><trkpt lat="42.7827181" lon="11.6376592"><ele>812.6666666666666</ele><time>2026-04-11T12:04:47.414Z</time></trkpt><trkpt lat="42.7827703" lon="11.637875"><ele>820.3333333333333</ele><time>2026-04-11T12:04:48.409Z</time></trkpt><trkpt lat="42.7828002" lon="11.6381082"><ele>828.0</ele><time>2026-04-11T12:04:49.409Z</time></trkpt><trkpt lat="42.7828228" lon="11.6383091"><ele>828.0</ele><time>2026-04-11T12:04:50.413Z</time></trkpt><trkpt lat="42.7828669" lon="11.6385911"><ele>828.0</ele><time>2026-04-11T12:04:51.428Z</time></trkpt><trkpt lat="42.7829389" lon="11.6388447"><ele>828.0</ele><time>2026-04-11T12:04:52.418Z</time></trkpt><trkpt lat="42.7829694" lon="11.6390457"><ele>828.25</ele><time>2026-04-11T12:04:53.429Z</time></trkpt><trkpt lat="42.7830165" lon="11.6392587"><ele>828.5</ele><time>2026-04-11T12:04:54.414Z</time></trkpt><trkpt lat="42.7830187" lon="11.6394531"><ele>828.75</ele><time>2026-04-11T12:04:55.414Z</time></trkpt><trkpt lat="42.7830085" lon="11.639648"><ele>829.0</ele><time>2026-04-11T12:04:56.415Z</time></trkpt><trkpt lat="42.7831408" lon="11.6398236"><ele>826.0</ele><time>2026-04-11T12:04:57.408Z</time></trkpt><trkpt lat="42.7832385" lon="11.6399876"><ele>823.0</ele><time>2026-04-11T12:04:58.407Z</time></trkpt><trkpt lat="42.7834094" lon="11.6400728"><ele>820.0</ele><time>2026-04-11T12:04:59.399Z</time></trkpt><trkpt lat="42.7835624" lon="11.6402068"><ele>824.0</ele><time>2026-04-11T12:05:00.401Z</time></trkpt><trkpt lat="42.7837368" lon="11.6402026"><ele>828.0</ele><time>2026-04-11T12:05:01.412Z</time></trkpt><trkpt lat="42.7838953" lon="11.6403227"><ele>832.0</ele><time>2026-04-11T12:05:02.41Z</time></trkpt><trkpt lat="42.7840085" lon="11.640509"><ele>832.0</ele><time>2026-04-11T12:05:03.416Z</time></trkpt><trkpt lat="42.784055" lon="11.6407027"><ele>832.0</ele><time>2026-04-11T12:05:04.417Z</time></trkpt><trkpt lat="42.7840944" lon="11.6409082"><ele>832.0</ele><time>2026-04-11T12:05:05.409Z</time></trkpt><trkpt lat="42.7840959" lon="11.6411842"><ele>828.3333333333333</ele><time>2026-04-11T12:05:06.409Z</time></trkpt><trkpt lat="42.7839799" lon="11.641431"><ele>824.6666666666667</ele><time>2026-04-11T12:05:07.427Z</time></trkpt><trkpt lat="42.7838834" lon="11.6416701"><ele>821.0</ele><time>2026-04-11T12:05:08.417Z</time></trkpt><trkpt lat="42.783902" lon="11.6419037"><ele>817.3333333333334</ele><time>2026-04-11T12:05:09.417Z</time></trkpt><trkpt lat="42.7839035" lon="11.6420988"><ele>813.6666666666667</ele><time>2026-04-11T12:05:10.419Z</time></trkpt><trkpt lat="42.78402" lon="11.6422813"><ele>810.0</ele><time>2026-04-11T12:05:11.412Z</time></trkpt><trkpt lat="42.7841392" lon="11.6423991"><ele>810.0</ele><time>2026-04-11T12:05:12.407Z</time></trkpt><trkpt lat="42.784248" lon="11.6425352"><ele>810.0</ele><time>2026-04-11T12:05:13.413Z</time></trkpt><trkpt lat="42.7843185" lon="11.6425968"><ele>810.0</ele><time>2026-04-11T12:05:14.399Z</time></trkpt><trkpt lat="42.7843723" lon="11.6426496"><ele>810.0</ele><time>2026-04-11T12:05:15.397Z</time></trkpt><trkpt lat="42.7843066" lon="11.6426413"><ele>810.0</ele><time>2026-04-11T12:05:19.419Z</time></trkpt><trkpt lat="42.7842095" lon="11.6425587"><ele>810.0</ele><time>2026-04-11T12:05:21.421Z</time></trkpt><trkpt lat="42.7841444" lon="11.6424952"><ele>810.0</ele><time>2026-04-11T12:05:22.417Z</time></trkpt><trkpt lat="42.7840292" lon="11.6424396"><ele>810.0</ele><time>2026-04-11T12:05:23.406Z</time></trkpt><trkpt lat="42.7838973" lon="11.6423635"><ele>810.0</ele><time>2026-04-11T12:05:24.428Z</time></trkpt><trkpt lat="42.7837799" lon="11.6422927"><ele>810.0</ele><time>2026-04-11T12:05:25.411Z</time></trkpt><trkpt lat="42.7836524" lon="11.642234"><ele>810.0</ele><time>2026-04-11T12:05:26.416Z</time></trkpt><trkpt lat="42.7835164" lon="11.6421761"><ele>810.0</ele><time>2026-04-11T12:05:27.414Z</time></trkpt><trkpt lat="42.7833712" lon="11.6421171"><ele>810.0</ele><time>2026-04-11T12:05:28.419Z</time></trkpt><trkpt lat="42.7832786" lon="11.6419869"><ele>807.0</ele><time>2026-04-11T12:05:29.417Z</time></trkpt><trkpt lat="42.7831411" lon="11.6419315"><ele>804.0</ele><time>2026-04-11T12:05:30.419Z</time></trkpt><trkpt lat="42.7830252" lon="11.6418342"><ele>801.0</ele><time>2026-04-11T12:05:31.444Z</time></trkpt><trkpt lat="42.7829118" lon="11.6417386"><ele>798.0</ele><time>2026-04-11T12:05:32.441Z</time></trkpt><trkpt lat="42.7828036" lon="11.6416165"><ele>798.0</ele><time>2026-04-11T12:05:33.438Z</time></trkpt><trkpt lat="42.7827205" lon="11.6415108"><ele>798.0</ele><time>2026-04-11T12:05:34.456Z</time></trkpt><trkpt lat="42.7826304" lon="11.64138"><ele>798.0</ele><time>2026-04-11T12:05:35.441Z</time></trkpt><trkpt lat="42.7825488" lon="11.6412439"><ele>798.0</ele><time>2026-04-11T12:05:36.435Z</time></trkpt><trkpt lat="42.7824723" lon="11.6411229"><ele>795.5999999999999</ele><time>2026-04-11T12:05:37.422Z</time></trkpt><trkpt lat="42.7823867" lon="11.6410315"><ele>793.1999999999999</ele><time>2026-04-11T12:05:38.435Z</time></trkpt><trkpt lat="42.7823072" lon="11.6409003"><ele>790.8</ele><time>2026-04-11T12:05:39.425Z</time></trkpt><trkpt lat="42.7822132" lon="11.6408132"><ele>788.4</ele><time>2026-04-11T12:05:40.415Z</time></trkpt><trkpt lat="42.7821526" lon="11.640749"><ele>786.0</ele><time>2026-04-11T12:05:41.416Z</time></trkpt><trkpt lat="42.7820632" lon="11.640563"><ele>786.0</ele><time>2026-04-11T12:05:43.419Z</time></trkpt><trkpt lat="42.7820013" lon="11.6404582"><ele>786.0</ele><time>2026-04-11T12:05:44.44Z</time></trkpt><trkpt lat="42.7819843" lon="11.6403147"><ele>786.0</ele><time>2026-04-11T12:05:45.419Z</time></trkpt><trkpt lat="42.781991" lon="11.640135"><ele>786.0</ele><time>2026-04-11T12:05:46.416Z</time></trkpt><trkpt lat="42.7819915" lon="11.6399488"><ele>788.25</ele><time>2026-04-11T12:05:47.409Z</time></trkpt><trkpt lat="42.7820152" lon="11.6397781"><ele>790.5</ele><time>2026-04-11T12:05:48.407Z</time></trkpt><trkpt lat="42.7820432" lon="11.6395845"><ele>792.75</ele><time>2026-04-11T12:05:49.403Z</time></trkpt><trkpt lat="42.7820058" lon="11.6393575"><ele>795.0</ele><time>2026-04-11T12:05:50.41Z</time></trkpt><trkpt lat="42.7819475" lon="11.6392226"><ele>796.25</ele><time>2026-04-11T12:05:51.422Z</time></trkpt><trkpt lat="42.7818715" lon="11.6390778"><ele>797.5</ele><time>2026-04-11T12:05:52.423Z</time></trkpt><trkpt lat="42.781763" lon="11.638932"><ele>798.75</ele><time>2026-04-11T12:05:53.422Z</time></trkpt><trkpt lat="42.7816739" lon="11.6387594"><ele>800.0</ele><time>2026-04-11T12:05:54.43Z</time></trkpt><trkpt lat="42.7815942" lon="11.6386133"><ele>794.75</ele><time>2026-04-11T12:05:55.421Z</time></trkpt><trkpt lat="42.7814979" lon="11.638479"><ele>789.5</ele><time>2026-04-11T12:05:56.433Z</time></trkpt><trkpt lat="42.7814049" lon="11.6383423"><ele>784.25</ele><time>2026-04-11T12:05:57.431Z</time></trkpt><trkpt lat="42.7813172" lon="11.638194"><ele>779.0</ele><time>2026-04-11T12:05:58.429Z</time></trkpt><trkpt lat="42.781238" lon="11.6380379"><ele>779.0</ele><time>2026-04-11T12:05:59.435Z</time></trkpt><trkpt lat="42.7811727" lon="11.637869"><ele>779.0</ele><time>2026-04-11T12:06:00.432Z</time></trkpt><trkpt lat="42.7811303" lon="11.6376826"><ele>779.0</ele><time>2026-04-11T12:06:01.425Z</time></trkpt><trkpt lat="42.7811048" lon="11.6375204"><ele>779.0</ele><time>2026-04-11T12:06:02.45Z</time></trkpt><trkpt lat="42.7810889" lon="11.6373537"><ele>780.25</ele><time>2026-04-11T12:06:03.417Z</time></trkpt><trkpt lat="42.7811294" lon="11.6371873"><ele>781.5</ele><time>2026-04-11T12:06:04.429Z</time></trkpt><trkpt lat="42.7811379" lon="11.6370128"><ele>782.75</ele><time>2026-04-11T12:06:05.431Z</time></trkpt><trkpt lat="42.781156" lon="11.6367817"><ele>784.0</ele><time>2026-04-11T12:06:06.425Z</time></trkpt><trkpt lat="42.781186" lon="11.6365752"><ele>784.0</ele><time>2026-04-11T12:06:07.43Z</time></trkpt><trkpt lat="42.7812145" lon="11.6363612"><ele>784.0</ele><time>2026-04-11T12:06:08.428Z</time></trkpt><trkpt lat="42.7812573" lon="11.636149"><ele>784.0</ele><time>2026-04-11T12:06:09.426Z</time></trkpt><trkpt lat="42.7813252" lon="11.635965"><ele>783.0</ele><time>2026-04-11T12:06:10.431Z</time></trkpt><trkpt lat="42.781363" lon="11.6357821"><ele>782.0</ele><time>2026-04-11T12:06:11.441Z</time></trkpt><trkpt lat="42.7814595" lon="11.6355812"><ele>781.0</ele><time>2026-04-11T12:06:12.428Z</time></trkpt><trkpt lat="42.7815062" lon="11.6353961"><ele>781.0</ele><time>2026-04-11T12:06:13.424Z</time></trkpt><trkpt lat="42.7815306" lon="11.6351944"><ele>781.0</ele><time>2026-04-11T12:06:14.414Z</time></trkpt><trkpt lat="42.7815625" lon="11.6350455"><ele>781.0</ele><time>2026-04-11T12:06:15.416Z</time></trkpt><trkpt lat="42.781545" lon="11.6349377"><ele>781.0</ele><time>2026-04-11T12:06:16.424Z</time></trkpt><trkpt lat="42.7814708" lon="11.6348035"><ele>781.0</ele><time>2026-04-11T12:06:17.422Z</time></trkpt><trkpt lat="42.7813622" lon="11.634685"><ele>781.0</ele><time>2026-04-11T12:06:18.407Z</time></trkpt><trkpt lat="42.781273" lon="11.6345814"><ele>781.0</ele><time>2026-04-11T12:06:19.419Z</time></trkpt><trkpt lat="42.7811864" lon="11.6344899"><ele>781.0</ele><time>2026-04-11T12:06:20.426Z</time></trkpt><trkpt lat="42.7810874" lon="11.6343781"><ele>774.0</ele><time>2026-04-11T12:06:21.416Z</time></trkpt><trkpt lat="42.7809798" lon="11.6342267"><ele>767.0</ele><time>2026-04-11T12:06:22.417Z</time></trkpt><trkpt lat="42.7809007" lon="11.6340521"><ele>760.0</ele><time>2026-04-11T12:06:23.426Z</time></trkpt><trkpt lat="42.780811" lon="11.6338908"><ele>760.0</ele><time>2026-04-11T12:06:24.426Z</time></trkpt><trkpt lat="42.7807133" lon="11.6337378"><ele>760.0</ele><time>2026-04-11T12:06:25.432Z</time></trkpt><trkpt lat="42.7806125" lon="11.6336177"><ele>760.0</ele><time>2026-04-11T12:06:26.427Z</time></trkpt><trkpt lat="42.7805316" lon="11.6334722"><ele>760.0</ele><time>2026-04-11T12:06:27.427Z</time></trkpt><trkpt lat="42.7804602" lon="11.6333059"><ele>762.0</ele><time>2026-04-11T12:06:28.42Z</time></trkpt><trkpt lat="42.780433" lon="11.6331449"><ele>764.0</ele><time>2026-04-11T12:06:29.416Z</time></trkpt><trkpt lat="42.7804516" lon="11.6329578"><ele>766.0</ele><time>2026-04-11T12:06:30.409Z</time></trkpt><trkpt lat="42.7804898" lon="11.6327616"><ele>768.0</ele><time>2026-04-11T12:06:31.414Z</time></trkpt><trkpt lat="42.7805156" lon="11.6326031"><ele>768.5</ele><time>2026-04-11T12:06:32.429Z</time></trkpt><trkpt lat="42.7805416" lon="11.6324509"><ele>769.0</ele><time>2026-04-11T12:06:33.42Z</time></trkpt><trkpt lat="42.7805642" lon="11.6322975"><ele>769.5</ele><time>2026-04-11T12:06:34.405Z</time></trkpt><trkpt lat="42.7805721" lon="11.6321333"><ele>770.0</ele><time>2026-04-11T12:06:35.394Z</time></trkpt><trkpt lat="42.7805295" lon="11.6319793"><ele>766.6</ele><time>2026-04-11T12:06:36.396Z</time></trkpt><trkpt lat="42.7804653" lon="11.6318208"><ele>763.2</ele><time>2026-04-11T12:06:37.408Z</time></trkpt><trkpt lat="42.7804102" lon="11.6316493"><ele>759.8</ele><time>2026-04-11T12:06:38.405Z</time></trkpt><trkpt lat="42.7803583" lon="11.6315343"><ele>756.4</ele><time>2026-04-11T12:06:39.399Z</time></trkpt><trkpt lat="42.78035" lon="11.631429"><ele>753.0</ele><time>2026-04-11T12:06:40.41Z</time></trkpt><trkpt lat="42.7803546" lon="11.6312735"><ele>753.0</ele><time>2026-04-11T12:06:41.407Z</time></trkpt><trkpt lat="42.7803917" lon="11.6311952"><ele>753.0</ele><time>2026-04-11T12:06:42.401Z</time></trkpt><trkpt lat="42.7804407" lon="11.6311136"><ele>753.0</ele><time>2026-04-11T12:06:43.401Z</time></trkpt><trkpt lat="42.7805462" lon="11.6310441"><ele>753.0</ele><time>2026-04-11T12:06:44.408Z</time></trkpt><trkpt lat="42.7807053" lon="11.6310024"><ele>753.0</ele><time>2026-04-11T12:06:45.411Z</time></trkpt><trkpt lat="42.7808302" lon="11.6309664"><ele>752.8333333333334</ele><time>2026-04-11T12:06:46.402Z</time></trkpt><trkpt lat="42.7809385" lon="11.6309413"><ele>752.6666666666666</ele><time>2026-04-11T12:06:47.402Z</time></trkpt><trkpt lat="42.7810362" lon="11.6309362"><ele>752.5</ele><time>2026-04-11T12:06:48.395Z</time></trkpt><trkpt lat="42.7811052" lon="11.630923"><ele>752.3333333333333</ele><time>2026-04-11T12:06:49.388Z</time></trkpt><trkpt lat="42.7811896" lon="11.6309235"><ele>752.1666666666666</ele><time>2026-04-11T12:06:50.382Z</time></trkpt><trkpt lat="42.7812576" lon="11.6308904"><ele>752.0</ele><time>2026-04-11T12:06:51.383Z</time></trkpt><trkpt lat="42.7813247" lon="11.6307569"><ele>752.0</ele><time>2026-04-11T12:06:57.384Z</time></trkpt><trkpt lat="42.7811882" lon="11.6307093"><ele>752.0</ele><time>2026-04-11T12:06:58.385Z</time></trkpt><trkpt lat="42.7811254" lon="11.6306487"><ele>752.0</ele><time>2026-04-11T12:06:59.382Z</time></trkpt><trkpt lat="42.7810192" lon="11.630603"><ele>752.0</ele><time>2026-04-11T12:07:00.394Z</time></trkpt><trkpt lat="42.7809567" lon="11.6305612"><ele>752.0</ele><time>2026-04-11T12:07:01.375Z</time></trkpt><trkpt lat="42.7808164" lon="11.6305933"><ele>745.3333333333333</ele><time>2026-04-11T12:07:02.395Z</time></trkpt><trkpt lat="42.7807144" lon="11.6306322"><ele>738.6666666666666</ele><time>2026-04-11T12:07:03.369Z</time></trkpt><trkpt lat="42.7806342" lon="11.6306669"><ele>732.0</ele><time>2026-04-11T12:07:04.373Z</time></trkpt><trkpt lat="42.7803484" lon="11.6307392"><ele>724.5</ele><time>2026-04-11T12:07:05.384Z</time></trkpt><trkpt lat="42.7801065" lon="11.6307947"><ele>717.0</ele><time>2026-04-11T12:07:06.376Z</time></trkpt><trkpt lat="42.7799037" lon="11.6308639"><ele>717.0</ele><time>2026-04-11T12:07:07.375Z</time></trkpt><trkpt lat="42.779637" lon="11.6309681"><ele>717.0</ele><time>2026-04-11T12:07:08.387Z</time></trkpt><trkpt lat="42.779411" lon="11.6310644"><ele>714.0</ele><time>2026-04-11T12:07:09.402Z</time></trkpt><trkpt lat="42.7792052" lon="11.6311632"><ele>711.0</ele><time>2026-04-11T12:07:10.408Z</time></trkpt><trkpt lat="42.7790537" lon="11.631218"><ele>708.0</ele><time>2026-04-11T12:07:11.416Z</time></trkpt><trkpt lat="42.7789321" lon="11.6312753"><ele>708.0</ele><time>2026-04-11T12:07:12.403Z</time></trkpt><trkpt lat="42.7788462" lon="11.6313486"><ele>708.0</ele><time>2026-04-11T12:07:13.401Z</time></trkpt><trkpt lat="42.7787778" lon="11.6314383"><ele>708.0</ele><time>2026-04-11T12:07:14.385Z</time></trkpt><trkpt lat="42.7787173" lon="11.6315089"><ele>708.0</ele><time>2026-04-11T12:07:15.399Z</time></trkpt><trkpt lat="42.7786978" lon="11.6316252"><ele>708.0</ele><time>2026-04-11T12:07:17.407Z</time></trkpt><trkpt lat="42.778728" lon="11.6317135"><ele>708.0</ele><time>2026-04-11T12:07:18.413Z</time></trkpt><trkpt lat="42.7787666" lon="11.6318092"><ele>708.0</ele><time>2026-04-11T12:07:19.412Z</time></trkpt><trkpt lat="42.7787859" lon="11.631914"><ele>708.0</ele><time>2026-04-11T12:07:20.42Z</time></trkpt><trkpt lat="42.7788131" lon="11.6320404"><ele>708.0</ele><time>2026-04-11T12:07:21.422Z</time></trkpt><trkpt lat="42.7788297" lon="11.6321726"><ele>708.0</ele><time>2026-04-11T12:07:22.425Z</time></trkpt><trkpt lat="42.7788308" lon="11.6323028"><ele>708.0</ele><time>2026-04-11T12:07:23.431Z</time></trkpt><trkpt lat="42.7788275" lon="11.6324348"><ele>708.8</ele><time>2026-04-11T12:07:24.429Z</time></trkpt><trkpt lat="42.778837" lon="11.6325636"><ele>709.5999999999999</ele><time>2026-04-11T12:07:25.422Z</time></trkpt><trkpt lat="42.7788707" lon="11.6326953"><ele>710.4000000000001</ele><time>2026-04-11T12:07:26.413Z</time></trkpt><trkpt lat="42.7789236" lon="11.6328242"><ele>711.2</ele><time>2026-04-11T12:07:27.408Z</time></trkpt><trkpt lat="42.7789761" lon="11.6329707"><ele>712.0</ele><time>2026-04-11T12:07:28.4Z</time></trkpt><trkpt lat="42.7790166" lon="11.6331393"><ele>712.0</ele><time>2026-04-11T12:07:29.401Z</time></trkpt><trkpt lat="42.7790446" lon="11.6332892"><ele>712.0</ele><time>2026-04-11T12:07:30.407Z</time></trkpt><trkpt lat="42.7790264" lon="11.6334608"><ele>712.0</ele><time>2026-04-11T12:07:31.399Z</time></trkpt><trkpt lat="42.7789785" lon="11.6336112"><ele>712.0</ele><time>2026-04-11T12:07:32.407Z</time></trkpt><trkpt lat="42.7788856" lon="11.6337319"><ele>713.75</ele><time>2026-04-11T12:07:33.392Z</time></trkpt><trkpt lat="42.7787939" lon="11.6338487"><ele>715.5</ele><time>2026-04-11T12:07:34.395Z</time></trkpt><trkpt lat="42.7786946" lon="11.6339542"><ele>717.25</ele><time>2026-04-11T12:07:35.407Z</time></trkpt><trkpt lat="42.7786069" lon="11.6340481"><ele>719.0</ele><time>2026-04-11T12:07:36.395Z</time></trkpt><trkpt lat="42.7785029" lon="11.6341114"><ele>715.25</ele><time>2026-04-11T12:07:37.419Z</time></trkpt><trkpt lat="42.77843" lon="11.6342508"><ele>711.5</ele><time>2026-04-11T12:07:38.413Z</time></trkpt><trkpt lat="42.7783673" lon="11.6344039"><ele>707.75</ele><time>2026-04-11T12:07:39.414Z</time></trkpt><trkpt lat="42.7782892" lon="11.634559"><ele>704.0</ele><time>2026-04-11T12:07:40.412Z</time></trkpt><trkpt lat="42.7782" lon="11.6347625"><ele>704.0</ele><time>2026-04-11T12:07:41.416Z</time></trkpt><trkpt lat="42.7781209" lon="11.6349313"><ele>704.0</ele><time>2026-04-11T12:07:42.413Z</time></trkpt><trkpt lat="42.7780314" lon="11.6351024"><ele>704.0</ele><time>2026-04-11T12:07:43.399Z</time></trkpt><trkpt lat="42.7780308" lon="11.6352656"><ele>704.0</ele><time>2026-04-11T12:07:44.395Z</time></trkpt><trkpt lat="42.7781159" lon="11.6353211"><ele>702.75</ele><time>2026-04-11T12:07:45.396Z</time></trkpt><trkpt lat="42.7782382" lon="11.6353417"><ele>701.5</ele><time>2026-04-11T12:07:46.399Z</time></trkpt><trkpt lat="42.7783485" lon="11.635467"><ele>700.25</ele><time>2026-04-11T12:07:47.398Z</time></trkpt><trkpt lat="42.778447" lon="11.6355601"><ele>699.0</ele><time>2026-04-11T12:07:48.399Z</time></trkpt><trkpt lat="42.7785108" lon="11.6356919"><ele>699.0</ele><time>2026-04-11T12:07:49.4Z</time></trkpt><trkpt lat="42.7785146" lon="11.6358943"><ele>699.0</ele><time>2026-04-11T12:07:50.404Z</time></trkpt><trkpt lat="42.7785315" lon="11.6361029"><ele>699.0</ele><time>2026-04-11T12:07:51.399Z</time></trkpt><trkpt lat="42.7785451" lon="11.6362963"><ele>699.0</ele><time>2026-04-11T12:07:52.414Z</time></trkpt><trkpt lat="42.7785552" lon="11.6364771"><ele>698.5</ele><time>2026-04-11T12:07:53.403Z</time></trkpt><trkpt lat="42.7785346" lon="11.6366627"><ele>698.0</ele><time>2026-04-11T12:07:54.403Z</time></trkpt><trkpt lat="42.7785073" lon="11.6368027"><ele>697.5</ele><time>2026-04-11T12:07:55.409Z</time></trkpt><trkpt lat="42.778472" lon="11.6369213"><ele>697.0</ele><time>2026-04-11T12:07:56.399Z</time></trkpt><trkpt lat="42.7785302" lon="11.6370751"><ele>703.5</ele><time>2026-04-11T12:07:57.398Z</time></trkpt><trkpt lat="42.7786358" lon="11.6371563"><ele>710.0</ele><time>2026-04-11T12:07:58.395Z</time></trkpt><trkpt lat="42.7787252" lon="11.6372888"><ele>716.5</ele><time>2026-04-11T12:07:59.408Z</time></trkpt><trkpt lat="42.7788157" lon="11.6374573"><ele>723.0</ele><time>2026-04-11T12:08:00.403Z</time></trkpt><trkpt lat="42.7787979" lon="11.637644"><ele>720.5</ele><time>2026-04-11T12:08:01.411Z</time></trkpt><trkpt lat="42.7788282" lon="11.6378059"><ele>718.0</ele><time>2026-04-11T12:08:02.418Z</time></trkpt><trkpt lat="42.7788919" lon="11.6379729"><ele>715.5</ele><time>2026-04-11T12:08:03.398Z</time></trkpt><trkpt lat="42.7789638" lon="11.6381198"><ele>713.0</ele><time>2026-04-11T12:08:04.4Z</time></trkpt><trkpt lat="42.7790292" lon="11.6382413"><ele>713.0</ele><time>2026-04-11T12:08:05.411Z</time></trkpt><trkpt lat="42.7791111" lon="11.6383615"><ele>713.0</ele><time>2026-04-11T12:08:06.421Z</time></trkpt><trkpt lat="42.7792019" lon="11.6384895"><ele>713.0</ele><time>2026-04-11T12:08:07.418Z</time></trkpt><trkpt lat="42.779247" lon="11.6386404"><ele>713.0</ele><time>2026-04-11T12:08:08.412Z</time></trkpt><trkpt lat="42.7792702" lon="11.6387954"><ele>712.0</ele><time>2026-04-11T12:08:09.404Z</time></trkpt><trkpt lat="42.7792836" lon="11.6389405"><ele>711.0</ele><time>2026-04-11T12:08:10.407Z</time></trkpt><trkpt lat="42.7792587" lon="11.6390745"><ele>710.0</ele><time>2026-04-11T12:08:11.409Z</time></trkpt><trkpt lat="42.7792056" lon="11.6392064"><ele>709.0</ele><time>2026-04-11T12:08:12.42Z</time></trkpt><trkpt lat="42.7791558" lon="11.6393558"><ele>708.0</ele><time>2026-04-11T12:08:13.417Z</time></trkpt><trkpt lat="42.7791404" lon="11.6395298"><ele>707.6666666666666</ele><time>2026-04-11T12:08:14.406Z</time></trkpt><trkpt lat="42.7791389" lon="11.6397213"><ele>707.3333333333333</ele><time>2026-04-11T12:08:15.409Z</time></trkpt><trkpt lat="42.7791544" lon="11.639928"><ele>707.0</ele><time>2026-04-11T12:08:16.408Z</time></trkpt><trkpt lat="42.7791599" lon="11.6401505"><ele>706.6666666666666</ele><time>2026-04-11T12:08:17.411Z</time></trkpt><trkpt lat="42.7791233" lon="11.6404096"><ele>706.3333333333334</ele><time>2026-04-11T12:08:18.414Z</time></trkpt><trkpt lat="42.7790538" lon="11.6406523"><ele>706.0</ele><time>2026-04-11T12:08:19.421Z</time></trkpt><trkpt lat="42.7790191" lon="11.64085"><ele>706.0</ele><time>2026-04-11T12:08:20.413Z</time></trkpt><trkpt lat="42.7789687" lon="11.6410621"><ele>706.0</ele><time>2026-04-11T12:08:21.412Z</time></trkpt><trkpt lat="42.778939" lon="11.6413256"><ele>706.0</ele><time>2026-04-11T12:08:22.422Z</time></trkpt><trkpt lat="42.7788957" lon="11.6415372"><ele>706.3333333333334</ele><time>2026-04-11T12:08:23.418Z</time></trkpt><trkpt lat="42.7788553" lon="11.641796"><ele>706.6666666666666</ele><time>2026-04-11T12:08:24.413Z</time></trkpt><trkpt lat="42.7788012" lon="11.6420213"><ele>707.0</ele><time>2026-04-11T12:08:25.418Z</time></trkpt><trkpt lat="42.7787605" lon="11.6422593"><ele>707.0</ele><time>2026-04-11T12:08:26.416Z</time></trkpt><trkpt lat="42.7787133" lon="11.6424564"><ele>707.0</ele><time>2026-04-11T12:08:27.414Z</time></trkpt><trkpt lat="42.7786619" lon="11.6426309"><ele>707.0</ele><time>2026-04-11T12:08:28.413Z</time></trkpt><trkpt lat="42.7786205" lon="11.6428102"><ele>707.0</ele><time>2026-04-11T12:08:29.42Z</time></trkpt><trkpt lat="42.7785934" lon="11.6430079"><ele>707.0</ele><time>2026-04-11T12:08:30.419Z</time></trkpt><trkpt lat="42.7785977" lon="11.6432184"><ele>707.0</ele><time>2026-04-11T12:08:31.425Z</time></trkpt><trkpt lat="42.7785396" lon="11.6434018"><ele>707.0</ele><time>2026-04-11T12:08:32.435Z</time></trkpt><trkpt lat="42.7784346" lon="11.6434949"><ele>707.0</ele><time>2026-04-11T12:08:33.43Z</time></trkpt><trkpt lat="42.7783904" lon="11.6436828"><ele>707.0</ele><time>2026-04-11T12:08:34.432Z</time></trkpt><trkpt lat="42.7783246" lon="11.6438614"><ele>707.0</ele><time>2026-04-11T12:08:35.431Z</time></trkpt><trkpt lat="42.778283" lon="11.6440143"><ele>707.0</ele><time>2026-04-11T12:08:36.424Z</time></trkpt><trkpt lat="42.7782084" lon="11.6441831"><ele>707.0</ele><time>2026-04-11T12:08:37.434Z</time></trkpt><trkpt lat="42.7780496" lon="11.6443356"><ele>707.0</ele><time>2026-04-11T12:08:38.428Z</time></trkpt><trkpt lat="42.77793" lon="11.644341"><ele>707.0</ele><time>2026-04-11T12:08:39.409Z</time></trkpt><trkpt lat="42.7777747" lon="11.6443611"><ele>707.0</ele><time>2026-04-11T12:08:40.41Z</time></trkpt><trkpt lat="42.7775973" lon="11.6443122"><ele>706.5</ele><time>2026-04-11T12:08:41.4Z</time></trkpt><trkpt lat="42.7774497" lon="11.6442729"><ele>706.0</ele><time>2026-04-11T12:08:42.413Z</time></trkpt><trkpt lat="42.7773204" lon="11.6442241"><ele>705.5</ele><time>2026-04-11T12:08:43.409Z</time></trkpt><trkpt lat="42.7771679" lon="11.6442139"><ele>705.0</ele><time>2026-04-11T12:08:44.417Z</time></trkpt><trkpt lat="42.7770235" lon="11.6442224"><ele>705.0</ele><time>2026-04-11T12:08:45.41Z</time></trkpt><trkpt lat="42.7768843" lon="11.644269"><ele>705.0</ele><time>2026-04-11T12:08:46.409Z</time></trkpt><trkpt lat="42.776742" lon="11.6442548"><ele>705.0</ele><time>2026-04-11T12:08:47.415Z</time></trkpt><trkpt lat="42.7766028" lon="11.6442889"><ele>705.0</ele><time>2026-04-11T12:08:48.411Z</time></trkpt><trkpt lat="42.77645" lon="11.6443243"><ele>706.75</ele><time>2026-04-11T12:08:49.411Z</time></trkpt><trkpt lat="42.7763006" lon="11.6443469"><ele>708.5</ele><time>2026-04-11T12:08:50.413Z</time></trkpt><trkpt lat="42.7761492" lon="11.6443907"><ele>710.25</ele><time>2026-04-11T12:08:51.411Z</time></trkpt><trkpt lat="42.7760235" lon="11.64445"><ele>712.0</ele><time>2026-04-11T12:08:52.421Z</time></trkpt><trkpt lat="42.7758929" lon="11.6444968"><ele>714.75</ele><time>2026-04-11T12:08:53.409Z</time></trkpt><trkpt lat="42.775753" lon="11.6445536"><ele>717.5</ele><time>2026-04-11T12:08:54.411Z</time></trkpt><trkpt lat="42.7756296" lon="11.6446126"><ele>720.25</ele><time>2026-04-11T12:08:55.414Z</time></trkpt><trkpt lat="42.7754875" lon="11.6447112"><ele>723.0</ele><time>2026-04-11T12:08:56.412Z</time></trkpt><trkpt lat="42.7753412" lon="11.6447597"><ele>723.0</ele><time>2026-04-11T12:08:57.411Z</time></trkpt><trkpt lat="42.7752037" lon="11.6447845"><ele>723.0</ele><time>2026-04-11T12:08:58.406Z</time></trkpt><trkpt lat="42.7750889" lon="11.6448231"><ele>723.0</ele><time>2026-04-11T12:08:59.405Z</time></trkpt><trkpt lat="42.7749673" lon="11.6448661"><ele>723.0</ele><time>2026-04-11T12:09:00.407Z</time></trkpt><trkpt lat="42.7748563" lon="11.6448732"><ele>721.0</ele><time>2026-04-11T12:09:01.413Z</time></trkpt><trkpt lat="42.7747556" lon="11.6448502"><ele>719.0</ele><time>2026-04-11T12:09:02.432Z</time></trkpt><trkpt lat="42.7746471" lon="11.6447302"><ele>717.0</ele><time>2026-04-11T12:09:03.412Z</time></trkpt><trkpt lat="42.7745888" lon="11.6445694"><ele>715.0</ele><time>2026-04-11T12:09:04.41Z</time></trkpt><trkpt lat="42.7745518" lon="11.6444284"><ele>713.4</ele><time>2026-04-11T12:09:05.403Z</time></trkpt><trkpt lat="42.7744909" lon="11.6443245"><ele>711.8</ele><time>2026-04-11T12:09:06.399Z</time></trkpt><trkpt lat="42.7743947" lon="11.6442736"><ele>710.2</ele><time>2026-04-11T12:09:07.399Z</time></trkpt><trkpt lat="42.7742795" lon="11.6442257"><ele>708.6</ele><time>2026-04-11T12:09:08.412Z</time></trkpt><trkpt lat="42.7741742" lon="11.6441668"><ele>707.0</ele><time>2026-04-11T12:09:09.412Z</time></trkpt><trkpt lat="42.774038" lon="11.6441211"><ele>707.0</ele><time>2026-04-11T12:09:10.41Z</time></trkpt><trkpt lat="42.773903" lon="11.6440767"><ele>707.0</ele><time>2026-04-11T12:09:11.409Z</time></trkpt><trkpt lat="42.7737698" lon="11.6440157"><ele>707.0</ele><time>2026-04-11T12:09:12.412Z</time></trkpt><trkpt lat="42.773636" lon="11.6439625"><ele>707.0</ele><time>2026-04-11T12:09:13.408Z</time></trkpt><trkpt lat="42.7735076" lon="11.6439017"><ele>709.0</ele><time>2026-04-11T12:09:14.404Z</time></trkpt><trkpt lat="42.7733762" lon="11.6438457"><ele>711.0</ele><time>2026-04-11T12:09:15.427Z</time></trkpt><trkpt lat="42.7732565" lon="11.6437649"><ele>713.0</ele><time>2026-04-11T12:09:16.417Z</time></trkpt><trkpt lat="42.7731444" lon="11.6437338"><ele>715.0</ele><time>2026-04-11T12:09:17.423Z</time></trkpt><trkpt lat="42.7730342" lon="11.6437337"><ele>715.0</ele><time>2026-04-11T12:09:18.413Z</time></trkpt><trkpt lat="42.7729393" lon="11.6437611"><ele>715.0</ele><time>2026-04-11T12:09:19.424Z</time></trkpt><trkpt lat="42.7728272" lon="11.6438248"><ele>715.0</ele><time>2026-04-11T12:09:20.417Z</time></trkpt><trkpt lat="42.7727133" lon="11.6438872"><ele>715.0</ele><time>2026-04-11T12:09:21.419Z</time></trkpt><trkpt lat="42.7726049" lon="11.643945"><ele>713.8</ele><time>2026-04-11T12:09:22.412Z</time></trkpt><trkpt lat="42.7724893" lon="11.6439697"><ele>712.6</ele><time>2026-04-11T12:09:23.414Z</time></trkpt><trkpt lat="42.7723852" lon="11.6439801"><ele>711.4000000000001</ele><time>2026-04-11T12:09:24.424Z</time></trkpt><trkpt lat="42.7722818" lon="11.6439345"><ele>710.2</ele><time>2026-04-11T12:09:25.425Z</time></trkpt><trkpt lat="42.7721977" lon="11.6438565"><ele>709.0</ele><time>2026-04-11T12:09:26.419Z</time></trkpt><trkpt lat="42.7721519" lon="11.6437529"><ele>709.0</ele><time>2026-04-11T12:09:27.437Z</time></trkpt><trkpt lat="42.7721111" lon="11.6436381"><ele>709.0</ele><time>2026-04-11T12:09:28.433Z</time></trkpt><trkpt lat="42.772048" lon="11.6435477"><ele>709.0</ele><time>2026-04-11T12:09:29.43Z</time></trkpt><trkpt lat="42.7720019" lon="11.643457"><ele>709.0</ele><time>2026-04-11T12:09:30.428Z</time></trkpt><trkpt lat="42.7719479" lon="11.6433537"><ele>709.0</ele><time>2026-04-11T12:09:31.433Z</time></trkpt><trkpt lat="42.7718902" lon="11.6432437"><ele>707.4000000000001</ele><time>2026-04-11T12:09:32.464Z</time></trkpt><trkpt lat="42.7718484" lon="11.643143"><ele>705.8</ele><time>2026-04-11T12:09:33.434Z</time></trkpt><trkpt lat="42.7718044" lon="11.6430472"><ele>704.2</ele><time>2026-04-11T12:09:34.432Z</time></trkpt><trkpt lat="42.7717686" lon="11.642967"><ele>702.5999999999999</ele><time>2026-04-11T12:09:35.435Z</time></trkpt><trkpt lat="42.7716944" lon="11.6428274"><ele>701.0</ele><time>2026-04-11T12:09:37.437Z</time></trkpt><trkpt lat="42.7716055" lon="11.6427646"><ele>701.0</ele><time>2026-04-11T12:09:39.453Z</time></trkpt><trkpt lat="42.7714591" lon="11.6427721"><ele>701.0</ele><time>2026-04-11T12:09:41.442Z</time></trkpt><trkpt lat="42.7713868" lon="11.6428463"><ele>701.0</ele><time>2026-04-11T12:09:42.437Z</time></trkpt><trkpt lat="42.7713128" lon="11.642985"><ele>701.0</ele><time>2026-04-11T12:09:43.427Z</time></trkpt><trkpt lat="42.7712188" lon="11.6431251"><ele>701.0</ele><time>2026-04-11T12:09:44.414Z</time></trkpt><trkpt lat="42.7711126" lon="11.6432689"><ele>701.0</ele><time>2026-04-11T12:09:45.418Z</time></trkpt><trkpt lat="42.7709908" lon="11.6433707"><ele>701.0</ele><time>2026-04-11T12:09:46.415Z</time></trkpt><trkpt lat="42.7708637" lon="11.6434406"><ele>701.0</ele><time>2026-04-11T12:09:47.412Z</time></trkpt><trkpt lat="42.7707176" lon="11.6434888"><ele>698.75</ele><time>2026-04-11T12:09:48.413Z</time></trkpt><trkpt lat="42.7705781" lon="11.6435077"><ele>696.5</ele><time>2026-04-11T12:09:49.413Z</time></trkpt><trkpt lat="42.7704516" lon="11.6435053"><ele>694.25</ele><time>2026-04-11T12:09:50.419Z</time></trkpt><trkpt lat="42.7703352" lon="11.6434767"><ele>692.0</ele><time>2026-04-11T12:09:51.426Z</time></trkpt><trkpt lat="42.7702256" lon="11.6434101"><ele>690.75</ele><time>2026-04-11T12:09:52.422Z</time></trkpt><trkpt lat="42.7701162" lon="11.6433255"><ele>689.5</ele><time>2026-04-11T12:09:53.433Z</time></trkpt><trkpt lat="42.7700108" lon="11.6432356"><ele>688.25</ele><time>2026-04-11T12:09:54.434Z</time></trkpt><trkpt lat="42.7699116" lon="11.6431852"><ele>687.0</ele><time>2026-04-11T12:09:55.433Z</time></trkpt><trkpt lat="42.7698037" lon="11.6431473"><ele>687.0</ele><time>2026-04-11T12:09:56.43Z</time></trkpt><trkpt lat="42.7696921" lon="11.643138"><ele>687.0</ele><time>2026-04-11T12:09:57.427Z</time></trkpt><trkpt lat="42.7695739" lon="11.6431378"><ele>687.0</ele><time>2026-04-11T12:09:58.43Z</time></trkpt><trkpt lat="42.7694609" lon="11.6431506"><ele>687.0</ele><time>2026-04-11T12:09:59.431Z</time></trkpt><trkpt lat="42.7693553" lon="11.6431569"><ele>687.0</ele><time>2026-04-11T12:10:00.436Z</time></trkpt><trkpt lat="42.7692552" lon="11.6431577"><ele>685.8</ele><time>2026-04-11T12:10:01.429Z</time></trkpt><trkpt lat="42.7691524" lon="11.6431398"><ele>684.6</ele><time>2026-04-11T12:10:02.427Z</time></trkpt><trkpt lat="42.7690533" lon="11.6431012"><ele>683.4</ele><time>2026-04-11T12:10:03.417Z</time></trkpt><trkpt lat="42.7689735" lon="11.6430105"><ele>682.1999999999999</ele><time>2026-04-11T12:10:04.434Z</time></trkpt><trkpt lat="42.7689047" lon="11.6428894"><ele>681.0</ele><time>2026-04-11T12:10:05.434Z</time></trkpt><trkpt lat="42.7688485" lon="11.6427595"><ele>679.1999999999999</ele><time>2026-04-11T12:10:06.442Z</time></trkpt><trkpt lat="42.7687946" lon="11.6426472"><ele>677.4</ele><time>2026-04-11T12:10:07.438Z</time></trkpt><trkpt lat="42.7687432" lon="11.6425495"><ele>675.6</ele><time>2026-04-11T12:10:08.426Z</time></trkpt><trkpt lat="42.768685" lon="11.6424793"><ele>673.8</ele><time>2026-04-11T12:10:09.429Z</time></trkpt><trkpt lat="42.7686247" lon="11.6424515"><ele>672.0</ele><time>2026-04-11T12:10:10.439Z</time></trkpt><trkpt lat="42.768489" lon="11.6425193"><ele>671.8</ele><time>2026-04-11T12:10:12.422Z</time></trkpt><trkpt lat="42.7683883" lon="11.642613"><ele>671.6</ele><time>2026-04-11T12:10:13.426Z</time></trkpt><trkpt lat="42.7682926" lon="11.6426951"><ele>671.4</ele><time>2026-04-11T12:10:14.424Z</time></trkpt><trkpt lat="42.7682021" lon="11.6427641"><ele>671.1999999999999</ele><time>2026-04-11T12:10:15.419Z</time></trkpt><trkpt lat="42.7681242" lon="11.6428072"><ele>671.0</ele><time>2026-04-11T12:10:16.425Z</time></trkpt><trkpt lat="42.7680558" lon="11.6428464"><ele>671.0</ele><time>2026-04-11T12:10:17.416Z</time></trkpt><trkpt lat="42.7679924" lon="11.6428943"><ele>671.0</ele><time>2026-04-11T12:10:19.424Z</time></trkpt><trkpt lat="42.7680578" lon="11.6429759"><ele>671.0</ele><time>2026-04-11T12:10:22.433Z</time></trkpt><trkpt lat="42.7681751" lon="11.6429054"><ele>671.0</ele><time>2026-04-11T12:10:24.436Z</time></trkpt><trkpt lat="42.7682387" lon="11.6428513"><ele>671.0</ele><time>2026-04-11T12:10:25.438Z</time></trkpt><trkpt lat="42.7683351" lon="11.6428042"><ele>671.25</ele><time>2026-04-11T12:10:26.431Z</time></trkpt><trkpt lat="42.7684666" lon="11.6427421"><ele>671.5</ele><time>2026-04-11T12:10:27.428Z</time></trkpt><trkpt lat="42.768588" lon="11.642676"><ele>671.75</ele><time>2026-04-11T12:10:28.438Z</time></trkpt><trkpt lat="42.7686882" lon="11.6426287"><ele>672.0</ele><time>2026-04-11T12:10:29.447Z</time></trkpt><trkpt lat="42.7687873" lon="11.6425992"><ele>672.0</ele><time>2026-04-11T12:10:30.436Z</time></trkpt><trkpt lat="42.7688709" lon="11.6425977"><ele>672.0</ele><time>2026-04-11T12:10:31.428Z</time></trkpt><trkpt lat="42.7689617" lon="11.642642"><ele>672.0</ele><time>2026-04-11T12:10:32.432Z</time></trkpt><trkpt lat="42.7690452" lon="11.6427151"><ele>672.0</ele><time>2026-04-11T12:10:33.421Z</time></trkpt><trkpt lat="42.7691013" lon="11.6428311"><ele>672.0</ele><time>2026-04-11T12:10:34.428Z</time></trkpt><trkpt lat="42.7691558" lon="11.6429609"><ele>673.5</ele><time>2026-04-11T12:10:35.433Z</time></trkpt><trkpt lat="42.7692117" lon="11.6430766"><ele>675.0</ele><time>2026-04-11T12:10:36.416Z</time></trkpt><trkpt lat="42.7692697" lon="11.6431845"><ele>676.5</ele><time>2026-04-11T12:10:37.416Z</time></trkpt><trkpt lat="42.7693142" lon="11.643268"><ele>678.0</ele><time>2026-04-11T12:10:38.422Z</time></trkpt><trkpt lat="42.7693937" lon="11.6433"><ele>679.5</ele><time>2026-04-11T12:10:39.416Z</time></trkpt><trkpt lat="42.7694824" lon="11.6433103"><ele>681.0</ele><time>2026-04-11T12:10:40.417Z</time></trkpt><trkpt lat="42.7695896" lon="11.6432882"><ele>682.5</ele><time>2026-04-11T12:10:41.422Z</time></trkpt><trkpt lat="42.7697098" lon="11.6432617"><ele>684.0</ele><time>2026-04-11T12:10:42.42Z</time></trkpt><trkpt lat="42.769847" lon="11.6432191"><ele>685.5</ele><time>2026-04-11T12:10:43.43Z</time></trkpt><trkpt lat="42.7699777" lon="11.6432031"><ele>687.0</ele><time>2026-04-11T12:10:44.429Z</time></trkpt><trkpt lat="42.7701028" lon="11.643201"><ele>687.8333333333334</ele><time>2026-04-11T12:10:45.43Z</time></trkpt><trkpt lat="42.7702118" lon="11.6432159"><ele>688.6666666666666</ele><time>2026-04-11T12:10:46.423Z</time></trkpt><trkpt lat="42.7703045" lon="11.6432463"><ele>689.5</ele><time>2026-04-11T12:10:47.433Z</time></trkpt><trkpt lat="42.7703782" lon="11.6432923"><ele>690.3333333333333</ele><time>2026-04-11T12:10:48.422Z</time></trkpt><trkpt lat="42.7704355" lon="11.6433299"><ele>691.1666666666666</ele><time>2026-04-11T12:10:49.424Z</time></trkpt><trkpt lat="42.7704498" lon="11.6434365"><ele>692.0</ele><time>2026-04-11T12:10:51.417Z</time></trkpt><trkpt lat="42.7703555" lon="11.6434878"><ele>692.0</ele><time>2026-04-11T12:10:53.427Z</time></trkpt><trkpt lat="42.7702709" lon="11.6434987"><ele>692.0</ele><time>2026-04-11T12:10:54.417Z</time></trkpt><trkpt lat="42.7701688" lon="11.6435027"><ele>692.0</ele><time>2026-04-11T12:10:55.42Z</time></trkpt><trkpt lat="42.7700531" lon="11.6435215"><ele>692.0</ele><time>2026-04-11T12:10:56.418Z</time></trkpt><trkpt lat="42.7699254" lon="11.6435537"><ele>692.0</ele><time>2026-04-11T12:10:57.421Z</time></trkpt><trkpt lat="42.7697842" lon="11.6435973"><ele>693.0</ele><time>2026-04-11T12:10:58.427Z</time></trkpt><trkpt lat="42.7696505" lon="11.6436254"><ele>694.0</ele><time>2026-04-11T12:10:59.426Z</time></trkpt><trkpt lat="42.7695094" lon="11.6436574"><ele>695.0</ele><time>2026-04-11T12:11:00.429Z</time></trkpt><trkpt lat="42.7693615" lon="11.6436799"><ele>696.0</ele><time>2026-04-11T12:11:01.428Z</time></trkpt><trkpt lat="42.7692279" lon="11.6437321"><ele>693.3333333333334</ele><time>2026-04-11T12:11:02.424Z</time></trkpt><trkpt lat="42.7690893" lon="11.6438011"><ele>690.6666666666667</ele><time>2026-04-11T12:11:03.428Z</time></trkpt><trkpt lat="42.768952" lon="11.6439027"><ele>688.0</ele><time>2026-04-11T12:11:04.432Z</time></trkpt><trkpt lat="42.7688024" lon="11.6439826"><ele>688.0</ele><time>2026-04-11T12:11:05.435Z</time></trkpt><trkpt lat="42.7686721" lon="11.6440487"><ele>688.0</ele><time>2026-04-11T12:11:06.428Z</time></trkpt><trkpt lat="42.7685425" lon="11.6441119"><ele>688.0</ele><time>2026-04-11T12:11:07.429Z</time></trkpt><trkpt lat="42.7684255" lon="11.6441868"><ele>688.0</ele><time>2026-04-11T12:11:08.429Z</time></trkpt><trkpt lat="42.7683011" lon="11.6442482"><ele>688.25</ele><time>2026-04-11T12:11:09.437Z</time></trkpt><trkpt lat="42.7681766" lon="11.644293"><ele>688.5</ele><time>2026-04-11T12:11:10.428Z</time></trkpt><trkpt lat="42.768032" lon="11.6443696"><ele>688.75</ele><time>2026-04-11T12:11:11.43Z</time></trkpt><trkpt lat="42.7678971" lon="11.6444242"><ele>689.0</ele><time>2026-04-11T12:11:12.44Z</time></trkpt><trkpt lat="42.767765" lon="11.644465"><ele>687.25</ele><time>2026-04-11T12:11:13.431Z</time></trkpt><trkpt lat="42.7676453" lon="11.6445393"><ele>685.5</ele><time>2026-04-11T12:11:14.421Z</time></trkpt><trkpt lat="42.767528" lon="11.6446207"><ele>683.75</ele><time>2026-04-11T12:11:15.419Z</time></trkpt><trkpt lat="42.7674218" lon="11.6446885"><ele>682.0</ele><time>2026-04-11T12:11:16.418Z</time></trkpt><trkpt lat="42.7673561" lon="11.6447717"><ele>682.0</ele><time>2026-04-11T12:11:17.426Z</time></trkpt><trkpt lat="42.7672797" lon="11.6448378"><ele>682.0</ele><time>2026-04-11T12:11:18.419Z</time></trkpt><trkpt lat="42.7671803" lon="11.6448599"><ele>682.0</ele><time>2026-04-11T12:11:19.399Z</time></trkpt><trkpt lat="42.767078" lon="11.6448545"><ele>682.0</ele><time>2026-04-11T12:11:20.403Z</time></trkpt><trkpt lat="42.7669795" lon="11.6448024"><ele>682.0</ele><time>2026-04-11T12:11:21.406Z</time></trkpt><trkpt lat="42.7668959" lon="11.6447351"><ele>681.1666666666667</ele><time>2026-04-11T12:11:22.395Z</time></trkpt><trkpt lat="42.766821" lon="11.6446956"><ele>680.3333333333334</ele><time>2026-04-11T12:11:23.392Z</time></trkpt><trkpt lat="42.7667244" lon="11.6446485"><ele>679.5</ele><time>2026-04-11T12:11:25.398Z</time></trkpt><trkpt lat="42.7666717" lon="11.6447429"><ele>678.6666666666666</ele><time>2026-04-11T12:11:28.405Z</time></trkpt><trkpt lat="42.7666918" lon="11.6448243"><ele>677.8333333333333</ele><time>2026-04-11T12:11:29.405Z</time></trkpt><trkpt lat="42.766748" lon="11.6449262"><ele>677.0</ele><time>2026-04-11T12:11:30.41Z</time></trkpt><trkpt lat="42.7668128" lon="11.6450383"><ele>678.0</ele><time>2026-04-11T12:11:31.404Z</time></trkpt><trkpt lat="42.7668716" lon="11.6451479"><ele>679.0</ele><time>2026-04-11T12:11:32.409Z</time></trkpt><trkpt lat="42.7669158" lon="11.6452652"><ele>680.0</ele><time>2026-04-11T12:11:33.4Z</time></trkpt><trkpt lat="42.7669546" lon="11.6453924"><ele>681.0</ele><time>2026-04-11T12:11:34.405Z</time></trkpt><trkpt lat="42.7669836" lon="11.6455297"><ele>682.0</ele><time>2026-04-11T12:11:35.402Z</time></trkpt><trkpt lat="42.7670009" lon="11.6456739"><ele>684.2</ele><time>2026-04-11T12:11:36.411Z</time></trkpt><trkpt lat="42.767007" lon="11.6458345"><ele>686.4000000000001</ele><time>2026-04-11T12:11:37.418Z</time></trkpt><trkpt lat="42.7670022" lon="11.6459892"><ele>688.5999999999999</ele><time>2026-04-11T12:11:38.426Z</time></trkpt><trkpt lat="42.767001" lon="11.6461347"><ele>690.8</ele><time>2026-04-11T12:11:39.423Z</time></trkpt><trkpt lat="42.7670053" lon="11.6462849"><ele>693.0</ele><time>2026-04-11T12:11:40.41Z</time></trkpt><trkpt lat="42.767018" lon="11.6464242"><ele>694.3333333333334</ele><time>2026-04-11T12:11:41.421Z</time></trkpt><trkpt lat="42.7670243" lon="11.6465446"><ele>695.6666666666666</ele><time>2026-04-11T12:11:42.413Z</time></trkpt><trkpt lat="42.7670123" lon="11.6466582"><ele>697.0</ele><time>2026-04-11T12:11:43.442Z</time></trkpt><trkpt lat="42.7670094" lon="11.6467752"><ele>698.3333333333333</ele><time>2026-04-11T12:11:44.416Z</time></trkpt><trkpt lat="42.7670071" lon="11.6468786"><ele>699.6666666666666</ele><time>2026-04-11T12:11:45.407Z</time></trkpt><trkpt lat="42.767035" lon="11.646974"><ele>701.0</ele><time>2026-04-11T12:11:46.407Z</time></trkpt><trkpt lat="42.767095" lon="11.6470391"><ele>701.8</ele><time>2026-04-11T12:11:47.413Z</time></trkpt><trkpt lat="42.7671518" lon="11.647108"><ele>702.5999999999999</ele><time>2026-04-11T12:11:48.407Z</time></trkpt><trkpt lat="42.7671944" lon="11.6471971"><ele>703.4</ele><time>2026-04-11T12:11:49.42Z</time></trkpt><trkpt lat="42.7672147" lon="11.6473277"><ele>704.2</ele><time>2026-04-11T12:11:50.405Z</time></trkpt><trkpt lat="42.7672654" lon="11.6474652"><ele>705.0</ele><time>2026-04-11T12:11:51.41Z</time></trkpt><trkpt lat="42.76727" lon="11.6476127"><ele>705.0</ele><time>2026-04-11T12:11:52.402Z</time></trkpt><trkpt lat="42.7672715" lon="11.6477845"><ele>705.0</ele><time>2026-04-11T12:11:53.394Z</time></trkpt><trkpt lat="42.7672671" lon="11.6479635"><ele>705.0</ele><time>2026-04-11T12:11:54.394Z</time></trkpt><trkpt lat="42.7672508" lon="11.6481302"><ele>705.0</ele><time>2026-04-11T12:11:55.397Z</time></trkpt><trkpt lat="42.7672355" lon="11.6483098"><ele>707.25</ele><time>2026-04-11T12:11:56.398Z</time></trkpt><trkpt lat="42.767203" lon="11.648494"><ele>709.5</ele><time>2026-04-11T12:11:57.399Z</time></trkpt><trkpt lat="42.7671679" lon="11.6486734"><ele>711.75</ele><time>2026-04-11T12:11:58.393Z</time></trkpt><trkpt lat="42.7671151" lon="11.6488189"><ele>714.0</ele><time>2026-04-11T12:11:59.404Z</time></trkpt><trkpt lat="42.767077" lon="11.6489673"><ele>711.0</ele><time>2026-04-11T12:12:00.402Z</time></trkpt><trkpt lat="42.7670239" lon="11.6490797"><ele>708.0</ele><time>2026-04-11T12:12:01.393Z</time></trkpt><trkpt lat="42.766918" lon="11.64915"><ele>705.0</ele><time>2026-04-11T12:12:02.41Z</time></trkpt><trkpt lat="42.7668229" lon="11.6492495"><ele>702.0</ele><time>2026-04-11T12:12:03.397Z</time></trkpt><trkpt lat="42.7667107" lon="11.6493732"><ele>705.8</ele><time>2026-04-11T12:12:04.393Z</time></trkpt><trkpt lat="42.7666823" lon="11.6495602"><ele>709.6</ele><time>2026-04-11T12:12:05.391Z</time></trkpt><trkpt lat="42.7666719" lon="11.6497139"><ele>713.4</ele><time>2026-04-11T12:12:06.391Z</time></trkpt><trkpt lat="42.7666679" lon="11.6498653"><ele>717.1999999999999</ele><time>2026-04-11T12:12:07.383Z</time></trkpt><trkpt lat="42.7666459" lon="11.6499572"><ele>721.0</ele><time>2026-04-11T12:12:08.388Z</time></trkpt><trkpt lat="42.7665951" lon="11.6500098"><ele>721.0</ele><time>2026-04-11T12:12:09.405Z</time></trkpt><trkpt lat="42.7665099" lon="11.6500471"><ele>721.0</ele><time>2026-04-11T12:12:10.395Z</time></trkpt><trkpt lat="42.7663704" lon="11.6500492"><ele>721.0</ele><time>2026-04-11T12:12:11.408Z</time></trkpt><trkpt lat="42.76625" lon="11.6500877"><ele>721.0</ele><time>2026-04-11T12:12:12.407Z</time></trkpt><trkpt lat="42.7661331" lon="11.6501592"><ele>721.0</ele><time>2026-04-11T12:12:13.405Z</time></trkpt><trkpt lat="42.7660426" lon="11.6502237"><ele>721.0</ele><time>2026-04-11T12:12:14.407Z</time></trkpt><trkpt lat="42.7659777" lon="11.6503346"><ele>721.0</ele><time>2026-04-11T12:12:15.416Z</time></trkpt><trkpt lat="42.7659115" lon="11.6504598"><ele>721.0</ele><time>2026-04-11T12:12:16.407Z</time></trkpt><trkpt lat="42.7658225" lon="11.6505459"><ele>721.0</ele><time>2026-04-11T12:12:17.406Z</time></trkpt><trkpt lat="42.7657529" lon="11.6506161"><ele>722.4</ele><time>2026-04-11T12:12:18.412Z</time></trkpt><trkpt lat="42.7656716" lon="11.6506236"><ele>723.8</ele><time>2026-04-11T12:12:19.411Z</time></trkpt><trkpt lat="42.7655982" lon="11.6505805"><ele>725.1999999999999</ele><time>2026-04-11T12:12:20.42Z</time></trkpt><trkpt lat="42.7655179" lon="11.6505249"><ele>726.5999999999999</ele><time>2026-04-11T12:12:21.402Z</time></trkpt><trkpt lat="42.7654253" lon="11.6504395"><ele>728.0</ele><time>2026-04-11T12:12:22.404Z</time></trkpt><trkpt lat="42.7653339" lon="11.6503198"><ele>724.75</ele><time>2026-04-11T12:12:23.401Z</time></trkpt><trkpt lat="42.7652276" lon="11.6502182"><ele>721.5</ele><time>2026-04-11T12:12:24.403Z</time></trkpt><trkpt lat="42.7651205" lon="11.6501237"><ele>718.25</ele><time>2026-04-11T12:12:25.413Z</time></trkpt><trkpt lat="42.765017" lon="11.650047"><ele>715.0</ele><time>2026-04-11T12:12:26.413Z</time></trkpt><trkpt lat="42.7649183" lon="11.6500278"><ele>715.0</ele><time>2026-04-11T12:12:27.4Z</time></trkpt><trkpt lat="42.7648172" lon="11.6500201"><ele>715.0</ele><time>2026-04-11T12:12:28.404Z</time></trkpt><trkpt lat="42.7647663" lon="11.6500913"><ele>715.0</ele><time>2026-04-11T12:12:29.405Z</time></trkpt><trkpt lat="42.7647341" lon="11.6502032"><ele>715.0</ele><time>2026-04-11T12:12:30.407Z</time></trkpt><trkpt lat="42.7646978" lon="11.6503096"><ele>715.0</ele><time>2026-04-11T12:12:31.403Z</time></trkpt><trkpt lat="42.764673" lon="11.6504526"><ele>719.4</ele><time>2026-04-11T12:12:32.412Z</time></trkpt><trkpt lat="42.7646327" lon="11.6505726"><ele>723.8</ele><time>2026-04-11T12:12:33.408Z</time></trkpt><trkpt lat="42.7645923" lon="11.6506824"><ele>728.2</ele><time>2026-04-11T12:12:34.408Z</time></trkpt><trkpt lat="42.7645379" lon="11.6508122"><ele>732.6</ele><time>2026-04-11T12:12:35.405Z</time></trkpt><trkpt lat="42.7644884" lon="11.6509613"><ele>737.0</ele><time>2026-04-11T12:12:36.404Z</time></trkpt><trkpt lat="42.7644517" lon="11.6511285"><ele>740.5</ele><time>2026-04-11T12:12:37.399Z</time></trkpt><trkpt lat="42.7644002" lon="11.6513006"><ele>744.0</ele><time>2026-04-11T12:12:38.402Z</time></trkpt><trkpt lat="42.7644061" lon="11.6514997"><ele>747.5</ele><time>2026-04-11T12:12:39.399Z</time></trkpt><trkpt lat="42.7644173" lon="11.6516891"><ele>751.0</ele><time>2026-04-11T12:12:40.408Z</time></trkpt><trkpt lat="42.7644201" lon="11.6518681"><ele>753.25</ele><time>2026-04-11T12:12:41.403Z</time></trkpt><trkpt lat="42.7644118" lon="11.6520292"><ele>755.5</ele><time>2026-04-11T12:12:42.4Z</time></trkpt><trkpt lat="42.7643984" lon="11.6522028"><ele>757.75</ele><time>2026-04-11T12:12:43.399Z</time></trkpt><trkpt lat="42.7643326" lon="11.6523346"><ele>760.0</ele><time>2026-04-11T12:12:44.406Z</time></trkpt><trkpt lat="42.7642445" lon="11.6524531"><ele>760.0</ele><time>2026-04-11T12:12:45.401Z</time></trkpt><trkpt lat="42.7641595" lon="11.6525671"><ele>760.0</ele><time>2026-04-11T12:12:46.398Z</time></trkpt><trkpt lat="42.7640778" lon="11.6526771"><ele>760.0</ele><time>2026-04-11T12:12:47.396Z</time></trkpt><trkpt lat="42.7639963" lon="11.652764"><ele>760.0</ele><time>2026-04-11T12:12:48.394Z</time></trkpt><trkpt lat="42.7638888" lon="11.652863"><ele>760.0</ele><time>2026-04-11T12:12:49.396Z</time></trkpt><trkpt lat="42.763794" lon="11.6528081"><ele>760.0</ele><time>2026-04-11T12:12:50.395Z</time></trkpt><trkpt lat="42.7637195" lon="11.6527223"><ele>760.0</ele><time>2026-04-11T12:12:51.404Z</time></trkpt><trkpt lat="42.7636533" lon="11.6525679"><ele>760.0</ele><time>2026-04-11T12:12:52.396Z</time></trkpt><trkpt lat="42.7635999" lon="11.6524147"><ele>760.0</ele><time>2026-04-11T12:12:53.401Z</time></trkpt><trkpt lat="42.7635531" lon="11.6522374"><ele>760.0</ele><time>2026-04-11T12:12:54.4Z</time></trkpt><trkpt lat="42.7635034" lon="11.6520843"><ele>760.0</ele><time>2026-04-11T12:12:55.397Z</time></trkpt><trkpt lat="42.7634472" lon="11.6519195"><ele>760.0</ele><time>2026-04-11T12:12:56.402Z</time></trkpt><trkpt lat="42.7633834" lon="11.6517753"><ele>758.25</ele><time>2026-04-11T12:12:57.402Z</time></trkpt><trkpt lat="42.7633058" lon="11.651651"><ele>756.5</ele><time>2026-04-11T12:12:58.398Z</time></trkpt><trkpt lat="42.7632109" lon="11.6515806"><ele>754.75</ele><time>2026-04-11T12:12:59.403Z</time></trkpt><trkpt lat="42.7630989" lon="11.6515628"><ele>753.0</ele><time>2026-04-11T12:13:00.404Z</time></trkpt><trkpt lat="42.7629855" lon="11.6515818"><ele>753.0</ele><time>2026-04-11T12:13:01.405Z</time></trkpt><trkpt lat="42.7628821" lon="11.6516211"><ele>753.0</ele><time>2026-04-11T12:13:02.398Z</time></trkpt><trkpt lat="42.7627806" lon="11.6516681"><ele>753.0</ele><time>2026-04-11T12:13:03.394Z</time></trkpt><trkpt lat="42.7626729" lon="11.6517651"><ele>753.0</ele><time>2026-04-11T12:13:04.392Z</time></trkpt><trkpt lat="42.7625709" lon="11.651911"><ele>758.25</ele><time>2026-04-11T12:13:05.398Z</time></trkpt><trkpt lat="42.7624792" lon="11.6520543"><ele>763.5</ele><time>2026-04-11T12:13:06.392Z</time></trkpt><trkpt lat="42.7624046" lon="11.652205"><ele>768.75</ele><time>2026-04-11T12:13:07.384Z</time></trkpt><trkpt lat="42.762351" lon="11.6523602"><ele>774.0</ele><time>2026-04-11T12:13:08.382Z</time></trkpt><trkpt lat="42.762301" lon="11.6525184"><ele>774.0</ele><time>2026-04-11T12:13:09.387Z</time></trkpt><trkpt lat="42.7622637" lon="11.6526949"><ele>774.0</ele><time>2026-04-11T12:13:10.387Z</time></trkpt><trkpt lat="42.7622156" lon="11.6528725"><ele>774.0</ele><time>2026-04-11T12:13:11.385Z</time></trkpt><trkpt lat="42.7621761" lon="11.6530441"><ele>774.0</ele><time>2026-04-11T12:13:12.382Z</time></trkpt><trkpt lat="42.762141" lon="11.6531891"><ele>777.5</ele><time>2026-04-11T12:13:13.381Z</time></trkpt><trkpt lat="42.7620996" lon="11.6533146"><ele>781.0</ele><time>2026-04-11T12:13:14.384Z</time></trkpt><trkpt lat="42.7620739" lon="11.6534005"><ele>784.5</ele><time>2026-04-11T12:13:15.399Z</time></trkpt><trkpt lat="42.7620447" lon="11.6535536"><ele>788.0</ele><time>2026-04-11T12:13:17.376Z</time></trkpt><trkpt lat="42.7621281" lon="11.6535823"><ele>791.5</ele><time>2026-04-11T12:13:19.385Z</time></trkpt><trkpt lat="42.7621943" lon="11.6535319"><ele>795.0</ele><time>2026-04-11T12:13:20.384Z</time></trkpt><trkpt lat="42.7622509" lon="11.6534742"><ele>795.0</ele><time>2026-04-11T12:13:21.385Z</time></trkpt><trkpt lat="42.7623513" lon="11.6533529"><ele>795.0</ele><time>2026-04-11T12:13:23.376Z</time></trkpt><trkpt lat="42.7623955" lon="11.6532758"><ele>795.0</ele><time>2026-04-11T12:13:24.381Z</time></trkpt><trkpt lat="42.7625237" lon="11.6533029"><ele>795.0</ele><time>2026-04-11T12:13:26.368Z</time></trkpt><trkpt lat="42.7625935" lon="11.6533124"><ele>795.0</ele><time>2026-04-11T12:13:27.372Z</time></trkpt><trkpt lat="42.7625582" lon="11.6534103"><ele>795.0</ele><time>2026-04-11T12:13:29.366Z</time></trkpt><trkpt lat="42.7625133" lon="11.6534786"><ele>795.0</ele><time>2026-04-11T12:13:30.372Z</time></trkpt><trkpt lat="42.7624288" lon="11.6535609"><ele>795.0</ele><time>2026-04-11T12:13:31.371Z</time></trkpt><trkpt lat="42.7623138" lon="11.6536422"><ele>795.0</ele><time>2026-04-11T12:13:32.374Z</time></trkpt><trkpt lat="42.762196" lon="11.6537591"><ele>795.0</ele><time>2026-04-11T12:13:33.372Z</time></trkpt><trkpt lat="42.7620914" lon="11.6538484"><ele>794.75</ele><time>2026-04-11T12:13:34.373Z</time></trkpt><trkpt lat="42.7619967" lon="11.6539771"><ele>794.5</ele><time>2026-04-11T12:13:35.37Z</time></trkpt><trkpt lat="42.7619183" lon="11.6541048"><ele>794.25</ele><time>2026-04-11T12:13:36.362Z</time></trkpt><trkpt lat="42.7618415" lon="11.6542469"><ele>794.0</ele><time>2026-04-11T12:13:37.364Z</time></trkpt><trkpt lat="42.7617821" lon="11.6543846"><ele>795.0</ele><time>2026-04-11T12:13:38.37Z</time></trkpt><trkpt lat="42.7617517" lon="11.6545567"><ele>796.0</ele><time>2026-04-11T12:13:39.373Z</time></trkpt><trkpt lat="42.7617994" lon="11.6546953"><ele>797.0</ele><time>2026-04-11T12:13:40.381Z</time></trkpt><trkpt lat="42.7618646" lon="11.6548184"><ele>798.0</ele><time>2026-04-11T12:13:41.386Z</time></trkpt><trkpt lat="42.7618427" lon="11.654989"><ele>798.0</ele><time>2026-04-11T12:13:42.383Z</time></trkpt><trkpt lat="42.7618456" lon="11.655096"><ele>798.0</ele><time>2026-04-11T12:13:43.382Z</time></trkpt><trkpt lat="42.7619602" lon="11.6551407"><ele>798.0</ele><time>2026-04-11T12:13:44.391Z</time></trkpt><trkpt lat="42.7620501" lon="11.6551372"><ele>798.0</ele><time>2026-04-11T12:13:45.379Z</time></trkpt><trkpt lat="42.7621587" lon="11.6551087"><ele>798.0</ele><time>2026-04-11T12:13:46.393Z</time></trkpt><trkpt lat="42.7622928" lon="11.655053"><ele>803.0</ele><time>2026-04-11T12:13:47.387Z</time></trkpt><trkpt lat="42.7623914" lon="11.6549986"><ele>808.0</ele><time>2026-04-11T12:13:48.382Z</time></trkpt><trkpt lat="42.7624706" lon="11.6549466"><ele>813.0</ele><time>2026-04-11T12:13:49.39Z</time></trkpt><trkpt lat="42.7625697" lon="11.6549105"><ele>818.0</ele><time>2026-04-11T12:13:50.399Z</time></trkpt><trkpt lat="42.7626593" lon="11.6549155"><ele>823.0</ele><time>2026-04-11T12:13:51.396Z</time></trkpt><trkpt lat="42.7628086" lon="11.6549288"><ele>824.2</ele><time>2026-04-11T12:13:52.399Z</time></trkpt><trkpt lat="42.7628871" lon="11.6549453"><ele>825.4</ele><time>2026-04-11T12:13:53.403Z</time></trkpt><trkpt lat="42.7629975" lon="11.6549835"><ele>826.6</ele><time>2026-04-11T12:13:54.399Z</time></trkpt><trkpt lat="42.7630993" lon="11.6550191"><ele>827.8000000000001</ele><time>2026-04-11T12:13:55.407Z</time></trkpt><trkpt lat="42.7632289" lon="11.6550755"><ele>829.0</ele><time>2026-04-11T12:13:56.399Z</time></trkpt><trkpt lat="42.7633756" lon="11.6551507"><ele>830.0</ele><time>2026-04-11T12:13:57.411Z</time></trkpt><trkpt lat="42.7635307" lon="11.6552328"><ele>831.0</ele><time>2026-04-11T12:13:58.403Z</time></trkpt><trkpt lat="42.7636957" lon="11.6553108"><ele>832.0</ele><time>2026-04-11T12:13:59.413Z</time></trkpt><trkpt lat="42.7638447" lon="11.6553946"><ele>836.75</ele><time>2026-04-11T12:14:00.416Z</time></trkpt><trkpt lat="42.7639665" lon="11.6554419"><ele>841.5</ele><time>2026-04-11T12:14:01.408Z</time></trkpt><trkpt lat="42.7640806" lon="11.6554839"><ele>846.25</ele><time>2026-04-11T12:14:02.415Z</time></trkpt><trkpt lat="42.7642136" lon="11.6555196"><ele>851.0</ele><time>2026-04-11T12:14:03.4Z</time></trkpt><trkpt lat="42.7643202" lon="11.6555886"><ele>851.0</ele><time>2026-04-11T12:14:04.397Z</time></trkpt><trkpt lat="42.7643834" lon="11.6556693"><ele>851.0</ele><time>2026-04-11T12:14:06.389Z</time></trkpt><trkpt lat="42.7643148" lon="11.6557726"><ele>851.0</ele><time>2026-04-11T12:14:08.395Z</time></trkpt><trkpt lat="42.7642375" lon="11.6557929"><ele>851.0</ele><time>2026-04-11T12:14:09.391Z</time></trkpt><trkpt lat="42.764099" lon="11.6557844"><ele>851.0</ele><time>2026-04-11T12:14:10.39Z</time></trkpt><trkpt lat="42.763956" lon="11.6557448"><ele>851.0</ele><time>2026-04-11T12:14:11.386Z</time></trkpt><trkpt lat="42.7637752" lon="11.6557131"><ele>851.0</ele><time>2026-04-11T12:14:12.399Z</time></trkpt><trkpt lat="42.7636373" lon="11.6557114"><ele>851.0</ele><time>2026-04-11T12:14:13.401Z</time></trkpt><trkpt lat="42.7635242" lon="11.6557183"><ele>851.0</ele><time>2026-04-11T12:14:14.404Z</time></trkpt><trkpt lat="42.7634244" lon="11.6557601"><ele>849.4</ele><time>2026-04-11T12:14:15.396Z</time></trkpt><trkpt lat="42.7633261" lon="11.6558525"><ele>847.8</ele><time>2026-04-11T12:14:16.404Z</time></trkpt><trkpt lat="42.7632803" lon="11.6559598"><ele>846.1999999999999</ele><time>2026-04-11T12:14:17.408Z</time></trkpt><trkpt lat="42.763248" lon="11.6560541"><ele>844.5999999999999</ele><time>2026-04-11T12:14:18.408Z</time></trkpt><trkpt lat="42.763225" lon="11.6561635"><ele>843.0</ele><time>2026-04-11T12:14:19.402Z</time></trkpt><trkpt lat="42.7632329" lon="11.6562739"><ele>843.0</ele><time>2026-04-11T12:14:20.4Z</time></trkpt><trkpt lat="42.7632783" lon="11.6563865"><ele>843.0</ele><time>2026-04-11T12:14:21.394Z</time></trkpt><trkpt lat="42.7633312" lon="11.6564932"><ele>843.0</ele><time>2026-04-11T12:14:22.396Z</time></trkpt><trkpt lat="42.7634218" lon="11.6565811"><ele>843.0</ele><time>2026-04-11T12:14:23.398Z</time></trkpt><trkpt lat="42.7635102" lon="11.656662"><ele>843.0</ele><time>2026-04-11T12:14:24.4Z</time></trkpt><trkpt lat="42.7636317" lon="11.6567426"><ele>848.25</ele><time>2026-04-11T12:14:25.399Z</time></trkpt><trkpt lat="42.7637774" lon="11.6568334"><ele>853.5</ele><time>2026-04-11T12:14:26.399Z</time></trkpt><trkpt lat="42.7638893" lon="11.6569325"><ele>858.75</ele><time>2026-04-11T12:14:27.397Z</time></trkpt><trkpt lat="42.7640093" lon="11.6570546"><ele>864.0</ele><time>2026-04-11T12:14:28.396Z</time></trkpt><trkpt lat="42.7640798" lon="11.6571753"><ele>864.0</ele><time>2026-04-11T12:14:29.4Z</time></trkpt><trkpt lat="42.764119" lon="11.657328"><ele>864.0</ele><time>2026-04-11T12:14:30.404Z</time></trkpt><trkpt lat="42.7641661" lon="11.6574947"><ele>864.0</ele><time>2026-04-11T12:14:31.397Z</time></trkpt><trkpt lat="42.76421" lon="11.6576519"><ele>864.0</ele><time>2026-04-11T12:14:32.399Z</time></trkpt><trkpt lat="42.7642853" lon="11.657808"><ele>870.75</ele><time>2026-04-11T12:14:33.393Z</time></trkpt><trkpt lat="42.7643785" lon="11.6579666"><ele>877.5</ele><time>2026-04-11T12:14:34.397Z</time></trkpt><trkpt lat="42.764451" lon="11.6581034"><ele>884.25</ele><time>2026-04-11T12:14:35.4Z</time></trkpt><trkpt lat="42.7645243" lon="11.6582497"><ele>891.0</ele><time>2026-04-11T12:14:36.398Z</time></trkpt><trkpt lat="42.764582" lon="11.658393"><ele>891.0</ele><time>2026-04-11T12:14:37.391Z</time></trkpt><trkpt lat="42.764627" lon="11.6585531"><ele>891.0</ele><time>2026-04-11T12:14:38.389Z</time></trkpt><trkpt lat="42.7646694" lon="11.6587034"><ele>891.0</ele><time>2026-04-11T12:14:39.39Z</time></trkpt><trkpt lat="42.7646815" lon="11.658837"><ele>891.0</ele><time>2026-04-11T12:14:40.392Z</time></trkpt><trkpt lat="42.7646738" lon="11.6589886"><ele>890.75</ele><time>2026-04-11T12:14:41.396Z</time></trkpt><trkpt lat="42.7646647" lon="11.6591275"><ele>890.5</ele><time>2026-04-11T12:14:42.404Z</time></trkpt><trkpt lat="42.7646284" lon="11.6593081"><ele>890.25</ele><time>2026-04-11T12:14:43.4Z</time></trkpt><trkpt lat="42.7645457" lon="11.65947"><ele>890.0</ele><time>2026-04-11T12:14:44.392Z</time></trkpt><trkpt lat="42.7644581" lon="11.6596113"><ele>888.25</ele><time>2026-04-11T12:14:45.4Z</time></trkpt><trkpt lat="42.764338" lon="11.6597232"><ele>886.5</ele><time>2026-04-11T12:14:46.396Z</time></trkpt><trkpt lat="42.7642374" lon="11.6598489"><ele>884.75</ele><time>2026-04-11T12:14:47.392Z</time></trkpt><trkpt lat="42.7641453" lon="11.6599705"><ele>883.0</ele><time>2026-04-11T12:14:48.402Z</time></trkpt><trkpt lat="42.7640305" lon="11.6600911"><ele>883.0</ele><time>2026-04-11T12:14:49.39Z</time></trkpt><trkpt lat="42.7639084" lon="11.6602289"><ele>883.0</ele><time>2026-04-11T12:14:50.388Z</time></trkpt><trkpt lat="42.7637293" lon="11.6603693"><ele>883.0</ele><time>2026-04-11T12:14:51.389Z</time></trkpt><trkpt lat="42.7635963" lon="11.6605315"><ele>884.25</ele><time>2026-04-11T12:14:52.387Z</time></trkpt><trkpt lat="42.7634688" lon="11.6606341"><ele>885.5</ele><time>2026-04-11T12:14:53.392Z</time></trkpt><trkpt lat="42.763364" lon="11.6607019"><ele>886.75</ele><time>2026-04-11T12:14:54.386Z</time></trkpt><trkpt lat="42.7631936" lon="11.6607705"><ele>888.0</ele><time>2026-04-11T12:14:55.398Z</time></trkpt><trkpt lat="42.763078" lon="11.6607878"><ele>888.0</ele><time>2026-04-11T12:14:56.388Z</time></trkpt><trkpt lat="42.7630047" lon="11.6607937"><ele>888.0</ele><time>2026-04-11T12:14:57.383Z</time></trkpt><trkpt lat="42.762883" lon="11.6608018"><ele>888.0</ele><time>2026-04-11T12:14:58.383Z</time></trkpt><trkpt lat="42.7627516" lon="11.660811"><ele>888.0</ele><time>2026-04-11T12:14:59.376Z</time></trkpt><trkpt lat="42.7626299" lon="11.6608285"><ele>888.0</ele><time>2026-04-11T12:15:00.385Z</time></trkpt><trkpt lat="42.7625041" lon="11.6608617"><ele>888.0</ele><time>2026-04-11T12:15:01.381Z</time></trkpt><trkpt lat="42.7623826" lon="11.6609083"><ele>888.0</ele><time>2026-04-11T12:15:02.393Z</time></trkpt><trkpt lat="42.7622489" lon="11.6609801"><ele>888.0</ele><time>2026-04-11T12:15:03.393Z</time></trkpt><trkpt lat="42.7621677" lon="11.6610354"><ele>888.0</ele><time>2026-04-11T12:15:04.39Z</time></trkpt><trkpt lat="42.7621162" lon="11.6611093"><ele>888.0</ele><time>2026-04-11T12:15:05.388Z</time></trkpt><trkpt lat="42.7621612" lon="11.6612364"><ele>888.0</ele><time>2026-04-11T12:15:07.385Z</time></trkpt><trkpt lat="42.7622099" lon="11.6613256"><ele>888.0</ele><time>2026-04-11T12:15:08.386Z</time></trkpt><trkpt lat="42.762237" lon="11.6614247"><ele>888.0</ele><time>2026-04-11T12:15:09.385Z</time></trkpt><trkpt lat="42.7622596" lon="11.6615259"><ele>888.0</ele><time>2026-04-11T12:15:10.379Z</time></trkpt><trkpt lat="42.7623101" lon="11.6616868"><ele>888.0</ele><time>2026-04-11T12:15:11.388Z</time></trkpt><trkpt lat="42.7623717" lon="11.6618886"><ele>888.25</ele><time>2026-04-11T12:15:12.392Z</time></trkpt><trkpt lat="42.7624078" lon="11.6620608"><ele>888.5</ele><time>2026-04-11T12:15:13.392Z</time></trkpt><trkpt lat="42.7624713" lon="11.6622303"><ele>888.75</ele><time>2026-04-11T12:15:14.393Z</time></trkpt><trkpt lat="42.7625385" lon="11.6624108"><ele>889.0</ele><time>2026-04-11T12:15:15.399Z</time></trkpt><trkpt lat="42.7625786" lon="11.6625716"><ele>889.0</ele><time>2026-04-11T12:15:16.406Z</time></trkpt><trkpt lat="42.7625998" lon="11.6627104"><ele>889.0000000000001</ele><time>2026-04-11T12:15:17.395Z</time></trkpt><trkpt lat="42.7626126" lon="11.6628487"><ele>889.0000000000001</ele><time>2026-04-11T12:15:18.39Z</time></trkpt><trkpt lat="42.7626453" lon="11.6629943"><ele>889.0</ele><time>2026-04-11T12:15:19.4Z</time></trkpt><trkpt lat="42.7626843" lon="11.6630968"><ele>889.0</ele><time>2026-04-11T12:15:20.393Z</time></trkpt><trkpt lat="42.7627526" lon="11.6631447"><ele>890.9999999999999</ele><time>2026-04-11T12:15:21.388Z</time></trkpt><trkpt lat="42.7628176" lon="11.6632001"><ele>893.0</ele><time>2026-04-11T12:15:22.385Z</time></trkpt><trkpt lat="42.7628656" lon="11.6632825"><ele>895.0</ele><time>2026-04-11T12:15:23.386Z</time></trkpt><trkpt lat="42.7629255" lon="11.6633522"><ele>897.0</ele><time>2026-04-11T12:15:24.387Z</time></trkpt><trkpt lat="42.7630121" lon="11.663409"><ele>898.9999999999999</ele><time>2026-04-11T12:15:25.396Z</time></trkpt><trkpt lat="42.7630584" lon="11.6635089"><ele>901.0</ele><time>2026-04-11T12:15:26.396Z</time></trkpt><trkpt lat="42.7630936" lon="11.6636012"><ele>899.4</ele><time>2026-04-11T12:15:27.389Z</time></trkpt><trkpt lat="42.7630457" lon="11.6636822"><ele>897.8</ele><time>2026-04-11T12:15:28.38Z</time></trkpt><trkpt lat="42.7629673" lon="11.6637546"><ele>896.1999999999999</ele><time>2026-04-11T12:15:29.375Z</time></trkpt><trkpt lat="42.7628686" lon="11.6638159"><ele>894.5999999999999</ele><time>2026-04-11T12:15:30.382Z</time></trkpt><trkpt lat="42.7627546" lon="11.6638679"><ele>893.0</ele><time>2026-04-11T12:15:31.387Z</time></trkpt><trkpt lat="42.76264" lon="11.6639779"><ele>893.0</ele><time>2026-04-11T12:15:32.408Z</time></trkpt><trkpt lat="42.7625547" lon="11.664085"><ele>893.0</ele><time>2026-04-11T12:15:33.396Z</time></trkpt><trkpt lat="42.7624698" lon="11.6641941"><ele>893.0</ele><time>2026-04-11T12:15:34.394Z</time></trkpt><trkpt lat="42.7624005" lon="11.664315"><ele>893.0</ele><time>2026-04-11T12:15:35.393Z</time></trkpt><trkpt lat="42.7623577" lon="11.6644648"><ele>895.0</ele><time>2026-04-11T12:15:36.384Z</time></trkpt><trkpt lat="42.7623028" lon="11.6645991"><ele>897.0</ele><time>2026-04-11T12:15:37.377Z</time></trkpt><trkpt lat="42.7622652" lon="11.664775"><ele>899.0</ele><time>2026-04-11T12:15:38.383Z</time></trkpt><trkpt lat="42.7622354" lon="11.6649719"><ele>901.0</ele><time>2026-04-11T12:15:39.384Z</time></trkpt><trkpt lat="42.7621931" lon="11.6651948"><ele>902.25</ele><time>2026-04-11T12:15:40.383Z</time></trkpt><trkpt lat="42.7621395" lon="11.6653805"><ele>903.5</ele><time>2026-04-11T12:15:41.399Z</time></trkpt><trkpt lat="42.7620962" lon="11.6655599"><ele>904.75</ele><time>2026-04-11T12:15:42.402Z</time></trkpt><trkpt lat="42.7620439" lon="11.6656998"><ele>906.0</ele><time>2026-04-11T12:15:43.4Z</time></trkpt><trkpt lat="42.7620048" lon="11.6658354"><ele>906.0</ele><time>2026-04-11T12:15:44.402Z</time></trkpt><trkpt lat="42.7620468" lon="11.6659288"><ele>906.0</ele><time>2026-04-11T12:15:45.402Z</time></trkpt><trkpt lat="42.7620698" lon="11.6660257"><ele>906.0</ele><time>2026-04-11T12:15:46.405Z</time></trkpt><trkpt lat="42.7621327" lon="11.6661106"><ele>906.0</ele><time>2026-04-11T12:15:47.408Z</time></trkpt><trkpt lat="42.762186" lon="11.6661883"><ele>906.0</ele><time>2026-04-11T12:15:48.415Z</time></trkpt><trkpt lat="42.7622319" lon="11.6662821"><ele>906.0</ele><time>2026-04-11T12:15:49.406Z</time></trkpt><trkpt lat="42.762356" lon="11.6663724"><ele>904.0</ele><time>2026-04-11T12:15:51.417Z</time></trkpt><trkpt lat="42.7624349" lon="11.6664096"><ele>902.0</ele><time>2026-04-11T12:15:52.409Z</time></trkpt><trkpt lat="42.7625276" lon="11.6664568"><ele>900.0</ele><time>2026-04-11T12:15:53.407Z</time></trkpt><trkpt lat="42.7626271" lon="11.6665264"><ele>898.0</ele><time>2026-04-11T12:15:54.39Z</time></trkpt><trkpt lat="42.7627712" lon="11.6666104"><ele>901.0</ele><time>2026-04-11T12:15:55.388Z</time></trkpt><trkpt lat="42.7628883" lon="11.6667429"><ele>904.0</ele><time>2026-04-11T12:15:56.396Z</time></trkpt><trkpt lat="42.7630074" lon="11.6668962"><ele>907.0</ele><time>2026-04-11T12:15:57.396Z</time></trkpt><trkpt lat="42.7630964" lon="11.6670727"><ele>907.0</ele><time>2026-04-11T12:15:58.388Z</time></trkpt><trkpt lat="42.7631806" lon="11.6672668"><ele>907.0</ele><time>2026-04-11T12:15:59.384Z</time></trkpt><trkpt lat="42.7632634" lon="11.6674503"><ele>907.0</ele><time>2026-04-11T12:16:00.386Z</time></trkpt><trkpt lat="42.7633521" lon="11.6676188"><ele>903.75</ele><time>2026-04-11T12:16:01.385Z</time></trkpt><trkpt lat="42.7634231" lon="11.6678092"><ele>900.5</ele><time>2026-04-11T12:16:02.388Z</time></trkpt><trkpt lat="42.763472" lon="11.6679484"><ele>897.25</ele><time>2026-04-11T12:16:03.374Z</time></trkpt><trkpt lat="42.7635009" lon="11.6680572"><ele>894.0</ele><time>2026-04-11T12:16:04.369Z</time></trkpt><trkpt lat="42.7634321" lon="11.6681573"><ele>894.0</ele><time>2026-04-11T12:16:05.38Z</time></trkpt><trkpt lat="42.7634459" lon="11.668253"><ele>894.0</ele><time>2026-04-11T12:16:06.379Z</time></trkpt><trkpt lat="42.7634306" lon="11.6683558"><ele>894.0</ele><time>2026-04-11T12:16:07.379Z</time></trkpt><trkpt lat="42.7634284" lon="11.6684702"><ele>894.0</ele><time>2026-04-11T12:16:08.375Z</time></trkpt><trkpt lat="42.7634172" lon="11.6685724"><ele>894.0</ele><time>2026-04-11T12:16:09.379Z</time></trkpt><trkpt lat="42.7634643" lon="11.668721"><ele>894.0</ele><time>2026-04-11T12:16:11.383Z</time></trkpt><trkpt lat="42.7635041" lon="11.6688122"><ele>893.6666666666666</ele><time>2026-04-11T12:16:12.379Z</time></trkpt><trkpt lat="42.7635505" lon="11.6689317"><ele>893.3333333333333</ele><time>2026-04-11T12:16:13.381Z</time></trkpt><trkpt lat="42.7635763" lon="11.6690154"><ele>893.0</ele><time>2026-04-11T12:16:14.383Z</time></trkpt><trkpt lat="42.7636056" lon="11.6691172"><ele>892.6666666666666</ele><time>2026-04-11T12:16:15.379Z</time></trkpt><trkpt lat="42.7635972" lon="11.6692356"><ele>892.3333333333333</ele><time>2026-04-11T12:16:17.384Z</time></trkpt><trkpt lat="42.7635503" lon="11.6692987"><ele>892.0</ele><time>2026-04-11T12:16:18.379Z</time></trkpt><trkpt lat="42.7634823" lon="11.6693585"><ele>892.0</ele><time>2026-04-11T12:16:19.376Z</time></trkpt><trkpt lat="42.7633826" lon="11.6694236"><ele>892.0</ele><time>2026-04-11T12:16:20.383Z</time></trkpt><trkpt lat="42.7632884" lon="11.6694395"><ele>892.0</ele><time>2026-04-11T12:16:21.406Z</time></trkpt><trkpt lat="42.7631886" lon="11.6694548"><ele>892.0</ele><time>2026-04-11T12:16:22.387Z</time></trkpt><trkpt lat="42.7630933" lon="11.6694827"><ele>892.0</ele><time>2026-04-11T12:16:23.387Z</time></trkpt><trkpt lat="42.7629827" lon="11.6694894"><ele>894.4000000000001</ele><time>2026-04-11T12:16:24.388Z</time></trkpt><trkpt lat="42.7629289" lon="11.6695387"><ele>896.8000000000001</ele><time>2026-04-11T12:16:26.39Z</time></trkpt><trkpt lat="42.7628989" lon="11.6696845"><ele>899.2</ele><time>2026-04-11T12:16:29.409Z</time></trkpt><trkpt lat="42.7628763" lon="11.6698132"><ele>901.6</ele><time>2026-04-11T12:16:31.408Z</time></trkpt><trkpt lat="42.7628132" lon="11.6699611"><ele>904.0</ele><time>2026-04-11T12:16:33.402Z</time></trkpt><trkpt lat="42.7627601" lon="11.6700569"><ele>904.0</ele><time>2026-04-11T12:16:34.406Z</time></trkpt><trkpt lat="42.7627013" lon="11.6701834"><ele>904.0000000000001</ele><time>2026-04-11T12:16:35.404Z</time></trkpt><trkpt lat="42.7626561" lon="11.6703191"><ele>904.0000000000001</ele><time>2026-04-11T12:16:36.397Z</time></trkpt><trkpt lat="42.7626336" lon="11.6704697"><ele>904.0</ele><time>2026-04-11T12:16:37.404Z</time></trkpt><trkpt lat="42.7626155" lon="11.6706262"><ele>904.0</ele><time>2026-04-11T12:16:38.401Z</time></trkpt><trkpt lat="42.7626328" lon="11.6707851"><ele>902.5</ele><time>2026-04-11T12:16:39.398Z</time></trkpt><trkpt lat="42.7626623" lon="11.6709392"><ele>901.0</ele><time>2026-04-11T12:16:40.397Z</time></trkpt><trkpt lat="42.7626964" lon="11.671114"><ele>899.5</ele><time>2026-04-11T12:16:41.403Z</time></trkpt><trkpt lat="42.7627145" lon="11.6713308"><ele>898.0</ele><time>2026-04-11T12:16:42.396Z</time></trkpt><trkpt lat="42.7627206" lon="11.671527"><ele>898.0</ele><time>2026-04-11T12:16:43.395Z</time></trkpt><trkpt lat="42.7627111" lon="11.6717133"><ele>898.0</ele><time>2026-04-11T12:16:44.398Z</time></trkpt><trkpt lat="42.7626874" lon="11.6718776"><ele>898.0</ele><time>2026-04-11T12:16:45.404Z</time></trkpt><trkpt lat="42.7626368" lon="11.6720149"><ele>898.0</ele><time>2026-04-11T12:16:46.4Z</time></trkpt><trkpt lat="42.7625704" lon="11.672143"><ele>900.5</ele><time>2026-04-11T12:16:47.41Z</time></trkpt><trkpt lat="42.7624948" lon="11.6722739"><ele>903.0</ele><time>2026-04-11T12:16:48.405Z</time></trkpt><trkpt lat="42.7624197" lon="11.6723818"><ele>905.5</ele><time>2026-04-11T12:16:49.408Z</time></trkpt><trkpt lat="42.7623591" lon="11.6725135"><ele>908.0</ele><time>2026-04-11T12:16:50.416Z</time></trkpt><trkpt lat="42.7622984" lon="11.6726524"><ele>909.25</ele><time>2026-04-11T12:16:51.42Z</time></trkpt><trkpt lat="42.7622796" lon="11.6727751"><ele>910.5</ele><time>2026-04-11T12:16:52.413Z</time></trkpt><trkpt lat="42.7623097" lon="11.672929"><ele>911.75</ele><time>2026-04-11T12:16:53.413Z</time></trkpt><trkpt lat="42.7623655" lon="11.6730889"><ele>913.0</ele><time>2026-04-11T12:16:54.412Z</time></trkpt><trkpt lat="42.7624433" lon="11.6732689"><ele>913.0</ele><time>2026-04-11T12:16:55.406Z</time></trkpt><trkpt lat="42.7625141" lon="11.6734427"><ele>913.0</ele><time>2026-04-11T12:16:56.405Z</time></trkpt><trkpt lat="42.7625812" lon="11.673609"><ele>913.0</ele><time>2026-04-11T12:16:57.405Z</time></trkpt><trkpt lat="42.7626351" lon="11.6737679"><ele>913.0</ele><time>2026-04-11T12:16:58.392Z</time></trkpt><trkpt lat="42.7626623" lon="11.673923"><ele>914.25</ele><time>2026-04-11T12:16:59.42Z</time></trkpt><trkpt lat="42.7626887" lon="11.6740708"><ele>915.5</ele><time>2026-04-11T12:17:00.416Z</time></trkpt><trkpt lat="42.7627397" lon="11.6742273"><ele>916.75</ele><time>2026-04-11T12:17:01.416Z</time></trkpt><trkpt lat="42.7627886" lon="11.6743889"><ele>918.0</ele><time>2026-04-11T12:17:02.416Z</time></trkpt><trkpt lat="42.7628298" lon="11.6745575"><ele>924.25</ele><time>2026-04-11T12:17:03.41Z</time></trkpt><trkpt lat="42.7628449" lon="11.6747395"><ele>930.5</ele><time>2026-04-11T12:17:04.415Z</time></trkpt><trkpt lat="42.7628622" lon="11.6749251"><ele>936.75</ele><time>2026-04-11T12:17:05.422Z</time></trkpt><trkpt lat="42.7628892" lon="11.675095"><ele>943.0</ele><time>2026-04-11T12:17:06.415Z</time></trkpt><trkpt lat="42.7629186" lon="11.6752568"><ele>942.25</ele><time>2026-04-11T12:17:07.407Z</time></trkpt><trkpt lat="42.7629538" lon="11.6754258"><ele>941.5</ele><time>2026-04-11T12:17:08.403Z</time></trkpt><trkpt lat="42.7629552" lon="11.6755714"><ele>940.75</ele><time>2026-04-11T12:17:09.401Z</time></trkpt><trkpt lat="42.7629511" lon="11.6757325"><ele>940.0</ele><time>2026-04-11T12:17:10.411Z</time></trkpt><trkpt lat="42.7629037" lon="11.6758716"><ele>940.0</ele><time>2026-04-11T12:17:11.406Z</time></trkpt><trkpt lat="42.7628906" lon="11.6760152"><ele>940.0</ele><time>2026-04-11T12:17:12.406Z</time></trkpt><trkpt lat="42.7629306" lon="11.6761259"><ele>940.0</ele><time>2026-04-11T12:17:13.403Z</time></trkpt><trkpt lat="42.7629802" lon="11.6761909"><ele>940.0</ele><time>2026-04-11T12:17:14.41Z</time></trkpt><trkpt lat="42.7630611" lon="11.676216"><ele>940.0</ele><time>2026-04-11T12:17:15.405Z</time></trkpt><trkpt lat="42.7631686" lon="11.6762419"><ele>942.25</ele><time>2026-04-11T12:17:16.411Z</time></trkpt><trkpt lat="42.7632737" lon="11.6762841"><ele>944.5</ele><time>2026-04-11T12:17:17.412Z</time></trkpt><trkpt lat="42.7633916" lon="11.6763061"><ele>946.75</ele><time>2026-04-11T12:17:18.408Z</time></trkpt><trkpt lat="42.7635048" lon="11.6763279"><ele>949.0</ele><time>2026-04-11T12:17:19.41Z</time></trkpt><trkpt lat="42.7636124" lon="11.6763337"><ele>949.0</ele><time>2026-04-11T12:17:20.421Z</time></trkpt><trkpt lat="42.7637164" lon="11.6763407"><ele>949.0000000000001</ele><time>2026-04-11T12:17:21.419Z</time></trkpt><trkpt lat="42.7638217" lon="11.6763707"><ele>949.0000000000001</ele><time>2026-04-11T12:17:22.419Z</time></trkpt><trkpt lat="42.7639202" lon="11.6764232"><ele>949.0</ele><time>2026-04-11T12:17:23.413Z</time></trkpt><trkpt lat="42.7640167" lon="11.676509"><ele>949.0</ele><time>2026-04-11T12:17:24.414Z</time></trkpt><trkpt lat="42.7640929" lon="11.6766239"><ele>949.0</ele><time>2026-04-11T12:17:25.412Z</time></trkpt><trkpt lat="42.7641576" lon="11.6767701"><ele>949.0</ele><time>2026-04-11T12:17:26.413Z</time></trkpt><trkpt lat="42.7642086" lon="11.6769379"><ele>949.0</ele><time>2026-04-11T12:17:27.409Z</time></trkpt><trkpt lat="42.7642414" lon="11.6771107"><ele>949.0</ele><time>2026-04-11T12:17:28.4Z</time></trkpt><trkpt lat="42.7642526" lon="11.6772639"><ele>947.2</ele><time>2026-04-11T12:17:29.403Z</time></trkpt><trkpt lat="42.7642813" lon="11.6774251"><ele>945.4000000000001</ele><time>2026-04-11T12:17:30.418Z</time></trkpt><trkpt lat="42.7643026" lon="11.6775753"><ele>943.6</ele><time>2026-04-11T12:17:31.42Z</time></trkpt><trkpt lat="42.7643056" lon="11.6776761"><ele>941.8</ele><time>2026-04-11T12:17:32.429Z</time></trkpt><trkpt lat="42.7643057" lon="11.6777766"><ele>940.0</ele><time>2026-04-11T12:17:33.421Z</time></trkpt><trkpt lat="42.7643243" lon="11.6778938"><ele>937.8</ele><time>2026-04-11T12:17:34.413Z</time></trkpt><trkpt lat="42.7643478" lon="11.6780034"><ele>935.6</ele><time>2026-04-11T12:17:35.408Z</time></trkpt><trkpt lat="42.764395" lon="11.6781196"><ele>933.4000000000001</ele><time>2026-04-11T12:17:36.403Z</time></trkpt><trkpt lat="42.7644805" lon="11.6782324"><ele>931.2</ele><time>2026-04-11T12:17:37.4Z</time></trkpt><trkpt lat="42.7645387" lon="11.6783548"><ele>929.0</ele><time>2026-04-11T12:17:38.408Z</time></trkpt><trkpt lat="42.7646268" lon="11.6784766"><ele>930.0</ele><time>2026-04-11T12:17:39.41Z</time></trkpt><trkpt lat="42.7646967" lon="11.6786175"><ele>931.0</ele><time>2026-04-11T12:17:40.417Z</time></trkpt><trkpt lat="42.7647666" lon="11.6787695"><ele>932.0</ele><time>2026-04-11T12:17:41.411Z</time></trkpt><trkpt lat="42.7648321" lon="11.6789143"><ele>933.0</ele><time>2026-04-11T12:17:42.417Z</time></trkpt><trkpt lat="42.7649027" lon="11.6790591"><ele>933.0</ele><time>2026-04-11T12:17:43.41Z</time></trkpt><trkpt lat="42.7649833" lon="11.6792151"><ele>933.0</ele><time>2026-04-11T12:17:44.414Z</time></trkpt><trkpt lat="42.7650565" lon="11.6793564"><ele>933.0</ele><time>2026-04-11T12:17:45.413Z</time></trkpt><trkpt lat="42.7651337" lon="11.6794776"><ele>933.0</ele><time>2026-04-11T12:17:46.416Z</time></trkpt><trkpt lat="42.7651951" lon="11.6795997"><ele>935.25</ele><time>2026-04-11T12:17:47.417Z</time></trkpt><trkpt lat="42.7652646" lon="11.6797112"><ele>937.5</ele><time>2026-04-11T12:17:48.414Z</time></trkpt><trkpt lat="42.7653153" lon="11.6798613"><ele>939.75</ele><time>2026-04-11T12:17:49.403Z</time></trkpt><trkpt lat="42.7653079" lon="11.6800365"><ele>942.0</ele><time>2026-04-11T12:17:50.415Z</time></trkpt><trkpt lat="42.7653436" lon="11.6802256"><ele>939.5</ele><time>2026-04-11T12:17:51.413Z</time></trkpt><trkpt lat="42.7653677" lon="11.680408"><ele>937.0</ele><time>2026-04-11T12:17:52.418Z</time></trkpt><trkpt lat="42.7653967" lon="11.6806097"><ele>934.5</ele><time>2026-04-11T12:17:53.427Z</time></trkpt><trkpt lat="42.7654311" lon="11.6808188"><ele>932.0</ele><time>2026-04-11T12:17:54.419Z</time></trkpt><trkpt lat="42.7654465" lon="11.6810045"><ele>930.0</ele><time>2026-04-11T12:17:55.426Z</time></trkpt><trkpt lat="42.7654578" lon="11.6811958"><ele>928.0</ele><time>2026-04-11T12:17:56.428Z</time></trkpt><trkpt lat="42.7654255" lon="11.6813713"><ele>926.0</ele><time>2026-04-11T12:17:57.419Z</time></trkpt><trkpt lat="42.7654396" lon="11.6815314"><ele>924.0</ele><time>2026-04-11T12:17:58.423Z</time></trkpt><trkpt lat="42.7654993" lon="11.6816724"><ele>924.0</ele><time>2026-04-11T12:17:59.417Z</time></trkpt><trkpt lat="42.7655907" lon="11.6817835"><ele>924.0</ele><time>2026-04-11T12:18:00.418Z</time></trkpt><trkpt lat="42.7656514" lon="11.6819311"><ele>924.0</ele><time>2026-04-11T12:18:01.416Z</time></trkpt><trkpt lat="42.7656839" lon="11.6820568"><ele>924.0</ele><time>2026-04-11T12:18:02.418Z</time></trkpt><trkpt lat="42.7656761" lon="11.6822197"><ele>922.75</ele><time>2026-04-11T12:18:03.413Z</time></trkpt><trkpt lat="42.7656698" lon="11.6823735"><ele>921.5</ele><time>2026-04-11T12:18:04.422Z</time></trkpt><trkpt lat="42.7656804" lon="11.6825282"><ele>920.25</ele><time>2026-04-11T12:18:05.414Z</time></trkpt><trkpt lat="42.765714" lon="11.6826675"><ele>919.0</ele><time>2026-04-11T12:18:06.415Z</time></trkpt><trkpt lat="42.7657877" lon="11.6828322"><ele>918.5</ele><time>2026-04-11T12:18:07.407Z</time></trkpt><trkpt lat="42.7658781" lon="11.6829728"><ele>918.0</ele><time>2026-04-11T12:18:08.402Z</time></trkpt><trkpt lat="42.7659985" lon="11.683079"><ele>917.5</ele><time>2026-04-11T12:18:09.407Z</time></trkpt><trkpt lat="42.7661146" lon="11.6831901"><ele>917.0</ele><time>2026-04-11T12:18:10.397Z</time></trkpt><trkpt lat="42.7662386" lon="11.6832829"><ele>917.0</ele><time>2026-04-11T12:18:11.402Z</time></trkpt><trkpt lat="42.7663548" lon="11.6833762"><ele>917.0</ele><time>2026-04-11T12:18:12.401Z</time></trkpt><trkpt lat="42.7664717" lon="11.6834606"><ele>917.0</ele><time>2026-04-11T12:18:13.402Z</time></trkpt><trkpt lat="42.7665835" lon="11.6835355"><ele>917.0</ele><time>2026-04-11T12:18:14.41Z</time></trkpt><trkpt lat="42.7666717" lon="11.6835923"><ele>915.6666666666667</ele><time>2026-04-11T12:18:15.413Z</time></trkpt><trkpt lat="42.7667518" lon="11.6836619"><ele>914.3333333333334</ele><time>2026-04-11T12:18:16.412Z</time></trkpt><trkpt lat="42.7667784" lon="11.6837574"><ele>913.0</ele><time>2026-04-11T12:18:17.41Z</time></trkpt><trkpt lat="42.7667754" lon="11.683881"><ele>911.6666666666667</ele><time>2026-04-11T12:18:18.404Z</time></trkpt><trkpt lat="42.7667412" lon="11.683996"><ele>910.3333333333334</ele><time>2026-04-11T12:18:19.401Z</time></trkpt><trkpt lat="42.7666983" lon="11.6841041"><ele>909.0</ele><time>2026-04-11T12:18:20.391Z</time></trkpt><trkpt lat="42.7666241" lon="11.6842497"><ele>908.5</ele><time>2026-04-11T12:18:21.399Z</time></trkpt><trkpt lat="42.7665566" lon="11.6844316"><ele>908.0</ele><time>2026-04-11T12:18:22.396Z</time></trkpt><trkpt lat="42.7665093" lon="11.6846138"><ele>907.5</ele><time>2026-04-11T12:18:23.397Z</time></trkpt><trkpt lat="42.7664813" lon="11.6847807"><ele>907.0</ele><time>2026-04-11T12:18:24.41Z</time></trkpt><trkpt lat="42.7665186" lon="11.6849451"><ele>907.0</ele><time>2026-04-11T12:18:25.408Z</time></trkpt><trkpt lat="42.7665628" lon="11.6851146"><ele>907.0</ele><time>2026-04-11T12:18:26.405Z</time></trkpt><trkpt lat="42.7666051" lon="11.6852972"><ele>907.0</ele><time>2026-04-11T12:18:27.407Z</time></trkpt><trkpt lat="42.7666373" lon="11.6854678"><ele>907.0</ele><time>2026-04-11T12:18:28.398Z</time></trkpt><trkpt lat="42.7666694" lon="11.6856485"><ele>904.75</ele><time>2026-04-11T12:18:29.399Z</time></trkpt><trkpt lat="42.7666881" lon="11.6858393"><ele>902.5</ele><time>2026-04-11T12:18:30.41Z</time></trkpt><trkpt lat="42.7666956" lon="11.6860167"><ele>900.25</ele><time>2026-04-11T12:18:31.418Z</time></trkpt><trkpt lat="42.7667198" lon="11.686162"><ele>898.0</ele><time>2026-04-11T12:18:32.441Z</time></trkpt><trkpt lat="42.766774" lon="11.6863082"><ele>896.5</ele><time>2026-04-11T12:18:33.415Z</time></trkpt><trkpt lat="42.7668353" lon="11.6864545"><ele>895.0</ele><time>2026-04-11T12:18:34.415Z</time></trkpt><trkpt lat="42.7669406" lon="11.6865784"><ele>893.5</ele><time>2026-04-11T12:18:35.416Z</time></trkpt><trkpt lat="42.7670696" lon="11.6866804"><ele>892.0</ele><time>2026-04-11T12:18:36.406Z</time></trkpt><trkpt lat="42.7672056" lon="11.6867878"><ele>894.3333333333333</ele><time>2026-04-11T12:18:37.416Z</time></trkpt><trkpt lat="42.7673292" lon="11.6869131"><ele>896.6666666666667</ele><time>2026-04-11T12:18:38.417Z</time></trkpt><trkpt lat="42.7674709" lon="11.6870214"><ele>899.0</ele><time>2026-04-11T12:18:39.416Z</time></trkpt><trkpt lat="42.767601" lon="11.6871209"><ele>902.75</ele><time>2026-04-11T12:18:40.416Z</time></trkpt><trkpt lat="42.7677349" lon="11.6872271"><ele>906.5</ele><time>2026-04-11T12:18:41.413Z</time></trkpt><trkpt lat="42.7678297" lon="11.6873855"><ele>910.25</ele><time>2026-04-11T12:18:42.412Z</time></trkpt><trkpt lat="42.7679004" lon="11.6875153"><ele>914.0</ele><time>2026-04-11T12:18:43.41Z</time></trkpt><trkpt lat="42.7679978" lon="11.6876715"><ele>911.5</ele><time>2026-04-11T12:18:44.414Z</time></trkpt><trkpt lat="42.7680932" lon="11.6878218"><ele>909.0</ele><time>2026-04-11T12:18:45.42Z</time></trkpt><trkpt lat="42.7681932" lon="11.6879391"><ele>906.5</ele><time>2026-04-11T12:18:46.406Z</time></trkpt><trkpt lat="42.7682838" lon="11.6880909"><ele>904.0</ele><time>2026-04-11T12:18:47.415Z</time></trkpt><trkpt lat="42.768338" lon="11.6882413"><ele>904.0</ele><time>2026-04-11T12:18:48.408Z</time></trkpt><trkpt lat="42.7684067" lon="11.6884057"><ele>904.0</ele><time>2026-04-11T12:18:49.417Z</time></trkpt><trkpt lat="42.7684545" lon="11.6885762"><ele>904.0</ele><time>2026-04-11T12:18:50.411Z</time></trkpt><trkpt lat="42.7685137" lon="11.6887499"><ele>904.0</ele><time>2026-04-11T12:18:51.411Z</time></trkpt><trkpt lat="42.7685871" lon="11.688901"><ele>906.0</ele><time>2026-04-11T12:18:52.406Z</time></trkpt><trkpt lat="42.768703" lon="11.6890052"><ele>908.0</ele><time>2026-04-11T12:18:53.406Z</time></trkpt><trkpt lat="42.768795" lon="11.6891166"><ele>910.0</ele><time>2026-04-11T12:18:54.403Z</time></trkpt><trkpt lat="42.7688504" lon="11.6892627"><ele>912.0</ele><time>2026-04-11T12:18:55.411Z</time></trkpt><trkpt lat="42.7689003" lon="11.6894501"><ele>912.0</ele><time>2026-04-11T12:18:56.396Z</time></trkpt><trkpt lat="42.7689006" lon="11.6896535"><ele>912.0</ele><time>2026-04-11T12:18:57.396Z</time></trkpt><trkpt lat="42.7688586" lon="11.6898781"><ele>912.0</ele><time>2026-04-11T12:18:58.399Z</time></trkpt><trkpt lat="42.7688106" lon="11.6901315"><ele>911.75</ele><time>2026-04-11T12:18:59.406Z</time></trkpt><trkpt lat="42.768805" lon="11.6903396"><ele>911.5</ele><time>2026-04-11T12:19:00.41Z</time></trkpt><trkpt lat="42.7687803" lon="11.6905547"><ele>911.25</ele><time>2026-04-11T12:19:01.409Z</time></trkpt><trkpt lat="42.7687537" lon="11.6907258"><ele>911.0</ele><time>2026-04-11T12:19:02.426Z</time></trkpt><trkpt lat="42.7687684" lon="11.690932"><ele>907.0</ele><time>2026-04-11T12:19:03.404Z</time></trkpt><trkpt lat="42.7687914" lon="11.6911331"><ele>903.0</ele><time>2026-04-11T12:19:04.405Z</time></trkpt><trkpt lat="42.7688666" lon="11.6913304"><ele>899.0</ele><time>2026-04-11T12:19:05.414Z</time></trkpt><trkpt lat="42.7689205" lon="11.6915576"><ele>899.0</ele><time>2026-04-11T12:19:06.404Z</time></trkpt><trkpt lat="42.7689773" lon="11.6917677"><ele>899.0</ele><time>2026-04-11T12:19:07.407Z</time></trkpt><trkpt lat="42.7690373" lon="11.6919678"><ele>899.0</ele><time>2026-04-11T12:19:08.407Z</time></trkpt><trkpt lat="42.7691204" lon="11.6921998"><ele>896.25</ele><time>2026-04-11T12:19:09.402Z</time></trkpt><trkpt lat="42.76917" lon="11.6923873"><ele>893.5</ele><time>2026-04-11T12:19:10.402Z</time></trkpt><trkpt lat="42.7692239" lon="11.6925811"><ele>890.75</ele><time>2026-04-11T12:19:11.393Z</time></trkpt><trkpt lat="42.7692475" lon="11.6927637"><ele>888.0</ele><time>2026-04-11T12:19:12.4Z</time></trkpt><trkpt lat="42.7692201" lon="11.6929414"><ele>884.75</ele><time>2026-04-11T12:19:13.394Z</time></trkpt><trkpt lat="42.7691926" lon="11.6931507"><ele>881.5</ele><time>2026-04-11T12:19:14.392Z</time></trkpt><trkpt lat="42.769184" lon="11.6933395"><ele>878.25</ele><time>2026-04-11T12:19:15.391Z</time></trkpt><trkpt lat="42.7691395" lon="11.6935231"><ele>875.0</ele><time>2026-04-11T12:19:16.402Z</time></trkpt><trkpt lat="42.7691018" lon="11.6936877"><ele>872.25</ele><time>2026-04-11T12:19:17.409Z</time></trkpt><trkpt lat="42.7690708" lon="11.6938966"><ele>869.5</ele><time>2026-04-11T12:19:18.396Z</time></trkpt><trkpt lat="42.769028" lon="11.6941084"><ele>866.75</ele><time>2026-04-11T12:19:19.39Z</time></trkpt><trkpt lat="42.7690158" lon="11.6942817"><ele>864.0</ele><time>2026-04-11T12:19:20.399Z</time></trkpt><trkpt lat="42.769056" lon="11.6944176"><ele>864.0</ele><time>2026-04-11T12:19:21.391Z</time></trkpt><trkpt lat="42.7692326" lon="11.6945268"><ele>864.0</ele><time>2026-04-11T12:19:22.389Z</time></trkpt><trkpt lat="42.7693882" lon="11.6945959"><ele>864.0</ele><time>2026-04-11T12:19:23.394Z</time></trkpt><trkpt lat="42.7695279" lon="11.694667"><ele>864.0</ele><time>2026-04-11T12:19:24.401Z</time></trkpt><trkpt lat="42.7696457" lon="11.6947677"><ele>864.0</ele><time>2026-04-11T12:19:25.405Z</time></trkpt><trkpt lat="42.7697419" lon="11.6949126"><ele>864.0</ele><time>2026-04-11T12:19:26.406Z</time></trkpt><trkpt lat="42.7698314" lon="11.6950835"><ele>864.0</ele><time>2026-04-11T12:19:27.397Z</time></trkpt><trkpt lat="42.7698903" lon="11.6952548"><ele>859.0</ele><time>2026-04-11T12:19:28.403Z</time></trkpt><trkpt lat="42.7699229" lon="11.6954475"><ele>854.0</ele><time>2026-04-11T12:19:29.4Z</time></trkpt><trkpt lat="42.7699641" lon="11.6956404"><ele>849.0</ele><time>2026-04-11T12:19:30.406Z</time></trkpt><trkpt lat="42.7700089" lon="11.6958337"><ele>844.0</ele><time>2026-04-11T12:19:31.407Z</time></trkpt><trkpt lat="42.7700534" lon="11.6959931"><ele>841.5</ele><time>2026-04-11T12:19:32.405Z</time></trkpt><trkpt lat="42.7701153" lon="11.6961443"><ele>839.0</ele><time>2026-04-11T12:19:33.407Z</time></trkpt><trkpt lat="42.7701922" lon="11.6962901"><ele>836.5</ele><time>2026-04-11T12:19:34.413Z</time></trkpt><trkpt lat="42.7702472" lon="11.6964502"><ele>834.0</ele><time>2026-04-11T12:19:35.411Z</time></trkpt><trkpt lat="42.7702926" lon="11.6966296"><ele>834.0</ele><time>2026-04-11T12:19:36.406Z</time></trkpt><trkpt lat="42.7703083" lon="11.6967684"><ele>834.0</ele><time>2026-04-11T12:19:37.408Z</time></trkpt><trkpt lat="42.7703359" lon="11.6969237"><ele>834.0</ele><time>2026-04-11T12:19:38.41Z</time></trkpt><trkpt lat="42.7703737" lon="11.6970534"><ele>834.0</ele><time>2026-04-11T12:19:39.406Z</time></trkpt><trkpt lat="42.7704423" lon="11.697153"><ele>834.0</ele><time>2026-04-11T12:19:40.404Z</time></trkpt><trkpt lat="42.7704861" lon="11.6972373"><ele>832.0</ele><time>2026-04-11T12:19:41.406Z</time></trkpt><trkpt lat="42.7705635" lon="11.6972656"><ele>830.0</ele><time>2026-04-11T12:19:42.4Z</time></trkpt><trkpt lat="42.7706555" lon="11.6972904"><ele>828.0</ele><time>2026-04-11T12:19:43.402Z</time></trkpt><trkpt lat="42.7707552" lon="11.6972292"><ele>826.0</ele><time>2026-04-11T12:19:44.403Z</time></trkpt><trkpt lat="42.7708542" lon="11.697132"><ele>824.0</ele><time>2026-04-11T12:19:45.401Z</time></trkpt><trkpt lat="42.7709413" lon="11.6970567"><ele>824.0</ele><time>2026-04-11T12:19:46.39Z</time></trkpt><trkpt lat="42.7710186" lon="11.6969837"><ele>824.0</ele><time>2026-04-11T12:19:47.408Z</time></trkpt><trkpt lat="42.7710967" lon="11.6969634"><ele>824.0</ele><time>2026-04-11T12:19:48.399Z</time></trkpt><trkpt lat="42.7711771" lon="11.69699"><ele>824.0</ele><time>2026-04-11T12:19:49.389Z</time></trkpt><trkpt lat="42.7712525" lon="11.6970721"><ele>824.0</ele><time>2026-04-11T12:19:50.387Z</time></trkpt><trkpt lat="42.7713249" lon="11.6971842"><ele>823.2</ele><time>2026-04-11T12:19:51.382Z</time></trkpt><trkpt lat="42.7714037" lon="11.6972894"><ele>822.4000000000001</ele><time>2026-04-11T12:19:52.385Z</time></trkpt><trkpt lat="42.7715028" lon="11.6973479"><ele>821.6</ele><time>2026-04-11T12:19:53.392Z</time></trkpt><trkpt lat="42.7716033" lon="11.6973857"><ele>820.8</ele><time>2026-04-11T12:19:54.39Z</time></trkpt><trkpt lat="42.7717059" lon="11.6974138"><ele>820.0</ele><time>2026-04-11T12:19:55.389Z</time></trkpt><trkpt lat="42.7717846" lon="11.6974331"><ele>818.6666666666666</ele><time>2026-04-11T12:19:56.382Z</time></trkpt><trkpt lat="42.7718601" lon="11.6974509"><ele>817.3333333333333</ele><time>2026-04-11T12:19:57.389Z</time></trkpt><trkpt lat="42.7719341" lon="11.697443"><ele>816.0</ele><time>2026-04-11T12:19:58.384Z</time></trkpt><trkpt lat="42.7720008" lon="11.6974945"><ele>814.6666666666667</ele><time>2026-04-11T12:19:59.388Z</time></trkpt><trkpt lat="42.7720891" lon="11.6975684"><ele>813.3333333333334</ele><time>2026-04-11T12:20:01.394Z</time></trkpt><trkpt lat="42.7721679" lon="11.6975762"><ele>812.0</ele><time>2026-04-11T12:20:02.39Z</time></trkpt><trkpt lat="42.7722337" lon="11.6975538"><ele>812.0</ele><time>2026-04-11T12:20:03.387Z</time></trkpt><trkpt lat="42.772298" lon="11.6975194"><ele>812.0</ele><time>2026-04-11T12:20:04.392Z</time></trkpt><trkpt lat="42.7723779" lon="11.6974866"><ele>812.0</ele><time>2026-04-11T12:20:05.377Z</time></trkpt><trkpt lat="42.7724783" lon="11.6974414"><ele>812.0</ele><time>2026-04-11T12:20:06.379Z</time></trkpt><trkpt lat="42.772575" lon="11.6973773"><ele>812.0</ele><time>2026-04-11T12:20:07.365Z</time></trkpt><trkpt lat="42.7726954" lon="11.6972904"><ele>809.4000000000001</ele><time>2026-04-11T12:20:08.365Z</time></trkpt><trkpt lat="42.7727897" lon="11.6972141"><ele>806.8000000000001</ele><time>2026-04-11T12:20:09.373Z</time></trkpt><trkpt lat="42.7728877" lon="11.6971712"><ele>804.2</ele><time>2026-04-11T12:20:10.384Z</time></trkpt><trkpt lat="42.7729785" lon="11.6971401"><ele>801.6</ele><time>2026-04-11T12:20:11.397Z</time></trkpt><trkpt lat="42.7730806" lon="11.697098"><ele>799.0</ele><time>2026-04-11T12:20:12.388Z</time></trkpt><trkpt lat="42.7731842" lon="11.697019"><ele>799.5</ele><time>2026-04-11T12:20:13.397Z</time></trkpt><trkpt lat="42.7732919" lon="11.6969186"><ele>800.0</ele><time>2026-04-11T12:20:14.39Z</time></trkpt><trkpt lat="42.7733887" lon="11.6968217"><ele>800.5</ele><time>2026-04-11T12:20:15.39Z</time></trkpt><trkpt lat="42.7734601" lon="11.6967082"><ele>801.0</ele><time>2026-04-11T12:20:16.391Z</time></trkpt><trkpt lat="42.7735343" lon="11.6966186"><ele>801.0</ele><time>2026-04-11T12:20:17.404Z</time></trkpt><trkpt lat="42.7736115" lon="11.6965447"><ele>801.0</ele><time>2026-04-11T12:20:18.391Z</time></trkpt><trkpt lat="42.7736982" lon="11.696511"><ele>801.0</ele><time>2026-04-11T12:20:19.396Z</time></trkpt><trkpt lat="42.7737946" lon="11.6965329"><ele>801.0</ele><time>2026-04-11T12:20:20.403Z</time></trkpt><trkpt lat="42.7738902" lon="11.6965817"><ele>801.0</ele><time>2026-04-11T12:20:21.406Z</time></trkpt><trkpt lat="42.7739712" lon="11.6966342"><ele>801.0</ele><time>2026-04-11T12:20:22.396Z</time></trkpt><trkpt lat="42.774033" lon="11.6967033"><ele>801.0</ele><time>2026-04-11T12:20:23.39Z</time></trkpt><trkpt lat="42.7740605" lon="11.6967944"><ele>801.0</ele><time>2026-04-11T12:20:24.393Z</time></trkpt><trkpt lat="42.7740638" lon="11.6968814"><ele>801.0</ele><time>2026-04-11T12:20:25.394Z</time></trkpt><trkpt lat="42.7740116" lon="11.6970036"><ele>801.0</ele><time>2026-04-11T12:20:27.395Z</time></trkpt><trkpt lat="42.7739306" lon="11.6971068"><ele>801.0</ele><time>2026-04-11T12:20:29.397Z</time></trkpt><trkpt lat="42.7738809" lon="11.6971981"><ele>798.25</ele><time>2026-04-11T12:20:30.397Z</time></trkpt><trkpt lat="42.7738078" lon="11.6973357"><ele>795.5</ele><time>2026-04-11T12:20:31.404Z</time></trkpt><trkpt lat="42.7737397" lon="11.6974792"><ele>792.75</ele><time>2026-04-11T12:20:32.391Z</time></trkpt><trkpt lat="42.7736686" lon="11.6975978"><ele>790.0</ele><time>2026-04-11T12:20:33.403Z</time></trkpt><trkpt lat="42.7735953" lon="11.6977102"><ele>790.8</ele><time>2026-04-11T12:20:34.39Z</time></trkpt><trkpt lat="42.7735273" lon="11.6977996"><ele>791.6</ele><time>2026-04-11T12:20:35.4Z</time></trkpt><trkpt lat="42.7734748" lon="11.6978509"><ele>792.4000000000001</ele><time>2026-04-11T12:20:36.391Z</time></trkpt><trkpt lat="42.7733749" lon="11.6979419"><ele>793.2</ele><time>2026-04-11T12:20:38.392Z</time></trkpt><trkpt lat="42.7733114" lon="11.6979812"><ele>794.0</ele><time>2026-04-11T12:22:10.4Z</time></trkpt><trkpt lat="42.7733407" lon="11.6981753"><ele>794.0</ele><time>2026-04-11T12:22:12.405Z</time></trkpt><trkpt lat="42.7733501" lon="11.698301"><ele>794.0</ele><time>2026-04-11T12:22:13.399Z</time></trkpt><trkpt lat="42.7733625" lon="11.698452"><ele>794.0</ele><time>2026-04-11T12:22:14.402Z</time></trkpt><trkpt lat="42.773378" lon="11.6985873"><ele>794.0</ele><time>2026-04-11T12:22:15.403Z</time></trkpt><trkpt lat="42.7733525" lon="11.698738"><ele>794.0</ele><time>2026-04-11T12:22:16.424Z</time></trkpt><trkpt lat="42.7733191" lon="11.6988959"><ele>791.25</ele><time>2026-04-11T12:22:17.43Z</time></trkpt><trkpt lat="42.7732594" lon="11.6990567"><ele>788.5</ele><time>2026-04-11T12:22:18.424Z</time></trkpt><trkpt lat="42.773177" lon="11.699174"><ele>785.75</ele><time>2026-04-11T12:22:19.419Z</time></trkpt><trkpt lat="42.7730841" lon="11.6992345"><ele>783.0</ele><time>2026-04-11T12:22:20.417Z</time></trkpt><trkpt lat="42.7729731" lon="11.6992613"><ele>783.0</ele><time>2026-04-11T12:22:21.41Z</time></trkpt><trkpt lat="42.7728545" lon="11.6992624"><ele>783.0</ele><time>2026-04-11T12:22:22.421Z</time></trkpt><trkpt lat="42.7727272" lon="11.6992477"><ele>783.0</ele><time>2026-04-11T12:22:23.415Z</time></trkpt><trkpt lat="42.7725887" lon="11.6992101"><ele>783.0</ele><time>2026-04-11T12:22:24.415Z</time></trkpt><trkpt lat="42.7724497" lon="11.6991797"><ele>784.0</ele><time>2026-04-11T12:22:25.414Z</time></trkpt><trkpt lat="42.772314" lon="11.6991367"><ele>785.0</ele><time>2026-04-11T12:22:26.41Z</time></trkpt><trkpt lat="42.7722061" lon="11.699127"><ele>786.0</ele><time>2026-04-11T12:22:27.41Z</time></trkpt><trkpt lat="42.7721109" lon="11.6991374"><ele>787.0</ele><time>2026-04-11T12:22:28.395Z</time></trkpt><trkpt lat="42.7720363" lon="11.6991844"><ele>788.0</ele><time>2026-04-11T12:22:29.401Z</time></trkpt><trkpt lat="42.771972" lon="11.6992584"><ele>788.0</ele><time>2026-04-11T12:22:30.394Z</time></trkpt><trkpt lat="42.7719402" lon="11.6993643"><ele>788.0</ele><time>2026-04-11T12:22:31.404Z</time></trkpt><trkpt lat="42.771932" lon="11.6995125"><ele>788.0</ele><time>2026-04-11T12:22:32.401Z</time></trkpt><trkpt lat="42.7719468" lon="11.6996907"><ele>788.0</ele><time>2026-04-11T12:22:33.404Z</time></trkpt><trkpt lat="42.7719949" lon="11.699913"><ele>784.3333333333334</ele><time>2026-04-11T12:22:34.397Z</time></trkpt><trkpt lat="42.7720333" lon="11.7001011"><ele>780.6666666666667</ele><time>2026-04-11T12:22:35.395Z</time></trkpt><trkpt lat="42.7720661" lon="11.700326"><ele>777.0</ele><time>2026-04-11T12:22:36.398Z</time></trkpt><trkpt lat="42.7721078" lon="11.7005249"><ele>774.2</ele><time>2026-04-11T12:22:37.413Z</time></trkpt><trkpt lat="42.7721482" lon="11.7006878"><ele>771.4000000000001</ele><time>2026-04-11T12:22:38.419Z</time></trkpt><trkpt lat="42.7721741" lon="11.7008449"><ele>768.5999999999999</ele><time>2026-04-11T12:22:39.421Z</time></trkpt><trkpt lat="42.7721683" lon="11.7009599"><ele>765.8</ele><time>2026-04-11T12:22:40.424Z</time></trkpt><trkpt lat="42.7721189" lon="11.7010244"><ele>763.0</ele><time>2026-04-11T12:22:41.407Z</time></trkpt><trkpt lat="42.7720157" lon="11.701049"><ele>763.0</ele><time>2026-04-11T12:22:42.41Z</time></trkpt><trkpt lat="42.7718938" lon="11.7010749"><ele>763.0</ele><time>2026-04-11T12:22:43.416Z</time></trkpt><trkpt lat="42.7717562" lon="11.7010786"><ele>763.0</ele><time>2026-04-11T12:22:44.423Z</time></trkpt><trkpt lat="42.7716146" lon="11.7010512"><ele>763.0</ele><time>2026-04-11T12:22:45.421Z</time></trkpt><trkpt lat="42.7714597" lon="11.7009697"><ele>769.3333333333334</ele><time>2026-04-11T12:22:46.415Z</time></trkpt><trkpt lat="42.7713131" lon="11.7008337"><ele>775.6666666666667</ele><time>2026-04-11T12:22:47.419Z</time></trkpt><trkpt lat="42.7711943" lon="11.7006639"><ele>782.0</ele><time>2026-04-11T12:22:48.414Z</time></trkpt><trkpt lat="42.7710691" lon="11.7004928"><ele>779.0</ele><time>2026-04-11T12:22:49.423Z</time></trkpt><trkpt lat="42.7709499" lon="11.7003839"><ele>776.0</ele><time>2026-04-11T12:22:50.412Z</time></trkpt><trkpt lat="42.7708037" lon="11.700246"><ele>773.0</ele><time>2026-04-11T12:22:51.406Z</time></trkpt><trkpt lat="42.7706642" lon="11.7002018"><ele>780.0</ele><time>2026-04-11T12:22:52.408Z</time></trkpt><trkpt lat="42.7705198" lon="11.700185"><ele>787.0</ele><time>2026-04-11T12:22:53.412Z</time></trkpt><trkpt lat="42.7703551" lon="11.7001852"><ele>794.0</ele><time>2026-04-11T12:22:54.417Z</time></trkpt><trkpt lat="42.7702181" lon="11.7001251"><ele>792.0</ele><time>2026-04-11T12:22:55.422Z</time></trkpt><trkpt lat="42.7700819" lon="11.7000655"><ele>790.0</ele><time>2026-04-11T12:22:56.418Z</time></trkpt><trkpt lat="42.7699551" lon="11.6999492"><ele>788.0</ele><time>2026-04-11T12:22:57.412Z</time></trkpt><trkpt lat="42.769865" lon="11.6998029"><ele>786.0</ele><time>2026-04-11T12:22:58.411Z</time></trkpt><trkpt lat="42.7698318" lon="11.6996261"><ele>786.0</ele><time>2026-04-11T12:22:59.429Z</time></trkpt><trkpt lat="42.7697633" lon="11.6994178"><ele>786.0</ele><time>2026-04-11T12:23:00.422Z</time></trkpt><trkpt lat="42.769702" lon="11.6992338"><ele>786.0</ele><time>2026-04-11T12:23:01.42Z</time></trkpt><trkpt lat="42.7696456" lon="11.699121"><ele>786.0</ele><time>2026-04-11T12:23:02.423Z</time></trkpt><trkpt lat="42.7695683" lon="11.6990363"><ele>787.0</ele><time>2026-04-11T12:23:03.415Z</time></trkpt><trkpt lat="42.7694795" lon="11.698935"><ele>788.0</ele><time>2026-04-11T12:23:04.41Z</time></trkpt><trkpt lat="42.7693691" lon="11.6989617"><ele>789.0</ele><time>2026-04-11T12:23:05.406Z</time></trkpt><trkpt lat="42.769285" lon="11.6989683"><ele>790.0</ele><time>2026-04-11T12:23:06.401Z</time></trkpt><trkpt lat="42.7692262" lon="11.6990822"><ele>791.0</ele><time>2026-04-11T12:23:07.39Z</time></trkpt><trkpt lat="42.7691813" lon="11.6993191"><ele>787.0</ele><time>2026-04-11T12:23:08.401Z</time></trkpt><trkpt lat="42.7691809" lon="11.6995381"><ele>783.0</ele><time>2026-04-11T12:23:09.431Z</time></trkpt><trkpt lat="42.7691811" lon="11.6997246"><ele>779.0</ele><time>2026-04-11T12:23:10.428Z</time></trkpt><trkpt lat="42.769126" lon="11.6998128"><ele>775.0</ele><time>2026-04-11T12:23:11.422Z</time></trkpt><trkpt lat="42.7690596" lon="11.6998378"><ele>775.0</ele><time>2026-04-11T12:23:12.421Z</time></trkpt><trkpt lat="42.7689791" lon="11.6997994"><ele>775.0</ele><time>2026-04-11T12:23:13.425Z</time></trkpt><trkpt lat="42.7689031" lon="11.6997281"><ele>775.0</ele><time>2026-04-11T12:23:14.421Z</time></trkpt><trkpt lat="42.7688302" lon="11.6996351"><ele>775.0</ele><time>2026-04-11T12:23:15.411Z</time></trkpt><trkpt lat="42.7687699" lon="11.6994855"><ele>775.0</ele><time>2026-04-11T12:23:16.413Z</time></trkpt><trkpt lat="42.768709" lon="11.6993163"><ele>773.6666666666666</ele><time>2026-04-11T12:23:17.411Z</time></trkpt><trkpt lat="42.7686463" lon="11.6991495"><ele>772.3333333333333</ele><time>2026-04-11T12:23:18.407Z</time></trkpt><trkpt lat="42.7685684" lon="11.6989534"><ele>771.0</ele><time>2026-04-11T12:23:19.412Z</time></trkpt><trkpt lat="42.7684662" lon="11.6987852"><ele>771.0</ele><time>2026-04-11T12:23:20.42Z</time></trkpt><trkpt lat="42.7683214" lon="11.6986315"><ele>771.0</ele><time>2026-04-11T12:23:21.411Z</time></trkpt><trkpt lat="42.7681905" lon="11.6984525"><ele>771.0</ele><time>2026-04-11T12:23:22.429Z</time></trkpt><trkpt lat="42.7680637" lon="11.6982901"><ele>767.6666666666666</ele><time>2026-04-11T12:23:23.432Z</time></trkpt><trkpt lat="42.767945" lon="11.6981338"><ele>764.3333333333333</ele><time>2026-04-11T12:23:24.423Z</time></trkpt><trkpt lat="42.7678071" lon="11.6979913"><ele>761.0</ele><time>2026-04-11T12:23:25.422Z</time></trkpt><trkpt lat="42.7676455" lon="11.697919"><ele>761.0</ele><time>2026-04-11T12:23:26.424Z</time></trkpt><trkpt lat="42.7674845" lon="11.69786"><ele>761.0</ele><time>2026-04-11T12:23:27.416Z</time></trkpt><trkpt lat="42.7673245" lon="11.697823"><ele>761.0</ele><time>2026-04-11T12:23:28.412Z</time></trkpt><trkpt lat="42.7671526" lon="11.697827"><ele>761.0</ele><time>2026-04-11T12:23:29.419Z</time></trkpt><trkpt lat="42.7669916" lon="11.6978396"><ele>761.0</ele><time>2026-04-11T12:23:30.426Z</time></trkpt><trkpt lat="42.7668425" lon="11.6978335"><ele>761.0</ele><time>2026-04-11T12:23:31.42Z</time></trkpt><trkpt lat="42.7666752" lon="11.6978068"><ele>760.3333333333333</ele><time>2026-04-11T12:23:32.414Z</time></trkpt><trkpt lat="42.7665588" lon="11.6977032"><ele>759.6666666666666</ele><time>2026-04-11T12:23:33.426Z</time></trkpt><trkpt lat="42.7664539" lon="11.6975171"><ele>759.0</ele><time>2026-04-11T12:23:34.414Z</time></trkpt><trkpt lat="42.7663612" lon="11.6973227"><ele>759.0</ele><time>2026-04-11T12:23:35.419Z</time></trkpt><trkpt lat="42.7662807" lon="11.6971032"><ele>759.0</ele><time>2026-04-11T12:23:36.419Z</time></trkpt><trkpt lat="42.7661544" lon="11.6969948"><ele>759.0</ele><time>2026-04-11T12:23:37.417Z</time></trkpt><trkpt lat="42.7660023" lon="11.6968659"><ele>758.0</ele><time>2026-04-11T12:23:38.411Z</time></trkpt><trkpt lat="42.7658514" lon="11.6967997"><ele>757.0</ele><time>2026-04-11T12:23:39.424Z</time></trkpt><trkpt lat="42.7657063" lon="11.6967422"><ele>756.0</ele><time>2026-04-11T12:23:40.443Z</time></trkpt><trkpt lat="42.765573" lon="11.6967449"><ele>755.0</ele><time>2026-04-11T12:23:41.427Z</time></trkpt><trkpt lat="42.7654322" lon="11.6967387"><ele>755.0</ele><time>2026-04-11T12:23:42.417Z</time></trkpt><trkpt lat="42.7652839" lon="11.6968085"><ele>755.0</ele><time>2026-04-11T12:23:43.415Z</time></trkpt><trkpt lat="42.7651383" lon="11.6969017"><ele>755.0</ele><time>2026-04-11T12:23:44.42Z</time></trkpt><trkpt lat="42.7650115" lon="11.6970033"><ele>747.3333333333333</ele><time>2026-04-11T12:23:45.415Z</time></trkpt><trkpt lat="42.7648848" lon="11.697105"><ele>739.6666666666666</ele><time>2026-04-11T12:23:46.418Z</time></trkpt><trkpt lat="42.7647115" lon="11.6971364"><ele>732.0</ele><time>2026-04-11T12:23:47.412Z</time></trkpt><trkpt lat="42.7645586" lon="11.6971127"><ele>732.0</ele><time>2026-04-11T12:23:48.426Z</time></trkpt><trkpt lat="42.7644002" lon="11.6971036"><ele>732.0</ele><time>2026-04-11T12:23:49.419Z</time></trkpt><trkpt lat="42.7642256" lon="11.6971508"><ele>732.0</ele><time>2026-04-11T12:23:50.419Z</time></trkpt><trkpt lat="42.7640927" lon="11.6972411"><ele>732.0</ele><time>2026-04-11T12:23:51.413Z</time></trkpt><trkpt lat="42.763943" lon="11.697359"><ele>732.0</ele><time>2026-04-11T12:23:52.413Z</time></trkpt><trkpt lat="42.7638311" lon="11.697456"><ele>732.0</ele><time>2026-04-11T12:23:53.422Z</time></trkpt><trkpt lat="42.7637211" lon="11.6975257"><ele>732.0</ele><time>2026-04-11T12:23:54.417Z</time></trkpt><trkpt lat="42.7635942" lon="11.6976206"><ele>732.0</ele><time>2026-04-11T12:23:55.416Z</time></trkpt><trkpt lat="42.7634889" lon="11.6977025"><ele>732.0</ele><time>2026-04-11T12:23:56.416Z</time></trkpt><trkpt lat="42.7634555" lon="11.6978264"><ele>732.0</ele><time>2026-04-11T12:23:57.41Z</time></trkpt><trkpt lat="42.7635348" lon="11.6979586"><ele>732.0</ele><time>2026-04-11T12:23:58.427Z</time></trkpt><trkpt lat="42.7636466" lon="11.6981211"><ele>729.0</ele><time>2026-04-11T12:23:59.411Z</time></trkpt><trkpt lat="42.7637616" lon="11.6981736"><ele>726.0</ele><time>2026-04-11T12:24:00.415Z</time></trkpt><trkpt lat="42.7638869" lon="11.698201"><ele>723.0</ele><time>2026-04-11T12:24:01.412Z</time></trkpt><trkpt lat="42.764026" lon="11.6981372"><ele>720.0</ele><time>2026-04-11T12:24:02.414Z</time></trkpt><trkpt lat="42.764126" lon="11.6980873"><ele>720.0</ele><time>2026-04-11T12:24:03.42Z</time></trkpt><trkpt lat="42.7642383" lon="11.6979963"><ele>720.0</ele><time>2026-04-11T12:24:04.421Z</time></trkpt><trkpt lat="42.7643571" lon="11.6978865"><ele>720.0</ele><time>2026-04-11T12:24:05.404Z</time></trkpt><trkpt lat="42.764485" lon="11.6978183"><ele>720.0</ele><time>2026-04-11T12:24:06.412Z</time></trkpt><trkpt lat="42.764625" lon="11.6977566"><ele>720.6</ele><time>2026-04-11T12:24:07.417Z</time></trkpt><trkpt lat="42.764737" lon="11.6977278"><ele>721.2</ele><time>2026-04-11T12:24:08.421Z</time></trkpt><trkpt lat="42.7648421" lon="11.6977329"><ele>721.8</ele><time>2026-04-11T12:24:09.427Z</time></trkpt><trkpt lat="42.7649384" lon="11.6977554"><ele>722.4</ele><time>2026-04-11T12:24:10.431Z</time></trkpt><trkpt lat="42.7650326" lon="11.6978036"><ele>723.0</ele><time>2026-04-11T12:24:11.425Z</time></trkpt><trkpt lat="42.7651109" lon="11.6978697"><ele>723.0</ele><time>2026-04-11T12:24:12.417Z</time></trkpt><trkpt lat="42.7651531" lon="11.6979713"><ele>723.0</ele><time>2026-04-11T12:24:13.426Z</time></trkpt><trkpt lat="42.7650672" lon="11.6980767"><ele>723.0</ele><time>2026-04-11T12:24:15.416Z</time></trkpt><trkpt lat="42.7649923" lon="11.6981084"><ele>723.0</ele><time>2026-04-11T12:24:16.428Z</time></trkpt><trkpt lat="42.7649221" lon="11.6981458"><ele>723.0</ele><time>2026-04-11T12:24:17.428Z</time></trkpt><trkpt lat="42.7648405" lon="11.6981987"><ele>723.0</ele><time>2026-04-11T12:24:20.45Z</time></trkpt><trkpt lat="42.7647798" lon="11.6982301"><ele>723.0</ele><time>2026-04-11T12:24:47.447Z</time></trkpt><trkpt lat="42.7647145" lon="11.6982605"><ele>723.0</ele><time>2026-04-11T12:24:50.434Z</time></trkpt><trkpt lat="42.7646453" lon="11.6982903"><ele>723.0</ele><time>2026-04-11T12:24:51.416Z</time></trkpt><trkpt lat="42.7645556" lon="11.6983293"><ele>723.0</ele><time>2026-04-11T12:24:52.423Z</time></trkpt><trkpt lat="42.7643922" lon="11.6983879"><ele>723.0</ele><time>2026-04-11T12:24:53.422Z</time></trkpt><trkpt lat="42.7642599" lon="11.6984363"><ele>722.5</ele><time>2026-04-11T12:24:54.431Z</time></trkpt><trkpt lat="42.7641599" lon="11.6984633"><ele>722.0</ele><time>2026-04-11T12:24:55.431Z</time></trkpt><trkpt lat="42.7640721" lon="11.6984927"><ele>721.5</ele><time>2026-04-11T12:24:56.433Z</time></trkpt><trkpt lat="42.7639915" lon="11.69853"><ele>721.0</ele><time>2026-04-11T12:24:57.434Z</time></trkpt><trkpt lat="42.7639154" lon="11.6985734"><ele>720.5</ele><time>2026-04-11T12:24:58.435Z</time></trkpt><trkpt lat="42.7638484" lon="11.6985957"><ele>720.0</ele><time>2026-04-11T12:24:59.434Z</time></trkpt><trkpt lat="42.7637319" lon="11.6986358"><ele>719.0</ele><time>2026-04-11T12:25:01.437Z</time></trkpt><trkpt lat="42.7636207" lon="11.6986832"><ele>718.0</ele><time>2026-04-11T12:25:03.442Z</time></trkpt><trkpt lat="42.7635368" lon="11.698674"><ele>717.0</ele><time>2026-04-11T12:25:05.442Z</time></trkpt><trkpt lat="42.7634767" lon="11.6987168"><ele>716.0</ele><time>2026-04-11T12:26:54.43Z</time></trkpt><trkpt lat="42.7633729" lon="11.6987933"><ele>715.0</ele><time>2026-04-11T12:26:57.402Z</time></trkpt><trkpt lat="42.7632353" lon="11.698807"><ele>715.0</ele><time>2026-04-11T12:26:58.406Z</time></trkpt><trkpt lat="42.7630311" lon="11.6987919"><ele>715.0</ele><time>2026-04-11T12:26:59.404Z</time></trkpt><trkpt lat="42.7628266" lon="11.6987725"><ele>715.0</ele><time>2026-04-11T12:27:00.41Z</time></trkpt><trkpt lat="42.7626436" lon="11.6987521"><ele>714.3333333333334</ele><time>2026-04-11T12:27:01.405Z</time></trkpt><trkpt lat="42.7624817" lon="11.6987448"><ele>713.6666666666666</ele><time>2026-04-11T12:27:02.41Z</time></trkpt><trkpt lat="42.7623171" lon="11.6987284"><ele>713.0</ele><time>2026-04-11T12:27:03.411Z</time></trkpt><trkpt lat="42.7621634" lon="11.6987136"><ele>713.0</ele><time>2026-04-11T12:27:04.423Z</time></trkpt><trkpt lat="42.7620038" lon="11.698707"><ele>713.0</ele><time>2026-04-11T12:27:05.421Z</time></trkpt><trkpt lat="42.7618604" lon="11.6987358"><ele>713.0</ele><time>2026-04-11T12:27:06.422Z</time></trkpt><trkpt lat="42.7617135" lon="11.6987823"><ele>711.6666666666666</ele><time>2026-04-11T12:27:07.412Z</time></trkpt><trkpt lat="42.7615768" lon="11.6988369"><ele>710.3333333333334</ele><time>2026-04-11T12:27:08.407Z</time></trkpt><trkpt lat="42.7613958" lon="11.6989098"><ele>709.0</ele><time>2026-04-11T12:27:09.422Z</time></trkpt><trkpt lat="42.7612256" lon="11.6989476"><ele>709.0</ele><time>2026-04-11T12:27:10.418Z</time></trkpt><trkpt lat="42.7610663" lon="11.6989783"><ele>709.0</ele><time>2026-04-11T12:27:11.421Z</time></trkpt><trkpt lat="42.7609171" lon="11.6990253"><ele>709.0</ele><time>2026-04-11T12:27:12.415Z</time></trkpt><trkpt lat="42.7607703" lon="11.6990839"><ele>706.5</ele><time>2026-04-11T12:27:13.416Z</time></trkpt><trkpt lat="42.7606421" lon="11.699126"><ele>704.0</ele><time>2026-04-11T12:27:14.42Z</time></trkpt><trkpt lat="42.7605121" lon="11.6991662"><ele>701.5</ele><time>2026-04-11T12:27:15.423Z</time></trkpt><trkpt lat="42.7604099" lon="11.699221"><ele>699.0</ele><time>2026-04-11T12:27:16.424Z</time></trkpt><trkpt lat="42.7603058" lon="11.6992936"><ele>698.75</ele><time>2026-04-11T12:27:17.425Z</time></trkpt><trkpt lat="42.7602502" lon="11.6994695"><ele>698.5</ele><time>2026-04-11T12:27:18.414Z</time></trkpt><trkpt lat="42.7602378" lon="11.6995919"><ele>698.25</ele><time>2026-04-11T12:27:19.415Z</time></trkpt><trkpt lat="42.7602341" lon="11.6997556"><ele>698.0</ele><time>2026-04-11T12:27:20.414Z</time></trkpt><trkpt lat="42.7602651" lon="11.6999341"><ele>698.0</ele><time>2026-04-11T12:27:21.409Z</time></trkpt><trkpt lat="42.7602839" lon="11.7001175"><ele>698.0</ele><time>2026-04-11T12:27:22.407Z</time></trkpt><trkpt lat="42.7602905" lon="11.7003102"><ele>698.0</ele><time>2026-04-11T12:27:23.412Z</time></trkpt><trkpt lat="42.7602473" lon="11.7004655"><ele>698.0</ele><time>2026-04-11T12:27:24.413Z</time></trkpt><trkpt lat="42.7601596" lon="11.7006444"><ele>694.3333333333333</ele><time>2026-04-11T12:27:25.413Z</time></trkpt><trkpt lat="42.7600151" lon="11.7007905"><ele>690.6666666666666</ele><time>2026-04-11T12:27:26.405Z</time></trkpt><trkpt lat="42.7598946" lon="11.7009061"><ele>687.0</ele><time>2026-04-11T12:27:27.406Z</time></trkpt><trkpt lat="42.7597314" lon="11.7009378"><ele>687.0</ele><time>2026-04-11T12:27:28.399Z</time></trkpt><trkpt lat="42.7595927" lon="11.7009577"><ele>687.0</ele><time>2026-04-11T12:27:29.387Z</time></trkpt><trkpt lat="42.7594882" lon="11.7009394"><ele>687.0</ele><time>2026-04-11T12:27:30.395Z</time></trkpt><trkpt lat="42.759468" lon="11.7008147"><ele>687.0</ele><time>2026-04-11T12:27:31.405Z</time></trkpt><trkpt lat="42.7594364" lon="11.7006411"><ele>687.0</ele><time>2026-04-11T12:27:32.41Z</time></trkpt><trkpt lat="42.7594158" lon="11.7005542"><ele>687.0</ele><time>2026-04-11T12:27:33.406Z</time></trkpt><trkpt lat="42.7594575" lon="11.7004102"><ele>687.0</ele><time>2026-04-11T12:27:34.407Z</time></trkpt><trkpt lat="42.7594958" lon="11.7002507"><ele>687.0</ele><time>2026-04-11T12:27:35.404Z</time></trkpt><trkpt lat="42.7595228" lon="11.7000813"><ele>687.0</ele><time>2026-04-11T12:27:36.401Z</time></trkpt><trkpt lat="42.7595547" lon="11.6998948"><ele>687.6666666666666</ele><time>2026-04-11T12:27:37.405Z</time></trkpt><trkpt lat="42.7595652" lon="11.6997017"><ele>688.3333333333333</ele><time>2026-04-11T12:27:38.397Z</time></trkpt><trkpt lat="42.7595726" lon="11.6994669"><ele>689.0</ele><time>2026-04-11T12:27:39.405Z</time></trkpt><trkpt lat="42.7594883" lon="11.6992842"><ele>689.5</ele><time>2026-04-11T12:27:40.412Z</time></trkpt><trkpt lat="42.7594134" lon="11.6991412"><ele>690.0</ele><time>2026-04-11T12:27:41.404Z</time></trkpt><trkpt lat="42.7593256" lon="11.6990286"><ele>690.5</ele><time>2026-04-11T12:27:42.409Z</time></trkpt><trkpt lat="42.7592301" lon="11.6989677"><ele>691.0</ele><time>2026-04-11T12:27:43.406Z</time></trkpt><trkpt lat="42.7591237" lon="11.6988982"><ele>687.25</ele><time>2026-04-11T12:27:44.399Z</time></trkpt><trkpt lat="42.7590018" lon="11.6988442"><ele>683.5</ele><time>2026-04-11T12:27:45.404Z</time></trkpt><trkpt lat="42.7588832" lon="11.6987401"><ele>679.75</ele><time>2026-04-11T12:27:46.402Z</time></trkpt><trkpt lat="42.7587589" lon="11.6986965"><ele>676.0</ele><time>2026-04-11T12:27:47.41Z</time></trkpt><trkpt lat="42.758621" lon="11.6987076"><ele>674.75</ele><time>2026-04-11T12:27:48.41Z</time></trkpt><trkpt lat="42.7585134" lon="11.6987748"><ele>673.5</ele><time>2026-04-11T12:27:49.394Z</time></trkpt><trkpt lat="42.7583854" lon="11.6988589"><ele>672.25</ele><time>2026-04-11T12:27:50.389Z</time></trkpt><trkpt lat="42.7582982" lon="11.6989817"><ele>671.0</ele><time>2026-04-11T12:27:51.391Z</time></trkpt><trkpt lat="42.7581551" lon="11.6991515"><ele>671.0</ele><time>2026-04-11T12:27:52.403Z</time></trkpt><trkpt lat="42.7580127" lon="11.6992754"><ele>671.0</ele><time>2026-04-11T12:27:53.403Z</time></trkpt><trkpt lat="42.7578519" lon="11.6993928"><ele>671.0</ele><time>2026-04-11T12:27:54.399Z</time></trkpt><trkpt lat="42.7577057" lon="11.6994572"><ele>670.3333333333333</ele><time>2026-04-11T12:27:55.403Z</time></trkpt><trkpt lat="42.757545" lon="11.699387"><ele>669.6666666666666</ele><time>2026-04-11T12:27:56.398Z</time></trkpt><trkpt lat="42.7573695" lon="11.6993563"><ele>669.0</ele><time>2026-04-11T12:27:57.411Z</time></trkpt><trkpt lat="42.7572312" lon="11.6993501"><ele>669.0</ele><time>2026-04-11T12:27:58.405Z</time></trkpt><trkpt lat="42.7571248" lon="11.6994002"><ele>669.0</ele><time>2026-04-11T12:27:59.401Z</time></trkpt><trkpt lat="42.7569667" lon="11.699506"><ele>669.0</ele><time>2026-04-11T12:28:00.41Z</time></trkpt><trkpt lat="42.7568262" lon="11.6995523"><ele>669.0</ele><time>2026-04-11T12:28:01.416Z</time></trkpt><trkpt lat="42.7566823" lon="11.6995881"><ele>665.3333333333334</ele><time>2026-04-11T12:28:02.418Z</time></trkpt><trkpt lat="42.7565166" lon="11.6996288"><ele>661.6666666666667</ele><time>2026-04-11T12:28:03.412Z</time></trkpt><trkpt lat="42.7563417" lon="11.699577"><ele>658.0</ele><time>2026-04-11T12:28:04.416Z</time></trkpt><trkpt lat="42.7561821" lon="11.6994915"><ele>657.25</ele><time>2026-04-11T12:28:05.413Z</time></trkpt><trkpt lat="42.7560507" lon="11.699408"><ele>656.5</ele><time>2026-04-11T12:28:06.417Z</time></trkpt><trkpt lat="42.7559374" lon="11.6993099"><ele>655.75</ele><time>2026-04-11T12:28:07.408Z</time></trkpt><trkpt lat="42.7558547" lon="11.6991245"><ele>655.0</ele><time>2026-04-11T12:28:08.421Z</time></trkpt><trkpt lat="42.7557794" lon="11.6989256"><ele>655.0</ele><time>2026-04-11T12:28:09.428Z</time></trkpt><trkpt lat="42.7556543" lon="11.6988148"><ele>655.0</ele><time>2026-04-11T12:28:10.414Z</time></trkpt><trkpt lat="42.7555281" lon="11.6987014"><ele>655.0</ele><time>2026-04-11T12:28:11.433Z</time></trkpt><trkpt lat="42.7554465" lon="11.6985816"><ele>655.0</ele><time>2026-04-11T12:28:12.422Z</time></trkpt><trkpt lat="42.7553245" lon="11.698463"><ele>656.25</ele><time>2026-04-11T12:28:13.42Z</time></trkpt><trkpt lat="42.7552358" lon="11.6983163"><ele>657.5</ele><time>2026-04-11T12:28:14.412Z</time></trkpt><trkpt lat="42.7551685" lon="11.698172"><ele>658.75</ele><time>2026-04-11T12:28:15.419Z</time></trkpt><trkpt lat="42.7551173" lon="11.698019"><ele>660.0</ele><time>2026-04-11T12:28:16.411Z</time></trkpt><trkpt lat="42.7551048" lon="11.6978001"><ele>659.0</ele><time>2026-04-11T12:28:17.415Z</time></trkpt><trkpt lat="42.7550771" lon="11.6976051"><ele>658.0</ele><time>2026-04-11T12:28:18.418Z</time></trkpt><trkpt lat="42.7550263" lon="11.6974031"><ele>657.0</ele><time>2026-04-11T12:28:19.407Z</time></trkpt><trkpt lat="42.7549401" lon="11.6972679"><ele>656.0</ele><time>2026-04-11T12:28:20.422Z</time></trkpt><trkpt lat="42.7548034" lon="11.6971557"><ele>656.0</ele><time>2026-04-11T12:28:21.422Z</time></trkpt><trkpt lat="42.754657" lon="11.6970551"><ele>656.0</ele><time>2026-04-11T12:28:22.412Z</time></trkpt><trkpt lat="42.7545283" lon="11.6969237"><ele>656.0</ele><time>2026-04-11T12:28:23.414Z</time></trkpt><trkpt lat="42.754399" lon="11.6968318"><ele>657.6666666666666</ele><time>2026-04-11T12:28:24.407Z</time></trkpt><trkpt lat="42.7542344" lon="11.6967628"><ele>659.3333333333334</ele><time>2026-04-11T12:28:25.404Z</time></trkpt><trkpt lat="42.7540952" lon="11.6967892"><ele>661.0</ele><time>2026-04-11T12:28:26.399Z</time></trkpt><trkpt lat="42.7539355" lon="11.6967885"><ele>661.0</ele><time>2026-04-11T12:28:27.398Z</time></trkpt><trkpt lat="42.7537804" lon="11.6967607"><ele>661.0</ele><time>2026-04-11T12:28:28.394Z</time></trkpt><trkpt lat="42.753656" lon="11.6966093"><ele>661.0</ele><time>2026-04-11T12:28:29.395Z</time></trkpt><trkpt lat="42.7535288" lon="11.6964318"><ele>661.6666666666667</ele><time>2026-04-11T12:28:30.395Z</time></trkpt><trkpt lat="42.7534363" lon="11.6962615"><ele>662.3333333333334</ele><time>2026-04-11T12:28:31.406Z</time></trkpt><trkpt lat="42.7533212" lon="11.696099"><ele>663.0</ele><time>2026-04-11T12:28:32.403Z</time></trkpt><trkpt lat="42.7531943" lon="11.6959515"><ele>663.0</ele><time>2026-04-11T12:28:33.4Z</time></trkpt><trkpt lat="42.7530823" lon="11.695896"><ele>663.0</ele><time>2026-04-11T12:28:34.4Z</time></trkpt><trkpt lat="42.7529542" lon="11.6958821"><ele>663.0</ele><time>2026-04-11T12:28:35.391Z</time></trkpt><trkpt lat="42.7527872" lon="11.6959007"><ele>663.0</ele><time>2026-04-11T12:28:36.397Z</time></trkpt><trkpt lat="42.7526281" lon="11.6959723"><ele>662.5</ele><time>2026-04-11T12:28:37.394Z</time></trkpt><trkpt lat="42.7525246" lon="11.6959838"><ele>662.0</ele><time>2026-04-11T12:28:38.395Z</time></trkpt><trkpt lat="42.7523763" lon="11.696059"><ele>661.5</ele><time>2026-04-11T12:28:39.397Z</time></trkpt><trkpt lat="42.7522637" lon="11.6961912"><ele>661.0</ele><time>2026-04-11T12:28:40.393Z</time></trkpt><trkpt lat="42.7522065" lon="11.6963205"><ele>659.6666666666667</ele><time>2026-04-11T12:28:41.395Z</time></trkpt><trkpt lat="42.7521612" lon="11.6965466"><ele>658.3333333333334</ele><time>2026-04-11T12:28:42.4Z</time></trkpt><trkpt lat="42.7521981" lon="11.6967292"><ele>657.0</ele><time>2026-04-11T12:28:43.396Z</time></trkpt><trkpt lat="42.7522476" lon="11.6969201"><ele>657.0</ele><time>2026-04-11T12:28:44.4Z</time></trkpt><trkpt lat="42.7522324" lon="11.697176"><ele>657.0</ele><time>2026-04-11T12:28:45.406Z</time></trkpt><trkpt lat="42.7521917" lon="11.697389"><ele>657.0</ele><time>2026-04-11T12:28:46.402Z</time></trkpt><trkpt lat="42.7521443" lon="11.6976166"><ele>657.3333333333334</ele><time>2026-04-11T12:28:47.399Z</time></trkpt><trkpt lat="42.7520207" lon="11.6977815"><ele>657.6666666666667</ele><time>2026-04-11T12:28:48.399Z</time></trkpt><trkpt lat="42.7518927" lon="11.6978852"><ele>658.0</ele><time>2026-04-11T12:28:49.409Z</time></trkpt><trkpt lat="42.7517517" lon="11.6979607"><ele>660.75</ele><time>2026-04-11T12:28:50.398Z</time></trkpt><trkpt lat="42.7516525" lon="11.698066"><ele>663.5</ele><time>2026-04-11T12:28:51.393Z</time></trkpt><trkpt lat="42.7516204" lon="11.6982134"><ele>666.25</ele><time>2026-04-11T12:28:52.388Z</time></trkpt><trkpt lat="42.7516156" lon="11.6983223"><ele>669.0</ele><time>2026-04-11T12:28:53.385Z</time></trkpt><trkpt lat="42.7517022" lon="11.6984798"><ele>670.3333333333334</ele><time>2026-04-11T12:28:55.395Z</time></trkpt><trkpt lat="42.751809" lon="11.6986014"><ele>671.6666666666667</ele><time>2026-04-11T12:28:56.4Z</time></trkpt><trkpt lat="42.7519601" lon="11.6987459"><ele>673.0</ele><time>2026-04-11T12:28:57.403Z</time></trkpt><trkpt lat="42.7520707" lon="11.6988906"><ele>669.5</ele><time>2026-04-11T12:28:58.404Z</time></trkpt><trkpt lat="42.7521169" lon="11.6990717"><ele>666.0</ele><time>2026-04-11T12:28:59.405Z</time></trkpt><trkpt lat="42.7521476" lon="11.6992513"><ele>662.5</ele><time>2026-04-11T12:29:00.403Z</time></trkpt><trkpt lat="42.7521845" lon="11.6994015"><ele>659.0</ele><time>2026-04-11T12:29:01.403Z</time></trkpt><trkpt lat="42.7521841" lon="11.6995489"><ele>658.6666666666666</ele><time>2026-04-11T12:29:02.415Z</time></trkpt><trkpt lat="42.7521515" lon="11.6997184"><ele>658.3333333333334</ele><time>2026-04-11T12:29:03.398Z</time></trkpt><trkpt lat="42.7520579" lon="11.6998806"><ele>658.0</ele><time>2026-04-11T12:29:04.406Z</time></trkpt><trkpt lat="42.7519305" lon="11.700048"><ele>661.3333333333334</ele><time>2026-04-11T12:29:05.403Z</time></trkpt><trkpt lat="42.7517949" lon="11.7001953"><ele>664.6666666666666</ele><time>2026-04-11T12:29:06.402Z</time></trkpt><trkpt lat="42.7516027" lon="11.700326"><ele>668.0</ele><time>2026-04-11T12:29:07.401Z</time></trkpt><trkpt lat="42.7514734" lon="11.7004795"><ele>668.0</ele><time>2026-04-11T12:29:08.394Z</time></trkpt><trkpt lat="42.7513352" lon="11.7006599"><ele>668.0</ele><time>2026-04-11T12:29:09.384Z</time></trkpt><trkpt lat="42.7512626" lon="11.7008131"><ele>668.0</ele><time>2026-04-11T12:29:10.387Z</time></trkpt><trkpt lat="42.7512546" lon="11.7010132"><ele>668.6666666666666</ele><time>2026-04-11T12:29:11.381Z</time></trkpt><trkpt lat="42.7512766" lon="11.7012025"><ele>669.3333333333334</ele><time>2026-04-11T12:29:12.386Z</time></trkpt><trkpt lat="42.7513559" lon="11.7013918"><ele>670.0</ele><time>2026-04-11T12:29:13.406Z</time></trkpt><trkpt lat="42.7514465" lon="11.7016099"><ele>670.0</ele><time>2026-04-11T12:29:14.396Z</time></trkpt><trkpt lat="42.7515474" lon="11.7018127"><ele>670.0</ele><time>2026-04-11T12:29:15.391Z</time></trkpt><trkpt lat="42.7515921" lon="11.7020068"><ele>670.0</ele><time>2026-04-11T12:29:16.398Z</time></trkpt><trkpt lat="42.7515709" lon="11.7022339"><ele>671.0</ele><time>2026-04-11T12:29:17.413Z</time></trkpt><trkpt lat="42.7515799" lon="11.702474"><ele>672.0</ele><time>2026-04-11T12:29:18.411Z</time></trkpt><trkpt lat="42.7516316" lon="11.7026924"><ele>673.0</ele><time>2026-04-11T12:29:19.402Z</time></trkpt><trkpt lat="42.7516846" lon="11.70295"><ele>674.6666666666667</ele><time>2026-04-11T12:29:20.416Z</time></trkpt><trkpt lat="42.7517358" lon="11.7031971"><ele>676.3333333333334</ele><time>2026-04-11T12:29:21.403Z</time></trkpt><trkpt lat="42.7517985" lon="11.7034733"><ele>678.0</ele><time>2026-04-11T12:29:22.41Z</time></trkpt><trkpt lat="42.7518696" lon="11.7037049"><ele>675.3333333333334</ele><time>2026-04-11T12:29:23.405Z</time></trkpt><trkpt lat="42.7518946" lon="11.7039123"><ele>672.6666666666667</ele><time>2026-04-11T12:29:24.408Z</time></trkpt><trkpt lat="42.7519059" lon="11.7041545"><ele>670.0</ele><time>2026-04-11T12:29:25.405Z</time></trkpt><trkpt lat="42.7519578" lon="11.7043408"><ele>673.0</ele><time>2026-04-11T12:29:26.41Z</time></trkpt><trkpt lat="42.7520223" lon="11.704525"><ele>676.0</ele><time>2026-04-11T12:29:27.408Z</time></trkpt><trkpt lat="42.7521183" lon="11.7046982"><ele>679.0</ele><time>2026-04-11T12:29:28.409Z</time></trkpt><trkpt lat="42.7522385" lon="11.7048668"><ele>679.0</ele><time>2026-04-11T12:29:29.411Z</time></trkpt><trkpt lat="42.7523388" lon="11.7050756"><ele>679.0</ele><time>2026-04-11T12:29:30.406Z</time></trkpt><trkpt lat="42.7524382" lon="11.7052517"><ele>679.0</ele><time>2026-04-11T12:29:31.409Z</time></trkpt><trkpt lat="42.7525553" lon="11.7053926"><ele>680.5</ele><time>2026-04-11T12:29:32.408Z</time></trkpt><trkpt lat="42.7526292" lon="11.7055574"><ele>682.0</ele><time>2026-04-11T12:29:33.408Z</time></trkpt><trkpt lat="42.7526848" lon="11.7057298"><ele>683.5</ele><time>2026-04-11T12:29:34.396Z</time></trkpt><trkpt lat="42.7526967" lon="11.7059016"><ele>685.0</ele><time>2026-04-11T12:29:35.394Z</time></trkpt><trkpt lat="42.7526525" lon="11.7060603"><ele>684.5</ele><time>2026-04-11T12:29:36.399Z</time></trkpt><trkpt lat="42.7525732" lon="11.706225"><ele>684.0</ele><time>2026-04-11T12:29:37.408Z</time></trkpt><trkpt lat="42.7524807" lon="11.7064252"><ele>683.5</ele><time>2026-04-11T12:29:38.406Z</time></trkpt><trkpt lat="42.7524438" lon="11.7065927"><ele>683.0</ele><time>2026-04-11T12:29:39.4Z</time></trkpt><trkpt lat="42.7524109" lon="11.7068081"><ele>682.75</ele><time>2026-04-11T12:29:40.413Z</time></trkpt><trkpt lat="42.7523643" lon="11.707009"><ele>682.5</ele><time>2026-04-11T12:29:41.408Z</time></trkpt><trkpt lat="42.752297" lon="11.7071561"><ele>682.25</ele><time>2026-04-11T12:29:42.407Z</time></trkpt><trkpt lat="42.752181" lon="11.7072122"><ele>682.0</ele><time>2026-04-11T12:29:43.404Z</time></trkpt><trkpt lat="42.7520584" lon="11.7072157"><ele>682.0</ele><time>2026-04-11T12:29:44.398Z</time></trkpt><trkpt lat="42.7519571" lon="11.7072322"><ele>682.0</ele><time>2026-04-11T12:29:45.386Z</time></trkpt><trkpt lat="42.7518198" lon="11.7071536"><ele>682.0</ele><time>2026-04-11T12:29:46.395Z</time></trkpt><trkpt lat="42.751672" lon="11.7071281"><ele>682.0</ele><time>2026-04-11T12:29:47.39Z</time></trkpt><trkpt lat="42.7515362" lon="11.7070845"><ele>680.3333333333334</ele><time>2026-04-11T12:29:48.395Z</time></trkpt><trkpt lat="42.7513677" lon="11.7070757"><ele>678.6666666666666</ele><time>2026-04-11T12:29:49.405Z</time></trkpt><trkpt lat="42.7512038" lon="11.7070459"><ele>677.0</ele><time>2026-04-11T12:29:50.41Z</time></trkpt><trkpt lat="42.7510307" lon="11.70701"><ele>676.0</ele><time>2026-04-11T12:29:51.416Z</time></trkpt><trkpt lat="42.7508479" lon="11.706951"><ele>675.0</ele><time>2026-04-11T12:29:52.409Z</time></trkpt><trkpt lat="42.7506793" lon="11.7068666"><ele>674.0</ele><time>2026-04-11T12:29:53.413Z</time></trkpt><trkpt lat="42.7505268" lon="11.7067203"><ele>675.3333333333333</ele><time>2026-04-11T12:29:54.413Z</time></trkpt><trkpt lat="42.7504018" lon="11.7065269"><ele>676.6666666666666</ele><time>2026-04-11T12:29:55.42Z</time></trkpt><trkpt lat="42.7502622" lon="11.7063531"><ele>678.0</ele><time>2026-04-11T12:29:56.413Z</time></trkpt><trkpt lat="42.7501474" lon="11.7061641"><ele>680.0</ele><time>2026-04-11T12:29:57.418Z</time></trkpt><trkpt lat="42.7500465" lon="11.7059935"><ele>682.0</ele><time>2026-04-11T12:29:58.42Z</time></trkpt><trkpt lat="42.7499273" lon="11.7058343"><ele>684.0</ele><time>2026-04-11T12:29:59.418Z</time></trkpt><trkpt lat="42.749775" lon="11.7056909"><ele>684.0</ele><time>2026-04-11T12:30:00.422Z</time></trkpt><trkpt lat="42.7496505" lon="11.7055445"><ele>684.0</ele><time>2026-04-11T12:30:01.426Z</time></trkpt><trkpt lat="42.7495083" lon="11.705403"><ele>684.0</ele><time>2026-04-11T12:30:02.427Z</time></trkpt><trkpt lat="42.7493711" lon="11.7052559"><ele>683.3333333333334</ele><time>2026-04-11T12:30:03.424Z</time></trkpt><trkpt lat="42.7492253" lon="11.7051468"><ele>682.6666666666667</ele><time>2026-04-11T12:30:04.417Z</time></trkpt><trkpt lat="42.7490996" lon="11.7050203"><ele>682.0</ele><time>2026-04-11T12:30:05.416Z</time></trkpt><trkpt lat="42.7489881" lon="11.7048717"><ele>682.0</ele><time>2026-04-11T12:30:06.41Z</time></trkpt><trkpt lat="42.7488604" lon="11.7047351"><ele>682.0</ele><time>2026-04-11T12:30:07.402Z</time></trkpt><trkpt lat="42.7487053" lon="11.7046327"><ele>682.0</ele><time>2026-04-11T12:30:08.404Z</time></trkpt><trkpt lat="42.7485712" lon="11.7045147"><ele>680.75</ele><time>2026-04-11T12:30:09.415Z</time></trkpt><trkpt lat="42.7484366" lon="11.7046151"><ele>679.5</ele><time>2026-04-11T12:30:10.4Z</time></trkpt><trkpt lat="42.7483569" lon="11.7047016"><ele>678.25</ele><time>2026-04-11T12:30:11.385Z</time></trkpt><trkpt lat="42.7482619" lon="11.704846"><ele>677.0</ele><time>2026-04-11T12:30:12.383Z</time></trkpt><trkpt lat="42.7481232" lon="11.705033"><ele>677.0</ele><time>2026-04-11T12:30:13.399Z</time></trkpt><trkpt lat="42.7479798" lon="11.7052146"><ele>677.0</ele><time>2026-04-11T12:30:14.397Z</time></trkpt><trkpt lat="42.7478565" lon="11.7053825"><ele>677.0</ele><time>2026-04-11T12:30:15.416Z</time></trkpt><trkpt lat="42.7477445" lon="11.7055304"><ele>675.0</ele><time>2026-04-11T12:30:16.399Z</time></trkpt><trkpt lat="42.7476615" lon="11.7056922"><ele>673.0</ele><time>2026-04-11T12:30:17.394Z</time></trkpt><trkpt lat="42.7475771" lon="11.7059276"><ele>671.0</ele><time>2026-04-11T12:30:18.398Z</time></trkpt><trkpt lat="42.7475335" lon="11.7061139"><ele>668.3333333333333</ele><time>2026-04-11T12:30:19.393Z</time></trkpt><trkpt lat="42.747487" lon="11.7063594"><ele>665.6666666666666</ele><time>2026-04-11T12:30:20.409Z</time></trkpt><trkpt lat="42.7474277" lon="11.706575"><ele>663.0</ele><time>2026-04-11T12:30:21.41Z</time></trkpt><trkpt lat="42.7473786" lon="11.7067027"><ele>663.0</ele><time>2026-04-11T12:30:22.417Z</time></trkpt><trkpt lat="42.7473195" lon="11.7068148"><ele>663.0</ele><time>2026-04-11T12:30:23.411Z</time></trkpt><trkpt lat="42.7472177" lon="11.7069763"><ele>663.0</ele><time>2026-04-11T12:30:24.396Z</time></trkpt><trkpt lat="42.747096" lon="11.7070301"><ele>663.0</ele><time>2026-04-11T12:30:25.403Z</time></trkpt><trkpt lat="42.7469993" lon="11.7069855"><ele>663.0</ele><time>2026-04-11T12:30:26.398Z</time></trkpt><trkpt lat="42.7468809" lon="11.706867"><ele>663.0</ele><time>2026-04-11T12:30:27.405Z</time></trkpt><trkpt lat="42.7467636" lon="11.7067369"><ele>663.0</ele><time>2026-04-11T12:30:28.407Z</time></trkpt><trkpt lat="42.7466594" lon="11.7065325"><ele>662.3333333333334</ele><time>2026-04-11T12:30:29.411Z</time></trkpt><trkpt lat="42.74652" lon="11.706358"><ele>661.6666666666667</ele><time>2026-04-11T12:30:30.414Z</time></trkpt><trkpt lat="42.7464326" lon="11.7061786"><ele>661.0</ele><time>2026-04-11T12:30:31.416Z</time></trkpt><trkpt lat="42.7463685" lon="11.7059988"><ele>661.5</ele><time>2026-04-11T12:30:32.42Z</time></trkpt><trkpt lat="42.7462969" lon="11.7058257"><ele>662.0</ele><time>2026-04-11T12:30:33.418Z</time></trkpt><trkpt lat="42.7462122" lon="11.7057063"><ele>662.5</ele><time>2026-04-11T12:30:34.412Z</time></trkpt><trkpt lat="42.7461353" lon="11.7056246"><ele>663.0</ele><time>2026-04-11T12:30:35.418Z</time></trkpt><trkpt lat="42.7460409" lon="11.7054855"><ele>663.0</ele><time>2026-04-11T12:30:36.408Z</time></trkpt><trkpt lat="42.7459331" lon="11.7054121"><ele>663.0</ele><time>2026-04-11T12:30:37.401Z</time></trkpt><trkpt lat="42.7458408" lon="11.705429"><ele>663.0</ele><time>2026-04-11T12:30:38.392Z</time></trkpt><trkpt lat="42.7457681" lon="11.7055876"><ele>663.0</ele><time>2026-04-11T12:30:39.385Z</time></trkpt><trkpt lat="42.7456831" lon="11.7057157"><ele>663.0</ele><time>2026-04-11T12:30:40.386Z</time></trkpt><trkpt lat="42.7456443" lon="11.7058635"><ele>663.0</ele><time>2026-04-11T12:30:41.388Z</time></trkpt><trkpt lat="42.745594" lon="11.7059908"><ele>663.0</ele><time>2026-04-11T12:30:42.389Z</time></trkpt><trkpt lat="42.7455631" lon="11.7061398"><ele>663.0</ele><time>2026-04-11T12:30:43.393Z</time></trkpt><trkpt lat="42.7455514" lon="11.7063099"><ele>662.75</ele><time>2026-04-11T12:30:44.393Z</time></trkpt><trkpt lat="42.7455664" lon="11.7064705"><ele>662.5</ele><time>2026-04-11T12:30:45.407Z</time></trkpt><trkpt lat="42.7455701" lon="11.7066268"><ele>662.25</ele><time>2026-04-11T12:30:46.398Z</time></trkpt><trkpt lat="42.7455799" lon="11.7067875"><ele>662.0</ele><time>2026-04-11T12:30:47.405Z</time></trkpt><trkpt lat="42.7455822" lon="11.7069375"><ele>662.0</ele><time>2026-04-11T12:30:48.398Z</time></trkpt><trkpt lat="42.7455864" lon="11.7070808"><ele>662.0</ele><time>2026-04-11T12:30:49.398Z</time></trkpt><trkpt lat="42.7455985" lon="11.7072386"><ele>662.0</ele><time>2026-04-11T12:30:50.396Z</time></trkpt><trkpt lat="42.7456284" lon="11.7073723"><ele>662.0</ele><time>2026-04-11T12:30:51.391Z</time></trkpt><trkpt lat="42.7456565" lon="11.7074644"><ele>662.0</ele><time>2026-04-11T12:30:52.402Z</time></trkpt><trkpt lat="42.7456543" lon="11.7075549"><ele>662.0</ele><time>2026-04-11T12:30:53.41Z</time></trkpt><trkpt lat="42.7456444" lon="11.7076562"><ele>662.0</ele><time>2026-04-11T12:30:54.397Z</time></trkpt><trkpt lat="42.745633" lon="11.7077673"><ele>662.0</ele><time>2026-04-11T12:30:55.4Z</time></trkpt><trkpt lat="42.745598" lon="11.7078739"><ele>662.0</ele><time>2026-04-11T12:30:56.388Z</time></trkpt><trkpt lat="42.7455722" lon="11.7079955"><ele>662.0</ele><time>2026-04-11T12:30:57.393Z</time></trkpt><trkpt lat="42.7455563" lon="11.7081333"><ele>662.0</ele><time>2026-04-11T12:30:58.381Z</time></trkpt><trkpt lat="42.7455507" lon="11.7082794"><ele>661.2</ele><time>2026-04-11T12:30:59.381Z</time></trkpt><trkpt lat="42.7455458" lon="11.708427"><ele>660.4000000000001</ele><time>2026-04-11T12:31:00.376Z</time></trkpt><trkpt lat="42.7455373" lon="11.7085548"><ele>659.5999999999999</ele><time>2026-04-11T12:31:01.39Z</time></trkpt><trkpt lat="42.7455373" lon="11.708673"><ele>658.8</ele><time>2026-04-11T12:31:02.404Z</time></trkpt><trkpt lat="42.7455262" lon="11.708792"><ele>658.0</ele><time>2026-04-11T12:31:03.404Z</time></trkpt><trkpt lat="42.7455307" lon="11.7089231"><ele>657.4</ele><time>2026-04-11T12:31:04.399Z</time></trkpt><trkpt lat="42.7455493" lon="11.7090309"><ele>656.8</ele><time>2026-04-11T12:31:05.402Z</time></trkpt><trkpt lat="42.7455815" lon="11.7091383"><ele>656.2</ele><time>2026-04-11T12:31:06.398Z</time></trkpt><trkpt lat="42.7456131" lon="11.7092579"><ele>655.6</ele><time>2026-04-11T12:31:07.398Z</time></trkpt><trkpt lat="42.745665" lon="11.7093902"><ele>655.0</ele><time>2026-04-11T12:31:08.402Z</time></trkpt><trkpt lat="42.7457244" lon="11.7095286"><ele>655.0</ele><time>2026-04-11T12:31:09.405Z</time></trkpt><trkpt lat="42.7457827" lon="11.7096855"><ele>655.0</ele><time>2026-04-11T12:31:10.409Z</time></trkpt><trkpt lat="42.7458382" lon="11.7098349"><ele>655.0</ele><time>2026-04-11T12:31:11.412Z</time></trkpt><trkpt lat="42.7458763" lon="11.7099742"><ele>655.0</ele><time>2026-04-11T12:31:12.409Z</time></trkpt><trkpt lat="42.7459146" lon="11.7101029"><ele>655.0</ele><time>2026-04-11T12:31:13.405Z</time></trkpt><trkpt lat="42.7459429" lon="11.7102313"><ele>655.0</ele><time>2026-04-11T12:31:14.405Z</time></trkpt><trkpt lat="42.7459959" lon="11.7103472"><ele>655.0</ele><time>2026-04-11T12:31:15.401Z</time></trkpt><trkpt lat="42.7460595" lon="11.7104696"><ele>655.0</ele><time>2026-04-11T12:31:16.41Z</time></trkpt><trkpt lat="42.7604099" lon="11.699221"><ele>665.75</ele><time>2026-04-11T12:27:16.424Z</time></trkpt><trkpt lat="42.7603058" lon="11.6992936"><ele>676.5</ele><time>2026-04-11T12:27:17.425Z</time></trkpt><trkpt lat="42.7602502" lon="11.6994695"><ele>687.25</ele><time>2026-04-11T12:27:18.414Z</time></trkpt><trkpt lat="42.7602378" lon="11.6995919"><ele>698.0</ele><time>2026-04-11T12:27:19.415Z</time></trkpt><trkpt lat="42.7602341" lon="11.6997556"><ele>698.0</ele><time>2026-04-11T12:27:20.414Z</time></trkpt><trkpt lat="42.7602651" lon="11.6999341"><ele>698.0</ele><time>2026-04-11T12:27:21.409Z</time></trkpt><trkpt lat="42.7602839" lon="11.7001175"><ele>698.0</ele><time>2026-04-11T12:27:22.407Z</time></trkpt><trkpt lat="42.7602905" lon="11.7003102"><ele>698.0</ele><time>2026-04-11T12:27:23.412Z</time></trkpt><trkpt lat="42.7602473" lon="11.7004655"><ele>694.3333333333333</ele><time>2026-04-11T12:27:24.413Z</time></trkpt><trkpt lat="42.7601596" lon="11.7006444"><ele>690.6666666666666</ele><time>2026-04-11T12:27:25.413Z</time></trkpt><trkpt lat="42.7600151" lon="11.7007905"><ele>687.0</ele><time>2026-04-11T12:27:26.405Z</time></trkpt><trkpt lat="42.7598946" lon="11.7009061"><ele>687.0</ele><time>2026-04-11T12:27:27.406Z</time></trkpt><trkpt lat="42.7597314" lon="11.7009378"><ele>687.0</ele><time>2026-04-11T12:27:28.399Z</time></trkpt><trkpt lat="42.7595927" lon="11.7009577"><ele>687.0</ele><time>2026-04-11T12:27:29.387Z</time></trkpt><trkpt lat="42.7594882" lon="11.7009394"><ele>687.0</ele><time>2026-04-11T12:27:30.395Z</time></trkpt><trkpt lat="42.759468" lon="11.7008147"><ele>687.0</ele><time>2026-04-11T12:27:31.405Z</time></trkpt><trkpt lat="42.7594364" lon="11.7006411"><ele>687.0</ele><time>2026-04-11T12:27:32.41Z</time></trkpt><trkpt lat="42.7594158" lon="11.7005542"><ele>687.0</ele><time>2026-04-11T12:27:33.406Z</time></trkpt><trkpt lat="42.7594575" lon="11.7004102"><ele>687.0</ele><time>2026-04-11T12:27:34.407Z</time></trkpt><trkpt lat="42.7594958" lon="11.7002507"><ele>687.0</ele><time>2026-04-11T12:27:35.404Z</time></trkpt><trkpt lat="42.7595228" lon="11.7000813"><ele>687.6666666666666</ele><time>2026-04-11T12:27:36.401Z</time></trkpt><trkpt lat="42.7595547" lon="11.6998948"><ele>688.3333333333333</ele><time>2026-04-11T12:27:37.405Z</time></trkpt><trkpt lat="42.7595652" lon="11.6997017"><ele>689.0</ele><time>2026-04-11T12:27:38.397Z</time></trkpt><trkpt lat="42.7595726" lon="11.6994669"><ele>689.5</ele><time>2026-04-11T12:27:39.405Z</time></trkpt><trkpt lat="42.7594883" lon="11.6992842"><ele>690.0</ele><time>2026-04-11T12:27:40.412Z</time></trkpt><trkpt lat="42.7594134" lon="11.6991412"><ele>690.5</ele><time>2026-04-11T12:27:41.404Z</time></trkpt><trkpt lat="42.7593256" lon="11.6990286"><ele>691.0</ele><time>2026-04-11T12:27:42.409Z</time></trkpt><trkpt lat="42.7592301" lon="11.6989677"><ele>687.25</ele><time>2026-04-11T12:27:43.406Z</time></trkpt><trkpt lat="42.7591237" lon="11.6988982"><ele>683.5</ele><time>2026-04-11T12:27:44.399Z</time></trkpt><trkpt lat="42.7590018" lon="11.6988442"><ele>679.75</ele><time>2026-04-11T12:27:45.404Z</time></trkpt><trkpt lat="42.7588832" lon="11.6987401"><ele>676.0</ele><time>2026-04-11T12:27:46.402Z</time></trkpt><trkpt lat="42.7587589" lon="11.6986965"><ele>676.0</ele><time>2026-04-11T12:27:47.41Z</time></trkpt><trkpt lat="42.758621" lon="11.6987076"><ele>676.0</ele><time>2026-04-11T12:27:48.41Z</time></trkpt><trkpt lat="42.7585134" lon="11.6987748"><ele>676.0</ele><time>2026-04-11T12:27:49.394Z</time></trkpt><trkpt lat="42.7583854" lon="11.6988589"><ele>676.0</ele><time>2026-04-11T12:27:50.389Z</time></trkpt><trkpt lat="42.7582982" lon="11.6989817"><ele>674.3333333333334</ele><time>2026-04-11T12:27:51.391Z</time></trkpt><trkpt lat="42.7581551" lon="11.6991515"><ele>672.6666666666666</ele><time>2026-04-11T12:27:52.403Z</time></trkpt><trkpt lat="42.7580127" lon="11.6992754"><ele>671.0</ele><time>2026-04-11T12:27:53.403Z</time></trkpt><trkpt lat="42.7578519" lon="11.6993928"><ele>670.3333333333333</ele><time>2026-04-11T12:27:54.399Z</time></trkpt><trkpt lat="42.7577057" lon="11.6994572"><ele>669.6666666666666</ele><time>2026-04-11T12:27:55.403Z</time></trkpt><trkpt lat="42.757545" lon="11.699387"><ele>669.0</ele><time>2026-04-11T12:27:56.398Z</time></trkpt><trkpt lat="42.7573695" lon="11.6993563"><ele>669.0</ele><time>2026-04-11T12:27:57.411Z</time></trkpt><trkpt lat="42.7572312" lon="11.6993501"><ele>669.0</ele><time>2026-04-11T12:27:58.405Z</time></trkpt><trkpt lat="42.7571248" lon="11.6994002"><ele>669.0</ele><time>2026-04-11T12:27:59.401Z</time></trkpt><trkpt lat="42.7569667" lon="11.699506"><ele>669.0</ele><time>2026-04-11T12:28:00.41Z</time></trkpt><trkpt lat="42.7568262" lon="11.6995523"><ele>665.3333333333334</ele><time>2026-04-11T12:28:01.416Z</time></trkpt><trkpt lat="42.7566823" lon="11.6995881"><ele>661.6666666666667</ele><time>2026-04-11T12:28:02.418Z</time></trkpt><trkpt lat="42.7565166" lon="11.6996288"><ele>658.0</ele><time>2026-04-11T12:28:03.412Z</time></trkpt><trkpt lat="42.7563417" lon="11.699577"><ele>658.0</ele><time>2026-04-11T12:28:04.416Z</time></trkpt><trkpt lat="42.7561821" lon="11.6994915"><ele>658.0</ele><time>2026-04-11T12:28:05.413Z</time></trkpt><trkpt lat="42.7560507" lon="11.699408"><ele>658.0</ele><time>2026-04-11T12:28:06.417Z</time></trkpt><trkpt lat="42.7559374" lon="11.6993099"><ele>657.0</ele><time>2026-04-11T12:28:07.408Z</time></trkpt><trkpt lat="42.7558547" lon="11.6991245"><ele>656.0</ele><time>2026-04-11T12:28:08.421Z</time></trkpt><trkpt lat="42.7557794" lon="11.6989256"><ele>655.0</ele><time>2026-04-11T12:28:09.428Z</time></trkpt><trkpt lat="42.7556543" lon="11.6988148"><ele>655.0</ele><time>2026-04-11T12:28:10.414Z</time></trkpt><trkpt lat="42.7555281" lon="11.6987014"><ele>655.0</ele><time>2026-04-11T12:28:11.433Z</time></trkpt><trkpt lat="42.7554465" lon="11.6985816"><ele>655.0</ele><time>2026-04-11T12:28:12.422Z</time></trkpt><trkpt lat="42.7553245" lon="11.698463"><ele>655.0</ele><time>2026-04-11T12:28:13.42Z</time></trkpt><trkpt lat="42.7552358" lon="11.6983163"><ele>655.25</ele><time>2026-04-11T12:28:14.412Z</time></trkpt><trkpt lat="42.7551685" lon="11.698172"><ele>655.5</ele><time>2026-04-11T12:28:15.419Z</time></trkpt><trkpt lat="42.7551173" lon="11.698019"><ele>655.75</ele><time>2026-04-11T12:28:16.411Z</time></trkpt><trkpt lat="42.7551048" lon="11.6978001"><ele>656.0</ele><time>2026-04-11T12:28:17.415Z</time></trkpt><trkpt lat="42.7550771" lon="11.6976051"><ele>656.0</ele><time>2026-04-11T12:28:18.418Z</time></trkpt><trkpt lat="42.7550263" lon="11.6974031"><ele>656.0</ele><time>2026-04-11T12:28:19.407Z</time></trkpt><trkpt lat="42.7549401" lon="11.6972679"><ele>656.0</ele><time>2026-04-11T12:28:20.422Z</time></trkpt><trkpt lat="42.7548034" lon="11.6971557"><ele>656.0</ele><time>2026-04-11T12:28:21.422Z</time></trkpt><trkpt lat="42.754657" lon="11.6970551"><ele>656.0</ele><time>2026-04-11T12:28:22.412Z</time></trkpt><trkpt lat="42.7545283" lon="11.6969237"><ele>656.0</ele><time>2026-04-11T12:28:23.414Z</time></trkpt><trkpt lat="42.754399" lon="11.6968318"><ele>656.0</ele><time>2026-04-11T12:28:24.407Z</time></trkpt><trkpt lat="42.7542344" lon="11.6967628"><ele>657.6666666666666</ele><time>2026-04-11T12:28:25.404Z</time></trkpt><trkpt lat="42.7540952" lon="11.6967892"><ele>659.3333333333334</ele><time>2026-04-11T12:28:26.399Z</time></trkpt><trkpt lat="42.7539355" lon="11.6967885"><ele>661.0</ele><time>2026-04-11T12:28:27.398Z</time></trkpt><trkpt lat="42.7537804" lon="11.6967607"><ele>661.0</ele><time>2026-04-11T12:28:28.394Z</time></trkpt><trkpt lat="42.753656" lon="11.6966093"><ele>661.0</ele><time>2026-04-11T12:28:29.395Z</time></trkpt><trkpt lat="42.7535288" lon="11.6964318"><ele>661.0</ele><time>2026-04-11T12:28:30.395Z</time></trkpt><trkpt lat="42.7534363" lon="11.6962615"><ele>661.6666666666667</ele><time>2026-04-11T12:28:31.406Z</time></trkpt><trkpt lat="42.7533212" lon="11.696099"><ele>662.3333333333334</ele><time>2026-04-11T12:28:32.403Z</time></trkpt><trkpt lat="42.7531943" lon="11.6959515"><ele>663.0</ele><time>2026-04-11T12:28:33.4Z</time></trkpt><trkpt lat="42.7530823" lon="11.695896"><ele>663.0</ele><time>2026-04-11T12:28:34.4Z</time></trkpt><trkpt lat="42.7529542" lon="11.6958821"><ele>663.0</ele><time>2026-04-11T12:28:35.391Z</time></trkpt><trkpt lat="42.7527872" lon="11.6959007"><ele>663.0</ele><time>2026-04-11T12:28:36.397Z</time></trkpt><trkpt lat="42.7526281" lon="11.6959723"><ele>662.5</ele><time>2026-04-11T12:28:37.394Z</time></trkpt><trkpt lat="42.7525246" lon="11.6959838"><ele>662.0</ele><time>2026-04-11T12:28:38.395Z</time></trkpt><trkpt lat="42.7523763" lon="11.696059"><ele>661.5</ele><time>2026-04-11T12:28:39.397Z</time></trkpt><trkpt lat="42.7522637" lon="11.6961912"><ele>661.0</ele><time>2026-04-11T12:28:40.393Z</time></trkpt><trkpt lat="42.7522065" lon="11.6963205"><ele>659.6666666666667</ele><time>2026-04-11T12:28:41.395Z</time></trkpt><trkpt lat="42.7521612" lon="11.6965466"><ele>658.3333333333334</ele><time>2026-04-11T12:28:42.4Z</time></trkpt><trkpt lat="42.7521981" lon="11.6967292"><ele>657.0</ele><time>2026-04-11T12:28:43.396Z</time></trkpt><trkpt lat="42.7522476" lon="11.6969201"><ele>657.0</ele><time>2026-04-11T12:28:44.4Z</time></trkpt><trkpt lat="42.7522324" lon="11.697176"><ele>657.0</ele><time>2026-04-11T12:28:45.406Z</time></trkpt><trkpt lat="42.7521917" lon="11.697389"><ele>657.0</ele><time>2026-04-11T12:28:46.402Z</time></trkpt><trkpt lat="42.7521443" lon="11.6976166"><ele>657.3333333333334</ele><time>2026-04-11T12:28:47.399Z</time></trkpt><trkpt lat="42.7520207" lon="11.6977815"><ele>657.6666666666667</ele><time>2026-04-11T12:28:48.399Z</time></trkpt><trkpt lat="42.7518927" lon="11.6978852"><ele>658.0</ele><time>2026-04-11T12:28:49.409Z</time></trkpt><trkpt lat="42.7517517" lon="11.6979607"><ele>660.75</ele><time>2026-04-11T12:28:50.398Z</time></trkpt><trkpt lat="42.7516525" lon="11.698066"><ele>663.5</ele><time>2026-04-11T12:28:51.393Z</time></trkpt><trkpt lat="42.7516204" lon="11.6982134"><ele>666.25</ele><time>2026-04-11T12:28:52.388Z</time></trkpt><trkpt lat="42.7516156" lon="11.6983223"><ele>669.0</ele><time>2026-04-11T12:28:53.385Z</time></trkpt><trkpt lat="42.7517022" lon="11.6984798"><ele>670.3333333333334</ele><time>2026-04-11T12:28:55.395Z</time></trkpt><trkpt lat="42.751809" lon="11.6986014"><ele>671.6666666666667</ele><time>2026-04-11T12:28:56.4Z</time></trkpt><trkpt lat="42.7519601" lon="11.6987459"><ele>673.0</ele><time>2026-04-11T12:28:57.403Z</time></trkpt><trkpt lat="42.7520707" lon="11.6988906"><ele>669.5</ele><time>2026-04-11T12:28:58.404Z</time></trkpt><trkpt lat="42.7521169" lon="11.6990717"><ele>666.0</ele><time>2026-04-11T12:28:59.405Z</time></trkpt><trkpt lat="42.7521476" lon="11.6992513"><ele>662.5</ele><time>2026-04-11T12:29:00.403Z</time></trkpt><trkpt lat="42.7521845" lon="11.6994015"><ele>659.0</ele><time>2026-04-11T12:29:01.403Z</time></trkpt><trkpt lat="42.7521841" lon="11.6995489"><ele>658.6666666666666</ele><time>2026-04-11T12:29:02.415Z</time></trkpt><trkpt lat="42.7521515" lon="11.6997184"><ele>658.3333333333334</ele><time>2026-04-11T12:29:03.398Z</time></trkpt><trkpt lat="42.7520579" lon="11.6998806"><ele>658.0</ele><time>2026-04-11T12:29:04.406Z</time></trkpt><trkpt lat="42.7519305" lon="11.700048"><ele>661.3333333333334</ele><time>2026-04-11T12:29:05.403Z</time></trkpt><trkpt lat="42.7517949" lon="11.7001953"><ele>664.6666666666666</ele><time>2026-04-11T12:29:06.402Z</time></trkpt><trkpt lat="42.7516027" lon="11.700326"><ele>668.0</ele><time>2026-04-11T12:29:07.401Z</time></trkpt><trkpt lat="42.7514734" lon="11.7004795"><ele>668.0</ele><time>2026-04-11T12:29:08.394Z</time></trkpt><trkpt lat="42.7513352" lon="11.7006599"><ele>668.0</ele><time>2026-04-11T12:29:09.384Z</time></trkpt><trkpt lat="42.7512626" lon="11.7008131"><ele>668.0</ele><time>2026-04-11T12:29:10.387Z</time></trkpt><trkpt lat="42.7512546" lon="11.7010132"><ele>668.6666666666666</ele><time>2026-04-11T12:29:11.381Z</time></trkpt><trkpt lat="42.7512766" lon="11.7012025"><ele>669.3333333333334</ele><time>2026-04-11T12:29:12.386Z</time></trkpt><trkpt lat="42.7513559" lon="11.7013918"><ele>670.0</ele><time>2026-04-11T12:29:13.406Z</time></trkpt><trkpt lat="42.7514465" lon="11.7016099"><ele>670.0</ele><time>2026-04-11T12:29:14.396Z</time></trkpt><trkpt lat="42.7515474" lon="11.7018127"><ele>670.0</ele><time>2026-04-11T12:29:15.391Z</time></trkpt><trkpt lat="42.7515921" lon="11.7020068"><ele>670.0</ele><time>2026-04-11T12:29:16.398Z</time></trkpt><trkpt lat="42.7515709" lon="11.7022339"><ele>671.0</ele><time>2026-04-11T12:29:17.413Z</time></trkpt><trkpt lat="42.7515799" lon="11.702474"><ele>672.0</ele><time>2026-04-11T12:29:18.411Z</time></trkpt><trkpt lat="42.7516316" lon="11.7026924"><ele>673.0</ele><time>2026-04-11T12:29:19.402Z</time></trkpt><trkpt lat="42.7516846" lon="11.70295"><ele>674.6666666666667</ele><time>2026-04-11T12:29:20.416Z</time></trkpt><trkpt lat="42.7517358" lon="11.7031971"><ele>676.3333333333334</ele><time>2026-04-11T12:29:21.403Z</time></trkpt><trkpt lat="42.7517985" lon="11.7034733"><ele>678.0</ele><time>2026-04-11T12:29:22.41Z</time></trkpt><trkpt lat="42.7518696" lon="11.7037049"><ele>675.3333333333334</ele><time>2026-04-11T12:29:23.405Z</time></trkpt><trkpt lat="42.7518946" lon="11.7039123"><ele>672.6666666666667</ele><time>2026-04-11T12:29:24.408Z</time></trkpt><trkpt lat="42.7519059" lon="11.7041545"><ele>670.0</ele><time>2026-04-11T12:29:25.405Z</time></trkpt><trkpt lat="42.7519578" lon="11.7043408"><ele>673.0</ele><time>2026-04-11T12:29:26.41Z</time></trkpt><trkpt lat="42.7520223" lon="11.704525"><ele>676.0</ele><time>2026-04-11T12:29:27.408Z</time></trkpt><trkpt lat="42.7521183" lon="11.7046982"><ele>679.0</ele><time>2026-04-11T12:29:28.409Z</time></trkpt><trkpt lat="42.7522385" lon="11.7048668"><ele>679.0</ele><time>2026-04-11T12:29:29.411Z</time></trkpt><trkpt lat="42.7523388" lon="11.7050756"><ele>679.0</ele><time>2026-04-11T12:29:30.406Z</time></trkpt><trkpt lat="42.7524382" lon="11.7052517"><ele>679.0</ele><time>2026-04-11T12:29:31.409Z</time></trkpt><trkpt lat="42.7525553" lon="11.7053926"><ele>680.5</ele><time>2026-04-11T12:29:32.408Z</time></trkpt><trkpt lat="42.7526292" lon="11.7055574"><ele>682.0</ele><time>2026-04-11T12:29:33.408Z</time></trkpt><trkpt lat="42.7526848" lon="11.7057298"><ele>683.5</ele><time>2026-04-11T12:29:34.396Z</time></trkpt><trkpt lat="42.7526967" lon="11.7059016"><ele>685.0</ele><time>2026-04-11T12:29:35.394Z</time></trkpt><trkpt lat="42.7526525" lon="11.7060603"><ele>684.5</ele><time>2026-04-11T12:29:36.399Z</time></trkpt><trkpt lat="42.7525732" lon="11.706225"><ele>684.0</ele><time>2026-04-11T12:29:37.408Z</time></trkpt><trkpt lat="42.7524807" lon="11.7064252"><ele>683.5</ele><time>2026-04-11T12:29:38.406Z</time></trkpt><trkpt lat="42.7524438" lon="11.7065927"><ele>683.0</ele><time>2026-04-11T12:29:39.4Z</time></trkpt><trkpt lat="42.7524109" lon="11.7068081"><ele>682.75</ele><time>2026-04-11T12:29:40.413Z</time></trkpt><trkpt lat="42.7523643" lon="11.707009"><ele>682.5</ele><time>2026-04-11T12:29:41.408Z</time></trkpt><trkpt lat="42.752297" lon="11.7071561"><ele>682.25</ele><time>2026-04-11T12:29:42.407Z</time></trkpt><trkpt lat="42.752181" lon="11.7072122"><ele>682.0</ele><time>2026-04-11T12:29:43.404Z</time></trkpt><trkpt lat="42.7520584" lon="11.7072157"><ele>682.0</ele><time>2026-04-11T12:29:44.398Z</time></trkpt><trkpt lat="42.7519571" lon="11.7072322"><ele>682.0</ele><time>2026-04-11T12:29:45.386Z</time></trkpt><trkpt lat="42.7518198" lon="11.7071536"><ele>682.0</ele><time>2026-04-11T12:29:46.395Z</time></trkpt><trkpt lat="42.751672" lon="11.7071281"><ele>682.0</ele><time>2026-04-11T12:29:47.39Z</time></trkpt><trkpt lat="42.7515362" lon="11.7070845"><ele>680.3333333333334</ele><time>2026-04-11T12:29:48.395Z</time></trkpt><trkpt lat="42.7513677" lon="11.7070757"><ele>678.6666666666666</ele><time>2026-04-11T12:29:49.405Z</time></trkpt><trkpt lat="42.7512038" lon="11.7070459"><ele>677.0</ele><time>2026-04-11T12:29:50.41Z</time></trkpt><trkpt lat="42.7510307" lon="11.70701"><ele>676.0</ele><time>2026-04-11T12:29:51.416Z</time></trkpt><trkpt lat="42.7508479" lon="11.706951"><ele>675.0</ele><time>2026-04-11T12:29:52.409Z</time></trkpt><trkpt lat="42.7506793" lon="11.7068666"><ele>674.0</ele><time>2026-04-11T12:29:53.413Z</time></trkpt><trkpt lat="42.7505268" lon="11.7067203"><ele>675.3333333333333</ele><time>2026-04-11T12:29:54.413Z</time></trkpt><trkpt lat="42.7504018" lon="11.7065269"><ele>676.6666666666666</ele><time>2026-04-11T12:29:55.42Z</time></trkpt><trkpt lat="42.7502622" lon="11.7063531"><ele>678.0</ele><time>2026-04-11T12:29:56.413Z</time></trkpt><trkpt lat="42.7501474" lon="11.7061641"><ele>680.0</ele><time>2026-04-11T12:29:57.418Z</time></trkpt><trkpt lat="42.7500465" lon="11.7059935"><ele>682.0</ele><time>2026-04-11T12:29:58.42Z</time></trkpt><trkpt lat="42.7499273" lon="11.7058343"><ele>684.0</ele><time>2026-04-11T12:29:59.418Z</time></trkpt><trkpt lat="42.749775" lon="11.7056909"><ele>684.0</ele><time>2026-04-11T12:30:00.422Z</time></trkpt><trkpt lat="42.7496505" lon="11.7055445"><ele>684.0</ele><time>2026-04-11T12:30:01.426Z</time></trkpt><trkpt lat="42.7495083" lon="11.705403"><ele>684.0</ele><time>2026-04-11T12:30:02.427Z</time></trkpt><trkpt lat="42.7493711" lon="11.7052559"><ele>683.3333333333334</ele><time>2026-04-11T12:30:03.424Z</time></trkpt><trkpt lat="42.7492253" lon="11.7051468"><ele>682.6666666666667</ele><time>2026-04-11T12:30:04.417Z</time></trkpt><trkpt lat="42.7490996" lon="11.7050203"><ele>682.0</ele><time>2026-04-11T12:30:05.416Z</time></trkpt><trkpt lat="42.7489881" lon="11.7048717"><ele>682.0</ele><time>2026-04-11T12:30:06.41Z</time></trkpt><trkpt lat="42.7488604" lon="11.7047351"><ele>682.0</ele><time>2026-04-11T12:30:07.402Z</time></trkpt><trkpt lat="42.7487053" lon="11.7046327"><ele>682.0</ele><time>2026-04-11T12:30:08.404Z</time></trkpt><trkpt lat="42.7485712" lon="11.7045147"><ele>680.75</ele><time>2026-04-11T12:30:09.415Z</time></trkpt><trkpt lat="42.7484366" lon="11.7046151"><ele>679.5</ele><time>2026-04-11T12:30:10.4Z</time></trkpt><trkpt lat="42.7483569" lon="11.7047016"><ele>678.25</ele><time>2026-04-11T12:30:11.385Z</time></trkpt><trkpt lat="42.7482619" lon="11.704846"><ele>677.0</ele><time>2026-04-11T12:30:12.383Z</time></trkpt><trkpt lat="42.7481232" lon="11.705033"><ele>677.0</ele><time>2026-04-11T12:30:13.399Z</time></trkpt><trkpt lat="42.7479798" lon="11.7052146"><ele>677.0</ele><time>2026-04-11T12:30:14.397Z</time></trkpt><trkpt lat="42.7478565" lon="11.7053825"><ele>677.0</ele><time>2026-04-11T12:30:15.416Z</time></trkpt><trkpt lat="42.7477445" lon="11.7055304"><ele>675.0</ele><time>2026-04-11T12:30:16.399Z</time></trkpt><trkpt lat="42.7476615" lon="11.7056922"><ele>673.0</ele><time>2026-04-11T12:30:17.394Z</time></trkpt><trkpt lat="42.7475771" lon="11.7059276"><ele>671.0</ele><time>2026-04-11T12:30:18.398Z</time></trkpt><trkpt lat="42.7475335" lon="11.7061139"><ele>668.3333333333333</ele><time>2026-04-11T12:30:19.393Z</time></trkpt><trkpt lat="42.747487" lon="11.7063594"><ele>665.6666666666666</ele><time>2026-04-11T12:30:20.409Z</time></trkpt><trkpt lat="42.7474277" lon="11.706575"><ele>663.0</ele><time>2026-04-11T12:30:21.41Z</time></trkpt><trkpt lat="42.7473786" lon="11.7067027"><ele>663.0</ele><time>2026-04-11T12:30:22.417Z</time></trkpt><trkpt lat="42.7473195" lon="11.7068148"><ele>663.0</ele><time>2026-04-11T12:30:23.411Z</time></trkpt><trkpt lat="42.7472177" lon="11.7069763"><ele>663.0</ele><time>2026-04-11T12:30:24.396Z</time></trkpt><trkpt lat="42.747096" lon="11.7070301"><ele>663.0</ele><time>2026-04-11T12:30:25.403Z</time></trkpt><trkpt lat="42.7469993" lon="11.7069855"><ele>663.0</ele><time>2026-04-11T12:30:26.398Z</time></trkpt><trkpt lat="42.7468809" lon="11.706867"><ele>663.0</ele><time>2026-04-11T12:30:27.405Z</time></trkpt><trkpt lat="42.7467636" lon="11.7067369"><ele>663.0</ele><time>2026-04-11T12:30:28.407Z</time></trkpt><trkpt lat="42.7466594" lon="11.7065325"><ele>662.3333333333334</ele><time>2026-04-11T12:30:29.411Z</time></trkpt><trkpt lat="42.74652" lon="11.706358"><ele>661.6666666666667</ele><time>2026-04-11T12:30:30.414Z</time></trkpt><trkpt lat="42.7464326" lon="11.7061786"><ele>661.0</ele><time>2026-04-11T12:30:31.416Z</time></trkpt><trkpt lat="42.7463685" lon="11.7059988"><ele>661.5</ele><time>2026-04-11T12:30:32.42Z</time></trkpt><trkpt lat="42.7462969" lon="11.7058257"><ele>662.0</ele><time>2026-04-11T12:30:33.418Z</time></trkpt><trkpt lat="42.7462122" lon="11.7057063"><ele>662.5</ele><time>2026-04-11T12:30:34.412Z</time></trkpt><trkpt lat="42.7461353" lon="11.7056246"><ele>663.0</ele><time>2026-04-11T12:30:35.418Z</time></trkpt><trkpt lat="42.7460409" lon="11.7054855"><ele>663.0</ele><time>2026-04-11T12:30:36.408Z</time></trkpt><trkpt lat="42.7459331" lon="11.7054121"><ele>663.0</ele><time>2026-04-11T12:30:37.401Z</time></trkpt><trkpt lat="42.7458408" lon="11.705429"><ele>663.0</ele><time>2026-04-11T12:30:38.392Z</time></trkpt><trkpt lat="42.7457681" lon="11.7055876"><ele>663.0</ele><time>2026-04-11T12:30:39.385Z</time></trkpt><trkpt lat="42.7456831" lon="11.7057157"><ele>663.0</ele><time>2026-04-11T12:30:40.386Z</time></trkpt><trkpt lat="42.7456443" lon="11.7058635"><ele>663.0</ele><time>2026-04-11T12:30:41.388Z</time></trkpt><trkpt lat="42.745594" lon="11.7059908"><ele>663.0</ele><time>2026-04-11T12:30:42.389Z</time></trkpt><trkpt lat="42.7455631" lon="11.7061398"><ele>663.0</ele><time>2026-04-11T12:30:43.393Z</time></trkpt><trkpt lat="42.7455514" lon="11.7063099"><ele>662.75</ele><time>2026-04-11T12:30:44.393Z</time></trkpt><trkpt lat="42.7455664" lon="11.7064705"><ele>662.5</ele><time>2026-04-11T12:30:45.407Z</time></trkpt><trkpt lat="42.7455701" lon="11.7066268"><ele>662.25</ele><time>2026-04-11T12:30:46.398Z</time></trkpt><trkpt lat="42.7455799" lon="11.7067875"><ele>662.0</ele><time>2026-04-11T12:30:47.405Z</time></trkpt><trkpt lat="42.7455822" lon="11.7069375"><ele>662.0</ele><time>2026-04-11T12:30:48.398Z</time></trkpt><trkpt lat="42.7455864" lon="11.7070808"><ele>662.0</ele><time>2026-04-11T12:30:49.398Z</time></trkpt><trkpt lat="42.7455985" lon="11.7072386"><ele>662.0</ele><time>2026-04-11T12:30:50.396Z</time></trkpt><trkpt lat="42.7456284" lon="11.7073723"><ele>662.0</ele><time>2026-04-11T12:30:51.391Z</time></trkpt><trkpt lat="42.7456565" lon="11.7074644"><ele>662.0</ele><time>2026-04-11T12:30:52.402Z</time></trkpt><trkpt lat="42.7456543" lon="11.7075549"><ele>662.0</ele><time>2026-04-11T12:30:53.41Z</time></trkpt><trkpt lat="42.7456444" lon="11.7076562"><ele>662.0</ele><time>2026-04-11T12:30:54.397Z</time></trkpt><trkpt lat="42.745633" lon="11.7077673"><ele>662.0</ele><time>2026-04-11T12:30:55.4Z</time></trkpt><trkpt lat="42.745598" lon="11.7078739"><ele>662.0</ele><time>2026-04-11T12:30:56.388Z</time></trkpt><trkpt lat="42.7455722" lon="11.7079955"><ele>662.0</ele><time>2026-04-11T12:30:57.393Z</time></trkpt><trkpt lat="42.7455563" lon="11.7081333"><ele>662.0</ele><time>2026-04-11T12:30:58.381Z</time></trkpt><trkpt lat="42.7455507" lon="11.7082794"><ele>661.2</ele><time>2026-04-11T12:30:59.381Z</time></trkpt><trkpt lat="42.7455458" lon="11.708427"><ele>660.4000000000001</ele><time>2026-04-11T12:31:00.376Z</time></trkpt><trkpt lat="42.7455373" lon="11.7085548"><ele>659.5999999999999</ele><time>2026-04-11T12:31:01.39Z</time></trkpt><trkpt lat="42.7455373" lon="11.708673"><ele>658.8</ele><time>2026-04-11T12:31:02.404Z</time></trkpt><trkpt lat="42.7455262" lon="11.708792"><ele>658.0</ele><time>2026-04-11T12:31:03.404Z</time></trkpt><trkpt lat="42.7455307" lon="11.7089231"><ele>657.4</ele><time>2026-04-11T12:31:04.399Z</time></trkpt><trkpt lat="42.7455493" lon="11.7090309"><ele>656.8</ele><time>2026-04-11T12:31:05.402Z</time></trkpt><trkpt lat="42.7455815" lon="11.7091383"><ele>656.2</ele><time>2026-04-11T12:31:06.398Z</time></trkpt><trkpt lat="42.7456131" lon="11.7092579"><ele>655.6</ele><time>2026-04-11T12:31:07.398Z</time></trkpt><trkpt lat="42.745665" lon="11.7093902"><ele>655.0</ele><time>2026-04-11T12:31:08.402Z</time></trkpt><trkpt lat="42.7457244" lon="11.7095286"><ele>655.0</ele><time>2026-04-11T12:31:09.405Z</time></trkpt><trkpt lat="42.7457827" lon="11.7096855"><ele>655.0</ele><time>2026-04-11T12:31:10.409Z</time></trkpt><trkpt lat="42.7458382" lon="11.7098349"><ele>655.0</ele><time>2026-04-11T12:31:11.412Z</time></trkpt><trkpt lat="42.7458763" lon="11.7099742"><ele>655.0</ele><time>2026-04-11T12:31:12.409Z</time></trkpt><trkpt lat="42.7459146" lon="11.7101029"><ele>655.0</ele><time>2026-04-11T12:31:13.405Z</time></trkpt><trkpt lat="42.7459429" lon="11.7102313"><ele>655.0</ele><time>2026-04-11T12:31:14.405Z</time></trkpt><trkpt lat="42.7459959" lon="11.7103472"><ele>655.0</ele><time>2026-04-11T12:31:15.401Z</time></trkpt><trkpt lat="42.7460595" lon="11.7104696"><ele>655.0</ele><time>2026-04-11T12:31:16.41Z</time></trkpt><trkpt lat="42.7461373" lon="11.7106125"><ele>655.0</ele><time>2026-04-11T12:31:17.397Z</time></trkpt><trkpt lat="42.746224" lon="11.7107889"><ele>651.25</ele><time>2026-04-11T12:31:18.402Z</time></trkpt><trkpt lat="42.7462848" lon="11.710957"><ele>647.5</ele><time>2026-04-11T12:31:19.393Z</time></trkpt><trkpt lat="42.7463583" lon="11.7111444"><ele>643.75</ele><time>2026-04-11T12:31:20.401Z</time></trkpt><trkpt lat="42.7463883" lon="11.7113179"><ele>640.0</ele><time>2026-04-11T12:31:21.403Z</time></trkpt><trkpt lat="42.7464176" lon="11.711511"><ele>640.0</ele><time>2026-04-11T12:31:22.41Z</time></trkpt><trkpt lat="42.7464557" lon="11.71169"><ele>640.0</ele><time>2026-04-11T12:31:23.404Z</time></trkpt><trkpt lat="42.746455" lon="11.7118587"><ele>640.0</ele><time>2026-04-11T12:31:24.416Z</time></trkpt><trkpt lat="42.7464693" lon="11.7120193"><ele>640.0</ele><time>2026-04-11T12:31:25.407Z</time></trkpt><trkpt lat="42.7464691" lon="11.7121599"><ele>639.0</ele><time>2026-04-11T12:31:26.407Z</time></trkpt><trkpt lat="42.746477" lon="11.7123478"><ele>638.0</ele><time>2026-04-11T12:31:27.402Z</time></trkpt><trkpt lat="42.7464852" lon="11.7125195"><ele>637.0</ele><time>2026-04-11T12:31:28.403Z</time></trkpt><trkpt lat="42.7465099" lon="11.7126569"><ele>636.0</ele><time>2026-04-11T12:31:29.403Z</time></trkpt><trkpt lat="42.7465117" lon="11.7127818"><ele>635.0</ele><time>2026-04-11T12:31:30.401Z</time></trkpt><trkpt lat="42.7465127" lon="11.7128726"><ele>634.0</ele><time>2026-04-11T12:31:31.403Z</time></trkpt><trkpt lat="42.7465343" lon="11.7130062"><ele>633.0</ele><time>2026-04-11T12:31:32.404Z</time></trkpt><trkpt lat="42.7465924" lon="11.7131603"><ele>632.0</ele><time>2026-04-11T12:31:33.41Z</time></trkpt><trkpt lat="42.7466611" lon="11.7132989"><ele>631.0</ele><time>2026-04-11T12:31:34.407Z</time></trkpt><trkpt lat="42.746716" lon="11.7134334"><ele>631.0</ele><time>2026-04-11T12:31:35.4Z</time></trkpt><trkpt lat="42.7467749" lon="11.713559"><ele>631.0</ele><time>2026-04-11T12:31:36.404Z</time></trkpt><trkpt lat="42.7468358" lon="11.7136835"><ele>631.0</ele><time>2026-04-11T12:31:37.403Z</time></trkpt><trkpt lat="42.7469066" lon="11.7138136"><ele>631.0</ele><time>2026-04-11T12:31:38.397Z</time></trkpt><trkpt lat="42.7469788" lon="11.7139363"><ele>626.25</ele><time>2026-04-11T12:31:39.399Z</time></trkpt><trkpt lat="42.7470529" lon="11.7140571"><ele>621.5</ele><time>2026-04-11T12:31:40.4Z</time></trkpt><trkpt lat="42.7471447" lon="11.7141748"><ele>616.75</ele><time>2026-04-11T12:31:41.399Z</time></trkpt><trkpt lat="42.747239" lon="11.7143139"><ele>612.0</ele><time>2026-04-11T12:31:42.388Z</time></trkpt><trkpt lat="42.7473222" lon="11.7144374"><ele>610.3333333333334</ele><time>2026-04-11T12:31:43.389Z</time></trkpt><trkpt lat="42.7473962" lon="11.7145998"><ele>608.6666666666667</ele><time>2026-04-11T12:31:44.402Z</time></trkpt><trkpt lat="42.747512" lon="11.7147995"><ele>607.0</ele><time>2026-04-11T12:31:45.399Z</time></trkpt><trkpt lat="42.7475939" lon="11.714972"><ele>604.6666666666667</ele><time>2026-04-11T12:31:46.393Z</time></trkpt><trkpt lat="42.7477108" lon="11.715155"><ele>602.3333333333334</ele><time>2026-04-11T12:31:47.403Z</time></trkpt><trkpt lat="42.7477762" lon="11.7153462"><ele>600.0</ele><time>2026-04-11T12:31:48.398Z</time></trkpt><trkpt lat="42.7478245" lon="11.7154985"><ele>600.0</ele><time>2026-04-11T12:31:49.404Z</time></trkpt><trkpt lat="42.7478837" lon="11.7156649"><ele>600.0</ele><time>2026-04-11T12:31:50.413Z</time></trkpt><trkpt lat="42.7479438" lon="11.7158309"><ele>600.0</ele><time>2026-04-11T12:31:51.41Z</time></trkpt><trkpt lat="42.7479865" lon="11.7160016"><ele>600.0</ele><time>2026-04-11T12:31:52.415Z</time></trkpt><trkpt lat="42.7480149" lon="11.7161448"><ele>599.75</ele><time>2026-04-11T12:31:53.414Z</time></trkpt><trkpt lat="42.7480638" lon="11.7163234"><ele>599.5</ele><time>2026-04-11T12:31:54.421Z</time></trkpt><trkpt lat="42.7481141" lon="11.7165063"><ele>599.25</ele><time>2026-04-11T12:31:55.425Z</time></trkpt><trkpt lat="42.7481805" lon="11.7166938"><ele>599.0</ele><time>2026-04-11T12:31:56.419Z</time></trkpt><trkpt lat="42.7482465" lon="11.7168698"><ele>598.3333333333333</ele><time>2026-04-11T12:31:57.424Z</time></trkpt><trkpt lat="42.7483313" lon="11.717032"><ele>597.6666666666666</ele><time>2026-04-11T12:31:58.421Z</time></trkpt><trkpt lat="42.7484605" lon="11.7172553"><ele>597.0</ele><time>2026-04-11T12:31:59.419Z</time></trkpt><trkpt lat="42.7485423" lon="11.7174174"><ele>595.25</ele><time>2026-04-11T12:32:00.418Z</time></trkpt><trkpt lat="42.7486479" lon="11.7175705"><ele>593.5</ele><time>2026-04-11T12:32:01.424Z</time></trkpt><trkpt lat="42.7487746" lon="11.7177212"><ele>591.75</ele><time>2026-04-11T12:32:02.414Z</time></trkpt><trkpt lat="42.7488408" lon="11.7178659"><ele>590.0</ele><time>2026-04-11T12:32:03.413Z</time></trkpt><trkpt lat="42.7489615" lon="11.7180318"><ele>590.0</ele><time>2026-04-11T12:32:04.406Z</time></trkpt><trkpt lat="42.7490327" lon="11.7182426"><ele>590.0</ele><time>2026-04-11T12:32:05.408Z</time></trkpt><trkpt lat="42.7491803" lon="11.7184108"><ele>590.0</ele><time>2026-04-11T12:32:06.404Z</time></trkpt><trkpt lat="42.7493002" lon="11.7186411"><ele>590.75</ele><time>2026-04-11T12:32:07.404Z</time></trkpt><trkpt lat="42.7493619" lon="11.7188581"><ele>591.5</ele><time>2026-04-11T12:32:08.399Z</time></trkpt><trkpt lat="42.7494376" lon="11.7190607"><ele>592.25</ele><time>2026-04-11T12:32:09.398Z</time></trkpt><trkpt lat="42.7495" lon="11.7191779"><ele>593.0</ele><time>2026-04-11T12:32:10.397Z</time></trkpt><trkpt lat="42.7495604" lon="11.7193485"><ele>590.0</ele><time>2026-04-11T12:32:11.401Z</time></trkpt><trkpt lat="42.7495953" lon="11.7195269"><ele>587.0</ele><time>2026-04-11T12:32:12.397Z</time></trkpt><trkpt lat="42.7496209" lon="11.7197804"><ele>584.0</ele><time>2026-04-11T12:32:13.399Z</time></trkpt><trkpt lat="42.7496434" lon="11.7199952"><ele>584.0</ele><time>2026-04-11T12:32:14.4Z</time></trkpt><trkpt lat="42.7497011" lon="11.7201825"><ele>584.0</ele><time>2026-04-11T12:32:15.406Z</time></trkpt><trkpt lat="42.7498032" lon="11.7204437"><ele>584.0</ele><time>2026-04-11T12:32:16.401Z</time></trkpt><trkpt lat="42.7499145" lon="11.7206844"><ele>584.6666666666666</ele><time>2026-04-11T12:32:17.399Z</time></trkpt><trkpt lat="42.7500101" lon="11.7209321"><ele>585.3333333333334</ele><time>2026-04-11T12:32:18.408Z</time></trkpt><trkpt lat="42.7500718" lon="11.7211425"><ele>586.0</ele><time>2026-04-11T12:32:19.399Z</time></trkpt><trkpt lat="42.750153" lon="11.7213384"><ele>581.75</ele><time>2026-04-11T12:32:20.398Z</time></trkpt><trkpt lat="42.7502297" lon="11.721494"><ele>577.5</ele><time>2026-04-11T12:32:21.4Z</time></trkpt><trkpt lat="42.750285" lon="11.7216576"><ele>573.25</ele><time>2026-04-11T12:32:22.396Z</time></trkpt><trkpt lat="42.7503214" lon="11.7217845"><ele>569.0</ele><time>2026-04-11T12:32:23.402Z</time></trkpt><trkpt lat="42.750379" lon="11.7218726"><ele>569.2</ele><time>2026-04-11T12:32:24.397Z</time></trkpt><trkpt lat="42.7504202" lon="11.7219574"><ele>569.4</ele><time>2026-04-11T12:32:25.402Z</time></trkpt><trkpt lat="42.7504633" lon="11.7220569"><ele>569.6</ele><time>2026-04-11T12:32:26.419Z</time></trkpt><trkpt lat="42.7505849" lon="11.722156"><ele>569.8</ele><time>2026-04-11T12:32:27.405Z</time></trkpt><trkpt lat="42.7506606" lon="11.7222466"><ele>570.0</ele><time>2026-04-11T12:32:28.414Z</time></trkpt><trkpt lat="42.7507317" lon="11.7223342"><ele>570.0</ele><time>2026-04-11T12:32:29.4Z</time></trkpt><trkpt lat="42.7508119" lon="11.7224456"><ele>570.0</ele><time>2026-04-11T12:32:30.397Z</time></trkpt><trkpt lat="42.7508636" lon="11.7226074"><ele>570.0</ele><time>2026-04-11T12:32:31.401Z</time></trkpt><trkpt lat="42.7509379" lon="11.7227663"><ele>570.0</ele><time>2026-04-11T12:32:32.405Z</time></trkpt><trkpt lat="42.7510146" lon="11.722899"><ele>566.5</ele><time>2026-04-11T12:32:33.407Z</time></trkpt><trkpt lat="42.7511051" lon="11.7230246"><ele>563.0</ele><time>2026-04-11T12:32:34.398Z</time></trkpt><trkpt lat="42.751204" lon="11.7231387"><ele>559.5</ele><time>2026-04-11T12:32:35.402Z</time></trkpt><trkpt lat="42.7512927" lon="11.7232443"><ele>556.0</ele><time>2026-04-11T12:32:36.395Z</time></trkpt><trkpt lat="42.7513641" lon="11.7233531"><ele>556.0</ele><time>2026-04-11T12:32:37.397Z</time></trkpt><trkpt lat="42.7513991" lon="11.7234743"><ele>556.0</ele><time>2026-04-11T12:32:38.393Z</time></trkpt><trkpt lat="42.7514321" lon="11.723617"><ele>556.0</ele><time>2026-04-11T12:32:39.388Z</time></trkpt><trkpt lat="42.7514735" lon="11.7237734"><ele>556.0</ele><time>2026-04-11T12:32:40.392Z</time></trkpt><trkpt lat="42.7515157" lon="11.7239634"><ele>554.3333333333334</ele><time>2026-04-11T12:32:41.39Z</time></trkpt><trkpt lat="42.7515612" lon="11.7241722"><ele>552.6666666666666</ele><time>2026-04-11T12:32:42.386Z</time></trkpt><trkpt lat="42.7515898" lon="11.7243946"><ele>551.0</ele><time>2026-04-11T12:32:43.388Z</time></trkpt><trkpt lat="42.7516127" lon="11.7245927"><ele>549.3333333333333</ele><time>2026-04-11T12:32:44.384Z</time></trkpt><trkpt lat="42.7516873" lon="11.7248063"><ele>547.6666666666666</ele><time>2026-04-11T12:32:45.395Z</time></trkpt><trkpt lat="42.7517295" lon="11.7250172"><ele>546.0</ele><time>2026-04-11T12:32:46.4Z</time></trkpt><trkpt lat="42.7517095" lon="11.7252109"><ele>543.25</ele><time>2026-04-11T12:32:47.409Z</time></trkpt><trkpt lat="42.7517166" lon="11.7253928"><ele>540.5</ele><time>2026-04-11T12:32:48.405Z</time></trkpt><trkpt lat="42.7516838" lon="11.7255651"><ele>537.75</ele><time>2026-04-11T12:32:49.415Z</time></trkpt><trkpt lat="42.7516543" lon="11.7257418"><ele>535.0</ele><time>2026-04-11T12:32:50.401Z</time></trkpt><trkpt lat="42.751651" lon="11.7259156"><ele>532.5</ele><time>2026-04-11T12:32:51.396Z</time></trkpt><trkpt lat="42.7517093" lon="11.7260675"><ele>530.0</ele><time>2026-04-11T12:32:52.4Z</time></trkpt><trkpt lat="42.7517796" lon="11.7262283"><ele>527.5</ele><time>2026-04-11T12:32:53.392Z</time></trkpt><trkpt lat="42.7518053" lon="11.7263714"><ele>525.0</ele><time>2026-04-11T12:32:54.396Z</time></trkpt><trkpt lat="42.7517973" lon="11.7265241"><ele>525.0</ele><time>2026-04-11T12:32:55.401Z</time></trkpt><trkpt lat="42.7518245" lon="11.7266827"><ele>525.0</ele><time>2026-04-11T12:32:56.409Z</time></trkpt><trkpt lat="42.7518584" lon="11.7268686"><ele>525.0</ele><time>2026-04-11T12:32:57.407Z</time></trkpt><trkpt lat="42.7519173" lon="11.7270593"><ele>525.0</ele><time>2026-04-11T12:32:58.412Z</time></trkpt><trkpt lat="42.7520215" lon="11.7272669"><ele>520.0</ele><time>2026-04-11T12:32:59.415Z</time></trkpt><trkpt lat="42.7520794" lon="11.7274776"><ele>515.0</ele><time>2026-04-11T12:33:00.411Z</time></trkpt><trkpt lat="42.7521353" lon="11.7276353"><ele>510.0</ele><time>2026-04-11T12:33:01.413Z</time></trkpt><trkpt lat="42.7522081" lon="11.7278241"><ele>509.0</ele><time>2026-04-11T12:33:02.418Z</time></trkpt><trkpt lat="42.752272" lon="11.7279962"><ele>508.0</ele><time>2026-04-11T12:33:03.413Z</time></trkpt><trkpt lat="42.7522895" lon="11.7281629"><ele>507.0</ele><time>2026-04-11T12:33:04.411Z</time></trkpt><trkpt lat="42.7522998" lon="11.7282984"><ele>506.0</ele><time>2026-04-11T12:33:05.402Z</time></trkpt><trkpt lat="42.7522897" lon="11.7285006"><ele>504.0</ele><time>2026-04-11T12:33:06.406Z</time></trkpt><trkpt lat="42.752297" lon="11.7286543"><ele>502.0</ele><time>2026-04-11T12:33:07.404Z</time></trkpt><trkpt lat="42.7523196" lon="11.7288248"><ele>500.0</ele><time>2026-04-11T12:33:08.399Z</time></trkpt><trkpt lat="42.7523447" lon="11.7289877"><ele>498.0</ele><time>2026-04-11T12:33:09.403Z</time></trkpt><trkpt lat="42.7523555" lon="11.7291349"><ele>498.0</ele><time>2026-04-11T12:33:10.403Z</time></trkpt><trkpt lat="42.7524003" lon="11.7292676"><ele>498.0</ele><time>2026-04-11T12:33:11.407Z</time></trkpt><trkpt lat="42.7524431" lon="11.729394"><ele>498.0</ele><time>2026-04-11T12:33:12.399Z</time></trkpt><trkpt lat="42.7525246" lon="11.7295106"><ele>498.0</ele><time>2026-04-11T12:33:13.401Z</time></trkpt><trkpt lat="42.7526144" lon="11.7296289"><ele>496.5</ele><time>2026-04-11T12:33:14.4Z</time></trkpt><trkpt lat="42.7527039" lon="11.7297576"><ele>495.0</ele><time>2026-04-11T12:33:15.405Z</time></trkpt><trkpt lat="42.7527712" lon="11.7298892"><ele>493.5</ele><time>2026-04-11T12:33:16.404Z</time></trkpt><trkpt lat="42.752827" lon="11.7300243"><ele>492.0</ele><time>2026-04-11T12:33:17.406Z</time></trkpt><trkpt lat="42.7528599" lon="11.73016"><ele>488.75</ele><time>2026-04-11T12:33:18.404Z</time></trkpt><trkpt lat="42.7528394" lon="11.7303296"><ele>485.5</ele><time>2026-04-11T12:33:19.403Z</time></trkpt><trkpt lat="42.7528214" lon="11.7305196"><ele>482.25</ele><time>2026-04-11T12:33:20.417Z</time></trkpt><trkpt lat="42.7527993" lon="11.7307148"><ele>479.0</ele><time>2026-04-11T12:33:21.404Z</time></trkpt><trkpt lat="42.7527677" lon="11.730903"><ele>478.25</ele><time>2026-04-11T12:33:22.408Z</time></trkpt><trkpt lat="42.7527443" lon="11.7310987"><ele>477.5</ele><time>2026-04-11T12:33:23.41Z</time></trkpt><trkpt lat="42.7527531" lon="11.7312591"><ele>476.75</ele><time>2026-04-11T12:33:24.41Z</time></trkpt><trkpt lat="42.7527366" lon="11.731438"><ele>476.0</ele><time>2026-04-11T12:33:25.415Z</time></trkpt><trkpt lat="42.7526722" lon="11.7315898"><ele>476.0</ele><time>2026-04-11T12:33:26.415Z</time></trkpt><trkpt lat="42.7525711" lon="11.731711"><ele>476.0</ele><time>2026-04-11T12:33:27.422Z</time></trkpt><trkpt lat="42.7524849" lon="11.7318395"><ele>476.0</ele><time>2026-04-11T12:33:28.416Z</time></trkpt><trkpt lat="42.7524349" lon="11.7319784"><ele>476.0</ele><time>2026-04-11T12:33:29.413Z</time></trkpt><trkpt lat="42.7524342" lon="11.7321223"><ele>474.25</ele><time>2026-04-11T12:33:30.4Z</time></trkpt><trkpt lat="42.75242" lon="11.7322869"><ele>472.5</ele><time>2026-04-11T12:33:31.408Z</time></trkpt><trkpt lat="42.7524049" lon="11.7324533"><ele>470.75</ele><time>2026-04-11T12:33:32.406Z</time></trkpt><trkpt lat="42.7524022" lon="11.7326017"><ele>469.0</ele><time>2026-04-11T12:33:33.388Z</time></trkpt><trkpt lat="42.752418" lon="11.7327613"><ele>468.83333333333337</ele><time>2026-04-11T12:33:34.384Z</time></trkpt><trkpt lat="42.7524519" lon="11.7328848"><ele>468.6666666666667</ele><time>2026-04-11T12:33:35.382Z</time></trkpt><trkpt lat="42.7525009" lon="11.732959"><ele>468.5</ele><time>2026-04-11T12:33:36.391Z</time></trkpt><trkpt lat="42.7525437" lon="11.7330393"><ele>468.33333333333337</ele><time>2026-04-11T12:33:37.392Z</time></trkpt><trkpt lat="42.7525955" lon="11.7331137"><ele>468.1666666666667</ele><time>2026-04-11T12:33:38.393Z</time></trkpt><trkpt lat="42.7526536" lon="11.7332003"><ele>468.0</ele><time>2026-04-11T12:33:39.397Z</time></trkpt><trkpt lat="42.7526965" lon="11.7332709"><ele>468.1666666666667</ele><time>2026-04-11T12:33:40.393Z</time></trkpt><trkpt lat="42.7527645" lon="11.7333362"><ele>468.33333333333337</ele><time>2026-04-11T12:33:41.388Z</time></trkpt><trkpt lat="42.752806" lon="11.7334107"><ele>468.5</ele><time>2026-04-11T12:33:43.399Z</time></trkpt><trkpt lat="42.7527602" lon="11.7333329"><ele>468.6666666666667</ele><time>2026-04-11T12:34:08.438Z</time></trkpt><trkpt lat="42.7527162" lon="11.7332543"><ele>468.83333333333337</ele><time>2026-04-11T12:35:41.415Z</time></trkpt><trkpt lat="42.7527351" lon="11.7331348"><ele>469.0</ele><time>2026-04-11T12:35:43.406Z</time></trkpt><trkpt lat="42.7527455" lon="11.7330375"><ele>469.00000000000006</ele><time>2026-04-11T12:35:44.413Z</time></trkpt><trkpt lat="42.7526791" lon="11.7328911"><ele>469.0</ele><time>2026-04-11T12:35:46.41Z</time></trkpt><trkpt lat="42.7526432" lon="11.7328145"><ele>469.0</ele><time>2026-04-11T12:35:47.403Z</time></trkpt><trkpt lat="42.7525935" lon="11.7327264"><ele>469.0</ele><time>2026-04-11T12:35:48.398Z</time></trkpt><trkpt lat="42.7525646" lon="11.7326369"><ele>469.00000000000006</ele><time>2026-04-11T12:35:49.4Z</time></trkpt><trkpt lat="42.7525367" lon="11.7325455"><ele>469.0</ele><time>2026-04-11T12:35:50.393Z</time></trkpt><trkpt lat="42.7525222" lon="11.7324542"><ele>469.0</ele><time>2026-04-11T12:35:51.391Z</time></trkpt><trkpt lat="42.7525055" lon="11.7323418"><ele>469.0</ele><time>2026-04-11T12:35:52.395Z</time></trkpt><trkpt lat="42.7524991" lon="11.7322389"><ele>469.0</ele><time>2026-04-11T12:35:53.396Z</time></trkpt><trkpt lat="42.752496" lon="11.7321324"><ele>469.0</ele><time>2026-04-11T12:35:54.403Z</time></trkpt><trkpt lat="42.7524923" lon="11.7320249"><ele>469.0</ele><time>2026-04-11T12:35:55.418Z</time></trkpt><trkpt lat="42.752576" lon="11.7318695"><ele>469.50000000000006</ele><time>2026-04-11T12:35:57.409Z</time></trkpt><trkpt lat="42.7526217" lon="11.7318037"><ele>470.0</ele><time>2026-04-11T12:35:58.414Z</time></trkpt><trkpt lat="42.7526508" lon="11.7317019"><ele>470.5</ele><time>2026-04-11T12:35:59.415Z</time></trkpt><trkpt lat="42.7526851" lon="11.7316053"><ele>471.0</ele><time>2026-04-11T12:36:00.41Z</time></trkpt><trkpt lat="42.7527189" lon="11.7315012"><ele>471.50000000000006</ele><time>2026-04-11T12:36:01.419Z</time></trkpt><trkpt lat="42.7527441" lon="11.7314097"><ele>472.0</ele><time>2026-04-11T12:36:02.422Z</time></trkpt><trkpt lat="42.7527567" lon="11.7313111"><ele>472.00000000000006</ele><time>2026-04-11T12:36:03.414Z</time></trkpt><trkpt lat="42.752769" lon="11.7312076"><ele>472.0</ele><time>2026-04-11T12:36:04.417Z</time></trkpt><trkpt lat="42.7527738" lon="11.7311113"><ele>472.0</ele><time>2026-04-11T12:36:05.409Z</time></trkpt><trkpt lat="42.7527733" lon="11.7310136"><ele>472.0</ele><time>2026-04-11T12:36:06.415Z</time></trkpt><trkpt lat="42.7527598" lon="11.7309155"><ele>472.00000000000006</ele><time>2026-04-11T12:36:07.419Z</time></trkpt><trkpt lat="42.7527488" lon="11.7308178"><ele>472.0</ele><time>2026-04-11T12:36:08.419Z</time></trkpt><trkpt lat="42.7527332" lon="11.7306925"><ele>473.40000000000003</ele><time>2026-04-11T12:36:09.416Z</time></trkpt><trkpt lat="42.7527273" lon="11.7305495"><ele>474.80000000000007</ele><time>2026-04-11T12:36:10.413Z</time></trkpt><trkpt lat="42.7527297" lon="11.7304121"><ele>476.2</ele><time>2026-04-11T12:36:11.414Z</time></trkpt><trkpt lat="42.7527258" lon="11.7302848"><ele>477.6</ele><time>2026-04-11T12:36:12.414Z</time></trkpt><trkpt lat="42.7527341" lon="11.7301762"><ele>479.0</ele><time>2026-04-11T12:36:13.405Z</time></trkpt><trkpt lat="42.7527416" lon="11.7300769"><ele>478.99999999999994</ele><time>2026-04-11T12:36:14.4Z</time></trkpt><trkpt lat="42.7527651" lon="11.7299835"><ele>479.0</ele><time>2026-04-11T12:36:16.412Z</time></trkpt><trkpt lat="42.7528022" lon="11.7299028"><ele>479.0</ele><time>2026-04-11T12:36:43.424Z</time></trkpt><trkpt lat="42.7527836" lon="11.7299851"><ele>479.0</ele><time>2026-04-11T12:36:49.427Z</time></trkpt><trkpt lat="42.7527714" lon="11.730123"><ele>478.99999999999994</ele><time>2026-04-11T12:36:51.425Z</time></trkpt><trkpt lat="42.7527601" lon="11.730287"><ele>479.0</ele><time>2026-04-11T12:36:52.414Z</time></trkpt><trkpt lat="42.7527436" lon="11.7304594"><ele>479.0</ele><time>2026-04-11T12:36:53.413Z</time></trkpt><trkpt lat="42.7527368" lon="11.7306174"><ele>479.0</ele><time>2026-04-11T12:36:54.415Z</time></trkpt><trkpt lat="42.7527374" lon="11.7307819"><ele>479.0</ele><time>2026-04-11T12:36:55.418Z</time></trkpt><trkpt lat="42.7527517" lon="11.7309311"><ele>479.0</ele><time>2026-04-11T12:36:56.412Z</time></trkpt><trkpt lat="42.7527685" lon="11.7310778"><ele>478.4</ele><time>2026-04-11T12:36:57.425Z</time></trkpt><trkpt lat="42.752775" lon="11.7312112"><ele>477.79999999999995</ele><time>2026-04-11T12:36:58.426Z</time></trkpt><trkpt lat="42.7527632" lon="11.7313381"><ele>477.20000000000005</ele><time>2026-04-11T12:36:59.419Z</time></trkpt><trkpt lat="42.7527384" lon="11.7314518"><ele>476.6</ele><time>2026-04-11T12:37:00.421Z</time></trkpt><trkpt lat="42.7527241" lon="11.7315776"><ele>476.0</ele><time>2026-04-11T12:37:01.41Z</time></trkpt><trkpt lat="42.7526691" lon="11.7316972"><ele>475.99999999999994</ele><time>2026-04-11T12:37:02.411Z</time></trkpt><trkpt lat="42.7526238" lon="11.7318138"><ele>476.0</ele><time>2026-04-11T12:37:03.412Z</time></trkpt><trkpt lat="42.7525819" lon="11.73193"><ele>476.0</ele><time>2026-04-11T12:37:04.42Z</time></trkpt><trkpt lat="42.7525454" lon="11.7320353"><ele>476.0</ele><time>2026-04-11T12:37:05.407Z</time></trkpt><trkpt lat="42.7525169" lon="11.7321164"><ele>475.99999999999994</ele><time>2026-04-11T12:37:06.399Z</time></trkpt><trkpt lat="42.7524959" lon="11.7322105"><ele>476.0</ele><time>2026-04-11T12:37:07.399Z</time></trkpt><trkpt lat="42.7524715" lon="11.7323356"><ele>474.8333333333333</ele><time>2026-04-11T12:37:08.391Z</time></trkpt><trkpt lat="42.7524602" lon="11.732439"><ele>473.66666666666663</ele><time>2026-04-11T12:37:09.396Z</time></trkpt><trkpt lat="42.7524583" lon="11.7325378"><ele>472.5</ele><time>2026-04-11T12:37:10.397Z</time></trkpt><trkpt lat="42.7524616" lon="11.7326529"><ele>471.33333333333337</ele><time>2026-04-11T12:37:11.395Z</time></trkpt><trkpt lat="42.7524637" lon="11.73276"><ele>470.1666666666667</ele><time>2026-04-11T12:37:12.395Z</time></trkpt><trkpt lat="42.7525181" lon="11.7329148"><ele>469.0</ele><time>2026-04-11T12:37:14.398Z</time></trkpt><trkpt lat="42.7525556" lon="11.7329854"><ele>469.00000000000006</ele><time>2026-04-11T12:37:15.395Z</time></trkpt><trkpt lat="42.7526047" lon="11.7330603"><ele>469.0</ele><time>2026-04-11T12:37:16.392Z</time></trkpt><trkpt lat="42.7526476" lon="11.7331456"><ele>469.0</ele><time>2026-04-11T12:37:17.395Z</time></trkpt><trkpt lat="42.7526917" lon="11.7332301"><ele>469.0</ele><time>2026-04-11T12:37:18.393Z</time></trkpt><trkpt lat="42.7527549" lon="11.7333304"><ele>469.00000000000006</ele><time>2026-04-11T12:37:19.391Z</time></trkpt><trkpt lat="42.7527867" lon="11.7334074"><ele>469.0</ele><time>2026-04-11T12:37:20.389Z</time></trkpt><trkpt lat="42.7527995" lon="11.7334936"><ele>468.83333333333337</ele><time>2026-04-11T12:37:21.393Z</time></trkpt><trkpt lat="42.7527704" lon="11.7335799"><ele>468.6666666666667</ele><time>2026-04-11T12:37:22.394Z</time></trkpt><trkpt lat="42.7527129" lon="11.733652"><ele>468.5</ele><time>2026-04-11T12:37:23.395Z</time></trkpt><trkpt lat="42.7526529" lon="11.7337473"><ele>468.33333333333337</ele><time>2026-04-11T12:37:24.398Z</time></trkpt><trkpt lat="42.7526076" lon="11.7338541"><ele>468.1666666666667</ele><time>2026-04-11T12:37:25.396Z</time></trkpt><trkpt lat="42.7525531" lon="11.7339899"><ele>468.0</ele><time>2026-04-11T12:37:26.4Z</time></trkpt><trkpt lat="42.7524752" lon="11.7341183"><ele>467.5</ele><time>2026-04-11T12:37:27.399Z</time></trkpt><trkpt lat="42.752403" lon="11.7342667"><ele>467.0</ele><time>2026-04-11T12:37:28.405Z</time></trkpt><trkpt lat="42.752332" lon="11.7344102"><ele>466.5</ele><time>2026-04-11T12:37:29.395Z</time></trkpt><trkpt lat="42.752275" lon="11.7345411"><ele>466.0</ele><time>2026-04-11T12:37:30.385Z</time></trkpt><trkpt lat="42.7522178" lon="11.7346706"><ele>466.0</ele><time>2026-04-11T12:37:31.391Z</time></trkpt><trkpt lat="42.7521638" lon="11.7348371"><ele>466.0</ele><time>2026-04-11T12:37:32.39Z</time></trkpt><trkpt lat="42.7521249" lon="11.7349885"><ele>466.0</ele><time>2026-04-11T12:37:33.387Z</time></trkpt><trkpt lat="42.7521214" lon="11.7351492"><ele>466.0</ele><time>2026-04-11T12:37:34.402Z</time></trkpt><trkpt lat="42.7521355" lon="11.735317"><ele>465.75</ele><time>2026-04-11T12:37:35.395Z</time></trkpt><trkpt lat="42.7521523" lon="11.7355018"><ele>465.5</ele><time>2026-04-11T12:37:36.404Z</time></trkpt><trkpt lat="42.7521745" lon="11.7356833"><ele>465.25</ele><time>2026-04-11T12:37:37.415Z</time></trkpt><trkpt lat="42.7521822" lon="11.7358306"><ele>465.0</ele><time>2026-04-11T12:37:38.402Z</time></trkpt><trkpt lat="42.7521703" lon="11.7359775"><ele>464.8</ele><time>2026-04-11T12:37:39.401Z</time></trkpt><trkpt lat="42.75214" lon="11.7361088"><ele>464.6</ele><time>2026-04-11T12:37:40.401Z</time></trkpt><trkpt lat="42.7520991" lon="11.7362253"><ele>464.4</ele><time>2026-04-11T12:37:41.408Z</time></trkpt><trkpt lat="42.752047" lon="11.7363635"><ele>464.2</ele><time>2026-04-11T12:37:42.402Z</time></trkpt><trkpt lat="42.7519933" lon="11.7365217"><ele>464.0</ele><time>2026-04-11T12:37:43.4Z</time></trkpt><trkpt lat="42.7519163" lon="11.7366592"><ele>462.75</ele><time>2026-04-11T12:37:44.402Z</time></trkpt><trkpt lat="42.7518223" lon="11.7368088"><ele>461.5</ele><time>2026-04-11T12:37:45.403Z</time></trkpt><trkpt lat="42.7517338" lon="11.7369545"><ele>460.25</ele><time>2026-04-11T12:37:46.402Z</time></trkpt><trkpt lat="42.7516617" lon="11.7371093"><ele>459.0</ele><time>2026-04-11T12:37:47.397Z</time></trkpt><trkpt lat="42.7516032" lon="11.7372525"><ele>459.0</ele><time>2026-04-11T12:37:48.389Z</time></trkpt><trkpt lat="42.7516004" lon="11.7374261"><ele>459.0</ele><time>2026-04-11T12:37:49.389Z</time></trkpt><trkpt lat="42.7515991" lon="11.7376166"><ele>459.0</ele><time>2026-04-11T12:37:50.39Z</time></trkpt><trkpt lat="42.7515861" lon="11.7378143"><ele>459.0</ele><time>2026-04-11T12:37:51.393Z</time></trkpt><trkpt lat="42.7515388" lon="11.7379969"><ele>458.66666666666663</ele><time>2026-04-11T12:37:52.398Z</time></trkpt><trkpt lat="42.7514674" lon="11.7382366"><ele>458.3333333333333</ele><time>2026-04-11T12:37:53.408Z</time></trkpt><trkpt lat="42.7513951" lon="11.7384267"><ele>458.0</ele><time>2026-04-11T12:37:54.408Z</time></trkpt><trkpt lat="42.7513246" lon="11.7386055"><ele>457.66666666666663</ele><time>2026-04-11T12:37:55.413Z</time></trkpt><trkpt lat="42.7512404" lon="11.7387978"><ele>457.33333333333337</ele><time>2026-04-11T12:37:56.408Z</time></trkpt><trkpt lat="42.7511751" lon="11.7389507"><ele>457.0</ele><time>2026-04-11T12:37:57.408Z</time></trkpt><trkpt lat="42.7510975" lon="11.7391446"><ele>456.6666666666667</ele><time>2026-04-11T12:37:58.404Z</time></trkpt><trkpt lat="42.7510223" lon="11.7393203"><ele>456.33333333333337</ele><time>2026-04-11T12:37:59.406Z</time></trkpt><trkpt lat="42.7509412" lon="11.7395524"><ele>456.0</ele><time>2026-04-11T12:38:00.404Z</time></trkpt><trkpt lat="42.7508747" lon="11.739758"><ele>456.0</ele><time>2026-04-11T12:38:01.406Z</time></trkpt><trkpt lat="42.7508598" lon="11.7398799"><ele>456.0</ele><time>2026-04-11T12:38:02.404Z</time></trkpt><trkpt lat="42.750797" lon="11.740049"><ele>456.0</ele><time>2026-04-11T12:38:03.404Z</time></trkpt><trkpt lat="42.7507622" lon="11.7402192"><ele>456.0</ele><time>2026-04-11T12:38:04.391Z</time></trkpt><trkpt lat="42.7507276" lon="11.7404533"><ele>455.0</ele><time>2026-04-11T12:38:05.405Z</time></trkpt><trkpt lat="42.7506873" lon="11.7406961"><ele>454.0</ele><time>2026-04-11T12:38:06.396Z</time></trkpt><trkpt lat="42.7507051" lon="11.7409183"><ele>453.0</ele><time>2026-04-11T12:38:07.392Z</time></trkpt><trkpt lat="42.7507005" lon="11.741125"><ele>452.33333333333337</ele><time>2026-04-11T12:38:08.388Z</time></trkpt><trkpt lat="42.7507074" lon="11.741308"><ele>451.6666666666667</ele><time>2026-04-11T12:38:09.39Z</time></trkpt><trkpt lat="42.7507036" lon="11.7415052"><ele>451.0</ele><time>2026-04-11T12:38:10.392Z</time></trkpt><trkpt lat="42.7506726" lon="11.7417484"><ele>450.5</ele><time>2026-04-11T12:38:11.4Z</time></trkpt><trkpt lat="42.750707" lon="11.7419433"><ele>450.0</ele><time>2026-04-11T12:38:12.394Z</time></trkpt><trkpt lat="42.7507596" lon="11.7421565"><ele>449.5</ele><time>2026-04-11T12:38:13.393Z</time></trkpt><trkpt lat="42.7508036" lon="11.7423248"><ele>449.0</ele><time>2026-04-11T12:38:14.396Z</time></trkpt><trkpt lat="42.7508183" lon="11.7424869"><ele>449.0</ele><time>2026-04-11T12:38:15.394Z</time></trkpt><trkpt lat="42.7508449" lon="11.7426551"><ele>449.0</ele><time>2026-04-11T12:38:16.404Z</time></trkpt><trkpt lat="42.7508883" lon="11.7428482"><ele>449.0</ele><time>2026-04-11T12:38:17.406Z</time></trkpt><trkpt lat="42.7509606" lon="11.742988"><ele>449.0</ele><time>2026-04-11T12:38:18.41Z</time></trkpt><trkpt lat="42.7510168" lon="11.7431156"><ele>448.79999999999995</ele><time>2026-04-11T12:38:19.411Z</time></trkpt><trkpt lat="42.7510302" lon="11.7432413"><ele>448.59999999999997</ele><time>2026-04-11T12:38:20.405Z</time></trkpt><trkpt lat="42.7510946" lon="11.7433239"><ele>448.4</ele><time>2026-04-11T12:38:21.41Z</time></trkpt><trkpt lat="42.7511959" lon="11.74335"><ele>448.2</ele><time>2026-04-11T12:38:22.408Z</time></trkpt><trkpt lat="42.7512899" lon="11.7433956"><ele>448.0</ele><time>2026-04-11T12:38:23.408Z</time></trkpt><trkpt lat="42.7513979" lon="11.7434487"><ele>448.5</ele><time>2026-04-11T12:38:24.402Z</time></trkpt><trkpt lat="42.7515108" lon="11.7435"><ele>449.0</ele><time>2026-04-11T12:38:25.406Z</time></trkpt><trkpt lat="42.7516413" lon="11.7435649"><ele>449.5</ele><time>2026-04-11T12:38:26.406Z</time></trkpt><trkpt lat="42.7517849" lon="11.7436397"><ele>450.0</ele><time>2026-04-11T12:38:27.41Z</time></trkpt><trkpt lat="42.751917" lon="11.7437116"><ele>450.5</ele><time>2026-04-11T12:38:28.407Z</time></trkpt><trkpt lat="42.7520186" lon="11.7437603"><ele>451.0</ele><time>2026-04-11T12:38:29.406Z</time></trkpt><trkpt lat="42.7521267" lon="11.7438067"><ele>451.5</ele><time>2026-04-11T12:38:30.414Z</time></trkpt><trkpt lat="42.752198" lon="11.7438503"><ele>452.0</ele><time>2026-04-11T12:38:31.402Z</time></trkpt><trkpt lat="42.7522244" lon="11.7439566"><ele>452.5</ele><time>2026-04-11T12:38:33.395Z</time></trkpt><trkpt lat="42.7522624" lon="11.7440296"><ele>453.0</ele><time>2026-04-11T12:38:34.396Z</time></trkpt><trkpt lat="42.7522708" lon="11.7441388"><ele>453.0</ele><time>2026-04-11T12:38:35.392Z</time></trkpt><trkpt lat="42.7522542" lon="11.7442365"><ele>452.99999999999994</ele><time>2026-04-11T12:38:36.395Z</time></trkpt><trkpt lat="42.7522094" lon="11.7443728"><ele>452.99999999999994</ele><time>2026-04-11T12:38:37.383Z</time></trkpt><trkpt lat="42.752155" lon="11.744505"><ele>453.0</ele><time>2026-04-11T12:38:38.383Z</time></trkpt><trkpt lat="42.7521148" lon="11.7446503"><ele>453.0</ele><time>2026-04-11T12:38:39.388Z</time></trkpt><trkpt lat="42.7520589" lon="11.74484"><ele>454.0</ele><time>2026-04-11T12:38:40.391Z</time></trkpt><trkpt lat="42.752008" lon="11.7450484"><ele>455.0</ele><time>2026-04-11T12:38:41.392Z</time></trkpt><trkpt lat="42.7519454" lon="11.745285"><ele>456.0</ele><time>2026-04-11T12:38:42.393Z</time></trkpt><trkpt lat="42.7518902" lon="11.7454606"><ele>453.0</ele><time>2026-04-11T12:38:43.39Z</time></trkpt><trkpt lat="42.751863" lon="11.7456841"><ele>450.0</ele><time>2026-04-11T12:38:44.398Z</time></trkpt><trkpt lat="42.7518192" lon="11.7459163"><ele>447.0</ele><time>2026-04-11T12:38:45.397Z</time></trkpt><trkpt lat="42.7517825" lon="11.746126"><ele>446.33333333333337</ele><time>2026-04-11T12:38:46.399Z</time></trkpt><trkpt lat="42.751762" lon="11.7463527"><ele>445.6666666666667</ele><time>2026-04-11T12:38:47.406Z</time></trkpt><trkpt lat="42.7517303" lon="11.7465741"><ele>445.0</ele><time>2026-04-11T12:38:48.409Z</time></trkpt><trkpt lat="42.7516937" lon="11.7468123"><ele>445.33333333333337</ele><time>2026-04-11T12:38:49.409Z</time></trkpt><trkpt lat="42.7516678" lon="11.7470447"><ele>445.66666666666663</ele><time>2026-04-11T12:38:50.413Z</time></trkpt><trkpt lat="42.7516165" lon="11.7472616"><ele>446.0</ele><time>2026-04-11T12:38:51.409Z</time></trkpt><trkpt lat="42.7515558" lon="11.7474483"><ele>446.0</ele><time>2026-04-11T12:38:52.411Z</time></trkpt><trkpt lat="42.7515007" lon="11.7476173"><ele>446.0</ele><time>2026-04-11T12:38:53.402Z</time></trkpt><trkpt lat="42.7514313" lon="11.7477868"><ele>446.0</ele><time>2026-04-11T12:38:54.408Z</time></trkpt><trkpt lat="42.7513889" lon="11.7479401"><ele>446.0</ele><time>2026-04-11T12:38:55.412Z</time></trkpt><trkpt lat="42.7513308" lon="11.7480931"><ele>446.4</ele><time>2026-04-11T12:38:56.397Z</time></trkpt><trkpt lat="42.7513018" lon="11.7482232"><ele>446.8</ele><time>2026-04-11T12:38:57.39Z</time></trkpt><trkpt lat="42.7513523" lon="11.7483405"><ele>447.19999999999993</ele><time>2026-04-11T12:38:59.388Z</time></trkpt><trkpt lat="42.7514199" lon="11.7484029"><ele>447.59999999999997</ele><time>2026-04-11T12:39:01.409Z</time></trkpt><trkpt lat="42.7514871" lon="11.7484254"><ele>448.0</ele><time>2026-04-11T12:39:02.395Z</time></trkpt><trkpt lat="42.7515856" lon="11.7484422"><ele>448.0</ele><time>2026-04-11T12:39:04.396Z</time></trkpt><trkpt lat="42.7516671" lon="11.7484212"><ele>447.99999999999994</ele><time>2026-04-11T12:39:05.397Z</time></trkpt><trkpt lat="42.7517772" lon="11.7484266"><ele>447.99999999999994</ele><time>2026-04-11T12:39:06.387Z</time></trkpt><trkpt lat="42.7518879" lon="11.7484409"><ele>448.0</ele><time>2026-04-11T12:39:07.396Z</time></trkpt><trkpt lat="42.7520232" lon="11.7484411"><ele>448.0</ele><time>2026-04-11T12:39:08.388Z</time></trkpt><trkpt lat="42.7521668" lon="11.7484451"><ele>450.25</ele><time>2026-04-11T12:39:09.389Z</time></trkpt><trkpt lat="42.7522966" lon="11.7484721"><ele>452.5</ele><time>2026-04-11T12:39:10.388Z</time></trkpt><trkpt lat="42.7524219" lon="11.7484997"><ele>454.75</ele><time>2026-04-11T12:39:11.385Z</time></trkpt><trkpt lat="42.7525506" lon="11.7485313"><ele>457.0</ele><time>2026-04-11T12:39:12.391Z</time></trkpt><trkpt lat="42.7526586" lon="11.7485488"><ele>458.33333333333337</ele><time>2026-04-11T12:39:13.393Z</time></trkpt><trkpt lat="42.7527604" lon="11.748573"><ele>459.6666666666667</ele><time>2026-04-11T12:39:14.395Z</time></trkpt><trkpt lat="42.7528455" lon="11.7485799"><ele>461.0</ele><time>2026-04-11T12:39:15.389Z</time></trkpt><trkpt lat="42.7529099" lon="11.7485921"><ele>462.33333333333337</ele><time>2026-04-11T12:39:16.386Z</time></trkpt><trkpt lat="42.7529777" lon="11.7486457"><ele>463.6666666666667</ele><time>2026-04-11T12:39:19.392Z</time></trkpt><trkpt lat="42.7529627" lon="11.7487544"><ele>465.0</ele><time>2026-04-11T12:39:21.382Z</time></trkpt><trkpt lat="42.7529068" lon="11.7488412"><ele>465.0</ele><time>2026-04-11T12:39:22.393Z</time></trkpt><trkpt lat="42.7528539" lon="11.748951"><ele>465.0</ele><time>2026-04-11T12:39:23.399Z</time></trkpt><trkpt lat="42.7528183" lon="11.7490643"><ele>465.0</ele><time>2026-04-11T12:39:24.406Z</time></trkpt><trkpt lat="42.7527685" lon="11.7492263"><ele>465.0</ele><time>2026-04-11T12:39:25.405Z</time></trkpt><trkpt lat="42.7527195" lon="11.7494005"><ele>463.25</ele><time>2026-04-11T12:39:26.403Z</time></trkpt><trkpt lat="42.7526775" lon="11.7495783"><ele>461.5</ele><time>2026-04-11T12:39:27.406Z</time></trkpt><trkpt lat="42.7526355" lon="11.7497767"><ele>459.75</ele><time>2026-04-11T12:39:28.42Z</time></trkpt><trkpt lat="42.7525964" lon="11.749979"><ele>458.0</ele><time>2026-04-11T12:39:29.416Z</time></trkpt><trkpt lat="42.7525613" lon="11.7502225"><ele>457.3333333333333</ele><time>2026-04-11T12:39:30.417Z</time></trkpt><trkpt lat="42.752508" lon="11.7504305"><ele>456.66666666666663</ele><time>2026-04-11T12:39:31.414Z</time></trkpt><trkpt lat="42.7524604" lon="11.7506609"><ele>456.0</ele><time>2026-04-11T12:39:32.44Z</time></trkpt><trkpt lat="42.7524009" lon="11.7508693"><ele>456.0</ele><time>2026-04-11T12:39:33.417Z</time></trkpt><trkpt lat="42.7523448" lon="11.7510393"><ele>456.0</ele><time>2026-04-11T12:39:34.411Z</time></trkpt><trkpt lat="42.7523145" lon="11.7511949"><ele>456.0</ele><time>2026-04-11T12:39:35.407Z</time></trkpt><trkpt lat="42.7522572" lon="11.7513225"><ele>456.0</ele><time>2026-04-11T12:39:36.418Z</time></trkpt><trkpt lat="42.7521885" lon="11.7514976"><ele>456.66666666666663</ele><time>2026-04-11T12:39:37.422Z</time></trkpt><trkpt lat="42.7520345" lon="11.7516447"><ele>457.3333333333333</ele><time>2026-04-11T12:39:38.419Z</time></trkpt><trkpt lat="42.7518697" lon="11.7517405"><ele>458.0</ele><time>2026-04-11T12:39:39.404Z</time></trkpt><trkpt lat="42.7516896" lon="11.7518315"><ele>460.0</ele><time>2026-04-11T12:39:40.408Z</time></trkpt><trkpt lat="42.7515384" lon="11.7519269"><ele>462.0</ele><time>2026-04-11T12:39:41.403Z</time></trkpt><trkpt lat="42.7513845" lon="11.7520297"><ele>464.0</ele><time>2026-04-11T12:39:42.399Z</time></trkpt><trkpt lat="42.751221" lon="11.7521224"><ele>464.0</ele><time>2026-04-11T12:39:43.397Z</time></trkpt><trkpt lat="42.7510521" lon="11.7522065"><ele>464.0</ele><time>2026-04-11T12:39:44.389Z</time></trkpt><trkpt lat="42.7508946" lon="11.7522832"><ele>464.0</ele><time>2026-04-11T12:39:45.389Z</time></trkpt><trkpt lat="42.7507487" lon="11.7523839"><ele>464.66666666666663</ele><time>2026-04-11T12:39:46.388Z</time></trkpt><trkpt lat="42.7506028" lon="11.7525039"><ele>465.33333333333337</ele><time>2026-04-11T12:39:47.391Z</time></trkpt><trkpt lat="42.7504437" lon="11.7526172"><ele>466.0</ele><time>2026-04-11T12:39:48.383Z</time></trkpt><trkpt lat="42.7503039" lon="11.7527814"><ele>459.0</ele><time>2026-04-11T12:39:49.387Z</time></trkpt><trkpt lat="42.7501814" lon="11.7529538"><ele>452.0</ele><time>2026-04-11T12:39:50.383Z</time></trkpt><trkpt lat="42.7500733" lon="11.7531553"><ele>445.0</ele><time>2026-04-11T12:39:51.39Z</time></trkpt><trkpt lat="42.7499832" lon="11.7534038"><ele>446.33333333333337</ele><time>2026-04-11T12:39:52.397Z</time></trkpt><trkpt lat="42.7498764" lon="11.753638"><ele>447.66666666666663</ele><time>2026-04-11T12:39:53.396Z</time></trkpt><trkpt lat="42.7497751" lon="11.7538636"><ele>449.0</ele><time>2026-04-11T12:39:54.397Z</time></trkpt><trkpt lat="42.7496577" lon="11.7541171"><ele>449.0</ele><time>2026-04-11T12:39:55.396Z</time></trkpt><trkpt lat="42.7495472" lon="11.7543588"><ele>449.0</ele><time>2026-04-11T12:39:56.393Z</time></trkpt><trkpt lat="42.7494424" lon="11.7546179"><ele>449.0</ele><time>2026-04-11T12:39:57.399Z</time></trkpt><trkpt lat="42.7493349" lon="11.7548962"><ele>442.5</ele><time>2026-04-11T12:39:58.4Z</time></trkpt><trkpt lat="42.7492222" lon="11.7551734"><ele>436.0</ele><time>2026-04-11T12:39:59.398Z</time></trkpt><trkpt lat="42.749109" lon="11.7554447"><ele>436.0</ele><time>2026-04-11T12:40:00.397Z</time></trkpt><trkpt lat="42.7489773" lon="11.7557393"><ele>436.0</ele><time>2026-04-11T12:40:01.4Z</time></trkpt><trkpt lat="42.7488574" lon="11.7560334"><ele>439.5</ele><time>2026-04-11T12:40:02.4Z</time></trkpt><trkpt lat="42.7487204" lon="11.7563063"><ele>443.0</ele><time>2026-04-11T12:40:03.386Z</time></trkpt><trkpt lat="42.7486017" lon="11.7565788"><ele>439.0</ele><time>2026-04-11T12:40:04.395Z</time></trkpt><trkpt lat="42.7484684" lon="11.7568514"><ele>435.0</ele><time>2026-04-11T12:40:05.39Z</time></trkpt><trkpt lat="42.7483311" lon="11.7571511"><ele>435.0</ele><time>2026-04-11T12:40:06.387Z</time></trkpt><trkpt lat="42.7482092" lon="11.7574354"><ele>435.0</ele><time>2026-04-11T12:40:07.388Z</time></trkpt><trkpt lat="42.7480955" lon="11.7577305"><ele>436.5</ele><time>2026-04-11T12:40:08.39Z</time></trkpt><trkpt lat="42.747975" lon="11.758015"><ele>438.0</ele><time>2026-04-11T12:40:09.388Z</time></trkpt><trkpt lat="42.747825" lon="11.7583142"><ele>434.0</ele><time>2026-04-11T12:40:10.388Z</time></trkpt><trkpt lat="42.7477095" lon="11.7585759"><ele>430.0</ele><time>2026-04-11T12:40:11.393Z</time></trkpt><trkpt lat="42.7475817" lon="11.7588551"><ele>430.0</ele><time>2026-04-11T12:40:12.393Z</time></trkpt><trkpt lat="42.7474431" lon="11.7591537"><ele>430.0</ele><time>2026-04-11T12:40:13.402Z</time></trkpt><trkpt lat="42.7473127" lon="11.7594485"><ele>431.6666666666667</ele><time>2026-04-11T12:40:14.405Z</time></trkpt><trkpt lat="42.7472247" lon="11.75966"><ele>433.33333333333337</ele><time>2026-04-11T12:40:15.401Z</time></trkpt><trkpt lat="42.7471277" lon="11.7598908"><ele>435.0</ele><time>2026-04-11T12:40:16.404Z</time></trkpt><trkpt lat="42.7470192" lon="11.7601426"><ele>432.66666666666663</ele><time>2026-04-11T12:40:17.408Z</time></trkpt><trkpt lat="42.7469214" lon="11.7603776"><ele>430.3333333333333</ele><time>2026-04-11T12:40:18.403Z</time></trkpt><trkpt lat="42.7468267" lon="11.760591"><ele>428.0</ele><time>2026-04-11T12:40:19.404Z</time></trkpt><trkpt lat="42.7467334" lon="11.7607875"><ele>428.0</ele><time>2026-04-11T12:40:20.406Z</time></trkpt><trkpt lat="42.7466282" lon="11.7610158"><ele>428.0</ele><time>2026-04-11T12:40:21.406Z</time></trkpt><trkpt lat="42.7465444" lon="11.7612318"><ele>428.0</ele><time>2026-04-11T12:40:22.411Z</time></trkpt><trkpt lat="42.746462" lon="11.7613994"><ele>428.5</ele><time>2026-04-11T12:40:23.419Z</time></trkpt><trkpt lat="42.7463738" lon="11.7615956"><ele>429.0</ele><time>2026-04-11T12:40:24.41Z</time></trkpt><trkpt lat="42.7463066" lon="11.7617584"><ele>429.5</ele><time>2026-04-11T12:40:25.412Z</time></trkpt><trkpt lat="42.746238" lon="11.7619296"><ele>430.0</ele><time>2026-04-11T12:40:26.413Z</time></trkpt><trkpt lat="42.7461531" lon="11.7621127"><ele>430.33333333333337</ele><time>2026-04-11T12:40:27.407Z</time></trkpt><trkpt lat="42.7460719" lon="11.7622988"><ele>430.66666666666663</ele><time>2026-04-11T12:40:28.412Z</time></trkpt><trkpt lat="42.745978" lon="11.7624935"><ele>431.0</ele><time>2026-04-11T12:40:29.416Z</time></trkpt><trkpt lat="42.7459002" lon="11.7626418"><ele>428.75</ele><time>2026-04-11T12:40:30.415Z</time></trkpt><trkpt lat="42.7458306" lon="11.7628196"><ele>426.5</ele><time>2026-04-11T12:40:31.415Z</time></trkpt><trkpt lat="42.7457723" lon="11.7629715"><ele>424.25</ele><time>2026-04-11T12:40:32.411Z</time></trkpt><trkpt lat="42.7457274" lon="11.7630942"><ele>422.0</ele><time>2026-04-11T12:40:33.424Z</time></trkpt><trkpt lat="42.7456799" lon="11.7632255"><ele>421.99999999999994</ele><time>2026-04-11T12:40:34.401Z</time></trkpt><trkpt lat="42.7456464" lon="11.7633311"><ele>422.0</ele><time>2026-04-11T12:40:35.4Z</time></trkpt><trkpt lat="42.7455624" lon="11.7634074"><ele>422.0</ele><time>2026-04-11T12:40:36.406Z</time></trkpt><trkpt lat="42.745491" lon="11.7634281"><ele>422.0</ele><time>2026-04-11T12:40:37.411Z</time></trkpt><trkpt lat="42.7454275" lon="11.7634418"><ele>421.99999999999994</ele><time>2026-04-11T12:40:38.404Z</time></trkpt><trkpt lat="42.7453289" lon="11.7633834"><ele>422.0</ele><time>2026-04-11T12:40:40.407Z</time></trkpt><trkpt lat="42.7452769" lon="11.76331"><ele>421.16666666666663</ele><time>2026-04-11T12:40:42.408Z</time></trkpt><trkpt lat="42.7452111" lon="11.7632966"><ele>420.3333333333333</ele><time>2026-04-11T12:40:49.416Z</time></trkpt><trkpt lat="42.7451562" lon="11.7632352"><ele>419.5</ele><time>2026-04-11T12:41:56.419Z</time></trkpt><trkpt lat="42.7451044" lon="11.7631628"><ele>418.66666666666663</ele><time>2026-04-11T12:41:58.423Z</time></trkpt><trkpt lat="42.7450216" lon="11.7630674"><ele>417.8333333333333</ele><time>2026-04-11T12:42:00.431Z</time></trkpt><trkpt lat="42.744972" lon="11.7629868"><ele>417.0</ele><time>2026-04-11T12:42:02.426Z</time></trkpt><trkpt lat="42.7449157" lon="11.7629471"><ele>417.0</ele><time>2026-04-11T12:45:21.423Z</time></trkpt><trkpt lat="42.7448513" lon="11.762912"><ele>417.0</ele><time>2026-04-11T12:45:23.412Z</time></trkpt><trkpt lat="42.7447884" lon="11.762851"><ele>417.0</ele><time>2026-04-11T12:45:24.402Z</time></trkpt><trkpt lat="42.7447077" lon="11.7627964"><ele>417.0</ele><time>2026-04-11T12:45:25.412Z</time></trkpt><trkpt lat="42.7446133" lon="11.7627533"><ele>417.0</ele><time>2026-04-11T12:45:26.391Z</time></trkpt><trkpt lat="42.7445073" lon="11.7627139"><ele>417.0</ele><time>2026-04-11T12:45:27.389Z</time></trkpt><trkpt lat="42.7443917" lon="11.7626783"><ele>417.25</ele><time>2026-04-11T12:45:28.381Z</time></trkpt><trkpt lat="42.7442582" lon="11.7626766"><ele>417.5</ele><time>2026-04-11T12:45:29.379Z</time></trkpt><trkpt lat="42.7441141" lon="11.7627339"><ele>417.75</ele><time>2026-04-11T12:45:30.389Z</time></trkpt><trkpt lat="42.7439612" lon="11.7628172"><ele>418.0</ele><time>2026-04-11T12:45:31.385Z</time></trkpt><trkpt lat="42.7438059" lon="11.7629291"><ele>418.0</ele><time>2026-04-11T12:45:32.384Z</time></trkpt><trkpt lat="42.7436589" lon="11.7630385"><ele>418.0</ele><time>2026-04-11T12:45:33.397Z</time></trkpt><trkpt lat="42.7435106" lon="11.7631622"><ele>418.0</ele><time>2026-04-11T12:45:34.391Z</time></trkpt><trkpt lat="42.7433683" lon="11.7632947"><ele>417.5</ele><time>2026-04-11T12:45:35.394Z</time></trkpt><trkpt lat="42.7432537" lon="11.7634242"><ele>417.0</ele><time>2026-04-11T12:45:36.39Z</time></trkpt><trkpt lat="42.7431565" lon="11.7635624"><ele>416.5</ele><time>2026-04-11T12:45:37.405Z</time></trkpt><trkpt lat="42.743061" lon="11.7637367"><ele>416.0</ele><time>2026-04-11T12:45:38.407Z</time></trkpt><trkpt lat="42.7429649" lon="11.7638718"><ele>416.0</ele><time>2026-04-11T12:45:39.405Z</time></trkpt><trkpt lat="42.7429115" lon="11.7639793"><ele>416.0</ele><time>2026-04-11T12:45:40.399Z</time></trkpt><trkpt lat="42.7428177" lon="11.7640441"><ele>416.0</ele><time>2026-04-11T12:45:41.396Z</time></trkpt><trkpt lat="42.7427057" lon="11.7640294"><ele>416.0</ele><time>2026-04-11T12:45:42.406Z</time></trkpt><trkpt lat="42.7426292" lon="11.7639547"><ele>416.0</ele><time>2026-04-11T12:45:43.4Z</time></trkpt><trkpt lat="42.7425535" lon="11.7638824"><ele>415.75</ele><time>2026-04-11T12:45:44.396Z</time></trkpt><trkpt lat="42.7424748" lon="11.7637175"><ele>415.5</ele><time>2026-04-11T12:45:45.398Z</time></trkpt><trkpt lat="42.7423919" lon="11.7635652"><ele>415.25</ele><time>2026-04-11T12:45:46.401Z</time></trkpt><trkpt lat="42.7423065" lon="11.763424"><ele>415.0</ele><time>2026-04-11T12:45:47.401Z</time></trkpt><trkpt lat="42.7421645" lon="11.7632848"><ele>415.0</ele><time>2026-04-11T12:45:48.405Z</time></trkpt><trkpt lat="42.7420074" lon="11.7631138"><ele>415.0</ele><time>2026-04-11T12:45:49.419Z</time></trkpt><trkpt lat="42.7419133" lon="11.7629252"><ele>415.0</ele><time>2026-04-11T12:45:50.414Z</time></trkpt><trkpt lat="42.7418399" lon="11.7627831"><ele>416.0</ele><time>2026-04-11T12:45:51.416Z</time></trkpt><trkpt lat="42.7417335" lon="11.7626594"><ele>417.0</ele><time>2026-04-11T12:45:52.411Z</time></trkpt><trkpt lat="42.741624" lon="11.7625104"><ele>418.0</ele><time>2026-04-11T12:45:53.417Z</time></trkpt><trkpt lat="42.7414962" lon="11.7623743"><ele>418.0</ele><time>2026-04-11T12:45:54.413Z</time></trkpt><trkpt lat="42.7413895" lon="11.7622008"><ele>418.0</ele><time>2026-04-11T12:45:55.412Z</time></trkpt><trkpt lat="42.7413217" lon="11.7620302"><ele>418.0</ele><time>2026-04-11T12:45:56.409Z</time></trkpt><trkpt lat="42.741255" lon="11.7618817"><ele>418.0</ele><time>2026-04-11T12:45:57.408Z</time></trkpt><trkpt lat="42.7412154" lon="11.7617778"><ele>418.4</ele><time>2026-04-11T12:45:58.411Z</time></trkpt><trkpt lat="42.7411609" lon="11.7616056"><ele>418.79999999999995</ele><time>2026-04-11T12:45:59.407Z</time></trkpt><trkpt lat="42.741094" lon="11.7614963"><ele>419.2</ele><time>2026-04-11T12:46:00.403Z</time></trkpt><trkpt lat="42.7410159" lon="11.7614295"><ele>419.6</ele><time>2026-04-11T12:46:01.406Z</time></trkpt><trkpt lat="42.7409365" lon="11.76135"><ele>420.0</ele><time>2026-04-11T12:46:02.397Z</time></trkpt><trkpt lat="42.7408245" lon="11.7613097"><ele>420.0</ele><time>2026-04-11T12:46:03.399Z</time></trkpt><trkpt lat="42.7406901" lon="11.7612975"><ele>420.0</ele><time>2026-04-11T12:46:04.401Z</time></trkpt><trkpt lat="42.7405648" lon="11.7612507"><ele>420.0</ele><time>2026-04-11T12:46:05.403Z</time></trkpt><trkpt lat="42.7404304" lon="11.7611874"><ele>420.0</ele><time>2026-04-11T12:46:06.408Z</time></trkpt><trkpt lat="42.7403127" lon="11.7610989"><ele>420.0</ele><time>2026-04-11T12:46:07.405Z</time></trkpt><trkpt lat="42.7402058" lon="11.7609702"><ele>420.0</ele><time>2026-04-11T12:46:08.398Z</time></trkpt><trkpt lat="42.7401015" lon="11.7608147"><ele>420.0</ele><time>2026-04-11T12:46:09.404Z</time></trkpt><trkpt lat="42.7400196" lon="11.7606241"><ele>420.0</ele><time>2026-04-11T12:46:10.397Z</time></trkpt><trkpt lat="42.7399514" lon="11.7604106"><ele>420.0</ele><time>2026-04-11T12:46:11.409Z</time></trkpt><trkpt lat="42.739864" lon="11.7602452"><ele>420.0</ele><time>2026-04-11T12:46:12.404Z</time></trkpt><trkpt lat="42.7397536" lon="11.7601055"><ele>419.66666666666663</ele><time>2026-04-11T12:46:13.411Z</time></trkpt><trkpt lat="42.7396007" lon="11.7599856"><ele>419.3333333333333</ele><time>2026-04-11T12:46:14.406Z</time></trkpt><trkpt lat="42.7394311" lon="11.7599062"><ele>419.0</ele><time>2026-04-11T12:46:15.4Z</time></trkpt><trkpt lat="42.7392826" lon="11.7598012"><ele>419.6</ele><time>2026-04-11T12:46:16.394Z</time></trkpt><trkpt lat="42.739175" lon="11.7597984"><ele>420.2</ele><time>2026-04-11T12:46:17.399Z</time></trkpt><trkpt lat="42.7390715" lon="11.759795"><ele>420.8</ele><time>2026-04-11T12:46:18.396Z</time></trkpt><trkpt lat="42.7389633" lon="11.7597812"><ele>421.40000000000003</ele><time>2026-04-11T12:46:19.403Z</time></trkpt><trkpt lat="42.7388589" lon="11.7597609"><ele>422.0</ele><time>2026-04-11T12:46:20.401Z</time></trkpt><trkpt lat="42.7387361" lon="11.7597574"><ele>421.99999999999994</ele><time>2026-04-11T12:46:21.397Z</time></trkpt><trkpt lat="42.7386514" lon="11.7597375"><ele>422.0</ele><time>2026-04-11T12:46:22.396Z</time></trkpt><trkpt lat="42.7385787" lon="11.7597255"><ele>422.0</ele><time>2026-04-11T12:46:23.399Z</time></trkpt><trkpt lat="42.7385219" lon="11.7596729"><ele>422.0</ele><time>2026-04-11T12:46:27.394Z</time></trkpt><trkpt lat="42.7384611" lon="11.7596143"><ele>421.99999999999994</ele><time>2026-04-11T12:46:29.382Z</time></trkpt><trkpt lat="42.7383286" lon="11.7595296"><ele>422.0</ele><time>2026-04-11T12:46:31.381Z</time></trkpt><trkpt lat="42.7382577" lon="11.7594396"><ele>425.3333333333333</ele><time>2026-04-11T12:46:32.387Z</time></trkpt><trkpt lat="42.7381664" lon="11.7593151"><ele>428.66666666666663</ele><time>2026-04-11T12:46:33.38Z</time></trkpt><trkpt lat="42.738057" lon="11.759145"><ele>432.0</ele><time>2026-04-11T12:46:34.378Z</time></trkpt><trkpt lat="42.7379357" lon="11.7589632"><ele>434.5</ele><time>2026-04-11T12:46:35.38Z</time></trkpt><trkpt lat="42.7377154" lon="11.7586854"><ele>437.0</ele><time>2026-04-11T12:46:36.388Z</time></trkpt><trkpt lat="42.7375998" lon="11.7585069"><ele>437.0</ele><time>2026-04-11T12:46:37.388Z</time></trkpt><trkpt lat="42.7374583" lon="11.7583863"><ele>437.0</ele><time>2026-04-11T12:46:38.388Z</time></trkpt><trkpt lat="42.7373168" lon="11.7582634"><ele>437.0</ele><time>2026-04-11T12:46:39.384Z</time></trkpt><trkpt lat="42.7371717" lon="11.7582554"><ele>437.0</ele><time>2026-04-11T12:46:40.385Z</time></trkpt><trkpt lat="42.7370309" lon="11.7582171"><ele>437.0</ele><time>2026-04-11T12:46:41.379Z</time></trkpt><trkpt lat="42.7368632" lon="11.7581931"><ele>437.0</ele><time>2026-04-11T12:46:42.373Z</time></trkpt><trkpt lat="42.7366618" lon="11.7581972"><ele>434.3333333333333</ele><time>2026-04-11T12:46:43.382Z</time></trkpt><trkpt lat="42.736471" lon="11.7582307"><ele>431.66666666666663</ele><time>2026-04-11T12:46:44.41Z</time></trkpt><trkpt lat="42.7362942" lon="11.7582073"><ele>429.0</ele><time>2026-04-11T12:46:45.397Z</time></trkpt><trkpt lat="42.7361395" lon="11.758161"><ele>428.33333333333337</ele><time>2026-04-11T12:46:46.401Z</time></trkpt><trkpt lat="42.7359519" lon="11.758039"><ele>427.6666666666667</ele><time>2026-04-11T12:46:47.403Z</time></trkpt><trkpt lat="42.7357789" lon="11.7579112"><ele>427.0</ele><time>2026-04-11T12:46:48.397Z</time></trkpt><trkpt lat="42.7356474" lon="11.7577246"><ele>431.5</ele><time>2026-04-11T12:46:49.401Z</time></trkpt><trkpt lat="42.7354274" lon="11.7575139"><ele>436.0</ele><time>2026-04-11T12:46:50.386Z</time></trkpt><trkpt lat="42.73526" lon="11.757381"><ele>433.0</ele><time>2026-04-11T12:46:51.381Z</time></trkpt><trkpt lat="42.7350711" lon="11.7571956"><ele>430.0</ele><time>2026-04-11T12:46:52.37Z</time></trkpt><trkpt lat="42.7348113" lon="11.7571084"><ele>430.0</ele><time>2026-04-11T12:46:53.368Z</time></trkpt><trkpt lat="42.7346853" lon="11.75697"><ele>430.0</ele><time>2026-04-11T12:46:54.384Z</time></trkpt><trkpt lat="42.7345203" lon="11.7569173"><ele>430.0</ele><time>2026-04-11T12:46:55.399Z</time></trkpt><trkpt lat="42.7343548" lon="11.756747"><ele>431.0</ele><time>2026-04-11T12:46:56.405Z</time></trkpt><trkpt lat="42.7341795" lon="11.7566129"><ele>432.0</ele><time>2026-04-11T12:46:57.398Z</time></trkpt><trkpt lat="42.7340601" lon="11.756458"><ele>433.0</ele><time>2026-04-11T12:46:58.395Z</time></trkpt><trkpt lat="42.7339273" lon="11.7563785"><ele>433.0</ele><time>2026-04-11T12:46:59.394Z</time></trkpt><trkpt lat="42.733841" lon="11.7563608"><ele>433.0</ele><time>2026-04-11T12:47:00.387Z</time></trkpt><trkpt lat="42.7337441" lon="11.7562485"><ele>433.0</ele><time>2026-04-11T12:47:01.383Z</time></trkpt><trkpt lat="42.733677" lon="11.7561011"><ele>433.0</ele><time>2026-04-11T12:47:02.379Z</time></trkpt><trkpt lat="42.7336015" lon="11.7559136"><ele>432.25</ele><time>2026-04-11T12:47:03.376Z</time></trkpt><trkpt lat="42.7335352" lon="11.7557155"><ele>431.5</ele><time>2026-04-11T12:47:04.376Z</time></trkpt><trkpt lat="42.7335464" lon="11.7555603"><ele>430.75</ele><time>2026-04-11T12:47:05.379Z</time></trkpt><trkpt lat="42.733508" lon="11.7554095"><ele>430.0</ele><time>2026-04-11T12:47:06.391Z</time></trkpt><trkpt lat="42.7334276" lon="11.7552233"><ele>430.25</ele><time>2026-04-11T12:47:07.385Z</time></trkpt><trkpt lat="42.7333281" lon="11.7550105"><ele>430.5</ele><time>2026-04-11T12:47:08.384Z</time></trkpt><trkpt lat="42.7332646" lon="11.7548278"><ele>430.75</ele><time>2026-04-11T12:47:09.392Z</time></trkpt><trkpt lat="42.7332132" lon="11.7547048"><ele>431.0</ele><time>2026-04-11T12:47:10.393Z</time></trkpt><trkpt lat="42.7331632" lon="11.7546483"><ele>431.0</ele><time>2026-04-11T12:47:11.387Z</time></trkpt><trkpt lat="42.7331757" lon="11.7545369"><ele>431.0</ele><time>2026-04-11T12:47:12.389Z</time></trkpt><trkpt lat="42.7331058" lon="11.7545298"><ele>431.0</ele><time>2026-04-11T12:47:15.399Z</time></trkpt><trkpt lat="42.7329968" lon="11.7545945"><ele>431.0</ele><time>2026-04-11T12:47:16.384Z</time></trkpt><trkpt lat="42.7328859" lon="11.7546627"><ele>431.0</ele><time>2026-04-11T12:47:17.388Z</time></trkpt><trkpt lat="42.7328058" lon="11.7547453"><ele>430.0</ele><time>2026-04-11T12:47:18.399Z</time></trkpt><trkpt lat="42.7326789" lon="11.7548127"><ele>429.0</ele><time>2026-04-11T12:47:19.391Z</time></trkpt><trkpt lat="42.7325373" lon="11.7549004"><ele>428.0</ele><time>2026-04-11T12:47:20.388Z</time></trkpt><trkpt lat="42.7323698" lon="11.7549886"><ele>428.0</ele><time>2026-04-11T12:47:21.386Z</time></trkpt><trkpt lat="42.7321961" lon="11.7550812"><ele>428.0</ele><time>2026-04-11T12:47:22.39Z</time></trkpt><trkpt lat="42.7320146" lon="11.755174"><ele>428.0</ele><time>2026-04-11T12:47:23.382Z</time></trkpt><trkpt lat="42.7318164" lon="11.7553012"><ele>432.66666666666663</ele><time>2026-04-11T12:47:24.377Z</time></trkpt><trkpt lat="42.7316325" lon="11.7554242"><ele>437.33333333333337</ele><time>2026-04-11T12:47:25.384Z</time></trkpt><trkpt lat="42.7314426" lon="11.7555314"><ele>442.0</ele><time>2026-04-11T12:47:26.386Z</time></trkpt><trkpt lat="42.731275" lon="11.7556311"><ele>442.0</ele><time>2026-04-11T12:47:27.382Z</time></trkpt><trkpt lat="42.7310903" lon="11.7557541"><ele>442.0</ele><time>2026-04-11T12:47:28.374Z</time></trkpt><trkpt lat="42.7309105" lon="11.7558386"><ele>442.0</ele><time>2026-04-11T12:47:29.377Z</time></trkpt><trkpt lat="42.7306945" lon="11.755965"><ele>443.6666666666667</ele><time>2026-04-11T12:47:30.385Z</time></trkpt><trkpt lat="42.7305034" lon="11.7560944"><ele>445.33333333333337</ele><time>2026-04-11T12:47:31.398Z</time></trkpt><trkpt lat="42.7303229" lon="11.7562339"><ele>447.0</ele><time>2026-04-11T12:47:32.4Z</time></trkpt><trkpt lat="42.7301395" lon="11.7563362"><ele>447.0</ele><time>2026-04-11T12:47:33.402Z</time></trkpt><trkpt lat="42.7299399" lon="11.7564631"><ele>447.0</ele><time>2026-04-11T12:47:34.399Z</time></trkpt><trkpt lat="42.7297904" lon="11.7565556"><ele>447.0</ele><time>2026-04-11T12:47:35.397Z</time></trkpt><trkpt lat="42.7296141" lon="11.7566363"><ele>447.0</ele><time>2026-04-11T12:47:36.387Z</time></trkpt><trkpt lat="42.7294399" lon="11.7566769"><ele>447.0</ele><time>2026-04-11T12:47:37.391Z</time></trkpt><trkpt lat="42.7292769" lon="11.7566656"><ele>447.0</ele><time>2026-04-11T12:47:38.388Z</time></trkpt><trkpt lat="42.729103" lon="11.7565842"><ele>446.0</ele><time>2026-04-11T12:47:39.389Z</time></trkpt><trkpt lat="42.7288844" lon="11.7565319"><ele>445.0</ele><time>2026-04-11T12:47:40.389Z</time></trkpt><trkpt lat="42.7286775" lon="11.756469"><ele>444.0</ele><time>2026-04-11T12:47:41.396Z</time></trkpt><trkpt lat="42.7284862" lon="11.7564093"><ele>447.66666666666663</ele><time>2026-04-11T12:47:42.392Z</time></trkpt><trkpt lat="42.728281" lon="11.7563354"><ele>451.3333333333333</ele><time>2026-04-11T12:47:43.398Z</time></trkpt><trkpt lat="42.7280926" lon="11.7562675"><ele>455.0</ele><time>2026-04-11T12:47:44.391Z</time></trkpt><trkpt lat="42.7278694" lon="11.7561969"><ele>455.0</ele><time>2026-04-11T12:47:45.391Z</time></trkpt><trkpt lat="42.7276794" lon="11.7561721"><ele>455.0</ele><time>2026-04-11T12:47:46.393Z</time></trkpt><trkpt lat="42.7274832" lon="11.756155"><ele>455.0</ele><time>2026-04-11T12:47:47.384Z</time></trkpt><trkpt lat="42.7272683" lon="11.7562097"><ele>455.0</ele><time>2026-04-11T12:47:48.376Z</time></trkpt><trkpt lat="42.7270756" lon="11.7562546"><ele>455.0</ele><time>2026-04-11T12:47:49.375Z</time></trkpt><trkpt lat="42.7268797" lon="11.756324"><ele>455.0</ele><time>2026-04-11T12:47:50.372Z</time></trkpt><trkpt lat="42.7267132" lon="11.7563879"><ele>455.66666666666663</ele><time>2026-04-11T12:47:51.366Z</time></trkpt><trkpt lat="42.7265496" lon="11.756518"><ele>456.33333333333337</ele><time>2026-04-11T12:47:52.374Z</time></trkpt><trkpt lat="42.7264001" lon="11.7566518"><ele>457.0</ele><time>2026-04-11T12:47:53.38Z</time></trkpt><trkpt lat="42.726234" lon="11.7568451"><ele>458.33333333333337</ele><time>2026-04-11T12:47:54.384Z</time></trkpt><trkpt lat="42.726108" lon="11.7570512"><ele>459.66666666666663</ele><time>2026-04-11T12:47:55.39Z</time></trkpt><trkpt lat="42.7259597" lon="11.7572618"><ele>461.0</ele><time>2026-04-11T12:47:56.389Z</time></trkpt><trkpt lat="42.7258542" lon="11.7573778"><ele>461.0</ele><time>2026-04-11T12:47:57.383Z</time></trkpt><trkpt lat="42.725773" lon="11.7575896"><ele>461.0</ele><time>2026-04-11T12:47:58.388Z</time></trkpt><trkpt lat="42.7257047" lon="11.7578782"><ele>461.0</ele><time>2026-04-11T12:47:59.387Z</time></trkpt><trkpt lat="42.7257416" lon="11.7581714"><ele>465.0</ele><time>2026-04-11T12:48:00.403Z</time></trkpt><trkpt lat="42.7257441" lon="11.7585052"><ele>469.0</ele><time>2026-04-11T12:48:01.404Z</time></trkpt><trkpt lat="42.7257093" lon="11.7587851"><ele>470.6666666666667</ele><time>2026-04-11T12:48:02.397Z</time></trkpt><trkpt lat="42.7256884" lon="11.7590593"><ele>472.33333333333337</ele><time>2026-04-11T12:48:03.401Z</time></trkpt><trkpt lat="42.7256601" lon="11.759341"><ele>474.0</ele><time>2026-04-11T12:48:04.395Z</time></trkpt><trkpt lat="42.7256005" lon="11.7596061"><ele>474.33333333333337</ele><time>2026-04-11T12:48:05.39Z</time></trkpt><trkpt lat="42.7255248" lon="11.7598254"><ele>474.6666666666667</ele><time>2026-04-11T12:48:06.397Z</time></trkpt><trkpt lat="42.7254312" lon="11.7600254"><ele>475.0</ele><time>2026-04-11T12:48:07.4Z</time></trkpt><trkpt lat="42.7253591" lon="11.7602373"><ele>475.0</ele><time>2026-04-11T12:48:08.396Z</time></trkpt><trkpt lat="42.7253216" lon="11.7604074"><ele>475.0</ele><time>2026-04-11T12:48:09.388Z</time></trkpt><trkpt lat="42.7252743" lon="11.7605477"><ele>475.0</ele><time>2026-04-11T12:48:10.393Z</time></trkpt><trkpt lat="42.7252148" lon="11.7606704"><ele>475.0</ele><time>2026-04-11T12:48:11.389Z</time></trkpt><trkpt lat="42.7251747" lon="11.760772"><ele>475.0</ele><time>2026-04-11T12:48:12.403Z</time></trkpt><trkpt lat="42.7251444" lon="11.760879"><ele>475.2</ele><time>2026-04-11T12:48:13.397Z</time></trkpt><trkpt lat="42.7250845" lon="11.760974"><ele>475.4</ele><time>2026-04-11T12:48:14.409Z</time></trkpt><trkpt lat="42.725015" lon="11.7610489"><ele>475.6</ele><time>2026-04-11T12:48:15.404Z</time></trkpt><trkpt lat="42.7249224" lon="11.7611042"><ele>475.8</ele><time>2026-04-11T12:48:16.409Z</time></trkpt><trkpt lat="42.7248156" lon="11.7611392"><ele>476.0</ele><time>2026-04-11T12:48:17.425Z</time></trkpt><trkpt lat="42.7247042" lon="11.7611405"><ele>476.0</ele><time>2026-04-11T12:48:18.415Z</time></trkpt><trkpt lat="42.7245939" lon="11.7610806"><ele>476.0</ele><time>2026-04-11T12:48:19.427Z</time></trkpt><trkpt lat="42.7244695" lon="11.7609799"><ele>476.0</ele><time>2026-04-11T12:48:20.417Z</time></trkpt><trkpt lat="42.7243408" lon="11.7608893"><ele>476.0</ele><time>2026-04-11T12:48:21.416Z</time></trkpt><trkpt lat="42.7241979" lon="11.7608246"><ele>475.75</ele><time>2026-04-11T12:48:22.416Z</time></trkpt><trkpt lat="42.7240322" lon="11.7607659"><ele>475.5</ele><time>2026-04-11T12:48:23.419Z</time></trkpt><trkpt lat="42.7239016" lon="11.7607708"><ele>475.25</ele><time>2026-04-11T12:48:24.421Z</time></trkpt><trkpt lat="42.7237671" lon="11.7608189"><ele>475.0</ele><time>2026-04-11T12:48:25.421Z</time></trkpt><trkpt lat="42.7236256" lon="11.7608582"><ele>474.6666666666667</ele><time>2026-04-11T12:48:26.423Z</time></trkpt><trkpt lat="42.7234606" lon="11.7608905"><ele>474.33333333333337</ele><time>2026-04-11T12:48:27.415Z</time></trkpt><trkpt lat="42.7233018" lon="11.7609185"><ele>474.0</ele><time>2026-04-11T12:48:28.417Z</time></trkpt><trkpt lat="42.7231036" lon="11.7609385"><ele>474.0</ele><time>2026-04-11T12:48:29.415Z</time></trkpt><trkpt lat="42.7228972" lon="11.7609714"><ele>474.0</ele><time>2026-04-11T12:48:30.408Z</time></trkpt><trkpt lat="42.7226932" lon="11.7609941"><ele>474.0</ele><time>2026-04-11T12:48:31.424Z</time></trkpt><trkpt lat="42.7224628" lon="11.7610199"><ele>474.0</ele><time>2026-04-11T12:48:32.426Z</time></trkpt><trkpt lat="42.7222391" lon="11.7610307"><ele>474.0</ele><time>2026-04-11T12:48:33.431Z</time></trkpt><trkpt lat="42.7220271" lon="11.7610292"><ele>474.0</ele><time>2026-04-11T12:48:34.426Z</time></trkpt><trkpt lat="42.7218103" lon="11.7610194"><ele>472.5</ele><time>2026-04-11T12:48:35.413Z</time></trkpt><trkpt lat="42.721575" lon="11.7610182"><ele>471.0</ele><time>2026-04-11T12:48:36.413Z</time></trkpt><trkpt lat="42.7213553" lon="11.7610185"><ele>471.0</ele><time>2026-04-11T12:48:37.414Z</time></trkpt><trkpt lat="42.7211342" lon="11.7610323"><ele>471.0</ele><time>2026-04-11T12:48:38.417Z</time></trkpt><trkpt lat="42.7209179" lon="11.7610334"><ele>471.0</ele><time>2026-04-11T12:48:39.412Z</time></trkpt><trkpt lat="42.7207196" lon="11.7610498"><ele>471.33333333333337</ele><time>2026-04-11T12:48:40.414Z</time></trkpt><trkpt lat="42.7205296" lon="11.7610149"><ele>471.6666666666667</ele><time>2026-04-11T12:48:41.414Z</time></trkpt><trkpt lat="42.7203108" lon="11.7609747"><ele>472.0</ele><time>2026-04-11T12:48:42.416Z</time></trkpt><trkpt lat="42.7200828" lon="11.7609246"><ele>472.0</ele><time>2026-04-11T12:48:43.415Z</time></trkpt><trkpt lat="42.7198743" lon="11.7608468"><ele>472.0</ele><time>2026-04-11T12:48:44.415Z</time></trkpt><trkpt lat="42.7196822" lon="11.7607757"><ele>472.0</ele><time>2026-04-11T12:48:45.413Z</time></trkpt><trkpt lat="42.7194762" lon="11.7607047"><ele>472.0</ele><time>2026-04-11T12:48:46.411Z</time></trkpt><trkpt lat="42.7192524" lon="11.760624"><ele>472.0</ele><time>2026-04-11T12:48:47.414Z</time></trkpt><trkpt lat="42.7190442" lon="11.7605326"><ele>472.0</ele><time>2026-04-11T12:48:48.435Z</time></trkpt><trkpt lat="42.7188457" lon="11.760467"><ele>472.0</ele><time>2026-04-11T12:48:49.408Z</time></trkpt><trkpt lat="42.7186325" lon="11.7604024"><ele>472.0</ele><time>2026-04-11T12:48:50.404Z</time></trkpt><trkpt lat="42.7184417" lon="11.7603955"><ele>471.5</ele><time>2026-04-11T12:48:51.406Z</time></trkpt><trkpt lat="42.7182415" lon="11.7604702"><ele>471.0</ele><time>2026-04-11T12:48:52.401Z</time></trkpt><trkpt lat="42.7180098" lon="11.7605862"><ele>471.0</ele><time>2026-04-11T12:48:53.392Z</time></trkpt><trkpt lat="42.7178024" lon="11.7606723"><ele>471.0</ele><time>2026-04-11T12:48:54.409Z</time></trkpt><trkpt lat="42.7175819" lon="11.7607776"><ele>471.33333333333337</ele><time>2026-04-11T12:48:55.412Z</time></trkpt><trkpt lat="42.7173643" lon="11.7608743"><ele>471.6666666666667</ele><time>2026-04-11T12:48:56.411Z</time></trkpt><trkpt lat="42.7171726" lon="11.7609351"><ele>472.0</ele><time>2026-04-11T12:48:57.404Z</time></trkpt><trkpt lat="42.7169413" lon="11.7609934"><ele>471.0</ele><time>2026-04-11T12:48:58.407Z</time></trkpt><trkpt lat="42.7167134" lon="11.7610863"><ele>470.0</ele><time>2026-04-11T12:48:59.404Z</time></trkpt><trkpt lat="42.7165003" lon="11.7611547"><ele>470.0</ele><time>2026-04-11T12:49:00.396Z</time></trkpt><trkpt lat="42.7162968" lon="11.7612061"><ele>470.0</ele><time>2026-04-11T12:49:01.4Z</time></trkpt><trkpt lat="42.7161015" lon="11.7613041"><ele>470.0</ele><time>2026-04-11T12:49:02.394Z</time></trkpt><trkpt lat="42.7158788" lon="11.7613913"><ele>470.5</ele><time>2026-04-11T12:49:03.396Z</time></trkpt><trkpt lat="42.7156748" lon="11.7615631"><ele>471.0</ele><time>2026-04-11T12:49:04.397Z</time></trkpt><trkpt lat="42.7154789" lon="11.7617868"><ele>471.0</ele><time>2026-04-11T12:49:05.396Z</time></trkpt><trkpt lat="42.715303" lon="11.7620221"><ele>471.0</ele><time>2026-04-11T12:49:06.399Z</time></trkpt><trkpt lat="42.7151101" lon="11.7622868"><ele>471.0</ele><time>2026-04-11T12:49:07.405Z</time></trkpt><trkpt lat="42.7149249" lon="11.7625095"><ele>471.0</ele><time>2026-04-11T12:49:08.412Z</time></trkpt><trkpt lat="42.7147123" lon="11.7626977"><ele>470.0</ele><time>2026-04-11T12:49:09.406Z</time></trkpt><trkpt lat="42.7145026" lon="11.7629479"><ele>469.0</ele><time>2026-04-11T12:49:10.406Z</time></trkpt><trkpt lat="42.7143047" lon="11.7631417"><ele>468.5</ele><time>2026-04-11T12:49:11.405Z</time></trkpt><trkpt lat="42.7141221" lon="11.7633579"><ele>468.0</ele><time>2026-04-11T12:49:12.408Z</time></trkpt><trkpt lat="42.713908" lon="11.7635855"><ele>467.66666666666663</ele><time>2026-04-11T12:49:13.404Z</time></trkpt><trkpt lat="42.7137137" lon="11.763774"><ele>467.3333333333333</ele><time>2026-04-11T12:49:14.402Z</time></trkpt><trkpt lat="42.7135445" lon="11.7639384"><ele>467.0</ele><time>2026-04-11T12:49:15.397Z</time></trkpt><trkpt lat="42.7133931" lon="11.7640631"><ele>467.5</ele><time>2026-04-11T12:49:16.398Z</time></trkpt><trkpt lat="42.7132835" lon="11.7642285"><ele>468.0</ele><time>2026-04-11T12:49:17.396Z</time></trkpt><trkpt lat="42.71315" lon="11.7643488"><ele>468.5</ele><time>2026-04-11T12:49:18.406Z</time></trkpt><trkpt lat="42.7130876" lon="11.7644383"><ele>469.0</ele><time>2026-04-11T12:49:19.389Z</time></trkpt><trkpt lat="42.7130384" lon="11.7645065"><ele>469.0</ele><time>2026-04-11T12:49:20.384Z</time></trkpt><trkpt lat="42.7130405" lon="11.7646249"><ele>469.0</ele><time>2026-04-11T12:49:22.385Z</time></trkpt><trkpt lat="42.713123" lon="11.7647759"><ele>469.0</ele><time>2026-04-11T12:49:24.394Z</time></trkpt><trkpt lat="42.7131685" lon="11.7648939"><ele>469.0</ele><time>2026-04-11T12:49:25.389Z</time></trkpt><trkpt lat="42.7132134" lon="11.7650408"><ele>469.0</ele><time>2026-04-11T12:49:26.384Z</time></trkpt><trkpt lat="42.7132758" lon="11.7652394"><ele>469.75</ele><time>2026-04-11T12:49:27.38Z</time></trkpt><trkpt lat="42.7133062" lon="11.7654294"><ele>470.5</ele><time>2026-04-11T12:49:28.394Z</time></trkpt><trkpt lat="42.7133368" lon="11.7655986"><ele>471.25</ele><time>2026-04-11T12:49:29.393Z</time></trkpt><trkpt lat="42.7133918" lon="11.7657561"><ele>472.0</ele><time>2026-04-11T12:49:30.391Z</time></trkpt><trkpt lat="42.7134542" lon="11.7658757"><ele>472.0</ele><time>2026-04-11T12:49:31.385Z</time></trkpt><trkpt lat="42.7135459" lon="11.7660041"><ele>472.0</ele><time>2026-04-11T12:49:32.389Z</time></trkpt><trkpt lat="42.7136738" lon="11.7660998"><ele>472.0</ele><time>2026-04-11T12:49:33.387Z</time></trkpt><trkpt lat="42.7137941" lon="11.766209"><ele>472.0</ele><time>2026-04-11T12:49:34.385Z</time></trkpt><trkpt lat="42.7138978" lon="11.7663332"><ele>471.0</ele><time>2026-04-11T12:49:35.382Z</time></trkpt><trkpt lat="42.71399" lon="11.7665269"><ele>470.0</ele><time>2026-04-11T12:49:36.388Z</time></trkpt><trkpt lat="42.7139936" lon="11.7668044"><ele>469.0</ele><time>2026-04-11T12:49:37.382Z</time></trkpt><trkpt lat="42.7140122" lon="11.7670557"><ele>466.33333333333337</ele><time>2026-04-11T12:49:38.389Z</time></trkpt><trkpt lat="42.7140291" lon="11.7672925"><ele>463.66666666666663</ele><time>2026-04-11T12:49:39.4Z</time></trkpt><trkpt lat="42.7140395" lon="11.7675148"><ele>461.0</ele><time>2026-04-11T12:49:40.394Z</time></trkpt><trkpt lat="42.7140262" lon="11.7677851"><ele>461.3333333333333</ele><time>2026-04-11T12:49:41.39Z</time></trkpt><trkpt lat="42.7140018" lon="11.7680298"><ele>461.66666666666663</ele><time>2026-04-11T12:49:42.403Z</time></trkpt><trkpt lat="42.7139856" lon="11.7682832"><ele>462.0</ele><time>2026-04-11T12:49:43.396Z</time></trkpt><trkpt lat="42.7139593" lon="11.7685636"><ele>462.0</ele><time>2026-04-11T12:49:44.396Z</time></trkpt><trkpt lat="42.7139534" lon="11.7688305"><ele>462.0</ele><time>2026-04-11T12:49:45.403Z</time></trkpt><trkpt lat="42.7139467" lon="11.7690853"><ele>462.0</ele><time>2026-04-11T12:49:46.404Z</time></trkpt><trkpt lat="42.7139558" lon="11.7693477"><ele>463.66666666666663</ele><time>2026-04-11T12:49:47.407Z</time></trkpt><trkpt lat="42.7139674" lon="11.7695926"><ele>465.3333333333333</ele><time>2026-04-11T12:49:48.4Z</time></trkpt><trkpt lat="42.7139711" lon="11.769871"><ele>467.0</ele><time>2026-04-11T12:49:49.402Z</time></trkpt><trkpt lat="42.7139938" lon="11.7701367"><ele>467.66666666666663</ele><time>2026-04-11T12:49:50.391Z</time></trkpt><trkpt lat="42.7140695" lon="11.770355"><ele>468.33333333333337</ele><time>2026-04-11T12:49:51.404Z</time></trkpt><trkpt lat="42.7141543" lon="11.7705473"><ele>469.0</ele><time>2026-04-11T12:49:52.405Z</time></trkpt><trkpt lat="42.7142725" lon="11.7707736"><ele>469.0</ele><time>2026-04-11T12:49:53.409Z</time></trkpt><trkpt lat="42.7143979" lon="11.7710201"><ele>469.0</ele><time>2026-04-11T12:49:54.406Z</time></trkpt><trkpt lat="42.7144811" lon="11.7712915"><ele>469.0</ele><time>2026-04-11T12:49:55.413Z</time></trkpt><trkpt lat="42.7145857" lon="11.7715331"><ele>469.33333333333337</ele><time>2026-04-11T12:49:56.414Z</time></trkpt><trkpt lat="42.7146714" lon="11.7717911"><ele>469.66666666666663</ele><time>2026-04-11T12:49:57.417Z</time></trkpt><trkpt lat="42.7147684" lon="11.7720492"><ele>470.0</ele><time>2026-04-11T12:49:58.416Z</time></trkpt><trkpt lat="42.7148831" lon="11.7723204"><ele>469.66666666666663</ele><time>2026-04-11T12:49:59.416Z</time></trkpt><trkpt lat="42.7149809" lon="11.7725737"><ele>469.33333333333337</ele><time>2026-04-11T12:50:00.412Z</time></trkpt><trkpt lat="42.7150676" lon="11.7728606"><ele>469.0</ele><time>2026-04-11T12:50:01.414Z</time></trkpt><trkpt lat="42.7151522" lon="11.7731401"><ele>469.5</ele><time>2026-04-11T12:50:02.412Z</time></trkpt><trkpt lat="42.7152544" lon="11.7734464"><ele>470.0</ele><time>2026-04-11T12:50:03.413Z</time></trkpt><trkpt lat="42.715363" lon="11.7737549"><ele>470.5</ele><time>2026-04-11T12:50:04.414Z</time></trkpt><trkpt lat="42.7154769" lon="11.7740407"><ele>471.0</ele><time>2026-04-11T12:50:05.414Z</time></trkpt><trkpt lat="42.7155857" lon="11.7743293"><ele>472.0</ele><time>2026-04-11T12:50:06.41Z</time></trkpt><trkpt lat="42.7156974" lon="11.7746239"><ele>473.0</ele><time>2026-04-11T12:50:07.406Z</time></trkpt><trkpt lat="42.7157883" lon="11.7749202"><ele>471.5</ele><time>2026-04-11T12:50:08.41Z</time></trkpt><trkpt lat="42.7158836" lon="11.7752158"><ele>470.0</ele><time>2026-04-11T12:50:09.412Z</time></trkpt><trkpt lat="42.7159917" lon="11.7755065"><ele>471.0</ele><time>2026-04-11T12:50:10.41Z</time></trkpt><trkpt lat="42.7160872" lon="11.7757896"><ele>472.0</ele><time>2026-04-11T12:50:11.409Z</time></trkpt><trkpt lat="42.7162091" lon="11.7760632"><ele>472.0</ele><time>2026-04-11T12:50:12.403Z</time></trkpt><trkpt lat="42.7162951" lon="11.7763488"><ele>472.0</ele><time>2026-04-11T12:50:13.401Z</time></trkpt><trkpt lat="42.7163985" lon="11.7766446"><ele>473.5</ele><time>2026-04-11T12:50:14.398Z</time></trkpt><trkpt lat="42.7164968" lon="11.7769238"><ele>475.0</ele><time>2026-04-11T12:50:15.405Z</time></trkpt><trkpt lat="42.7165849" lon="11.777202"><ele>475.0</ele><time>2026-04-11T12:50:16.406Z</time></trkpt><trkpt lat="42.716676" lon="11.7774854"><ele>475.0</ele><time>2026-04-11T12:50:17.406Z</time></trkpt><trkpt lat="42.7167434" lon="11.7777798"><ele>474.5</ele><time>2026-04-11T12:50:18.399Z</time></trkpt><trkpt lat="42.7168311" lon="11.7780692"><ele>474.0</ele><time>2026-04-11T12:50:19.409Z</time></trkpt><trkpt lat="42.7169305" lon="11.7783604"><ele>473.5</ele><time>2026-04-11T12:50:20.416Z</time></trkpt><trkpt lat="42.7170349" lon="11.7786502"><ele>473.0</ele><time>2026-04-11T12:50:21.407Z</time></trkpt><trkpt lat="42.7171308" lon="11.7789533"><ele>473.0</ele><time>2026-04-11T12:50:22.407Z</time></trkpt><trkpt lat="42.7172485" lon="11.7792392"><ele>473.0</ele><time>2026-04-11T12:50:23.408Z</time></trkpt><trkpt lat="42.7173543" lon="11.7795237"><ele>473.0</ele><time>2026-04-11T12:50:24.41Z</time></trkpt><trkpt lat="42.7174525" lon="11.7798141"><ele>473.0</ele><time>2026-04-11T12:50:25.415Z</time></trkpt><trkpt lat="42.7175593" lon="11.7800674"><ele>473.0</ele><time>2026-04-11T12:50:26.414Z</time></trkpt><trkpt lat="42.7176315" lon="11.7803245"><ele>472.3333333333333</ele><time>2026-04-11T12:50:27.419Z</time></trkpt><trkpt lat="42.7177345" lon="11.7805602"><ele>471.66666666666663</ele><time>2026-04-11T12:50:28.424Z</time></trkpt><trkpt lat="42.7178042" lon="11.7807949"><ele>471.0</ele><time>2026-04-11T12:50:29.412Z</time></trkpt><trkpt lat="42.7178245" lon="11.7810483"><ele>470.33333333333337</ele><time>2026-04-11T12:50:30.411Z</time></trkpt><trkpt lat="42.7178211" lon="11.7813163"><ele>469.6666666666667</ele><time>2026-04-11T12:50:31.416Z</time></trkpt><trkpt lat="42.7178001" lon="11.7815853"><ele>469.0</ele><time>2026-04-11T12:50:32.417Z</time></trkpt><trkpt lat="42.7177969" lon="11.7818486"><ele>467.6666666666667</ele><time>2026-04-11T12:50:33.414Z</time></trkpt><trkpt lat="42.7177794" lon="11.7820892"><ele>466.33333333333337</ele><time>2026-04-11T12:50:34.415Z</time></trkpt><trkpt lat="42.7177704" lon="11.7823187"><ele>465.0</ele><time>2026-04-11T12:50:35.413Z</time></trkpt><trkpt lat="42.7177785" lon="11.7825517"><ele>462.4</ele><time>2026-04-11T12:50:36.4Z</time></trkpt><trkpt lat="42.7177823" lon="11.7827679"><ele>459.8</ele><time>2026-04-11T12:50:37.4Z</time></trkpt><trkpt lat="42.7177911" lon="11.7829344"><ele>457.20000000000005</ele><time>2026-04-11T12:50:38.392Z</time></trkpt><trkpt lat="42.7178271" lon="11.7830116"><ele>454.6</ele><time>2026-04-11T12:50:39.385Z</time></trkpt><trkpt lat="42.7178849" lon="11.7830535"><ele>452.0</ele><time>2026-04-11T12:50:40.382Z</time></trkpt><trkpt lat="42.7179632" lon="11.7830813"><ele>451.99999999999994</ele><time>2026-04-11T12:50:41.388Z</time></trkpt><trkpt lat="42.7180342" lon="11.7831092"><ele>452.0</ele><time>2026-04-11T12:50:42.387Z</time></trkpt><trkpt lat="42.7181023" lon="11.7831482"><ele>452.0</ele><time>2026-04-11T12:50:43.387Z</time></trkpt><trkpt lat="42.7181774" lon="11.7831832"><ele>452.0</ele><time>2026-04-11T12:50:44.382Z</time></trkpt><trkpt lat="42.7182126" lon="11.7832625"><ele>451.99999999999994</ele><time>2026-04-11T12:50:45.384Z</time></trkpt><trkpt lat="42.7182015" lon="11.7834158"><ele>452.0</ele><time>2026-04-11T12:50:47.398Z</time></trkpt><trkpt lat="42.7180854" lon="11.7833617"><ele>452.0</ele><time>2026-04-11T12:50:49.389Z</time></trkpt><trkpt lat="42.7180032" lon="11.7833115"><ele>452.0</ele><time>2026-04-11T12:50:50.384Z</time></trkpt><trkpt lat="42.717905" lon="11.7832428"><ele>452.0</ele><time>2026-04-11T12:50:51.388Z</time></trkpt><trkpt lat="42.7176854" lon="11.7831197"><ele>452.0</ele><time>2026-04-11T12:50:53.384Z</time></trkpt><trkpt lat="42.717539" lon="11.7830743"><ele>452.0</ele><time>2026-04-11T12:50:54.381Z</time></trkpt><trkpt lat="42.7174653" lon="11.7831105"><ele>452.0</ele><time>2026-04-11T12:50:55.365Z</time></trkpt><trkpt lat="42.7174471" lon="11.78326"><ele>452.0</ele><time>2026-04-11T12:50:58.401Z</time></trkpt><trkpt lat="42.7175444" lon="11.7833651"><ele>452.0</ele><time>2026-04-11T12:50:59.404Z</time></trkpt><trkpt lat="42.7177881" lon="11.7835042"><ele>446.66666666666663</ele><time>2026-04-11T12:51:01.399Z</time></trkpt><trkpt lat="42.7179359" lon="11.7835473"><ele>441.33333333333337</ele><time>2026-04-11T12:51:02.39Z</time></trkpt><trkpt lat="42.7181183" lon="11.7835883"><ele>436.0</ele><time>2026-04-11T12:51:03.397Z</time></trkpt><trkpt lat="42.7183273" lon="11.7836329"><ele>436.0</ele><time>2026-04-11T12:51:04.395Z</time></trkpt><trkpt lat="42.7184738" lon="11.7836816"><ele>436.0</ele><time>2026-04-11T12:51:05.397Z</time></trkpt><trkpt lat="42.7186076" lon="11.7837337"><ele>436.0</ele><time>2026-04-11T12:51:06.388Z</time></trkpt><trkpt lat="42.7186575" lon="11.7838677"><ele>436.0</ele><time>2026-04-11T12:51:07.39Z</time></trkpt><trkpt lat="42.7186776" lon="11.7839597"><ele>435.0</ele><time>2026-04-11T12:51:08.396Z</time></trkpt><trkpt lat="42.7186551" lon="11.7841051"><ele>434.0</ele><time>2026-04-11T12:51:09.394Z</time></trkpt><trkpt lat="42.7185757" lon="11.7842844"><ele>433.0</ele><time>2026-04-11T12:51:10.398Z</time></trkpt><trkpt lat="42.7184748" lon="11.7845234"><ele>433.0</ele><time>2026-04-11T12:51:11.392Z</time></trkpt><trkpt lat="42.7183492" lon="11.7847941"><ele>433.0</ele><time>2026-04-11T12:51:12.407Z</time></trkpt><trkpt lat="42.7182221" lon="11.785068"><ele>433.5</ele><time>2026-04-11T12:51:13.4Z</time></trkpt><trkpt lat="42.7180712" lon="11.7853368"><ele>434.0</ele><time>2026-04-11T12:51:14.399Z</time></trkpt><trkpt lat="42.7179477" lon="11.7855599"><ele>434.0</ele><time>2026-04-11T12:51:15.391Z</time></trkpt><trkpt lat="42.7179136" lon="11.7857653"><ele>434.0</ele><time>2026-04-11T12:51:16.388Z</time></trkpt><trkpt lat="42.7179245" lon="11.786071"><ele>434.0</ele><time>2026-04-11T12:51:17.396Z</time></trkpt><trkpt lat="42.7179868" lon="11.7863161"><ele>437.66666666666663</ele><time>2026-04-11T12:51:18.388Z</time></trkpt><trkpt lat="42.7180409" lon="11.7864985"><ele>441.33333333333337</ele><time>2026-04-11T12:51:19.386Z</time></trkpt><trkpt lat="42.7181829" lon="11.7866332"><ele>445.0</ele><time>2026-04-11T12:51:20.388Z</time></trkpt><trkpt lat="42.7183852" lon="11.786739"><ele>445.0</ele><time>2026-04-11T12:51:21.384Z</time></trkpt><trkpt lat="42.7185673" lon="11.7868075"><ele>445.0</ele><time>2026-04-11T12:51:22.396Z</time></trkpt><trkpt lat="42.7187751" lon="11.7868539"><ele>445.0</ele><time>2026-04-11T12:51:23.384Z</time></trkpt><trkpt lat="42.7190459" lon="11.7868453"><ele>452.0</ele><time>2026-04-11T12:51:24.39Z</time></trkpt><trkpt lat="42.7192877" lon="11.7868815"><ele>459.0</ele><time>2026-04-11T12:51:25.385Z</time></trkpt><trkpt lat="42.7195058" lon="11.7869394"><ele>459.0</ele><time>2026-04-11T12:51:26.384Z</time></trkpt><trkpt lat="42.7197266" lon="11.7870287"><ele>459.0</ele><time>2026-04-11T12:51:27.379Z</time></trkpt><trkpt lat="42.719915" lon="11.7871266"><ele>459.0</ele><time>2026-04-11T12:51:28.384Z</time></trkpt><trkpt lat="42.7201231" lon="11.7872176"><ele>457.66666666666663</ele><time>2026-04-11T12:51:29.391Z</time></trkpt><trkpt lat="42.7203255" lon="11.7873548"><ele>456.3333333333333</ele><time>2026-04-11T12:51:30.39Z</time></trkpt><trkpt lat="42.720474" lon="11.7874673"><ele>455.0</ele><time>2026-04-11T12:51:31.404Z</time></trkpt><trkpt lat="42.720656" lon="11.7876006"><ele>456.66666666666663</ele><time>2026-04-11T12:51:32.4Z</time></trkpt><trkpt lat="42.7208683" lon="11.7876938"><ele>458.33333333333337</ele><time>2026-04-11T12:51:33.406Z</time></trkpt><trkpt lat="42.7210531" lon="11.7877828"><ele>460.0</ele><time>2026-04-11T12:51:34.397Z</time></trkpt><trkpt lat="42.7212351" lon="11.7878846"><ele>460.0</ele><time>2026-04-11T12:51:35.403Z</time></trkpt><trkpt lat="42.7214051" lon="11.7879588"><ele>460.0</ele><time>2026-04-11T12:51:36.404Z</time></trkpt><trkpt lat="42.7215682" lon="11.7880965"><ele>460.0</ele><time>2026-04-11T12:51:37.401Z</time></trkpt><trkpt lat="42.7216785" lon="11.7882146"><ele>460.0</ele><time>2026-04-11T12:51:38.409Z</time></trkpt><trkpt lat="42.7218056" lon="11.7883427"><ele>460.0</ele><time>2026-04-11T12:51:39.402Z</time></trkpt><trkpt lat="42.7219772" lon="11.7884574"><ele>460.0</ele><time>2026-04-11T12:51:40.405Z</time></trkpt><trkpt lat="42.722099" lon="11.788565"><ele>459.33333333333337</ele><time>2026-04-11T12:51:41.403Z</time></trkpt><trkpt lat="42.7222564" lon="11.7886907"><ele>458.66666666666663</ele><time>2026-04-11T12:51:42.399Z</time></trkpt><trkpt lat="42.7223849" lon="11.7888644"><ele>458.0</ele><time>2026-04-11T12:51:43.392Z</time></trkpt><trkpt lat="42.722504" lon="11.7890765"><ele>458.0</ele><time>2026-04-11T12:51:44.394Z</time></trkpt><trkpt lat="42.7226235" lon="11.7892892"><ele>458.0</ele><time>2026-04-11T12:51:45.391Z</time></trkpt><trkpt lat="42.7226585" lon="11.7895161"><ele>458.0</ele><time>2026-04-11T12:51:46.394Z</time></trkpt><trkpt lat="42.722731" lon="11.7896868"><ele>457.75</ele><time>2026-04-11T12:51:47.406Z</time></trkpt><trkpt lat="42.7227626" lon="11.7898457"><ele>457.5</ele><time>2026-04-11T12:51:48.401Z</time></trkpt><trkpt lat="42.7228134" lon="11.7900432"><ele>457.25</ele><time>2026-04-11T12:51:49.395Z</time></trkpt><trkpt lat="42.722929" lon="11.7901752"><ele>457.0</ele><time>2026-04-11T12:51:50.409Z</time></trkpt><trkpt lat="42.7231092" lon="11.790301"><ele>452.0</ele><time>2026-04-11T12:51:51.398Z</time></trkpt><trkpt lat="42.7232845" lon="11.7903741"><ele>447.0</ele><time>2026-04-11T12:51:52.393Z</time></trkpt><trkpt lat="42.7235032" lon="11.7904181"><ele>442.0</ele><time>2026-04-11T12:51:53.397Z</time></trkpt><trkpt lat="42.7237086" lon="11.7904652"><ele>442.0</ele><time>2026-04-11T12:51:54.391Z</time></trkpt><trkpt lat="42.723927" lon="11.7905097"><ele>442.0</ele><time>2026-04-11T12:51:55.401Z</time></trkpt><trkpt lat="42.7241294" lon="11.7905661"><ele>442.0</ele><time>2026-04-11T12:51:56.395Z</time></trkpt><trkpt lat="42.7242958" lon="11.7906041"><ele>442.33333333333337</ele><time>2026-04-11T12:51:57.399Z</time></trkpt><trkpt lat="42.724451" lon="11.7906467"><ele>442.66666666666663</ele><time>2026-04-11T12:51:58.404Z</time></trkpt><trkpt lat="42.7246182" lon="11.7906698"><ele>443.0</ele><time>2026-04-11T12:51:59.405Z</time></trkpt><trkpt lat="42.7247779" lon="11.7906947"><ele>443.0</ele><time>2026-04-11T12:52:00.422Z</time></trkpt><trkpt lat="42.7249199" lon="11.7907242"><ele>443.0</ele><time>2026-04-11T12:52:01.414Z</time></trkpt><trkpt lat="42.7250623" lon="11.7907694"><ele>443.0</ele><time>2026-04-11T12:52:02.413Z</time></trkpt><trkpt lat="42.7252167" lon="11.7908183"><ele>443.0</ele><time>2026-04-11T12:52:03.41Z</time></trkpt><trkpt lat="42.7253503" lon="11.7908714"><ele>441.0</ele><time>2026-04-11T12:52:04.411Z</time></trkpt><trkpt lat="42.7255248" lon="11.7908941"><ele>439.0</ele><time>2026-04-11T12:52:05.414Z</time></trkpt><trkpt lat="42.7256771" lon="11.7909385"><ele>437.0</ele><time>2026-04-11T12:52:06.414Z</time></trkpt><trkpt lat="42.7258397" lon="11.7909894"><ele>436.0</ele><time>2026-04-11T12:52:07.411Z</time></trkpt><trkpt lat="42.7259929" lon="11.7910637"><ele>435.0</ele><time>2026-04-11T12:52:08.412Z</time></trkpt><trkpt lat="42.7261697" lon="11.7911303"><ele>434.0</ele><time>2026-04-11T12:52:09.41Z</time></trkpt><trkpt lat="42.7263385" lon="11.7911833"><ele>433.66666666666663</ele><time>2026-04-11T12:52:10.423Z</time></trkpt><trkpt lat="42.7265213" lon="11.7912332"><ele>433.33333333333337</ele><time>2026-04-11T12:52:11.417Z</time></trkpt><trkpt lat="42.7266615" lon="11.7912891"><ele>433.0</ele><time>2026-04-11T12:52:12.42Z</time></trkpt><trkpt lat="42.726805" lon="11.7913534"><ele>434.0</ele><time>2026-04-11T12:52:13.415Z</time></trkpt><trkpt lat="42.7269388" lon="11.7913859"><ele>435.0</ele><time>2026-04-11T12:52:14.41Z</time></trkpt><trkpt lat="42.7270489" lon="11.7914537"><ele>436.0</ele><time>2026-04-11T12:52:15.409Z</time></trkpt><trkpt lat="42.7271658" lon="11.7915029"><ele>437.0</ele><time>2026-04-11T12:52:16.405Z</time></trkpt><trkpt lat="42.7272485" lon="11.7915358"><ele>437.0</ele><time>2026-04-11T12:52:17.411Z</time></trkpt><trkpt lat="42.7272885" lon="11.7917248"><ele>437.00000000000006</ele><time>2026-04-11T12:52:19.394Z</time></trkpt><trkpt lat="42.7272471" lon="11.791845"><ele>437.00000000000006</ele><time>2026-04-11T12:52:20.411Z</time></trkpt><trkpt lat="42.7272177" lon="11.7919546"><ele>437.0</ele><time>2026-04-11T12:52:21.404Z</time></trkpt><trkpt lat="42.7272069" lon="11.7920619"><ele>437.0</ele><time>2026-04-11T12:52:22.393Z</time></trkpt><trkpt lat="42.7271844" lon="11.7922198"><ele>435.40000000000003</ele><time>2026-04-11T12:52:23.398Z</time></trkpt><trkpt lat="42.7271533" lon="11.7923769"><ele>433.80000000000007</ele><time>2026-04-11T12:52:24.406Z</time></trkpt><trkpt lat="42.7271384" lon="11.7925045"><ele>432.2</ele><time>2026-04-11T12:52:25.402Z</time></trkpt><trkpt lat="42.7271248" lon="11.7926331"><ele>430.6</ele><time>2026-04-11T12:52:26.401Z</time></trkpt><trkpt lat="42.727106" lon="11.7927526"><ele>429.0</ele><time>2026-04-11T12:52:27.404Z</time></trkpt><trkpt lat="42.7270866" lon="11.7928759"><ele>428.5</ele><time>2026-04-11T12:52:28.413Z</time></trkpt><trkpt lat="42.727079" lon="11.7930064"><ele>428.0</ele><time>2026-04-11T12:52:29.411Z</time></trkpt><trkpt lat="42.7270879" lon="11.7931234"><ele>427.5</ele><time>2026-04-11T12:52:30.423Z</time></trkpt><trkpt lat="42.7270965" lon="11.7932427"><ele>427.0</ele><time>2026-04-11T12:52:31.42Z</time></trkpt><trkpt lat="42.7271043" lon="11.7933552"><ele>426.5</ele><time>2026-04-11T12:52:32.419Z</time></trkpt><trkpt lat="42.727127" lon="11.7934732"><ele>426.0</ele><time>2026-04-11T12:52:33.415Z</time></trkpt><trkpt lat="42.7271516" lon="11.79359"><ele>428.20000000000005</ele><time>2026-04-11T12:52:34.411Z</time></trkpt><trkpt lat="42.7271681" lon="11.7937108"><ele>430.40000000000003</ele><time>2026-04-11T12:52:35.412Z</time></trkpt><trkpt lat="42.7271889" lon="11.7938225"><ele>432.6</ele><time>2026-04-11T12:52:36.412Z</time></trkpt><trkpt lat="42.7272034" lon="11.7939483"><ele>434.8</ele><time>2026-04-11T12:52:37.411Z</time></trkpt><trkpt lat="42.7272318" lon="11.7940737"><ele>437.0</ele><time>2026-04-11T12:52:38.419Z</time></trkpt><trkpt lat="42.7272723" lon="11.7942053"><ele>438.20000000000005</ele><time>2026-04-11T12:52:39.417Z</time></trkpt><trkpt lat="42.7273082" lon="11.7943576"><ele>439.40000000000003</ele><time>2026-04-11T12:52:40.422Z</time></trkpt><trkpt lat="42.7273477" lon="11.7945023"><ele>440.59999999999997</ele><time>2026-04-11T12:52:41.418Z</time></trkpt><trkpt lat="42.7273742" lon="11.7946465"><ele>441.79999999999995</ele><time>2026-04-11T12:52:42.412Z</time></trkpt><trkpt lat="42.7274196" lon="11.7947818"><ele>443.0</ele><time>2026-04-11T12:52:43.409Z</time></trkpt><trkpt lat="42.7274852" lon="11.7949069"><ele>443.0</ele><time>2026-04-11T12:52:44.41Z</time></trkpt><trkpt lat="42.7275616" lon="11.7950433"><ele>443.0</ele><time>2026-04-11T12:52:45.407Z</time></trkpt><trkpt lat="42.7276558" lon="11.7951484"><ele>443.0</ele><time>2026-04-11T12:52:46.403Z</time></trkpt><trkpt lat="42.7277628" lon="11.7952592"><ele>443.0</ele><time>2026-04-11T12:52:47.401Z</time></trkpt><trkpt lat="42.727902" lon="11.7953777"><ele>448.0</ele><time>2026-04-11T12:52:48.395Z</time></trkpt><trkpt lat="42.7280383" lon="11.7954837"><ele>453.0</ele><time>2026-04-11T12:52:49.399Z</time></trkpt><trkpt lat="42.7281711" lon="11.7955486"><ele>458.0</ele><time>2026-04-11T12:52:50.41Z</time></trkpt><trkpt lat="42.7283" lon="11.7956699"><ele>458.0</ele><time>2026-04-11T12:52:51.393Z</time></trkpt><trkpt lat="42.7284102" lon="11.7958129"><ele>458.0</ele><time>2026-04-11T12:52:52.391Z</time></trkpt><trkpt lat="42.7285577" lon="11.7959204"><ele>458.0</ele><time>2026-04-11T12:52:53.391Z</time></trkpt><trkpt lat="42.7286377" lon="11.7960441"><ele>458.0</ele><time>2026-04-11T12:52:54.377Z</time></trkpt><trkpt lat="42.7285531" lon="11.7960418"><ele>458.3333333333333</ele><time>2026-04-11T12:52:55.388Z</time></trkpt><trkpt lat="42.7284903" lon="11.7960239"><ele>458.66666666666663</ele><time>2026-04-11T12:52:56.374Z</time></trkpt><trkpt lat="42.7282295" lon="11.7960336"><ele>459.0</ele><time>2026-04-11T12:52:58.389Z</time></trkpt><trkpt lat="42.7280189" lon="11.7960269"><ele>459.0</ele><time>2026-04-11T12:52:59.389Z</time></trkpt><trkpt lat="42.7278638" lon="11.796063"><ele>459.0</ele><time>2026-04-11T12:53:00.395Z</time></trkpt><trkpt lat="42.7277268" lon="11.796088"><ele>459.0</ele><time>2026-04-11T12:53:01.391Z</time></trkpt><trkpt lat="42.7275383" lon="11.7960514"><ele>458.33333333333337</ele><time>2026-04-11T12:53:02.401Z</time></trkpt><trkpt lat="42.727382" lon="11.7960395"><ele>457.6666666666667</ele><time>2026-04-11T12:53:03.402Z</time></trkpt><trkpt lat="42.7272199" lon="11.7960458"><ele>457.0</ele><time>2026-04-11T12:53:04.402Z</time></trkpt><trkpt lat="42.727083" lon="11.7959616"><ele>457.40000000000003</ele><time>2026-04-11T12:53:05.414Z</time></trkpt><trkpt lat="42.7269767" lon="11.7959672"><ele>457.80000000000007</ele><time>2026-04-11T12:53:06.412Z</time></trkpt><trkpt lat="42.7268893" lon="11.7960245"><ele>458.2</ele><time>2026-04-11T12:53:07.408Z</time></trkpt><trkpt lat="42.726793" lon="11.7961143"><ele>458.6</ele><time>2026-04-11T12:53:08.399Z</time></trkpt><trkpt lat="42.7267295" lon="11.7962239"><ele>459.0</ele><time>2026-04-11T12:53:09.398Z</time></trkpt><trkpt lat="42.7266473" lon="11.7963028"><ele>459.0</ele><time>2026-04-11T12:53:10.412Z</time></trkpt><trkpt lat="42.7265646" lon="11.7963651"><ele>459.0</ele><time>2026-04-11T12:53:11.405Z</time></trkpt><trkpt lat="42.7264855" lon="11.7964238"><ele>459.0</ele><time>2026-04-11T12:53:12.408Z</time></trkpt><trkpt lat="42.726404" lon="11.796484"><ele>459.0</ele><time>2026-04-11T12:53:13.415Z</time></trkpt><trkpt lat="42.7263059" lon="11.7965331"><ele>459.0</ele><time>2026-04-11T12:53:14.414Z</time></trkpt><trkpt lat="42.7261748" lon="11.7965478"><ele>459.25</ele><time>2026-04-11T12:53:15.411Z</time></trkpt><trkpt lat="42.7260425" lon="11.7965431"><ele>459.5</ele><time>2026-04-11T12:53:16.411Z</time></trkpt><trkpt lat="42.7259228" lon="11.7965436"><ele>459.75</ele><time>2026-04-11T12:53:17.417Z</time></trkpt><trkpt lat="42.7257711" lon="11.7965398"><ele>460.0</ele><time>2026-04-11T12:53:18.412Z</time></trkpt><trkpt lat="42.7256172" lon="11.7965379"><ele>460.0</ele><time>2026-04-11T12:53:19.413Z</time></trkpt><trkpt lat="42.7254606" lon="11.7965606"><ele>460.0</ele><time>2026-04-11T12:53:20.425Z</time></trkpt><trkpt lat="42.7252853" lon="11.7965819"><ele>460.0</ele><time>2026-04-11T12:53:21.406Z</time></trkpt><trkpt lat="42.725097" lon="11.7965778"><ele>460.33333333333337</ele><time>2026-04-11T12:53:22.403Z</time></trkpt><trkpt lat="42.7249273" lon="11.7965797"><ele>460.66666666666663</ele><time>2026-04-11T12:53:23.409Z</time></trkpt><trkpt lat="42.7247623" lon="11.7965991"><ele>461.0</ele><time>2026-04-11T12:53:24.415Z</time></trkpt><trkpt lat="42.7245939" lon="11.7966225"><ele>461.0</ele><time>2026-04-11T12:53:25.41Z</time></trkpt><trkpt lat="42.7244257" lon="11.7966604"><ele>461.0</ele><time>2026-04-11T12:53:26.433Z</time></trkpt><trkpt lat="42.7242483" lon="11.7966611"><ele>461.0</ele><time>2026-04-11T12:53:27.419Z</time></trkpt><trkpt lat="42.7240744" lon="11.7966537"><ele>460.66666666666663</ele><time>2026-04-11T12:53:28.422Z</time></trkpt><trkpt lat="42.7238912" lon="11.7966639"><ele>460.33333333333337</ele><time>2026-04-11T12:53:29.492Z</time></trkpt><trkpt lat="42.7237188" lon="11.7966733"><ele>460.0</ele><time>2026-04-11T12:53:30.501Z</time></trkpt><trkpt lat="42.7235597" lon="11.7966684"><ele>460.0</ele><time>2026-04-11T12:53:31.492Z</time></trkpt><trkpt lat="42.7234073" lon="11.7966858"><ele>460.0</ele><time>2026-04-11T12:53:32.49Z</time></trkpt><trkpt lat="42.7232683" lon="11.7967205"><ele>460.0</ele><time>2026-04-11T12:53:33.493Z</time></trkpt><trkpt lat="42.7231566" lon="11.7968032"><ele>460.0</ele><time>2026-04-11T12:53:34.485Z</time></trkpt><trkpt lat="42.723042" lon="11.7969174"><ele>460.25</ele><time>2026-04-11T12:53:35.464Z</time></trkpt><trkpt lat="42.7229328" lon="11.796868"><ele>460.5</ele><time>2026-04-11T12:53:36.381Z</time></trkpt><trkpt lat="42.7228364" lon="11.7970806"><ele>460.75</ele><time>2026-04-11T12:53:37.38Z</time></trkpt><trkpt lat="42.7227169" lon="11.797201"><ele>461.0</ele><time>2026-04-11T12:53:38.379Z</time></trkpt><trkpt lat="42.7225627" lon="11.797255"><ele>460.0</ele><time>2026-04-11T12:53:39.393Z</time></trkpt><trkpt lat="42.7223911" lon="11.7972622"><ele>459.0</ele><time>2026-04-11T12:53:40.397Z</time></trkpt><trkpt lat="42.7222046" lon="11.7972854"><ele>458.0</ele><time>2026-04-11T12:53:41.401Z</time></trkpt><trkpt lat="42.7220271" lon="11.7972852"><ele>457.66666666666663</ele><time>2026-04-11T12:53:42.399Z</time></trkpt><trkpt lat="42.7218554" lon="11.7973145"><ele>457.33333333333337</ele><time>2026-04-11T12:53:43.395Z</time></trkpt><trkpt lat="42.7216657" lon="11.7973726"><ele>457.0</ele><time>2026-04-11T12:53:44.404Z</time></trkpt><trkpt lat="42.7214942" lon="11.7974472"><ele>457.0</ele><time>2026-04-11T12:53:45.402Z</time></trkpt><trkpt lat="42.7213073" lon="11.7975219"><ele>457.0</ele><time>2026-04-11T12:53:46.4Z</time></trkpt><trkpt lat="42.7211331" lon="11.7975636"><ele>457.0</ele><time>2026-04-11T12:53:47.404Z</time></trkpt><trkpt lat="42.7209226" lon="11.797573"><ele>456.6666666666667</ele><time>2026-04-11T12:53:48.404Z</time></trkpt><trkpt lat="42.7207142" lon="11.7975806"><ele>456.33333333333337</ele><time>2026-04-11T12:53:49.407Z</time></trkpt><trkpt lat="42.72053" lon="11.7975929"><ele>456.0</ele><time>2026-04-11T12:53:50.409Z</time></trkpt><trkpt lat="42.7203421" lon="11.7975847"><ele>456.33333333333337</ele><time>2026-04-11T12:53:51.403Z</time></trkpt><trkpt lat="42.7201842" lon="11.7975683"><ele>456.6666666666667</ele><time>2026-04-11T12:53:52.394Z</time></trkpt><trkpt lat="42.7200221" lon="11.7977019"><ele>457.0</ele><time>2026-04-11T12:53:53.396Z</time></trkpt><trkpt lat="42.7198691" lon="11.7978027"><ele>458.0</ele><time>2026-04-11T12:53:54.394Z</time></trkpt><trkpt lat="42.7197354" lon="11.797962"><ele>459.0</ele><time>2026-04-11T12:53:55.4Z</time></trkpt><trkpt lat="42.7196093" lon="11.7980815"><ele>460.0</ele><time>2026-04-11T12:53:56.406Z</time></trkpt><trkpt lat="42.7194649" lon="11.7981731"><ele>460.33333333333337</ele><time>2026-04-11T12:53:57.397Z</time></trkpt><trkpt lat="42.719267" lon="11.7981848"><ele>460.66666666666663</ele><time>2026-04-11T12:53:58.389Z</time></trkpt><trkpt lat="42.7191002" lon="11.798223"><ele>461.0</ele><time>2026-04-11T12:53:59.402Z</time></trkpt><trkpt lat="42.7189093" lon="11.7982099"><ele>461.0</ele><time>2026-04-11T12:54:00.402Z</time></trkpt><trkpt lat="42.7187154" lon="11.7982325"><ele>461.0</ele><time>2026-04-11T12:54:01.405Z</time></trkpt><trkpt lat="42.7185208" lon="11.7982344"><ele>461.0</ele><time>2026-04-11T12:54:02.404Z</time></trkpt><trkpt lat="42.71831" lon="11.7982805"><ele>461.0</ele><time>2026-04-11T12:54:03.406Z</time></trkpt><trkpt lat="42.7181085" lon="11.7983233"><ele>461.0</ele><time>2026-04-11T12:54:04.407Z</time></trkpt><trkpt lat="42.7179325" lon="11.7983718"><ele>461.0</ele><time>2026-04-11T12:54:05.399Z</time></trkpt><trkpt lat="42.7177407" lon="11.7984872"><ele>461.0</ele><time>2026-04-11T12:54:06.406Z</time></trkpt><trkpt lat="42.7175688" lon="11.7985919"><ele>461.0</ele><time>2026-04-11T12:54:07.406Z</time></trkpt><trkpt lat="42.7173945" lon="11.7987025"><ele>461.0</ele><time>2026-04-11T12:54:08.403Z</time></trkpt><trkpt lat="42.717173" lon="11.7987468"><ele>461.0</ele><time>2026-04-11T12:54:09.4Z</time></trkpt><trkpt lat="42.7169636" lon="11.7987552"><ele>461.0</ele><time>2026-04-11T12:54:10.399Z</time></trkpt><trkpt lat="42.7167581" lon="11.798756"><ele>461.0</ele><time>2026-04-11T12:54:11.407Z</time></trkpt><trkpt lat="42.7165484" lon="11.7988018"><ele>461.0</ele><time>2026-04-11T12:54:12.401Z</time></trkpt><trkpt lat="42.7163616" lon="11.7988022"><ele>461.0</ele><time>2026-04-11T12:54:13.411Z</time></trkpt><trkpt lat="42.716138" lon="11.7988552"><ele>461.0</ele><time>2026-04-11T12:54:14.409Z</time></trkpt><trkpt lat="42.7159367" lon="11.7989003"><ele>461.66666666666663</ele><time>2026-04-11T12:54:15.408Z</time></trkpt><trkpt lat="42.7157253" lon="11.7989245"><ele>462.33333333333337</ele><time>2026-04-11T12:54:16.409Z</time></trkpt><trkpt lat="42.7155208" lon="11.7989476"><ele>463.0</ele><time>2026-04-11T12:54:17.409Z</time></trkpt><trkpt lat="42.715332" lon="11.7989881"><ele>463.6666666666667</ele><time>2026-04-11T12:54:18.407Z</time></trkpt><trkpt lat="42.715149" lon="11.799027"><ele>464.33333333333337</ele><time>2026-04-11T12:54:19.399Z</time></trkpt><trkpt lat="42.7149558" lon="11.7990437"><ele>465.0</ele><time>2026-04-11T12:54:20.407Z</time></trkpt><trkpt lat="42.7147436" lon="11.7990605"><ele>465.0</ele><time>2026-04-11T12:54:21.403Z</time></trkpt><trkpt lat="42.7145385" lon="11.7991014"><ele>465.0</ele><time>2026-04-11T12:54:22.398Z</time></trkpt><trkpt lat="42.7143452" lon="11.7991434"><ele>465.0</ele><time>2026-04-11T12:54:23.393Z</time></trkpt><trkpt lat="42.7141717" lon="11.7992529"><ele>465.0</ele><time>2026-04-11T12:54:24.401Z</time></trkpt><trkpt lat="42.7139955" lon="11.7993623"><ele>465.0</ele><time>2026-04-11T12:54:25.403Z</time></trkpt><trkpt lat="42.713834" lon="11.799432"><ele>465.0</ele><time>2026-04-11T12:54:26.401Z</time></trkpt><trkpt lat="42.7136683" lon="11.7995226"><ele>465.66666666666663</ele><time>2026-04-11T12:54:27.4Z</time></trkpt><trkpt lat="42.7135038" lon="11.799634"><ele>466.3333333333333</ele><time>2026-04-11T12:54:28.391Z</time></trkpt><trkpt lat="42.7133574" lon="11.7997622"><ele>467.0</ele><time>2026-04-11T12:54:29.399Z</time></trkpt><trkpt lat="42.7131996" lon="11.7998848"><ele>467.0</ele><time>2026-04-11T12:54:30.397Z</time></trkpt><trkpt lat="42.7130395" lon="11.8000007"><ele>467.0</ele><time>2026-04-11T12:54:31.404Z</time></trkpt><trkpt lat="42.7128835" lon="11.8000799"><ele>467.0</ele><time>2026-04-11T12:54:32.405Z</time></trkpt><trkpt lat="42.7127218" lon="11.8001387"><ele>466.0</ele><time>2026-04-11T12:54:33.404Z</time></trkpt><trkpt lat="42.7125407" lon="11.8001898"><ele>465.0</ele><time>2026-04-11T12:54:34.405Z</time></trkpt><trkpt lat="42.7123952" lon="11.8002633"><ele>464.0</ele><time>2026-04-11T12:54:35.404Z</time></trkpt><trkpt lat="42.7122417" lon="11.8003268"><ele>464.0</ele><time>2026-04-11T12:54:36.409Z</time></trkpt><trkpt lat="42.7120431" lon="11.8003593"><ele>464.0</ele><time>2026-04-11T12:54:37.404Z</time></trkpt><trkpt lat="42.711833" lon="11.800422"><ele>464.0</ele><time>2026-04-11T12:54:38.406Z</time></trkpt><trkpt lat="42.7116601" lon="11.8004789"><ele>464.0</ele><time>2026-04-11T12:54:39.407Z</time></trkpt><trkpt lat="42.7114654" lon="11.800515"><ele>464.0</ele><time>2026-04-11T12:54:40.402Z</time></trkpt><trkpt lat="42.7112701" lon="11.8004621"><ele>464.0</ele><time>2026-04-11T12:54:41.398Z</time></trkpt><trkpt lat="42.7111099" lon="11.8004259"><ele>464.66666666666663</ele><time>2026-04-11T12:54:42.396Z</time></trkpt><trkpt lat="42.7109327" lon="11.8003971"><ele>465.33333333333337</ele><time>2026-04-11T12:54:43.401Z</time></trkpt><trkpt lat="42.7107616" lon="11.8003403"><ele>466.0</ele><time>2026-04-11T12:54:44.397Z</time></trkpt><trkpt lat="42.7105802" lon="11.8003396"><ele>466.0</ele><time>2026-04-11T12:54:45.405Z</time></trkpt><trkpt lat="42.7103783" lon="11.8003288"><ele>466.0</ele><time>2026-04-11T12:54:46.399Z</time></trkpt><trkpt lat="42.7102075" lon="11.8003442"><ele>466.0</ele><time>2026-04-11T12:54:47.408Z</time></trkpt><trkpt lat="42.7100674" lon="11.8003664"><ele>466.6666666666667</ele><time>2026-04-11T12:54:48.384Z</time></trkpt><trkpt lat="42.7099073" lon="11.8004863"><ele>467.33333333333337</ele><time>2026-04-11T12:54:49.397Z</time></trkpt><trkpt lat="42.7097579" lon="11.8005596"><ele>468.0</ele><time>2026-04-11T12:54:50.397Z</time></trkpt><trkpt lat="42.7096339" lon="11.8006082"><ele>468.0</ele><time>2026-04-11T12:54:51.407Z</time></trkpt><trkpt lat="42.7094471" lon="11.8006409"><ele>468.0</ele><time>2026-04-11T12:54:52.408Z</time></trkpt><trkpt lat="42.7092798" lon="11.8006655"><ele>468.0</ele><time>2026-04-11T12:54:53.417Z</time></trkpt><trkpt lat="42.709123" lon="11.8007137"><ele>468.33333333333337</ele><time>2026-04-11T12:54:54.413Z</time></trkpt><trkpt lat="42.7089663" lon="11.8007329"><ele>468.6666666666667</ele><time>2026-04-11T12:54:55.406Z</time></trkpt><trkpt lat="42.7088151" lon="11.8007933"><ele>469.0</ele><time>2026-04-11T12:54:56.401Z</time></trkpt><trkpt lat="42.7086282" lon="11.8009024"><ele>468.6666666666667</ele><time>2026-04-11T12:54:57.405Z</time></trkpt><trkpt lat="42.7084678" lon="11.801004"><ele>468.33333333333337</ele><time>2026-04-11T12:54:58.412Z</time></trkpt><trkpt lat="42.7083307" lon="11.8010944"><ele>468.0</ele><time>2026-04-11T12:54:59.414Z</time></trkpt><trkpt lat="42.7081798" lon="11.8012015"><ele>468.0</ele><time>2026-04-11T12:55:00.401Z</time></trkpt><trkpt lat="42.7080318" lon="11.8012101"><ele>468.0</ele><time>2026-04-11T12:55:01.407Z</time></trkpt><trkpt lat="42.7078594" lon="11.801165"><ele>468.0</ele><time>2026-04-11T12:55:02.4Z</time></trkpt><trkpt lat="42.707684" lon="11.8011249"><ele>468.33333333333337</ele><time>2026-04-11T12:55:03.405Z</time></trkpt><trkpt lat="42.7075092" lon="11.8010608"><ele>468.6666666666667</ele><time>2026-04-11T12:55:04.41Z</time></trkpt><trkpt lat="42.7073259" lon="11.8009744"><ele>469.0</ele><time>2026-04-11T12:55:05.409Z</time></trkpt><trkpt lat="42.7071868" lon="11.8009048"><ele>469.25</ele><time>2026-04-11T12:55:06.407Z</time></trkpt><trkpt lat="42.7070657" lon="11.8008252"><ele>469.5</ele><time>2026-04-11T12:55:07.404Z</time></trkpt><trkpt lat="42.7069452" lon="11.8007829"><ele>469.75</ele><time>2026-04-11T12:55:08.396Z</time></trkpt><trkpt lat="42.7068082" lon="11.8007525"><ele>470.0</ele><time>2026-04-11T12:55:09.402Z</time></trkpt><trkpt lat="42.7066682" lon="11.8007522"><ele>470.0</ele><time>2026-04-11T12:55:10.405Z</time></trkpt><trkpt lat="42.7065311" lon="11.8007746"><ele>470.0</ele><time>2026-04-11T12:55:11.403Z</time></trkpt><trkpt lat="42.7063585" lon="11.8008935"><ele>470.0</ele><time>2026-04-11T12:55:12.405Z</time></trkpt><trkpt lat="42.7062049" lon="11.8010254"><ele>470.0</ele><time>2026-04-11T12:55:13.394Z</time></trkpt><trkpt lat="42.706039" lon="11.8011638"><ele>470.0</ele><time>2026-04-11T12:55:14.39Z</time></trkpt><trkpt lat="42.7058521" lon="11.8012998"><ele>470.0</ele><time>2026-04-11T12:55:15.39Z</time></trkpt><trkpt lat="42.7056824" lon="11.801469"><ele>470.0</ele><time>2026-04-11T12:55:16.396Z</time></trkpt><trkpt lat="42.7055322" lon="11.8015499"><ele>470.0</ele><time>2026-04-11T12:55:17.403Z</time></trkpt><trkpt lat="42.7053656" lon="11.8016739"><ele>470.0</ele><time>2026-04-11T12:55:18.402Z</time></trkpt><trkpt lat="42.7052078" lon="11.8017712"><ele>470.3333333333333</ele><time>2026-04-11T12:55:19.413Z</time></trkpt><trkpt lat="42.705035" lon="11.8019228"><ele>470.66666666666663</ele><time>2026-04-11T12:55:20.409Z</time></trkpt><trkpt lat="42.704872" lon="11.8020511"><ele>471.0</ele><time>2026-04-11T12:55:21.405Z</time></trkpt><trkpt lat="42.7047047" lon="11.802197"><ele>471.0</ele><time>2026-04-11T12:55:22.405Z</time></trkpt><trkpt lat="42.7045705" lon="11.8023078"><ele>471.0</ele><time>2026-04-11T12:55:23.41Z</time></trkpt><trkpt lat="42.7044135" lon="11.802402"><ele>471.0</ele><time>2026-04-11T12:55:24.41Z</time></trkpt><trkpt lat="42.7042429" lon="11.8025307"><ele>471.0</ele><time>2026-04-11T12:55:25.412Z</time></trkpt><trkpt lat="42.7040891" lon="11.8026468"><ele>471.0</ele><time>2026-04-11T12:55:26.409Z</time></trkpt><trkpt lat="42.703926" lon="11.8027636"><ele>471.0</ele><time>2026-04-11T12:55:27.413Z</time></trkpt><trkpt lat="42.7037613" lon="11.8028719"><ele>471.0</ele><time>2026-04-11T12:55:28.409Z</time></trkpt><trkpt lat="42.7036067" lon="11.8029728"><ele>471.0</ele><time>2026-04-11T12:55:29.421Z</time></trkpt><trkpt lat="42.7034554" lon="11.8030825"><ele>471.0</ele><time>2026-04-11T12:55:30.413Z</time></trkpt><trkpt lat="42.703289" lon="11.8032224"><ele>471.0</ele><time>2026-04-11T12:55:31.415Z</time></trkpt><trkpt lat="42.7031249" lon="11.8033739"><ele>471.0</ele><time>2026-04-11T12:55:32.422Z</time></trkpt><trkpt lat="42.7029534" lon="11.8035136"><ele>471.0</ele><time>2026-04-11T12:55:33.416Z</time></trkpt><trkpt lat="42.7027801" lon="11.8036623"><ele>471.0</ele><time>2026-04-11T12:55:34.419Z</time></trkpt><trkpt lat="42.7026134" lon="11.8037641"><ele>471.0</ele><time>2026-04-11T12:55:35.417Z</time></trkpt><trkpt lat="42.7024302" lon="11.8038872"><ele>471.0</ele><time>2026-04-11T12:55:36.413Z</time></trkpt><trkpt lat="42.7022561" lon="11.8039963"><ele>471.0</ele><time>2026-04-11T12:55:37.423Z</time></trkpt><trkpt lat="42.7020732" lon="11.8040952"><ele>471.0</ele><time>2026-04-11T12:55:38.422Z</time></trkpt><trkpt lat="42.7018788" lon="11.8041755"><ele>471.0</ele><time>2026-04-11T12:55:39.418Z</time></trkpt><trkpt lat="42.7016844" lon="11.8042063"><ele>472.33333333333337</ele><time>2026-04-11T12:55:40.419Z</time></trkpt><trkpt lat="42.7014786" lon="11.8042464"><ele>473.6666666666667</ele><time>2026-04-11T12:55:41.419Z</time></trkpt><trkpt lat="42.7012866" lon="11.8043035"><ele>475.0</ele><time>2026-04-11T12:55:42.414Z</time></trkpt><trkpt lat="42.7011104" lon="11.8043627"><ele>475.33333333333337</ele><time>2026-04-11T12:55:43.409Z</time></trkpt><trkpt lat="42.700947" lon="11.8044191"><ele>475.66666666666663</ele><time>2026-04-11T12:55:44.403Z</time></trkpt><trkpt lat="42.7007693" lon="11.8045048"><ele>476.0</ele><time>2026-04-11T12:55:45.404Z</time></trkpt><trkpt lat="42.7006244" lon="11.8045609"><ele>476.0</ele><time>2026-04-11T12:55:46.393Z</time></trkpt><trkpt lat="42.7004863" lon="11.8046602"><ele>476.0</ele><time>2026-04-11T12:55:47.396Z</time></trkpt><trkpt lat="42.7003412" lon="11.8047733"><ele>476.0</ele><time>2026-04-11T12:55:48.406Z</time></trkpt><trkpt lat="42.7002316" lon="11.8049423"><ele>476.0</ele><time>2026-04-11T12:55:49.387Z</time></trkpt><trkpt lat="42.7001123" lon="11.805065"><ele>476.0</ele><time>2026-04-11T12:55:50.391Z</time></trkpt><trkpt lat="42.6999768" lon="11.8052382"><ele>476.0</ele><time>2026-04-11T12:55:51.393Z</time></trkpt><trkpt lat="42.6998674" lon="11.8053491"><ele>476.0</ele><time>2026-04-11T12:55:52.394Z</time></trkpt><trkpt lat="42.6997291" lon="11.8054501"><ele>476.0</ele><time>2026-04-11T12:55:53.404Z</time></trkpt><trkpt lat="42.6996083" lon="11.8055531"><ele>476.0</ele><time>2026-04-11T12:55:54.4Z</time></trkpt><trkpt lat="42.6995036" lon="11.8056658"><ele>476.0</ele><time>2026-04-11T12:55:55.394Z</time></trkpt><trkpt lat="42.699369" lon="11.8057944"><ele>475.4</ele><time>2026-04-11T12:55:56.389Z</time></trkpt><trkpt lat="42.6992782" lon="11.8058803"><ele>474.8</ele><time>2026-04-11T12:55:57.398Z</time></trkpt><trkpt lat="42.6991716" lon="11.8059331"><ele>474.19999999999993</ele><time>2026-04-11T12:55:58.399Z</time></trkpt><trkpt lat="42.6990904" lon="11.8059911"><ele>473.59999999999997</ele><time>2026-04-11T12:55:59.393Z</time></trkpt><trkpt lat="42.6990215" lon="11.8060436"><ele>473.0</ele><time>2026-04-11T12:56:00.399Z</time></trkpt><trkpt lat="42.6989215" lon="11.8061468"><ele>473.0</ele><time>2026-04-11T12:56:01.402Z</time></trkpt><trkpt lat="42.6988125" lon="11.8062647"><ele>473.0</ele><time>2026-04-11T12:56:02.41Z</time></trkpt><trkpt lat="42.6987088" lon="11.806369"><ele>473.0</ele><time>2026-04-11T12:56:03.412Z</time></trkpt><trkpt lat="42.6986005" lon="11.80648"><ele>473.0</ele><time>2026-04-11T12:56:04.399Z</time></trkpt><trkpt lat="42.6984873" lon="11.8065876"><ele>473.5</ele><time>2026-04-11T12:56:05.408Z</time></trkpt><trkpt lat="42.6983889" lon="11.8067177"><ele>474.0</ele><time>2026-04-11T12:56:06.408Z</time></trkpt><trkpt lat="42.6983199" lon="11.8068296"><ele>474.5</ele><time>2026-04-11T12:56:07.42Z</time></trkpt><trkpt lat="42.6982441" lon="11.8069253"><ele>475.0</ele><time>2026-04-11T12:56:08.404Z</time></trkpt><trkpt lat="42.6981918" lon="11.8070559"><ele>475.2</ele><time>2026-04-11T12:56:09.403Z</time></trkpt><trkpt lat="42.6981919" lon="11.8071906"><ele>475.4</ele><time>2026-04-11T12:56:10.401Z</time></trkpt><trkpt lat="42.6982234" lon="11.8073048"><ele>475.6</ele><time>2026-04-11T12:56:11.392Z</time></trkpt><trkpt lat="42.6982984" lon="11.8073691"><ele>475.8</ele><time>2026-04-11T12:56:12.397Z</time></trkpt><trkpt lat="42.6984133" lon="11.8074025"><ele>476.0</ele><time>2026-04-11T12:56:13.389Z</time></trkpt><trkpt lat="42.6985554" lon="11.8074531"><ele>475.0</ele><time>2026-04-11T12:56:14.391Z</time></trkpt><trkpt lat="42.6987135" lon="11.8075177"><ele>474.0</ele><time>2026-04-11T12:56:15.391Z</time></trkpt><trkpt lat="42.6988974" lon="11.8075921"><ele>473.0</ele><time>2026-04-11T12:56:16.391Z</time></trkpt><trkpt lat="42.6990988" lon="11.8076734"><ele>473.0</ele><time>2026-04-11T12:56:17.394Z</time></trkpt><trkpt lat="42.6992753" lon="11.8077444"><ele>473.0</ele><time>2026-04-11T12:56:18.383Z</time></trkpt><trkpt lat="42.6994525" lon="11.8077541"><ele>473.0</ele><time>2026-04-11T12:56:19.379Z</time></trkpt><trkpt lat="42.6996251" lon="11.8077437"><ele>470.5</ele><time>2026-04-11T12:56:20.384Z</time></trkpt><trkpt lat="42.6997697" lon="11.8077613"><ele>468.0</ele><time>2026-04-11T12:56:21.374Z</time></trkpt><trkpt lat="42.6998756" lon="11.8077918"><ele>465.5</ele><time>2026-04-11T12:56:22.381Z</time></trkpt><trkpt lat="42.700029" lon="11.807866"><ele>463.0</ele><time>2026-04-11T12:56:23.393Z</time></trkpt><trkpt lat="42.7001454" lon="11.8079048"><ele>459.0</ele><time>2026-04-11T12:56:24.396Z</time></trkpt><trkpt lat="42.7003083" lon="11.8079775"><ele>455.0</ele><time>2026-04-11T12:56:25.395Z</time></trkpt><trkpt lat="42.7004507" lon="11.8081091"><ele>451.0</ele><time>2026-04-11T12:56:26.395Z</time></trkpt><trkpt lat="42.7005788" lon="11.8082587"><ele>451.0</ele><time>2026-04-11T12:56:27.401Z</time></trkpt><trkpt lat="42.7007289" lon="11.8083766"><ele>451.0</ele><time>2026-04-11T12:56:28.388Z</time></trkpt><trkpt lat="42.7008592" lon="11.8085203"><ele>451.0</ele><time>2026-04-11T12:56:29.391Z</time></trkpt><trkpt lat="42.7009476" lon="11.8086834"><ele>450.0</ele><time>2026-04-11T12:56:30.397Z</time></trkpt><trkpt lat="42.701014" lon="11.8089045"><ele>449.0</ele><time>2026-04-11T12:56:31.402Z</time></trkpt><trkpt lat="42.7010686" lon="11.8090435"><ele>448.0</ele><time>2026-04-11T12:56:32.385Z</time></trkpt><trkpt lat="42.7010043" lon="11.8091356"><ele>447.0</ele><time>2026-04-11T12:56:33.392Z</time></trkpt><trkpt lat="42.7009073" lon="11.8092104"><ele>447.0</ele><time>2026-04-11T12:56:34.386Z</time></trkpt><trkpt lat="42.7007834" lon="11.8092334"><ele>447.0</ele><time>2026-04-11T12:56:35.371Z</time></trkpt><trkpt lat="42.7006165" lon="11.8092228"><ele>447.0</ele><time>2026-04-11T12:56:36.371Z</time></trkpt><trkpt lat="42.7004751" lon="11.8092184"><ele>447.0</ele><time>2026-04-11T12:56:37.368Z</time></trkpt><trkpt lat="42.7003473" lon="11.8092266"><ele>447.33333333333337</ele><time>2026-04-11T12:56:38.364Z</time></trkpt><trkpt lat="42.7001814" lon="11.8092245"><ele>447.6666666666667</ele><time>2026-04-11T12:56:39.37Z</time></trkpt><trkpt lat="42.6999801" lon="11.8092169"><ele>448.0</ele><time>2026-04-11T12:56:40.372Z</time></trkpt><trkpt lat="42.6998063" lon="11.8091816"><ele>448.0</ele><time>2026-04-11T12:56:41.373Z</time></trkpt><trkpt lat="42.699624" lon="11.8091577"><ele>448.0</ele><time>2026-04-11T12:56:42.369Z</time></trkpt><trkpt lat="42.6994318" lon="11.8091729"><ele>448.0</ele><time>2026-04-11T12:56:43.365Z</time></trkpt><trkpt lat="42.699234" lon="11.8092176"><ele>447.33333333333337</ele><time>2026-04-11T12:56:44.368Z</time></trkpt><trkpt lat="42.6990786" lon="11.8092756"><ele>446.66666666666663</ele><time>2026-04-11T12:56:45.374Z</time></trkpt><trkpt lat="42.6989013" lon="11.8093851"><ele>446.0</ele><time>2026-04-11T12:56:46.38Z</time></trkpt><trkpt lat="42.6987311" lon="11.8094293"><ele>445.66666666666663</ele><time>2026-04-11T12:56:47.388Z</time></trkpt><trkpt lat="42.6985379" lon="11.8095174"><ele>445.33333333333337</ele><time>2026-04-11T12:56:48.385Z</time></trkpt><trkpt lat="42.6983623" lon="11.8096035"><ele>445.0</ele><time>2026-04-11T12:56:49.385Z</time></trkpt><trkpt lat="42.6982013" lon="11.8096576"><ele>445.0</ele><time>2026-04-11T12:56:50.384Z</time></trkpt><trkpt lat="42.6980386" lon="11.8096896"><ele>445.0</ele><time>2026-04-11T12:56:51.388Z</time></trkpt><trkpt lat="42.6978579" lon="11.8097287"><ele>445.0</ele><time>2026-04-11T12:56:52.394Z</time></trkpt><trkpt lat="42.6976862" lon="11.8097041"><ele>444.6666666666667</ele><time>2026-04-11T12:56:53.402Z</time></trkpt><trkpt lat="42.6975337" lon="11.8096985"><ele>444.33333333333337</ele><time>2026-04-11T12:56:54.397Z</time></trkpt><trkpt lat="42.6973569" lon="11.8097264"><ele>444.0</ele><time>2026-04-11T12:56:55.402Z</time></trkpt><trkpt lat="42.6972085" lon="11.8097716"><ele>444.0</ele><time>2026-04-11T12:56:56.401Z</time></trkpt><trkpt lat="42.6970448" lon="11.8098237"><ele>444.0</ele><time>2026-04-11T12:56:57.4Z</time></trkpt><trkpt lat="42.6969115" lon="11.8098993"><ele>444.0</ele><time>2026-04-11T12:56:58.402Z</time></trkpt><trkpt lat="42.6967847" lon="11.8099304"><ele>444.0</ele><time>2026-04-11T12:56:59.405Z</time></trkpt><trkpt lat="42.6966769" lon="11.8100557"><ele>445.25</ele><time>2026-04-11T12:57:00.394Z</time></trkpt><trkpt lat="42.6965682" lon="11.8101819"><ele>446.5</ele><time>2026-04-11T12:57:01.386Z</time></trkpt><trkpt lat="42.6964605" lon="11.8103153"><ele>447.75</ele><time>2026-04-11T12:57:02.408Z</time></trkpt><trkpt lat="42.6964224" lon="11.8105279"><ele>449.0</ele><time>2026-04-11T12:57:03.397Z</time></trkpt><trkpt lat="42.6963761" lon="11.8107495"><ele>449.0</ele><time>2026-04-11T12:57:04.404Z</time></trkpt><trkpt lat="42.6963409" lon="11.8109552"><ele>449.0</ele><time>2026-04-11T12:57:05.397Z</time></trkpt><trkpt lat="42.6962421" lon="11.8110907"><ele>449.0</ele><time>2026-04-11T12:57:06.395Z</time></trkpt><trkpt lat="42.6960824" lon="11.8111803"><ele>455.66666666666663</ele><time>2026-04-11T12:57:07.392Z</time></trkpt><trkpt lat="42.6958799" lon="11.8112094"><ele>462.33333333333337</ele><time>2026-04-11T12:57:08.396Z</time></trkpt><trkpt lat="42.695679" lon="11.8112687"><ele>469.0</ele><time>2026-04-11T12:57:09.388Z</time></trkpt><trkpt lat="42.6955044" lon="11.811321"><ele>469.0</ele><time>2026-04-11T12:57:10.393Z</time></trkpt><trkpt lat="42.6953347" lon="11.811378"><ele>469.0</ele><time>2026-04-11T12:57:11.394Z</time></trkpt><trkpt lat="42.6951718" lon="11.8114523"><ele>469.0</ele><time>2026-04-11T12:57:12.397Z</time></trkpt><trkpt lat="42.6949982" lon="11.8115115"><ele>467.0</ele><time>2026-04-11T12:57:13.393Z</time></trkpt><trkpt lat="42.6948251" lon="11.8115612"><ele>465.0</ele><time>2026-04-11T12:57:14.394Z</time></trkpt><trkpt lat="42.6946567" lon="11.8115978"><ele>463.0</ele><time>2026-04-11T12:57:15.395Z</time></trkpt><trkpt lat="42.6944699" lon="11.8116495"><ele>465.33333333333337</ele><time>2026-04-11T12:57:16.392Z</time></trkpt><trkpt lat="42.6943182" lon="11.8116977"><ele>467.66666666666663</ele><time>2026-04-11T12:57:17.41Z</time></trkpt><trkpt lat="42.6941746" lon="11.8117983"><ele>470.0</ele><time>2026-04-11T12:57:18.392Z</time></trkpt><trkpt lat="42.6940517" lon="11.8119366"><ele>470.0</ele><time>2026-04-11T12:57:19.394Z</time></trkpt><trkpt lat="42.6939603" lon="11.8120759"><ele>470.0</ele><time>2026-04-11T12:57:20.385Z</time></trkpt><trkpt lat="42.6938828" lon="11.8122728"><ele>470.0</ele><time>2026-04-11T12:57:21.38Z</time></trkpt><trkpt lat="42.6938841" lon="11.8124731"><ele>470.0</ele><time>2026-04-11T12:57:22.381Z</time></trkpt><trkpt lat="42.6939001" lon="11.8127101"><ele>472.66666666666663</ele><time>2026-04-11T12:57:23.384Z</time></trkpt><trkpt lat="42.6939334" lon="11.8129488"><ele>475.33333333333337</ele><time>2026-04-11T12:57:24.378Z</time></trkpt><trkpt lat="42.6939692" lon="11.813149"><ele>478.0</ele><time>2026-04-11T12:57:25.388Z</time></trkpt><trkpt lat="42.6940612" lon="11.8133146"><ele>478.0</ele><time>2026-04-11T12:57:26.397Z</time></trkpt><trkpt lat="42.6941344" lon="11.8134738"><ele>478.0</ele><time>2026-04-11T12:57:27.407Z</time></trkpt><trkpt lat="42.6941537" lon="11.813631"><ele>478.0</ele><time>2026-04-11T12:57:28.402Z</time></trkpt><trkpt lat="42.6941188" lon="11.8138103"><ele>478.0</ele><time>2026-04-11T12:57:29.399Z</time></trkpt><trkpt lat="42.6940869" lon="11.8139614"><ele>479.00000000000006</ele><time>2026-04-11T12:57:30.397Z</time></trkpt><trkpt lat="42.6940684" lon="11.8141038"><ele>480.0</ele><time>2026-04-11T12:57:31.397Z</time></trkpt><trkpt lat="42.6940559" lon="11.8142475"><ele>481.0</ele><time>2026-04-11T12:57:32.398Z</time></trkpt><trkpt lat="42.6940555" lon="11.8143601"><ele>482.0</ele><time>2026-04-11T12:57:33.392Z</time></trkpt><trkpt lat="42.6940994" lon="11.8144577"><ele>483.00000000000006</ele><time>2026-04-11T12:57:34.381Z</time></trkpt><trkpt lat="42.6941308" lon="11.8145342"><ele>484.0</ele><time>2026-04-11T12:57:35.382Z</time></trkpt><trkpt lat="42.6941797" lon="11.8146149"><ele>484.0</ele><time>2026-04-11T12:57:36.371Z</time></trkpt><trkpt lat="42.6942894" lon="11.8144531"><ele>484.0</ele><time>2026-04-11T12:57:38.385Z</time></trkpt><trkpt lat="42.6943444" lon="11.8143451"><ele>484.0</ele><time>2026-04-11T12:57:39.376Z</time></trkpt><trkpt lat="42.6943751" lon="11.8141785"><ele>484.0</ele><time>2026-04-11T12:57:40.38Z</time></trkpt><trkpt lat="42.6944283" lon="11.8140978"><ele>483.79999999999995</ele><time>2026-04-11T12:57:41.383Z</time></trkpt><trkpt lat="42.6944944" lon="11.8139461"><ele>483.59999999999997</ele><time>2026-04-11T12:57:42.392Z</time></trkpt><trkpt lat="42.6945727" lon="11.8138427"><ele>483.4</ele><time>2026-04-11T12:57:43.38Z</time></trkpt><trkpt lat="42.6946528" lon="11.8138608"><ele>483.2</ele><time>2026-04-11T12:57:44.376Z</time></trkpt><trkpt lat="42.6947011" lon="11.8139175"><ele>483.0</ele><time>2026-04-11T12:57:45.377Z</time></trkpt><trkpt lat="42.6946633" lon="11.8140203"><ele>483.0</ele><time>2026-04-11T12:57:46.37Z</time></trkpt><trkpt lat="42.6945922" lon="11.8141415"><ele>483.0</ele><time>2026-04-11T12:57:47.378Z</time></trkpt><trkpt lat="42.6944988" lon="11.8142743"><ele>483.0</ele><time>2026-04-11T12:57:48.376Z</time></trkpt><trkpt lat="42.6944193" lon="11.814398"><ele>483.0</ele><time>2026-04-11T12:57:49.372Z</time></trkpt><trkpt lat="42.6943223" lon="11.8144811"><ele>483.79999999999995</ele><time>2026-04-11T12:57:50.374Z</time></trkpt><trkpt lat="42.694228" lon="11.8145869"><ele>484.59999999999997</ele><time>2026-04-11T12:57:51.377Z</time></trkpt><trkpt lat="42.6941474" lon="11.8146784"><ele>485.40000000000003</ele><time>2026-04-11T12:57:52.396Z</time></trkpt><trkpt lat="42.6940674" lon="11.8147753"><ele>486.20000000000005</ele><time>2026-04-11T12:57:53.382Z</time></trkpt><trkpt lat="42.6939996" lon="11.81483"><ele>487.0</ele><time>2026-04-11T12:57:54.389Z</time></trkpt><trkpt lat="42.6939451" lon="11.8149204"><ele>487.0</ele><time>2026-04-11T12:57:55.397Z</time></trkpt><trkpt lat="42.6938833" lon="11.8149991"><ele>487.0</ele><time>2026-04-11T12:57:56.401Z</time></trkpt><trkpt lat="42.6938273" lon="11.8150709"><ele>487.0</ele><time>2026-04-11T12:57:57.397Z</time></trkpt><trkpt lat="42.6937871" lon="11.8151414"><ele>487.0</ele><time>2026-04-11T12:57:58.388Z</time></trkpt><trkpt lat="42.6937458" lon="11.8152068"><ele>487.0</ele><time>2026-04-11T12:57:59.39Z</time></trkpt><trkpt lat="42.6936974" lon="11.8152818"><ele>487.0</ele><time>2026-04-11T12:58:00.379Z</time></trkpt><trkpt lat="42.6936444" lon="11.8153579"><ele>487.0</ele><time>2026-04-11T12:58:01.378Z</time></trkpt><trkpt lat="42.6935851" lon="11.8154462"><ele>487.20000000000005</ele><time>2026-04-11T12:58:02.375Z</time></trkpt><trkpt lat="42.6935334" lon="11.8155411"><ele>487.40000000000003</ele><time>2026-04-11T12:58:03.374Z</time></trkpt><trkpt lat="42.6934625" lon="11.8156224"><ele>487.59999999999997</ele><time>2026-04-11T12:58:04.391Z</time></trkpt><trkpt lat="42.6933877" lon="11.815701"><ele>487.79999999999995</ele><time>2026-04-11T12:58:05.374Z</time></trkpt><trkpt lat="42.6933115" lon="11.8157769"><ele>488.0</ele><time>2026-04-11T12:58:06.377Z</time></trkpt><trkpt lat="42.693229" lon="11.8158367"><ele>488.0</ele><time>2026-04-11T12:58:07.377Z</time></trkpt><trkpt lat="42.693144" lon="11.8159086"><ele>488.0</ele><time>2026-04-11T12:58:08.371Z</time></trkpt><trkpt lat="42.6930122" lon="11.8160456"><ele>488.0</ele><time>2026-04-11T12:58:10.373Z</time></trkpt><trkpt lat="42.6929181" lon="11.8161155"><ele>488.0</ele><time>2026-04-11T12:58:11.373Z</time></trkpt><trkpt lat="42.6928918" lon="11.8162146"><ele>487.49999999999994</ele><time>2026-04-11T12:58:12.382Z</time></trkpt><trkpt lat="42.6928451" lon="11.8163104"><ele>487.0</ele><time>2026-04-11T12:58:13.372Z</time></trkpt><trkpt lat="42.6928086" lon="11.8164104"><ele>486.5</ele><time>2026-04-11T12:58:14.368Z</time></trkpt><trkpt lat="42.6927711" lon="11.8164915"><ele>486.0</ele><time>2026-04-11T12:58:15.381Z</time></trkpt><trkpt lat="42.6926863" lon="11.8165542"><ele>485.49999999999994</ele><time>2026-04-11T12:58:16.386Z</time></trkpt><trkpt lat="42.6925975" lon="11.8166112"><ele>485.0</ele><time>2026-04-11T12:58:17.389Z</time></trkpt><trkpt lat="42.6924948" lon="11.8166694"><ele>485.0</ele><time>2026-04-11T12:58:18.388Z</time></trkpt><trkpt lat="42.6924051" lon="11.8167082"><ele>485.0</ele><time>2026-04-11T12:58:19.396Z</time></trkpt><trkpt lat="42.6922994" lon="11.8167211"><ele>485.0</ele><time>2026-04-11T12:58:20.394Z</time></trkpt><trkpt lat="42.6922068" lon="11.8167401"><ele>485.0</ele><time>2026-04-11T12:58:21.399Z</time></trkpt><trkpt lat="42.6921094" lon="11.8167632"><ele>485.0</ele><time>2026-04-11T12:58:22.391Z</time></trkpt><trkpt lat="42.6920114" lon="11.8167731"><ele>485.2</ele><time>2026-04-11T12:58:23.384Z</time></trkpt><trkpt lat="42.6919094" lon="11.8167557"><ele>485.4</ele><time>2026-04-11T12:58:24.388Z</time></trkpt><trkpt lat="42.6918043" lon="11.8167285"><ele>485.6</ele><time>2026-04-11T12:58:25.381Z</time></trkpt><trkpt lat="42.6916989" lon="11.8166935"><ele>485.8</ele><time>2026-04-11T12:58:26.377Z</time></trkpt><trkpt lat="42.6915907" lon="11.816672"><ele>486.0</ele><time>2026-04-11T12:58:27.371Z</time></trkpt><trkpt lat="42.6914931" lon="11.816656"><ele>486.0</ele><time>2026-04-11T12:58:28.372Z</time></trkpt><trkpt lat="42.6914254" lon="11.8166866"><ele>486.0</ele><time>2026-04-11T12:58:29.38Z</time></trkpt><trkpt lat="42.6913304" lon="11.8166939"><ele>486.0</ele><time>2026-04-11T12:58:30.38Z</time></trkpt><trkpt lat="42.6912205" lon="11.8167206"><ele>486.0</ele><time>2026-04-11T12:58:31.386Z</time></trkpt><trkpt lat="42.6911071" lon="11.8167422"><ele>486.0</ele><time>2026-04-11T12:58:32.391Z</time></trkpt><trkpt lat="42.6909805" lon="11.8167683"><ele>485.75</ele><time>2026-04-11T12:58:33.392Z</time></trkpt><trkpt lat="42.6908488" lon="11.8168043"><ele>485.5</ele><time>2026-04-11T12:58:34.395Z</time></trkpt><trkpt lat="42.6907349" lon="11.8168337"><ele>485.25</ele><time>2026-04-11T12:58:35.392Z</time></trkpt><trkpt lat="42.6906217" lon="11.8168635"><ele>485.0</ele><time>2026-04-11T12:58:36.387Z</time></trkpt><trkpt lat="42.6904883" lon="11.816927"><ele>485.0</ele><time>2026-04-11T12:58:37.392Z</time></trkpt><trkpt lat="42.6903533" lon="11.8169731"><ele>485.0</ele><time>2026-04-11T12:58:38.4Z</time></trkpt><trkpt lat="42.6902048" lon="11.8170653"><ele>485.0</ele><time>2026-04-11T12:58:39.399Z</time></trkpt><trkpt lat="42.690079" lon="11.8171157"><ele>485.0</ele><time>2026-04-11T12:58:40.398Z</time></trkpt><trkpt lat="42.6899428" lon="11.8171829"><ele>485.66666666666663</ele><time>2026-04-11T12:58:41.4Z</time></trkpt><trkpt lat="42.6897869" lon="11.8172577"><ele>486.33333333333337</ele><time>2026-04-11T12:58:42.396Z</time></trkpt><trkpt lat="42.6896444" lon="11.8172779"><ele>487.0</ele><time>2026-04-11T12:58:43.395Z</time></trkpt><trkpt lat="42.689509" lon="11.8173509"><ele>488.0</ele><time>2026-04-11T12:58:44.395Z</time></trkpt><trkpt lat="42.6893258" lon="11.8173685"><ele>489.0</ele><time>2026-04-11T12:58:45.39Z</time></trkpt><trkpt lat="42.6891685" lon="11.8173706"><ele>490.0</ele><time>2026-04-11T12:58:46.388Z</time></trkpt><trkpt lat="42.6889894" lon="11.8173449"><ele>490.0</ele><time>2026-04-11T12:58:47.399Z</time></trkpt><trkpt lat="42.6888057" lon="11.8172921"><ele>490.0</ele><time>2026-04-11T12:58:48.396Z</time></trkpt><trkpt lat="42.6886327" lon="11.8171913"><ele>490.0</ele><time>2026-04-11T12:58:49.396Z</time></trkpt><trkpt lat="42.6884729" lon="11.8170279"><ele>491.0</ele><time>2026-04-11T12:58:50.397Z</time></trkpt><trkpt lat="42.6882957" lon="11.8169177"><ele>492.0</ele><time>2026-04-11T12:58:51.397Z</time></trkpt><trkpt lat="42.6881525" lon="11.8168216"><ele>493.0</ele><time>2026-04-11T12:58:52.398Z</time></trkpt><trkpt lat="42.6879977" lon="11.8167235"><ele>493.0</ele><time>2026-04-11T12:58:53.405Z</time></trkpt><trkpt lat="42.6878191" lon="11.8166197"><ele>493.0</ele><time>2026-04-11T12:58:54.412Z</time></trkpt><trkpt lat="42.6876395" lon="11.8165203"><ele>493.0</ele><time>2026-04-11T12:58:55.413Z</time></trkpt><trkpt lat="42.6874474" lon="11.8164865"><ele>493.0</ele><time>2026-04-11T12:58:56.401Z</time></trkpt><trkpt lat="42.6872509" lon="11.8164446"><ele>493.0</ele><time>2026-04-11T12:58:57.399Z</time></trkpt><trkpt lat="42.6870435" lon="11.8165283"><ele>493.0</ele><time>2026-04-11T12:58:58.397Z</time></trkpt><trkpt lat="42.6868426" lon="11.8165707"><ele>492.6666666666667</ele><time>2026-04-11T12:58:59.402Z</time></trkpt><trkpt lat="42.6866315" lon="11.8166256"><ele>492.33333333333337</ele><time>2026-04-11T12:59:00.405Z</time></trkpt><trkpt lat="42.6864522" lon="11.8166832"><ele>492.0</ele><time>2026-04-11T12:59:01.41Z</time></trkpt><trkpt lat="42.6862609" lon="11.8167255"><ele>493.33333333333337</ele><time>2026-04-11T12:59:02.412Z</time></trkpt><trkpt lat="42.6860637" lon="11.8167389"><ele>494.6666666666667</ele><time>2026-04-11T12:59:03.396Z</time></trkpt><trkpt lat="42.6859182" lon="11.8166911"><ele>496.0</ele><time>2026-04-11T12:59:04.398Z</time></trkpt><trkpt lat="42.6857768" lon="11.8166283"><ele>496.0</ele><time>2026-04-11T12:59:05.407Z</time></trkpt><trkpt lat="42.6856483" lon="11.8165481"><ele>496.0</ele><time>2026-04-11T12:59:06.396Z</time></trkpt><trkpt lat="42.685534" lon="11.8164422"><ele>496.0</ele><time>2026-04-11T12:59:07.392Z</time></trkpt><trkpt lat="42.6854355" lon="11.8163503"><ele>496.0</ele><time>2026-04-11T12:59:08.402Z</time></trkpt><trkpt lat="42.6853544" lon="11.8162713"><ele>495.33333333333337</ele><time>2026-04-11T12:59:09.388Z</time></trkpt><trkpt lat="42.6852006" lon="11.8162678"><ele>494.66666666666663</ele><time>2026-04-11T12:59:10.393Z</time></trkpt><trkpt lat="42.6850437" lon="11.8162725"><ele>494.0</ele><time>2026-04-11T12:59:11.398Z</time></trkpt><trkpt lat="42.6849105" lon="11.8163271"><ele>494.0</ele><time>2026-04-11T12:59:12.394Z</time></trkpt><trkpt lat="42.6847972" lon="11.8163487"><ele>494.0</ele><time>2026-04-11T12:59:13.408Z</time></trkpt><trkpt lat="42.6846491" lon="11.8163798"><ele>494.0</ele><time>2026-04-11T12:59:14.402Z</time></trkpt><trkpt lat="42.684486" lon="11.8164459"><ele>494.0</ele><time>2026-04-11T12:59:15.411Z</time></trkpt><trkpt lat="42.6843254" lon="11.8164742"><ele>495.75</ele><time>2026-04-11T12:59:16.403Z</time></trkpt><trkpt lat="42.6842054" lon="11.8165005"><ele>497.5</ele><time>2026-04-11T12:59:17.409Z</time></trkpt><trkpt lat="42.684072" lon="11.8165074"><ele>499.25</ele><time>2026-04-11T12:59:18.408Z</time></trkpt><trkpt lat="42.6839414" lon="11.8165246"><ele>501.0</ele><time>2026-04-11T12:59:19.409Z</time></trkpt><trkpt lat="42.6838096" lon="11.816528"><ele>501.0</ele><time>2026-04-11T12:59:20.402Z</time></trkpt><trkpt lat="42.683682" lon="11.8165443"><ele>501.0</ele><time>2026-04-11T12:59:21.402Z</time></trkpt><trkpt lat="42.683557" lon="11.8165695"><ele>501.0</ele><time>2026-04-11T12:59:22.409Z</time></trkpt><trkpt lat="42.6834443" lon="11.8165869"><ele>501.0</ele><time>2026-04-11T12:59:23.41Z</time></trkpt><trkpt lat="42.6833434" lon="11.8165882"><ele>501.3333333333333</ele><time>2026-04-11T12:59:24.412Z</time></trkpt><trkpt lat="42.6832547" lon="11.8165861"><ele>501.66666666666663</ele><time>2026-04-11T12:59:25.408Z</time></trkpt><trkpt lat="42.6831778" lon="11.8165766"><ele>502.0</ele><time>2026-04-11T12:59:26.413Z</time></trkpt><trkpt lat="42.6831115" lon="11.8165796"><ele>502.3333333333333</ele><time>2026-04-11T12:59:27.406Z</time></trkpt><trkpt lat="42.6830386" lon="11.8165987"><ele>502.66666666666663</ele><time>2026-04-11T12:59:28.402Z</time></trkpt><trkpt lat="42.68296" lon="11.8166452"><ele>503.0</ele><time>2026-04-11T12:59:29.382Z</time></trkpt><trkpt lat="42.6828738" lon="11.8167186"><ele>503.0</ele><time>2026-04-11T12:59:30.387Z</time></trkpt><trkpt lat="42.6827893" lon="11.8168148"><ele>503.0</ele><time>2026-04-11T12:59:31.382Z</time></trkpt><trkpt lat="42.682709" lon="11.8169142"><ele>503.0</ele><time>2026-04-11T12:59:32.383Z</time></trkpt><trkpt lat="42.6826133" lon="11.8170488"><ele>503.0</ele><time>2026-04-11T12:59:33.386Z</time></trkpt><trkpt lat="42.6825022" lon="11.8172166"><ele>503.3333333333333</ele><time>2026-04-11T12:59:34.386Z</time></trkpt><trkpt lat="42.6823852" lon="11.8173751"><ele>503.66666666666663</ele><time>2026-04-11T12:59:35.394Z</time></trkpt><trkpt lat="42.6822574" lon="11.8175343"><ele>504.0</ele><time>2026-04-11T12:59:36.405Z</time></trkpt><trkpt lat="42.6821277" lon="11.8176822"><ele>504.5</ele><time>2026-04-11T12:59:37.393Z</time></trkpt><trkpt lat="42.6819988" lon="11.8178099"><ele>505.0</ele><time>2026-04-11T12:59:38.391Z</time></trkpt><trkpt lat="42.6818897" lon="11.8178794"><ele>505.5</ele><time>2026-04-11T12:59:39.39Z</time></trkpt><trkpt lat="42.681793" lon="11.8179797"><ele>506.0</ele><time>2026-04-11T12:59:40.39Z</time></trkpt><trkpt lat="42.6816739" lon="11.8180402"><ele>506.66666666666663</ele><time>2026-04-11T12:59:41.398Z</time></trkpt><trkpt lat="42.6815648" lon="11.818057"><ele>507.33333333333337</ele><time>2026-04-11T12:59:42.391Z</time></trkpt><trkpt lat="42.6814179" lon="11.8180818"><ele>508.0</ele><time>2026-04-11T12:59:43.37Z</time></trkpt><trkpt lat="42.6812082" lon="11.8180445"><ele>508.33333333333337</ele><time>2026-04-11T12:59:44.38Z</time></trkpt><trkpt lat="42.6810666" lon="11.8180812"><ele>508.66666666666663</ele><time>2026-04-11T12:59:45.378Z</time></trkpt><trkpt lat="42.6808907" lon="11.8181171"><ele>509.0</ele><time>2026-04-11T12:59:46.385Z</time></trkpt><trkpt lat="42.6807445" lon="11.8181386"><ele>509.0</ele><time>2026-04-11T12:59:47.394Z</time></trkpt><trkpt lat="42.6805814" lon="11.8181772"><ele>509.0</ele><time>2026-04-11T12:59:48.389Z</time></trkpt><trkpt lat="42.6804627" lon="11.8182486"><ele>509.0</ele><time>2026-04-11T12:59:49.385Z</time></trkpt><trkpt lat="42.6803405" lon="11.8182982"><ele>509.0</ele><time>2026-04-11T12:59:50.384Z</time></trkpt><trkpt lat="42.6801686" lon="11.8183215"><ele>509.66666666666663</ele><time>2026-04-11T12:59:51.387Z</time></trkpt><trkpt lat="42.6800109" lon="11.8183193"><ele>510.33333333333337</ele><time>2026-04-11T12:59:52.393Z</time></trkpt><trkpt lat="42.6798563" lon="11.8182716"><ele>511.0</ele><time>2026-04-11T12:59:53.393Z</time></trkpt><trkpt lat="42.6797047" lon="11.8182618"><ele>511.0</ele><time>2026-04-11T12:59:54.395Z</time></trkpt><trkpt lat="42.6795579" lon="11.8182299"><ele>511.0</ele><time>2026-04-11T12:59:55.386Z</time></trkpt><trkpt lat="42.6793887" lon="11.8182361"><ele>511.0</ele><time>2026-04-11T12:59:56.386Z</time></trkpt><trkpt lat="42.6792282" lon="11.8182985"><ele>511.0</ele><time>2026-04-11T12:59:57.384Z</time></trkpt><trkpt lat="42.6790793" lon="11.8183649"><ele>511.0</ele><time>2026-04-11T12:59:58.347Z</time></trkpt><trkpt lat="42.6789587" lon="11.8184909"><ele>511.0</ele><time>2026-04-11T12:59:59.35Z</time></trkpt><trkpt lat="42.6788701" lon="11.818579"><ele>511.0</ele><time>2026-04-11T13:00:00.337Z</time></trkpt><trkpt lat="42.6787787" lon="11.8186865"><ele>510.75</ele><time>2026-04-11T13:00:01.333Z</time></trkpt><trkpt lat="42.6786846" lon="11.8188288"><ele>510.5</ele><time>2026-04-11T13:00:02.348Z</time></trkpt><trkpt lat="42.6785842" lon="11.8189486"><ele>510.25</ele><time>2026-04-11T13:00:03.345Z</time></trkpt><trkpt lat="42.6784896" lon="11.81906"><ele>510.0</ele><time>2026-04-11T13:00:04.339Z</time></trkpt><trkpt lat="42.6783727" lon="11.8191577"><ele>510.0</ele><time>2026-04-11T13:00:05.344Z</time></trkpt><trkpt lat="42.6782043" lon="11.819238"><ele>510.0</ele><time>2026-04-11T13:00:06.344Z</time></trkpt><trkpt lat="42.6780302" lon="11.8193172"><ele>510.0</ele><time>2026-04-11T13:00:07.35Z</time></trkpt><trkpt lat="42.6778221" lon="11.8194042"><ele>509.33333333333337</ele><time>2026-04-11T13:00:08.348Z</time></trkpt><trkpt lat="42.6776472" lon="11.8194974"><ele>508.6666666666667</ele><time>2026-04-11T13:00:09.352Z</time></trkpt><trkpt lat="42.6774891" lon="11.8195855"><ele>508.0</ele><time>2026-04-11T13:00:10.35Z</time></trkpt><trkpt lat="42.6773121" lon="11.8196906"><ele>508.0</ele><time>2026-04-11T13:00:11.352Z</time></trkpt><trkpt lat="42.677164" lon="11.8197911"><ele>508.0</ele><time>2026-04-11T13:00:12.351Z</time></trkpt><trkpt lat="42.6770109" lon="11.8198738"><ele>508.0</ele><time>2026-04-11T13:00:13.344Z</time></trkpt><trkpt lat="42.6768265" lon="11.8199916"><ele>508.0</ele><time>2026-04-11T13:00:14.34Z</time></trkpt><trkpt lat="42.6766556" lon="11.8201113"><ele>508.0</ele><time>2026-04-11T13:00:15.343Z</time></trkpt><trkpt lat="42.6764858" lon="11.8201994"><ele>508.0</ele><time>2026-04-11T13:00:16.344Z</time></trkpt><trkpt lat="42.6763211" lon="11.8202865"><ele>508.75</ele><time>2026-04-11T13:00:17.344Z</time></trkpt><trkpt lat="42.6761654" lon="11.8203761"><ele>509.5</ele><time>2026-04-11T13:00:18.342Z</time></trkpt><trkpt lat="42.6760351" lon="11.8204677"><ele>510.25</ele><time>2026-04-11T13:00:19.333Z</time></trkpt><trkpt lat="42.6759117" lon="11.8205056"><ele>511.0</ele><time>2026-04-11T13:00:20.341Z</time></trkpt><trkpt lat="42.6758051" lon="11.8205658"><ele>511.00000000000006</ele><time>2026-04-11T13:00:21.336Z</time></trkpt><trkpt lat="42.6757462" lon="11.8206326"><ele>511.0</ele><time>2026-04-11T13:00:22.333Z</time></trkpt><trkpt lat="42.6757659" lon="11.820716"><ele>511.0</ele><time>2026-04-11T13:00:27.331Z</time></trkpt><trkpt lat="42.6757515" lon="11.8208181"><ele>511.0</ele><time>2026-04-11T13:00:30.335Z</time></trkpt><trkpt lat="42.6756927" lon="11.8208966"><ele>511.00000000000006</ele><time>2026-04-11T13:00:32.34Z</time></trkpt><trkpt lat="42.6756359" lon="11.8209981"><ele>511.0</ele><time>2026-04-11T13:00:35.344Z</time></trkpt><trkpt lat="42.6755973" lon="11.8210882"><ele>510.6</ele><time>2026-04-11T13:00:37.335Z</time></trkpt><trkpt lat="42.6755338" lon="11.8212172"><ele>510.20000000000005</ele><time>2026-04-11T13:00:39.335Z</time></trkpt><trkpt lat="42.6754982" lon="11.8212946"><ele>509.79999999999995</ele><time>2026-04-11T13:00:40.335Z</time></trkpt><trkpt lat="42.6754678" lon="11.8213805"><ele>509.4</ele><time>2026-04-11T13:00:41.334Z</time></trkpt><trkpt lat="42.6754369" lon="11.8215067"><ele>509.0</ele><time>2026-04-11T13:00:42.339Z</time></trkpt><trkpt lat="42.6753772" lon="11.8216578"><ele>509.0</ele><time>2026-04-11T13:00:43.339Z</time></trkpt><trkpt lat="42.6752974" lon="11.8218378"><ele>509.0</ele><time>2026-04-11T13:00:44.34Z</time></trkpt><trkpt lat="42.6752243" lon="11.8220193"><ele>509.0</ele><time>2026-04-11T13:00:45.342Z</time></trkpt><trkpt lat="42.6751551" lon="11.8221983"><ele>509.0</ele><time>2026-04-11T13:00:46.339Z</time></trkpt><trkpt lat="42.6750868" lon="11.8223561"><ele>509.0</ele><time>2026-04-11T13:00:47.333Z</time></trkpt><trkpt lat="42.675026" lon="11.8225268"><ele>509.0</ele><time>2026-04-11T13:00:48.344Z</time></trkpt><trkpt lat="42.6749724" lon="11.8226994"><ele>509.0</ele><time>2026-04-11T13:00:49.329Z</time></trkpt><trkpt lat="42.6749195" lon="11.822889"><ele>509.75</ele><time>2026-04-11T13:00:50.331Z</time></trkpt><trkpt lat="42.6748785" lon="11.8230827"><ele>510.5</ele><time>2026-04-11T13:00:51.327Z</time></trkpt><trkpt lat="42.674872" lon="11.8232159"><ele>511.25</ele><time>2026-04-11T13:00:52.329Z</time></trkpt><trkpt lat="42.6748798" lon="11.8233419"><ele>512.0</ele><time>2026-04-11T13:00:53.33Z</time></trkpt><trkpt lat="42.6749996" lon="11.8234932"><ele>512.0</ele><time>2026-04-11T13:00:55.34Z</time></trkpt><trkpt lat="42.6750946" lon="11.8235908"><ele>512.0</ele><time>2026-04-11T13:00:56.345Z</time></trkpt><trkpt lat="42.6751955" lon="11.8236818"><ele>512.0</ele><time>2026-04-11T13:00:57.343Z</time></trkpt><trkpt lat="42.6752943" lon="11.8237587"><ele>512.0</ele><time>2026-04-11T13:00:58.353Z</time></trkpt><trkpt lat="42.6753838" lon="11.8238478"><ele>511.75</ele><time>2026-04-11T13:00:59.339Z</time></trkpt><trkpt lat="42.675466" lon="11.8239625"><ele>511.5</ele><time>2026-04-11T13:01:00.338Z</time></trkpt><trkpt lat="42.67556" lon="11.8241043"><ele>511.25</ele><time>2026-04-11T13:01:01.342Z</time></trkpt><trkpt lat="42.6756552" lon="11.8242537"><ele>511.0</ele><time>2026-04-11T13:01:02.345Z</time></trkpt><trkpt lat="42.6757497" lon="11.8243991"><ele>509.0</ele><time>2026-04-11T13:01:03.341Z</time></trkpt><trkpt lat="42.6757442" lon="11.8245707"><ele>507.0</ele><time>2026-04-11T13:01:04.35Z</time></trkpt><trkpt lat="42.675785" lon="11.8248336"><ele>505.0</ele><time>2026-04-11T13:01:05.35Z</time></trkpt><trkpt lat="42.6758374" lon="11.8250353"><ele>501.33333333333337</ele><time>2026-04-11T13:01:06.352Z</time></trkpt><trkpt lat="42.6759288" lon="11.8252023"><ele>497.66666666666663</ele><time>2026-04-11T13:01:07.354Z</time></trkpt><trkpt lat="42.6760093" lon="11.8254095"><ele>494.0</ele><time>2026-04-11T13:01:08.352Z</time></trkpt><trkpt lat="42.676097" lon="11.8255898"><ele>494.0</ele><time>2026-04-11T13:01:09.357Z</time></trkpt><trkpt lat="42.6761559" lon="11.8257224"><ele>494.0</ele><time>2026-04-11T13:01:10.349Z</time></trkpt><trkpt lat="42.6762704" lon="11.8258236"><ele>494.0</ele><time>2026-04-11T13:01:11.347Z</time></trkpt><trkpt lat="42.6763695" lon="11.8259458"><ele>494.0</ele><time>2026-04-11T13:01:12.345Z</time></trkpt><trkpt lat="42.6764714" lon="11.8260857"><ele>494.0</ele><time>2026-04-11T13:01:13.353Z</time></trkpt><trkpt lat="42.6765235" lon="11.8262119"><ele>494.0</ele><time>2026-04-11T13:01:14.344Z</time></trkpt><trkpt lat="42.6766038" lon="11.8263754"><ele>494.0</ele><time>2026-04-11T13:01:15.346Z</time></trkpt><trkpt lat="42.6766356" lon="11.8265465"><ele>494.0</ele><time>2026-04-11T13:01:16.347Z</time></trkpt><trkpt lat="42.6766728" lon="11.8267224"><ele>492.75</ele><time>2026-04-11T13:01:17.341Z</time></trkpt><trkpt lat="42.6767221" lon="11.8268917"><ele>491.5</ele><time>2026-04-11T13:01:18.338Z</time></trkpt><trkpt lat="42.6767504" lon="11.8270692"><ele>490.25</ele><time>2026-04-11T13:01:19.351Z</time></trkpt><trkpt lat="42.6767605" lon="11.8272413"><ele>489.0</ele><time>2026-04-11T13:01:20.343Z</time></trkpt><trkpt lat="42.6767481" lon="11.827419"><ele>489.0</ele><time>2026-04-11T13:01:21.345Z</time></trkpt><trkpt lat="42.6767189" lon="11.8275962"><ele>489.0</ele><time>2026-04-11T13:01:22.349Z</time></trkpt><trkpt lat="42.6766873" lon="11.8277788"><ele>489.0</ele><time>2026-04-11T13:01:23.352Z</time></trkpt><trkpt lat="42.6766304" lon="11.8279708"><ele>489.0</ele><time>2026-04-11T13:01:24.35Z</time></trkpt><trkpt lat="42.6765702" lon="11.828126"><ele>491.0</ele><time>2026-04-11T13:01:25.342Z</time></trkpt><trkpt lat="42.6765418" lon="11.8282314"><ele>493.0</ele><time>2026-04-11T13:01:26.344Z</time></trkpt><trkpt lat="42.6765107" lon="11.8283196"><ele>495.0</ele><time>2026-04-11T13:01:27.337Z</time></trkpt><trkpt lat="42.6764248" lon="11.8284032"><ele>497.0</ele><time>2026-04-11T13:01:28.335Z</time></trkpt><trkpt lat="42.6763216" lon="11.8284304"><ele>499.0</ele><time>2026-04-11T13:01:29.339Z</time></trkpt><trkpt lat="42.6761916" lon="11.8284028"><ele>499.4</ele><time>2026-04-11T13:01:30.337Z</time></trkpt><trkpt lat="42.6760783" lon="11.8283677"><ele>499.79999999999995</ele><time>2026-04-11T13:01:31.336Z</time></trkpt><trkpt lat="42.6759843" lon="11.828347"><ele>500.20000000000005</ele><time>2026-04-11T13:01:32.334Z</time></trkpt><trkpt lat="42.675894" lon="11.8283279"><ele>500.6</ele><time>2026-04-11T13:01:33.34Z</time></trkpt><trkpt lat="42.6757784" lon="11.8282928"><ele>501.0</ele><time>2026-04-11T13:01:34.34Z</time></trkpt><trkpt lat="42.6756619" lon="11.8282599"><ele>501.0</ele><time>2026-04-11T13:01:35.344Z</time></trkpt><trkpt lat="42.6755538" lon="11.8282607"><ele>501.0</ele><time>2026-04-11T13:01:36.344Z</time></trkpt><trkpt lat="42.6754479" lon="11.8282523"><ele>501.0</ele><time>2026-04-11T13:01:37.337Z</time></trkpt><trkpt lat="42.6753598" lon="11.8282446"><ele>501.0</ele><time>2026-04-11T13:01:38.337Z</time></trkpt><trkpt lat="42.67525" lon="11.8282424"><ele>501.0</ele><time>2026-04-11T13:01:39.337Z</time></trkpt><trkpt lat="42.6751318" lon="11.8282744"><ele>502.0</ele><time>2026-04-11T13:01:40.334Z</time></trkpt><trkpt lat="42.6750038" lon="11.828331"><ele>503.0</ele><time>2026-04-11T13:01:41.334Z</time></trkpt><trkpt lat="42.674887" lon="11.8283726"><ele>504.0</ele><time>2026-04-11T13:01:42.336Z</time></trkpt><trkpt lat="42.6747231" lon="11.8284198"><ele>505.0</ele><time>2026-04-11T13:01:43.33Z</time></trkpt><trkpt lat="42.674551" lon="11.8285091"><ele>509.0</ele><time>2026-04-11T13:01:44.332Z</time></trkpt><trkpt lat="42.6743989" lon="11.8286465"><ele>513.0</ele><time>2026-04-11T13:01:45.332Z</time></trkpt><trkpt lat="42.674251" lon="11.8287432"><ele>517.0</ele><time>2026-04-11T13:01:46.333Z</time></trkpt><trkpt lat="42.6741188" lon="11.8287961"><ele>517.0</ele><time>2026-04-11T13:01:47.331Z</time></trkpt><trkpt lat="42.6739988" lon="11.8288707"><ele>517.0</ele><time>2026-04-11T13:01:48.333Z</time></trkpt><trkpt lat="42.6738976" lon="11.8289146"><ele>517.0</ele><time>2026-04-11T13:01:49.332Z</time></trkpt><trkpt lat="42.6738117" lon="11.8289511"><ele>517.0</ele><time>2026-04-11T13:01:50.328Z</time></trkpt><trkpt lat="42.6737364" lon="11.8290132"><ele>517.0</ele><time>2026-04-11T13:01:51.327Z</time></trkpt><trkpt lat="42.6736916" lon="11.8291057"><ele>517.0</ele><time>2026-04-11T13:01:52.332Z</time></trkpt><trkpt lat="42.6736265" lon="11.8292148"><ele>517.0</ele><time>2026-04-11T13:01:53.33Z</time></trkpt><trkpt lat="42.6735945" lon="11.8293109"><ele>517.0</ele><time>2026-04-11T13:01:54.332Z</time></trkpt><trkpt lat="42.6736104" lon="11.8294439"><ele>517.0</ele><time>2026-04-11T13:01:55.33Z</time></trkpt><trkpt lat="42.6736424" lon="11.8295702"><ele>517.0</ele><time>2026-04-11T13:01:56.335Z</time></trkpt><trkpt lat="42.6737033" lon="11.8297147"><ele>517.0</ele><time>2026-04-11T13:01:57.342Z</time></trkpt><trkpt lat="42.6737748" lon="11.8298641"><ele>517.0</ele><time>2026-04-11T13:01:58.348Z</time></trkpt><trkpt lat="42.6738644" lon="11.8299917"><ele>517.0</ele><time>2026-04-11T13:01:59.343Z</time></trkpt><trkpt lat="42.6739652" lon="11.8300848"><ele>517.0</ele><time>2026-04-11T13:02:00.343Z</time></trkpt><trkpt lat="42.6740624" lon="11.8301414"><ele>517.0</ele><time>2026-04-11T13:02:01.342Z</time></trkpt><trkpt lat="42.674174" lon="11.8301837"><ele>517.0</ele><time>2026-04-11T13:02:02.346Z</time></trkpt><trkpt lat="42.6742984" lon="11.8302099"><ele>517.0</ele><time>2026-04-11T13:02:03.35Z</time></trkpt><trkpt lat="42.6744187" lon="11.8302294"><ele>517.0</ele><time>2026-04-11T13:02:04.346Z</time></trkpt><trkpt lat="42.6745231" lon="11.8302819"><ele>517.0</ele><time>2026-04-11T13:02:05.351Z</time></trkpt><trkpt lat="42.6746213" lon="11.8303102"><ele>517.0</ele><time>2026-04-11T13:02:06.343Z</time></trkpt><trkpt lat="42.674721" lon="11.8303437"><ele>517.0</ele><time>2026-04-11T13:02:07.335Z</time></trkpt><trkpt lat="42.6747947" lon="11.8303579"><ele>517.0</ele><time>2026-04-11T13:02:08.338Z</time></trkpt><trkpt lat="42.6748693" lon="11.8304212"><ele>517.0</ele><time>2026-04-11T13:02:09.343Z</time></trkpt><trkpt lat="42.6749414" lon="11.8304954"><ele>517.0</ele><time>2026-04-11T13:02:10.355Z</time></trkpt><trkpt lat="42.6749672" lon="11.8306024"><ele>517.0</ele><time>2026-04-11T13:02:11.347Z</time></trkpt><trkpt lat="42.6750254" lon="11.830743"><ele>517.0</ele><time>2026-04-11T13:02:12.346Z</time></trkpt><trkpt lat="42.6750594" lon="11.8308945"><ele>517.0</ele><time>2026-04-11T13:02:13.344Z</time></trkpt><trkpt lat="42.6750829" lon="11.8310461"><ele>517.0</ele><time>2026-04-11T13:02:14.34Z</time></trkpt><trkpt lat="42.6751148" lon="11.831217"><ele>517.3333333333334</ele><time>2026-04-11T13:02:15.34Z</time></trkpt><trkpt lat="42.6751525" lon="11.8314148"><ele>517.6666666666666</ele><time>2026-04-11T13:02:16.345Z</time></trkpt><trkpt lat="42.6751853" lon="11.8316421"><ele>518.0</ele><time>2026-04-11T13:02:17.34Z</time></trkpt><trkpt lat="42.6751995" lon="11.8318619"><ele>518.0</ele><time>2026-04-11T13:02:18.331Z</time></trkpt><trkpt lat="42.6751588" lon="11.8320329"><ele>518.0</ele><time>2026-04-11T13:02:19.335Z</time></trkpt><trkpt lat="42.6751108" lon="11.8322022"><ele>518.0</ele><time>2026-04-11T13:02:20.337Z</time></trkpt><trkpt lat="42.6750665" lon="11.8323506"><ele>518.0</ele><time>2026-04-11T13:02:21.345Z</time></trkpt><trkpt lat="42.674994" lon="11.8324521"><ele>518.0</ele><time>2026-04-11T13:02:22.34Z</time></trkpt><trkpt lat="42.6749307" lon="11.8325069"><ele>518.0</ele><time>2026-04-11T13:02:23.344Z</time></trkpt><trkpt lat="42.6748547" lon="11.8325321"><ele>518.0</ele><time>2026-04-11T13:02:24.346Z</time></trkpt><trkpt lat="42.674762" lon="11.832535"><ele>518.0</ele><time>2026-04-11T13:02:25.341Z</time></trkpt><trkpt lat="42.6746478" lon="11.8325273"><ele>518.0</ele><time>2026-04-11T13:02:26.349Z</time></trkpt><trkpt lat="42.6744958" lon="11.8325073"><ele>517.3333333333333</ele><time>2026-04-11T13:02:27.34Z</time></trkpt><trkpt lat="42.6743334" lon="11.8324966"><ele>516.6666666666666</ele><time>2026-04-11T13:02:28.344Z</time></trkpt><trkpt lat="42.6741858" lon="11.8325043"><ele>516.0</ele><time>2026-04-11T13:02:29.337Z</time></trkpt><trkpt lat="42.6740291" lon="11.8324993"><ele>516.0</ele><time>2026-04-11T13:02:30.333Z</time></trkpt><trkpt lat="42.6738693" lon="11.8324937"><ele>516.0</ele><time>2026-04-11T13:02:31.336Z</time></trkpt><trkpt lat="42.6737192" lon="11.8325384"><ele>516.0</ele><time>2026-04-11T13:02:32.337Z</time></trkpt><trkpt lat="42.6735799" lon="11.8326009"><ele>516.5</ele><time>2026-04-11T13:02:33.334Z</time></trkpt><trkpt lat="42.6734457" lon="11.8326582"><ele>517.0</ele><time>2026-04-11T13:02:34.339Z</time></trkpt><trkpt lat="42.6733345" lon="11.8327055"><ele>517.5</ele><time>2026-04-11T13:02:35.338Z</time></trkpt><trkpt lat="42.6732161" lon="11.8327782"><ele>518.0</ele><time>2026-04-11T13:02:36.334Z</time></trkpt><trkpt lat="42.6730856" lon="11.8328557"><ele>518.0</ele><time>2026-04-11T13:02:37.332Z</time></trkpt><trkpt lat="42.6729844" lon="11.8329533"><ele>518.0</ele><time>2026-04-11T13:02:38.326Z</time></trkpt><trkpt lat="42.6728615" lon="11.833079"><ele>518.0</ele><time>2026-04-11T13:02:39.324Z</time></trkpt><trkpt lat="42.6728095" lon="11.8332592"><ele>518.0</ele><time>2026-04-11T13:02:40.331Z</time></trkpt><trkpt lat="42.6727914" lon="11.8334534"><ele>517.75</ele><time>2026-04-11T13:02:41.333Z</time></trkpt><trkpt lat="42.6727485" lon="11.8336346"><ele>517.5</ele><time>2026-04-11T13:02:42.334Z</time></trkpt><trkpt lat="42.672759" lon="11.8338405"><ele>517.25</ele><time>2026-04-11T13:02:43.347Z</time></trkpt><trkpt lat="42.6727636" lon="11.8340476"><ele>517.0</ele><time>2026-04-11T13:02:44.341Z</time></trkpt><trkpt lat="42.6727649" lon="11.8342422"><ele>517.75</ele><time>2026-04-11T13:02:45.346Z</time></trkpt><trkpt lat="42.6727751" lon="11.8344451"><ele>518.5</ele><time>2026-04-11T13:02:46.345Z</time></trkpt><trkpt lat="42.6727741" lon="11.8346412"><ele>519.25</ele><time>2026-04-11T13:02:47.346Z</time></trkpt><trkpt lat="42.6727586" lon="11.8348149"><ele>520.0</ele><time>2026-04-11T13:02:48.35Z</time></trkpt><trkpt lat="42.6727327" lon="11.8349568"><ele>518.4</ele><time>2026-04-11T13:02:49.339Z</time></trkpt><trkpt lat="42.6727058" lon="11.8350844"><ele>516.8</ele><time>2026-04-11T13:02:50.346Z</time></trkpt><trkpt lat="42.6726558" lon="11.8351466"><ele>515.2</ele><time>2026-04-11T13:02:51.344Z</time></trkpt><trkpt lat="42.6725676" lon="11.8351756"><ele>513.6</ele><time>2026-04-11T13:02:52.348Z</time></trkpt><trkpt lat="42.672476" lon="11.8351356"><ele>512.0</ele><time>2026-04-11T13:02:53.341Z</time></trkpt><trkpt lat="42.6723722" lon="11.8350466"><ele>512.0</ele><time>2026-04-11T13:02:54.33Z</time></trkpt><trkpt lat="42.6722859" lon="11.8349619"><ele>512.0</ele><time>2026-04-11T13:02:55.241Z</time></trkpt><trkpt lat="42.6722107" lon="11.8348584"><ele>512.0</ele><time>2026-04-11T13:02:56.24Z</time></trkpt><trkpt lat="42.6721306" lon="11.8347643"><ele>512.0</ele><time>2026-04-11T13:02:57.239Z</time></trkpt><trkpt lat="42.6720284" lon="11.8346487"><ele>512.0</ele><time>2026-04-11T13:02:58.24Z</time></trkpt><trkpt lat="42.6719409" lon="11.8345463"><ele>512.0</ele><time>2026-04-11T13:02:59.145Z</time></trkpt><trkpt lat="42.671765" lon="11.8343951"><ele>512.0</ele><time>2026-04-11T13:03:01.037Z</time></trkpt><trkpt lat="42.6717009" lon="11.8343939"><ele>512.0</ele><time>2026-04-11T13:03:02.027Z</time></trkpt><trkpt lat="42.6716389" lon="11.8344825"><ele>510.25</ele><time>2026-04-11T13:03:03.028Z</time></trkpt><trkpt lat="42.6715764" lon="11.8345839"><ele>508.5</ele><time>2026-04-11T13:03:03.928Z</time></trkpt><trkpt lat="42.6715271" lon="11.8347129"><ele>506.75</ele><time>2026-04-11T13:03:04.829Z</time></trkpt><trkpt lat="42.6714995" lon="11.8348291"><ele>505.0</ele><time>2026-04-11T13:03:05.733Z</time></trkpt><trkpt lat="42.6714609" lon="11.8354342"><ele>504.25</ele><time>2026-04-11T13:03:08.434Z</time></trkpt><trkpt lat="42.6714431" lon="11.8356337"><ele>503.5</ele><time>2026-04-11T13:03:09.438Z</time></trkpt><trkpt lat="42.6714497" lon="11.8358111"><ele>502.75</ele><time>2026-04-11T13:03:10.347Z</time></trkpt><trkpt lat="42.6714637" lon="11.8360184"><ele>502.0</ele><time>2026-04-11T13:03:11.354Z</time></trkpt><trkpt lat="42.6714661" lon="11.8361794"><ele>501.8</ele><time>2026-04-11T13:03:12.346Z</time></trkpt><trkpt lat="42.6714041" lon="11.8362052"><ele>501.6</ele><time>2026-04-11T13:03:13.339Z</time></trkpt><trkpt lat="42.6713948" lon="11.8363271"><ele>501.40000000000003</ele><time>2026-04-11T13:03:14.34Z</time></trkpt><trkpt lat="42.6713128" lon="11.8363283"><ele>501.20000000000005</ele><time>2026-04-11T13:03:15.335Z</time></trkpt><trkpt lat="42.6711942" lon="11.8362694"><ele>501.0</ele><time>2026-04-11T13:03:16.34Z</time></trkpt><trkpt lat="42.6710499" lon="11.8362026"><ele>503.0</ele><time>2026-04-11T13:03:17.344Z</time></trkpt><trkpt lat="42.6709179" lon="11.8361383"><ele>505.0</ele><time>2026-04-11T13:03:18.335Z</time></trkpt><trkpt lat="42.6707895" lon="11.8361634"><ele>507.0</ele><time>2026-04-11T13:03:19.331Z</time></trkpt><trkpt lat="42.6706685" lon="11.8362284"><ele>509.0</ele><time>2026-04-11T13:03:20.336Z</time></trkpt><trkpt lat="42.6705741" lon="11.8363264"><ele>509.0</ele><time>2026-04-11T13:03:21.336Z</time></trkpt><trkpt lat="42.6705" lon="11.8364617"><ele>509.0</ele><time>2026-04-11T13:03:22.329Z</time></trkpt><trkpt lat="42.6704599" lon="11.8366167"><ele>509.0</ele><time>2026-04-11T13:03:23.332Z</time></trkpt><trkpt lat="42.6704861" lon="11.8367478"><ele>509.0</ele><time>2026-04-11T13:03:24.335Z</time></trkpt><trkpt lat="42.6705251" lon="11.8368606"><ele>509.0</ele><time>2026-04-11T13:03:25.325Z</time></trkpt><trkpt lat="42.6706197" lon="11.8369942"><ele>511.25</ele><time>2026-04-11T13:03:26.331Z</time></trkpt><trkpt lat="42.6707364" lon="11.8371151"><ele>513.5</ele><time>2026-04-11T13:03:27.337Z</time></trkpt><trkpt lat="42.6708407" lon="11.8372665"><ele>515.75</ele><time>2026-04-11T13:03:28.338Z</time></trkpt><trkpt lat="42.6709293" lon="11.8374179"><ele>518.0</ele><time>2026-04-11T13:03:29.346Z</time></trkpt><trkpt lat="42.6709877" lon="11.8375685"><ele>518.1999999999999</ele><time>2026-04-11T13:03:30.338Z</time></trkpt><trkpt lat="42.6709729" lon="11.8377046"><ele>518.4</ele><time>2026-04-11T13:03:31.339Z</time></trkpt><trkpt lat="42.6709279" lon="11.8378286"><ele>518.5999999999999</ele><time>2026-04-11T13:03:32.354Z</time></trkpt><trkpt lat="42.6708571" lon="11.8379333"><ele>518.8</ele><time>2026-04-11T13:03:33.355Z</time></trkpt><trkpt lat="42.6707987" lon="11.8380383"><ele>519.0</ele><time>2026-04-11T13:03:34.347Z</time></trkpt><trkpt lat="42.6706957" lon="11.8381119"><ele>519.0</ele><time>2026-04-11T13:03:35.349Z</time></trkpt><trkpt lat="42.6705383" lon="11.8381541"><ele>519.0</ele><time>2026-04-11T13:03:36.352Z</time></trkpt><trkpt lat="42.670383" lon="11.8382218"><ele>519.0</ele><time>2026-04-11T13:03:37.346Z</time></trkpt><trkpt lat="42.6702045" lon="11.8382988"><ele>519.3333333333334</ele><time>2026-04-11T13:03:38.35Z</time></trkpt><trkpt lat="42.6700269" lon="11.8383793"><ele>519.6666666666667</ele><time>2026-04-11T13:03:39.358Z</time></trkpt><trkpt lat="42.6698005" lon="11.838459"><ele>520.0</ele><time>2026-04-11T13:03:40.351Z</time></trkpt><trkpt lat="42.6696269" lon="11.8385768"><ele>520.6666666666667</ele><time>2026-04-11T13:03:41.35Z</time></trkpt><trkpt lat="42.6694574" lon="11.8386934"><ele>521.3333333333334</ele><time>2026-04-11T13:03:42.353Z</time></trkpt><trkpt lat="42.6692924" lon="11.8388466"><ele>522.0</ele><time>2026-04-11T13:03:43.35Z</time></trkpt><trkpt lat="42.6691456" lon="11.8390224"><ele>518.6666666666666</ele><time>2026-04-11T13:03:44.354Z</time></trkpt><trkpt lat="42.6690221" lon="11.8391917"><ele>515.3333333333333</ele><time>2026-04-11T13:03:45.347Z</time></trkpt><trkpt lat="42.6688976" lon="11.8393273"><ele>512.0</ele><time>2026-04-11T13:03:46.351Z</time></trkpt><trkpt lat="42.6687892" lon="11.8394656"><ele>510.75</ele><time>2026-04-11T13:03:47.348Z</time></trkpt><trkpt lat="42.6687151" lon="11.8396207"><ele>509.5</ele><time>2026-04-11T13:03:48.346Z</time></trkpt><trkpt lat="42.6686733" lon="11.8397869"><ele>508.25</ele><time>2026-04-11T13:03:49.341Z</time></trkpt><trkpt lat="42.6686473" lon="11.8399533"><ele>507.0</ele><time>2026-04-11T13:03:50.344Z</time></trkpt><trkpt lat="42.6686444" lon="11.8401273"><ele>505.25</ele><time>2026-04-11T13:03:51.347Z</time></trkpt><trkpt lat="42.6686629" lon="11.840306"><ele>503.5</ele><time>2026-04-11T13:03:52.348Z</time></trkpt><trkpt lat="42.6687714" lon="11.840418"><ele>501.75</ele><time>2026-04-11T13:03:53.353Z</time></trkpt><trkpt lat="42.668868" lon="11.8405624"><ele>500.0</ele><time>2026-04-11T13:03:54.345Z</time></trkpt><trkpt lat="42.6689185" lon="11.8407164"><ele>500.0</ele><time>2026-04-11T13:03:55.338Z</time></trkpt><trkpt lat="42.6689133" lon="11.8408485"><ele>500.0</ele><time>2026-04-11T13:03:56.34Z</time></trkpt><trkpt lat="42.6688435" lon="11.8409527"><ele>500.0</ele><time>2026-04-11T13:03:57.339Z</time></trkpt><trkpt lat="42.6688097" lon="11.8410607"><ele>500.0</ele><time>2026-04-11T13:03:58.342Z</time></trkpt><trkpt lat="42.6687233" lon="11.8411511"><ele>500.0</ele><time>2026-04-11T13:03:59.347Z</time></trkpt><trkpt lat="42.6686455" lon="11.8412331"><ele>501.5</ele><time>2026-04-11T13:04:00.341Z</time></trkpt><trkpt lat="42.6685464" lon="11.8413125"><ele>503.0</ele><time>2026-04-11T13:04:01.344Z</time></trkpt><trkpt lat="42.6684293" lon="11.8414062"><ele>504.5</ele><time>2026-04-11T13:04:02.337Z</time></trkpt><trkpt lat="42.6683067" lon="11.841511"><ele>506.0</ele><time>2026-04-11T13:04:03.343Z</time></trkpt><trkpt lat="42.6681107" lon="11.8416016"><ele>506.0</ele><time>2026-04-11T13:04:04.34Z</time></trkpt><trkpt lat="42.6679659" lon="11.8417264"><ele>506.0</ele><time>2026-04-11T13:04:05.342Z</time></trkpt><trkpt lat="42.6678317" lon="11.8418432"><ele>506.0</ele><time>2026-04-11T13:04:06.339Z</time></trkpt><trkpt lat="42.6677414" lon="11.8419983"><ele>506.5</ele><time>2026-04-11T13:04:07.336Z</time></trkpt><trkpt lat="42.6676696" lon="11.8420721"><ele>507.0</ele><time>2026-04-11T13:04:08.337Z</time></trkpt><trkpt lat="42.6676272" lon="11.8422919"><ele>507.5</ele><time>2026-04-11T13:04:09.339Z</time></trkpt><trkpt lat="42.6676054" lon="11.8424287"><ele>508.0</ele><time>2026-04-11T13:04:10.344Z</time></trkpt><trkpt lat="42.6675408" lon="11.8426051"><ele>509.5</ele><time>2026-04-11T13:04:11.34Z</time></trkpt><trkpt lat="42.6675145" lon="11.8427963"><ele>511.0</ele><time>2026-04-11T13:04:12.342Z</time></trkpt><trkpt lat="42.6674913" lon="11.8429882"><ele>512.5</ele><time>2026-04-11T13:04:13.35Z</time></trkpt><trkpt lat="42.6675159" lon="11.8431841"><ele>514.0</ele><time>2026-04-11T13:04:14.345Z</time></trkpt><trkpt lat="42.6675909" lon="11.8433892"><ele>516.0</ele><time>2026-04-11T13:04:15.34Z</time></trkpt><trkpt lat="42.6676727" lon="11.8435319"><ele>518.0</ele><time>2026-04-11T13:04:16.337Z</time></trkpt><trkpt lat="42.6677974" lon="11.8436929"><ele>520.0</ele><time>2026-04-11T13:04:17.343Z</time></trkpt><trkpt lat="42.6679447" lon="11.8438476"><ele>520.0</ele><time>2026-04-11T13:04:18.342Z</time></trkpt><trkpt lat="42.6680927" lon="11.8440089"><ele>520.0</ele><time>2026-04-11T13:04:19.35Z</time></trkpt><trkpt lat="42.6682001" lon="11.8441662"><ele>520.0</ele><time>2026-04-11T13:04:20.344Z</time></trkpt><trkpt lat="42.6682666" lon="11.8443362"><ele>519.75</ele><time>2026-04-11T13:04:21.348Z</time></trkpt><trkpt lat="42.6682696" lon="11.8445053"><ele>519.5</ele><time>2026-04-11T13:04:22.349Z</time></trkpt><trkpt lat="42.6683059" lon="11.8446649"><ele>519.25</ele><time>2026-04-11T13:04:23.349Z</time></trkpt><trkpt lat="42.6683352" lon="11.8448245"><ele>519.0</ele><time>2026-04-11T13:04:24.355Z</time></trkpt><trkpt lat="42.6683413" lon="11.8450023"><ele>519.25</ele><time>2026-04-11T13:04:25.348Z</time></trkpt><trkpt lat="42.6683155" lon="11.8451692"><ele>519.5</ele><time>2026-04-11T13:04:26.356Z</time></trkpt><trkpt lat="42.6682883" lon="11.8453498"><ele>519.75</ele><time>2026-04-11T13:04:27.354Z</time></trkpt><trkpt lat="42.6682475" lon="11.8455083"><ele>520.0</ele><time>2026-04-11T13:04:28.356Z</time></trkpt><trkpt lat="42.6681783" lon="11.8456904"><ele>520.0</ele><time>2026-04-11T13:04:29.353Z</time></trkpt><trkpt lat="42.6681249" lon="11.8458717"><ele>520.0</ele><time>2026-04-11T13:04:30.352Z</time></trkpt><trkpt lat="42.6680728" lon="11.8460685"><ele>520.0</ele><time>2026-04-11T13:04:31.344Z</time></trkpt><trkpt lat="42.6680178" lon="11.8462323"><ele>520.0</ele><time>2026-04-11T13:04:32.34Z</time></trkpt><trkpt lat="42.6679793" lon="11.8464117"><ele>518.3333333333334</ele><time>2026-04-11T13:04:33.335Z</time></trkpt><trkpt lat="42.6679609" lon="11.8465984"><ele>516.6666666666666</ele><time>2026-04-11T13:04:34.338Z</time></trkpt><trkpt lat="42.6679627" lon="11.8468038"><ele>515.0</ele><time>2026-04-11T13:04:35.344Z</time></trkpt><trkpt lat="42.6679878" lon="11.8470746"><ele>513.3333333333333</ele><time>2026-04-11T13:04:36.355Z</time></trkpt><trkpt lat="42.6679811" lon="11.8473231"><ele>511.66666666666663</ele><time>2026-04-11T13:04:37.364Z</time></trkpt><trkpt lat="42.668003" lon="11.8475698"><ele>510.0</ele><time>2026-04-11T13:04:38.356Z</time></trkpt><trkpt lat="42.6679955" lon="11.8477727"><ele>510.0</ele><time>2026-04-11T13:04:39.351Z</time></trkpt><trkpt lat="42.6679438" lon="11.8479766"><ele>510.0</ele><time>2026-04-11T13:04:40.344Z</time></trkpt><trkpt lat="42.6679047" lon="11.8481626"><ele>510.0</ele><time>2026-04-11T13:04:41.35Z</time></trkpt><trkpt lat="42.6678873" lon="11.8483729"><ele>509.25</ele><time>2026-04-11T13:04:42.343Z</time></trkpt><trkpt lat="42.6678369" lon="11.8485606"><ele>508.5</ele><time>2026-04-11T13:04:43.353Z</time></trkpt><trkpt lat="42.6677774" lon="11.8487079"><ele>507.75</ele><time>2026-04-11T13:04:44.359Z</time></trkpt><trkpt lat="42.6678097" lon="11.8488775"><ele>507.0</ele><time>2026-04-11T13:04:45.35Z</time></trkpt><trkpt lat="42.6678616" lon="11.8490394"><ele>507.0</ele><time>2026-04-11T13:04:46.339Z</time></trkpt><trkpt lat="42.667897" lon="11.8492135"><ele>507.0</ele><time>2026-04-11T13:04:47.345Z</time></trkpt><trkpt lat="42.6679623" lon="11.8494224"><ele>507.0</ele><time>2026-04-11T13:04:48.348Z</time></trkpt><trkpt lat="42.668128" lon="11.8495471"><ele>507.25</ele><time>2026-04-11T13:04:49.345Z</time></trkpt><trkpt lat="42.6682308" lon="11.8496742"><ele>507.5</ele><time>2026-04-11T13:04:50.343Z</time></trkpt><trkpt lat="42.6683582" lon="11.8497651"><ele>507.75</ele><time>2026-04-11T13:04:51.353Z</time></trkpt><trkpt lat="42.6684984" lon="11.8498518"><ele>508.0</ele><time>2026-04-11T13:04:52.346Z</time></trkpt><trkpt lat="42.6686156" lon="11.8499901"><ele>506.33333333333337</ele><time>2026-04-11T13:04:53.333Z</time></trkpt><trkpt lat="42.6686582" lon="11.850171"><ele>504.66666666666663</ele><time>2026-04-11T13:04:54.338Z</time></trkpt><trkpt lat="42.6686543" lon="11.8504065"><ele>503.0</ele><time>2026-04-11T13:04:55.336Z</time></trkpt><trkpt lat="42.668629" lon="11.8506469"><ele>500.66666666666663</ele><time>2026-04-11T13:04:56.336Z</time></trkpt><trkpt lat="42.6685975" lon="11.8508943"><ele>498.33333333333337</ele><time>2026-04-11T13:04:57.332Z</time></trkpt><trkpt lat="42.668575" lon="11.8511641"><ele>496.0</ele><time>2026-04-11T13:04:58.338Z</time></trkpt><trkpt lat="42.6685766" lon="11.8514034"><ele>496.0</ele><time>2026-04-11T13:04:59.336Z</time></trkpt><trkpt lat="42.6685782" lon="11.8516485"><ele>496.0</ele><time>2026-04-11T13:05:00.344Z</time></trkpt><trkpt lat="42.6686118" lon="11.8519304"><ele>496.0</ele><time>2026-04-11T13:05:01.343Z</time></trkpt><trkpt lat="42.6686334" lon="11.8521921"><ele>496.0</ele><time>2026-04-11T13:05:02.336Z</time></trkpt><trkpt lat="42.6686822" lon="11.8524876"><ele>496.0</ele><time>2026-04-11T13:05:03.352Z</time></trkpt><trkpt lat="42.6687386" lon="11.8527676"><ele>496.0</ele><time>2026-04-11T13:05:04.346Z</time></trkpt><trkpt lat="42.668821" lon="11.8530208"><ele>496.0</ele><time>2026-04-11T13:05:05.347Z</time></trkpt><trkpt lat="42.6688299" lon="11.8533181"><ele>496.0</ele><time>2026-04-11T13:05:06.346Z</time></trkpt><trkpt lat="42.6688145" lon="11.8535795"><ele>496.0</ele><time>2026-04-11T13:05:07.343Z</time></trkpt><trkpt lat="42.6687729" lon="11.8538652"><ele>494.6666666666667</ele><time>2026-04-11T13:05:08.348Z</time></trkpt><trkpt lat="42.6687233" lon="11.8541532"><ele>493.33333333333337</ele><time>2026-04-11T13:05:09.347Z</time></trkpt><trkpt lat="42.6686841" lon="11.8544514"><ele>492.0</ele><time>2026-04-11T13:05:10.347Z</time></trkpt><trkpt lat="42.668618" lon="11.8547465"><ele>491.33333333333337</ele><time>2026-04-11T13:05:11.349Z</time></trkpt><trkpt lat="42.6685738" lon="11.8550407"><ele>490.6666666666667</ele><time>2026-04-11T13:05:12.345Z</time></trkpt><trkpt lat="42.6685504" lon="11.8553458"><ele>490.0</ele><time>2026-04-11T13:05:13.348Z</time></trkpt><trkpt lat="42.6685178" lon="11.8556317"><ele>491.33333333333337</ele><time>2026-04-11T13:05:14.345Z</time></trkpt><trkpt lat="42.6685325" lon="11.8558593"><ele>492.66666666666663</ele><time>2026-04-11T13:05:15.348Z</time></trkpt><trkpt lat="42.6685597" lon="11.8561382"><ele>494.0</ele><time>2026-04-11T13:05:16.342Z</time></trkpt><trkpt lat="42.6685574" lon="11.8564053"><ele>495.3333333333333</ele><time>2026-04-11T13:05:17.342Z</time></trkpt><trkpt lat="42.6685553" lon="11.8566308"><ele>496.66666666666663</ele><time>2026-04-11T13:05:18.335Z</time></trkpt><trkpt lat="42.6685751" lon="11.8568565"><ele>498.0</ele><time>2026-04-11T13:05:19.335Z</time></trkpt><trkpt lat="42.6686047" lon="11.8570344"><ele>498.33333333333337</ele><time>2026-04-11T13:05:20.34Z</time></trkpt><trkpt lat="42.66875" lon="11.857119"><ele>498.6666666666667</ele><time>2026-04-11T13:05:21.34Z</time></trkpt><trkpt lat="42.6689224" lon="11.8571349"><ele>499.0</ele><time>2026-04-11T13:05:22.348Z</time></trkpt><trkpt lat="42.6690834" lon="11.8572017"><ele>499.0</ele><time>2026-04-11T13:05:23.342Z</time></trkpt><trkpt lat="42.6691912" lon="11.8573217"><ele>499.0</ele><time>2026-04-11T13:05:24.34Z</time></trkpt><trkpt lat="42.6692846" lon="11.8574344"><ele>499.0</ele><time>2026-04-11T13:05:25.347Z</time></trkpt><trkpt lat="42.6693928" lon="11.8575546"><ele>499.0</ele><time>2026-04-11T13:05:26.343Z</time></trkpt><trkpt lat="42.6695068" lon="11.8577166"><ele>499.0</ele><time>2026-04-11T13:05:27.34Z</time></trkpt><trkpt lat="42.6695871" lon="11.8579168"><ele>499.0</ele><time>2026-04-11T13:05:28.341Z</time></trkpt><trkpt lat="42.6696203" lon="11.8581082"><ele>499.0</ele><time>2026-04-11T13:05:29.339Z</time></trkpt><trkpt lat="42.6696473" lon="11.8583002"><ele>499.0</ele><time>2026-04-11T13:05:30.337Z</time></trkpt><trkpt lat="42.6696223" lon="11.8584373"><ele>499.0</ele><time>2026-04-11T13:05:31.341Z</time></trkpt><trkpt lat="42.6696257" lon="11.8585586"><ele>499.0</ele><time>2026-04-11T13:05:32.339Z</time></trkpt><trkpt lat="42.6697047" lon="11.8586347"><ele>499.0</ele><time>2026-04-11T13:05:34.334Z</time></trkpt><trkpt lat="42.6697711" lon="11.8587382"><ele>499.0</ele><time>2026-04-11T13:05:36.335Z</time></trkpt><trkpt lat="42.6698167" lon="11.8588163"><ele>499.50000000000006</ele><time>2026-04-11T13:05:37.336Z</time></trkpt><trkpt lat="42.6698423" lon="11.8588998"><ele>500.0</ele><time>2026-04-11T13:05:38.338Z</time></trkpt><trkpt lat="42.6698993" lon="11.8589795"><ele>500.5</ele><time>2026-04-11T13:05:39.337Z</time></trkpt><trkpt lat="42.6699498" lon="11.8590591"><ele>501.0</ele><time>2026-04-11T13:05:40.336Z</time></trkpt><trkpt lat="42.6700242" lon="11.8591625"><ele>501.50000000000006</ele><time>2026-04-11T13:05:41.338Z</time></trkpt><trkpt lat="42.6701119" lon="11.8592643"><ele>502.0</ele><time>2026-04-11T13:05:42.336Z</time></trkpt><trkpt lat="42.6701709" lon="11.8593726"><ele>502.00000000000006</ele><time>2026-04-11T13:05:43.339Z</time></trkpt><trkpt lat="42.6702317" lon="11.8594809"><ele>502.0</ele><time>2026-04-11T13:05:44.337Z</time></trkpt><trkpt lat="42.6702897" lon="11.8595784"><ele>502.0</ele><time>2026-04-11T13:05:45.345Z</time></trkpt><trkpt lat="42.6703452" lon="11.8596711"><ele>502.0</ele><time>2026-04-11T13:05:46.341Z</time></trkpt><trkpt lat="42.6704113" lon="11.85975"><ele>502.00000000000006</ele><time>2026-04-11T13:05:47.345Z</time></trkpt><trkpt lat="42.6704596" lon="11.8598257"><ele>502.0</ele><time>2026-04-11T13:05:48.345Z</time></trkpt><trkpt lat="42.6705164" lon="11.8598904"><ele>501.6666666666667</ele><time>2026-04-11T13:05:49.345Z</time></trkpt><trkpt lat="42.6705647" lon="11.8599454"><ele>501.33333333333337</ele><time>2026-04-11T13:05:50.349Z</time></trkpt><trkpt lat="42.6706412" lon="11.8600246"><ele>501.0</ele><time>2026-04-11T13:05:52.341Z</time></trkpt><trkpt lat="42.6706979" lon="11.8600625"><ele>500.66666666666663</ele><time>2026-04-11T13:06:02.345Z</time></trkpt><trkpt lat="42.6707533" lon="11.8601663"><ele>500.3333333333333</ele><time>2026-04-11T13:06:04.349Z</time></trkpt><trkpt lat="42.6707932" lon="11.8602748"><ele>500.0</ele><time>2026-04-11T13:06:05.353Z</time></trkpt><trkpt lat="42.6708337" lon="11.8603995"><ele>499.25</ele><time>2026-04-11T13:06:06.353Z</time></trkpt><trkpt lat="42.6708873" lon="11.860545"><ele>498.5</ele><time>2026-04-11T13:06:07.356Z</time></trkpt><trkpt lat="42.6709346" lon="11.8607175"><ele>497.75</ele><time>2026-04-11T13:06:08.357Z</time></trkpt><trkpt lat="42.6709786" lon="11.8608869"><ele>497.0</ele><time>2026-04-11T13:06:09.35Z</time></trkpt><trkpt lat="42.670991" lon="11.8610564"><ele>495.5</ele><time>2026-04-11T13:06:10.351Z</time></trkpt><trkpt lat="42.6710081" lon="11.8612328"><ele>494.0</ele><time>2026-04-11T13:06:11.348Z</time></trkpt><trkpt lat="42.671015" lon="11.8614326"><ele>492.5</ele><time>2026-04-11T13:06:12.357Z</time></trkpt><trkpt lat="42.6710038" lon="11.8616276"><ele>491.0</ele><time>2026-04-11T13:06:13.35Z</time></trkpt><trkpt lat="42.6709805" lon="11.8618146"><ele>490.75</ele><time>2026-04-11T13:06:14.367Z</time></trkpt><trkpt lat="42.670983" lon="11.8619845"><ele>490.5</ele><time>2026-04-11T13:06:15.355Z</time></trkpt><trkpt lat="42.6709809" lon="11.8621538"><ele>490.25</ele><time>2026-04-11T13:06:16.362Z</time></trkpt><trkpt lat="42.6709683" lon="11.8623263"><ele>490.0</ele><time>2026-04-11T13:06:17.364Z</time></trkpt><trkpt lat="42.6709469" lon="11.8625068"><ele>489.25</ele><time>2026-04-11T13:06:18.357Z</time></trkpt><trkpt lat="42.6709207" lon="11.8626887"><ele>488.5</ele><time>2026-04-11T13:06:19.352Z</time></trkpt><trkpt lat="42.6708918" lon="11.8628613"><ele>487.75</ele><time>2026-04-11T13:06:20.355Z</time></trkpt><trkpt lat="42.6708585" lon="11.8630128"><ele>487.0</ele><time>2026-04-11T13:06:21.351Z</time></trkpt><trkpt lat="42.6708374" lon="11.8631559"><ele>487.0</ele><time>2026-04-11T13:06:22.353Z</time></trkpt><trkpt lat="42.6708153" lon="11.8633206"><ele>487.00000000000006</ele><time>2026-04-11T13:06:23.349Z</time></trkpt><trkpt lat="42.6708257" lon="11.8634497"><ele>487.00000000000006</ele><time>2026-04-11T13:06:24.356Z</time></trkpt><trkpt lat="42.6708623" lon="11.8635489"><ele>487.0</ele><time>2026-04-11T13:06:25.357Z</time></trkpt><trkpt lat="42.6709193" lon="11.8636381"><ele>487.0</ele><time>2026-04-11T13:06:26.354Z</time></trkpt><trkpt lat="42.6709876" lon="11.86372"><ele>486.8</ele><time>2026-04-11T13:06:27.356Z</time></trkpt><trkpt lat="42.6710559" lon="11.8638096"><ele>486.6</ele><time>2026-04-11T13:06:28.351Z</time></trkpt><trkpt lat="42.6711277" lon="11.8639139"><ele>486.40000000000003</ele><time>2026-04-11T13:06:29.356Z</time></trkpt><trkpt lat="42.671198" lon="11.8640377"><ele>486.20000000000005</ele><time>2026-04-11T13:06:30.351Z</time></trkpt><trkpt lat="42.6712705" lon="11.8641585"><ele>486.0</ele><time>2026-04-11T13:06:31.358Z</time></trkpt><trkpt lat="42.6713472" lon="11.8642727"><ele>486.8</ele><time>2026-04-11T13:06:32.359Z</time></trkpt><trkpt lat="42.6714239" lon="11.8643915"><ele>487.6</ele><time>2026-04-11T13:06:33.359Z</time></trkpt><trkpt lat="42.671504" lon="11.8645022"><ele>488.4</ele><time>2026-04-11T13:06:34.355Z</time></trkpt><trkpt lat="42.6715796" lon="11.8646134"><ele>489.2</ele><time>2026-04-11T13:06:35.364Z</time></trkpt><trkpt lat="42.6716413" lon="11.8647213"><ele>490.0</ele><time>2026-04-11T13:06:36.343Z</time></trkpt><trkpt lat="42.6717035" lon="11.8648239"><ele>490.0</ele><time>2026-04-11T13:06:37.341Z</time></trkpt><trkpt lat="42.6717634" lon="11.8649146"><ele>490.0</ele><time>2026-04-11T13:06:38.343Z</time></trkpt><trkpt lat="42.6718256" lon="11.8650065"><ele>490.0</ele><time>2026-04-11T13:06:39.334Z</time></trkpt><trkpt lat="42.6718864" lon="11.8650795"><ele>490.0</ele><time>2026-04-11T13:06:40.336Z</time></trkpt><trkpt lat="42.6719391" lon="11.8651368"><ele>490.0</ele><time>2026-04-11T13:06:41.36Z</time></trkpt><trkpt lat="42.6720555" lon="11.8650843"><ele>488.5</ele><time>2026-04-11T13:06:45.352Z</time></trkpt><trkpt lat="42.6721185" lon="11.8649435"><ele>487.0</ele><time>2026-04-11T13:06:47.348Z</time></trkpt><trkpt lat="42.6721758" lon="11.8648352"><ele>485.5</ele><time>2026-04-11T13:06:48.337Z</time></trkpt><trkpt lat="42.6722368" lon="11.8646996"><ele>484.0</ele><time>2026-04-11T13:06:49.344Z</time></trkpt><trkpt lat="42.6723068" lon="11.8645536"><ele>484.0</ele><time>2026-04-11T13:06:50.339Z</time></trkpt><trkpt lat="42.6723716" lon="11.8644153"><ele>484.0</ele><time>2026-04-11T13:06:51.341Z</time></trkpt><trkpt lat="42.6724306" lon="11.8642903"><ele>484.0</ele><time>2026-04-11T13:06:52.344Z</time></trkpt><trkpt lat="42.6725048" lon="11.8641783"><ele>484.0</ele><time>2026-04-11T13:06:53.35Z</time></trkpt><trkpt lat="42.6725991" lon="11.8640903"><ele>483.79999999999995</ele><time>2026-04-11T13:06:54.353Z</time></trkpt><trkpt lat="42.6726941" lon="11.8640279"><ele>483.59999999999997</ele><time>2026-04-11T13:06:55.355Z</time></trkpt><trkpt lat="42.6728014" lon="11.8640235"><ele>483.4</ele><time>2026-04-11T13:06:56.351Z</time></trkpt><trkpt lat="42.6728899" lon="11.8640563"><ele>483.2</ele><time>2026-04-11T13:06:57.356Z</time></trkpt><trkpt lat="42.6729684" lon="11.8641841"><ele>483.0</ele><time>2026-04-11T13:06:58.345Z</time></trkpt><trkpt lat="42.6730538" lon="11.8643406"><ele>481.0</ele><time>2026-04-11T13:06:59.376Z</time></trkpt><trkpt lat="42.6731497" lon="11.8645092"><ele>479.0</ele><time>2026-04-11T13:07:00.349Z</time></trkpt><trkpt lat="42.6732482" lon="11.8646695"><ele>477.0</ele><time>2026-04-11T13:07:01.354Z</time></trkpt><trkpt lat="42.6733532" lon="11.8648243"><ele>477.0</ele><time>2026-04-11T13:07:02.355Z</time></trkpt><trkpt lat="42.6734536" lon="11.8649625"><ele>477.0</ele><time>2026-04-11T13:07:03.358Z</time></trkpt><trkpt lat="42.6735522" lon="11.8650761"><ele>477.0</ele><time>2026-04-11T13:07:04.355Z</time></trkpt><trkpt lat="42.6736561" lon="11.8651786"><ele>477.0</ele><time>2026-04-11T13:07:05.353Z</time></trkpt><trkpt lat="42.6737418" lon="11.8652928"><ele>477.5</ele><time>2026-04-11T13:07:06.349Z</time></trkpt><trkpt lat="42.6738041" lon="11.8654181"><ele>478.0</ele><time>2026-04-11T13:07:07.339Z</time></trkpt><trkpt lat="42.6738451" lon="11.8655428"><ele>478.5</ele><time>2026-04-11T13:07:08.345Z</time></trkpt><trkpt lat="42.6738554" lon="11.8657105"><ele>479.0</ele><time>2026-04-11T13:07:09.343Z</time></trkpt><trkpt lat="42.6738655" lon="11.8658924"><ele>477.25</ele><time>2026-04-11T13:07:10.34Z</time></trkpt><trkpt lat="42.6738577" lon="11.8660737"><ele>475.5</ele><time>2026-04-11T13:07:11.348Z</time></trkpt><trkpt lat="42.6738363" lon="11.866256"><ele>473.75</ele><time>2026-04-11T13:07:12.342Z</time></trkpt><trkpt lat="42.6738334" lon="11.8664108"><ele>472.0</ele><time>2026-04-11T13:07:13.341Z</time></trkpt><trkpt lat="42.6738541" lon="11.8665721"><ele>472.0</ele><time>2026-04-11T13:07:14.334Z</time></trkpt><trkpt lat="42.6738789" lon="11.8667101"><ele>472.00000000000006</ele><time>2026-04-11T13:07:15.336Z</time></trkpt><trkpt lat="42.673923" lon="11.8668411"><ele>472.00000000000006</ele><time>2026-04-11T13:07:16.335Z</time></trkpt><trkpt lat="42.6739828" lon="11.8669491"><ele>472.0</ele><time>2026-04-11T13:07:17.339Z</time></trkpt><trkpt lat="42.674077" lon="11.8670457"><ele>472.0</ele><time>2026-04-11T13:07:18.34Z</time></trkpt><trkpt lat="42.6741847" lon="11.8671284"><ele>472.20000000000005</ele><time>2026-04-11T13:07:19.338Z</time></trkpt><trkpt lat="42.6742873" lon="11.8672081"><ele>472.40000000000003</ele><time>2026-04-11T13:07:20.33Z</time></trkpt><trkpt lat="42.6743927" lon="11.867286"><ele>472.59999999999997</ele><time>2026-04-11T13:07:21.339Z</time></trkpt><trkpt lat="42.6744456" lon="11.8674059"><ele>472.79999999999995</ele><time>2026-04-11T13:07:22.341Z</time></trkpt><trkpt lat="42.674468" lon="11.8675414"><ele>473.0</ele><time>2026-04-11T13:07:23.334Z</time></trkpt><trkpt lat="42.6744765" lon="11.8676595"><ele>472.16666666666663</ele><time>2026-04-11T13:07:24.333Z</time></trkpt><trkpt lat="42.6745211" lon="11.867761"><ele>471.3333333333333</ele><time>2026-04-11T13:07:25.337Z</time></trkpt><trkpt lat="42.6745395" lon="11.8678447"><ele>470.5</ele><time>2026-04-11T13:07:26.328Z</time></trkpt><trkpt lat="42.6745557" lon="11.86793"><ele>469.66666666666663</ele><time>2026-04-11T13:07:27.33Z</time></trkpt><trkpt lat="42.6745625" lon="11.868023"><ele>468.8333333333333</ele><time>2026-04-11T13:07:28.329Z</time></trkpt><trkpt lat="42.6745539" lon="11.8681334"><ele>468.0</ele><time>2026-04-11T13:07:29.335Z</time></trkpt><trkpt lat="42.6745241" lon="11.8682433"><ele>468.0</ele><time>2026-04-11T13:07:30.33Z</time></trkpt><trkpt lat="42.6744808" lon="11.8683543"><ele>467.99999999999994</ele><time>2026-04-11T13:07:31.336Z</time></trkpt><trkpt lat="42.6744187" lon="11.8684782"><ele>467.99999999999994</ele><time>2026-04-11T13:07:32.338Z</time></trkpt><trkpt lat="42.6744087" lon="11.8686311"><ele>468.0</ele><time>2026-04-11T13:07:33.339Z</time></trkpt><trkpt lat="42.6743872" lon="11.8687971"><ele>468.0</ele><time>2026-04-11T13:07:34.333Z</time></trkpt><trkpt lat="42.6744024" lon="11.8689291"><ele>467.1666666666667</ele><time>2026-04-11T13:07:35.333Z</time></trkpt><trkpt lat="42.6744318" lon="11.8690531"><ele>466.33333333333337</ele><time>2026-04-11T13:07:36.332Z</time></trkpt><trkpt lat="42.6744641" lon="11.8691685"><ele>465.5</ele><time>2026-04-11T13:07:37.342Z</time></trkpt><trkpt lat="42.6745052" lon="11.8692687"><ele>464.6666666666667</ele><time>2026-04-11T13:07:38.34Z</time></trkpt><trkpt lat="42.6745462" lon="11.8693473"><ele>463.83333333333337</ele><time>2026-04-11T13:07:39.337Z</time></trkpt><trkpt lat="42.674599" lon="11.8694619"><ele>463.0</ele><time>2026-04-11T13:07:41.338Z</time></trkpt><trkpt lat="42.6746534" lon="11.869394"><ele>463.0</ele><time>2026-04-11T13:07:46.346Z</time></trkpt><trkpt lat="42.6746918" lon="11.8693236"><ele>462.99999999999994</ele><time>2026-04-11T13:07:48.345Z</time></trkpt><trkpt lat="42.6746968" lon="11.8692046"><ele>462.99999999999994</ele><time>2026-04-11T13:07:50.334Z</time></trkpt><trkpt lat="42.674712" lon="11.8690147"><ele>463.0</ele><time>2026-04-11T13:07:52.35Z</time></trkpt><trkpt lat="42.6748073" lon="11.8689298"><ele>463.0</ele><time>2026-04-11T13:07:54.344Z</time></trkpt><trkpt lat="42.6749511" lon="11.8689633"><ele>463.0</ele><time>2026-04-11T13:07:56.337Z</time></trkpt><trkpt lat="42.6750464" lon="11.8690222"><ele>462.99999999999994</ele><time>2026-04-11T13:07:57.339Z</time></trkpt><trkpt lat="42.6751187" lon="11.8691178"><ele>462.99999999999994</ele><time>2026-04-11T13:07:58.337Z</time></trkpt><trkpt lat="42.6751819" lon="11.8692297"><ele>463.0</ele><time>2026-04-11T13:07:59.339Z</time></trkpt><trkpt lat="42.6752437" lon="11.8693707"><ele>463.0</ele><time>2026-04-11T13:08:00.344Z</time></trkpt><trkpt lat="42.6753091" lon="11.8695313"><ele>463.25</ele><time>2026-04-11T13:08:01.343Z</time></trkpt><trkpt lat="42.6753808" lon="11.8696904"><ele>463.5</ele><time>2026-04-11T13:08:02.344Z</time></trkpt><trkpt lat="42.6754446" lon="11.869841"><ele>463.75</ele><time>2026-04-11T13:08:03.345Z</time></trkpt><trkpt lat="42.6755214" lon="11.8699853"><ele>464.0</ele><time>2026-04-11T13:08:04.35Z</time></trkpt><trkpt lat="42.6755957" lon="11.870124"><ele>462.5</ele><time>2026-04-11T13:08:05.354Z</time></trkpt><trkpt lat="42.6756617" lon="11.8702703"><ele>461.0</ele><time>2026-04-11T13:08:06.342Z</time></trkpt><trkpt lat="42.6757215" lon="11.8704337"><ele>459.5</ele><time>2026-04-11T13:08:07.345Z</time></trkpt><trkpt lat="42.6757758" lon="11.8706126"><ele>458.0</ele><time>2026-04-11T13:08:08.341Z</time></trkpt><trkpt lat="42.6757887" lon="11.8707862"><ele>456.0</ele><time>2026-04-11T13:08:09.335Z</time></trkpt><trkpt lat="42.6757957" lon="11.8709531"><ele>454.0</ele><time>2026-04-11T13:08:10.337Z</time></trkpt><trkpt lat="42.6757873" lon="11.8710852"><ele>452.0</ele><time>2026-04-11T13:08:11.334Z</time></trkpt><trkpt lat="42.6757546" lon="11.8712308"><ele>450.0</ele><time>2026-04-11T13:08:12.333Z</time></trkpt><trkpt lat="42.675693" lon="11.871397"><ele>450.0</ele><time>2026-04-11T13:08:13.331Z</time></trkpt><trkpt lat="42.6757005" lon="11.8715609"><ele>450.0</ele><time>2026-04-11T13:08:14.342Z</time></trkpt><trkpt lat="42.6757543" lon="11.8717488"><ele>450.0</ele><time>2026-04-11T13:08:15.345Z</time></trkpt><trkpt lat="42.6757994" lon="11.8719292"><ele>450.0</ele><time>2026-04-11T13:08:16.343Z</time></trkpt><trkpt lat="42.6758755" lon="11.872104"><ele>445.33333333333337</ele><time>2026-04-11T13:08:17.344Z</time></trkpt><trkpt lat="42.6760018" lon="11.8722869"><ele>440.6666666666667</ele><time>2026-04-11T13:08:18.337Z</time></trkpt><trkpt lat="42.6761255" lon="11.8724052"><ele>436.0</ele><time>2026-04-11T13:08:19.339Z</time></trkpt><trkpt lat="42.6762284" lon="11.8725234"><ele>436.0</ele><time>2026-04-11T13:08:20.346Z</time></trkpt><trkpt lat="42.676315" lon="11.8725846"><ele>436.0</ele><time>2026-04-11T13:08:21.339Z</time></trkpt><trkpt lat="42.6763934" lon="11.8725942"><ele>436.0</ele><time>2026-04-11T13:08:22.342Z</time></trkpt><trkpt lat="42.6765397" lon="11.8725032"><ele>436.0</ele><time>2026-04-11T13:08:23.347Z</time></trkpt><trkpt lat="42.6766898" lon="11.8723907"><ele>436.0</ele><time>2026-04-11T13:08:24.337Z</time></trkpt><trkpt lat="42.6768223" lon="11.8723427"><ele>436.0</ele><time>2026-04-11T13:08:25.336Z</time></trkpt><trkpt lat="42.6769456" lon="11.8723238"><ele>436.0</ele><time>2026-04-11T13:08:26.345Z</time></trkpt><trkpt lat="42.6770679" lon="11.8723692"><ele>436.0</ele><time>2026-04-11T13:08:27.34Z</time></trkpt><trkpt lat="42.6771869" lon="11.8724636"><ele>440.0</ele><time>2026-04-11T13:08:28.338Z</time></trkpt><trkpt lat="42.6772511" lon="11.872583"><ele>444.0</ele><time>2026-04-11T13:08:29.339Z</time></trkpt><trkpt lat="42.6773084" lon="11.8727206"><ele>448.0</ele><time>2026-04-11T13:08:30.336Z</time></trkpt><trkpt lat="42.6773175" lon="11.8728947"><ele>452.0</ele><time>2026-04-11T13:08:31.336Z</time></trkpt><trkpt lat="42.6772875" lon="11.8730514"><ele>452.75</ele><time>2026-04-11T13:08:32.336Z</time></trkpt><trkpt lat="42.6772142" lon="11.8732092"><ele>453.5</ele><time>2026-04-11T13:08:33.332Z</time></trkpt><trkpt lat="42.6771247" lon="11.8733414"><ele>454.25</ele><time>2026-04-11T13:08:34.337Z</time></trkpt><trkpt lat="42.6770391" lon="11.8734967"><ele>455.0</ele><time>2026-04-11T13:08:35.335Z</time></trkpt><trkpt lat="42.676975" lon="11.8736393"><ele>449.3333333333333</ele><time>2026-04-11T13:08:36.33Z</time></trkpt><trkpt lat="42.6768999" lon="11.8737869"><ele>443.66666666666663</ele><time>2026-04-11T13:08:37.334Z</time></trkpt><trkpt lat="42.6767746" lon="11.8740338"><ele>438.0</ele><time>2026-04-11T13:08:38.337Z</time></trkpt><trkpt lat="42.6767119" lon="11.874265"><ele>436.33333333333337</ele><time>2026-04-11T13:08:39.336Z</time></trkpt><trkpt lat="42.6766389" lon="11.8745099"><ele>434.6666666666667</ele><time>2026-04-11T13:08:40.34Z</time></trkpt><trkpt lat="42.6766198" lon="11.8747645"><ele>433.0</ele><time>2026-04-11T13:08:41.347Z</time></trkpt><trkpt lat="42.6766151" lon="11.8749737"><ele>433.25</ele><time>2026-04-11T13:08:42.342Z</time></trkpt><trkpt lat="42.6766055" lon="11.875143"><ele>433.5</ele><time>2026-04-11T13:08:43.349Z</time></trkpt><trkpt lat="42.6765976" lon="11.8753072"><ele>433.75</ele><time>2026-04-11T13:08:44.368Z</time></trkpt><trkpt lat="42.6766" lon="11.8754704"><ele>434.0</ele><time>2026-04-11T13:08:45.349Z</time></trkpt><trkpt lat="42.676613" lon="11.8756343"><ele>434.0</ele><time>2026-04-11T13:08:46.351Z</time></trkpt><trkpt lat="42.6766173" lon="11.8758019"><ele>434.0</ele><time>2026-04-11T13:08:47.35Z</time></trkpt><trkpt lat="42.6766051" lon="11.8759549"><ele>434.0</ele><time>2026-04-11T13:08:48.348Z</time></trkpt><trkpt lat="42.6765759" lon="11.8761214"><ele>434.0</ele><time>2026-04-11T13:08:49.342Z</time></trkpt><trkpt lat="42.6765253" lon="11.8762768"><ele>435.0</ele><time>2026-04-11T13:08:50.345Z</time></trkpt><trkpt lat="42.6764498" lon="11.8764216"><ele>436.0</ele><time>2026-04-11T13:08:51.345Z</time></trkpt><trkpt lat="42.6763442" lon="11.8765402"><ele>437.0</ele><time>2026-04-11T13:08:52.34Z</time></trkpt><trkpt lat="42.6762215" lon="11.8766484"><ele>438.0</ele><time>2026-04-11T13:08:53.34Z</time></trkpt><trkpt lat="42.6760988" lon="11.8767604"><ele>433.5</ele><time>2026-04-11T13:08:54.337Z</time></trkpt><trkpt lat="42.6759747" lon="11.8768792"><ele>429.0</ele><time>2026-04-11T13:08:55.337Z</time></trkpt><trkpt lat="42.6758865" lon="11.8769978"><ele>424.5</ele><time>2026-04-11T13:08:56.338Z</time></trkpt><trkpt lat="42.6757904" lon="11.8771188"><ele>420.0</ele><time>2026-04-11T13:08:57.338Z</time></trkpt><trkpt lat="42.675699" lon="11.8772394"><ele>420.0</ele><time>2026-04-11T13:08:58.342Z</time></trkpt><trkpt lat="42.6756215" lon="11.8773711"><ele>420.0</ele><time>2026-04-11T13:08:59.357Z</time></trkpt><trkpt lat="42.6755409" lon="11.8774885"><ele>420.0</ele><time>2026-04-11T13:09:00.348Z</time></trkpt><trkpt lat="42.675453" lon="11.877597"><ele>420.0</ele><time>2026-04-11T13:09:01.346Z</time></trkpt><trkpt lat="42.6753703" lon="11.8777042"><ele>421.4</ele><time>2026-04-11T13:09:02.355Z</time></trkpt><trkpt lat="42.6752846" lon="11.8777969"><ele>422.8</ele><time>2026-04-11T13:09:03.348Z</time></trkpt><trkpt lat="42.6752046" lon="11.8778829"><ele>424.20000000000005</ele><time>2026-04-11T13:09:04.349Z</time></trkpt><trkpt lat="42.6751314" lon="11.8779977"><ele>425.6</ele><time>2026-04-11T13:09:05.356Z</time></trkpt><trkpt lat="42.6750487" lon="11.8781045"><ele>427.0</ele><time>2026-04-11T13:09:06.356Z</time></trkpt><trkpt lat="42.6749733" lon="11.8781935"><ele>425.20000000000005</ele><time>2026-04-11T13:09:07.355Z</time></trkpt><trkpt lat="42.6748935" lon="11.8782839"><ele>423.40000000000003</ele><time>2026-04-11T13:09:08.358Z</time></trkpt><trkpt lat="42.674819" lon="11.8783662"><ele>421.6</ele><time>2026-04-11T13:09:09.357Z</time></trkpt><trkpt lat="42.6747387" lon="11.8784631"><ele>419.79999999999995</ele><time>2026-04-11T13:09:10.355Z</time></trkpt><trkpt lat="42.674674" lon="11.8785689"><ele>418.0</ele><time>2026-04-11T13:09:11.351Z</time></trkpt><trkpt lat="42.6746024" lon="11.8786419"><ele>418.0</ele><time>2026-04-11T13:09:12.347Z</time></trkpt><trkpt lat="42.6745228" lon="11.8787161"><ele>418.0</ele><time>2026-04-11T13:09:13.344Z</time></trkpt><trkpt lat="42.6744243" lon="11.8788239"><ele>418.0</ele><time>2026-04-11T13:09:14.34Z</time></trkpt><trkpt lat="42.6742863" lon="11.8788875"><ele>418.0</ele><time>2026-04-11T13:09:15.34Z</time></trkpt><trkpt lat="42.6741669" lon="11.8789443"><ele>415.75</ele><time>2026-04-11T13:09:16.34Z</time></trkpt><trkpt lat="42.6740517" lon="11.8790025"><ele>413.5</ele><time>2026-04-11T13:09:17.342Z</time></trkpt><trkpt lat="42.6739412" lon="11.8790472"><ele>411.25</ele><time>2026-04-11T13:09:18.338Z</time></trkpt><trkpt lat="42.673818" lon="11.8790785"><ele>409.0</ele><time>2026-04-11T13:09:19.335Z</time></trkpt><trkpt lat="42.6736876" lon="11.8791133"><ele>406.0</ele><time>2026-04-11T13:09:20.338Z</time></trkpt><trkpt lat="42.6735596" lon="11.879135"><ele>403.0</ele><time>2026-04-11T13:09:21.338Z</time></trkpt><trkpt lat="42.6734265" lon="11.879156"><ele>400.0</ele><time>2026-04-11T13:09:22.349Z</time></trkpt><trkpt lat="42.6732846" lon="11.8792026"><ele>397.0</ele><time>2026-04-11T13:09:23.343Z</time></trkpt><trkpt lat="42.6732054" lon="11.8792424"><ele>397.00000000000006</ele><time>2026-04-11T13:09:24.346Z</time></trkpt><trkpt lat="42.6731172" lon="11.8792738"><ele>397.0</ele><time>2026-04-11T13:09:25.344Z</time></trkpt><trkpt lat="42.6730486" lon="11.8792844"><ele>397.0</ele><time>2026-04-11T13:09:26.348Z</time></trkpt><trkpt lat="42.6731011" lon="11.8791828"><ele>397.0</ele><time>2026-04-11T13:09:44.351Z</time></trkpt><trkpt lat="42.6731773" lon="11.8791481"><ele>397.00000000000006</ele><time>2026-04-11T13:09:45.346Z</time></trkpt><trkpt lat="42.6732538" lon="11.8791197"><ele>397.0</ele><time>2026-04-11T13:09:46.347Z</time></trkpt><trkpt lat="42.673326" lon="11.8790857"><ele>397.00000000000006</ele><time>2026-04-11T13:09:47.348Z</time></trkpt><trkpt lat="42.6733984" lon="11.879053"><ele>397.0</ele><time>2026-04-11T13:09:48.349Z</time></trkpt><trkpt lat="42.6734759" lon="11.8790166"><ele>397.0</ele><time>2026-04-11T13:09:49.349Z</time></trkpt><trkpt lat="42.6735512" lon="11.8789858"><ele>397.0</ele><time>2026-04-11T13:09:50.348Z</time></trkpt><trkpt lat="42.6736313" lon="11.8789508"><ele>397.00000000000006</ele><time>2026-04-11T13:09:51.349Z</time></trkpt><trkpt lat="42.673714" lon="11.8789179"><ele>397.0</ele><time>2026-04-11T13:09:52.351Z</time></trkpt><trkpt lat="42.6737947" lon="11.8788772"><ele>399.00000000000006</ele><time>2026-04-11T13:09:53.365Z</time></trkpt><trkpt lat="42.6738787" lon="11.878842"><ele>401.0</ele><time>2026-04-11T13:09:54.356Z</time></trkpt><trkpt lat="42.673962" lon="11.8788059"><ele>403.0</ele><time>2026-04-11T13:09:55.355Z</time></trkpt><trkpt lat="42.6740425" lon="11.8787847"><ele>405.0</ele><time>2026-04-11T13:09:56.355Z</time></trkpt><trkpt lat="42.674115" lon="11.8787668"><ele>407.00000000000006</ele><time>2026-04-11T13:09:57.353Z</time></trkpt><trkpt lat="42.6741837" lon="11.8787407"><ele>409.0</ele><time>2026-04-11T13:09:58.357Z</time></trkpt><trkpt lat="42.6742568" lon="11.8787042"><ele>409.00000000000006</ele><time>2026-04-11T13:09:59.36Z</time></trkpt><trkpt lat="42.6743399" lon="11.8786708"><ele>409.0</ele><time>2026-04-11T13:10:00.359Z</time></trkpt><trkpt lat="42.6744144" lon="11.8786449"><ele>409.0</ele><time>2026-04-11T13:10:01.356Z</time></trkpt><trkpt lat="42.6744861" lon="11.8786308"><ele>409.0</ele><time>2026-04-11T13:10:02.353Z</time></trkpt><trkpt lat="42.6745498" lon="11.878645"><ele>409.00000000000006</ele><time>2026-04-11T13:10:03.357Z</time></trkpt><trkpt lat="42.6746248" lon="11.8787191"><ele>409.0</ele><time>2026-04-11T13:10:05.356Z</time></trkpt><trkpt lat="42.6746447" lon="11.878877"><ele>410.50000000000006</ele><time>2026-04-11T13:10:07.35Z</time></trkpt><trkpt lat="42.6746483" lon="11.878965"><ele>412.0</ele><time>2026-04-11T13:10:08.347Z</time></trkpt><trkpt lat="42.6746384" lon="11.8790704"><ele>413.5</ele><time>2026-04-11T13:10:09.344Z</time></trkpt><trkpt lat="42.6746214" lon="11.8791783"><ele>415.0</ele><time>2026-04-11T13:10:10.342Z</time></trkpt><trkpt lat="42.6745968" lon="11.8792978"><ele>416.50000000000006</ele><time>2026-04-11T13:10:11.346Z</time></trkpt><trkpt lat="42.6745658" lon="11.8794089"><ele>418.0</ele><time>2026-04-11T13:10:12.333Z</time></trkpt><trkpt lat="42.6745188" lon="11.8795399"><ele>418.59999999999997</ele><time>2026-04-11T13:10:13.336Z</time></trkpt><trkpt lat="42.6745287" lon="11.8796988"><ele>419.2</ele><time>2026-04-11T13:10:14.337Z</time></trkpt><trkpt lat="42.6745122" lon="11.8798351"><ele>419.8</ele><time>2026-04-11T13:10:15.341Z</time></trkpt><trkpt lat="42.6744717" lon="11.8799688"><ele>420.4</ele><time>2026-04-11T13:10:16.341Z</time></trkpt><trkpt lat="42.6744283" lon="11.8801168"><ele>421.0</ele><time>2026-04-11T13:10:17.336Z</time></trkpt><trkpt lat="42.674389" lon="11.8802616"><ele>422.0</ele><time>2026-04-11T13:10:18.339Z</time></trkpt><trkpt lat="42.6743691" lon="11.8804105"><ele>423.0</ele><time>2026-04-11T13:10:19.339Z</time></trkpt><trkpt lat="42.6743482" lon="11.8805613"><ele>424.0</ele><time>2026-04-11T13:10:20.343Z</time></trkpt><trkpt lat="42.674343" lon="11.8807"><ele>425.0</ele><time>2026-04-11T13:10:21.343Z</time></trkpt><trkpt lat="42.6743556" lon="11.8808147"><ele>426.0</ele><time>2026-04-11T13:10:22.344Z</time></trkpt><trkpt lat="42.6743866" lon="11.8809284"><ele>425.4</ele><time>2026-04-11T13:10:23.338Z</time></trkpt><trkpt lat="42.6744094" lon="11.8810442"><ele>424.8</ele><time>2026-04-11T13:10:24.341Z</time></trkpt><trkpt lat="42.6744216" lon="11.881193"><ele>424.2</ele><time>2026-04-11T13:10:25.339Z</time></trkpt><trkpt lat="42.6744532" lon="11.8813553"><ele>423.59999999999997</ele><time>2026-04-11T13:10:26.339Z</time></trkpt><trkpt lat="42.6744475" lon="11.8815131"><ele>423.0</ele><time>2026-04-11T13:10:27.34Z</time></trkpt><trkpt lat="42.6744502" lon="11.88167"><ele>421.0</ele><time>2026-04-11T13:10:28.342Z</time></trkpt><trkpt lat="42.6744469" lon="11.8818167"><ele>419.0</ele><time>2026-04-11T13:10:29.342Z</time></trkpt><trkpt lat="42.6744403" lon="11.8819487"><ele>417.0</ele><time>2026-04-11T13:10:30.338Z</time></trkpt><trkpt lat="42.6744361" lon="11.8820738"><ele>415.0</ele><time>2026-04-11T13:10:31.343Z</time></trkpt><trkpt lat="42.6744618" lon="11.8821908"><ele>413.0</ele><time>2026-04-11T13:10:32.345Z</time></trkpt><trkpt lat="42.6744627" lon="11.8823228"><ele>411.79999999999995</ele><time>2026-04-11T13:10:33.342Z</time></trkpt><trkpt lat="42.6744476" lon="11.8824512"><ele>410.6</ele><time>2026-04-11T13:10:34.34Z</time></trkpt><trkpt lat="42.6744492" lon="11.8825848"><ele>409.4</ele><time>2026-04-11T13:10:35.339Z</time></trkpt><trkpt lat="42.6744365" lon="11.8826984"><ele>408.20000000000005</ele><time>2026-04-11T13:10:36.338Z</time></trkpt><trkpt lat="42.6744185" lon="11.8828141"><ele>407.0</ele><time>2026-04-11T13:10:37.34Z</time></trkpt><trkpt lat="42.6743677" lon="11.8829544"><ele>406.0</ele><time>2026-04-11T13:10:38.339Z</time></trkpt><trkpt lat="42.6742496" lon="11.883089"><ele>405.0</ele><time>2026-04-11T13:10:39.339Z</time></trkpt><trkpt lat="42.6741743" lon="11.8831625"><ele>404.0</ele><time>2026-04-11T13:10:40.346Z</time></trkpt><trkpt lat="42.6741215" lon="11.8833"><ele>403.0</ele><time>2026-04-11T13:10:41.338Z</time></trkpt><trkpt lat="42.6740614" lon="11.8834045"><ele>403.0</ele><time>2026-04-11T13:10:42.342Z</time></trkpt><trkpt lat="42.6740217" lon="11.8834783"><ele>403.0</ele><time>2026-04-11T13:10:43.337Z</time></trkpt><trkpt lat="42.6739991" lon="11.8835872"><ele>403.0</ele><time>2026-04-11T13:10:45.343Z</time></trkpt><trkpt lat="42.6740173" lon="11.8837878"><ele>403.0</ele><time>2026-04-11T13:10:47.348Z</time></trkpt><trkpt lat="42.6740577" lon="11.8839333"><ele>403.0</ele><time>2026-04-11T13:10:48.348Z</time></trkpt><trkpt lat="42.6740993" lon="11.884076"><ele>403.0</ele><time>2026-04-11T13:10:49.34Z</time></trkpt><trkpt lat="42.6741087" lon="11.8842423"><ele>403.0</ele><time>2026-04-11T13:10:50.341Z</time></trkpt><trkpt lat="42.6741084" lon="11.8844256"><ele>403.0</ele><time>2026-04-11T13:10:51.333Z</time></trkpt><trkpt lat="42.6741204" lon="11.8846125"><ele>403.0</ele><time>2026-04-11T13:10:52.346Z</time></trkpt><trkpt lat="42.6741441" lon="11.8847975"><ele>402.5</ele><time>2026-04-11T13:10:53.34Z</time></trkpt><trkpt lat="42.6741502" lon="11.8849699"><ele>402.0</ele><time>2026-04-11T13:10:54.338Z</time></trkpt><trkpt lat="42.6741603" lon="11.8851486"><ele>401.5</ele><time>2026-04-11T13:10:55.339Z</time></trkpt><trkpt lat="42.6741365" lon="11.8853306"><ele>401.0</ele><time>2026-04-11T13:10:56.331Z</time></trkpt><trkpt lat="42.6741183" lon="11.885499"><ele>400.8</ele><time>2026-04-11T13:10:57.331Z</time></trkpt><trkpt lat="42.6740797" lon="11.8856299"><ele>400.6</ele><time>2026-04-11T13:10:58.33Z</time></trkpt><trkpt lat="42.6740495" lon="11.8857672"><ele>400.4</ele><time>2026-04-11T13:10:59.334Z</time></trkpt><trkpt lat="42.6739941" lon="11.8858823"><ele>400.2</ele><time>2026-04-11T13:11:00.329Z</time></trkpt><trkpt lat="42.6739535" lon="11.8860069"><ele>400.0</ele><time>2026-04-11T13:11:01.336Z</time></trkpt><trkpt lat="42.6739055" lon="11.8860898"><ele>397.8</ele><time>2026-04-11T13:11:02.34Z</time></trkpt><trkpt lat="42.6738821" lon="11.886209"><ele>395.6</ele><time>2026-04-11T13:11:03.335Z</time></trkpt><trkpt lat="42.6738523" lon="11.8863451"><ele>393.4</ele><time>2026-04-11T13:11:04.334Z</time></trkpt><trkpt lat="42.6738358" lon="11.8864846"><ele>391.2</ele><time>2026-04-11T13:11:05.332Z</time></trkpt><trkpt lat="42.6738009" lon="11.8866101"><ele>389.0</ele><time>2026-04-11T13:11:06.331Z</time></trkpt><trkpt lat="42.67379" lon="11.8867345"><ele>388.0</ele><time>2026-04-11T13:11:07.342Z</time></trkpt><trkpt lat="42.6737601" lon="11.8868766"><ele>387.0</ele><time>2026-04-11T13:11:08.341Z</time></trkpt><trkpt lat="42.6737273" lon="11.887036"><ele>386.0</ele><time>2026-04-11T13:11:09.338Z</time></trkpt><trkpt lat="42.6737056" lon="11.887185"><ele>385.0</ele><time>2026-04-11T13:11:10.343Z</time></trkpt><trkpt lat="42.6736879" lon="11.8873393"><ele>385.0</ele><time>2026-04-11T13:11:11.338Z</time></trkpt><trkpt lat="42.673679" lon="11.8875255"><ele>385.0</ele><time>2026-04-11T13:11:12.337Z</time></trkpt><trkpt lat="42.6736712" lon="11.8877298"><ele>385.0</ele><time>2026-04-11T13:11:13.335Z</time></trkpt><trkpt lat="42.6736693" lon="11.8879808"><ele>384.75</ele><time>2026-04-11T13:11:14.345Z</time></trkpt><trkpt lat="42.6736546" lon="11.8882045"><ele>384.5</ele><time>2026-04-11T13:11:15.348Z</time></trkpt><trkpt lat="42.6736452" lon="11.8883962"><ele>384.25</ele><time>2026-04-11T13:11:16.348Z</time></trkpt><trkpt lat="42.6736315" lon="11.8885404"><ele>384.0</ele><time>2026-04-11T13:11:17.344Z</time></trkpt><trkpt lat="42.673595" lon="11.8886987"><ele>384.0</ele><time>2026-04-11T13:11:18.339Z</time></trkpt><trkpt lat="42.6735523" lon="11.8887836"><ele>384.0</ele><time>2026-04-11T13:11:19.341Z</time></trkpt><trkpt lat="42.6735055" lon="11.8888541"><ele>384.0</ele><time>2026-04-11T13:11:20.335Z</time></trkpt><trkpt lat="42.6734556" lon="11.88894"><ele>384.0</ele><time>2026-04-11T13:11:21.338Z</time></trkpt><trkpt lat="42.6734174" lon="11.8890415"><ele>384.0</ele><time>2026-04-11T13:11:22.332Z</time></trkpt><trkpt lat="42.6734106" lon="11.8891351"><ele>384.0</ele><time>2026-04-11T13:11:24.347Z</time></trkpt><trkpt lat="42.673481" lon="11.8891556"><ele>384.0</ele><time>2026-04-11T13:11:26.354Z</time></trkpt><trkpt lat="42.673559" lon="11.8891128"><ele>384.0</ele><time>2026-04-11T13:11:27.34Z</time></trkpt><trkpt lat="42.6736394" lon="11.889074"><ele>384.0</ele><time>2026-04-11T13:11:28.341Z</time></trkpt><trkpt lat="42.6737309" lon="11.8890468"><ele>384.0</ele><time>2026-04-11T13:11:29.345Z</time></trkpt><trkpt lat="42.6738177" lon="11.889044"><ele>384.0</ele><time>2026-04-11T13:11:30.341Z</time></trkpt><trkpt lat="42.6739024" lon="11.8890526"><ele>384.0</ele><time>2026-04-11T13:11:31.335Z</time></trkpt><trkpt lat="42.6739896" lon="11.8890797"><ele>386.79999999999995</ele><time>2026-04-11T13:11:32.325Z</time></trkpt><trkpt lat="42.6740797" lon="11.8891293"><ele>389.59999999999997</ele><time>2026-04-11T13:11:33.326Z</time></trkpt><trkpt lat="42.6741805" lon="11.889195"><ele>392.4</ele><time>2026-04-11T13:11:34.326Z</time></trkpt><trkpt lat="42.6742867" lon="11.8892563"><ele>395.2</ele><time>2026-04-11T13:11:35.326Z</time></trkpt><trkpt lat="42.6743832" lon="11.8893233"><ele>398.0</ele><time>2026-04-11T13:11:36.324Z</time></trkpt><trkpt lat="42.6744927" lon="11.8893692"><ele>402.25</ele><time>2026-04-11T13:11:37.32Z</time></trkpt><trkpt lat="42.6746036" lon="11.8894175"><ele>406.5</ele><time>2026-04-11T13:11:38.323Z</time></trkpt><trkpt lat="42.6746761" lon="11.8894507"><ele>410.75</ele><time>2026-04-11T13:11:39.327Z</time></trkpt><trkpt lat="42.6747807" lon="11.8894826"><ele>415.0</ele><time>2026-04-11T13:11:40.32Z</time></trkpt><trkpt lat="42.6749882" lon="11.8895211"><ele>415.0</ele><time>2026-04-11T13:11:41.326Z</time></trkpt><trkpt lat="42.6750981" lon="11.8895272"><ele>415.0</ele><time>2026-04-11T13:11:42.324Z</time></trkpt><trkpt lat="42.6751847" lon="11.8894509"><ele>415.0</ele><time>2026-04-11T13:11:43.329Z</time></trkpt><trkpt lat="42.6753012" lon="11.8894258"><ele>415.0</ele><time>2026-04-11T13:11:44.325Z</time></trkpt><trkpt lat="42.6754542" lon="11.8894189"><ele>414.75</ele><time>2026-04-11T13:11:45.333Z</time></trkpt><trkpt lat="42.6755838" lon="11.8894205"><ele>414.5</ele><time>2026-04-11T13:11:46.334Z</time></trkpt><trkpt lat="42.675701" lon="11.889421"><ele>414.25</ele><time>2026-04-11T13:11:47.333Z</time></trkpt><trkpt lat="42.6758123" lon="11.8894431"><ele>414.0</ele><time>2026-04-11T13:11:48.332Z</time></trkpt><trkpt lat="42.6759247" lon="11.8894643"><ele>414.0</ele><time>2026-04-11T13:11:49.333Z</time></trkpt><trkpt lat="42.6759756" lon="11.889524"><ele>414.0</ele><time>2026-04-11T13:11:50.347Z</time></trkpt><trkpt lat="42.6760227" lon="11.8896921"><ele>414.0</ele><time>2026-04-11T13:11:51.355Z</time></trkpt><trkpt lat="42.6759713" lon="11.8898189"><ele>414.0</ele><time>2026-04-11T13:11:52.348Z</time></trkpt><trkpt lat="42.6758965" lon="11.8899249"><ele>414.0</ele><time>2026-04-11T13:11:54.352Z</time></trkpt><trkpt lat="42.6757401" lon="11.8900681"><ele>413.0</ele><time>2026-04-11T13:11:56.362Z</time></trkpt><trkpt lat="42.675606" lon="11.890183"><ele>412.0</ele><time>2026-04-11T13:11:57.346Z</time></trkpt><trkpt lat="42.6755565" lon="11.8902973"><ele>411.0</ele><time>2026-04-11T13:11:58.357Z</time></trkpt><trkpt lat="42.6755245" lon="11.8904131"><ele>410.0</ele><time>2026-04-11T13:11:59.357Z</time></trkpt><trkpt lat="42.6754927" lon="11.8905285"><ele>409.0</ele><time>2026-04-11T13:12:00.354Z</time></trkpt><trkpt lat="42.6754678" lon="11.8906487"><ele>409.0</ele><time>2026-04-11T13:12:01.358Z</time></trkpt><trkpt lat="42.6754325" lon="11.8907529"><ele>409.0</ele><time>2026-04-11T13:12:02.352Z</time></trkpt><trkpt lat="42.6753983" lon="11.8908472"><ele>409.0</ele><time>2026-04-11T13:12:03.346Z</time></trkpt><trkpt lat="42.6753362" lon="11.890948"><ele>409.0</ele><time>2026-04-11T13:12:04.353Z</time></trkpt><trkpt lat="42.6752657" lon="11.8910517"><ele>409.0</ele><time>2026-04-11T13:12:05.353Z</time></trkpt><trkpt lat="42.6751835" lon="11.8911537"><ele>409.4</ele><time>2026-04-11T13:12:06.354Z</time></trkpt><trkpt lat="42.6750992" lon="11.8912516"><ele>409.79999999999995</ele><time>2026-04-11T13:12:07.354Z</time></trkpt><trkpt lat="42.6750195" lon="11.8913394"><ele>410.20000000000005</ele><time>2026-04-11T13:12:08.355Z</time></trkpt><trkpt lat="42.6749471" lon="11.8914203"><ele>410.6</ele><time>2026-04-11T13:12:09.351Z</time></trkpt><trkpt lat="42.6748906" lon="11.8914884"><ele>411.0</ele><time>2026-04-11T13:12:10.353Z</time></trkpt><trkpt lat="42.6747978" lon="11.8916022"><ele>411.0</ele><time>2026-04-11T13:12:12.352Z</time></trkpt><trkpt lat="42.6747479" lon="11.8916604"><ele>411.0</ele><time>2026-04-11T13:12:13.35Z</time></trkpt><trkpt lat="42.6747017" lon="11.891722"><ele>411.0</ele><time>2026-04-11T13:12:14.352Z</time></trkpt><trkpt lat="42.6746542" lon="11.8917871"><ele>411.0</ele><time>2026-04-11T13:12:15.359Z</time></trkpt><trkpt lat="42.6746064" lon="11.8918558"><ele>411.0</ele><time>2026-04-11T13:12:16.361Z</time></trkpt><trkpt lat="42.6745552" lon="11.8919224"><ele>411.0</ele><time>2026-04-11T13:12:17.361Z</time></trkpt><trkpt lat="42.6744544" lon="11.8920298"><ele>410.3333333333333</ele><time>2026-04-11T13:12:19.357Z</time></trkpt><trkpt lat="42.6743925" lon="11.8920852"><ele>409.66666666666663</ele><time>2026-04-11T13:12:20.354Z</time></trkpt><trkpt lat="42.67432" lon="11.8921294"><ele>409.0</ele><time>2026-04-11T13:12:21.356Z</time></trkpt><trkpt lat="42.6742452" lon="11.8921578"><ele>408.3333333333333</ele><time>2026-04-11T13:12:22.359Z</time></trkpt><trkpt lat="42.674151" lon="11.8922133"><ele>407.66666666666663</ele><time>2026-04-11T13:12:23.363Z</time></trkpt><trkpt lat="42.6740543" lon="11.8922734"><ele>407.0</ele><time>2026-04-11T13:12:24.35Z</time></trkpt><trkpt lat="42.6739581" lon="11.8923411"><ele>407.0</ele><time>2026-04-11T13:12:25.36Z</time></trkpt><trkpt lat="42.6738588" lon="11.8924206"><ele>407.0</ele><time>2026-04-11T13:12:26.353Z</time></trkpt><trkpt lat="42.6737585" lon="11.8925043"><ele>407.0</ele><time>2026-04-11T13:12:27.359Z</time></trkpt><trkpt lat="42.6736549" lon="11.8925963"><ele>407.0</ele><time>2026-04-11T13:12:28.352Z</time></trkpt><trkpt lat="42.673545" lon="11.8926872"><ele>405.0</ele><time>2026-04-11T13:12:29.357Z</time></trkpt><trkpt lat="42.6734412" lon="11.8927713"><ele>403.0</ele><time>2026-04-11T13:12:30.348Z</time></trkpt><trkpt lat="42.6733424" lon="11.8928531"><ele>401.0</ele><time>2026-04-11T13:12:31.358Z</time></trkpt><trkpt lat="42.6732453" lon="11.8929251"><ele>399.0</ele><time>2026-04-11T13:12:32.353Z</time></trkpt><trkpt lat="42.6731571" lon="11.893002"><ele>399.0</ele><time>2026-04-11T13:12:33.351Z</time></trkpt><trkpt lat="42.6730717" lon="11.8930705"><ele>399.0</ele><time>2026-04-11T13:12:34.345Z</time></trkpt><trkpt lat="42.6729946" lon="11.8931474"><ele>399.0</ele><time>2026-04-11T13:12:35.343Z</time></trkpt><trkpt lat="42.672932" lon="11.8932374"><ele>399.0</ele><time>2026-04-11T13:12:36.338Z</time></trkpt><trkpt lat="42.6728718" lon="11.8933035"><ele>399.0</ele><time>2026-04-11T13:12:37.34Z</time></trkpt><trkpt lat="42.6728072" lon="11.8933941"><ele>399.2</ele><time>2026-04-11T13:12:38.346Z</time></trkpt><trkpt lat="42.6727644" lon="11.8934577"><ele>399.4</ele><time>2026-04-11T13:12:39.339Z</time></trkpt><trkpt lat="42.6726978" lon="11.8935573"><ele>399.6</ele><time>2026-04-11T13:12:41.34Z</time></trkpt><trkpt lat="42.6726598" lon="11.893665"><ele>399.8</ele><time>2026-04-11T13:12:44.345Z</time></trkpt><trkpt lat="42.6727856" lon="11.8936795"><ele>400.0</ele><time>2026-04-11T13:12:45.346Z</time></trkpt><trkpt lat="42.6728807" lon="11.8936909"><ele>399.00000000000006</ele><time>2026-04-11T13:12:46.345Z</time></trkpt><trkpt lat="42.6729512" lon="11.8937047"><ele>398.0</ele><time>2026-04-11T13:12:47.345Z</time></trkpt><trkpt lat="42.6730345" lon="11.8937509"><ele>397.0</ele><time>2026-04-11T13:12:53.368Z</time></trkpt><trkpt lat="42.6730949" lon="11.8937036"><ele>396.0</ele><time>2026-04-11T13:12:56.368Z</time></trkpt><trkpt lat="42.6731509" lon="11.8936342"><ele>395.00000000000006</ele><time>2026-04-11T13:13:02.346Z</time></trkpt><trkpt lat="42.673063" lon="11.8937238"><ele>394.0</ele><time>2026-04-11T13:13:05.337Z</time></trkpt><trkpt lat="42.6729387" lon="11.8938454"><ele>394.0</ele><time>2026-04-11T13:13:06.345Z</time></trkpt><trkpt lat="42.6730045" lon="11.8938533"><ele>394.0</ele><time>2026-04-11T13:13:07.339Z</time></trkpt><trkpt lat="42.6731154" lon="11.8938708"><ele>394.0</ele><time>2026-04-11T13:13:08.345Z</time></trkpt><trkpt lat="42.6732201" lon="11.8938502"><ele>394.0</ele><time>2026-04-11T13:13:09.34Z</time></trkpt><trkpt lat="42.673355" lon="11.8938393"><ele>394.0</ele><time>2026-04-11T13:13:10.354Z</time></trkpt><trkpt lat="42.6735283" lon="11.8938715"><ele>391.6</ele><time>2026-04-11T13:13:11.35Z</time></trkpt><trkpt lat="42.6736618" lon="11.8938764"><ele>389.2</ele><time>2026-04-11T13:13:12.343Z</time></trkpt><trkpt lat="42.6737608" lon="11.8938735"><ele>386.8</ele><time>2026-04-11T13:13:13.34Z</time></trkpt><trkpt lat="42.6738449" lon="11.8938682"><ele>384.40000000000003</ele><time>2026-04-11T13:13:14.345Z</time></trkpt><trkpt lat="42.6739236" lon="11.8938442"><ele>382.0</ele><time>2026-04-11T13:13:15.344Z</time></trkpt><trkpt lat="42.6740047" lon="11.8938456"><ele>382.0</ele><time>2026-04-11T13:13:16.346Z</time></trkpt><trkpt lat="42.6740707" lon="11.8938213"><ele>382.0</ele><time>2026-04-11T13:13:17.334Z</time></trkpt><trkpt lat="42.6741392" lon="11.8937909"><ele>382.0</ele><time>2026-04-11T13:13:18.336Z</time></trkpt><trkpt lat="42.6742032" lon="11.8937639"><ele>382.0</ele><time>2026-04-11T13:13:19.334Z</time></trkpt><trkpt lat="42.6742786" lon="11.8937402"><ele>382.0</ele><time>2026-04-11T13:13:20.335Z</time></trkpt><trkpt lat="42.6743595" lon="11.8937136"><ele>382.0</ele><time>2026-04-11T13:13:21.333Z</time></trkpt><trkpt lat="42.6744356" lon="11.893676"><ele>382.0</ele><time>2026-04-11T13:13:22.336Z</time></trkpt><trkpt lat="42.6744859" lon="11.8936113"><ele>384.0</ele><time>2026-04-11T13:13:23.336Z</time></trkpt><trkpt lat="42.6745645" lon="11.893555"><ele>386.0</ele><time>2026-04-11T13:13:24.336Z</time></trkpt><trkpt lat="42.6746532" lon="11.89346"><ele>388.0</ele><time>2026-04-11T13:13:25.336Z</time></trkpt><trkpt lat="42.6747447" lon="11.8933897"><ele>390.0</ele><time>2026-04-11T13:13:26.333Z</time></trkpt><trkpt lat="42.6748396" lon="11.8933041"><ele>392.0</ele><time>2026-04-11T13:13:27.334Z</time></trkpt><trkpt lat="42.6749325" lon="11.8932146"><ele>391.99999999999994</ele><time>2026-04-11T13:13:28.33Z</time></trkpt><trkpt lat="42.6749976" lon="11.8931401"><ele>392.0</ele><time>2026-04-11T13:13:29.337Z</time></trkpt><trkpt lat="42.6750704" lon="11.8930763"><ele>392.0</ele><time>2026-04-11T13:13:30.328Z</time></trkpt><trkpt lat="42.6751667" lon="11.8930437"><ele>392.0</ele><time>2026-04-11T13:13:32.325Z</time></trkpt><trkpt lat="42.6751482" lon="11.893155"><ele>391.99999999999994</ele><time>2026-04-11T13:13:45.343Z</time></trkpt><trkpt lat="42.6751045" lon="11.8932209"><ele>392.0</ele><time>2026-04-11T13:13:47.342Z</time></trkpt><trkpt lat="42.6750433" lon="11.8933076"><ele>392.0</ele><time>2026-04-11T13:13:49.337Z</time></trkpt><trkpt lat="42.6749252" lon="11.8934141"><ele>392.0</ele><time>2026-04-11T13:13:51.333Z</time></trkpt><trkpt lat="42.6748785" lon="11.8935599"><ele>392.0</ele><time>2026-04-11T13:13:53.335Z</time></trkpt><trkpt lat="42.6748206" lon="11.893645"><ele>392.0</ele><time>2026-04-11T13:13:54.34Z</time></trkpt><trkpt lat="42.6747796" lon="11.8937498"><ele>392.0</ele><time>2026-04-11T13:13:55.335Z</time></trkpt><trkpt lat="42.6747051" lon="11.8938729"><ele>392.40000000000003</ele><time>2026-04-11T13:13:57.345Z</time></trkpt><trkpt lat="42.6746431" lon="11.8939374"><ele>392.8</ele><time>2026-04-11T13:14:00.353Z</time></trkpt><trkpt lat="42.6746933" lon="11.893851"><ele>393.2</ele><time>2026-04-11T13:14:19.34Z</time></trkpt><trkpt lat="42.6747328" lon="11.89374"><ele>393.6</ele><time>2026-04-11T13:14:20.338Z</time></trkpt><trkpt lat="42.6748101" lon="11.893583"><ele>394.0</ele><time>2026-04-11T13:14:21.335Z</time></trkpt><trkpt lat="42.6748568" lon="11.8934602"><ele>393.6</ele><time>2026-04-11T13:14:22.336Z</time></trkpt><trkpt lat="42.6749288" lon="11.893368"><ele>393.2</ele><time>2026-04-11T13:14:23.336Z</time></trkpt><trkpt lat="42.6749745" lon="11.893258"><ele>392.8</ele><time>2026-04-11T13:14:24.339Z</time></trkpt><trkpt lat="42.6750334" lon="11.8931506"><ele>392.40000000000003</ele><time>2026-04-11T13:14:25.343Z</time></trkpt><trkpt lat="42.6750805" lon="11.893058"><ele>392.0</ele><time>2026-04-11T13:14:26.341Z</time></trkpt><trkpt lat="42.6751521" lon="11.8929855"><ele>391.99999999999994</ele><time>2026-04-11T13:14:27.339Z</time></trkpt><trkpt lat="42.6752186" lon="11.89293"><ele>392.0</ele><time>2026-04-11T13:14:28.338Z</time></trkpt><trkpt lat="42.6752736" lon="11.8928693"><ele>392.0</ele><time>2026-04-11T13:14:29.343Z</time></trkpt><trkpt lat="42.6753833" lon="11.8927745"><ele>392.0</ele><time>2026-04-11T13:14:31.343Z</time></trkpt><trkpt lat="42.6754588" lon="11.8927499"><ele>391.99999999999994</ele><time>2026-04-11T13:14:32.337Z</time></trkpt><trkpt lat="42.6755269" lon="11.8927318"><ele>392.0</ele><time>2026-04-11T13:14:33.33Z</time></trkpt><trkpt lat="42.6755989" lon="11.8927305"><ele>395.20000000000005</ele><time>2026-04-11T13:14:34.327Z</time></trkpt><trkpt lat="42.6756762" lon="11.8927423"><ele>398.4</ele><time>2026-04-11T13:14:35.322Z</time></trkpt><trkpt lat="42.6757602" lon="11.8927644"><ele>401.6</ele><time>2026-04-11T13:14:36.323Z</time></trkpt><trkpt lat="42.6758453" lon="11.892791"><ele>404.79999999999995</ele><time>2026-04-11T13:14:37.328Z</time></trkpt><trkpt lat="42.6759383" lon="11.8928178"><ele>408.0</ele><time>2026-04-11T13:14:38.329Z</time></trkpt><trkpt lat="42.6760517" lon="11.8928687"><ele>408.79999999999995</ele><time>2026-04-11T13:14:39.328Z</time></trkpt><trkpt lat="42.6761527" lon="11.892914"><ele>409.6</ele><time>2026-04-11T13:14:40.326Z</time></trkpt><trkpt lat="42.6762796" lon="11.8929608"><ele>410.4</ele><time>2026-04-11T13:14:41.33Z</time></trkpt><trkpt lat="42.6763652" lon="11.8930141"><ele>411.20000000000005</ele><time>2026-04-11T13:14:42.329Z</time></trkpt><trkpt lat="42.6764518" lon="11.893076"><ele>412.0</ele><time>2026-04-11T13:14:43.327Z</time></trkpt><trkpt lat="42.676546" lon="11.8931535"><ele>412.00000000000006</ele><time>2026-04-11T13:14:44.332Z</time></trkpt><trkpt lat="42.676615" lon="11.8932565"><ele>412.0</ele><time>2026-04-11T13:14:45.34Z</time></trkpt><trkpt lat="42.6766778" lon="11.893352"><ele>412.0</ele><time>2026-04-11T13:14:46.34Z</time></trkpt><trkpt lat="42.6767479" lon="11.8934415"><ele>412.0</ele><time>2026-04-11T13:14:47.337Z</time></trkpt><trkpt lat="42.676805" lon="11.8935069"><ele>412.00000000000006</ele><time>2026-04-11T13:14:48.339Z</time></trkpt><trkpt lat="42.6768766" lon="11.8935301"><ele>412.0</ele><time>2026-04-11T13:14:49.342Z</time></trkpt><trkpt lat="42.6769458" lon="11.8935461"><ele>413.83333333333337</ele><time>2026-04-11T13:14:50.335Z</time></trkpt><trkpt lat="42.6770094" lon="11.8935534"><ele>415.6666666666667</ele><time>2026-04-11T13:14:51.335Z</time></trkpt><trkpt lat="42.6770718" lon="11.8935711"><ele>417.5</ele><time>2026-04-11T13:14:52.334Z</time></trkpt><trkpt lat="42.6771476" lon="11.8936012"><ele>419.33333333333337</ele><time>2026-04-11T13:14:53.335Z</time></trkpt><trkpt lat="42.6772368" lon="11.893634"><ele>421.1666666666667</ele><time>2026-04-11T13:14:54.336Z</time></trkpt><trkpt lat="42.677319" lon="11.8936715"><ele>423.0</ele><time>2026-04-11T13:14:55.338Z</time></trkpt><trkpt lat="42.6773783" lon="11.8937128"><ele>423.0</ele><time>2026-04-11T13:14:56.336Z</time></trkpt><trkpt lat="42.6774625" lon="11.893763"><ele>423.0</ele><time>2026-04-11T13:14:57.335Z</time></trkpt><trkpt lat="42.6775221" lon="11.8938366"><ele>423.0</ele><time>2026-04-11T13:14:58.335Z</time></trkpt><trkpt lat="42.6775813" lon="11.8939148"><ele>423.0</ele><time>2026-04-11T13:14:59.34Z</time></trkpt><trkpt lat="42.6776285" lon="11.8940065"><ele>423.0</ele><time>2026-04-11T13:15:00.34Z</time></trkpt><trkpt lat="42.6776933" lon="11.8941001"><ele>423.0</ele><time>2026-04-11T13:15:01.339Z</time></trkpt><trkpt lat="42.6777689" lon="11.8941919"><ele>424.2</ele><time>2026-04-11T13:15:02.326Z</time></trkpt><trkpt lat="42.6778379" lon="11.8942898"><ele>425.4</ele><time>2026-04-11T13:15:03.319Z</time></trkpt><trkpt lat="42.6779056" lon="11.894377"><ele>426.59999999999997</ele><time>2026-04-11T13:15:04.318Z</time></trkpt><trkpt lat="42.6779724" lon="11.8944477"><ele>427.79999999999995</ele><time>2026-04-11T13:15:05.321Z</time></trkpt><trkpt lat="42.6780319" lon="11.8945257"><ele>429.0</ele><time>2026-04-11T13:15:06.32Z</time></trkpt><trkpt lat="42.6781199" lon="11.8946199"><ele>429.0</ele><time>2026-04-11T13:15:08.322Z</time></trkpt><trkpt lat="42.678208" lon="11.8946731"><ele>429.0</ele><time>2026-04-11T13:15:10.325Z</time></trkpt><trkpt lat="42.6782902" lon="11.8946925"><ele>429.0</ele><time>2026-04-11T13:15:11.328Z</time></trkpt><trkpt lat="42.6783652" lon="11.894725"><ele>429.0</ele><time>2026-04-11T13:15:12.325Z</time></trkpt><trkpt lat="42.6784596" lon="11.8947578"><ele>429.0</ele><time>2026-04-11T13:15:13.325Z</time></trkpt><trkpt lat="42.6785659" lon="11.8947905"><ele>431.75</ele><time>2026-04-11T13:15:14.321Z</time></trkpt><trkpt lat="42.6787001" lon="11.8948078"><ele>434.5</ele><time>2026-04-11T13:15:15.325Z</time></trkpt><trkpt lat="42.6787838" lon="11.8948455"><ele>437.25</ele><time>2026-04-11T13:15:16.327Z</time></trkpt><trkpt lat="42.6789047" lon="11.8948664"><ele>440.0</ele><time>2026-04-11T13:15:17.326Z</time></trkpt><trkpt lat="42.6790221" lon="11.8948913"><ele>440.0</ele><time>2026-04-11T13:15:18.328Z</time></trkpt><trkpt lat="42.6791422" lon="11.8949175"><ele>440.0</ele><time>2026-04-11T13:15:19.327Z</time></trkpt><trkpt lat="42.679258" lon="11.8949465"><ele>440.0</ele><time>2026-04-11T13:15:20.324Z</time></trkpt><trkpt lat="42.6793585" lon="11.8949962"><ele>440.0</ele><time>2026-04-11T13:15:21.325Z</time></trkpt><trkpt lat="42.6794687" lon="11.8950604"><ele>443.75</ele><time>2026-04-11T13:15:22.333Z</time></trkpt><trkpt lat="42.6795705" lon="11.89516"><ele>447.5</ele><time>2026-04-11T13:15:23.329Z</time></trkpt><trkpt lat="42.679649" lon="11.8952815"><ele>451.25</ele><time>2026-04-11T13:15:24.332Z</time></trkpt><trkpt lat="42.679729" lon="11.895413"><ele>455.0</ele><time>2026-04-11T13:15:25.331Z</time></trkpt><trkpt lat="42.6798106" lon="11.8955462"><ele>455.0</ele><time>2026-04-11T13:15:26.328Z</time></trkpt><trkpt lat="42.679879" lon="11.8956886"><ele>455.0</ele><time>2026-04-11T13:15:27.329Z</time></trkpt><trkpt lat="42.6799392" lon="11.8958317"><ele>455.0</ele><time>2026-04-11T13:15:28.33Z</time></trkpt><trkpt lat="42.6799958" lon="11.8959656"><ele>455.0</ele><time>2026-04-11T13:15:29.329Z</time></trkpt><trkpt lat="42.6800414" lon="11.8960655"><ele>455.0</ele><time>2026-04-11T13:15:30.329Z</time></trkpt><trkpt lat="42.680122" lon="11.8961365"><ele>453.5</ele><time>2026-04-11T13:15:31.324Z</time></trkpt><trkpt lat="42.6802166" lon="11.8962146"><ele>452.0</ele><time>2026-04-11T13:15:32.336Z</time></trkpt><trkpt lat="42.6803045" lon="11.8962983"><ele>450.5</ele><time>2026-04-11T13:15:33.326Z</time></trkpt><trkpt lat="42.6803993" lon="11.8963987"><ele>449.0</ele><time>2026-04-11T13:15:34.328Z</time></trkpt><trkpt lat="42.6804821" lon="11.8965136"><ele>454.0</ele><time>2026-04-11T13:15:35.326Z</time></trkpt><trkpt lat="42.6805446" lon="11.8966481"><ele>459.0</ele><time>2026-04-11T13:15:36.322Z</time></trkpt><trkpt lat="42.6805931" lon="11.8968185"><ele>464.0</ele><time>2026-04-11T13:15:37.325Z</time></trkpt><trkpt lat="42.6806394" lon="11.8970021"><ele>469.0</ele><time>2026-04-11T13:15:38.323Z</time></trkpt><trkpt lat="42.6806846" lon="11.8971902"><ele>469.25</ele><time>2026-04-11T13:15:39.325Z</time></trkpt><trkpt lat="42.680732" lon="11.897372"><ele>469.5</ele><time>2026-04-11T13:15:40.326Z</time></trkpt><trkpt lat="42.6807733" lon="11.8975322"><ele>469.75</ele><time>2026-04-11T13:15:41.323Z</time></trkpt><trkpt lat="42.6808103" lon="11.8976813"><ele>470.0</ele><time>2026-04-11T13:15:42.325Z</time></trkpt><trkpt lat="42.6808271" lon="11.8978354"><ele>468.75</ele><time>2026-04-11T13:15:43.326Z</time></trkpt><trkpt lat="42.6808483" lon="11.8979692"><ele>467.5</ele><time>2026-04-11T13:15:44.328Z</time></trkpt><trkpt lat="42.6809269" lon="11.8981041"><ele>466.25</ele><time>2026-04-11T13:15:45.33Z</time></trkpt><trkpt lat="42.6810245" lon="11.8982136"><ele>465.0</ele><time>2026-04-11T13:15:46.327Z</time></trkpt><trkpt lat="42.6811157" lon="11.8983206"><ele>468.25</ele><time>2026-04-11T13:15:47.326Z</time></trkpt><trkpt lat="42.6812199" lon="11.8984152"><ele>471.5</ele><time>2026-04-11T13:15:48.329Z</time></trkpt><trkpt lat="42.6813265" lon="11.898509"><ele>474.75</ele><time>2026-04-11T13:15:49.326Z</time></trkpt><trkpt lat="42.6814203" lon="11.8985958"><ele>478.0</ele><time>2026-04-11T13:15:50.328Z</time></trkpt><trkpt lat="42.6814734" lon="11.898701"><ele>478.2</ele><time>2026-04-11T13:15:51.325Z</time></trkpt><trkpt lat="42.6815163" lon="11.8988029"><ele>478.4</ele><time>2026-04-11T13:15:52.33Z</time></trkpt><trkpt lat="42.6815312" lon="11.8989319"><ele>478.59999999999997</ele><time>2026-04-11T13:15:53.332Z</time></trkpt><trkpt lat="42.6815235" lon="11.8991026"><ele>478.79999999999995</ele><time>2026-04-11T13:15:54.333Z</time></trkpt><trkpt lat="42.6815231" lon="11.8992669"><ele>479.0</ele><time>2026-04-11T13:15:55.335Z</time></trkpt><trkpt lat="42.6815123" lon="11.8994483"><ele>479.0</ele><time>2026-04-11T13:15:56.333Z</time></trkpt><trkpt lat="42.6815074" lon="11.8996494"><ele>479.0</ele><time>2026-04-11T13:15:57.339Z</time></trkpt><trkpt lat="42.6815129" lon="11.8998359"><ele>479.0</ele><time>2026-04-11T13:15:58.342Z</time></trkpt><trkpt lat="42.6815155" lon="11.900015"><ele>479.0</ele><time>2026-04-11T13:15:59.342Z</time></trkpt><trkpt lat="42.6815125" lon="11.9001855"><ele>478.0</ele><time>2026-04-11T13:16:00.342Z</time></trkpt><trkpt lat="42.6815152" lon="11.9003506"><ele>477.0</ele><time>2026-04-11T13:16:01.337Z</time></trkpt><trkpt lat="42.6815351" lon="11.9004865"><ele>476.0</ele><time>2026-04-11T13:16:02.34Z</time></trkpt><trkpt lat="42.6815826" lon="11.9006379"><ele>475.0</ele><time>2026-04-11T13:16:03.338Z</time></trkpt><trkpt lat="42.6816366" lon="11.9007679"><ele>475.0</ele><time>2026-04-11T13:16:04.342Z</time></trkpt><trkpt lat="42.6817144" lon="11.9008659"><ele>475.0</ele><time>2026-04-11T13:16:05.335Z</time></trkpt><trkpt lat="42.6818095" lon="11.9009616"><ele>475.0</ele><time>2026-04-11T13:16:06.333Z</time></trkpt><trkpt lat="42.681916" lon="11.9010442"><ele>475.0</ele><time>2026-04-11T13:16:07.336Z</time></trkpt><trkpt lat="42.6820259" lon="11.9011137"><ele>477.25</ele><time>2026-04-11T13:16:08.334Z</time></trkpt><trkpt lat="42.682147" lon="11.9012103"><ele>479.5</ele><time>2026-04-11T13:16:09.33Z</time></trkpt><trkpt lat="42.6822716" lon="11.9012503"><ele>481.75</ele><time>2026-04-11T13:16:10.327Z</time></trkpt><trkpt lat="42.682365" lon="11.9013063"><ele>484.0</ele><time>2026-04-11T13:16:11.334Z</time></trkpt><trkpt lat="42.6824458" lon="11.9013634"><ele>484.0</ele><time>2026-04-11T13:16:12.326Z</time></trkpt><trkpt lat="42.6825178" lon="11.901424"><ele>484.0</ele><time>2026-04-11T13:16:13.329Z</time></trkpt><trkpt lat="42.6826014" lon="11.9015044"><ele>484.0</ele><time>2026-04-11T13:16:14.329Z</time></trkpt><trkpt lat="42.6826394" lon="11.9015918"><ele>484.0</ele><time>2026-04-11T13:16:15.33Z</time></trkpt><trkpt lat="42.6826321" lon="11.9017056"><ele>484.0</ele><time>2026-04-11T13:16:16.33Z</time></trkpt><trkpt lat="42.682593" lon="11.9018553"><ele>483.6666666666667</ele><time>2026-04-11T13:16:17.328Z</time></trkpt><trkpt lat="42.682537" lon="11.9020302"><ele>483.33333333333337</ele><time>2026-04-11T13:16:18.333Z</time></trkpt><trkpt lat="42.6824645" lon="11.9022345"><ele>483.0</ele><time>2026-04-11T13:16:19.332Z</time></trkpt><trkpt lat="42.6824139" lon="11.9024291"><ele>483.25</ele><time>2026-04-11T13:16:20.334Z</time></trkpt><trkpt lat="42.6823798" lon="11.9026236"><ele>483.5</ele><time>2026-04-11T13:16:21.333Z</time></trkpt><trkpt lat="42.6823631" lon="11.9028018"><ele>483.75</ele><time>2026-04-11T13:16:22.359Z</time></trkpt><trkpt lat="42.6823606" lon="11.9030227"><ele>484.0</ele><time>2026-04-11T13:16:23.331Z</time></trkpt><trkpt lat="42.6823731" lon="11.903225"><ele>484.0</ele><time>2026-04-11T13:16:24.333Z</time></trkpt><trkpt lat="42.6824467" lon="11.9034114"><ele>484.0</ele><time>2026-04-11T13:16:25.34Z</time></trkpt><trkpt lat="42.6825008" lon="11.9036048"><ele>484.0</ele><time>2026-04-11T13:16:26.339Z</time></trkpt><trkpt lat="42.6825329" lon="11.9037993"><ele>483.5</ele><time>2026-04-11T13:16:27.335Z</time></trkpt><trkpt lat="42.6825641" lon="11.903974"><ele>483.0</ele><time>2026-04-11T13:16:28.333Z</time></trkpt><trkpt lat="42.6825799" lon="11.9041287"><ele>482.5</ele><time>2026-04-11T13:16:29.337Z</time></trkpt><trkpt lat="42.6826" lon="11.904282"><ele>482.0</ele><time>2026-04-11T13:16:30.334Z</time></trkpt><trkpt lat="42.6826365" lon="11.9044509"><ele>484.0</ele><time>2026-04-11T13:16:31.33Z</time></trkpt><trkpt lat="42.6827172" lon="11.9045787"><ele>486.00000000000006</ele><time>2026-04-11T13:16:32.329Z</time></trkpt><trkpt lat="42.6828134" lon="11.9046909"><ele>488.00000000000006</ele><time>2026-04-11T13:16:33.324Z</time></trkpt><trkpt lat="42.6829004" lon="11.9047775"><ele>490.0</ele><time>2026-04-11T13:16:34.334Z</time></trkpt><trkpt lat="42.6829746" lon="11.9048243"><ele>492.0</ele><time>2026-04-11T13:16:35.328Z</time></trkpt><trkpt lat="42.6830891" lon="11.9048349"><ele>492.0</ele><time>2026-04-11T13:16:36.334Z</time></trkpt><trkpt lat="42.683185" lon="11.9048652"><ele>492.00000000000006</ele><time>2026-04-11T13:16:37.337Z</time></trkpt><trkpt lat="42.6832965" lon="11.9049241"><ele>492.00000000000006</ele><time>2026-04-11T13:16:38.335Z</time></trkpt><trkpt lat="42.6833809" lon="11.9049834"><ele>492.0</ele><time>2026-04-11T13:16:39.338Z</time></trkpt><trkpt lat="42.683464" lon="11.9050241"><ele>492.0</ele><time>2026-04-11T13:16:40.335Z</time></trkpt><trkpt lat="42.6835603" lon="11.9050634"><ele>492.0</ele><time>2026-04-11T13:16:41.33Z</time></trkpt><trkpt lat="42.6836473" lon="11.9051017"><ele>492.0</ele><time>2026-04-11T13:16:42.334Z</time></trkpt><trkpt lat="42.6837253" lon="11.9051267"><ele>492.0</ele><time>2026-04-11T13:16:43.324Z</time></trkpt><trkpt lat="42.6837996" lon="11.9051213"><ele>492.0</ele><time>2026-04-11T13:16:44.326Z</time></trkpt><trkpt lat="42.6838517" lon="11.9050208"><ele>496.0</ele><time>2026-04-11T13:16:55.342Z</time></trkpt></trkseg></trk></gpx>